<?xml version="1.0" encoding="UTF-8" standalone="no" ?>
<gpx xmlns="http://www.topografix.com/GPX/1/1" xmlns:xsi="http://www.w3.org/2001/XMLSchema-instance" xsi:schemaLocation="http://www.topografix.com/GPX/1/1 http://www.topografix.com/GPX/1/1/gpx.xsd" version="1.1" creator="VisuGPX - https://www.visugpx.com">
  <metadata>
    <name>06 - D+  Boréon </name>
    <desc><![CDATA[06 - D+  Boréon : col Salèse - raquettes 
2023-02-05]]></desc>
  </metadata>
  <trk>
    <name><![CDATA[Boréon col Salèse raquettes 2023-02-05-01]]></name>
    <trkseg>
      <trkpt lat="44.12212" lon="7.27157">
        <ele>1625.7</ele>
        <time>2023-02-05T08:45:20Z</time>
      </trkpt>
      <trkpt lat="44.12212" lon="7.27157">
        <ele>1625.7</ele>
        <time>2023-02-05T08:45:21Z</time>
      </trkpt>
      <trkpt lat="44.12212" lon="7.27157">
        <ele>1625.7</ele>
        <time>2023-02-05T08:45:22Z</time>
      </trkpt>
      <trkpt lat="44.12213" lon="7.27157">
        <ele>1625.6</ele>
        <time>2023-02-05T08:45:23Z</time>
      </trkpt>
      <trkpt lat="44.12213" lon="7.27157">
        <ele>1625.6</ele>
        <time>2023-02-05T08:45:24Z</time>
      </trkpt>
      <trkpt lat="44.12213" lon="7.27157">
        <ele>1625.6</ele>
        <time>2023-02-05T08:45:25Z</time>
      </trkpt>
      <trkpt lat="44.12211" lon="7.27159">
        <ele>1625.7</ele>
        <time>2023-02-05T08:45:26Z</time>
      </trkpt>
      <trkpt lat="44.12211" lon="7.27159">
        <ele>1625.7</ele>
        <time>2023-02-05T08:45:27Z</time>
      </trkpt>
      <trkpt lat="44.12211" lon="7.27158">
        <ele>1625.7</ele>
        <time>2023-02-05T08:45:28Z</time>
      </trkpt>
      <trkpt lat="44.12212" lon="7.27158">
        <ele>1625.7</ele>
        <time>2023-02-05T08:45:29Z</time>
      </trkpt>
      <trkpt lat="44.12212" lon="7.27158">
        <ele>1625.6</ele>
        <time>2023-02-05T08:45:30Z</time>
      </trkpt>
      <trkpt lat="44.12212" lon="7.27158">
        <ele>1625.6</ele>
        <time>2023-02-05T08:45:31Z</time>
      </trkpt>
      <trkpt lat="44.12212" lon="7.27159">
        <ele>1625.6</ele>
        <time>2023-02-05T08:45:32Z</time>
      </trkpt>
      <trkpt lat="44.12211" lon="7.27158">
        <ele>1625.6</ele>
        <time>2023-02-05T08:45:33Z</time>
      </trkpt>
      <trkpt lat="44.12211" lon="7.27157">
        <ele>1625.6</ele>
        <time>2023-02-05T08:45:34Z</time>
      </trkpt>
      <trkpt lat="44.12211" lon="7.27157">
        <ele>1625.6</ele>
        <time>2023-02-05T08:45:35Z</time>
      </trkpt>
      <trkpt lat="44.12211" lon="7.27156">
        <ele>1625.6</ele>
        <time>2023-02-05T08:45:36Z</time>
      </trkpt>
      <trkpt lat="44.12212" lon="7.27156">
        <ele>1625.6</ele>
        <time>2023-02-05T08:45:37Z</time>
      </trkpt>
      <trkpt lat="44.12212" lon="7.27156">
        <ele>1625.6</ele>
        <time>2023-02-05T08:45:38Z</time>
      </trkpt>
      <trkpt lat="44.12212" lon="7.27156">
        <ele>1625.6</ele>
        <time>2023-02-05T08:45:39Z</time>
      </trkpt>
      <trkpt lat="44.12212" lon="7.27157">
        <ele>1625.5</ele>
        <time>2023-02-05T08:45:40Z</time>
      </trkpt>
      <trkpt lat="44.12212" lon="7.27157">
        <ele>1625.5</ele>
        <time>2023-02-05T08:45:41Z</time>
      </trkpt>
      <trkpt lat="44.12212" lon="7.27157">
        <ele>1625.5</ele>
        <time>2023-02-05T08:45:42Z</time>
      </trkpt>
      <trkpt lat="44.12213" lon="7.27158">
        <ele>1625.5</ele>
        <time>2023-02-05T08:45:43Z</time>
      </trkpt>
      <trkpt lat="44.12213" lon="7.27157">
        <ele>1625.5</ele>
        <time>2023-02-05T08:45:44Z</time>
      </trkpt>
      <trkpt lat="44.12212" lon="7.27158">
        <ele>1625.4</ele>
        <time>2023-02-05T08:45:45Z</time>
      </trkpt>
      <trkpt lat="44.12212" lon="7.27158">
        <ele>1625.4</ele>
        <time>2023-02-05T08:45:46Z</time>
      </trkpt>
      <trkpt lat="44.12211" lon="7.27158">
        <ele>1625.2</ele>
        <time>2023-02-05T08:45:47Z</time>
      </trkpt>
      <trkpt lat="44.12212" lon="7.27158">
        <ele>1625.2</ele>
        <time>2023-02-05T08:45:48Z</time>
      </trkpt>
      <trkpt lat="44.12212" lon="7.27157">
        <ele>1625.1</ele>
        <time>2023-02-05T08:45:49Z</time>
      </trkpt>
      <trkpt lat="44.12212" lon="7.27158">
        <ele>1625.1</ele>
        <time>2023-02-05T08:45:50Z</time>
      </trkpt>
      <trkpt lat="44.12211" lon="7.27158">
        <ele>1625.1</ele>
        <time>2023-02-05T08:45:51Z</time>
      </trkpt>
      <trkpt lat="44.12211" lon="7.27158">
        <ele>1625.1</ele>
        <time>2023-02-05T08:45:52Z</time>
      </trkpt>
      <trkpt lat="44.12211" lon="7.27157">
        <ele>1625.1</ele>
        <time>2023-02-05T08:45:53Z</time>
      </trkpt>
      <trkpt lat="44.12211" lon="7.27157">
        <ele>1625.1</ele>
        <time>2023-02-05T08:45:54Z</time>
      </trkpt>
      <trkpt lat="44.12211" lon="7.27157">
        <ele>1625.1</ele>
        <time>2023-02-05T08:45:55Z</time>
      </trkpt>
      <trkpt lat="44.12211" lon="7.27157">
        <ele>1625.2</ele>
        <time>2023-02-05T08:45:56Z</time>
      </trkpt>
      <trkpt lat="44.12211" lon="7.27157">
        <ele>1625.2</ele>
        <time>2023-02-05T08:45:57Z</time>
      </trkpt>
      <trkpt lat="44.1221" lon="7.27157">
        <ele>1625.2</ele>
        <time>2023-02-05T08:45:58Z</time>
      </trkpt>
      <trkpt lat="44.1221" lon="7.27157">
        <ele>1625.2</ele>
        <time>2023-02-05T08:45:59Z</time>
      </trkpt>
      <trkpt lat="44.1221" lon="7.27157">
        <ele>1625.2</ele>
        <time>2023-02-05T08:46:00Z</time>
      </trkpt>
      <trkpt lat="44.1221" lon="7.27157">
        <ele>1625.2</ele>
        <time>2023-02-05T08:46:01Z</time>
      </trkpt>
      <trkpt lat="44.1221" lon="7.27156">
        <ele>1625.1</ele>
        <time>2023-02-05T08:46:02Z</time>
      </trkpt>
      <trkpt lat="44.1221" lon="7.27156">
        <ele>1625.1</ele>
        <time>2023-02-05T08:46:03Z</time>
      </trkpt>
      <trkpt lat="44.1221" lon="7.27155">
        <ele>1625</ele>
        <time>2023-02-05T08:46:04Z</time>
      </trkpt>
      <trkpt lat="44.1221" lon="7.27155">
        <ele>1625</ele>
        <time>2023-02-05T08:46:05Z</time>
      </trkpt>
      <trkpt lat="44.1221" lon="7.27155">
        <ele>1625</ele>
        <time>2023-02-05T08:46:06Z</time>
      </trkpt>
      <trkpt lat="44.1221" lon="7.27154">
        <ele>1625</ele>
        <time>2023-02-05T08:46:07Z</time>
      </trkpt>
      <trkpt lat="44.1221" lon="7.27154">
        <ele>1624.8</ele>
        <time>2023-02-05T08:46:08Z</time>
      </trkpt>
      <trkpt lat="44.1221" lon="7.27154">
        <ele>1624.9</ele>
        <time>2023-02-05T08:46:09Z</time>
      </trkpt>
      <trkpt lat="44.12209" lon="7.27154">
        <ele>1624.8</ele>
        <time>2023-02-05T08:46:10Z</time>
      </trkpt>
      <trkpt lat="44.12208" lon="7.27154">
        <ele>1624.9</ele>
        <time>2023-02-05T08:46:11Z</time>
      </trkpt>
      <trkpt lat="44.12208" lon="7.27154">
        <ele>1624.9</ele>
        <time>2023-02-05T08:46:12Z</time>
      </trkpt>
      <trkpt lat="44.12207" lon="7.27154">
        <ele>1625.1</ele>
        <time>2023-02-05T08:46:13Z</time>
      </trkpt>
      <trkpt lat="44.12206" lon="7.27154">
        <ele>1625.2</ele>
        <time>2023-02-05T08:46:14Z</time>
      </trkpt>
      <trkpt lat="44.12206" lon="7.27154">
        <ele>1624.8</ele>
        <time>2023-02-05T08:46:15Z</time>
      </trkpt>
      <trkpt lat="44.12204" lon="7.27153">
        <ele>1624.6</ele>
        <time>2023-02-05T08:46:16Z</time>
      </trkpt>
      <trkpt lat="44.12201" lon="7.27153">
        <ele>1624.5</ele>
        <time>2023-02-05T08:46:17Z</time>
      </trkpt>
      <trkpt lat="44.12202" lon="7.27152">
        <ele>1624.5</ele>
        <time>2023-02-05T08:46:18Z</time>
      </trkpt>
      <trkpt lat="44.12202" lon="7.27152">
        <ele>1624.6</ele>
        <time>2023-02-05T08:46:19Z</time>
      </trkpt>
      <trkpt lat="44.12203" lon="7.27151">
        <ele>1624.6</ele>
        <time>2023-02-05T08:46:20Z</time>
      </trkpt>
      <trkpt lat="44.12203" lon="7.27152">
        <ele>1624.7</ele>
        <time>2023-02-05T08:46:21Z</time>
      </trkpt>
      <trkpt lat="44.12203" lon="7.27152">
        <ele>1624.8</ele>
        <time>2023-02-05T08:46:22Z</time>
      </trkpt>
      <trkpt lat="44.12203" lon="7.27151">
        <ele>1624.8</ele>
        <time>2023-02-05T08:46:23Z</time>
      </trkpt>
      <trkpt lat="44.12202" lon="7.27151">
        <ele>1624.9</ele>
        <time>2023-02-05T08:46:24Z</time>
      </trkpt>
      <trkpt lat="44.12202" lon="7.27152">
        <ele>1624.9</ele>
        <time>2023-02-05T08:46:25Z</time>
      </trkpt>
      <trkpt lat="44.12202" lon="7.27153">
        <ele>1624.9</ele>
        <time>2023-02-05T08:46:26Z</time>
      </trkpt>
      <trkpt lat="44.12201" lon="7.27153">
        <ele>1624.9</ele>
        <time>2023-02-05T08:46:27Z</time>
      </trkpt>
      <trkpt lat="44.12202" lon="7.27153">
        <ele>1624.9</ele>
        <time>2023-02-05T08:46:28Z</time>
      </trkpt>
      <trkpt lat="44.12202" lon="7.27153">
        <ele>1625</ele>
        <time>2023-02-05T08:46:29Z</time>
      </trkpt>
      <trkpt lat="44.12202" lon="7.27153">
        <ele>1625</ele>
        <time>2023-02-05T08:46:30Z</time>
      </trkpt>
      <trkpt lat="44.12203" lon="7.27153">
        <ele>1625.1</ele>
        <time>2023-02-05T08:46:31Z</time>
      </trkpt>
      <trkpt lat="44.12204" lon="7.27154">
        <ele>1625.1</ele>
        <time>2023-02-05T08:46:32Z</time>
      </trkpt>
      <trkpt lat="44.12204" lon="7.27153">
        <ele>1625.1</ele>
        <time>2023-02-05T08:46:33Z</time>
      </trkpt>
      <trkpt lat="44.12204" lon="7.27152">
        <ele>1625.1</ele>
        <time>2023-02-05T08:46:34Z</time>
      </trkpt>
      <trkpt lat="44.12204" lon="7.27152">
        <ele>1625.1</ele>
        <time>2023-02-05T08:46:35Z</time>
      </trkpt>
      <trkpt lat="44.12204" lon="7.27153">
        <ele>1625.1</ele>
        <time>2023-02-05T08:46:36Z</time>
      </trkpt>
      <trkpt lat="44.12205" lon="7.27154">
        <ele>1625.2</ele>
        <time>2023-02-05T08:46:37Z</time>
      </trkpt>
      <trkpt lat="44.12205" lon="7.27154">
        <ele>1625.2</ele>
        <time>2023-02-05T08:46:38Z</time>
      </trkpt>
      <trkpt lat="44.12205" lon="7.27154">
        <ele>1625.3</ele>
        <time>2023-02-05T08:46:39Z</time>
      </trkpt>
      <trkpt lat="44.12205" lon="7.27154">
        <ele>1625.2</ele>
        <time>2023-02-05T08:46:40Z</time>
      </trkpt>
      <trkpt lat="44.12204" lon="7.27155">
        <ele>1625.2</ele>
        <time>2023-02-05T08:46:41Z</time>
      </trkpt>
      <trkpt lat="44.12203" lon="7.27156">
        <ele>1625.1</ele>
        <time>2023-02-05T08:46:42Z</time>
      </trkpt>
      <trkpt lat="44.12202" lon="7.27156">
        <ele>1625.2</ele>
        <time>2023-02-05T08:46:43Z</time>
      </trkpt>
      <trkpt lat="44.12201" lon="7.27156">
        <ele>1625.2</ele>
        <time>2023-02-05T08:46:44Z</time>
      </trkpt>
      <trkpt lat="44.122" lon="7.27157">
        <ele>1625.2</ele>
        <time>2023-02-05T08:46:45Z</time>
      </trkpt>
      <trkpt lat="44.12199" lon="7.27158">
        <ele>1625.2</ele>
        <time>2023-02-05T08:46:46Z</time>
      </trkpt>
      <trkpt lat="44.12198" lon="7.27159">
        <ele>1625.2</ele>
        <time>2023-02-05T08:46:47Z</time>
      </trkpt>
      <trkpt lat="44.12198" lon="7.27159">
        <ele>1625.4</ele>
        <time>2023-02-05T08:46:48Z</time>
      </trkpt>
      <trkpt lat="44.12197" lon="7.2716">
        <ele>1625.4</ele>
        <time>2023-02-05T08:46:49Z</time>
      </trkpt>
      <trkpt lat="44.12197" lon="7.2716">
        <ele>1625.4</ele>
        <time>2023-02-05T08:46:50Z</time>
      </trkpt>
      <trkpt lat="44.12196" lon="7.27161">
        <ele>1625.4</ele>
        <time>2023-02-05T08:46:51Z</time>
      </trkpt>
      <trkpt lat="44.12196" lon="7.27161">
        <ele>1625.4</ele>
        <time>2023-02-05T08:46:52Z</time>
      </trkpt>
      <trkpt lat="44.12196" lon="7.27161">
        <ele>1625.3</ele>
        <time>2023-02-05T08:46:53Z</time>
      </trkpt>
      <trkpt lat="44.12197" lon="7.27161">
        <ele>1625.3</ele>
        <time>2023-02-05T08:46:54Z</time>
      </trkpt>
      <trkpt lat="44.12196" lon="7.27162">
        <ele>1625.2</ele>
        <time>2023-02-05T08:46:55Z</time>
      </trkpt>
      <trkpt lat="44.12196" lon="7.27162">
        <ele>1625.2</ele>
        <time>2023-02-05T08:46:56Z</time>
      </trkpt>
      <trkpt lat="44.12196" lon="7.27163">
        <ele>1625.2</ele>
        <time>2023-02-05T08:46:57Z</time>
      </trkpt>
      <trkpt lat="44.12196" lon="7.27163">
        <ele>1625.1</ele>
        <time>2023-02-05T08:46:58Z</time>
      </trkpt>
      <trkpt lat="44.12196" lon="7.27162">
        <ele>1625.1</ele>
        <time>2023-02-05T08:46:59Z</time>
      </trkpt>
      <trkpt lat="44.12197" lon="7.27162">
        <ele>1625.1</ele>
        <time>2023-02-05T08:47:00Z</time>
      </trkpt>
      <trkpt lat="44.12197" lon="7.2716">
        <ele>1625.1</ele>
        <time>2023-02-05T08:47:01Z</time>
      </trkpt>
      <trkpt lat="44.12197" lon="7.2716">
        <ele>1625.2</ele>
        <time>2023-02-05T08:47:02Z</time>
      </trkpt>
      <trkpt lat="44.12198" lon="7.27159">
        <ele>1625.2</ele>
        <time>2023-02-05T08:47:03Z</time>
      </trkpt>
      <trkpt lat="44.12198" lon="7.27158">
        <ele>1625.2</ele>
        <time>2023-02-05T08:47:04Z</time>
      </trkpt>
      <trkpt lat="44.12198" lon="7.27158">
        <ele>1625.2</ele>
        <time>2023-02-05T08:47:05Z</time>
      </trkpt>
      <trkpt lat="44.12199" lon="7.27158">
        <ele>1625.2</ele>
        <time>2023-02-05T08:47:06Z</time>
      </trkpt>
      <trkpt lat="44.12198" lon="7.27158">
        <ele>1625.1</ele>
        <time>2023-02-05T08:47:07Z</time>
      </trkpt>
      <trkpt lat="44.12199" lon="7.27158">
        <ele>1625.1</ele>
        <time>2023-02-05T08:47:08Z</time>
      </trkpt>
      <trkpt lat="44.12199" lon="7.27158">
        <ele>1625.2</ele>
        <time>2023-02-05T08:47:09Z</time>
      </trkpt>
      <trkpt lat="44.12199" lon="7.27157">
        <ele>1625.2</ele>
        <time>2023-02-05T08:47:10Z</time>
      </trkpt>
      <trkpt lat="44.12201" lon="7.27157">
        <ele>1625.3</ele>
        <time>2023-02-05T08:47:11Z</time>
      </trkpt>
      <trkpt lat="44.12201" lon="7.27156">
        <ele>1625.3</ele>
        <time>2023-02-05T08:47:12Z</time>
      </trkpt>
      <trkpt lat="44.12201" lon="7.27155">
        <ele>1625.3</ele>
        <time>2023-02-05T08:47:13Z</time>
      </trkpt>
      <trkpt lat="44.12201" lon="7.27155">
        <ele>1625.3</ele>
        <time>2023-02-05T08:47:14Z</time>
      </trkpt>
      <trkpt lat="44.12201" lon="7.27155">
        <ele>1625.3</ele>
        <time>2023-02-05T08:47:15Z</time>
      </trkpt>
      <trkpt lat="44.12202" lon="7.27155">
        <ele>1625.4</ele>
        <time>2023-02-05T08:47:16Z</time>
      </trkpt>
      <trkpt lat="44.12202" lon="7.27155">
        <ele>1625.4</ele>
        <time>2023-02-05T08:47:17Z</time>
      </trkpt>
      <trkpt lat="44.12202" lon="7.27155">
        <ele>1625.4</ele>
        <time>2023-02-05T08:47:18Z</time>
      </trkpt>
      <trkpt lat="44.12202" lon="7.27153">
        <ele>1625.4</ele>
        <time>2023-02-05T08:47:19Z</time>
      </trkpt>
      <trkpt lat="44.12202" lon="7.27153">
        <ele>1625.4</ele>
        <time>2023-02-05T08:47:20Z</time>
      </trkpt>
      <trkpt lat="44.12202" lon="7.27152">
        <ele>1625.4</ele>
        <time>2023-02-05T08:47:21Z</time>
      </trkpt>
      <trkpt lat="44.12201" lon="7.27152">
        <ele>1625.4</ele>
        <time>2023-02-05T08:47:22Z</time>
      </trkpt>
      <trkpt lat="44.12201" lon="7.27152">
        <ele>1625.4</ele>
        <time>2023-02-05T08:47:23Z</time>
      </trkpt>
      <trkpt lat="44.12201" lon="7.27152">
        <ele>1625.3</ele>
        <time>2023-02-05T08:47:24Z</time>
      </trkpt>
      <trkpt lat="44.122" lon="7.27152">
        <ele>1625.4</ele>
        <time>2023-02-05T08:47:25Z</time>
      </trkpt>
      <trkpt lat="44.122" lon="7.27152">
        <ele>1625.4</ele>
        <time>2023-02-05T08:47:26Z</time>
      </trkpt>
      <trkpt lat="44.12199" lon="7.27152">
        <ele>1625.5</ele>
        <time>2023-02-05T08:47:27Z</time>
      </trkpt>
      <trkpt lat="44.12199" lon="7.27152">
        <ele>1625.5</ele>
        <time>2023-02-05T08:47:28Z</time>
      </trkpt>
      <trkpt lat="44.12198" lon="7.27152">
        <ele>1625.5</ele>
        <time>2023-02-05T08:47:29Z</time>
      </trkpt>
      <trkpt lat="44.12198" lon="7.27152">
        <ele>1625.5</ele>
        <time>2023-02-05T08:47:30Z</time>
      </trkpt>
      <trkpt lat="44.12197" lon="7.27152">
        <ele>1625.6</ele>
        <time>2023-02-05T08:47:31Z</time>
      </trkpt>
      <trkpt lat="44.12197" lon="7.27152">
        <ele>1625.5</ele>
        <time>2023-02-05T08:47:32Z</time>
      </trkpt>
      <trkpt lat="44.12197" lon="7.27152">
        <ele>1625.4</ele>
        <time>2023-02-05T08:47:33Z</time>
      </trkpt>
      <trkpt lat="44.12196" lon="7.27151">
        <ele>1625.4</ele>
        <time>2023-02-05T08:47:34Z</time>
      </trkpt>
      <trkpt lat="44.12195" lon="7.2715">
        <ele>1625.5</ele>
        <time>2023-02-05T08:47:35Z</time>
      </trkpt>
      <trkpt lat="44.12194" lon="7.27149">
        <ele>1625.5</ele>
        <time>2023-02-05T08:47:36Z</time>
      </trkpt>
      <trkpt lat="44.12193" lon="7.27148">
        <ele>1625.4</ele>
        <time>2023-02-05T08:47:37Z</time>
      </trkpt>
      <trkpt lat="44.12192" lon="7.27148">
        <ele>1625.4</ele>
        <time>2023-02-05T08:47:38Z</time>
      </trkpt>
      <trkpt lat="44.12192" lon="7.27148">
        <ele>1625.3</ele>
        <time>2023-02-05T08:47:39Z</time>
      </trkpt>
      <trkpt lat="44.12192" lon="7.27148">
        <ele>1625.2</ele>
        <time>2023-02-05T08:47:40Z</time>
      </trkpt>
      <trkpt lat="44.12192" lon="7.27149">
        <ele>1625.2</ele>
        <time>2023-02-05T08:47:41Z</time>
      </trkpt>
      <trkpt lat="44.12193" lon="7.2715">
        <ele>1625.1</ele>
        <time>2023-02-05T08:47:42Z</time>
      </trkpt>
      <trkpt lat="44.12193" lon="7.27151">
        <ele>1625</ele>
        <time>2023-02-05T08:47:43Z</time>
      </trkpt>
      <trkpt lat="44.12194" lon="7.2715">
        <ele>1625</ele>
        <time>2023-02-05T08:47:44Z</time>
      </trkpt>
      <trkpt lat="44.12193" lon="7.27149">
        <ele>1625.1</ele>
        <time>2023-02-05T08:47:45Z</time>
      </trkpt>
      <trkpt lat="44.12193" lon="7.27149">
        <ele>1625.2</ele>
        <time>2023-02-05T08:47:46Z</time>
      </trkpt>
      <trkpt lat="44.12193" lon="7.27149">
        <ele>1625.2</ele>
        <time>2023-02-05T08:47:47Z</time>
      </trkpt>
      <trkpt lat="44.12193" lon="7.27149">
        <ele>1625.1</ele>
        <time>2023-02-05T08:47:48Z</time>
      </trkpt>
      <trkpt lat="44.12193" lon="7.27149">
        <ele>1625.1</ele>
        <time>2023-02-05T08:47:49Z</time>
      </trkpt>
      <trkpt lat="44.12193" lon="7.27149">
        <ele>1625</ele>
        <time>2023-02-05T08:47:50Z</time>
      </trkpt>
      <trkpt lat="44.12194" lon="7.27149">
        <ele>1624.9</ele>
        <time>2023-02-05T08:47:51Z</time>
      </trkpt>
      <trkpt lat="44.12193" lon="7.2715">
        <ele>1624.9</ele>
        <time>2023-02-05T08:47:52Z</time>
      </trkpt>
      <trkpt lat="44.12193" lon="7.2715">
        <ele>1624.9</ele>
        <time>2023-02-05T08:47:53Z</time>
      </trkpt>
      <trkpt lat="44.12192" lon="7.27151">
        <ele>1624.8</ele>
        <time>2023-02-05T08:47:54Z</time>
      </trkpt>
      <trkpt lat="44.12192" lon="7.27151">
        <ele>1624.8</ele>
        <time>2023-02-05T08:47:55Z</time>
      </trkpt>
      <trkpt lat="44.12192" lon="7.2715">
        <ele>1624.7</ele>
        <time>2023-02-05T08:47:56Z</time>
      </trkpt>
      <trkpt lat="44.12193" lon="7.27152">
        <ele>1624.7</ele>
        <time>2023-02-05T08:47:57Z</time>
      </trkpt>
      <trkpt lat="44.12192" lon="7.27152">
        <ele>1624.7</ele>
        <time>2023-02-05T08:47:58Z</time>
      </trkpt>
      <trkpt lat="44.12193" lon="7.27152">
        <ele>1624.6</ele>
        <time>2023-02-05T08:47:59Z</time>
      </trkpt>
      <trkpt lat="44.12193" lon="7.27153">
        <ele>1624.6</ele>
        <time>2023-02-05T08:48:00Z</time>
      </trkpt>
      <trkpt lat="44.12192" lon="7.27153">
        <ele>1624.5</ele>
        <time>2023-02-05T08:48:01Z</time>
      </trkpt>
      <trkpt lat="44.12192" lon="7.27154">
        <ele>1624.6</ele>
        <time>2023-02-05T08:48:02Z</time>
      </trkpt>
      <trkpt lat="44.12192" lon="7.27155">
        <ele>1624.7</ele>
        <time>2023-02-05T08:48:03Z</time>
      </trkpt>
      <trkpt lat="44.12193" lon="7.27155">
        <ele>1624.6</ele>
        <time>2023-02-05T08:48:04Z</time>
      </trkpt>
      <trkpt lat="44.12192" lon="7.27156">
        <ele>1624.4</ele>
        <time>2023-02-05T08:48:05Z</time>
      </trkpt>
      <trkpt lat="44.12192" lon="7.27157">
        <ele>1624.3</ele>
        <time>2023-02-05T08:48:06Z</time>
      </trkpt>
      <trkpt lat="44.12193" lon="7.27157">
        <ele>1624.3</ele>
        <time>2023-02-05T08:48:07Z</time>
      </trkpt>
      <trkpt lat="44.12195" lon="7.27155">
        <ele>1624.2</ele>
        <time>2023-02-05T08:48:08Z</time>
      </trkpt>
      <trkpt lat="44.12195" lon="7.27155">
        <ele>1624.2</ele>
        <time>2023-02-05T08:48:09Z</time>
      </trkpt>
      <trkpt lat="44.12195" lon="7.27155">
        <ele>1624.3</ele>
        <time>2023-02-05T08:48:10Z</time>
      </trkpt>
      <trkpt lat="44.12196" lon="7.27155">
        <ele>1624.4</ele>
        <time>2023-02-05T08:48:11Z</time>
      </trkpt>
      <trkpt lat="44.12196" lon="7.27155">
        <ele>1624.5</ele>
        <time>2023-02-05T08:48:12Z</time>
      </trkpt>
      <trkpt lat="44.12195" lon="7.27155">
        <ele>1624.6</ele>
        <time>2023-02-05T08:48:13Z</time>
      </trkpt>
      <trkpt lat="44.12195" lon="7.27156">
        <ele>1624.5</ele>
        <time>2023-02-05T08:48:14Z</time>
      </trkpt>
      <trkpt lat="44.12195" lon="7.27156">
        <ele>1624.6</ele>
        <time>2023-02-05T08:48:15Z</time>
      </trkpt>
      <trkpt lat="44.12196" lon="7.27156">
        <ele>1624.6</ele>
        <time>2023-02-05T08:48:16Z</time>
      </trkpt>
      <trkpt lat="44.12197" lon="7.27156">
        <ele>1624.6</ele>
        <time>2023-02-05T08:48:17Z</time>
      </trkpt>
      <trkpt lat="44.12197" lon="7.27156">
        <ele>1624.6</ele>
        <time>2023-02-05T08:48:18Z</time>
      </trkpt>
      <trkpt lat="44.12197" lon="7.27156">
        <ele>1624.6</ele>
        <time>2023-02-05T08:48:19Z</time>
      </trkpt>
      <trkpt lat="44.12198" lon="7.27156">
        <ele>1624.5</ele>
        <time>2023-02-05T08:48:20Z</time>
      </trkpt>
      <trkpt lat="44.12198" lon="7.27156">
        <ele>1624.5</ele>
        <time>2023-02-05T08:48:21Z</time>
      </trkpt>
      <trkpt lat="44.12197" lon="7.27157">
        <ele>1624.5</ele>
        <time>2023-02-05T08:48:22Z</time>
      </trkpt>
      <trkpt lat="44.12197" lon="7.27157">
        <ele>1624.5</ele>
        <time>2023-02-05T08:48:23Z</time>
      </trkpt>
      <trkpt lat="44.12196" lon="7.27157">
        <ele>1624.6</ele>
        <time>2023-02-05T08:48:24Z</time>
      </trkpt>
      <trkpt lat="44.12196" lon="7.27157">
        <ele>1624.6</ele>
        <time>2023-02-05T08:48:25Z</time>
      </trkpt>
      <trkpt lat="44.12196" lon="7.27157">
        <ele>1624.7</ele>
        <time>2023-02-05T08:48:26Z</time>
      </trkpt>
      <trkpt lat="44.12196" lon="7.27158">
        <ele>1624.7</ele>
        <time>2023-02-05T08:48:27Z</time>
      </trkpt>
      <trkpt lat="44.12197" lon="7.27158">
        <ele>1624.7</ele>
        <time>2023-02-05T08:48:28Z</time>
      </trkpt>
      <trkpt lat="44.12196" lon="7.27158">
        <ele>1624.8</ele>
        <time>2023-02-05T08:48:29Z</time>
      </trkpt>
      <trkpt lat="44.12198" lon="7.27158">
        <ele>1624.8</ele>
        <time>2023-02-05T08:48:30Z</time>
      </trkpt>
      <trkpt lat="44.12199" lon="7.27158">
        <ele>1625</ele>
        <time>2023-02-05T08:48:31Z</time>
      </trkpt>
      <trkpt lat="44.12199" lon="7.27158">
        <ele>1625</ele>
        <time>2023-02-05T08:48:32Z</time>
      </trkpt>
      <trkpt lat="44.12201" lon="7.27159">
        <ele>1625.1</ele>
        <time>2023-02-05T08:48:33Z</time>
      </trkpt>
      <trkpt lat="44.12201" lon="7.27159">
        <ele>1625.2</ele>
        <time>2023-02-05T08:48:34Z</time>
      </trkpt>
      <trkpt lat="44.122" lon="7.2716">
        <ele>1625.3</ele>
        <time>2023-02-05T08:48:35Z</time>
      </trkpt>
      <trkpt lat="44.122" lon="7.2716">
        <ele>1625.3</ele>
        <time>2023-02-05T08:48:36Z</time>
      </trkpt>
      <trkpt lat="44.12202" lon="7.27154">
        <ele>1625.4</ele>
        <time>2023-02-05T08:48:37Z</time>
      </trkpt>
      <trkpt lat="44.12203" lon="7.27152">
        <ele>1625.5</ele>
        <time>2023-02-05T08:48:38Z</time>
      </trkpt>
      <trkpt lat="44.12203" lon="7.27152">
        <ele>1625.6</ele>
        <time>2023-02-05T08:48:39Z</time>
      </trkpt>
      <trkpt lat="44.12202" lon="7.27152">
        <ele>1625.6</ele>
        <time>2023-02-05T08:48:40Z</time>
      </trkpt>
      <trkpt lat="44.12203" lon="7.27148">
        <ele>1625.6</ele>
        <time>2023-02-05T08:48:41Z</time>
      </trkpt>
      <trkpt lat="44.12203" lon="7.27146">
        <ele>1625.7</ele>
        <time>2023-02-05T08:48:42Z</time>
      </trkpt>
      <trkpt lat="44.12202" lon="7.27145">
        <ele>1625.8</ele>
        <time>2023-02-05T08:48:43Z</time>
      </trkpt>
      <trkpt lat="44.12202" lon="7.27145">
        <ele>1625.8</ele>
        <time>2023-02-05T08:48:44Z</time>
      </trkpt>
      <trkpt lat="44.12202" lon="7.27144">
        <ele>1625.8</ele>
        <time>2023-02-05T08:48:45Z</time>
      </trkpt>
      <trkpt lat="44.12201" lon="7.27143">
        <ele>1625.8</ele>
        <time>2023-02-05T08:48:46Z</time>
      </trkpt>
      <trkpt lat="44.12201" lon="7.27143">
        <ele>1625.8</ele>
        <time>2023-02-05T08:48:47Z</time>
      </trkpt>
      <trkpt lat="44.122" lon="7.27143">
        <ele>1625.7</ele>
        <time>2023-02-05T08:48:48Z</time>
      </trkpt>
      <trkpt lat="44.122" lon="7.27142">
        <ele>1625.7</ele>
        <time>2023-02-05T08:48:49Z</time>
      </trkpt>
      <trkpt lat="44.122" lon="7.27142">
        <ele>1625.7</ele>
        <time>2023-02-05T08:48:50Z</time>
      </trkpt>
      <trkpt lat="44.122" lon="7.27142">
        <ele>1625.7</ele>
        <time>2023-02-05T08:48:51Z</time>
      </trkpt>
      <trkpt lat="44.122" lon="7.27142">
        <ele>1625.7</ele>
        <time>2023-02-05T08:48:52Z</time>
      </trkpt>
      <trkpt lat="44.122" lon="7.27142">
        <ele>1625.7</ele>
        <time>2023-02-05T08:48:53Z</time>
      </trkpt>
      <trkpt lat="44.122" lon="7.27142">
        <ele>1625.7</ele>
        <time>2023-02-05T08:48:54Z</time>
      </trkpt>
      <trkpt lat="44.12199" lon="7.27142">
        <ele>1625.7</ele>
        <time>2023-02-05T08:48:55Z</time>
      </trkpt>
      <trkpt lat="44.12199" lon="7.27142">
        <ele>1625.6</ele>
        <time>2023-02-05T08:48:56Z</time>
      </trkpt>
      <trkpt lat="44.12199" lon="7.27142">
        <ele>1625.6</ele>
        <time>2023-02-05T08:48:57Z</time>
      </trkpt>
      <trkpt lat="44.12199" lon="7.27141">
        <ele>1625.7</ele>
        <time>2023-02-05T08:48:58Z</time>
      </trkpt>
      <trkpt lat="44.12198" lon="7.27141">
        <ele>1625.6</ele>
        <time>2023-02-05T08:48:59Z</time>
      </trkpt>
      <trkpt lat="44.12198" lon="7.2714">
        <ele>1625.7</ele>
        <time>2023-02-05T08:49:00Z</time>
      </trkpt>
      <trkpt lat="44.12198" lon="7.27139">
        <ele>1625.8</ele>
        <time>2023-02-05T08:49:01Z</time>
      </trkpt>
      <trkpt lat="44.12198" lon="7.27139">
        <ele>1625.8</ele>
        <time>2023-02-05T08:49:02Z</time>
      </trkpt>
      <trkpt lat="44.12199" lon="7.27139">
        <ele>1625.8</ele>
        <time>2023-02-05T08:49:03Z</time>
      </trkpt>
      <trkpt lat="44.12198" lon="7.27138">
        <ele>1625.8</ele>
        <time>2023-02-05T08:49:04Z</time>
      </trkpt>
      <trkpt lat="44.12198" lon="7.27138">
        <ele>1625.8</ele>
        <time>2023-02-05T08:49:05Z</time>
      </trkpt>
      <trkpt lat="44.12198" lon="7.27138">
        <ele>1625.8</ele>
        <time>2023-02-05T08:49:06Z</time>
      </trkpt>
      <trkpt lat="44.12199" lon="7.27139">
        <ele>1625.8</ele>
        <time>2023-02-05T08:49:07Z</time>
      </trkpt>
      <trkpt lat="44.12198" lon="7.27138">
        <ele>1625.8</ele>
        <time>2023-02-05T08:49:08Z</time>
      </trkpt>
      <trkpt lat="44.12197" lon="7.27139">
        <ele>1625.7</ele>
        <time>2023-02-05T08:49:09Z</time>
      </trkpt>
      <trkpt lat="44.12196" lon="7.27139">
        <ele>1625.7</ele>
        <time>2023-02-05T08:49:10Z</time>
      </trkpt>
      <trkpt lat="44.12195" lon="7.27139">
        <ele>1625.7</ele>
        <time>2023-02-05T08:49:11Z</time>
      </trkpt>
      <trkpt lat="44.12195" lon="7.27139">
        <ele>1625.7</ele>
        <time>2023-02-05T08:49:12Z</time>
      </trkpt>
      <trkpt lat="44.12196" lon="7.27139">
        <ele>1625.7</ele>
        <time>2023-02-05T08:49:13Z</time>
      </trkpt>
      <trkpt lat="44.12194" lon="7.2714">
        <ele>1625.7</ele>
        <time>2023-02-05T08:49:14Z</time>
      </trkpt>
      <trkpt lat="44.12194" lon="7.2714">
        <ele>1625.7</ele>
        <time>2023-02-05T08:49:15Z</time>
      </trkpt>
      <trkpt lat="44.12194" lon="7.27139">
        <ele>1625.7</ele>
        <time>2023-02-05T08:49:16Z</time>
      </trkpt>
      <trkpt lat="44.12194" lon="7.27139">
        <ele>1625.7</ele>
        <time>2023-02-05T08:49:17Z</time>
      </trkpt>
      <trkpt lat="44.12196" lon="7.27142">
        <ele>1625.6</ele>
        <time>2023-02-05T08:49:18Z</time>
      </trkpt>
      <trkpt lat="44.12198" lon="7.27144">
        <ele>1625.7</ele>
        <time>2023-02-05T08:49:19Z</time>
      </trkpt>
      <trkpt lat="44.12198" lon="7.27145">
        <ele>1625.7</ele>
        <time>2023-02-05T08:49:20Z</time>
      </trkpt>
      <trkpt lat="44.12199" lon="7.27145">
        <ele>1625.6</ele>
        <time>2023-02-05T08:49:21Z</time>
      </trkpt>
      <trkpt lat="44.12199" lon="7.27145">
        <ele>1625.5</ele>
        <time>2023-02-05T08:49:22Z</time>
      </trkpt>
      <trkpt lat="44.12199" lon="7.27146">
        <ele>1625.4</ele>
        <time>2023-02-05T08:49:23Z</time>
      </trkpt>
      <trkpt lat="44.122" lon="7.27146">
        <ele>1625.6</ele>
        <time>2023-02-05T08:49:24Z</time>
      </trkpt>
      <trkpt lat="44.12201" lon="7.27145">
        <ele>1625.7</ele>
        <time>2023-02-05T08:49:25Z</time>
      </trkpt>
      <trkpt lat="44.12202" lon="7.27145">
        <ele>1625.7</ele>
        <time>2023-02-05T08:49:26Z</time>
      </trkpt>
      <trkpt lat="44.12202" lon="7.27147">
        <ele>1625.8</ele>
        <time>2023-02-05T08:49:27Z</time>
      </trkpt>
      <trkpt lat="44.12201" lon="7.27149">
        <ele>1625.9</ele>
        <time>2023-02-05T08:49:28Z</time>
      </trkpt>
      <trkpt lat="44.122" lon="7.27152">
        <ele>1626</ele>
        <time>2023-02-05T08:49:29Z</time>
      </trkpt>
      <trkpt lat="44.12201" lon="7.27151">
        <ele>1626</ele>
        <time>2023-02-05T08:49:30Z</time>
      </trkpt>
      <trkpt lat="44.12202" lon="7.27151">
        <ele>1626.1</ele>
        <time>2023-02-05T08:49:31Z</time>
      </trkpt>
      <trkpt lat="44.12203" lon="7.27152">
        <ele>1626.2</ele>
        <time>2023-02-05T08:49:32Z</time>
      </trkpt>
      <trkpt lat="44.12204" lon="7.27151">
        <ele>1626.3</ele>
        <time>2023-02-05T08:49:33Z</time>
      </trkpt>
      <trkpt lat="44.12205" lon="7.2715">
        <ele>1626.4</ele>
        <time>2023-02-05T08:49:34Z</time>
      </trkpt>
      <trkpt lat="44.12205" lon="7.27151">
        <ele>1626.4</ele>
        <time>2023-02-05T08:49:35Z</time>
      </trkpt>
      <trkpt lat="44.12206" lon="7.2715">
        <ele>1626.6</ele>
        <time>2023-02-05T08:49:36Z</time>
      </trkpt>
      <trkpt lat="44.12206" lon="7.2715">
        <ele>1626.8</ele>
        <time>2023-02-05T08:49:37Z</time>
      </trkpt>
      <trkpt lat="44.12207" lon="7.2715">
        <ele>1626.9</ele>
        <time>2023-02-05T08:49:38Z</time>
      </trkpt>
      <trkpt lat="44.12208" lon="7.27149">
        <ele>1627</ele>
        <time>2023-02-05T08:49:39Z</time>
      </trkpt>
      <trkpt lat="44.12209" lon="7.27148">
        <ele>1627.1</ele>
        <time>2023-02-05T08:49:40Z</time>
      </trkpt>
      <trkpt lat="44.1221" lon="7.27147">
        <ele>1627.2</ele>
        <time>2023-02-05T08:49:41Z</time>
      </trkpt>
      <trkpt lat="44.12211" lon="7.27146">
        <ele>1627.3</ele>
        <time>2023-02-05T08:49:42Z</time>
      </trkpt>
      <trkpt lat="44.12212" lon="7.27146">
        <ele>1627.4</ele>
        <time>2023-02-05T08:49:43Z</time>
      </trkpt>
      <trkpt lat="44.12212" lon="7.27146">
        <ele>1627.5</ele>
        <time>2023-02-05T08:49:44Z</time>
      </trkpt>
      <trkpt lat="44.12213" lon="7.27144">
        <ele>1627.5</ele>
        <time>2023-02-05T08:49:45Z</time>
      </trkpt>
      <trkpt lat="44.12215" lon="7.27143">
        <ele>1627.6</ele>
        <time>2023-02-05T08:49:46Z</time>
      </trkpt>
      <trkpt lat="44.12216" lon="7.27142">
        <ele>1627.7</ele>
        <time>2023-02-05T08:49:47Z</time>
      </trkpt>
      <trkpt lat="44.12216" lon="7.27141">
        <ele>1627.7</ele>
        <time>2023-02-05T08:49:48Z</time>
      </trkpt>
      <trkpt lat="44.12215" lon="7.27142">
        <ele>1627.8</ele>
        <time>2023-02-05T08:49:49Z</time>
      </trkpt>
      <trkpt lat="44.12216" lon="7.27141">
        <ele>1627.8</ele>
        <time>2023-02-05T08:49:50Z</time>
      </trkpt>
      <trkpt lat="44.12216" lon="7.27142">
        <ele>1627.7</ele>
        <time>2023-02-05T08:49:51Z</time>
      </trkpt>
      <trkpt lat="44.12217" lon="7.27141">
        <ele>1627.8</ele>
        <time>2023-02-05T08:49:52Z</time>
      </trkpt>
      <trkpt lat="44.12218" lon="7.2714">
        <ele>1627.9</ele>
        <time>2023-02-05T08:49:53Z</time>
      </trkpt>
      <trkpt lat="44.12218" lon="7.2714">
        <ele>1627.9</ele>
        <time>2023-02-05T08:49:54Z</time>
      </trkpt>
      <trkpt lat="44.12219" lon="7.27139">
        <ele>1628.1</ele>
        <time>2023-02-05T08:49:55Z</time>
      </trkpt>
      <trkpt lat="44.12219" lon="7.2714">
        <ele>1628.2</ele>
        <time>2023-02-05T08:49:56Z</time>
      </trkpt>
      <trkpt lat="44.12221" lon="7.27138">
        <ele>1628.3</ele>
        <time>2023-02-05T08:49:57Z</time>
      </trkpt>
      <trkpt lat="44.12222" lon="7.27138">
        <ele>1628.4</ele>
        <time>2023-02-05T08:49:58Z</time>
      </trkpt>
      <trkpt lat="44.12223" lon="7.27139">
        <ele>1628.4</ele>
        <time>2023-02-05T08:49:59Z</time>
      </trkpt>
      <trkpt lat="44.12224" lon="7.27139">
        <ele>1628.5</ele>
        <time>2023-02-05T08:50:00Z</time>
      </trkpt>
      <trkpt lat="44.12223" lon="7.2714">
        <ele>1628.5</ele>
        <time>2023-02-05T08:50:01Z</time>
      </trkpt>
      <trkpt lat="44.12225" lon="7.2714">
        <ele>1628.5</ele>
        <time>2023-02-05T08:50:02Z</time>
      </trkpt>
      <trkpt lat="44.12226" lon="7.2714">
        <ele>1628.4</ele>
        <time>2023-02-05T08:50:03Z</time>
      </trkpt>
      <trkpt lat="44.12225" lon="7.27139">
        <ele>1628.5</ele>
        <time>2023-02-05T08:50:04Z</time>
      </trkpt>
      <trkpt lat="44.12229" lon="7.27142">
        <ele>1628.6</ele>
        <time>2023-02-05T08:50:05Z</time>
      </trkpt>
      <trkpt lat="44.1223" lon="7.27142">
        <ele>1628.6</ele>
        <time>2023-02-05T08:50:06Z</time>
      </trkpt>
      <trkpt lat="44.12231" lon="7.27142">
        <ele>1628.6</ele>
        <time>2023-02-05T08:50:07Z</time>
      </trkpt>
      <trkpt lat="44.12232" lon="7.27141">
        <ele>1628.7</ele>
        <time>2023-02-05T08:50:08Z</time>
      </trkpt>
      <trkpt lat="44.12233" lon="7.27141">
        <ele>1628.8</ele>
        <time>2023-02-05T08:50:09Z</time>
      </trkpt>
      <trkpt lat="44.12234" lon="7.2714">
        <ele>1628.9</ele>
        <time>2023-02-05T08:50:10Z</time>
      </trkpt>
      <trkpt lat="44.12236" lon="7.2714">
        <ele>1629</ele>
        <time>2023-02-05T08:50:11Z</time>
      </trkpt>
      <trkpt lat="44.12236" lon="7.27139">
        <ele>1629</ele>
        <time>2023-02-05T08:50:12Z</time>
      </trkpt>
      <trkpt lat="44.12237" lon="7.27138">
        <ele>1629</ele>
        <time>2023-02-05T08:50:13Z</time>
      </trkpt>
      <trkpt lat="44.12239" lon="7.27138">
        <ele>1629</ele>
        <time>2023-02-05T08:50:14Z</time>
      </trkpt>
      <trkpt lat="44.12239" lon="7.27137">
        <ele>1629</ele>
        <time>2023-02-05T08:50:15Z</time>
      </trkpt>
      <trkpt lat="44.1224" lon="7.27137">
        <ele>1629.1</ele>
        <time>2023-02-05T08:50:16Z</time>
      </trkpt>
      <trkpt lat="44.12241" lon="7.27136">
        <ele>1629.1</ele>
        <time>2023-02-05T08:50:17Z</time>
      </trkpt>
      <trkpt lat="44.12242" lon="7.27136">
        <ele>1629.1</ele>
        <time>2023-02-05T08:50:18Z</time>
      </trkpt>
      <trkpt lat="44.12243" lon="7.27134">
        <ele>1629.3</ele>
        <time>2023-02-05T08:50:19Z</time>
      </trkpt>
      <trkpt lat="44.12244" lon="7.27132">
        <ele>1629.4</ele>
        <time>2023-02-05T08:50:20Z</time>
      </trkpt>
      <trkpt lat="44.12245" lon="7.27132">
        <ele>1629.6</ele>
        <time>2023-02-05T08:50:21Z</time>
      </trkpt>
      <trkpt lat="44.12246" lon="7.27131">
        <ele>1629.7</ele>
        <time>2023-02-05T08:50:22Z</time>
      </trkpt>
      <trkpt lat="44.12247" lon="7.27129">
        <ele>1629.8</ele>
        <time>2023-02-05T08:50:23Z</time>
      </trkpt>
      <trkpt lat="44.12248" lon="7.27128">
        <ele>1629.8</ele>
        <time>2023-02-05T08:50:24Z</time>
      </trkpt>
      <trkpt lat="44.12249" lon="7.27128">
        <ele>1629.9</ele>
        <time>2023-02-05T08:50:25Z</time>
      </trkpt>
      <trkpt lat="44.1225" lon="7.27127">
        <ele>1629.9</ele>
        <time>2023-02-05T08:50:26Z</time>
      </trkpt>
      <trkpt lat="44.12251" lon="7.27127">
        <ele>1630</ele>
        <time>2023-02-05T08:50:27Z</time>
      </trkpt>
      <trkpt lat="44.12252" lon="7.27125">
        <ele>1630.1</ele>
        <time>2023-02-05T08:50:28Z</time>
      </trkpt>
      <trkpt lat="44.12253" lon="7.27124">
        <ele>1630.2</ele>
        <time>2023-02-05T08:50:29Z</time>
      </trkpt>
      <trkpt lat="44.12255" lon="7.27123">
        <ele>1630.3</ele>
        <time>2023-02-05T08:50:30Z</time>
      </trkpt>
      <trkpt lat="44.12257" lon="7.27121">
        <ele>1630.4</ele>
        <time>2023-02-05T08:50:31Z</time>
      </trkpt>
      <trkpt lat="44.12257" lon="7.2712">
        <ele>1630.5</ele>
        <time>2023-02-05T08:50:32Z</time>
      </trkpt>
      <trkpt lat="44.12256" lon="7.27119">
        <ele>1630.6</ele>
        <time>2023-02-05T08:50:33Z</time>
      </trkpt>
      <trkpt lat="44.12256" lon="7.27117">
        <ele>1630.8</ele>
        <time>2023-02-05T08:50:34Z</time>
      </trkpt>
      <trkpt lat="44.12257" lon="7.27116">
        <ele>1630.9</ele>
        <time>2023-02-05T08:50:35Z</time>
      </trkpt>
      <trkpt lat="44.12258" lon="7.27115">
        <ele>1631.1</ele>
        <time>2023-02-05T08:50:36Z</time>
      </trkpt>
      <trkpt lat="44.1226" lon="7.27112">
        <ele>1631.2</ele>
        <time>2023-02-05T08:50:37Z</time>
      </trkpt>
      <trkpt lat="44.12261" lon="7.2711">
        <ele>1631.2</ele>
        <time>2023-02-05T08:50:38Z</time>
      </trkpt>
      <trkpt lat="44.12261" lon="7.2711">
        <ele>1631.3</ele>
        <time>2023-02-05T08:50:39Z</time>
      </trkpt>
      <trkpt lat="44.12261" lon="7.2711">
        <ele>1631.4</ele>
        <time>2023-02-05T08:50:40Z</time>
      </trkpt>
      <trkpt lat="44.12262" lon="7.27109">
        <ele>1631.4</ele>
        <time>2023-02-05T08:50:41Z</time>
      </trkpt>
      <trkpt lat="44.12263" lon="7.27108">
        <ele>1631.5</ele>
        <time>2023-02-05T08:50:42Z</time>
      </trkpt>
      <trkpt lat="44.12262" lon="7.27108">
        <ele>1631.6</ele>
        <time>2023-02-05T08:50:43Z</time>
      </trkpt>
      <trkpt lat="44.12261" lon="7.27107">
        <ele>1631.6</ele>
        <time>2023-02-05T08:50:44Z</time>
      </trkpt>
      <trkpt lat="44.1226" lon="7.27108">
        <ele>1631.6</ele>
        <time>2023-02-05T08:50:45Z</time>
      </trkpt>
      <trkpt lat="44.12259" lon="7.27109">
        <ele>1631.5</ele>
        <time>2023-02-05T08:50:46Z</time>
      </trkpt>
      <trkpt lat="44.12259" lon="7.27109">
        <ele>1631.4</ele>
        <time>2023-02-05T08:50:47Z</time>
      </trkpt>
      <trkpt lat="44.12258" lon="7.27109">
        <ele>1631.4</ele>
        <time>2023-02-05T08:50:48Z</time>
      </trkpt>
      <trkpt lat="44.12257" lon="7.27109">
        <ele>1631.3</ele>
        <time>2023-02-05T08:50:49Z</time>
      </trkpt>
      <trkpt lat="44.12256" lon="7.27109">
        <ele>1631.3</ele>
        <time>2023-02-05T08:50:50Z</time>
      </trkpt>
      <trkpt lat="44.12256" lon="7.27109">
        <ele>1631.3</ele>
        <time>2023-02-05T08:50:51Z</time>
      </trkpt>
      <trkpt lat="44.12256" lon="7.27109">
        <ele>1631.3</ele>
        <time>2023-02-05T08:50:52Z</time>
      </trkpt>
      <trkpt lat="44.12256" lon="7.27109">
        <ele>1631.2</ele>
        <time>2023-02-05T08:50:53Z</time>
      </trkpt>
      <trkpt lat="44.12256" lon="7.27108">
        <ele>1631.2</ele>
        <time>2023-02-05T08:50:54Z</time>
      </trkpt>
      <trkpt lat="44.12257" lon="7.27108">
        <ele>1631.2</ele>
        <time>2023-02-05T08:50:55Z</time>
      </trkpt>
      <trkpt lat="44.12257" lon="7.27108">
        <ele>1631.3</ele>
        <time>2023-02-05T08:50:56Z</time>
      </trkpt>
      <trkpt lat="44.12256" lon="7.27108">
        <ele>1631.3</ele>
        <time>2023-02-05T08:50:57Z</time>
      </trkpt>
      <trkpt lat="44.12256" lon="7.27108">
        <ele>1631.4</ele>
        <time>2023-02-05T08:50:58Z</time>
      </trkpt>
      <trkpt lat="44.12257" lon="7.27108">
        <ele>1631.4</ele>
        <time>2023-02-05T08:50:59Z</time>
      </trkpt>
      <trkpt lat="44.12257" lon="7.27108">
        <ele>1631.4</ele>
        <time>2023-02-05T08:51:00Z</time>
      </trkpt>
      <trkpt lat="44.12256" lon="7.27108">
        <ele>1631.4</ele>
        <time>2023-02-05T08:51:01Z</time>
      </trkpt>
      <trkpt lat="44.12256" lon="7.27108">
        <ele>1631.4</ele>
        <time>2023-02-05T08:51:02Z</time>
      </trkpt>
      <trkpt lat="44.12256" lon="7.27108">
        <ele>1631.5</ele>
        <time>2023-02-05T08:51:03Z</time>
      </trkpt>
      <trkpt lat="44.12256" lon="7.27108">
        <ele>1631.5</ele>
        <time>2023-02-05T08:51:04Z</time>
      </trkpt>
      <trkpt lat="44.12256" lon="7.27109">
        <ele>1631.4</ele>
        <time>2023-02-05T08:51:05Z</time>
      </trkpt>
      <trkpt lat="44.12255" lon="7.27109">
        <ele>1631.3</ele>
        <time>2023-02-05T08:51:06Z</time>
      </trkpt>
      <trkpt lat="44.12255" lon="7.27109">
        <ele>1631.3</ele>
        <time>2023-02-05T08:51:07Z</time>
      </trkpt>
      <trkpt lat="44.12255" lon="7.27109">
        <ele>1631.3</ele>
        <time>2023-02-05T08:51:08Z</time>
      </trkpt>
      <trkpt lat="44.12255" lon="7.27109">
        <ele>1631.2</ele>
        <time>2023-02-05T08:51:09Z</time>
      </trkpt>
      <trkpt lat="44.12255" lon="7.27109">
        <ele>1631.2</ele>
        <time>2023-02-05T08:51:10Z</time>
      </trkpt>
      <trkpt lat="44.12255" lon="7.2711">
        <ele>1631.3</ele>
        <time>2023-02-05T08:51:11Z</time>
      </trkpt>
      <trkpt lat="44.12255" lon="7.27111">
        <ele>1631.3</ele>
        <time>2023-02-05T08:51:12Z</time>
      </trkpt>
      <trkpt lat="44.12254" lon="7.27111">
        <ele>1631.5</ele>
        <time>2023-02-05T08:51:13Z</time>
      </trkpt>
      <trkpt lat="44.12254" lon="7.27111">
        <ele>1631.6</ele>
        <time>2023-02-05T08:51:14Z</time>
      </trkpt>
      <trkpt lat="44.12254" lon="7.27111">
        <ele>1631.5</ele>
        <time>2023-02-05T08:51:15Z</time>
      </trkpt>
      <trkpt lat="44.12254" lon="7.27111">
        <ele>1631.5</ele>
        <time>2023-02-05T08:51:16Z</time>
      </trkpt>
      <trkpt lat="44.12254" lon="7.2711">
        <ele>1631.5</ele>
        <time>2023-02-05T08:51:17Z</time>
      </trkpt>
      <trkpt lat="44.12254" lon="7.2711">
        <ele>1631.6</ele>
        <time>2023-02-05T08:51:18Z</time>
      </trkpt>
      <trkpt lat="44.12254" lon="7.2711">
        <ele>1631.6</ele>
        <time>2023-02-05T08:51:19Z</time>
      </trkpt>
      <trkpt lat="44.12254" lon="7.2711">
        <ele>1631.6</ele>
        <time>2023-02-05T08:51:20Z</time>
      </trkpt>
      <trkpt lat="44.12254" lon="7.2711">
        <ele>1631.5</ele>
        <time>2023-02-05T08:51:21Z</time>
      </trkpt>
      <trkpt lat="44.12254" lon="7.2711">
        <ele>1631.4</ele>
        <time>2023-02-05T08:51:22Z</time>
      </trkpt>
      <trkpt lat="44.12254" lon="7.2711">
        <ele>1631.4</ele>
        <time>2023-02-05T08:51:23Z</time>
      </trkpt>
      <trkpt lat="44.12254" lon="7.2711">
        <ele>1631.3</ele>
        <time>2023-02-05T08:51:24Z</time>
      </trkpt>
      <trkpt lat="44.12254" lon="7.2711">
        <ele>1631.3</ele>
        <time>2023-02-05T08:51:25Z</time>
      </trkpt>
      <trkpt lat="44.12254" lon="7.2711">
        <ele>1631.3</ele>
        <time>2023-02-05T08:51:26Z</time>
      </trkpt>
      <trkpt lat="44.12254" lon="7.2711">
        <ele>1631.3</ele>
        <time>2023-02-05T08:51:27Z</time>
      </trkpt>
      <trkpt lat="44.12254" lon="7.2711">
        <ele>1631.3</ele>
        <time>2023-02-05T08:51:28Z</time>
      </trkpt>
      <trkpt lat="44.12254" lon="7.2711">
        <ele>1631.3</ele>
        <time>2023-02-05T08:51:29Z</time>
      </trkpt>
      <trkpt lat="44.12253" lon="7.2711">
        <ele>1631.3</ele>
        <time>2023-02-05T08:51:30Z</time>
      </trkpt>
      <trkpt lat="44.12253" lon="7.27111">
        <ele>1631.3</ele>
        <time>2023-02-05T08:51:31Z</time>
      </trkpt>
      <trkpt lat="44.12253" lon="7.27111">
        <ele>1631.4</ele>
        <time>2023-02-05T08:51:32Z</time>
      </trkpt>
      <trkpt lat="44.12253" lon="7.27111">
        <ele>1631.4</ele>
        <time>2023-02-05T08:51:33Z</time>
      </trkpt>
      <trkpt lat="44.12253" lon="7.27111">
        <ele>1631.4</ele>
        <time>2023-02-05T08:51:34Z</time>
      </trkpt>
      <trkpt lat="44.12252" lon="7.27111">
        <ele>1631.4</ele>
        <time>2023-02-05T08:51:35Z</time>
      </trkpt>
      <trkpt lat="44.12252" lon="7.27111">
        <ele>1631.5</ele>
        <time>2023-02-05T08:51:36Z</time>
      </trkpt>
      <trkpt lat="44.12252" lon="7.27111">
        <ele>1631.4</ele>
        <time>2023-02-05T08:51:37Z</time>
      </trkpt>
      <trkpt lat="44.12253" lon="7.27111">
        <ele>1631.4</ele>
        <time>2023-02-05T08:51:38Z</time>
      </trkpt>
      <trkpt lat="44.12253" lon="7.27111">
        <ele>1631.4</ele>
        <time>2023-02-05T08:51:39Z</time>
      </trkpt>
      <trkpt lat="44.12253" lon="7.27111">
        <ele>1631.4</ele>
        <time>2023-02-05T08:51:40Z</time>
      </trkpt>
      <trkpt lat="44.12252" lon="7.27111">
        <ele>1631.3</ele>
        <time>2023-02-05T08:51:41Z</time>
      </trkpt>
      <trkpt lat="44.12252" lon="7.27111">
        <ele>1631.3</ele>
        <time>2023-02-05T08:51:42Z</time>
      </trkpt>
      <trkpt lat="44.12252" lon="7.27111">
        <ele>1631.3</ele>
        <time>2023-02-05T08:51:43Z</time>
      </trkpt>
      <trkpt lat="44.12252" lon="7.27111">
        <ele>1631.3</ele>
        <time>2023-02-05T08:51:44Z</time>
      </trkpt>
      <trkpt lat="44.12252" lon="7.27111">
        <ele>1631.2</ele>
        <time>2023-02-05T08:51:45Z</time>
      </trkpt>
      <trkpt lat="44.12252" lon="7.27111">
        <ele>1631.2</ele>
        <time>2023-02-05T08:51:46Z</time>
      </trkpt>
      <trkpt lat="44.12252" lon="7.27111">
        <ele>1631.2</ele>
        <time>2023-02-05T08:51:47Z</time>
      </trkpt>
      <trkpt lat="44.12252" lon="7.2711">
        <ele>1631.1</ele>
        <time>2023-02-05T08:51:48Z</time>
      </trkpt>
      <trkpt lat="44.12252" lon="7.2711">
        <ele>1631.2</ele>
        <time>2023-02-05T08:51:49Z</time>
      </trkpt>
      <trkpt lat="44.12252" lon="7.2711">
        <ele>1631.2</ele>
        <time>2023-02-05T08:51:50Z</time>
      </trkpt>
      <trkpt lat="44.12252" lon="7.2711">
        <ele>1631.2</ele>
        <time>2023-02-05T08:51:51Z</time>
      </trkpt>
      <trkpt lat="44.12252" lon="7.27111">
        <ele>1631.3</ele>
        <time>2023-02-05T08:51:52Z</time>
      </trkpt>
      <trkpt lat="44.12252" lon="7.2711">
        <ele>1631.3</ele>
        <time>2023-02-05T08:51:53Z</time>
      </trkpt>
      <trkpt lat="44.12252" lon="7.2711">
        <ele>1631.3</ele>
        <time>2023-02-05T08:51:54Z</time>
      </trkpt>
      <trkpt lat="44.12252" lon="7.2711">
        <ele>1631.3</ele>
        <time>2023-02-05T08:51:55Z</time>
      </trkpt>
      <trkpt lat="44.12252" lon="7.2711">
        <ele>1631.3</ele>
        <time>2023-02-05T08:51:56Z</time>
      </trkpt>
      <trkpt lat="44.12252" lon="7.2711">
        <ele>1631.3</ele>
        <time>2023-02-05T08:51:57Z</time>
      </trkpt>
      <trkpt lat="44.12253" lon="7.2711">
        <ele>1631.4</ele>
        <time>2023-02-05T08:51:58Z</time>
      </trkpt>
      <trkpt lat="44.12253" lon="7.2711">
        <ele>1631.4</ele>
        <time>2023-02-05T08:51:59Z</time>
      </trkpt>
      <trkpt lat="44.12253" lon="7.2711">
        <ele>1631.5</ele>
        <time>2023-02-05T08:52:00Z</time>
      </trkpt>
      <trkpt lat="44.12253" lon="7.2711">
        <ele>1631.4</ele>
        <time>2023-02-05T08:52:01Z</time>
      </trkpt>
      <trkpt lat="44.12253" lon="7.2711">
        <ele>1631.4</ele>
        <time>2023-02-05T08:52:02Z</time>
      </trkpt>
      <trkpt lat="44.12252" lon="7.2711">
        <ele>1631.4</ele>
        <time>2023-02-05T08:52:03Z</time>
      </trkpt>
      <trkpt lat="44.12252" lon="7.2711">
        <ele>1631.4</ele>
        <time>2023-02-05T08:52:04Z</time>
      </trkpt>
      <trkpt lat="44.12252" lon="7.2711">
        <ele>1631.4</ele>
        <time>2023-02-05T08:52:05Z</time>
      </trkpt>
      <trkpt lat="44.12252" lon="7.27111">
        <ele>1631.3</ele>
        <time>2023-02-05T08:52:06Z</time>
      </trkpt>
      <trkpt lat="44.12252" lon="7.27111">
        <ele>1631.2</ele>
        <time>2023-02-05T08:52:07Z</time>
      </trkpt>
      <trkpt lat="44.12251" lon="7.27112">
        <ele>1631.2</ele>
        <time>2023-02-05T08:52:08Z</time>
      </trkpt>
      <trkpt lat="44.12251" lon="7.27112">
        <ele>1631.2</ele>
        <time>2023-02-05T08:52:09Z</time>
      </trkpt>
      <trkpt lat="44.1225" lon="7.27113">
        <ele>1631.2</ele>
        <time>2023-02-05T08:52:10Z</time>
      </trkpt>
      <trkpt lat="44.1225" lon="7.27113">
        <ele>1631.3</ele>
        <time>2023-02-05T08:52:11Z</time>
      </trkpt>
      <trkpt lat="44.12249" lon="7.27114">
        <ele>1631.3</ele>
        <time>2023-02-05T08:52:12Z</time>
      </trkpt>
      <trkpt lat="44.12249" lon="7.27114">
        <ele>1631.3</ele>
        <time>2023-02-05T08:52:13Z</time>
      </trkpt>
      <trkpt lat="44.12249" lon="7.27114">
        <ele>1631.3</ele>
        <time>2023-02-05T08:52:14Z</time>
      </trkpt>
      <trkpt lat="44.12249" lon="7.27115">
        <ele>1631.3</ele>
        <time>2023-02-05T08:52:15Z</time>
      </trkpt>
      <trkpt lat="44.12249" lon="7.27115">
        <ele>1631.3</ele>
        <time>2023-02-05T08:52:16Z</time>
      </trkpt>
      <trkpt lat="44.12248" lon="7.27115">
        <ele>1631.3</ele>
        <time>2023-02-05T08:52:17Z</time>
      </trkpt>
      <trkpt lat="44.12248" lon="7.27115">
        <ele>1631.3</ele>
        <time>2023-02-05T08:52:18Z</time>
      </trkpt>
      <trkpt lat="44.12249" lon="7.27115">
        <ele>1631.4</ele>
        <time>2023-02-05T08:52:19Z</time>
      </trkpt>
      <trkpt lat="44.12249" lon="7.27115">
        <ele>1631.5</ele>
        <time>2023-02-05T08:52:20Z</time>
      </trkpt>
      <trkpt lat="44.12249" lon="7.27115">
        <ele>1631.5</ele>
        <time>2023-02-05T08:52:21Z</time>
      </trkpt>
      <trkpt lat="44.12249" lon="7.27115">
        <ele>1631.6</ele>
        <time>2023-02-05T08:52:22Z</time>
      </trkpt>
      <trkpt lat="44.12249" lon="7.27115">
        <ele>1631.6</ele>
        <time>2023-02-05T08:52:23Z</time>
      </trkpt>
      <trkpt lat="44.12249" lon="7.27115">
        <ele>1631.6</ele>
        <time>2023-02-05T08:52:24Z</time>
      </trkpt>
      <trkpt lat="44.12249" lon="7.27116">
        <ele>1631.6</ele>
        <time>2023-02-05T08:52:25Z</time>
      </trkpt>
      <trkpt lat="44.12249" lon="7.27116">
        <ele>1631.6</ele>
        <time>2023-02-05T08:52:26Z</time>
      </trkpt>
      <trkpt lat="44.12249" lon="7.27116">
        <ele>1631.6</ele>
        <time>2023-02-05T08:52:27Z</time>
      </trkpt>
      <trkpt lat="44.12249" lon="7.27116">
        <ele>1631.5</ele>
        <time>2023-02-05T08:52:28Z</time>
      </trkpt>
      <trkpt lat="44.12249" lon="7.27117">
        <ele>1631.4</ele>
        <time>2023-02-05T08:52:29Z</time>
      </trkpt>
      <trkpt lat="44.12249" lon="7.27117">
        <ele>1631.4</ele>
        <time>2023-02-05T08:52:30Z</time>
      </trkpt>
      <trkpt lat="44.12249" lon="7.27117">
        <ele>1631.4</ele>
        <time>2023-02-05T08:52:31Z</time>
      </trkpt>
      <trkpt lat="44.12249" lon="7.27116">
        <ele>1631.4</ele>
        <time>2023-02-05T08:52:32Z</time>
      </trkpt>
      <trkpt lat="44.1225" lon="7.27116">
        <ele>1631.3</ele>
        <time>2023-02-05T08:52:33Z</time>
      </trkpt>
      <trkpt lat="44.1225" lon="7.27116">
        <ele>1631.4</ele>
        <time>2023-02-05T08:52:34Z</time>
      </trkpt>
      <trkpt lat="44.1225" lon="7.27116">
        <ele>1631.4</ele>
        <time>2023-02-05T08:52:35Z</time>
      </trkpt>
      <trkpt lat="44.1225" lon="7.27116">
        <ele>1631.4</ele>
        <time>2023-02-05T08:52:36Z</time>
      </trkpt>
      <trkpt lat="44.12251" lon="7.27115">
        <ele>1631.4</ele>
        <time>2023-02-05T08:52:37Z</time>
      </trkpt>
      <trkpt lat="44.12251" lon="7.27115">
        <ele>1631.4</ele>
        <time>2023-02-05T08:52:38Z</time>
      </trkpt>
      <trkpt lat="44.12251" lon="7.27115">
        <ele>1631.3</ele>
        <time>2023-02-05T08:52:39Z</time>
      </trkpt>
      <trkpt lat="44.12251" lon="7.27115">
        <ele>1631.3</ele>
        <time>2023-02-05T08:52:40Z</time>
      </trkpt>
      <trkpt lat="44.12251" lon="7.27115">
        <ele>1631.3</ele>
        <time>2023-02-05T08:52:41Z</time>
      </trkpt>
      <trkpt lat="44.12251" lon="7.27115">
        <ele>1631.2</ele>
        <time>2023-02-05T08:52:42Z</time>
      </trkpt>
      <trkpt lat="44.12252" lon="7.27115">
        <ele>1631.2</ele>
        <time>2023-02-05T08:52:43Z</time>
      </trkpt>
      <trkpt lat="44.12252" lon="7.27115">
        <ele>1631.3</ele>
        <time>2023-02-05T08:52:44Z</time>
      </trkpt>
      <trkpt lat="44.12252" lon="7.27114">
        <ele>1631.3</ele>
        <time>2023-02-05T08:52:45Z</time>
      </trkpt>
      <trkpt lat="44.12252" lon="7.27114">
        <ele>1631.3</ele>
        <time>2023-02-05T08:52:46Z</time>
      </trkpt>
      <trkpt lat="44.12253" lon="7.27114">
        <ele>1631.4</ele>
        <time>2023-02-05T08:52:47Z</time>
      </trkpt>
      <trkpt lat="44.12253" lon="7.27114">
        <ele>1631.3</ele>
        <time>2023-02-05T08:52:48Z</time>
      </trkpt>
      <trkpt lat="44.12253" lon="7.27114">
        <ele>1631.4</ele>
        <time>2023-02-05T08:52:49Z</time>
      </trkpt>
      <trkpt lat="44.12253" lon="7.27113">
        <ele>1631.4</ele>
        <time>2023-02-05T08:52:50Z</time>
      </trkpt>
      <trkpt lat="44.12254" lon="7.27113">
        <ele>1631.5</ele>
        <time>2023-02-05T08:52:51Z</time>
      </trkpt>
      <trkpt lat="44.12254" lon="7.27113">
        <ele>1631.5</ele>
        <time>2023-02-05T08:52:52Z</time>
      </trkpt>
      <trkpt lat="44.12254" lon="7.27113">
        <ele>1631.5</ele>
        <time>2023-02-05T08:52:53Z</time>
      </trkpt>
      <trkpt lat="44.12254" lon="7.27112">
        <ele>1631.5</ele>
        <time>2023-02-05T08:52:54Z</time>
      </trkpt>
      <trkpt lat="44.12254" lon="7.27111">
        <ele>1631.5</ele>
        <time>2023-02-05T08:52:55Z</time>
      </trkpt>
      <trkpt lat="44.12255" lon="7.27111">
        <ele>1631.5</ele>
        <time>2023-02-05T08:52:56Z</time>
      </trkpt>
      <trkpt lat="44.12255" lon="7.2711">
        <ele>1631.6</ele>
        <time>2023-02-05T08:52:57Z</time>
      </trkpt>
      <trkpt lat="44.12255" lon="7.2711">
        <ele>1631.7</ele>
        <time>2023-02-05T08:52:58Z</time>
      </trkpt>
      <trkpt lat="44.12255" lon="7.2711">
        <ele>1631.8</ele>
        <time>2023-02-05T08:52:59Z</time>
      </trkpt>
      <trkpt lat="44.12256" lon="7.27109">
        <ele>1631.8</ele>
        <time>2023-02-05T08:53:00Z</time>
      </trkpt>
      <trkpt lat="44.12256" lon="7.27109">
        <ele>1631.8</ele>
        <time>2023-02-05T08:53:01Z</time>
      </trkpt>
      <trkpt lat="44.12256" lon="7.27109">
        <ele>1631.9</ele>
        <time>2023-02-05T08:53:02Z</time>
      </trkpt>
      <trkpt lat="44.12256" lon="7.27109">
        <ele>1631.9</ele>
        <time>2023-02-05T08:53:03Z</time>
      </trkpt>
      <trkpt lat="44.12256" lon="7.27109">
        <ele>1631.9</ele>
        <time>2023-02-05T08:53:04Z</time>
      </trkpt>
      <trkpt lat="44.12257" lon="7.27109">
        <ele>1631.9</ele>
        <time>2023-02-05T08:53:05Z</time>
      </trkpt>
      <trkpt lat="44.12257" lon="7.27109">
        <ele>1632</ele>
        <time>2023-02-05T08:53:06Z</time>
      </trkpt>
      <trkpt lat="44.12257" lon="7.27109">
        <ele>1632</ele>
        <time>2023-02-05T08:53:07Z</time>
      </trkpt>
      <trkpt lat="44.12257" lon="7.27109">
        <ele>1632</ele>
        <time>2023-02-05T08:53:08Z</time>
      </trkpt>
      <trkpt lat="44.12257" lon="7.27109">
        <ele>1632</ele>
        <time>2023-02-05T08:53:09Z</time>
      </trkpt>
      <trkpt lat="44.12258" lon="7.27109">
        <ele>1632</ele>
        <time>2023-02-05T08:53:10Z</time>
      </trkpt>
      <trkpt lat="44.12258" lon="7.27108">
        <ele>1632</ele>
        <time>2023-02-05T08:53:11Z</time>
      </trkpt>
      <trkpt lat="44.12258" lon="7.27108">
        <ele>1632</ele>
        <time>2023-02-05T08:53:12Z</time>
      </trkpt>
      <trkpt lat="44.12258" lon="7.27108">
        <ele>1632</ele>
        <time>2023-02-05T08:53:13Z</time>
      </trkpt>
      <trkpt lat="44.12258" lon="7.27108">
        <ele>1632</ele>
        <time>2023-02-05T08:53:14Z</time>
      </trkpt>
      <trkpt lat="44.12258" lon="7.27108">
        <ele>1632</ele>
        <time>2023-02-05T08:53:15Z</time>
      </trkpt>
      <trkpt lat="44.12258" lon="7.27108">
        <ele>1632</ele>
        <time>2023-02-05T08:53:16Z</time>
      </trkpt>
      <trkpt lat="44.12258" lon="7.27108">
        <ele>1632</ele>
        <time>2023-02-05T08:53:17Z</time>
      </trkpt>
      <trkpt lat="44.12259" lon="7.27109">
        <ele>1632</ele>
        <time>2023-02-05T08:53:18Z</time>
      </trkpt>
      <trkpt lat="44.12259" lon="7.27109">
        <ele>1631.8</ele>
        <time>2023-02-05T08:53:19Z</time>
      </trkpt>
      <trkpt lat="44.1226" lon="7.27109">
        <ele>1631.7</ele>
        <time>2023-02-05T08:53:20Z</time>
      </trkpt>
      <trkpt lat="44.1226" lon="7.27109">
        <ele>1631.6</ele>
        <time>2023-02-05T08:53:21Z</time>
      </trkpt>
      <trkpt lat="44.1226" lon="7.27109">
        <ele>1631.5</ele>
        <time>2023-02-05T08:53:22Z</time>
      </trkpt>
      <trkpt lat="44.1226" lon="7.27109">
        <ele>1631.6</ele>
        <time>2023-02-05T08:53:23Z</time>
      </trkpt>
      <trkpt lat="44.12261" lon="7.27109">
        <ele>1631.7</ele>
        <time>2023-02-05T08:53:24Z</time>
      </trkpt>
      <trkpt lat="44.12262" lon="7.27108">
        <ele>1631.6</ele>
        <time>2023-02-05T08:53:25Z</time>
      </trkpt>
      <trkpt lat="44.12263" lon="7.27107">
        <ele>1631.7</ele>
        <time>2023-02-05T08:53:26Z</time>
      </trkpt>
      <trkpt lat="44.12264" lon="7.27107">
        <ele>1631.7</ele>
        <time>2023-02-05T08:53:27Z</time>
      </trkpt>
      <trkpt lat="44.12264" lon="7.27107">
        <ele>1631.7</ele>
        <time>2023-02-05T08:53:28Z</time>
      </trkpt>
      <trkpt lat="44.12265" lon="7.27107">
        <ele>1631.8</ele>
        <time>2023-02-05T08:53:29Z</time>
      </trkpt>
      <trkpt lat="44.12265" lon="7.27107">
        <ele>1631.8</ele>
        <time>2023-02-05T08:53:30Z</time>
      </trkpt>
      <trkpt lat="44.12266" lon="7.27107">
        <ele>1631.8</ele>
        <time>2023-02-05T08:53:31Z</time>
      </trkpt>
      <trkpt lat="44.12266" lon="7.27106">
        <ele>1631.9</ele>
        <time>2023-02-05T08:53:32Z</time>
      </trkpt>
      <trkpt lat="44.12266" lon="7.27107">
        <ele>1631.8</ele>
        <time>2023-02-05T08:53:33Z</time>
      </trkpt>
      <trkpt lat="44.12267" lon="7.27107">
        <ele>1631.8</ele>
        <time>2023-02-05T08:53:34Z</time>
      </trkpt>
      <trkpt lat="44.12267" lon="7.27106">
        <ele>1631.7</ele>
        <time>2023-02-05T08:53:35Z</time>
      </trkpt>
      <trkpt lat="44.12267" lon="7.27106">
        <ele>1631.7</ele>
        <time>2023-02-05T08:53:36Z</time>
      </trkpt>
      <trkpt lat="44.12268" lon="7.27106">
        <ele>1631.7</ele>
        <time>2023-02-05T08:53:37Z</time>
      </trkpt>
      <trkpt lat="44.12268" lon="7.27107">
        <ele>1631.6</ele>
        <time>2023-02-05T08:53:38Z</time>
      </trkpt>
      <trkpt lat="44.12268" lon="7.27107">
        <ele>1631.6</ele>
        <time>2023-02-05T08:53:39Z</time>
      </trkpt>
      <trkpt lat="44.12268" lon="7.27107">
        <ele>1631.6</ele>
        <time>2023-02-05T08:53:40Z</time>
      </trkpt>
      <trkpt lat="44.12268" lon="7.27107">
        <ele>1631.6</ele>
        <time>2023-02-05T08:53:41Z</time>
      </trkpt>
      <trkpt lat="44.12268" lon="7.27107">
        <ele>1631.6</ele>
        <time>2023-02-05T08:53:42Z</time>
      </trkpt>
      <trkpt lat="44.12268" lon="7.27107">
        <ele>1631.6</ele>
        <time>2023-02-05T08:53:43Z</time>
      </trkpt>
      <trkpt lat="44.12268" lon="7.27107">
        <ele>1631.5</ele>
        <time>2023-02-05T08:53:44Z</time>
      </trkpt>
      <trkpt lat="44.12268" lon="7.27107">
        <ele>1631.5</ele>
        <time>2023-02-05T08:53:45Z</time>
      </trkpt>
      <trkpt lat="44.12268" lon="7.27107">
        <ele>1631.5</ele>
        <time>2023-02-05T08:53:46Z</time>
      </trkpt>
      <trkpt lat="44.12268" lon="7.27107">
        <ele>1631.6</ele>
        <time>2023-02-05T08:53:47Z</time>
      </trkpt>
      <trkpt lat="44.12268" lon="7.27107">
        <ele>1631.6</ele>
        <time>2023-02-05T08:53:48Z</time>
      </trkpt>
      <trkpt lat="44.12269" lon="7.27106">
        <ele>1631.6</ele>
        <time>2023-02-05T08:53:49Z</time>
      </trkpt>
      <trkpt lat="44.12269" lon="7.27107">
        <ele>1631.6</ele>
        <time>2023-02-05T08:53:50Z</time>
      </trkpt>
      <trkpt lat="44.12268" lon="7.27106">
        <ele>1631.6</ele>
        <time>2023-02-05T08:53:51Z</time>
      </trkpt>
      <trkpt lat="44.12268" lon="7.27106">
        <ele>1631.6</ele>
        <time>2023-02-05T08:53:52Z</time>
      </trkpt>
      <trkpt lat="44.12268" lon="7.27105">
        <ele>1631.6</ele>
        <time>2023-02-05T08:53:53Z</time>
      </trkpt>
      <trkpt lat="44.12268" lon="7.27105">
        <ele>1631.6</ele>
        <time>2023-02-05T08:53:54Z</time>
      </trkpt>
      <trkpt lat="44.12268" lon="7.27104">
        <ele>1631.6</ele>
        <time>2023-02-05T08:53:55Z</time>
      </trkpt>
      <trkpt lat="44.12268" lon="7.27104">
        <ele>1631.8</ele>
        <time>2023-02-05T08:53:56Z</time>
      </trkpt>
      <trkpt lat="44.12268" lon="7.27104">
        <ele>1631.9</ele>
        <time>2023-02-05T08:53:57Z</time>
      </trkpt>
      <trkpt lat="44.12268" lon="7.27103">
        <ele>1631.9</ele>
        <time>2023-02-05T08:53:58Z</time>
      </trkpt>
      <trkpt lat="44.12268" lon="7.27103">
        <ele>1632.1</ele>
        <time>2023-02-05T08:53:59Z</time>
      </trkpt>
      <trkpt lat="44.12268" lon="7.27102">
        <ele>1632.2</ele>
        <time>2023-02-05T08:54:00Z</time>
      </trkpt>
      <trkpt lat="44.12269" lon="7.27102">
        <ele>1632.3</ele>
        <time>2023-02-05T08:54:01Z</time>
      </trkpt>
      <trkpt lat="44.12269" lon="7.27102">
        <ele>1632.3</ele>
        <time>2023-02-05T08:54:02Z</time>
      </trkpt>
      <trkpt lat="44.12269" lon="7.27102">
        <ele>1632.3</ele>
        <time>2023-02-05T08:54:03Z</time>
      </trkpt>
      <trkpt lat="44.12268" lon="7.27102">
        <ele>1632.3</ele>
        <time>2023-02-05T08:54:04Z</time>
      </trkpt>
      <trkpt lat="44.12268" lon="7.27102">
        <ele>1632.3</ele>
        <time>2023-02-05T08:54:05Z</time>
      </trkpt>
      <trkpt lat="44.12268" lon="7.27102">
        <ele>1632.3</ele>
        <time>2023-02-05T08:54:06Z</time>
      </trkpt>
      <trkpt lat="44.12268" lon="7.27102">
        <ele>1632.2</ele>
        <time>2023-02-05T08:54:07Z</time>
      </trkpt>
      <trkpt lat="44.12268" lon="7.27102">
        <ele>1632.3</ele>
        <time>2023-02-05T08:54:08Z</time>
      </trkpt>
      <trkpt lat="44.12268" lon="7.27102">
        <ele>1632.3</ele>
        <time>2023-02-05T08:54:09Z</time>
      </trkpt>
      <trkpt lat="44.12268" lon="7.27102">
        <ele>1632.3</ele>
        <time>2023-02-05T08:54:10Z</time>
      </trkpt>
      <trkpt lat="44.12268" lon="7.27102">
        <ele>1632.2</ele>
        <time>2023-02-05T08:54:11Z</time>
      </trkpt>
      <trkpt lat="44.12268" lon="7.27102">
        <ele>1632.3</ele>
        <time>2023-02-05T08:54:12Z</time>
      </trkpt>
      <trkpt lat="44.12268" lon="7.27102">
        <ele>1632.4</ele>
        <time>2023-02-05T08:54:13Z</time>
      </trkpt>
      <trkpt lat="44.12268" lon="7.27103">
        <ele>1632.5</ele>
        <time>2023-02-05T08:54:14Z</time>
      </trkpt>
      <trkpt lat="44.12268" lon="7.27103">
        <ele>1632.5</ele>
        <time>2023-02-05T08:54:15Z</time>
      </trkpt>
      <trkpt lat="44.12268" lon="7.27102">
        <ele>1632.5</ele>
        <time>2023-02-05T08:54:16Z</time>
      </trkpt>
      <trkpt lat="44.12269" lon="7.27102">
        <ele>1632.5</ele>
        <time>2023-02-05T08:54:17Z</time>
      </trkpt>
      <trkpt lat="44.12269" lon="7.27102">
        <ele>1632.5</ele>
        <time>2023-02-05T08:54:18Z</time>
      </trkpt>
      <trkpt lat="44.12269" lon="7.27103">
        <ele>1632.5</ele>
        <time>2023-02-05T08:54:19Z</time>
      </trkpt>
      <trkpt lat="44.12269" lon="7.27103">
        <ele>1632.5</ele>
        <time>2023-02-05T08:54:20Z</time>
      </trkpt>
      <trkpt lat="44.12269" lon="7.27103">
        <ele>1632.5</ele>
        <time>2023-02-05T08:54:21Z</time>
      </trkpt>
      <trkpt lat="44.12269" lon="7.27103">
        <ele>1632.5</ele>
        <time>2023-02-05T08:54:22Z</time>
      </trkpt>
      <trkpt lat="44.12269" lon="7.27104">
        <ele>1632.4</ele>
        <time>2023-02-05T08:54:23Z</time>
      </trkpt>
      <trkpt lat="44.12269" lon="7.27104">
        <ele>1632.4</ele>
        <time>2023-02-05T08:54:24Z</time>
      </trkpt>
      <trkpt lat="44.12268" lon="7.27105">
        <ele>1632.3</ele>
        <time>2023-02-05T08:54:25Z</time>
      </trkpt>
      <trkpt lat="44.12268" lon="7.27105">
        <ele>1632.3</ele>
        <time>2023-02-05T08:54:26Z</time>
      </trkpt>
      <trkpt lat="44.12267" lon="7.27105">
        <ele>1632.3</ele>
        <time>2023-02-05T08:54:27Z</time>
      </trkpt>
      <trkpt lat="44.12267" lon="7.27105">
        <ele>1632.3</ele>
        <time>2023-02-05T08:54:28Z</time>
      </trkpt>
      <trkpt lat="44.12267" lon="7.27105">
        <ele>1632.3</ele>
        <time>2023-02-05T08:54:29Z</time>
      </trkpt>
      <trkpt lat="44.12267" lon="7.27105">
        <ele>1632.3</ele>
        <time>2023-02-05T08:54:30Z</time>
      </trkpt>
      <trkpt lat="44.12267" lon="7.27105">
        <ele>1632.3</ele>
        <time>2023-02-05T08:54:31Z</time>
      </trkpt>
      <trkpt lat="44.12266" lon="7.27106">
        <ele>1632.3</ele>
        <time>2023-02-05T08:54:32Z</time>
      </trkpt>
      <trkpt lat="44.12266" lon="7.27106">
        <ele>1632.2</ele>
        <time>2023-02-05T08:54:33Z</time>
      </trkpt>
      <trkpt lat="44.12266" lon="7.27106">
        <ele>1632.2</ele>
        <time>2023-02-05T08:54:34Z</time>
      </trkpt>
      <trkpt lat="44.12266" lon="7.27106">
        <ele>1632.2</ele>
        <time>2023-02-05T08:54:35Z</time>
      </trkpt>
      <trkpt lat="44.12265" lon="7.27106">
        <ele>1632.2</ele>
        <time>2023-02-05T08:54:36Z</time>
      </trkpt>
      <trkpt lat="44.12265" lon="7.27106">
        <ele>1632.2</ele>
        <time>2023-02-05T08:54:37Z</time>
      </trkpt>
      <trkpt lat="44.12265" lon="7.27106">
        <ele>1632.2</ele>
        <time>2023-02-05T08:54:38Z</time>
      </trkpt>
      <trkpt lat="44.12265" lon="7.27106">
        <ele>1632.2</ele>
        <time>2023-02-05T08:54:39Z</time>
      </trkpt>
      <trkpt lat="44.12265" lon="7.27106">
        <ele>1632.1</ele>
        <time>2023-02-05T08:54:40Z</time>
      </trkpt>
      <trkpt lat="44.12265" lon="7.27107">
        <ele>1632.2</ele>
        <time>2023-02-05T08:54:41Z</time>
      </trkpt>
      <trkpt lat="44.12265" lon="7.27107">
        <ele>1632.2</ele>
        <time>2023-02-05T08:54:42Z</time>
      </trkpt>
      <trkpt lat="44.12265" lon="7.27107">
        <ele>1632.3</ele>
        <time>2023-02-05T08:54:43Z</time>
      </trkpt>
      <trkpt lat="44.12264" lon="7.27107">
        <ele>1632.3</ele>
        <time>2023-02-05T08:54:44Z</time>
      </trkpt>
      <trkpt lat="44.12264" lon="7.27107">
        <ele>1632.2</ele>
        <time>2023-02-05T08:54:45Z</time>
      </trkpt>
      <trkpt lat="44.12264" lon="7.27107">
        <ele>1632.2</ele>
        <time>2023-02-05T08:54:46Z</time>
      </trkpt>
      <trkpt lat="44.12263" lon="7.27107">
        <ele>1632.1</ele>
        <time>2023-02-05T08:54:47Z</time>
      </trkpt>
      <trkpt lat="44.12263" lon="7.27107">
        <ele>1632.1</ele>
        <time>2023-02-05T08:54:48Z</time>
      </trkpt>
      <trkpt lat="44.12263" lon="7.27107">
        <ele>1632.1</ele>
        <time>2023-02-05T08:54:49Z</time>
      </trkpt>
      <trkpt lat="44.12264" lon="7.27107">
        <ele>1632.1</ele>
        <time>2023-02-05T08:54:50Z</time>
      </trkpt>
      <trkpt lat="44.12263" lon="7.27107">
        <ele>1632.1</ele>
        <time>2023-02-05T08:54:51Z</time>
      </trkpt>
      <trkpt lat="44.12263" lon="7.27107">
        <ele>1632.1</ele>
        <time>2023-02-05T08:54:52Z</time>
      </trkpt>
      <trkpt lat="44.12263" lon="7.27107">
        <ele>1632.2</ele>
        <time>2023-02-05T08:54:53Z</time>
      </trkpt>
      <trkpt lat="44.12264" lon="7.27107">
        <ele>1632.2</ele>
        <time>2023-02-05T08:54:54Z</time>
      </trkpt>
      <trkpt lat="44.12265" lon="7.27106">
        <ele>1632.2</ele>
        <time>2023-02-05T08:54:55Z</time>
      </trkpt>
      <trkpt lat="44.12265" lon="7.27106">
        <ele>1632.2</ele>
        <time>2023-02-05T08:54:56Z</time>
      </trkpt>
      <trkpt lat="44.12266" lon="7.27106">
        <ele>1632.1</ele>
        <time>2023-02-05T08:54:57Z</time>
      </trkpt>
      <trkpt lat="44.12266" lon="7.27106">
        <ele>1632.1</ele>
        <time>2023-02-05T08:54:58Z</time>
      </trkpt>
      <trkpt lat="44.12266" lon="7.27106">
        <ele>1632.1</ele>
        <time>2023-02-05T08:54:59Z</time>
      </trkpt>
      <trkpt lat="44.12266" lon="7.27106">
        <ele>1632.1</ele>
        <time>2023-02-05T08:55:00Z</time>
      </trkpt>
      <trkpt lat="44.12266" lon="7.27106">
        <ele>1632</ele>
        <time>2023-02-05T08:55:01Z</time>
      </trkpt>
      <trkpt lat="44.12266" lon="7.27106">
        <ele>1632</ele>
        <time>2023-02-05T08:55:02Z</time>
      </trkpt>
      <trkpt lat="44.12266" lon="7.27106">
        <ele>1631.9</ele>
        <time>2023-02-05T08:55:03Z</time>
      </trkpt>
      <trkpt lat="44.12266" lon="7.27106">
        <ele>1631.9</ele>
        <time>2023-02-05T08:55:04Z</time>
      </trkpt>
      <trkpt lat="44.12265" lon="7.27106">
        <ele>1631.9</ele>
        <time>2023-02-05T08:55:05Z</time>
      </trkpt>
      <trkpt lat="44.12265" lon="7.27107">
        <ele>1632</ele>
        <time>2023-02-05T08:55:06Z</time>
      </trkpt>
      <trkpt lat="44.12265" lon="7.27107">
        <ele>1632</ele>
        <time>2023-02-05T08:55:07Z</time>
      </trkpt>
      <trkpt lat="44.12264" lon="7.27107">
        <ele>1632.1</ele>
        <time>2023-02-05T08:55:08Z</time>
      </trkpt>
      <trkpt lat="44.12264" lon="7.27107">
        <ele>1632.1</ele>
        <time>2023-02-05T08:55:09Z</time>
      </trkpt>
      <trkpt lat="44.12264" lon="7.27107">
        <ele>1632.2</ele>
        <time>2023-02-05T08:55:10Z</time>
      </trkpt>
      <trkpt lat="44.12263" lon="7.27108">
        <ele>1632.2</ele>
        <time>2023-02-05T08:55:11Z</time>
      </trkpt>
      <trkpt lat="44.12263" lon="7.27108">
        <ele>1632.2</ele>
        <time>2023-02-05T08:55:12Z</time>
      </trkpt>
      <trkpt lat="44.12263" lon="7.27108">
        <ele>1632.2</ele>
        <time>2023-02-05T08:55:13Z</time>
      </trkpt>
      <trkpt lat="44.12264" lon="7.27108">
        <ele>1632.2</ele>
        <time>2023-02-05T08:55:14Z</time>
      </trkpt>
      <trkpt lat="44.12264" lon="7.27108">
        <ele>1632.2</ele>
        <time>2023-02-05T08:55:15Z</time>
      </trkpt>
      <trkpt lat="44.12264" lon="7.27108">
        <ele>1632.2</ele>
        <time>2023-02-05T08:55:16Z</time>
      </trkpt>
      <trkpt lat="44.12264" lon="7.27108">
        <ele>1632.2</ele>
        <time>2023-02-05T08:55:17Z</time>
      </trkpt>
      <trkpt lat="44.12263" lon="7.27108">
        <ele>1632.2</ele>
        <time>2023-02-05T08:55:18Z</time>
      </trkpt>
      <trkpt lat="44.12263" lon="7.27108">
        <ele>1632.2</ele>
        <time>2023-02-05T08:55:19Z</time>
      </trkpt>
      <trkpt lat="44.12263" lon="7.27109">
        <ele>1632.1</ele>
        <time>2023-02-05T08:55:20Z</time>
      </trkpt>
      <trkpt lat="44.12263" lon="7.27109">
        <ele>1632</ele>
        <time>2023-02-05T08:55:21Z</time>
      </trkpt>
      <trkpt lat="44.12264" lon="7.27109">
        <ele>1632</ele>
        <time>2023-02-05T08:55:22Z</time>
      </trkpt>
      <trkpt lat="44.12264" lon="7.27109">
        <ele>1631.9</ele>
        <time>2023-02-05T08:55:23Z</time>
      </trkpt>
      <trkpt lat="44.12263" lon="7.2711">
        <ele>1631.9</ele>
        <time>2023-02-05T08:55:24Z</time>
      </trkpt>
      <trkpt lat="44.12263" lon="7.2711">
        <ele>1631.8</ele>
        <time>2023-02-05T08:55:25Z</time>
      </trkpt>
      <trkpt lat="44.12263" lon="7.2711">
        <ele>1631.8</ele>
        <time>2023-02-05T08:55:26Z</time>
      </trkpt>
      <trkpt lat="44.12263" lon="7.2711">
        <ele>1631.8</ele>
        <time>2023-02-05T08:55:27Z</time>
      </trkpt>
      <trkpt lat="44.12263" lon="7.2711">
        <ele>1631.8</ele>
        <time>2023-02-05T08:55:28Z</time>
      </trkpt>
      <trkpt lat="44.12263" lon="7.2711">
        <ele>1631.8</ele>
        <time>2023-02-05T08:55:29Z</time>
      </trkpt>
      <trkpt lat="44.12264" lon="7.2711">
        <ele>1631.9</ele>
        <time>2023-02-05T08:55:30Z</time>
      </trkpt>
      <trkpt lat="44.12264" lon="7.2711">
        <ele>1631.8</ele>
        <time>2023-02-05T08:55:31Z</time>
      </trkpt>
      <trkpt lat="44.12264" lon="7.2711">
        <ele>1631.8</ele>
        <time>2023-02-05T08:55:32Z</time>
      </trkpt>
      <trkpt lat="44.12264" lon="7.2711">
        <ele>1631.7</ele>
        <time>2023-02-05T08:55:33Z</time>
      </trkpt>
      <trkpt lat="44.12264" lon="7.27109">
        <ele>1631.7</ele>
        <time>2023-02-05T08:55:34Z</time>
      </trkpt>
      <trkpt lat="44.12264" lon="7.27109">
        <ele>1631.7</ele>
        <time>2023-02-05T08:55:35Z</time>
      </trkpt>
      <trkpt lat="44.12265" lon="7.27109">
        <ele>1631.6</ele>
        <time>2023-02-05T08:55:36Z</time>
      </trkpt>
      <trkpt lat="44.12263" lon="7.27109">
        <ele>1631.6</ele>
        <time>2023-02-05T08:55:37Z</time>
      </trkpt>
      <trkpt lat="44.12263" lon="7.2711">
        <ele>1631.6</ele>
        <time>2023-02-05T08:55:38Z</time>
      </trkpt>
      <trkpt lat="44.12262" lon="7.2711">
        <ele>1631.6</ele>
        <time>2023-02-05T08:55:39Z</time>
      </trkpt>
      <trkpt lat="44.12263" lon="7.2711">
        <ele>1631.5</ele>
        <time>2023-02-05T08:55:40Z</time>
      </trkpt>
      <trkpt lat="44.12263" lon="7.2711">
        <ele>1631.5</ele>
        <time>2023-02-05T08:55:41Z</time>
      </trkpt>
      <trkpt lat="44.12263" lon="7.27109">
        <ele>1631.5</ele>
        <time>2023-02-05T08:55:42Z</time>
      </trkpt>
      <trkpt lat="44.12263" lon="7.27109">
        <ele>1631.5</ele>
        <time>2023-02-05T08:55:43Z</time>
      </trkpt>
      <trkpt lat="44.12263" lon="7.2711">
        <ele>1631.5</ele>
        <time>2023-02-05T08:55:44Z</time>
      </trkpt>
      <trkpt lat="44.12263" lon="7.2711">
        <ele>1631.5</ele>
        <time>2023-02-05T08:55:45Z</time>
      </trkpt>
      <trkpt lat="44.12263" lon="7.2711">
        <ele>1631.5</ele>
        <time>2023-02-05T08:55:46Z</time>
      </trkpt>
      <trkpt lat="44.12264" lon="7.2711">
        <ele>1631.5</ele>
        <time>2023-02-05T08:55:47Z</time>
      </trkpt>
      <trkpt lat="44.12264" lon="7.2711">
        <ele>1631.5</ele>
        <time>2023-02-05T08:55:48Z</time>
      </trkpt>
      <trkpt lat="44.12265" lon="7.2711">
        <ele>1631.5</ele>
        <time>2023-02-05T08:55:49Z</time>
      </trkpt>
      <trkpt lat="44.12264" lon="7.2711">
        <ele>1631.5</ele>
        <time>2023-02-05T08:55:50Z</time>
      </trkpt>
      <trkpt lat="44.12264" lon="7.2711">
        <ele>1631.5</ele>
        <time>2023-02-05T08:55:51Z</time>
      </trkpt>
      <trkpt lat="44.12264" lon="7.2711">
        <ele>1631.6</ele>
        <time>2023-02-05T08:55:52Z</time>
      </trkpt>
      <trkpt lat="44.12264" lon="7.2711">
        <ele>1631.6</ele>
        <time>2023-02-05T08:55:53Z</time>
      </trkpt>
      <trkpt lat="44.12264" lon="7.27109">
        <ele>1631.6</ele>
        <time>2023-02-05T08:55:54Z</time>
      </trkpt>
      <trkpt lat="44.12265" lon="7.27108">
        <ele>1631.7</ele>
        <time>2023-02-05T08:55:55Z</time>
      </trkpt>
      <trkpt lat="44.12265" lon="7.27106">
        <ele>1631.7</ele>
        <time>2023-02-05T08:55:56Z</time>
      </trkpt>
      <trkpt lat="44.12266" lon="7.27104">
        <ele>1631.7</ele>
        <time>2023-02-05T08:55:57Z</time>
      </trkpt>
      <trkpt lat="44.12267" lon="7.27103">
        <ele>1631.8</ele>
        <time>2023-02-05T08:55:58Z</time>
      </trkpt>
      <trkpt lat="44.12268" lon="7.27101">
        <ele>1631.8</ele>
        <time>2023-02-05T08:55:59Z</time>
      </trkpt>
      <trkpt lat="44.12269" lon="7.27099">
        <ele>1631.8</ele>
        <time>2023-02-05T08:56:00Z</time>
      </trkpt>
      <trkpt lat="44.12269" lon="7.27098">
        <ele>1631.9</ele>
        <time>2023-02-05T08:56:01Z</time>
      </trkpt>
      <trkpt lat="44.1227" lon="7.27096">
        <ele>1632</ele>
        <time>2023-02-05T08:56:02Z</time>
      </trkpt>
      <trkpt lat="44.1227" lon="7.27094">
        <ele>1632.1</ele>
        <time>2023-02-05T08:56:03Z</time>
      </trkpt>
      <trkpt lat="44.12271" lon="7.27093">
        <ele>1632</ele>
        <time>2023-02-05T08:56:04Z</time>
      </trkpt>
      <trkpt lat="44.12272" lon="7.27092">
        <ele>1632</ele>
        <time>2023-02-05T08:56:05Z</time>
      </trkpt>
      <trkpt lat="44.12272" lon="7.27091">
        <ele>1632</ele>
        <time>2023-02-05T08:56:06Z</time>
      </trkpt>
      <trkpt lat="44.12273" lon="7.27089">
        <ele>1632.1</ele>
        <time>2023-02-05T08:56:07Z</time>
      </trkpt>
      <trkpt lat="44.12273" lon="7.27088">
        <ele>1632.2</ele>
        <time>2023-02-05T08:56:08Z</time>
      </trkpt>
      <trkpt lat="44.12274" lon="7.27086">
        <ele>1632.2</ele>
        <time>2023-02-05T08:56:09Z</time>
      </trkpt>
      <trkpt lat="44.12275" lon="7.27085">
        <ele>1632.4</ele>
        <time>2023-02-05T08:56:10Z</time>
      </trkpt>
      <trkpt lat="44.12276" lon="7.27084">
        <ele>1632.6</ele>
        <time>2023-02-05T08:56:11Z</time>
      </trkpt>
      <trkpt lat="44.12277" lon="7.27083">
        <ele>1632.7</ele>
        <time>2023-02-05T08:56:12Z</time>
      </trkpt>
      <trkpt lat="44.12276" lon="7.27082">
        <ele>1632.8</ele>
        <time>2023-02-05T08:56:13Z</time>
      </trkpt>
      <trkpt lat="44.12277" lon="7.27081">
        <ele>1632.8</ele>
        <time>2023-02-05T08:56:14Z</time>
      </trkpt>
      <trkpt lat="44.12277" lon="7.27081">
        <ele>1633.1</ele>
        <time>2023-02-05T08:56:15Z</time>
      </trkpt>
      <trkpt lat="44.12277" lon="7.27081">
        <ele>1633.4</ele>
        <time>2023-02-05T08:56:16Z</time>
      </trkpt>
      <trkpt lat="44.12278" lon="7.2708">
        <ele>1633.5</ele>
        <time>2023-02-05T08:56:17Z</time>
      </trkpt>
      <trkpt lat="44.12279" lon="7.2708">
        <ele>1633.7</ele>
        <time>2023-02-05T08:56:18Z</time>
      </trkpt>
      <trkpt lat="44.12279" lon="7.27079">
        <ele>1633.9</ele>
        <time>2023-02-05T08:56:19Z</time>
      </trkpt>
      <trkpt lat="44.12279" lon="7.27078">
        <ele>1634</ele>
        <time>2023-02-05T08:56:20Z</time>
      </trkpt>
      <trkpt lat="44.12279" lon="7.27077">
        <ele>1634.1</ele>
        <time>2023-02-05T08:56:21Z</time>
      </trkpt>
      <trkpt lat="44.1228" lon="7.27076">
        <ele>1634.2</ele>
        <time>2023-02-05T08:56:22Z</time>
      </trkpt>
      <trkpt lat="44.1228" lon="7.27075">
        <ele>1634.3</ele>
        <time>2023-02-05T08:56:23Z</time>
      </trkpt>
      <trkpt lat="44.12281" lon="7.27074">
        <ele>1634.4</ele>
        <time>2023-02-05T08:56:24Z</time>
      </trkpt>
      <trkpt lat="44.12281" lon="7.27073">
        <ele>1634.6</ele>
        <time>2023-02-05T08:56:25Z</time>
      </trkpt>
      <trkpt lat="44.12281" lon="7.27073">
        <ele>1634.7</ele>
        <time>2023-02-05T08:56:26Z</time>
      </trkpt>
      <trkpt lat="44.12282" lon="7.27073">
        <ele>1634.8</ele>
        <time>2023-02-05T08:56:27Z</time>
      </trkpt>
      <trkpt lat="44.12282" lon="7.27072">
        <ele>1634.9</ele>
        <time>2023-02-05T08:56:28Z</time>
      </trkpt>
      <trkpt lat="44.12283" lon="7.27072">
        <ele>1634.8</ele>
        <time>2023-02-05T08:56:29Z</time>
      </trkpt>
      <trkpt lat="44.12283" lon="7.27072">
        <ele>1635</ele>
        <time>2023-02-05T08:56:30Z</time>
      </trkpt>
      <trkpt lat="44.12284" lon="7.27071">
        <ele>1635.1</ele>
        <time>2023-02-05T08:56:31Z</time>
      </trkpt>
      <trkpt lat="44.12285" lon="7.27071">
        <ele>1635.2</ele>
        <time>2023-02-05T08:56:32Z</time>
      </trkpt>
      <trkpt lat="44.12285" lon="7.27071">
        <ele>1635.2</ele>
        <time>2023-02-05T08:56:33Z</time>
      </trkpt>
      <trkpt lat="44.12285" lon="7.2707">
        <ele>1635.2</ele>
        <time>2023-02-05T08:56:34Z</time>
      </trkpt>
      <trkpt lat="44.12285" lon="7.2707">
        <ele>1635.2</ele>
        <time>2023-02-05T08:56:35Z</time>
      </trkpt>
      <trkpt lat="44.12286" lon="7.27068">
        <ele>1635.3</ele>
        <time>2023-02-05T08:56:36Z</time>
      </trkpt>
      <trkpt lat="44.12286" lon="7.27066">
        <ele>1635.4</ele>
        <time>2023-02-05T08:56:37Z</time>
      </trkpt>
      <trkpt lat="44.12287" lon="7.27064">
        <ele>1635.5</ele>
        <time>2023-02-05T08:56:38Z</time>
      </trkpt>
      <trkpt lat="44.12288" lon="7.27065">
        <ele>1635.5</ele>
        <time>2023-02-05T08:56:39Z</time>
      </trkpt>
      <trkpt lat="44.1229" lon="7.27064">
        <ele>1635.6</ele>
        <time>2023-02-05T08:56:40Z</time>
      </trkpt>
      <trkpt lat="44.12292" lon="7.27063">
        <ele>1635.7</ele>
        <time>2023-02-05T08:56:41Z</time>
      </trkpt>
      <trkpt lat="44.12293" lon="7.27063">
        <ele>1635.7</ele>
        <time>2023-02-05T08:56:42Z</time>
      </trkpt>
      <trkpt lat="44.12294" lon="7.27062">
        <ele>1635.9</ele>
        <time>2023-02-05T08:56:43Z</time>
      </trkpt>
      <trkpt lat="44.12296" lon="7.27062">
        <ele>1636</ele>
        <time>2023-02-05T08:56:44Z</time>
      </trkpt>
      <trkpt lat="44.12297" lon="7.27061">
        <ele>1636</ele>
        <time>2023-02-05T08:56:45Z</time>
      </trkpt>
      <trkpt lat="44.12297" lon="7.2706">
        <ele>1636.1</ele>
        <time>2023-02-05T08:56:46Z</time>
      </trkpt>
      <trkpt lat="44.12297" lon="7.27058">
        <ele>1636.2</ele>
        <time>2023-02-05T08:56:47Z</time>
      </trkpt>
      <trkpt lat="44.12298" lon="7.27057">
        <ele>1636.3</ele>
        <time>2023-02-05T08:56:48Z</time>
      </trkpt>
      <trkpt lat="44.12299" lon="7.27056">
        <ele>1636.4</ele>
        <time>2023-02-05T08:56:49Z</time>
      </trkpt>
      <trkpt lat="44.123" lon="7.27055">
        <ele>1636.5</ele>
        <time>2023-02-05T08:56:50Z</time>
      </trkpt>
      <trkpt lat="44.123" lon="7.27054">
        <ele>1636.6</ele>
        <time>2023-02-05T08:56:51Z</time>
      </trkpt>
      <trkpt lat="44.12301" lon="7.27054">
        <ele>1636.7</ele>
        <time>2023-02-05T08:56:52Z</time>
      </trkpt>
      <trkpt lat="44.12302" lon="7.27054">
        <ele>1636.8</ele>
        <time>2023-02-05T08:56:53Z</time>
      </trkpt>
      <trkpt lat="44.12302" lon="7.27054">
        <ele>1636.8</ele>
        <time>2023-02-05T08:56:54Z</time>
      </trkpt>
      <trkpt lat="44.12303" lon="7.27053">
        <ele>1637</ele>
        <time>2023-02-05T08:56:55Z</time>
      </trkpt>
      <trkpt lat="44.12304" lon="7.27052">
        <ele>1637.1</ele>
        <time>2023-02-05T08:56:56Z</time>
      </trkpt>
      <trkpt lat="44.12304" lon="7.27049">
        <ele>1637.1</ele>
        <time>2023-02-05T08:56:57Z</time>
      </trkpt>
      <trkpt lat="44.12305" lon="7.27048">
        <ele>1637.2</ele>
        <time>2023-02-05T08:56:58Z</time>
      </trkpt>
      <trkpt lat="44.12306" lon="7.27046">
        <ele>1637.3</ele>
        <time>2023-02-05T08:56:59Z</time>
      </trkpt>
      <trkpt lat="44.12307" lon="7.27045">
        <ele>1637.4</ele>
        <time>2023-02-05T08:57:00Z</time>
      </trkpt>
      <trkpt lat="44.12308" lon="7.27045">
        <ele>1637.4</ele>
        <time>2023-02-05T08:57:01Z</time>
      </trkpt>
      <trkpt lat="44.12309" lon="7.27046">
        <ele>1637.6</ele>
        <time>2023-02-05T08:57:02Z</time>
      </trkpt>
      <trkpt lat="44.1231" lon="7.27046">
        <ele>1637.6</ele>
        <time>2023-02-05T08:57:03Z</time>
      </trkpt>
      <trkpt lat="44.12311" lon="7.27046">
        <ele>1637.7</ele>
        <time>2023-02-05T08:57:04Z</time>
      </trkpt>
      <trkpt lat="44.12312" lon="7.27046">
        <ele>1637.7</ele>
        <time>2023-02-05T08:57:05Z</time>
      </trkpt>
      <trkpt lat="44.12313" lon="7.27045">
        <ele>1637.8</ele>
        <time>2023-02-05T08:57:06Z</time>
      </trkpt>
      <trkpt lat="44.12313" lon="7.27045">
        <ele>1637.9</ele>
        <time>2023-02-05T08:57:07Z</time>
      </trkpt>
      <trkpt lat="44.12314" lon="7.27044">
        <ele>1638</ele>
        <time>2023-02-05T08:57:08Z</time>
      </trkpt>
      <trkpt lat="44.12314" lon="7.27043">
        <ele>1638.2</ele>
        <time>2023-02-05T08:57:09Z</time>
      </trkpt>
      <trkpt lat="44.12315" lon="7.27043">
        <ele>1638.3</ele>
        <time>2023-02-05T08:57:10Z</time>
      </trkpt>
      <trkpt lat="44.12315" lon="7.27042">
        <ele>1638.4</ele>
        <time>2023-02-05T08:57:11Z</time>
      </trkpt>
      <trkpt lat="44.12316" lon="7.27043">
        <ele>1638.5</ele>
        <time>2023-02-05T08:57:12Z</time>
      </trkpt>
      <trkpt lat="44.12317" lon="7.27043">
        <ele>1638.5</ele>
        <time>2023-02-05T08:57:13Z</time>
      </trkpt>
      <trkpt lat="44.12317" lon="7.27043">
        <ele>1638.6</ele>
        <time>2023-02-05T08:57:14Z</time>
      </trkpt>
      <trkpt lat="44.12318" lon="7.27041">
        <ele>1638.7</ele>
        <time>2023-02-05T08:57:15Z</time>
      </trkpt>
      <trkpt lat="44.12319" lon="7.27041">
        <ele>1638.8</ele>
        <time>2023-02-05T08:57:16Z</time>
      </trkpt>
      <trkpt lat="44.12319" lon="7.27041">
        <ele>1638.9</ele>
        <time>2023-02-05T08:57:17Z</time>
      </trkpt>
      <trkpt lat="44.12318" lon="7.27039">
        <ele>1639</ele>
        <time>2023-02-05T08:57:18Z</time>
      </trkpt>
      <trkpt lat="44.12318" lon="7.27038">
        <ele>1639.1</ele>
        <time>2023-02-05T08:57:19Z</time>
      </trkpt>
      <trkpt lat="44.12319" lon="7.27034">
        <ele>1639</ele>
        <time>2023-02-05T08:57:20Z</time>
      </trkpt>
      <trkpt lat="44.12318" lon="7.27033">
        <ele>1639</ele>
        <time>2023-02-05T08:57:21Z</time>
      </trkpt>
      <trkpt lat="44.1232" lon="7.27031">
        <ele>1638.9</ele>
        <time>2023-02-05T08:57:22Z</time>
      </trkpt>
      <trkpt lat="44.12321" lon="7.27032">
        <ele>1639</ele>
        <time>2023-02-05T08:57:23Z</time>
      </trkpt>
      <trkpt lat="44.12322" lon="7.27031">
        <ele>1639.1</ele>
        <time>2023-02-05T08:57:24Z</time>
      </trkpt>
      <trkpt lat="44.12323" lon="7.2703">
        <ele>1639.2</ele>
        <time>2023-02-05T08:57:25Z</time>
      </trkpt>
      <trkpt lat="44.12324" lon="7.2703">
        <ele>1639.2</ele>
        <time>2023-02-05T08:57:26Z</time>
      </trkpt>
      <trkpt lat="44.12324" lon="7.27028">
        <ele>1639.4</ele>
        <time>2023-02-05T08:57:27Z</time>
      </trkpt>
      <trkpt lat="44.12324" lon="7.27027">
        <ele>1639.5</ele>
        <time>2023-02-05T08:57:28Z</time>
      </trkpt>
      <trkpt lat="44.12325" lon="7.27026">
        <ele>1639.6</ele>
        <time>2023-02-05T08:57:29Z</time>
      </trkpt>
      <trkpt lat="44.12325" lon="7.27025">
        <ele>1639.6</ele>
        <time>2023-02-05T08:57:30Z</time>
      </trkpt>
      <trkpt lat="44.12326" lon="7.27026">
        <ele>1639.6</ele>
        <time>2023-02-05T08:57:31Z</time>
      </trkpt>
      <trkpt lat="44.12326" lon="7.27025">
        <ele>1639.6</ele>
        <time>2023-02-05T08:57:32Z</time>
      </trkpt>
      <trkpt lat="44.12327" lon="7.27025">
        <ele>1639.7</ele>
        <time>2023-02-05T08:57:33Z</time>
      </trkpt>
      <trkpt lat="44.12327" lon="7.27026">
        <ele>1639.8</ele>
        <time>2023-02-05T08:57:34Z</time>
      </trkpt>
      <trkpt lat="44.12328" lon="7.27024">
        <ele>1639.8</ele>
        <time>2023-02-05T08:57:35Z</time>
      </trkpt>
      <trkpt lat="44.12328" lon="7.27023">
        <ele>1639.8</ele>
        <time>2023-02-05T08:57:36Z</time>
      </trkpt>
      <trkpt lat="44.12329" lon="7.27022">
        <ele>1639.8</ele>
        <time>2023-02-05T08:57:37Z</time>
      </trkpt>
      <trkpt lat="44.1233" lon="7.27022">
        <ele>1639.7</ele>
        <time>2023-02-05T08:57:38Z</time>
      </trkpt>
      <trkpt lat="44.12331" lon="7.27022">
        <ele>1639.7</ele>
        <time>2023-02-05T08:57:39Z</time>
      </trkpt>
      <trkpt lat="44.12331" lon="7.27021">
        <ele>1639.7</ele>
        <time>2023-02-05T08:57:40Z</time>
      </trkpt>
      <trkpt lat="44.12332" lon="7.27021">
        <ele>1639.8</ele>
        <time>2023-02-05T08:57:41Z</time>
      </trkpt>
      <trkpt lat="44.12332" lon="7.2702">
        <ele>1639.8</ele>
        <time>2023-02-05T08:57:42Z</time>
      </trkpt>
      <trkpt lat="44.12333" lon="7.27019">
        <ele>1639.9</ele>
        <time>2023-02-05T08:57:43Z</time>
      </trkpt>
      <trkpt lat="44.12333" lon="7.2702">
        <ele>1639.8</ele>
        <time>2023-02-05T08:57:44Z</time>
      </trkpt>
      <trkpt lat="44.12334" lon="7.27019">
        <ele>1639.9</ele>
        <time>2023-02-05T08:57:45Z</time>
      </trkpt>
      <trkpt lat="44.12334" lon="7.27018">
        <ele>1639.9</ele>
        <time>2023-02-05T08:57:46Z</time>
      </trkpt>
      <trkpt lat="44.12335" lon="7.27018">
        <ele>1640</ele>
        <time>2023-02-05T08:57:47Z</time>
      </trkpt>
      <trkpt lat="44.12335" lon="7.27016">
        <ele>1640.1</ele>
        <time>2023-02-05T08:57:48Z</time>
      </trkpt>
      <trkpt lat="44.12336" lon="7.27015">
        <ele>1640.1</ele>
        <time>2023-02-05T08:57:49Z</time>
      </trkpt>
      <trkpt lat="44.12336" lon="7.27013">
        <ele>1640.1</ele>
        <time>2023-02-05T08:57:50Z</time>
      </trkpt>
      <trkpt lat="44.12336" lon="7.27012">
        <ele>1640.2</ele>
        <time>2023-02-05T08:57:51Z</time>
      </trkpt>
      <trkpt lat="44.12336" lon="7.27009">
        <ele>1640.3</ele>
        <time>2023-02-05T08:57:52Z</time>
      </trkpt>
      <trkpt lat="44.12337" lon="7.27009">
        <ele>1640.3</ele>
        <time>2023-02-05T08:57:53Z</time>
      </trkpt>
      <trkpt lat="44.12337" lon="7.27008">
        <ele>1640.4</ele>
        <time>2023-02-05T08:57:54Z</time>
      </trkpt>
      <trkpt lat="44.12337" lon="7.27008">
        <ele>1640.4</ele>
        <time>2023-02-05T08:57:55Z</time>
      </trkpt>
      <trkpt lat="44.12336" lon="7.27005">
        <ele>1640.4</ele>
        <time>2023-02-05T08:57:56Z</time>
      </trkpt>
      <trkpt lat="44.12336" lon="7.27002">
        <ele>1640.6</ele>
        <time>2023-02-05T08:57:57Z</time>
      </trkpt>
      <trkpt lat="44.12335" lon="7.26999">
        <ele>1640.6</ele>
        <time>2023-02-05T08:57:58Z</time>
      </trkpt>
      <trkpt lat="44.12335" lon="7.27001">
        <ele>1640.6</ele>
        <time>2023-02-05T08:57:59Z</time>
      </trkpt>
      <trkpt lat="44.12336" lon="7.27">
        <ele>1640.6</ele>
        <time>2023-02-05T08:58:00Z</time>
      </trkpt>
      <trkpt lat="44.12335" lon="7.26999">
        <ele>1640.7</ele>
        <time>2023-02-05T08:58:01Z</time>
      </trkpt>
      <trkpt lat="44.12335" lon="7.26999">
        <ele>1640.8</ele>
        <time>2023-02-05T08:58:02Z</time>
      </trkpt>
      <trkpt lat="44.12336" lon="7.26998">
        <ele>1640.8</ele>
        <time>2023-02-05T08:58:03Z</time>
      </trkpt>
      <trkpt lat="44.12337" lon="7.26997">
        <ele>1640.9</ele>
        <time>2023-02-05T08:58:04Z</time>
      </trkpt>
      <trkpt lat="44.12338" lon="7.26997">
        <ele>1640.9</ele>
        <time>2023-02-05T08:58:05Z</time>
      </trkpt>
      <trkpt lat="44.12338" lon="7.26997">
        <ele>1641</ele>
        <time>2023-02-05T08:58:06Z</time>
      </trkpt>
      <trkpt lat="44.12339" lon="7.26997">
        <ele>1641</ele>
        <time>2023-02-05T08:58:07Z</time>
      </trkpt>
      <trkpt lat="44.12339" lon="7.26996">
        <ele>1641.1</ele>
        <time>2023-02-05T08:58:08Z</time>
      </trkpt>
      <trkpt lat="44.12339" lon="7.26997">
        <ele>1641.1</ele>
        <time>2023-02-05T08:58:09Z</time>
      </trkpt>
      <trkpt lat="44.1234" lon="7.26997">
        <ele>1641.2</ele>
        <time>2023-02-05T08:58:10Z</time>
      </trkpt>
      <trkpt lat="44.1234" lon="7.26997">
        <ele>1641.1</ele>
        <time>2023-02-05T08:58:11Z</time>
      </trkpt>
      <trkpt lat="44.1234" lon="7.26997">
        <ele>1641.1</ele>
        <time>2023-02-05T08:58:12Z</time>
      </trkpt>
      <trkpt lat="44.1234" lon="7.26996">
        <ele>1641.1</ele>
        <time>2023-02-05T08:58:13Z</time>
      </trkpt>
      <trkpt lat="44.1234" lon="7.26995">
        <ele>1641</ele>
        <time>2023-02-05T08:58:14Z</time>
      </trkpt>
      <trkpt lat="44.1234" lon="7.26994">
        <ele>1640.9</ele>
        <time>2023-02-05T08:58:15Z</time>
      </trkpt>
      <trkpt lat="44.12339" lon="7.26993">
        <ele>1640.8</ele>
        <time>2023-02-05T08:58:16Z</time>
      </trkpt>
      <trkpt lat="44.1234" lon="7.26993">
        <ele>1640.8</ele>
        <time>2023-02-05T08:58:17Z</time>
      </trkpt>
      <trkpt lat="44.12341" lon="7.26992">
        <ele>1640.8</ele>
        <time>2023-02-05T08:58:18Z</time>
      </trkpt>
      <trkpt lat="44.12341" lon="7.26992">
        <ele>1641</ele>
        <time>2023-02-05T08:58:19Z</time>
      </trkpt>
      <trkpt lat="44.12342" lon="7.26992">
        <ele>1641</ele>
        <time>2023-02-05T08:58:20Z</time>
      </trkpt>
      <trkpt lat="44.12343" lon="7.26991">
        <ele>1641.1</ele>
        <time>2023-02-05T08:58:21Z</time>
      </trkpt>
      <trkpt lat="44.12343" lon="7.2699">
        <ele>1641.1</ele>
        <time>2023-02-05T08:58:22Z</time>
      </trkpt>
      <trkpt lat="44.12344" lon="7.2699">
        <ele>1641.2</ele>
        <time>2023-02-05T08:58:23Z</time>
      </trkpt>
      <trkpt lat="44.12345" lon="7.2699">
        <ele>1641.2</ele>
        <time>2023-02-05T08:58:24Z</time>
      </trkpt>
      <trkpt lat="44.12345" lon="7.26989">
        <ele>1641.2</ele>
        <time>2023-02-05T08:58:25Z</time>
      </trkpt>
      <trkpt lat="44.12346" lon="7.26989">
        <ele>1641.3</ele>
        <time>2023-02-05T08:58:26Z</time>
      </trkpt>
      <trkpt lat="44.12346" lon="7.26988">
        <ele>1641.3</ele>
        <time>2023-02-05T08:58:27Z</time>
      </trkpt>
      <trkpt lat="44.12347" lon="7.26988">
        <ele>1641.4</ele>
        <time>2023-02-05T08:58:28Z</time>
      </trkpt>
      <trkpt lat="44.12348" lon="7.26987">
        <ele>1641.4</ele>
        <time>2023-02-05T08:58:29Z</time>
      </trkpt>
      <trkpt lat="44.12348" lon="7.26986">
        <ele>1641.5</ele>
        <time>2023-02-05T08:58:30Z</time>
      </trkpt>
      <trkpt lat="44.12348" lon="7.26986">
        <ele>1641.6</ele>
        <time>2023-02-05T08:58:31Z</time>
      </trkpt>
      <trkpt lat="44.12349" lon="7.26985">
        <ele>1641.6</ele>
        <time>2023-02-05T08:58:32Z</time>
      </trkpt>
      <trkpt lat="44.12349" lon="7.26985">
        <ele>1641.7</ele>
        <time>2023-02-05T08:58:33Z</time>
      </trkpt>
      <trkpt lat="44.1235" lon="7.26984">
        <ele>1641.8</ele>
        <time>2023-02-05T08:58:34Z</time>
      </trkpt>
      <trkpt lat="44.12351" lon="7.26985">
        <ele>1641.9</ele>
        <time>2023-02-05T08:58:35Z</time>
      </trkpt>
      <trkpt lat="44.12352" lon="7.26985">
        <ele>1642</ele>
        <time>2023-02-05T08:58:36Z</time>
      </trkpt>
      <trkpt lat="44.12352" lon="7.26985">
        <ele>1642.1</ele>
        <time>2023-02-05T08:58:37Z</time>
      </trkpt>
      <trkpt lat="44.12353" lon="7.26984">
        <ele>1642.2</ele>
        <time>2023-02-05T08:58:38Z</time>
      </trkpt>
      <trkpt lat="44.12353" lon="7.26983">
        <ele>1642.3</ele>
        <time>2023-02-05T08:58:39Z</time>
      </trkpt>
      <trkpt lat="44.12353" lon="7.26982">
        <ele>1642.4</ele>
        <time>2023-02-05T08:58:40Z</time>
      </trkpt>
      <trkpt lat="44.12353" lon="7.26981">
        <ele>1642.5</ele>
        <time>2023-02-05T08:58:41Z</time>
      </trkpt>
      <trkpt lat="44.12353" lon="7.26981">
        <ele>1642.5</ele>
        <time>2023-02-05T08:58:42Z</time>
      </trkpt>
      <trkpt lat="44.12353" lon="7.26981">
        <ele>1642.5</ele>
        <time>2023-02-05T08:58:43Z</time>
      </trkpt>
      <trkpt lat="44.12354" lon="7.2698">
        <ele>1642.6</ele>
        <time>2023-02-05T08:58:44Z</time>
      </trkpt>
      <trkpt lat="44.12354" lon="7.26979">
        <ele>1642.6</ele>
        <time>2023-02-05T08:58:45Z</time>
      </trkpt>
      <trkpt lat="44.12353" lon="7.26978">
        <ele>1642.5</ele>
        <time>2023-02-05T08:58:46Z</time>
      </trkpt>
      <trkpt lat="44.12354" lon="7.26978">
        <ele>1642.6</ele>
        <time>2023-02-05T08:58:47Z</time>
      </trkpt>
      <trkpt lat="44.12354" lon="7.26978">
        <ele>1642.6</ele>
        <time>2023-02-05T08:58:48Z</time>
      </trkpt>
      <trkpt lat="44.12354" lon="7.26977">
        <ele>1642.7</ele>
        <time>2023-02-05T08:58:49Z</time>
      </trkpt>
      <trkpt lat="44.12354" lon="7.26976">
        <ele>1642.7</ele>
        <time>2023-02-05T08:58:50Z</time>
      </trkpt>
      <trkpt lat="44.12353" lon="7.26975">
        <ele>1642.7</ele>
        <time>2023-02-05T08:58:51Z</time>
      </trkpt>
      <trkpt lat="44.12352" lon="7.26975">
        <ele>1642.8</ele>
        <time>2023-02-05T08:58:52Z</time>
      </trkpt>
      <trkpt lat="44.12351" lon="7.26974">
        <ele>1642.9</ele>
        <time>2023-02-05T08:58:53Z</time>
      </trkpt>
      <trkpt lat="44.12351" lon="7.26973">
        <ele>1642.8</ele>
        <time>2023-02-05T08:58:54Z</time>
      </trkpt>
      <trkpt lat="44.1235" lon="7.26972">
        <ele>1642.9</ele>
        <time>2023-02-05T08:58:55Z</time>
      </trkpt>
      <trkpt lat="44.12349" lon="7.26972">
        <ele>1642.8</ele>
        <time>2023-02-05T08:58:56Z</time>
      </trkpt>
      <trkpt lat="44.12348" lon="7.26972">
        <ele>1642.7</ele>
        <time>2023-02-05T08:58:57Z</time>
      </trkpt>
      <trkpt lat="44.12348" lon="7.26973">
        <ele>1642.9</ele>
        <time>2023-02-05T08:58:58Z</time>
      </trkpt>
      <trkpt lat="44.12349" lon="7.26973">
        <ele>1642.9</ele>
        <time>2023-02-05T08:58:59Z</time>
      </trkpt>
      <trkpt lat="44.12352" lon="7.26973">
        <ele>1642.8</ele>
        <time>2023-02-05T08:59:00Z</time>
      </trkpt>
      <trkpt lat="44.12351" lon="7.26972">
        <ele>1642.7</ele>
        <time>2023-02-05T08:59:01Z</time>
      </trkpt>
      <trkpt lat="44.12351" lon="7.2697">
        <ele>1642.8</ele>
        <time>2023-02-05T08:59:02Z</time>
      </trkpt>
      <trkpt lat="44.12351" lon="7.2697">
        <ele>1642.9</ele>
        <time>2023-02-05T08:59:03Z</time>
      </trkpt>
      <trkpt lat="44.12351" lon="7.26969">
        <ele>1643</ele>
        <time>2023-02-05T08:59:04Z</time>
      </trkpt>
      <trkpt lat="44.12351" lon="7.26968">
        <ele>1643</ele>
        <time>2023-02-05T08:59:05Z</time>
      </trkpt>
      <trkpt lat="44.12351" lon="7.26967">
        <ele>1642.9</ele>
        <time>2023-02-05T08:59:06Z</time>
      </trkpt>
      <trkpt lat="44.12351" lon="7.26967">
        <ele>1642.9</ele>
        <time>2023-02-05T08:59:07Z</time>
      </trkpt>
      <trkpt lat="44.1235" lon="7.26965">
        <ele>1642.9</ele>
        <time>2023-02-05T08:59:08Z</time>
      </trkpt>
      <trkpt lat="44.12351" lon="7.26964">
        <ele>1642.8</ele>
        <time>2023-02-05T08:59:09Z</time>
      </trkpt>
      <trkpt lat="44.12351" lon="7.26963">
        <ele>1642.8</ele>
        <time>2023-02-05T08:59:10Z</time>
      </trkpt>
      <trkpt lat="44.1235" lon="7.26963">
        <ele>1642.9</ele>
        <time>2023-02-05T08:59:11Z</time>
      </trkpt>
      <trkpt lat="44.1235" lon="7.26962">
        <ele>1642.9</ele>
        <time>2023-02-05T08:59:12Z</time>
      </trkpt>
      <trkpt lat="44.1235" lon="7.26961">
        <ele>1643.1</ele>
        <time>2023-02-05T08:59:13Z</time>
      </trkpt>
      <trkpt lat="44.1235" lon="7.2696">
        <ele>1643.2</ele>
        <time>2023-02-05T08:59:14Z</time>
      </trkpt>
      <trkpt lat="44.12349" lon="7.26958">
        <ele>1643.2</ele>
        <time>2023-02-05T08:59:15Z</time>
      </trkpt>
      <trkpt lat="44.12349" lon="7.26957">
        <ele>1643.3</ele>
        <time>2023-02-05T08:59:16Z</time>
      </trkpt>
      <trkpt lat="44.12348" lon="7.26956">
        <ele>1643.4</ele>
        <time>2023-02-05T08:59:17Z</time>
      </trkpt>
      <trkpt lat="44.12349" lon="7.26955">
        <ele>1643.4</ele>
        <time>2023-02-05T08:59:18Z</time>
      </trkpt>
      <trkpt lat="44.1235" lon="7.26955">
        <ele>1643.5</ele>
        <time>2023-02-05T08:59:19Z</time>
      </trkpt>
      <trkpt lat="44.1235" lon="7.26954">
        <ele>1643.5</ele>
        <time>2023-02-05T08:59:20Z</time>
      </trkpt>
      <trkpt lat="44.12351" lon="7.26953">
        <ele>1643.6</ele>
        <time>2023-02-05T08:59:21Z</time>
      </trkpt>
      <trkpt lat="44.12351" lon="7.26952">
        <ele>1643.6</ele>
        <time>2023-02-05T08:59:22Z</time>
      </trkpt>
      <trkpt lat="44.12352" lon="7.26952">
        <ele>1643.6</ele>
        <time>2023-02-05T08:59:23Z</time>
      </trkpt>
      <trkpt lat="44.12352" lon="7.26951">
        <ele>1643.7</ele>
        <time>2023-02-05T08:59:24Z</time>
      </trkpt>
      <trkpt lat="44.12352" lon="7.26951">
        <ele>1643.7</ele>
        <time>2023-02-05T08:59:25Z</time>
      </trkpt>
      <trkpt lat="44.12353" lon="7.2695">
        <ele>1643.9</ele>
        <time>2023-02-05T08:59:26Z</time>
      </trkpt>
      <trkpt lat="44.12354" lon="7.2695">
        <ele>1644</ele>
        <time>2023-02-05T08:59:27Z</time>
      </trkpt>
      <trkpt lat="44.12354" lon="7.26949">
        <ele>1644.1</ele>
        <time>2023-02-05T08:59:28Z</time>
      </trkpt>
      <trkpt lat="44.12355" lon="7.26948">
        <ele>1644.2</ele>
        <time>2023-02-05T08:59:29Z</time>
      </trkpt>
      <trkpt lat="44.12355" lon="7.26948">
        <ele>1644.3</ele>
        <time>2023-02-05T08:59:30Z</time>
      </trkpt>
      <trkpt lat="44.12356" lon="7.26947">
        <ele>1644.4</ele>
        <time>2023-02-05T08:59:31Z</time>
      </trkpt>
      <trkpt lat="44.12356" lon="7.26947">
        <ele>1644.5</ele>
        <time>2023-02-05T08:59:32Z</time>
      </trkpt>
      <trkpt lat="44.12356" lon="7.26948">
        <ele>1644.6</ele>
        <time>2023-02-05T08:59:33Z</time>
      </trkpt>
      <trkpt lat="44.12357" lon="7.26947">
        <ele>1644.6</ele>
        <time>2023-02-05T08:59:34Z</time>
      </trkpt>
      <trkpt lat="44.12357" lon="7.26944">
        <ele>1644.6</ele>
        <time>2023-02-05T08:59:35Z</time>
      </trkpt>
      <trkpt lat="44.12358" lon="7.26943">
        <ele>1644.9</ele>
        <time>2023-02-05T08:59:36Z</time>
      </trkpt>
      <trkpt lat="44.12358" lon="7.26942">
        <ele>1645</ele>
        <time>2023-02-05T08:59:37Z</time>
      </trkpt>
      <trkpt lat="44.12359" lon="7.26941">
        <ele>1645.1</ele>
        <time>2023-02-05T08:59:38Z</time>
      </trkpt>
      <trkpt lat="44.12359" lon="7.2694">
        <ele>1645.3</ele>
        <time>2023-02-05T08:59:39Z</time>
      </trkpt>
      <trkpt lat="44.1236" lon="7.26939">
        <ele>1645.3</ele>
        <time>2023-02-05T08:59:40Z</time>
      </trkpt>
      <trkpt lat="44.12359" lon="7.26938">
        <ele>1645.3</ele>
        <time>2023-02-05T08:59:41Z</time>
      </trkpt>
      <trkpt lat="44.1236" lon="7.26938">
        <ele>1645.3</ele>
        <time>2023-02-05T08:59:42Z</time>
      </trkpt>
      <trkpt lat="44.12361" lon="7.26937">
        <ele>1645.3</ele>
        <time>2023-02-05T08:59:43Z</time>
      </trkpt>
      <trkpt lat="44.12361" lon="7.26936">
        <ele>1645.3</ele>
        <time>2023-02-05T08:59:44Z</time>
      </trkpt>
      <trkpt lat="44.1236" lon="7.26935">
        <ele>1645.4</ele>
        <time>2023-02-05T08:59:45Z</time>
      </trkpt>
      <trkpt lat="44.1236" lon="7.26935">
        <ele>1645.4</ele>
        <time>2023-02-05T08:59:46Z</time>
      </trkpt>
      <trkpt lat="44.1236" lon="7.26935">
        <ele>1645.3</ele>
        <time>2023-02-05T08:59:47Z</time>
      </trkpt>
      <trkpt lat="44.12361" lon="7.26934">
        <ele>1645.3</ele>
        <time>2023-02-05T08:59:48Z</time>
      </trkpt>
      <trkpt lat="44.12361" lon="7.26933">
        <ele>1645.3</ele>
        <time>2023-02-05T08:59:49Z</time>
      </trkpt>
      <trkpt lat="44.12361" lon="7.26932">
        <ele>1645.4</ele>
        <time>2023-02-05T08:59:50Z</time>
      </trkpt>
      <trkpt lat="44.12361" lon="7.26932">
        <ele>1645.5</ele>
        <time>2023-02-05T08:59:51Z</time>
      </trkpt>
      <trkpt lat="44.12362" lon="7.2693">
        <ele>1645.6</ele>
        <time>2023-02-05T08:59:52Z</time>
      </trkpt>
      <trkpt lat="44.12363" lon="7.26929">
        <ele>1645.7</ele>
        <time>2023-02-05T08:59:53Z</time>
      </trkpt>
      <trkpt lat="44.12363" lon="7.2693">
        <ele>1645.7</ele>
        <time>2023-02-05T08:59:54Z</time>
      </trkpt>
      <trkpt lat="44.12364" lon="7.26929">
        <ele>1645.7</ele>
        <time>2023-02-05T08:59:55Z</time>
      </trkpt>
      <trkpt lat="44.12365" lon="7.2693">
        <ele>1645.7</ele>
        <time>2023-02-05T08:59:56Z</time>
      </trkpt>
      <trkpt lat="44.12366" lon="7.26929">
        <ele>1645.6</ele>
        <time>2023-02-05T08:59:57Z</time>
      </trkpt>
      <trkpt lat="44.12366" lon="7.26927">
        <ele>1645.6</ele>
        <time>2023-02-05T08:59:58Z</time>
      </trkpt>
      <trkpt lat="44.12366" lon="7.26927">
        <ele>1645.8</ele>
        <time>2023-02-05T08:59:59Z</time>
      </trkpt>
      <trkpt lat="44.12368" lon="7.26925">
        <ele>1645.9</ele>
        <time>2023-02-05T09:00:00Z</time>
      </trkpt>
      <trkpt lat="44.1237" lon="7.26925">
        <ele>1645.9</ele>
        <time>2023-02-05T09:00:01Z</time>
      </trkpt>
      <trkpt lat="44.1237" lon="7.26924">
        <ele>1646.1</ele>
        <time>2023-02-05T09:00:02Z</time>
      </trkpt>
      <trkpt lat="44.1237" lon="7.26923">
        <ele>1646.1</ele>
        <time>2023-02-05T09:00:03Z</time>
      </trkpt>
      <trkpt lat="44.12372" lon="7.26923">
        <ele>1646.2</ele>
        <time>2023-02-05T09:00:04Z</time>
      </trkpt>
      <trkpt lat="44.12373" lon="7.26922">
        <ele>1646.2</ele>
        <time>2023-02-05T09:00:05Z</time>
      </trkpt>
      <trkpt lat="44.12375" lon="7.26922">
        <ele>1646.3</ele>
        <time>2023-02-05T09:00:06Z</time>
      </trkpt>
      <trkpt lat="44.12376" lon="7.26921">
        <ele>1646.4</ele>
        <time>2023-02-05T09:00:07Z</time>
      </trkpt>
      <trkpt lat="44.12378" lon="7.26921">
        <ele>1646.5</ele>
        <time>2023-02-05T09:00:08Z</time>
      </trkpt>
      <trkpt lat="44.12378" lon="7.2692">
        <ele>1646.6</ele>
        <time>2023-02-05T09:00:09Z</time>
      </trkpt>
      <trkpt lat="44.1238" lon="7.2692">
        <ele>1646.7</ele>
        <time>2023-02-05T09:00:10Z</time>
      </trkpt>
      <trkpt lat="44.12382" lon="7.26921">
        <ele>1646.8</ele>
        <time>2023-02-05T09:00:11Z</time>
      </trkpt>
      <trkpt lat="44.12383" lon="7.26921">
        <ele>1646.8</ele>
        <time>2023-02-05T09:00:12Z</time>
      </trkpt>
      <trkpt lat="44.12384" lon="7.26921">
        <ele>1646.7</ele>
        <time>2023-02-05T09:00:13Z</time>
      </trkpt>
      <trkpt lat="44.12385" lon="7.2692">
        <ele>1646.9</ele>
        <time>2023-02-05T09:00:14Z</time>
      </trkpt>
      <trkpt lat="44.12387" lon="7.26921">
        <ele>1647</ele>
        <time>2023-02-05T09:00:15Z</time>
      </trkpt>
      <trkpt lat="44.12387" lon="7.26921">
        <ele>1647.1</ele>
        <time>2023-02-05T09:00:16Z</time>
      </trkpt>
      <trkpt lat="44.12389" lon="7.26921">
        <ele>1647.2</ele>
        <time>2023-02-05T09:00:17Z</time>
      </trkpt>
      <trkpt lat="44.1239" lon="7.2692">
        <ele>1647.3</ele>
        <time>2023-02-05T09:00:18Z</time>
      </trkpt>
      <trkpt lat="44.12391" lon="7.2692">
        <ele>1647.3</ele>
        <time>2023-02-05T09:00:19Z</time>
      </trkpt>
      <trkpt lat="44.12392" lon="7.2692">
        <ele>1647.4</ele>
        <time>2023-02-05T09:00:20Z</time>
      </trkpt>
      <trkpt lat="44.12392" lon="7.2692">
        <ele>1647.4</ele>
        <time>2023-02-05T09:00:21Z</time>
      </trkpt>
      <trkpt lat="44.12393" lon="7.26919">
        <ele>1647.4</ele>
        <time>2023-02-05T09:00:22Z</time>
      </trkpt>
      <trkpt lat="44.12393" lon="7.26918">
        <ele>1647.6</ele>
        <time>2023-02-05T09:00:23Z</time>
      </trkpt>
      <trkpt lat="44.12394" lon="7.26917">
        <ele>1647.5</ele>
        <time>2023-02-05T09:00:24Z</time>
      </trkpt>
      <trkpt lat="44.12394" lon="7.26916">
        <ele>1647.6</ele>
        <time>2023-02-05T09:00:25Z</time>
      </trkpt>
      <trkpt lat="44.12395" lon="7.26914">
        <ele>1647.6</ele>
        <time>2023-02-05T09:00:26Z</time>
      </trkpt>
      <trkpt lat="44.12396" lon="7.26914">
        <ele>1647.7</ele>
        <time>2023-02-05T09:00:27Z</time>
      </trkpt>
      <trkpt lat="44.12396" lon="7.26914">
        <ele>1647.7</ele>
        <time>2023-02-05T09:00:28Z</time>
      </trkpt>
      <trkpt lat="44.12396" lon="7.26913">
        <ele>1647.9</ele>
        <time>2023-02-05T09:00:29Z</time>
      </trkpt>
      <trkpt lat="44.12397" lon="7.26912">
        <ele>1648</ele>
        <time>2023-02-05T09:00:30Z</time>
      </trkpt>
      <trkpt lat="44.12397" lon="7.2691">
        <ele>1648.1</ele>
        <time>2023-02-05T09:00:31Z</time>
      </trkpt>
      <trkpt lat="44.12398" lon="7.26909">
        <ele>1648.1</ele>
        <time>2023-02-05T09:00:32Z</time>
      </trkpt>
      <trkpt lat="44.12398" lon="7.26907">
        <ele>1648.1</ele>
        <time>2023-02-05T09:00:33Z</time>
      </trkpt>
      <trkpt lat="44.12399" lon="7.26907">
        <ele>1648.1</ele>
        <time>2023-02-05T09:00:34Z</time>
      </trkpt>
      <trkpt lat="44.124" lon="7.26906">
        <ele>1648.2</ele>
        <time>2023-02-05T09:00:35Z</time>
      </trkpt>
      <trkpt lat="44.12401" lon="7.26906">
        <ele>1648.4</ele>
        <time>2023-02-05T09:00:36Z</time>
      </trkpt>
      <trkpt lat="44.12402" lon="7.26905">
        <ele>1648.5</ele>
        <time>2023-02-05T09:00:37Z</time>
      </trkpt>
      <trkpt lat="44.12403" lon="7.26904">
        <ele>1648.6</ele>
        <time>2023-02-05T09:00:38Z</time>
      </trkpt>
      <trkpt lat="44.12404" lon="7.26902">
        <ele>1648.7</ele>
        <time>2023-02-05T09:00:39Z</time>
      </trkpt>
      <trkpt lat="44.12405" lon="7.26901">
        <ele>1648.8</ele>
        <time>2023-02-05T09:00:40Z</time>
      </trkpt>
      <trkpt lat="44.12406" lon="7.26899">
        <ele>1648.8</ele>
        <time>2023-02-05T09:00:41Z</time>
      </trkpt>
      <trkpt lat="44.12407" lon="7.26896">
        <ele>1648.8</ele>
        <time>2023-02-05T09:00:42Z</time>
      </trkpt>
      <trkpt lat="44.12408" lon="7.26895">
        <ele>1648.9</ele>
        <time>2023-02-05T09:00:43Z</time>
      </trkpt>
      <trkpt lat="44.1241" lon="7.26893">
        <ele>1648.9</ele>
        <time>2023-02-05T09:00:44Z</time>
      </trkpt>
      <trkpt lat="44.12411" lon="7.26889">
        <ele>1648.9</ele>
        <time>2023-02-05T09:00:45Z</time>
      </trkpt>
      <trkpt lat="44.12411" lon="7.26888">
        <ele>1649</ele>
        <time>2023-02-05T09:00:46Z</time>
      </trkpt>
      <trkpt lat="44.12411" lon="7.26887">
        <ele>1649</ele>
        <time>2023-02-05T09:00:47Z</time>
      </trkpt>
      <trkpt lat="44.12412" lon="7.26885">
        <ele>1649.1</ele>
        <time>2023-02-05T09:00:48Z</time>
      </trkpt>
      <trkpt lat="44.12412" lon="7.26884">
        <ele>1649.3</ele>
        <time>2023-02-05T09:00:49Z</time>
      </trkpt>
      <trkpt lat="44.12413" lon="7.26883">
        <ele>1649.3</ele>
        <time>2023-02-05T09:00:50Z</time>
      </trkpt>
      <trkpt lat="44.12412" lon="7.26881">
        <ele>1649.3</ele>
        <time>2023-02-05T09:00:51Z</time>
      </trkpt>
      <trkpt lat="44.12412" lon="7.2688">
        <ele>1649.5</ele>
        <time>2023-02-05T09:00:52Z</time>
      </trkpt>
      <trkpt lat="44.12413" lon="7.2688">
        <ele>1649.6</ele>
        <time>2023-02-05T09:00:53Z</time>
      </trkpt>
      <trkpt lat="44.12413" lon="7.26879">
        <ele>1649.5</ele>
        <time>2023-02-05T09:00:54Z</time>
      </trkpt>
      <trkpt lat="44.12414" lon="7.26877">
        <ele>1649.6</ele>
        <time>2023-02-05T09:00:55Z</time>
      </trkpt>
      <trkpt lat="44.12415" lon="7.26876">
        <ele>1649.6</ele>
        <time>2023-02-05T09:00:56Z</time>
      </trkpt>
      <trkpt lat="44.12418" lon="7.26875">
        <ele>1649.6</ele>
        <time>2023-02-05T09:00:57Z</time>
      </trkpt>
      <trkpt lat="44.12419" lon="7.26875">
        <ele>1649.7</ele>
        <time>2023-02-05T09:00:58Z</time>
      </trkpt>
      <trkpt lat="44.1242" lon="7.26873">
        <ele>1649.7</ele>
        <time>2023-02-05T09:00:59Z</time>
      </trkpt>
      <trkpt lat="44.12419" lon="7.26872">
        <ele>1649.8</ele>
        <time>2023-02-05T09:01:00Z</time>
      </trkpt>
      <trkpt lat="44.12419" lon="7.26871">
        <ele>1649.8</ele>
        <time>2023-02-05T09:01:01Z</time>
      </trkpt>
      <trkpt lat="44.12418" lon="7.26869">
        <ele>1649.9</ele>
        <time>2023-02-05T09:01:02Z</time>
      </trkpt>
      <trkpt lat="44.12417" lon="7.26867">
        <ele>1650</ele>
        <time>2023-02-05T09:01:03Z</time>
      </trkpt>
      <trkpt lat="44.12417" lon="7.26866">
        <ele>1650</ele>
        <time>2023-02-05T09:01:04Z</time>
      </trkpt>
      <trkpt lat="44.12418" lon="7.26864">
        <ele>1650</ele>
        <time>2023-02-05T09:01:05Z</time>
      </trkpt>
      <trkpt lat="44.12418" lon="7.26863">
        <ele>1650.1</ele>
        <time>2023-02-05T09:01:06Z</time>
      </trkpt>
      <trkpt lat="44.12417" lon="7.26862">
        <ele>1650.1</ele>
        <time>2023-02-05T09:01:07Z</time>
      </trkpt>
      <trkpt lat="44.12417" lon="7.26861">
        <ele>1650.3</ele>
        <time>2023-02-05T09:01:08Z</time>
      </trkpt>
      <trkpt lat="44.12416" lon="7.2686">
        <ele>1650.5</ele>
        <time>2023-02-05T09:01:09Z</time>
      </trkpt>
      <trkpt lat="44.12416" lon="7.26858">
        <ele>1650.6</ele>
        <time>2023-02-05T09:01:10Z</time>
      </trkpt>
      <trkpt lat="44.12414" lon="7.26856">
        <ele>1650.7</ele>
        <time>2023-02-05T09:01:11Z</time>
      </trkpt>
      <trkpt lat="44.12414" lon="7.26855">
        <ele>1650.8</ele>
        <time>2023-02-05T09:01:12Z</time>
      </trkpt>
      <trkpt lat="44.12415" lon="7.26854">
        <ele>1650.9</ele>
        <time>2023-02-05T09:01:13Z</time>
      </trkpt>
      <trkpt lat="44.12413" lon="7.26853">
        <ele>1651.1</ele>
        <time>2023-02-05T09:01:14Z</time>
      </trkpt>
      <trkpt lat="44.12413" lon="7.26852">
        <ele>1651.1</ele>
        <time>2023-02-05T09:01:15Z</time>
      </trkpt>
      <trkpt lat="44.1241" lon="7.26852">
        <ele>1651.2</ele>
        <time>2023-02-05T09:01:16Z</time>
      </trkpt>
      <trkpt lat="44.1241" lon="7.26851">
        <ele>1651.3</ele>
        <time>2023-02-05T09:01:17Z</time>
      </trkpt>
      <trkpt lat="44.12409" lon="7.2685">
        <ele>1651.4</ele>
        <time>2023-02-05T09:01:18Z</time>
      </trkpt>
      <trkpt lat="44.12408" lon="7.26849">
        <ele>1651.4</ele>
        <time>2023-02-05T09:01:19Z</time>
      </trkpt>
      <trkpt lat="44.12408" lon="7.26848">
        <ele>1651.5</ele>
        <time>2023-02-05T09:01:20Z</time>
      </trkpt>
      <trkpt lat="44.12407" lon="7.26847">
        <ele>1651.5</ele>
        <time>2023-02-05T09:01:21Z</time>
      </trkpt>
      <trkpt lat="44.12407" lon="7.26846">
        <ele>1651.5</ele>
        <time>2023-02-05T09:01:22Z</time>
      </trkpt>
      <trkpt lat="44.12408" lon="7.26845">
        <ele>1651.5</ele>
        <time>2023-02-05T09:01:23Z</time>
      </trkpt>
      <trkpt lat="44.12407" lon="7.26843">
        <ele>1651.6</ele>
        <time>2023-02-05T09:01:24Z</time>
      </trkpt>
      <trkpt lat="44.12408" lon="7.26842">
        <ele>1651.6</ele>
        <time>2023-02-05T09:01:25Z</time>
      </trkpt>
      <trkpt lat="44.12408" lon="7.26842">
        <ele>1651.6</ele>
        <time>2023-02-05T09:01:26Z</time>
      </trkpt>
      <trkpt lat="44.12408" lon="7.2684">
        <ele>1651.7</ele>
        <time>2023-02-05T09:01:27Z</time>
      </trkpt>
      <trkpt lat="44.12408" lon="7.26839">
        <ele>1651.8</ele>
        <time>2023-02-05T09:01:28Z</time>
      </trkpt>
      <trkpt lat="44.12407" lon="7.26838">
        <ele>1651.9</ele>
        <time>2023-02-05T09:01:29Z</time>
      </trkpt>
      <trkpt lat="44.12407" lon="7.26837">
        <ele>1652</ele>
        <time>2023-02-05T09:01:30Z</time>
      </trkpt>
      <trkpt lat="44.12406" lon="7.26837">
        <ele>1652</ele>
        <time>2023-02-05T09:01:31Z</time>
      </trkpt>
      <trkpt lat="44.12405" lon="7.26835">
        <ele>1652.1</ele>
        <time>2023-02-05T09:01:32Z</time>
      </trkpt>
      <trkpt lat="44.12405" lon="7.26835">
        <ele>1652.1</ele>
        <time>2023-02-05T09:01:33Z</time>
      </trkpt>
      <trkpt lat="44.12405" lon="7.26834">
        <ele>1652.2</ele>
        <time>2023-02-05T09:01:34Z</time>
      </trkpt>
      <trkpt lat="44.12405" lon="7.26833">
        <ele>1652.2</ele>
        <time>2023-02-05T09:01:35Z</time>
      </trkpt>
      <trkpt lat="44.12407" lon="7.26834">
        <ele>1652.4</ele>
        <time>2023-02-05T09:01:36Z</time>
      </trkpt>
      <trkpt lat="44.12408" lon="7.26832">
        <ele>1652.5</ele>
        <time>2023-02-05T09:01:37Z</time>
      </trkpt>
      <trkpt lat="44.12407" lon="7.2683">
        <ele>1652.6</ele>
        <time>2023-02-05T09:01:38Z</time>
      </trkpt>
      <trkpt lat="44.12404" lon="7.26829">
        <ele>1652.7</ele>
        <time>2023-02-05T09:01:39Z</time>
      </trkpt>
      <trkpt lat="44.12405" lon="7.26828">
        <ele>1652.8</ele>
        <time>2023-02-05T09:01:40Z</time>
      </trkpt>
      <trkpt lat="44.12405" lon="7.26826">
        <ele>1652.8</ele>
        <time>2023-02-05T09:01:41Z</time>
      </trkpt>
      <trkpt lat="44.12405" lon="7.26825">
        <ele>1652.9</ele>
        <time>2023-02-05T09:01:42Z</time>
      </trkpt>
      <trkpt lat="44.12405" lon="7.26824">
        <ele>1653</ele>
        <time>2023-02-05T09:01:43Z</time>
      </trkpt>
      <trkpt lat="44.12405" lon="7.26823">
        <ele>1653</ele>
        <time>2023-02-05T09:01:44Z</time>
      </trkpt>
      <trkpt lat="44.12403" lon="7.26822">
        <ele>1653.1</ele>
        <time>2023-02-05T09:01:45Z</time>
      </trkpt>
      <trkpt lat="44.12403" lon="7.2682">
        <ele>1653.2</ele>
        <time>2023-02-05T09:01:46Z</time>
      </trkpt>
      <trkpt lat="44.12404" lon="7.2682">
        <ele>1653.4</ele>
        <time>2023-02-05T09:01:47Z</time>
      </trkpt>
      <trkpt lat="44.12404" lon="7.26819">
        <ele>1653.4</ele>
        <time>2023-02-05T09:01:48Z</time>
      </trkpt>
      <trkpt lat="44.12404" lon="7.26817">
        <ele>1653.5</ele>
        <time>2023-02-05T09:01:49Z</time>
      </trkpt>
      <trkpt lat="44.12404" lon="7.26817">
        <ele>1653.5</ele>
        <time>2023-02-05T09:01:50Z</time>
      </trkpt>
      <trkpt lat="44.12404" lon="7.26816">
        <ele>1653.6</ele>
        <time>2023-02-05T09:01:51Z</time>
      </trkpt>
      <trkpt lat="44.12404" lon="7.26815">
        <ele>1653.6</ele>
        <time>2023-02-05T09:01:52Z</time>
      </trkpt>
      <trkpt lat="44.12404" lon="7.26814">
        <ele>1653.7</ele>
        <time>2023-02-05T09:01:53Z</time>
      </trkpt>
      <trkpt lat="44.12404" lon="7.26813">
        <ele>1653.7</ele>
        <time>2023-02-05T09:01:54Z</time>
      </trkpt>
      <trkpt lat="44.12404" lon="7.26812">
        <ele>1653.8</ele>
        <time>2023-02-05T09:01:55Z</time>
      </trkpt>
      <trkpt lat="44.12403" lon="7.26812">
        <ele>1653.9</ele>
        <time>2023-02-05T09:01:56Z</time>
      </trkpt>
      <trkpt lat="44.12403" lon="7.26811">
        <ele>1653.9</ele>
        <time>2023-02-05T09:01:57Z</time>
      </trkpt>
      <trkpt lat="44.12404" lon="7.2681">
        <ele>1653.9</ele>
        <time>2023-02-05T09:01:58Z</time>
      </trkpt>
      <trkpt lat="44.12403" lon="7.26809">
        <ele>1654</ele>
        <time>2023-02-05T09:01:59Z</time>
      </trkpt>
      <trkpt lat="44.12403" lon="7.26808">
        <ele>1654.1</ele>
        <time>2023-02-05T09:02:00Z</time>
      </trkpt>
      <trkpt lat="44.12402" lon="7.26807">
        <ele>1654.2</ele>
        <time>2023-02-05T09:02:01Z</time>
      </trkpt>
      <trkpt lat="44.12403" lon="7.26806">
        <ele>1654.2</ele>
        <time>2023-02-05T09:02:02Z</time>
      </trkpt>
      <trkpt lat="44.12403" lon="7.26805">
        <ele>1654.2</ele>
        <time>2023-02-05T09:02:03Z</time>
      </trkpt>
      <trkpt lat="44.12403" lon="7.26804">
        <ele>1654.2</ele>
        <time>2023-02-05T09:02:04Z</time>
      </trkpt>
      <trkpt lat="44.12403" lon="7.26803">
        <ele>1654.3</ele>
        <time>2023-02-05T09:02:05Z</time>
      </trkpt>
      <trkpt lat="44.12403" lon="7.26802">
        <ele>1654.3</ele>
        <time>2023-02-05T09:02:06Z</time>
      </trkpt>
      <trkpt lat="44.12404" lon="7.26801">
        <ele>1654.3</ele>
        <time>2023-02-05T09:02:07Z</time>
      </trkpt>
      <trkpt lat="44.12406" lon="7.268">
        <ele>1654.3</ele>
        <time>2023-02-05T09:02:08Z</time>
      </trkpt>
      <trkpt lat="44.12406" lon="7.26799">
        <ele>1654.4</ele>
        <time>2023-02-05T09:02:09Z</time>
      </trkpt>
      <trkpt lat="44.12407" lon="7.26798">
        <ele>1654.4</ele>
        <time>2023-02-05T09:02:10Z</time>
      </trkpt>
      <trkpt lat="44.12408" lon="7.26797">
        <ele>1654.5</ele>
        <time>2023-02-05T09:02:11Z</time>
      </trkpt>
      <trkpt lat="44.12408" lon="7.26795">
        <ele>1654.5</ele>
        <time>2023-02-05T09:02:12Z</time>
      </trkpt>
      <trkpt lat="44.12408" lon="7.26794">
        <ele>1654.5</ele>
        <time>2023-02-05T09:02:13Z</time>
      </trkpt>
      <trkpt lat="44.12408" lon="7.26794">
        <ele>1654.5</ele>
        <time>2023-02-05T09:02:14Z</time>
      </trkpt>
      <trkpt lat="44.12408" lon="7.26793">
        <ele>1654.6</ele>
        <time>2023-02-05T09:02:15Z</time>
      </trkpt>
      <trkpt lat="44.12408" lon="7.26792">
        <ele>1654.5</ele>
        <time>2023-02-05T09:02:16Z</time>
      </trkpt>
      <trkpt lat="44.12409" lon="7.26791">
        <ele>1654.6</ele>
        <time>2023-02-05T09:02:17Z</time>
      </trkpt>
      <trkpt lat="44.12408" lon="7.2679">
        <ele>1654.6</ele>
        <time>2023-02-05T09:02:18Z</time>
      </trkpt>
      <trkpt lat="44.12408" lon="7.26789">
        <ele>1654.6</ele>
        <time>2023-02-05T09:02:19Z</time>
      </trkpt>
      <trkpt lat="44.12409" lon="7.26788">
        <ele>1654.8</ele>
        <time>2023-02-05T09:02:20Z</time>
      </trkpt>
      <trkpt lat="44.12409" lon="7.26787">
        <ele>1654.9</ele>
        <time>2023-02-05T09:02:21Z</time>
      </trkpt>
      <trkpt lat="44.12409" lon="7.26786">
        <ele>1654.9</ele>
        <time>2023-02-05T09:02:22Z</time>
      </trkpt>
      <trkpt lat="44.1241" lon="7.26786">
        <ele>1655</ele>
        <time>2023-02-05T09:02:23Z</time>
      </trkpt>
      <trkpt lat="44.12411" lon="7.26785">
        <ele>1655</ele>
        <time>2023-02-05T09:02:24Z</time>
      </trkpt>
      <trkpt lat="44.12412" lon="7.26784">
        <ele>1655</ele>
        <time>2023-02-05T09:02:25Z</time>
      </trkpt>
      <trkpt lat="44.12413" lon="7.26783">
        <ele>1655</ele>
        <time>2023-02-05T09:02:26Z</time>
      </trkpt>
      <trkpt lat="44.12412" lon="7.26782">
        <ele>1655</ele>
        <time>2023-02-05T09:02:27Z</time>
      </trkpt>
      <trkpt lat="44.12412" lon="7.26781">
        <ele>1655.1</ele>
        <time>2023-02-05T09:02:28Z</time>
      </trkpt>
      <trkpt lat="44.12413" lon="7.2678">
        <ele>1655.2</ele>
        <time>2023-02-05T09:02:29Z</time>
      </trkpt>
      <trkpt lat="44.12414" lon="7.26779">
        <ele>1655.2</ele>
        <time>2023-02-05T09:02:30Z</time>
      </trkpt>
      <trkpt lat="44.12414" lon="7.26778">
        <ele>1655.3</ele>
        <time>2023-02-05T09:02:31Z</time>
      </trkpt>
      <trkpt lat="44.12415" lon="7.26777">
        <ele>1655.4</ele>
        <time>2023-02-05T09:02:32Z</time>
      </trkpt>
      <trkpt lat="44.12415" lon="7.26777">
        <ele>1655.5</ele>
        <time>2023-02-05T09:02:33Z</time>
      </trkpt>
      <trkpt lat="44.12416" lon="7.26776">
        <ele>1655.6</ele>
        <time>2023-02-05T09:02:34Z</time>
      </trkpt>
      <trkpt lat="44.12416" lon="7.26775">
        <ele>1655.8</ele>
        <time>2023-02-05T09:02:35Z</time>
      </trkpt>
      <trkpt lat="44.12417" lon="7.26774">
        <ele>1655.9</ele>
        <time>2023-02-05T09:02:36Z</time>
      </trkpt>
      <trkpt lat="44.12417" lon="7.26773">
        <ele>1655.9</ele>
        <time>2023-02-05T09:02:37Z</time>
      </trkpt>
      <trkpt lat="44.12417" lon="7.26772">
        <ele>1656</ele>
        <time>2023-02-05T09:02:38Z</time>
      </trkpt>
      <trkpt lat="44.12418" lon="7.26772">
        <ele>1656.1</ele>
        <time>2023-02-05T09:02:39Z</time>
      </trkpt>
      <trkpt lat="44.12418" lon="7.26771">
        <ele>1656.1</ele>
        <time>2023-02-05T09:02:40Z</time>
      </trkpt>
      <trkpt lat="44.12419" lon="7.2677">
        <ele>1656.2</ele>
        <time>2023-02-05T09:02:41Z</time>
      </trkpt>
      <trkpt lat="44.12419" lon="7.2677">
        <ele>1656.3</ele>
        <time>2023-02-05T09:02:42Z</time>
      </trkpt>
      <trkpt lat="44.1242" lon="7.26769">
        <ele>1656.4</ele>
        <time>2023-02-05T09:02:43Z</time>
      </trkpt>
      <trkpt lat="44.12421" lon="7.26769">
        <ele>1656.4</ele>
        <time>2023-02-05T09:02:44Z</time>
      </trkpt>
      <trkpt lat="44.12422" lon="7.26768">
        <ele>1656.5</ele>
        <time>2023-02-05T09:02:45Z</time>
      </trkpt>
      <trkpt lat="44.12424" lon="7.26768">
        <ele>1656.6</ele>
        <time>2023-02-05T09:02:46Z</time>
      </trkpt>
      <trkpt lat="44.12424" lon="7.26767">
        <ele>1656.6</ele>
        <time>2023-02-05T09:02:47Z</time>
      </trkpt>
      <trkpt lat="44.12425" lon="7.26767">
        <ele>1656.6</ele>
        <time>2023-02-05T09:02:48Z</time>
      </trkpt>
      <trkpt lat="44.12426" lon="7.26766">
        <ele>1656.7</ele>
        <time>2023-02-05T09:02:49Z</time>
      </trkpt>
      <trkpt lat="44.12427" lon="7.26766">
        <ele>1656.8</ele>
        <time>2023-02-05T09:02:50Z</time>
      </trkpt>
      <trkpt lat="44.12429" lon="7.26766">
        <ele>1656.9</ele>
        <time>2023-02-05T09:02:51Z</time>
      </trkpt>
      <trkpt lat="44.1243" lon="7.26765">
        <ele>1657</ele>
        <time>2023-02-05T09:02:52Z</time>
      </trkpt>
      <trkpt lat="44.12431" lon="7.26764">
        <ele>1657.1</ele>
        <time>2023-02-05T09:02:53Z</time>
      </trkpt>
      <trkpt lat="44.12431" lon="7.26764">
        <ele>1657.2</ele>
        <time>2023-02-05T09:02:54Z</time>
      </trkpt>
      <trkpt lat="44.12434" lon="7.26764">
        <ele>1657.3</ele>
        <time>2023-02-05T09:02:55Z</time>
      </trkpt>
      <trkpt lat="44.12436" lon="7.26763">
        <ele>1657.3</ele>
        <time>2023-02-05T09:02:56Z</time>
      </trkpt>
      <trkpt lat="44.12437" lon="7.26763">
        <ele>1657.4</ele>
        <time>2023-02-05T09:02:57Z</time>
      </trkpt>
      <trkpt lat="44.12438" lon="7.26762">
        <ele>1657.5</ele>
        <time>2023-02-05T09:02:58Z</time>
      </trkpt>
      <trkpt lat="44.12438" lon="7.26762">
        <ele>1657.6</ele>
        <time>2023-02-05T09:02:59Z</time>
      </trkpt>
      <trkpt lat="44.12439" lon="7.26761">
        <ele>1657.7</ele>
        <time>2023-02-05T09:03:00Z</time>
      </trkpt>
      <trkpt lat="44.1244" lon="7.2676">
        <ele>1657.8</ele>
        <time>2023-02-05T09:03:01Z</time>
      </trkpt>
      <trkpt lat="44.1244" lon="7.26758">
        <ele>1657.8</ele>
        <time>2023-02-05T09:03:02Z</time>
      </trkpt>
      <trkpt lat="44.1244" lon="7.26756">
        <ele>1657.9</ele>
        <time>2023-02-05T09:03:03Z</time>
      </trkpt>
      <trkpt lat="44.1244" lon="7.26755">
        <ele>1657.9</ele>
        <time>2023-02-05T09:03:04Z</time>
      </trkpt>
      <trkpt lat="44.1244" lon="7.26754">
        <ele>1658</ele>
        <time>2023-02-05T09:03:05Z</time>
      </trkpt>
      <trkpt lat="44.1244" lon="7.26753">
        <ele>1658.1</ele>
        <time>2023-02-05T09:03:06Z</time>
      </trkpt>
      <trkpt lat="44.1244" lon="7.26752">
        <ele>1658.3</ele>
        <time>2023-02-05T09:03:07Z</time>
      </trkpt>
      <trkpt lat="44.1244" lon="7.26751">
        <ele>1658.4</ele>
        <time>2023-02-05T09:03:08Z</time>
      </trkpt>
      <trkpt lat="44.12441" lon="7.2675">
        <ele>1658.5</ele>
        <time>2023-02-05T09:03:09Z</time>
      </trkpt>
      <trkpt lat="44.12441" lon="7.26749">
        <ele>1658.5</ele>
        <time>2023-02-05T09:03:10Z</time>
      </trkpt>
      <trkpt lat="44.12441" lon="7.26748">
        <ele>1658.6</ele>
        <time>2023-02-05T09:03:11Z</time>
      </trkpt>
      <trkpt lat="44.12441" lon="7.26747">
        <ele>1658.7</ele>
        <time>2023-02-05T09:03:12Z</time>
      </trkpt>
      <trkpt lat="44.12441" lon="7.26746">
        <ele>1658.8</ele>
        <time>2023-02-05T09:03:13Z</time>
      </trkpt>
      <trkpt lat="44.12442" lon="7.26746">
        <ele>1658.9</ele>
        <time>2023-02-05T09:03:14Z</time>
      </trkpt>
      <trkpt lat="44.12443" lon="7.26745">
        <ele>1659</ele>
        <time>2023-02-05T09:03:15Z</time>
      </trkpt>
      <trkpt lat="44.12443" lon="7.26744">
        <ele>1659</ele>
        <time>2023-02-05T09:03:16Z</time>
      </trkpt>
      <trkpt lat="44.12443" lon="7.26743">
        <ele>1659.1</ele>
        <time>2023-02-05T09:03:17Z</time>
      </trkpt>
      <trkpt lat="44.12443" lon="7.26742">
        <ele>1659.2</ele>
        <time>2023-02-05T09:03:18Z</time>
      </trkpt>
      <trkpt lat="44.12444" lon="7.26741">
        <ele>1659.3</ele>
        <time>2023-02-05T09:03:19Z</time>
      </trkpt>
      <trkpt lat="44.12443" lon="7.2674">
        <ele>1659.4</ele>
        <time>2023-02-05T09:03:20Z</time>
      </trkpt>
      <trkpt lat="44.12443" lon="7.26739">
        <ele>1659.5</ele>
        <time>2023-02-05T09:03:21Z</time>
      </trkpt>
      <trkpt lat="44.12445" lon="7.26739">
        <ele>1659.6</ele>
        <time>2023-02-05T09:03:22Z</time>
      </trkpt>
      <trkpt lat="44.12445" lon="7.26739">
        <ele>1659.7</ele>
        <time>2023-02-05T09:03:23Z</time>
      </trkpt>
      <trkpt lat="44.12444" lon="7.26737">
        <ele>1659.7</ele>
        <time>2023-02-05T09:03:24Z</time>
      </trkpt>
      <trkpt lat="44.12445" lon="7.26737">
        <ele>1659.9</ele>
        <time>2023-02-05T09:03:25Z</time>
      </trkpt>
      <trkpt lat="44.12447" lon="7.26737">
        <ele>1660</ele>
        <time>2023-02-05T09:03:26Z</time>
      </trkpt>
      <trkpt lat="44.12448" lon="7.26736">
        <ele>1660</ele>
        <time>2023-02-05T09:03:27Z</time>
      </trkpt>
      <trkpt lat="44.12449" lon="7.26736">
        <ele>1660.1</ele>
        <time>2023-02-05T09:03:28Z</time>
      </trkpt>
      <trkpt lat="44.12448" lon="7.26735">
        <ele>1660.1</ele>
        <time>2023-02-05T09:03:29Z</time>
      </trkpt>
      <trkpt lat="44.1245" lon="7.26735">
        <ele>1660.2</ele>
        <time>2023-02-05T09:03:30Z</time>
      </trkpt>
      <trkpt lat="44.1245" lon="7.26734">
        <ele>1660.2</ele>
        <time>2023-02-05T09:03:31Z</time>
      </trkpt>
      <trkpt lat="44.1245" lon="7.26734">
        <ele>1660.3</ele>
        <time>2023-02-05T09:03:32Z</time>
      </trkpt>
      <trkpt lat="44.1245" lon="7.26733">
        <ele>1660.3</ele>
        <time>2023-02-05T09:03:33Z</time>
      </trkpt>
      <trkpt lat="44.12451" lon="7.26733">
        <ele>1660.4</ele>
        <time>2023-02-05T09:03:34Z</time>
      </trkpt>
      <trkpt lat="44.12451" lon="7.26732">
        <ele>1660.4</ele>
        <time>2023-02-05T09:03:35Z</time>
      </trkpt>
      <trkpt lat="44.12451" lon="7.26731">
        <ele>1660.5</ele>
        <time>2023-02-05T09:03:36Z</time>
      </trkpt>
      <trkpt lat="44.12451" lon="7.2673">
        <ele>1660.5</ele>
        <time>2023-02-05T09:03:37Z</time>
      </trkpt>
      <trkpt lat="44.12451" lon="7.2673">
        <ele>1660.6</ele>
        <time>2023-02-05T09:03:38Z</time>
      </trkpt>
      <trkpt lat="44.12451" lon="7.26728">
        <ele>1660.6</ele>
        <time>2023-02-05T09:03:39Z</time>
      </trkpt>
      <trkpt lat="44.12453" lon="7.26728">
        <ele>1660.6</ele>
        <time>2023-02-05T09:03:40Z</time>
      </trkpt>
      <trkpt lat="44.12453" lon="7.26728">
        <ele>1660.7</ele>
        <time>2023-02-05T09:03:41Z</time>
      </trkpt>
      <trkpt lat="44.12454" lon="7.26727">
        <ele>1660.8</ele>
        <time>2023-02-05T09:03:42Z</time>
      </trkpt>
      <trkpt lat="44.12457" lon="7.26727">
        <ele>1660.9</ele>
        <time>2023-02-05T09:03:43Z</time>
      </trkpt>
      <trkpt lat="44.12458" lon="7.26727">
        <ele>1661</ele>
        <time>2023-02-05T09:03:44Z</time>
      </trkpt>
      <trkpt lat="44.12457" lon="7.26726">
        <ele>1661</ele>
        <time>2023-02-05T09:03:45Z</time>
      </trkpt>
      <trkpt lat="44.12457" lon="7.26725">
        <ele>1661</ele>
        <time>2023-02-05T09:03:46Z</time>
      </trkpt>
      <trkpt lat="44.12457" lon="7.26724">
        <ele>1661.1</ele>
        <time>2023-02-05T09:03:47Z</time>
      </trkpt>
      <trkpt lat="44.12457" lon="7.26724">
        <ele>1661.2</ele>
        <time>2023-02-05T09:03:48Z</time>
      </trkpt>
      <trkpt lat="44.12457" lon="7.26723">
        <ele>1661.3</ele>
        <time>2023-02-05T09:03:49Z</time>
      </trkpt>
      <trkpt lat="44.12457" lon="7.26723">
        <ele>1661.4</ele>
        <time>2023-02-05T09:03:50Z</time>
      </trkpt>
      <trkpt lat="44.1246" lon="7.26724">
        <ele>1661.5</ele>
        <time>2023-02-05T09:03:51Z</time>
      </trkpt>
      <trkpt lat="44.1246" lon="7.26722">
        <ele>1661.6</ele>
        <time>2023-02-05T09:03:52Z</time>
      </trkpt>
      <trkpt lat="44.12461" lon="7.26723">
        <ele>1661.7</ele>
        <time>2023-02-05T09:03:53Z</time>
      </trkpt>
      <trkpt lat="44.12462" lon="7.26722">
        <ele>1661.7</ele>
        <time>2023-02-05T09:03:54Z</time>
      </trkpt>
      <trkpt lat="44.12462" lon="7.26722">
        <ele>1661.9</ele>
        <time>2023-02-05T09:03:55Z</time>
      </trkpt>
      <trkpt lat="44.12462" lon="7.26721">
        <ele>1661.9</ele>
        <time>2023-02-05T09:03:56Z</time>
      </trkpt>
      <trkpt lat="44.12464" lon="7.2672">
        <ele>1662</ele>
        <time>2023-02-05T09:03:57Z</time>
      </trkpt>
      <trkpt lat="44.12465" lon="7.26719">
        <ele>1662.1</ele>
        <time>2023-02-05T09:03:58Z</time>
      </trkpt>
      <trkpt lat="44.12467" lon="7.26719">
        <ele>1662.2</ele>
        <time>2023-02-05T09:03:59Z</time>
      </trkpt>
      <trkpt lat="44.1247" lon="7.26719">
        <ele>1662.3</ele>
        <time>2023-02-05T09:04:00Z</time>
      </trkpt>
      <trkpt lat="44.1247" lon="7.26717">
        <ele>1662.3</ele>
        <time>2023-02-05T09:04:01Z</time>
      </trkpt>
      <trkpt lat="44.12471" lon="7.26718">
        <ele>1662.4</ele>
        <time>2023-02-05T09:04:02Z</time>
      </trkpt>
      <trkpt lat="44.12473" lon="7.26717">
        <ele>1662.4</ele>
        <time>2023-02-05T09:04:03Z</time>
      </trkpt>
      <trkpt lat="44.12473" lon="7.26717">
        <ele>1662.4</ele>
        <time>2023-02-05T09:04:04Z</time>
      </trkpt>
      <trkpt lat="44.12475" lon="7.26717">
        <ele>1662.4</ele>
        <time>2023-02-05T09:04:05Z</time>
      </trkpt>
      <trkpt lat="44.12475" lon="7.26716">
        <ele>1662.5</ele>
        <time>2023-02-05T09:04:06Z</time>
      </trkpt>
      <trkpt lat="44.12477" lon="7.26716">
        <ele>1662.6</ele>
        <time>2023-02-05T09:04:07Z</time>
      </trkpt>
      <trkpt lat="44.12478" lon="7.26716">
        <ele>1662.7</ele>
        <time>2023-02-05T09:04:08Z</time>
      </trkpt>
      <trkpt lat="44.12478" lon="7.26714">
        <ele>1662.7</ele>
        <time>2023-02-05T09:04:09Z</time>
      </trkpt>
      <trkpt lat="44.12478" lon="7.26714">
        <ele>1662.8</ele>
        <time>2023-02-05T09:04:10Z</time>
      </trkpt>
      <trkpt lat="44.12479" lon="7.26712">
        <ele>1662.8</ele>
        <time>2023-02-05T09:04:11Z</time>
      </trkpt>
      <trkpt lat="44.1248" lon="7.26711">
        <ele>1662.9</ele>
        <time>2023-02-05T09:04:12Z</time>
      </trkpt>
      <trkpt lat="44.12481" lon="7.26711">
        <ele>1662.9</ele>
        <time>2023-02-05T09:04:13Z</time>
      </trkpt>
      <trkpt lat="44.12482" lon="7.2671">
        <ele>1663</ele>
        <time>2023-02-05T09:04:14Z</time>
      </trkpt>
      <trkpt lat="44.12483" lon="7.26709">
        <ele>1663</ele>
        <time>2023-02-05T09:04:15Z</time>
      </trkpt>
      <trkpt lat="44.12483" lon="7.26708">
        <ele>1663.1</ele>
        <time>2023-02-05T09:04:16Z</time>
      </trkpt>
      <trkpt lat="44.12485" lon="7.26707">
        <ele>1663.2</ele>
        <time>2023-02-05T09:04:17Z</time>
      </trkpt>
      <trkpt lat="44.12487" lon="7.26708">
        <ele>1663.2</ele>
        <time>2023-02-05T09:04:18Z</time>
      </trkpt>
      <trkpt lat="44.12485" lon="7.26706">
        <ele>1663.2</ele>
        <time>2023-02-05T09:04:19Z</time>
      </trkpt>
      <trkpt lat="44.12485" lon="7.26704">
        <ele>1663.3</ele>
        <time>2023-02-05T09:04:20Z</time>
      </trkpt>
      <trkpt lat="44.12484" lon="7.26702">
        <ele>1663.3</ele>
        <time>2023-02-05T09:04:21Z</time>
      </trkpt>
      <trkpt lat="44.12484" lon="7.26701">
        <ele>1663.3</ele>
        <time>2023-02-05T09:04:22Z</time>
      </trkpt>
      <trkpt lat="44.12484" lon="7.267">
        <ele>1663.3</ele>
        <time>2023-02-05T09:04:23Z</time>
      </trkpt>
      <trkpt lat="44.12483" lon="7.26698">
        <ele>1663.4</ele>
        <time>2023-02-05T09:04:24Z</time>
      </trkpt>
      <trkpt lat="44.12482" lon="7.26696">
        <ele>1663.5</ele>
        <time>2023-02-05T09:04:25Z</time>
      </trkpt>
      <trkpt lat="44.1248" lon="7.26695">
        <ele>1663.6</ele>
        <time>2023-02-05T09:04:26Z</time>
      </trkpt>
      <trkpt lat="44.12481" lon="7.26694">
        <ele>1663.7</ele>
        <time>2023-02-05T09:04:27Z</time>
      </trkpt>
      <trkpt lat="44.1248" lon="7.26692">
        <ele>1663.7</ele>
        <time>2023-02-05T09:04:28Z</time>
      </trkpt>
      <trkpt lat="44.12479" lon="7.2669">
        <ele>1663.8</ele>
        <time>2023-02-05T09:04:29Z</time>
      </trkpt>
      <trkpt lat="44.1248" lon="7.26689">
        <ele>1663.9</ele>
        <time>2023-02-05T09:04:30Z</time>
      </trkpt>
      <trkpt lat="44.1248" lon="7.26688">
        <ele>1663.9</ele>
        <time>2023-02-05T09:04:31Z</time>
      </trkpt>
      <trkpt lat="44.12481" lon="7.26687">
        <ele>1664</ele>
        <time>2023-02-05T09:04:32Z</time>
      </trkpt>
      <trkpt lat="44.1248" lon="7.26686">
        <ele>1664</ele>
        <time>2023-02-05T09:04:33Z</time>
      </trkpt>
      <trkpt lat="44.1248" lon="7.26684">
        <ele>1664.1</ele>
        <time>2023-02-05T09:04:34Z</time>
      </trkpt>
      <trkpt lat="44.12479" lon="7.26684">
        <ele>1664.2</ele>
        <time>2023-02-05T09:04:35Z</time>
      </trkpt>
      <trkpt lat="44.1248" lon="7.26683">
        <ele>1664.3</ele>
        <time>2023-02-05T09:04:36Z</time>
      </trkpt>
      <trkpt lat="44.1248" lon="7.26683">
        <ele>1664.4</ele>
        <time>2023-02-05T09:04:37Z</time>
      </trkpt>
      <trkpt lat="44.12481" lon="7.26682">
        <ele>1664.5</ele>
        <time>2023-02-05T09:04:38Z</time>
      </trkpt>
      <trkpt lat="44.12482" lon="7.26681">
        <ele>1664.6</ele>
        <time>2023-02-05T09:04:39Z</time>
      </trkpt>
      <trkpt lat="44.12482" lon="7.26681">
        <ele>1664.7</ele>
        <time>2023-02-05T09:04:40Z</time>
      </trkpt>
      <trkpt lat="44.12481" lon="7.2668">
        <ele>1664.8</ele>
        <time>2023-02-05T09:04:41Z</time>
      </trkpt>
      <trkpt lat="44.12482" lon="7.26679">
        <ele>1664.9</ele>
        <time>2023-02-05T09:04:42Z</time>
      </trkpt>
      <trkpt lat="44.12482" lon="7.26679">
        <ele>1665</ele>
        <time>2023-02-05T09:04:43Z</time>
      </trkpt>
      <trkpt lat="44.12482" lon="7.26678">
        <ele>1665.1</ele>
        <time>2023-02-05T09:04:44Z</time>
      </trkpt>
      <trkpt lat="44.12482" lon="7.26677">
        <ele>1665.1</ele>
        <time>2023-02-05T09:04:45Z</time>
      </trkpt>
      <trkpt lat="44.12482" lon="7.26676">
        <ele>1665.2</ele>
        <time>2023-02-05T09:04:46Z</time>
      </trkpt>
      <trkpt lat="44.12483" lon="7.26674">
        <ele>1665.2</ele>
        <time>2023-02-05T09:04:47Z</time>
      </trkpt>
      <trkpt lat="44.12483" lon="7.26673">
        <ele>1665.2</ele>
        <time>2023-02-05T09:04:48Z</time>
      </trkpt>
      <trkpt lat="44.12483" lon="7.26672">
        <ele>1665.3</ele>
        <time>2023-02-05T09:04:49Z</time>
      </trkpt>
      <trkpt lat="44.12483" lon="7.2667">
        <ele>1665.4</ele>
        <time>2023-02-05T09:04:50Z</time>
      </trkpt>
      <trkpt lat="44.12483" lon="7.2667">
        <ele>1665.5</ele>
        <time>2023-02-05T09:04:51Z</time>
      </trkpt>
      <trkpt lat="44.12483" lon="7.26668">
        <ele>1665.6</ele>
        <time>2023-02-05T09:04:52Z</time>
      </trkpt>
      <trkpt lat="44.12483" lon="7.26667">
        <ele>1665.7</ele>
        <time>2023-02-05T09:04:53Z</time>
      </trkpt>
      <trkpt lat="44.12486" lon="7.26667">
        <ele>1665.7</ele>
        <time>2023-02-05T09:04:54Z</time>
      </trkpt>
      <trkpt lat="44.12486" lon="7.26666">
        <ele>1665.8</ele>
        <time>2023-02-05T09:04:55Z</time>
      </trkpt>
      <trkpt lat="44.12487" lon="7.26665">
        <ele>1665.9</ele>
        <time>2023-02-05T09:04:56Z</time>
      </trkpt>
      <trkpt lat="44.12488" lon="7.26664">
        <ele>1665.9</ele>
        <time>2023-02-05T09:04:57Z</time>
      </trkpt>
      <trkpt lat="44.12489" lon="7.26663">
        <ele>1665.9</ele>
        <time>2023-02-05T09:04:58Z</time>
      </trkpt>
      <trkpt lat="44.1249" lon="7.26662">
        <ele>1666</ele>
        <time>2023-02-05T09:04:59Z</time>
      </trkpt>
      <trkpt lat="44.1249" lon="7.26661">
        <ele>1666.1</ele>
        <time>2023-02-05T09:05:00Z</time>
      </trkpt>
      <trkpt lat="44.12491" lon="7.26661">
        <ele>1666.3</ele>
        <time>2023-02-05T09:05:01Z</time>
      </trkpt>
      <trkpt lat="44.12491" lon="7.2666">
        <ele>1666.4</ele>
        <time>2023-02-05T09:05:02Z</time>
      </trkpt>
      <trkpt lat="44.12492" lon="7.26659">
        <ele>1666.4</ele>
        <time>2023-02-05T09:05:03Z</time>
      </trkpt>
      <trkpt lat="44.12494" lon="7.26659">
        <ele>1666.5</ele>
        <time>2023-02-05T09:05:04Z</time>
      </trkpt>
      <trkpt lat="44.12495" lon="7.26657">
        <ele>1666.5</ele>
        <time>2023-02-05T09:05:05Z</time>
      </trkpt>
      <trkpt lat="44.12495" lon="7.26657">
        <ele>1666.5</ele>
        <time>2023-02-05T09:05:06Z</time>
      </trkpt>
      <trkpt lat="44.12496" lon="7.26657">
        <ele>1666.5</ele>
        <time>2023-02-05T09:05:07Z</time>
      </trkpt>
      <trkpt lat="44.12497" lon="7.26656">
        <ele>1666.6</ele>
        <time>2023-02-05T09:05:08Z</time>
      </trkpt>
      <trkpt lat="44.125" lon="7.26656">
        <ele>1666.6</ele>
        <time>2023-02-05T09:05:09Z</time>
      </trkpt>
      <trkpt lat="44.125" lon="7.26655">
        <ele>1666.7</ele>
        <time>2023-02-05T09:05:10Z</time>
      </trkpt>
      <trkpt lat="44.12501" lon="7.26654">
        <ele>1666.8</ele>
        <time>2023-02-05T09:05:11Z</time>
      </trkpt>
      <trkpt lat="44.12501" lon="7.26653">
        <ele>1666.8</ele>
        <time>2023-02-05T09:05:12Z</time>
      </trkpt>
      <trkpt lat="44.12502" lon="7.26652">
        <ele>1666.8</ele>
        <time>2023-02-05T09:05:13Z</time>
      </trkpt>
      <trkpt lat="44.12503" lon="7.26651">
        <ele>1666.9</ele>
        <time>2023-02-05T09:05:14Z</time>
      </trkpt>
      <trkpt lat="44.12502" lon="7.26649">
        <ele>1667</ele>
        <time>2023-02-05T09:05:15Z</time>
      </trkpt>
      <trkpt lat="44.12503" lon="7.26648">
        <ele>1667.1</ele>
        <time>2023-02-05T09:05:16Z</time>
      </trkpt>
      <trkpt lat="44.12504" lon="7.26648">
        <ele>1667.2</ele>
        <time>2023-02-05T09:05:17Z</time>
      </trkpt>
      <trkpt lat="44.12505" lon="7.26647">
        <ele>1667.3</ele>
        <time>2023-02-05T09:05:18Z</time>
      </trkpt>
      <trkpt lat="44.12505" lon="7.26646">
        <ele>1667.3</ele>
        <time>2023-02-05T09:05:19Z</time>
      </trkpt>
      <trkpt lat="44.12506" lon="7.26645">
        <ele>1667.3</ele>
        <time>2023-02-05T09:05:20Z</time>
      </trkpt>
      <trkpt lat="44.12507" lon="7.26644">
        <ele>1667.4</ele>
        <time>2023-02-05T09:05:21Z</time>
      </trkpt>
      <trkpt lat="44.12509" lon="7.26644">
        <ele>1667.6</ele>
        <time>2023-02-05T09:05:22Z</time>
      </trkpt>
      <trkpt lat="44.12509" lon="7.26643">
        <ele>1667.7</ele>
        <time>2023-02-05T09:05:23Z</time>
      </trkpt>
      <trkpt lat="44.12509" lon="7.26643">
        <ele>1667.8</ele>
        <time>2023-02-05T09:05:24Z</time>
      </trkpt>
      <trkpt lat="44.1251" lon="7.26643">
        <ele>1667.9</ele>
        <time>2023-02-05T09:05:25Z</time>
      </trkpt>
      <trkpt lat="44.1251" lon="7.26642">
        <ele>1668</ele>
        <time>2023-02-05T09:05:26Z</time>
      </trkpt>
      <trkpt lat="44.12511" lon="7.26641">
        <ele>1668.1</ele>
        <time>2023-02-05T09:05:27Z</time>
      </trkpt>
      <trkpt lat="44.12511" lon="7.2664">
        <ele>1668.2</ele>
        <time>2023-02-05T09:05:28Z</time>
      </trkpt>
      <trkpt lat="44.12512" lon="7.26638">
        <ele>1668.2</ele>
        <time>2023-02-05T09:05:29Z</time>
      </trkpt>
      <trkpt lat="44.12512" lon="7.26637">
        <ele>1668.3</ele>
        <time>2023-02-05T09:05:30Z</time>
      </trkpt>
      <trkpt lat="44.12512" lon="7.26635">
        <ele>1668.3</ele>
        <time>2023-02-05T09:05:31Z</time>
      </trkpt>
      <trkpt lat="44.12512" lon="7.26633">
        <ele>1668.3</ele>
        <time>2023-02-05T09:05:32Z</time>
      </trkpt>
      <trkpt lat="44.12511" lon="7.26632">
        <ele>1668.4</ele>
        <time>2023-02-05T09:05:33Z</time>
      </trkpt>
      <trkpt lat="44.12513" lon="7.26631">
        <ele>1668.4</ele>
        <time>2023-02-05T09:05:34Z</time>
      </trkpt>
      <trkpt lat="44.12513" lon="7.26629">
        <ele>1668.5</ele>
        <time>2023-02-05T09:05:35Z</time>
      </trkpt>
      <trkpt lat="44.12514" lon="7.26628">
        <ele>1668.5</ele>
        <time>2023-02-05T09:05:36Z</time>
      </trkpt>
      <trkpt lat="44.12514" lon="7.26626">
        <ele>1668.7</ele>
        <time>2023-02-05T09:05:37Z</time>
      </trkpt>
      <trkpt lat="44.12515" lon="7.26626">
        <ele>1668.8</ele>
        <time>2023-02-05T09:05:38Z</time>
      </trkpt>
      <trkpt lat="44.12515" lon="7.26625">
        <ele>1668.8</ele>
        <time>2023-02-05T09:05:39Z</time>
      </trkpt>
      <trkpt lat="44.12516" lon="7.26624">
        <ele>1668.9</ele>
        <time>2023-02-05T09:05:40Z</time>
      </trkpt>
      <trkpt lat="44.12517" lon="7.26624">
        <ele>1669</ele>
        <time>2023-02-05T09:05:41Z</time>
      </trkpt>
      <trkpt lat="44.12517" lon="7.26623">
        <ele>1669.2</ele>
        <time>2023-02-05T09:05:42Z</time>
      </trkpt>
      <trkpt lat="44.12518" lon="7.26622">
        <ele>1669.2</ele>
        <time>2023-02-05T09:05:43Z</time>
      </trkpt>
      <trkpt lat="44.12518" lon="7.26621">
        <ele>1669.3</ele>
        <time>2023-02-05T09:05:44Z</time>
      </trkpt>
      <trkpt lat="44.12519" lon="7.26619">
        <ele>1669.4</ele>
        <time>2023-02-05T09:05:45Z</time>
      </trkpt>
      <trkpt lat="44.12519" lon="7.26618">
        <ele>1669.5</ele>
        <time>2023-02-05T09:05:46Z</time>
      </trkpt>
      <trkpt lat="44.12519" lon="7.26617">
        <ele>1669.6</ele>
        <time>2023-02-05T09:05:47Z</time>
      </trkpt>
      <trkpt lat="44.1252" lon="7.26618">
        <ele>1669.6</ele>
        <time>2023-02-05T09:05:48Z</time>
      </trkpt>
      <trkpt lat="44.1252" lon="7.26617">
        <ele>1669.7</ele>
        <time>2023-02-05T09:05:49Z</time>
      </trkpt>
      <trkpt lat="44.1252" lon="7.26616">
        <ele>1669.8</ele>
        <time>2023-02-05T09:05:50Z</time>
      </trkpt>
      <trkpt lat="44.12521" lon="7.26615">
        <ele>1669.9</ele>
        <time>2023-02-05T09:05:51Z</time>
      </trkpt>
      <trkpt lat="44.12521" lon="7.26614">
        <ele>1670</ele>
        <time>2023-02-05T09:05:52Z</time>
      </trkpt>
      <trkpt lat="44.12522" lon="7.26613">
        <ele>1670.1</ele>
        <time>2023-02-05T09:05:53Z</time>
      </trkpt>
      <trkpt lat="44.12523" lon="7.26613">
        <ele>1670.2</ele>
        <time>2023-02-05T09:05:54Z</time>
      </trkpt>
      <trkpt lat="44.12523" lon="7.26613">
        <ele>1670.2</ele>
        <time>2023-02-05T09:05:55Z</time>
      </trkpt>
      <trkpt lat="44.12523" lon="7.26612">
        <ele>1670.3</ele>
        <time>2023-02-05T09:05:56Z</time>
      </trkpt>
      <trkpt lat="44.12524" lon="7.26611">
        <ele>1670.3</ele>
        <time>2023-02-05T09:05:57Z</time>
      </trkpt>
      <trkpt lat="44.12524" lon="7.26612">
        <ele>1670.4</ele>
        <time>2023-02-05T09:05:58Z</time>
      </trkpt>
      <trkpt lat="44.12524" lon="7.26611">
        <ele>1670.4</ele>
        <time>2023-02-05T09:05:59Z</time>
      </trkpt>
      <trkpt lat="44.12524" lon="7.26611">
        <ele>1670.4</ele>
        <time>2023-02-05T09:06:00Z</time>
      </trkpt>
      <trkpt lat="44.12524" lon="7.2661">
        <ele>1670.5</ele>
        <time>2023-02-05T09:06:01Z</time>
      </trkpt>
      <trkpt lat="44.12525" lon="7.26609">
        <ele>1670.5</ele>
        <time>2023-02-05T09:06:02Z</time>
      </trkpt>
      <trkpt lat="44.12524" lon="7.26609">
        <ele>1670.5</ele>
        <time>2023-02-05T09:06:03Z</time>
      </trkpt>
      <trkpt lat="44.12525" lon="7.26609">
        <ele>1670.5</ele>
        <time>2023-02-05T09:06:04Z</time>
      </trkpt>
      <trkpt lat="44.12526" lon="7.26609">
        <ele>1670.6</ele>
        <time>2023-02-05T09:06:05Z</time>
      </trkpt>
      <trkpt lat="44.12526" lon="7.26609">
        <ele>1670.6</ele>
        <time>2023-02-05T09:06:06Z</time>
      </trkpt>
      <trkpt lat="44.12526" lon="7.26609">
        <ele>1670.5</ele>
        <time>2023-02-05T09:06:07Z</time>
      </trkpt>
      <trkpt lat="44.12526" lon="7.2661">
        <ele>1670.5</ele>
        <time>2023-02-05T09:06:08Z</time>
      </trkpt>
      <trkpt lat="44.12526" lon="7.2661">
        <ele>1670.5</ele>
        <time>2023-02-05T09:06:09Z</time>
      </trkpt>
      <trkpt lat="44.12526" lon="7.2661">
        <ele>1670.5</ele>
        <time>2023-02-05T09:06:10Z</time>
      </trkpt>
      <trkpt lat="44.12526" lon="7.2661">
        <ele>1670.5</ele>
        <time>2023-02-05T09:06:11Z</time>
      </trkpt>
      <trkpt lat="44.12526" lon="7.26609">
        <ele>1670.5</ele>
        <time>2023-02-05T09:06:12Z</time>
      </trkpt>
      <trkpt lat="44.12527" lon="7.26608">
        <ele>1670.5</ele>
        <time>2023-02-05T09:06:13Z</time>
      </trkpt>
      <trkpt lat="44.12527" lon="7.26608">
        <ele>1670.5</ele>
        <time>2023-02-05T09:06:14Z</time>
      </trkpt>
      <trkpt lat="44.12526" lon="7.26607">
        <ele>1670.5</ele>
        <time>2023-02-05T09:06:15Z</time>
      </trkpt>
      <trkpt lat="44.12527" lon="7.26607">
        <ele>1670.5</ele>
        <time>2023-02-05T09:06:16Z</time>
      </trkpt>
      <trkpt lat="44.12526" lon="7.26606">
        <ele>1670.5</ele>
        <time>2023-02-05T09:06:17Z</time>
      </trkpt>
      <trkpt lat="44.12527" lon="7.26606">
        <ele>1670.4</ele>
        <time>2023-02-05T09:06:18Z</time>
      </trkpt>
      <trkpt lat="44.12527" lon="7.26606">
        <ele>1670.3</ele>
        <time>2023-02-05T09:06:19Z</time>
      </trkpt>
      <trkpt lat="44.12527" lon="7.26605">
        <ele>1670.3</ele>
        <time>2023-02-05T09:06:20Z</time>
      </trkpt>
      <trkpt lat="44.12527" lon="7.26605">
        <ele>1670.3</ele>
        <time>2023-02-05T09:06:21Z</time>
      </trkpt>
      <trkpt lat="44.12527" lon="7.26605">
        <ele>1670.3</ele>
        <time>2023-02-05T09:06:22Z</time>
      </trkpt>
      <trkpt lat="44.12527" lon="7.26605">
        <ele>1670.3</ele>
        <time>2023-02-05T09:06:23Z</time>
      </trkpt>
      <trkpt lat="44.12527" lon="7.26605">
        <ele>1670.3</ele>
        <time>2023-02-05T09:06:24Z</time>
      </trkpt>
      <trkpt lat="44.12527" lon="7.26604">
        <ele>1670.4</ele>
        <time>2023-02-05T09:06:25Z</time>
      </trkpt>
      <trkpt lat="44.12527" lon="7.26604">
        <ele>1670.4</ele>
        <time>2023-02-05T09:06:26Z</time>
      </trkpt>
      <trkpt lat="44.12528" lon="7.26603">
        <ele>1670.5</ele>
        <time>2023-02-05T09:06:27Z</time>
      </trkpt>
      <trkpt lat="44.12528" lon="7.26603">
        <ele>1670.5</ele>
        <time>2023-02-05T09:06:28Z</time>
      </trkpt>
      <trkpt lat="44.12528" lon="7.26602">
        <ele>1670.6</ele>
        <time>2023-02-05T09:06:29Z</time>
      </trkpt>
      <trkpt lat="44.12528" lon="7.26602">
        <ele>1670.5</ele>
        <time>2023-02-05T09:06:30Z</time>
      </trkpt>
      <trkpt lat="44.12528" lon="7.26602">
        <ele>1670.5</ele>
        <time>2023-02-05T09:06:31Z</time>
      </trkpt>
      <trkpt lat="44.12528" lon="7.26602">
        <ele>1670.5</ele>
        <time>2023-02-05T09:06:32Z</time>
      </trkpt>
      <trkpt lat="44.12528" lon="7.26601">
        <ele>1670.5</ele>
        <time>2023-02-05T09:06:33Z</time>
      </trkpt>
      <trkpt lat="44.12528" lon="7.26602">
        <ele>1670.5</ele>
        <time>2023-02-05T09:06:34Z</time>
      </trkpt>
      <trkpt lat="44.12528" lon="7.26602">
        <ele>1670.4</ele>
        <time>2023-02-05T09:06:35Z</time>
      </trkpt>
      <trkpt lat="44.12528" lon="7.26602">
        <ele>1670.3</ele>
        <time>2023-02-05T09:06:36Z</time>
      </trkpt>
      <trkpt lat="44.12528" lon="7.26602">
        <ele>1670.4</ele>
        <time>2023-02-05T09:06:37Z</time>
      </trkpt>
      <trkpt lat="44.12528" lon="7.26603">
        <ele>1670.3</ele>
        <time>2023-02-05T09:06:38Z</time>
      </trkpt>
      <trkpt lat="44.12527" lon="7.26603">
        <ele>1670.3</ele>
        <time>2023-02-05T09:06:39Z</time>
      </trkpt>
      <trkpt lat="44.12527" lon="7.26603">
        <ele>1670.3</ele>
        <time>2023-02-05T09:06:40Z</time>
      </trkpt>
      <trkpt lat="44.12527" lon="7.26603">
        <ele>1670.3</ele>
        <time>2023-02-05T09:06:41Z</time>
      </trkpt>
      <trkpt lat="44.12527" lon="7.26603">
        <ele>1670.3</ele>
        <time>2023-02-05T09:06:42Z</time>
      </trkpt>
      <trkpt lat="44.12527" lon="7.26602">
        <ele>1670.2</ele>
        <time>2023-02-05T09:06:43Z</time>
      </trkpt>
      <trkpt lat="44.12527" lon="7.26603">
        <ele>1670.2</ele>
        <time>2023-02-05T09:06:44Z</time>
      </trkpt>
      <trkpt lat="44.12527" lon="7.26603">
        <ele>1670.2</ele>
        <time>2023-02-05T09:06:45Z</time>
      </trkpt>
      <trkpt lat="44.12527" lon="7.26603">
        <ele>1670.3</ele>
        <time>2023-02-05T09:06:46Z</time>
      </trkpt>
      <trkpt lat="44.12527" lon="7.26603">
        <ele>1670.3</ele>
        <time>2023-02-05T09:06:47Z</time>
      </trkpt>
      <trkpt lat="44.12527" lon="7.26603">
        <ele>1670.2</ele>
        <time>2023-02-05T09:06:48Z</time>
      </trkpt>
      <trkpt lat="44.12526" lon="7.26603">
        <ele>1670.2</ele>
        <time>2023-02-05T09:06:49Z</time>
      </trkpt>
      <trkpt lat="44.12526" lon="7.26603">
        <ele>1670.2</ele>
        <time>2023-02-05T09:06:50Z</time>
      </trkpt>
      <trkpt lat="44.12525" lon="7.26603">
        <ele>1670.2</ele>
        <time>2023-02-05T09:06:51Z</time>
      </trkpt>
      <trkpt lat="44.12524" lon="7.26602">
        <ele>1670.2</ele>
        <time>2023-02-05T09:06:52Z</time>
      </trkpt>
      <trkpt lat="44.12524" lon="7.26602">
        <ele>1670.2</ele>
        <time>2023-02-05T09:06:53Z</time>
      </trkpt>
      <trkpt lat="44.12524" lon="7.26603">
        <ele>1670.2</ele>
        <time>2023-02-05T09:06:54Z</time>
      </trkpt>
      <trkpt lat="44.12524" lon="7.26603">
        <ele>1670.2</ele>
        <time>2023-02-05T09:06:55Z</time>
      </trkpt>
      <trkpt lat="44.12524" lon="7.26602">
        <ele>1670.2</ele>
        <time>2023-02-05T09:06:56Z</time>
      </trkpt>
      <trkpt lat="44.12523" lon="7.26602">
        <ele>1670.3</ele>
        <time>2023-02-05T09:06:57Z</time>
      </trkpt>
      <trkpt lat="44.12523" lon="7.26602">
        <ele>1670.3</ele>
        <time>2023-02-05T09:06:58Z</time>
      </trkpt>
      <trkpt lat="44.12523" lon="7.26602">
        <ele>1670.3</ele>
        <time>2023-02-05T09:06:59Z</time>
      </trkpt>
      <trkpt lat="44.12522" lon="7.26601">
        <ele>1670.3</ele>
        <time>2023-02-05T09:07:00Z</time>
      </trkpt>
      <trkpt lat="44.12521" lon="7.266">
        <ele>1670.3</ele>
        <time>2023-02-05T09:07:01Z</time>
      </trkpt>
      <trkpt lat="44.12521" lon="7.266">
        <ele>1670.3</ele>
        <time>2023-02-05T09:07:02Z</time>
      </trkpt>
      <trkpt lat="44.1252" lon="7.266">
        <ele>1670.3</ele>
        <time>2023-02-05T09:07:03Z</time>
      </trkpt>
      <trkpt lat="44.1252" lon="7.26599">
        <ele>1670.3</ele>
        <time>2023-02-05T09:07:04Z</time>
      </trkpt>
      <trkpt lat="44.1252" lon="7.26599">
        <ele>1670.4</ele>
        <time>2023-02-05T09:07:05Z</time>
      </trkpt>
      <trkpt lat="44.12519" lon="7.26598">
        <ele>1670.3</ele>
        <time>2023-02-05T09:07:06Z</time>
      </trkpt>
      <trkpt lat="44.12518" lon="7.26598">
        <ele>1670.3</ele>
        <time>2023-02-05T09:07:07Z</time>
      </trkpt>
      <trkpt lat="44.12517" lon="7.26597">
        <ele>1670.3</ele>
        <time>2023-02-05T09:07:08Z</time>
      </trkpt>
      <trkpt lat="44.12517" lon="7.26597">
        <ele>1670.2</ele>
        <time>2023-02-05T09:07:09Z</time>
      </trkpt>
      <trkpt lat="44.12516" lon="7.26596">
        <ele>1670.3</ele>
        <time>2023-02-05T09:07:10Z</time>
      </trkpt>
      <trkpt lat="44.12515" lon="7.26596">
        <ele>1670.3</ele>
        <time>2023-02-05T09:07:11Z</time>
      </trkpt>
      <trkpt lat="44.12515" lon="7.26596">
        <ele>1670.2</ele>
        <time>2023-02-05T09:07:12Z</time>
      </trkpt>
      <trkpt lat="44.12514" lon="7.26595">
        <ele>1670.1</ele>
        <time>2023-02-05T09:07:13Z</time>
      </trkpt>
      <trkpt lat="44.12514" lon="7.26594">
        <ele>1670.2</ele>
        <time>2023-02-05T09:07:14Z</time>
      </trkpt>
      <trkpt lat="44.12514" lon="7.26594">
        <ele>1670.3</ele>
        <time>2023-02-05T09:07:15Z</time>
      </trkpt>
      <trkpt lat="44.12514" lon="7.26594">
        <ele>1670.3</ele>
        <time>2023-02-05T09:07:16Z</time>
      </trkpt>
      <trkpt lat="44.12514" lon="7.26594">
        <ele>1670.3</ele>
        <time>2023-02-05T09:07:17Z</time>
      </trkpt>
      <trkpt lat="44.12513" lon="7.26594">
        <ele>1670.3</ele>
        <time>2023-02-05T09:07:18Z</time>
      </trkpt>
      <trkpt lat="44.12513" lon="7.26594">
        <ele>1670.3</ele>
        <time>2023-02-05T09:07:19Z</time>
      </trkpt>
      <trkpt lat="44.12513" lon="7.26593">
        <ele>1670.3</ele>
        <time>2023-02-05T09:07:20Z</time>
      </trkpt>
      <trkpt lat="44.12513" lon="7.26593">
        <ele>1670.3</ele>
        <time>2023-02-05T09:07:21Z</time>
      </trkpt>
      <trkpt lat="44.12512" lon="7.26593">
        <ele>1670.3</ele>
        <time>2023-02-05T09:07:22Z</time>
      </trkpt>
      <trkpt lat="44.12512" lon="7.26592">
        <ele>1670.3</ele>
        <time>2023-02-05T09:07:23Z</time>
      </trkpt>
      <trkpt lat="44.12511" lon="7.26592">
        <ele>1670.2</ele>
        <time>2023-02-05T09:07:24Z</time>
      </trkpt>
      <trkpt lat="44.12511" lon="7.26591">
        <ele>1670.2</ele>
        <time>2023-02-05T09:07:25Z</time>
      </trkpt>
      <trkpt lat="44.1251" lon="7.26591">
        <ele>1670.1</ele>
        <time>2023-02-05T09:07:26Z</time>
      </trkpt>
      <trkpt lat="44.1251" lon="7.2659">
        <ele>1670.1</ele>
        <time>2023-02-05T09:07:27Z</time>
      </trkpt>
      <trkpt lat="44.12509" lon="7.2659">
        <ele>1670.1</ele>
        <time>2023-02-05T09:07:28Z</time>
      </trkpt>
      <trkpt lat="44.12509" lon="7.26589">
        <ele>1670.1</ele>
        <time>2023-02-05T09:07:29Z</time>
      </trkpt>
      <trkpt lat="44.12508" lon="7.26589">
        <ele>1670.1</ele>
        <time>2023-02-05T09:07:30Z</time>
      </trkpt>
      <trkpt lat="44.12508" lon="7.26589">
        <ele>1670.2</ele>
        <time>2023-02-05T09:07:31Z</time>
      </trkpt>
      <trkpt lat="44.12508" lon="7.26589">
        <ele>1670.1</ele>
        <time>2023-02-05T09:07:32Z</time>
      </trkpt>
      <trkpt lat="44.12508" lon="7.26589">
        <ele>1670.1</ele>
        <time>2023-02-05T09:07:33Z</time>
      </trkpt>
      <trkpt lat="44.12508" lon="7.26589">
        <ele>1670.1</ele>
        <time>2023-02-05T09:07:34Z</time>
      </trkpt>
      <trkpt lat="44.12508" lon="7.26589">
        <ele>1670</ele>
        <time>2023-02-05T09:07:35Z</time>
      </trkpt>
      <trkpt lat="44.12508" lon="7.26589">
        <ele>1670.1</ele>
        <time>2023-02-05T09:07:36Z</time>
      </trkpt>
      <trkpt lat="44.12508" lon="7.26589">
        <ele>1670.1</ele>
        <time>2023-02-05T09:07:37Z</time>
      </trkpt>
      <trkpt lat="44.12508" lon="7.26589">
        <ele>1670</ele>
        <time>2023-02-05T09:07:38Z</time>
      </trkpt>
      <trkpt lat="44.12509" lon="7.26589">
        <ele>1670.1</ele>
        <time>2023-02-05T09:07:39Z</time>
      </trkpt>
      <trkpt lat="44.12509" lon="7.2659">
        <ele>1670.1</ele>
        <time>2023-02-05T09:07:40Z</time>
      </trkpt>
      <trkpt lat="44.12509" lon="7.2659">
        <ele>1670.1</ele>
        <time>2023-02-05T09:07:41Z</time>
      </trkpt>
      <trkpt lat="44.1251" lon="7.2659">
        <ele>1670.1</ele>
        <time>2023-02-05T09:07:42Z</time>
      </trkpt>
      <trkpt lat="44.1251" lon="7.2659">
        <ele>1670.2</ele>
        <time>2023-02-05T09:07:43Z</time>
      </trkpt>
      <trkpt lat="44.1251" lon="7.2659">
        <ele>1670.2</ele>
        <time>2023-02-05T09:07:44Z</time>
      </trkpt>
      <trkpt lat="44.12511" lon="7.2659">
        <ele>1670.2</ele>
        <time>2023-02-05T09:07:45Z</time>
      </trkpt>
      <trkpt lat="44.12511" lon="7.2659">
        <ele>1670.2</ele>
        <time>2023-02-05T09:07:46Z</time>
      </trkpt>
      <trkpt lat="44.12511" lon="7.26591">
        <ele>1670.2</ele>
        <time>2023-02-05T09:07:47Z</time>
      </trkpt>
      <trkpt lat="44.12512" lon="7.26591">
        <ele>1670.2</ele>
        <time>2023-02-05T09:07:48Z</time>
      </trkpt>
      <trkpt lat="44.12511" lon="7.26591">
        <ele>1670.3</ele>
        <time>2023-02-05T09:07:49Z</time>
      </trkpt>
      <trkpt lat="44.12512" lon="7.26591">
        <ele>1670.2</ele>
        <time>2023-02-05T09:07:50Z</time>
      </trkpt>
      <trkpt lat="44.12512" lon="7.26591">
        <ele>1670.2</ele>
        <time>2023-02-05T09:07:51Z</time>
      </trkpt>
      <trkpt lat="44.12511" lon="7.26591">
        <ele>1670.2</ele>
        <time>2023-02-05T09:07:52Z</time>
      </trkpt>
      <trkpt lat="44.12511" lon="7.26591">
        <ele>1670.3</ele>
        <time>2023-02-05T09:07:53Z</time>
      </trkpt>
      <trkpt lat="44.1251" lon="7.26591">
        <ele>1670.3</ele>
        <time>2023-02-05T09:07:54Z</time>
      </trkpt>
      <trkpt lat="44.1251" lon="7.2659">
        <ele>1670.3</ele>
        <time>2023-02-05T09:07:56Z</time>
      </trkpt>
      <trkpt lat="44.1251" lon="7.2659">
        <ele>1670.3</ele>
        <time>2023-02-05T09:07:57Z</time>
      </trkpt>
      <trkpt lat="44.1251" lon="7.2659">
        <ele>1670.2</ele>
        <time>2023-02-05T09:07:58Z</time>
      </trkpt>
      <trkpt lat="44.12509" lon="7.2659">
        <ele>1670.1</ele>
        <time>2023-02-05T09:07:59Z</time>
      </trkpt>
      <trkpt lat="44.12508" lon="7.2659">
        <ele>1670</ele>
        <time>2023-02-05T09:08:00Z</time>
      </trkpt>
      <trkpt lat="44.12507" lon="7.26589">
        <ele>1670.1</ele>
        <time>2023-02-05T09:08:01Z</time>
      </trkpt>
      <trkpt lat="44.12506" lon="7.26589">
        <ele>1670.1</ele>
        <time>2023-02-05T09:08:02Z</time>
      </trkpt>
      <trkpt lat="44.12506" lon="7.26589">
        <ele>1670.1</ele>
        <time>2023-02-05T09:08:03Z</time>
      </trkpt>
      <trkpt lat="44.12506" lon="7.26588">
        <ele>1670</ele>
        <time>2023-02-05T09:08:04Z</time>
      </trkpt>
      <trkpt lat="44.12506" lon="7.26588">
        <ele>1670.1</ele>
        <time>2023-02-05T09:08:05Z</time>
      </trkpt>
      <trkpt lat="44.12506" lon="7.26587">
        <ele>1670.1</ele>
        <time>2023-02-05T09:08:06Z</time>
      </trkpt>
      <trkpt lat="44.12505" lon="7.26587">
        <ele>1670.1</ele>
        <time>2023-02-05T09:08:07Z</time>
      </trkpt>
      <trkpt lat="44.12505" lon="7.26587">
        <ele>1670.1</ele>
        <time>2023-02-05T09:08:08Z</time>
      </trkpt>
      <trkpt lat="44.12505" lon="7.26586">
        <ele>1670</ele>
        <time>2023-02-05T09:08:09Z</time>
      </trkpt>
      <trkpt lat="44.12504" lon="7.26586">
        <ele>1670</ele>
        <time>2023-02-05T09:08:10Z</time>
      </trkpt>
      <trkpt lat="44.12504" lon="7.26586">
        <ele>1670</ele>
        <time>2023-02-05T09:08:11Z</time>
      </trkpt>
      <trkpt lat="44.12504" lon="7.26585">
        <ele>1670</ele>
        <time>2023-02-05T09:08:12Z</time>
      </trkpt>
      <trkpt lat="44.12504" lon="7.26585">
        <ele>1670</ele>
        <time>2023-02-05T09:08:13Z</time>
      </trkpt>
      <trkpt lat="44.12504" lon="7.26585">
        <ele>1670</ele>
        <time>2023-02-05T09:08:14Z</time>
      </trkpt>
      <trkpt lat="44.12504" lon="7.26585">
        <ele>1670</ele>
        <time>2023-02-05T09:08:15Z</time>
      </trkpt>
      <trkpt lat="44.12504" lon="7.26585">
        <ele>1670.1</ele>
        <time>2023-02-05T09:08:16Z</time>
      </trkpt>
      <trkpt lat="44.12504" lon="7.26585">
        <ele>1670.2</ele>
        <time>2023-02-05T09:08:17Z</time>
      </trkpt>
      <trkpt lat="44.12505" lon="7.26585">
        <ele>1670.2</ele>
        <time>2023-02-05T09:08:18Z</time>
      </trkpt>
      <trkpt lat="44.12505" lon="7.26586">
        <ele>1670.2</ele>
        <time>2023-02-05T09:08:19Z</time>
      </trkpt>
      <trkpt lat="44.12505" lon="7.26586">
        <ele>1670.3</ele>
        <time>2023-02-05T09:08:20Z</time>
      </trkpt>
      <trkpt lat="44.12505" lon="7.26586">
        <ele>1670.3</ele>
        <time>2023-02-05T09:08:21Z</time>
      </trkpt>
      <trkpt lat="44.12505" lon="7.26586">
        <ele>1670.3</ele>
        <time>2023-02-05T09:08:22Z</time>
      </trkpt>
      <trkpt lat="44.12506" lon="7.26586">
        <ele>1670.2</ele>
        <time>2023-02-05T09:08:23Z</time>
      </trkpt>
      <trkpt lat="44.12506" lon="7.26586">
        <ele>1670.2</ele>
        <time>2023-02-05T09:08:24Z</time>
      </trkpt>
      <trkpt lat="44.12507" lon="7.26586">
        <ele>1670.1</ele>
        <time>2023-02-05T09:08:25Z</time>
      </trkpt>
      <trkpt lat="44.12507" lon="7.26586">
        <ele>1670.1</ele>
        <time>2023-02-05T09:08:26Z</time>
      </trkpt>
      <trkpt lat="44.12507" lon="7.26586">
        <ele>1670.1</ele>
        <time>2023-02-05T09:08:27Z</time>
      </trkpt>
      <trkpt lat="44.12507" lon="7.26586">
        <ele>1670</ele>
        <time>2023-02-05T09:08:28Z</time>
      </trkpt>
      <trkpt lat="44.12507" lon="7.26586">
        <ele>1670</ele>
        <time>2023-02-05T09:08:29Z</time>
      </trkpt>
      <trkpt lat="44.12507" lon="7.26586">
        <ele>1670.1</ele>
        <time>2023-02-05T09:08:30Z</time>
      </trkpt>
      <trkpt lat="44.12506" lon="7.26585">
        <ele>1670.2</ele>
        <time>2023-02-05T09:08:31Z</time>
      </trkpt>
      <trkpt lat="44.12506" lon="7.26586">
        <ele>1670.2</ele>
        <time>2023-02-05T09:08:32Z</time>
      </trkpt>
      <trkpt lat="44.12505" lon="7.26585">
        <ele>1670.2</ele>
        <time>2023-02-05T09:08:33Z</time>
      </trkpt>
      <trkpt lat="44.12504" lon="7.26585">
        <ele>1670.2</ele>
        <time>2023-02-05T09:08:34Z</time>
      </trkpt>
      <trkpt lat="44.12503" lon="7.26584">
        <ele>1670.3</ele>
        <time>2023-02-05T09:08:35Z</time>
      </trkpt>
      <trkpt lat="44.12502" lon="7.26584">
        <ele>1670.2</ele>
        <time>2023-02-05T09:08:36Z</time>
      </trkpt>
      <trkpt lat="44.12502" lon="7.26584">
        <ele>1670.2</ele>
        <time>2023-02-05T09:08:37Z</time>
      </trkpt>
      <trkpt lat="44.12501" lon="7.26584">
        <ele>1670.3</ele>
        <time>2023-02-05T09:08:38Z</time>
      </trkpt>
      <trkpt lat="44.12501" lon="7.26584">
        <ele>1670.3</ele>
        <time>2023-02-05T09:08:39Z</time>
      </trkpt>
      <trkpt lat="44.125" lon="7.26583">
        <ele>1670.3</ele>
        <time>2023-02-05T09:08:40Z</time>
      </trkpt>
      <trkpt lat="44.125" lon="7.26583">
        <ele>1670.3</ele>
        <time>2023-02-05T09:08:41Z</time>
      </trkpt>
      <trkpt lat="44.125" lon="7.26583">
        <ele>1670.3</ele>
        <time>2023-02-05T09:08:42Z</time>
      </trkpt>
      <trkpt lat="44.125" lon="7.26583">
        <ele>1670.3</ele>
        <time>2023-02-05T09:08:43Z</time>
      </trkpt>
      <trkpt lat="44.125" lon="7.26583">
        <ele>1670.2</ele>
        <time>2023-02-05T09:08:44Z</time>
      </trkpt>
      <trkpt lat="44.125" lon="7.26583">
        <ele>1670.2</ele>
        <time>2023-02-05T09:08:45Z</time>
      </trkpt>
      <trkpt lat="44.125" lon="7.26583">
        <ele>1670.2</ele>
        <time>2023-02-05T09:08:46Z</time>
      </trkpt>
      <trkpt lat="44.125" lon="7.26583">
        <ele>1670.1</ele>
        <time>2023-02-05T09:08:47Z</time>
      </trkpt>
      <trkpt lat="44.12501" lon="7.26584">
        <ele>1670.1</ele>
        <time>2023-02-05T09:08:48Z</time>
      </trkpt>
      <trkpt lat="44.12502" lon="7.26584">
        <ele>1670.2</ele>
        <time>2023-02-05T09:08:49Z</time>
      </trkpt>
      <trkpt lat="44.12503" lon="7.26584">
        <ele>1670.2</ele>
        <time>2023-02-05T09:08:50Z</time>
      </trkpt>
      <trkpt lat="44.12503" lon="7.26585">
        <ele>1670.1</ele>
        <time>2023-02-05T09:08:51Z</time>
      </trkpt>
      <trkpt lat="44.12503" lon="7.26585">
        <ele>1670.1</ele>
        <time>2023-02-05T09:08:52Z</time>
      </trkpt>
      <trkpt lat="44.12504" lon="7.26585">
        <ele>1670.3</ele>
        <time>2023-02-05T09:08:53Z</time>
      </trkpt>
      <trkpt lat="44.12505" lon="7.26586">
        <ele>1670.3</ele>
        <time>2023-02-05T09:08:54Z</time>
      </trkpt>
      <trkpt lat="44.12505" lon="7.26587">
        <ele>1670.3</ele>
        <time>2023-02-05T09:08:55Z</time>
      </trkpt>
      <trkpt lat="44.12506" lon="7.26587">
        <ele>1670.3</ele>
        <time>2023-02-05T09:08:56Z</time>
      </trkpt>
      <trkpt lat="44.12506" lon="7.26588">
        <ele>1670.3</ele>
        <time>2023-02-05T09:08:57Z</time>
      </trkpt>
      <trkpt lat="44.12506" lon="7.26588">
        <ele>1670.2</ele>
        <time>2023-02-05T09:08:58Z</time>
      </trkpt>
      <trkpt lat="44.12507" lon="7.26589">
        <ele>1670.1</ele>
        <time>2023-02-05T09:08:59Z</time>
      </trkpt>
      <trkpt lat="44.12507" lon="7.26589">
        <ele>1670</ele>
        <time>2023-02-05T09:09:00Z</time>
      </trkpt>
      <trkpt lat="44.12508" lon="7.2659">
        <ele>1670</ele>
        <time>2023-02-05T09:09:01Z</time>
      </trkpt>
      <trkpt lat="44.12509" lon="7.2659">
        <ele>1670</ele>
        <time>2023-02-05T09:09:02Z</time>
      </trkpt>
      <trkpt lat="44.12509" lon="7.26591">
        <ele>1670</ele>
        <time>2023-02-05T09:09:03Z</time>
      </trkpt>
      <trkpt lat="44.1251" lon="7.26591">
        <ele>1670</ele>
        <time>2023-02-05T09:09:04Z</time>
      </trkpt>
      <trkpt lat="44.1251" lon="7.26592">
        <ele>1670</ele>
        <time>2023-02-05T09:09:05Z</time>
      </trkpt>
      <trkpt lat="44.12511" lon="7.26593">
        <ele>1670.1</ele>
        <time>2023-02-05T09:09:06Z</time>
      </trkpt>
      <trkpt lat="44.12511" lon="7.26593">
        <ele>1670.1</ele>
        <time>2023-02-05T09:09:07Z</time>
      </trkpt>
      <trkpt lat="44.12512" lon="7.26594">
        <ele>1670.1</ele>
        <time>2023-02-05T09:09:08Z</time>
      </trkpt>
      <trkpt lat="44.12512" lon="7.26594">
        <ele>1670.1</ele>
        <time>2023-02-05T09:09:09Z</time>
      </trkpt>
      <trkpt lat="44.12513" lon="7.26595">
        <ele>1670.1</ele>
        <time>2023-02-05T09:09:10Z</time>
      </trkpt>
      <trkpt lat="44.12513" lon="7.26595">
        <ele>1670</ele>
        <time>2023-02-05T09:09:11Z</time>
      </trkpt>
      <trkpt lat="44.12514" lon="7.26596">
        <ele>1669.9</ele>
        <time>2023-02-05T09:09:12Z</time>
      </trkpt>
      <trkpt lat="44.12514" lon="7.26596">
        <ele>1670</ele>
        <time>2023-02-05T09:09:13Z</time>
      </trkpt>
      <trkpt lat="44.12515" lon="7.26596">
        <ele>1670</ele>
        <time>2023-02-05T09:09:14Z</time>
      </trkpt>
      <trkpt lat="44.12515" lon="7.26596">
        <ele>1670</ele>
        <time>2023-02-05T09:09:15Z</time>
      </trkpt>
      <trkpt lat="44.12516" lon="7.26596">
        <ele>1670</ele>
        <time>2023-02-05T09:09:16Z</time>
      </trkpt>
      <trkpt lat="44.12517" lon="7.26597">
        <ele>1670</ele>
        <time>2023-02-05T09:09:17Z</time>
      </trkpt>
      <trkpt lat="44.12518" lon="7.26597">
        <ele>1670</ele>
        <time>2023-02-05T09:09:18Z</time>
      </trkpt>
      <trkpt lat="44.12519" lon="7.26597">
        <ele>1670</ele>
        <time>2023-02-05T09:09:19Z</time>
      </trkpt>
      <trkpt lat="44.12519" lon="7.26596">
        <ele>1670.1</ele>
        <time>2023-02-05T09:09:20Z</time>
      </trkpt>
      <trkpt lat="44.12519" lon="7.26596">
        <ele>1670.2</ele>
        <time>2023-02-05T09:09:21Z</time>
      </trkpt>
      <trkpt lat="44.1252" lon="7.26596">
        <ele>1670.2</ele>
        <time>2023-02-05T09:09:22Z</time>
      </trkpt>
      <trkpt lat="44.12521" lon="7.26595">
        <ele>1670.2</ele>
        <time>2023-02-05T09:09:23Z</time>
      </trkpt>
      <trkpt lat="44.12522" lon="7.26595">
        <ele>1670.4</ele>
        <time>2023-02-05T09:09:24Z</time>
      </trkpt>
      <trkpt lat="44.12522" lon="7.26594">
        <ele>1670.5</ele>
        <time>2023-02-05T09:09:25Z</time>
      </trkpt>
      <trkpt lat="44.12523" lon="7.26594">
        <ele>1670.6</ele>
        <time>2023-02-05T09:09:26Z</time>
      </trkpt>
      <trkpt lat="44.12524" lon="7.26593">
        <ele>1670.7</ele>
        <time>2023-02-05T09:09:27Z</time>
      </trkpt>
      <trkpt lat="44.12524" lon="7.26593">
        <ele>1670.6</ele>
        <time>2023-02-05T09:09:28Z</time>
      </trkpt>
      <trkpt lat="44.12525" lon="7.26593">
        <ele>1670.7</ele>
        <time>2023-02-05T09:09:29Z</time>
      </trkpt>
      <trkpt lat="44.12525" lon="7.26593">
        <ele>1670.8</ele>
        <time>2023-02-05T09:09:30Z</time>
      </trkpt>
      <trkpt lat="44.12526" lon="7.26592">
        <ele>1671</ele>
        <time>2023-02-05T09:09:31Z</time>
      </trkpt>
      <trkpt lat="44.12526" lon="7.26592">
        <ele>1671</ele>
        <time>2023-02-05T09:09:32Z</time>
      </trkpt>
      <trkpt lat="44.12527" lon="7.26592">
        <ele>1671</ele>
        <time>2023-02-05T09:09:33Z</time>
      </trkpt>
      <trkpt lat="44.12528" lon="7.26592">
        <ele>1671</ele>
        <time>2023-02-05T09:09:34Z</time>
      </trkpt>
      <trkpt lat="44.12529" lon="7.26591">
        <ele>1671</ele>
        <time>2023-02-05T09:09:35Z</time>
      </trkpt>
      <trkpt lat="44.1253" lon="7.26591">
        <ele>1671</ele>
        <time>2023-02-05T09:09:36Z</time>
      </trkpt>
      <trkpt lat="44.1253" lon="7.2659">
        <ele>1671</ele>
        <time>2023-02-05T09:09:37Z</time>
      </trkpt>
      <trkpt lat="44.12531" lon="7.2659">
        <ele>1671.1</ele>
        <time>2023-02-05T09:09:38Z</time>
      </trkpt>
      <trkpt lat="44.12531" lon="7.26589">
        <ele>1671.1</ele>
        <time>2023-02-05T09:09:39Z</time>
      </trkpt>
      <trkpt lat="44.12532" lon="7.26589">
        <ele>1671.1</ele>
        <time>2023-02-05T09:09:40Z</time>
      </trkpt>
      <trkpt lat="44.12533" lon="7.26588">
        <ele>1671.2</ele>
        <time>2023-02-05T09:09:41Z</time>
      </trkpt>
      <trkpt lat="44.12534" lon="7.26588">
        <ele>1671.3</ele>
        <time>2023-02-05T09:09:42Z</time>
      </trkpt>
      <trkpt lat="44.12535" lon="7.26589">
        <ele>1671.3</ele>
        <time>2023-02-05T09:09:43Z</time>
      </trkpt>
      <trkpt lat="44.12535" lon="7.26588">
        <ele>1671.4</ele>
        <time>2023-02-05T09:09:44Z</time>
      </trkpt>
      <trkpt lat="44.12535" lon="7.26587">
        <ele>1671.5</ele>
        <time>2023-02-05T09:09:45Z</time>
      </trkpt>
      <trkpt lat="44.12535" lon="7.26586">
        <ele>1671.6</ele>
        <time>2023-02-05T09:09:46Z</time>
      </trkpt>
      <trkpt lat="44.12536" lon="7.26585">
        <ele>1671.7</ele>
        <time>2023-02-05T09:09:47Z</time>
      </trkpt>
      <trkpt lat="44.12536" lon="7.26584">
        <ele>1671.8</ele>
        <time>2023-02-05T09:09:48Z</time>
      </trkpt>
      <trkpt lat="44.12536" lon="7.26583">
        <ele>1672</ele>
        <time>2023-02-05T09:09:49Z</time>
      </trkpt>
      <trkpt lat="44.12536" lon="7.26582">
        <ele>1672.1</ele>
        <time>2023-02-05T09:09:50Z</time>
      </trkpt>
      <trkpt lat="44.12537" lon="7.26581">
        <ele>1672.1</ele>
        <time>2023-02-05T09:09:51Z</time>
      </trkpt>
      <trkpt lat="44.12537" lon="7.2658">
        <ele>1672.3</ele>
        <time>2023-02-05T09:09:52Z</time>
      </trkpt>
      <trkpt lat="44.12537" lon="7.26579">
        <ele>1672.4</ele>
        <time>2023-02-05T09:09:53Z</time>
      </trkpt>
      <trkpt lat="44.12537" lon="7.26578">
        <ele>1672.4</ele>
        <time>2023-02-05T09:09:54Z</time>
      </trkpt>
      <trkpt lat="44.12537" lon="7.26577">
        <ele>1672.5</ele>
        <time>2023-02-05T09:09:55Z</time>
      </trkpt>
      <trkpt lat="44.12538" lon="7.26576">
        <ele>1672.5</ele>
        <time>2023-02-05T09:09:56Z</time>
      </trkpt>
      <trkpt lat="44.12538" lon="7.26575">
        <ele>1672.5</ele>
        <time>2023-02-05T09:09:57Z</time>
      </trkpt>
      <trkpt lat="44.12538" lon="7.26574">
        <ele>1672.7</ele>
        <time>2023-02-05T09:09:58Z</time>
      </trkpt>
      <trkpt lat="44.12538" lon="7.26573">
        <ele>1672.7</ele>
        <time>2023-02-05T09:09:59Z</time>
      </trkpt>
      <trkpt lat="44.12539" lon="7.26572">
        <ele>1672.7</ele>
        <time>2023-02-05T09:10:00Z</time>
      </trkpt>
      <trkpt lat="44.12539" lon="7.26572">
        <ele>1672.7</ele>
        <time>2023-02-05T09:10:01Z</time>
      </trkpt>
      <trkpt lat="44.1254" lon="7.26571">
        <ele>1672.7</ele>
        <time>2023-02-05T09:10:02Z</time>
      </trkpt>
      <trkpt lat="44.1254" lon="7.2657">
        <ele>1672.7</ele>
        <time>2023-02-05T09:10:03Z</time>
      </trkpt>
      <trkpt lat="44.1254" lon="7.26569">
        <ele>1672.8</ele>
        <time>2023-02-05T09:10:04Z</time>
      </trkpt>
      <trkpt lat="44.12541" lon="7.26568">
        <ele>1672.8</ele>
        <time>2023-02-05T09:10:05Z</time>
      </trkpt>
      <trkpt lat="44.12541" lon="7.26567">
        <ele>1672.9</ele>
        <time>2023-02-05T09:10:06Z</time>
      </trkpt>
      <trkpt lat="44.12541" lon="7.26566">
        <ele>1672.9</ele>
        <time>2023-02-05T09:10:07Z</time>
      </trkpt>
      <trkpt lat="44.1254" lon="7.26564">
        <ele>1672.9</ele>
        <time>2023-02-05T09:10:08Z</time>
      </trkpt>
      <trkpt lat="44.1254" lon="7.26563">
        <ele>1672.8</ele>
        <time>2023-02-05T09:10:09Z</time>
      </trkpt>
      <trkpt lat="44.1254" lon="7.26561">
        <ele>1672.8</ele>
        <time>2023-02-05T09:10:10Z</time>
      </trkpt>
      <trkpt lat="44.1254" lon="7.2656">
        <ele>1673</ele>
        <time>2023-02-05T09:10:11Z</time>
      </trkpt>
      <trkpt lat="44.1254" lon="7.26559">
        <ele>1673.1</ele>
        <time>2023-02-05T09:10:12Z</time>
      </trkpt>
      <trkpt lat="44.12539" lon="7.26557">
        <ele>1673.2</ele>
        <time>2023-02-05T09:10:13Z</time>
      </trkpt>
      <trkpt lat="44.12539" lon="7.26556">
        <ele>1673.3</ele>
        <time>2023-02-05T09:10:14Z</time>
      </trkpt>
      <trkpt lat="44.12539" lon="7.26555">
        <ele>1673.5</ele>
        <time>2023-02-05T09:10:15Z</time>
      </trkpt>
      <trkpt lat="44.12539" lon="7.26554">
        <ele>1673.5</ele>
        <time>2023-02-05T09:10:16Z</time>
      </trkpt>
      <trkpt lat="44.12539" lon="7.26552">
        <ele>1673.6</ele>
        <time>2023-02-05T09:10:17Z</time>
      </trkpt>
      <trkpt lat="44.12539" lon="7.26551">
        <ele>1673.7</ele>
        <time>2023-02-05T09:10:18Z</time>
      </trkpt>
      <trkpt lat="44.1254" lon="7.2655">
        <ele>1673.8</ele>
        <time>2023-02-05T09:10:19Z</time>
      </trkpt>
      <trkpt lat="44.12541" lon="7.26549">
        <ele>1673.8</ele>
        <time>2023-02-05T09:10:20Z</time>
      </trkpt>
      <trkpt lat="44.12542" lon="7.26549">
        <ele>1673.9</ele>
        <time>2023-02-05T09:10:21Z</time>
      </trkpt>
      <trkpt lat="44.12542" lon="7.26548">
        <ele>1673.9</ele>
        <time>2023-02-05T09:10:22Z</time>
      </trkpt>
      <trkpt lat="44.12543" lon="7.26546">
        <ele>1674</ele>
        <time>2023-02-05T09:10:23Z</time>
      </trkpt>
      <trkpt lat="44.12543" lon="7.26545">
        <ele>1674.2</ele>
        <time>2023-02-05T09:10:24Z</time>
      </trkpt>
      <trkpt lat="44.12542" lon="7.26543">
        <ele>1674.4</ele>
        <time>2023-02-05T09:10:25Z</time>
      </trkpt>
      <trkpt lat="44.12542" lon="7.26542">
        <ele>1674.5</ele>
        <time>2023-02-05T09:10:26Z</time>
      </trkpt>
      <trkpt lat="44.12543" lon="7.26541">
        <ele>1674.6</ele>
        <time>2023-02-05T09:10:27Z</time>
      </trkpt>
      <trkpt lat="44.12543" lon="7.2654">
        <ele>1674.6</ele>
        <time>2023-02-05T09:10:28Z</time>
      </trkpt>
      <trkpt lat="44.12543" lon="7.26538">
        <ele>1674.7</ele>
        <time>2023-02-05T09:10:29Z</time>
      </trkpt>
      <trkpt lat="44.12543" lon="7.26537">
        <ele>1674.7</ele>
        <time>2023-02-05T09:10:30Z</time>
      </trkpt>
      <trkpt lat="44.12542" lon="7.26536">
        <ele>1674.7</ele>
        <time>2023-02-05T09:10:31Z</time>
      </trkpt>
      <trkpt lat="44.12542" lon="7.26534">
        <ele>1674.8</ele>
        <time>2023-02-05T09:10:32Z</time>
      </trkpt>
      <trkpt lat="44.12543" lon="7.26534">
        <ele>1674.9</ele>
        <time>2023-02-05T09:10:33Z</time>
      </trkpt>
      <trkpt lat="44.12543" lon="7.26533">
        <ele>1675</ele>
        <time>2023-02-05T09:10:34Z</time>
      </trkpt>
      <trkpt lat="44.12543" lon="7.26532">
        <ele>1675</ele>
        <time>2023-02-05T09:10:35Z</time>
      </trkpt>
      <trkpt lat="44.12543" lon="7.26531">
        <ele>1675.1</ele>
        <time>2023-02-05T09:10:36Z</time>
      </trkpt>
      <trkpt lat="44.12543" lon="7.26531">
        <ele>1675.2</ele>
        <time>2023-02-05T09:10:37Z</time>
      </trkpt>
      <trkpt lat="44.12543" lon="7.2653">
        <ele>1675.3</ele>
        <time>2023-02-05T09:10:38Z</time>
      </trkpt>
      <trkpt lat="44.12544" lon="7.26529">
        <ele>1675.3</ele>
        <time>2023-02-05T09:10:39Z</time>
      </trkpt>
      <trkpt lat="44.12544" lon="7.26528">
        <ele>1675.2</ele>
        <time>2023-02-05T09:10:40Z</time>
      </trkpt>
      <trkpt lat="44.12544" lon="7.26526">
        <ele>1675.2</ele>
        <time>2023-02-05T09:10:41Z</time>
      </trkpt>
      <trkpt lat="44.12544" lon="7.26525">
        <ele>1675.2</ele>
        <time>2023-02-05T09:10:42Z</time>
      </trkpt>
      <trkpt lat="44.12544" lon="7.26524">
        <ele>1675.3</ele>
        <time>2023-02-05T09:10:43Z</time>
      </trkpt>
      <trkpt lat="44.12546" lon="7.26524">
        <ele>1675.4</ele>
        <time>2023-02-05T09:10:44Z</time>
      </trkpt>
      <trkpt lat="44.12547" lon="7.26523">
        <ele>1675.5</ele>
        <time>2023-02-05T09:10:45Z</time>
      </trkpt>
      <trkpt lat="44.12548" lon="7.26523">
        <ele>1675.5</ele>
        <time>2023-02-05T09:10:46Z</time>
      </trkpt>
      <trkpt lat="44.12548" lon="7.26522">
        <ele>1675.6</ele>
        <time>2023-02-05T09:10:47Z</time>
      </trkpt>
      <trkpt lat="44.12549" lon="7.26521">
        <ele>1675.6</ele>
        <time>2023-02-05T09:10:48Z</time>
      </trkpt>
      <trkpt lat="44.12549" lon="7.2652">
        <ele>1675.6</ele>
        <time>2023-02-05T09:10:49Z</time>
      </trkpt>
      <trkpt lat="44.12548" lon="7.26519">
        <ele>1675.6</ele>
        <time>2023-02-05T09:10:50Z</time>
      </trkpt>
      <trkpt lat="44.12548" lon="7.26518">
        <ele>1675.7</ele>
        <time>2023-02-05T09:10:51Z</time>
      </trkpt>
      <trkpt lat="44.12547" lon="7.26517">
        <ele>1675.7</ele>
        <time>2023-02-05T09:10:52Z</time>
      </trkpt>
      <trkpt lat="44.12547" lon="7.26516">
        <ele>1675.9</ele>
        <time>2023-02-05T09:10:53Z</time>
      </trkpt>
      <trkpt lat="44.12547" lon="7.26515">
        <ele>1675.9</ele>
        <time>2023-02-05T09:10:54Z</time>
      </trkpt>
      <trkpt lat="44.12545" lon="7.26514">
        <ele>1675.9</ele>
        <time>2023-02-05T09:10:55Z</time>
      </trkpt>
      <trkpt lat="44.12546" lon="7.26513">
        <ele>1675.9</ele>
        <time>2023-02-05T09:10:56Z</time>
      </trkpt>
      <trkpt lat="44.12546" lon="7.26512">
        <ele>1676</ele>
        <time>2023-02-05T09:10:57Z</time>
      </trkpt>
      <trkpt lat="44.12547" lon="7.26511">
        <ele>1676.1</ele>
        <time>2023-02-05T09:10:58Z</time>
      </trkpt>
      <trkpt lat="44.12548" lon="7.26511">
        <ele>1676.2</ele>
        <time>2023-02-05T09:10:59Z</time>
      </trkpt>
      <trkpt lat="44.12548" lon="7.2651">
        <ele>1676.2</ele>
        <time>2023-02-05T09:11:00Z</time>
      </trkpt>
      <trkpt lat="44.12549" lon="7.26509">
        <ele>1676.3</ele>
        <time>2023-02-05T09:11:01Z</time>
      </trkpt>
      <trkpt lat="44.12549" lon="7.26508">
        <ele>1676.3</ele>
        <time>2023-02-05T09:11:02Z</time>
      </trkpt>
      <trkpt lat="44.1255" lon="7.26507">
        <ele>1676.4</ele>
        <time>2023-02-05T09:11:03Z</time>
      </trkpt>
      <trkpt lat="44.12551" lon="7.26507">
        <ele>1676.4</ele>
        <time>2023-02-05T09:11:04Z</time>
      </trkpt>
      <trkpt lat="44.12553" lon="7.26506">
        <ele>1676.5</ele>
        <time>2023-02-05T09:11:05Z</time>
      </trkpt>
      <trkpt lat="44.12554" lon="7.26505">
        <ele>1676.5</ele>
        <time>2023-02-05T09:11:06Z</time>
      </trkpt>
      <trkpt lat="44.12554" lon="7.26505">
        <ele>1676.6</ele>
        <time>2023-02-05T09:11:07Z</time>
      </trkpt>
      <trkpt lat="44.12555" lon="7.26504">
        <ele>1676.6</ele>
        <time>2023-02-05T09:11:08Z</time>
      </trkpt>
      <trkpt lat="44.12555" lon="7.26504">
        <ele>1676.6</ele>
        <time>2023-02-05T09:11:09Z</time>
      </trkpt>
      <trkpt lat="44.12556" lon="7.26504">
        <ele>1676.7</ele>
        <time>2023-02-05T09:11:10Z</time>
      </trkpt>
      <trkpt lat="44.12556" lon="7.26503">
        <ele>1676.8</ele>
        <time>2023-02-05T09:11:11Z</time>
      </trkpt>
      <trkpt lat="44.12557" lon="7.26502">
        <ele>1676.9</ele>
        <time>2023-02-05T09:11:12Z</time>
      </trkpt>
      <trkpt lat="44.12558" lon="7.26502">
        <ele>1677</ele>
        <time>2023-02-05T09:11:13Z</time>
      </trkpt>
      <trkpt lat="44.12559" lon="7.26502">
        <ele>1677</ele>
        <time>2023-02-05T09:11:14Z</time>
      </trkpt>
      <trkpt lat="44.1256" lon="7.26501">
        <ele>1677.2</ele>
        <time>2023-02-05T09:11:15Z</time>
      </trkpt>
      <trkpt lat="44.1256" lon="7.265">
        <ele>1677.3</ele>
        <time>2023-02-05T09:11:16Z</time>
      </trkpt>
      <trkpt lat="44.12561" lon="7.26499">
        <ele>1677.4</ele>
        <time>2023-02-05T09:11:17Z</time>
      </trkpt>
      <trkpt lat="44.12561" lon="7.26498">
        <ele>1677.4</ele>
        <time>2023-02-05T09:11:18Z</time>
      </trkpt>
      <trkpt lat="44.12561" lon="7.26497">
        <ele>1677.5</ele>
        <time>2023-02-05T09:11:19Z</time>
      </trkpt>
      <trkpt lat="44.12564" lon="7.26497">
        <ele>1677.5</ele>
        <time>2023-02-05T09:11:20Z</time>
      </trkpt>
      <trkpt lat="44.12564" lon="7.26496">
        <ele>1677.6</ele>
        <time>2023-02-05T09:11:21Z</time>
      </trkpt>
      <trkpt lat="44.12565" lon="7.26495">
        <ele>1677.7</ele>
        <time>2023-02-05T09:11:22Z</time>
      </trkpt>
      <trkpt lat="44.12566" lon="7.26494">
        <ele>1677.8</ele>
        <time>2023-02-05T09:11:23Z</time>
      </trkpt>
      <trkpt lat="44.12566" lon="7.26492">
        <ele>1677.9</ele>
        <time>2023-02-05T09:11:24Z</time>
      </trkpt>
      <trkpt lat="44.12565" lon="7.26491">
        <ele>1677.9</ele>
        <time>2023-02-05T09:11:25Z</time>
      </trkpt>
      <trkpt lat="44.12565" lon="7.26489">
        <ele>1677.9</ele>
        <time>2023-02-05T09:11:26Z</time>
      </trkpt>
      <trkpt lat="44.12564" lon="7.26487">
        <ele>1678</ele>
        <time>2023-02-05T09:11:27Z</time>
      </trkpt>
      <trkpt lat="44.12564" lon="7.26486">
        <ele>1678.1</ele>
        <time>2023-02-05T09:11:28Z</time>
      </trkpt>
      <trkpt lat="44.12564" lon="7.26485">
        <ele>1678.1</ele>
        <time>2023-02-05T09:11:29Z</time>
      </trkpt>
      <trkpt lat="44.12564" lon="7.26483">
        <ele>1678.2</ele>
        <time>2023-02-05T09:11:30Z</time>
      </trkpt>
      <trkpt lat="44.12563" lon="7.26482">
        <ele>1678.3</ele>
        <time>2023-02-05T09:11:31Z</time>
      </trkpt>
      <trkpt lat="44.1256" lon="7.2648">
        <ele>1678.3</ele>
        <time>2023-02-05T09:11:32Z</time>
      </trkpt>
      <trkpt lat="44.1256" lon="7.26477">
        <ele>1678.4</ele>
        <time>2023-02-05T09:11:33Z</time>
      </trkpt>
      <trkpt lat="44.12559" lon="7.26475">
        <ele>1678.4</ele>
        <time>2023-02-05T09:11:34Z</time>
      </trkpt>
      <trkpt lat="44.1256" lon="7.26474">
        <ele>1678.5</ele>
        <time>2023-02-05T09:11:35Z</time>
      </trkpt>
      <trkpt lat="44.12559" lon="7.26473">
        <ele>1678.5</ele>
        <time>2023-02-05T09:11:36Z</time>
      </trkpt>
      <trkpt lat="44.12558" lon="7.26471">
        <ele>1678.5</ele>
        <time>2023-02-05T09:11:37Z</time>
      </trkpt>
      <trkpt lat="44.12556" lon="7.26469">
        <ele>1678.7</ele>
        <time>2023-02-05T09:11:38Z</time>
      </trkpt>
      <trkpt lat="44.12556" lon="7.26468">
        <ele>1678.8</ele>
        <time>2023-02-05T09:11:39Z</time>
      </trkpt>
      <trkpt lat="44.12557" lon="7.26467">
        <ele>1678.9</ele>
        <time>2023-02-05T09:11:40Z</time>
      </trkpt>
      <trkpt lat="44.12558" lon="7.26466">
        <ele>1679</ele>
        <time>2023-02-05T09:11:41Z</time>
      </trkpt>
      <trkpt lat="44.1256" lon="7.26465">
        <ele>1679.1</ele>
        <time>2023-02-05T09:11:42Z</time>
      </trkpt>
      <trkpt lat="44.1256" lon="7.26464">
        <ele>1679.2</ele>
        <time>2023-02-05T09:11:43Z</time>
      </trkpt>
      <trkpt lat="44.12561" lon="7.26463">
        <ele>1679.2</ele>
        <time>2023-02-05T09:11:44Z</time>
      </trkpt>
      <trkpt lat="44.1256" lon="7.26462">
        <ele>1679.2</ele>
        <time>2023-02-05T09:11:45Z</time>
      </trkpt>
      <trkpt lat="44.1256" lon="7.2646">
        <ele>1679.2</ele>
        <time>2023-02-05T09:11:46Z</time>
      </trkpt>
      <trkpt lat="44.1256" lon="7.26459">
        <ele>1679.4</ele>
        <time>2023-02-05T09:11:47Z</time>
      </trkpt>
      <trkpt lat="44.12559" lon="7.26457">
        <ele>1679.4</ele>
        <time>2023-02-05T09:11:48Z</time>
      </trkpt>
      <trkpt lat="44.12559" lon="7.26456">
        <ele>1679.4</ele>
        <time>2023-02-05T09:11:49Z</time>
      </trkpt>
      <trkpt lat="44.12559" lon="7.26455">
        <ele>1679.5</ele>
        <time>2023-02-05T09:11:50Z</time>
      </trkpt>
      <trkpt lat="44.12558" lon="7.26454">
        <ele>1679.6</ele>
        <time>2023-02-05T09:11:51Z</time>
      </trkpt>
      <trkpt lat="44.12558" lon="7.26453">
        <ele>1679.7</ele>
        <time>2023-02-05T09:11:52Z</time>
      </trkpt>
      <trkpt lat="44.12559" lon="7.26451">
        <ele>1679.9</ele>
        <time>2023-02-05T09:11:53Z</time>
      </trkpt>
      <trkpt lat="44.1256" lon="7.2645">
        <ele>1680</ele>
        <time>2023-02-05T09:11:54Z</time>
      </trkpt>
      <trkpt lat="44.12561" lon="7.26449">
        <ele>1680.1</ele>
        <time>2023-02-05T09:11:55Z</time>
      </trkpt>
      <trkpt lat="44.12562" lon="7.26448">
        <ele>1680.2</ele>
        <time>2023-02-05T09:11:56Z</time>
      </trkpt>
      <trkpt lat="44.12562" lon="7.26447">
        <ele>1680.5</ele>
        <time>2023-02-05T09:11:57Z</time>
      </trkpt>
      <trkpt lat="44.12564" lon="7.26446">
        <ele>1680.5</ele>
        <time>2023-02-05T09:11:58Z</time>
      </trkpt>
      <trkpt lat="44.12564" lon="7.26445">
        <ele>1680.5</ele>
        <time>2023-02-05T09:11:59Z</time>
      </trkpt>
      <trkpt lat="44.12565" lon="7.26444">
        <ele>1680.6</ele>
        <time>2023-02-05T09:12:00Z</time>
      </trkpt>
      <trkpt lat="44.12568" lon="7.26444">
        <ele>1680.7</ele>
        <time>2023-02-05T09:12:01Z</time>
      </trkpt>
      <trkpt lat="44.12569" lon="7.26443">
        <ele>1680.7</ele>
        <time>2023-02-05T09:12:02Z</time>
      </trkpt>
      <trkpt lat="44.12569" lon="7.26441">
        <ele>1680.9</ele>
        <time>2023-02-05T09:12:03Z</time>
      </trkpt>
      <trkpt lat="44.12571" lon="7.2644">
        <ele>1681</ele>
        <time>2023-02-05T09:12:04Z</time>
      </trkpt>
      <trkpt lat="44.12571" lon="7.26439">
        <ele>1681.1</ele>
        <time>2023-02-05T09:12:05Z</time>
      </trkpt>
      <trkpt lat="44.12571" lon="7.26438">
        <ele>1681.2</ele>
        <time>2023-02-05T09:12:06Z</time>
      </trkpt>
      <trkpt lat="44.12571" lon="7.26437">
        <ele>1681.2</ele>
        <time>2023-02-05T09:12:07Z</time>
      </trkpt>
      <trkpt lat="44.1257" lon="7.26435">
        <ele>1681.3</ele>
        <time>2023-02-05T09:12:08Z</time>
      </trkpt>
      <trkpt lat="44.1257" lon="7.26434">
        <ele>1681.4</ele>
        <time>2023-02-05T09:12:09Z</time>
      </trkpt>
      <trkpt lat="44.12571" lon="7.26433">
        <ele>1681.5</ele>
        <time>2023-02-05T09:12:10Z</time>
      </trkpt>
      <trkpt lat="44.12571" lon="7.26432">
        <ele>1681.6</ele>
        <time>2023-02-05T09:12:11Z</time>
      </trkpt>
      <trkpt lat="44.12572" lon="7.26431">
        <ele>1681.8</ele>
        <time>2023-02-05T09:12:12Z</time>
      </trkpt>
      <trkpt lat="44.12573" lon="7.26431">
        <ele>1681.9</ele>
        <time>2023-02-05T09:12:13Z</time>
      </trkpt>
      <trkpt lat="44.12573" lon="7.26429">
        <ele>1682.1</ele>
        <time>2023-02-05T09:12:14Z</time>
      </trkpt>
      <trkpt lat="44.12574" lon="7.26429">
        <ele>1682.2</ele>
        <time>2023-02-05T09:12:15Z</time>
      </trkpt>
      <trkpt lat="44.12575" lon="7.26428">
        <ele>1682.3</ele>
        <time>2023-02-05T09:12:16Z</time>
      </trkpt>
      <trkpt lat="44.12575" lon="7.26426">
        <ele>1682.4</ele>
        <time>2023-02-05T09:12:17Z</time>
      </trkpt>
      <trkpt lat="44.12575" lon="7.26426">
        <ele>1682.5</ele>
        <time>2023-02-05T09:12:18Z</time>
      </trkpt>
      <trkpt lat="44.12574" lon="7.26425">
        <ele>1682.6</ele>
        <time>2023-02-05T09:12:19Z</time>
      </trkpt>
      <trkpt lat="44.12574" lon="7.26424">
        <ele>1682.8</ele>
        <time>2023-02-05T09:12:20Z</time>
      </trkpt>
      <trkpt lat="44.12574" lon="7.26422">
        <ele>1682.9</ele>
        <time>2023-02-05T09:12:21Z</time>
      </trkpt>
      <trkpt lat="44.12575" lon="7.26421">
        <ele>1683</ele>
        <time>2023-02-05T09:12:22Z</time>
      </trkpt>
      <trkpt lat="44.12575" lon="7.2642">
        <ele>1683.1</ele>
        <time>2023-02-05T09:12:23Z</time>
      </trkpt>
      <trkpt lat="44.12576" lon="7.26419">
        <ele>1683.2</ele>
        <time>2023-02-05T09:12:24Z</time>
      </trkpt>
      <trkpt lat="44.12576" lon="7.26418">
        <ele>1683.3</ele>
        <time>2023-02-05T09:12:25Z</time>
      </trkpt>
      <trkpt lat="44.12576" lon="7.26417">
        <ele>1683.3</ele>
        <time>2023-02-05T09:12:26Z</time>
      </trkpt>
      <trkpt lat="44.12577" lon="7.26416">
        <ele>1683.4</ele>
        <time>2023-02-05T09:12:27Z</time>
      </trkpt>
      <trkpt lat="44.12577" lon="7.26415">
        <ele>1683.5</ele>
        <time>2023-02-05T09:12:28Z</time>
      </trkpt>
      <trkpt lat="44.12578" lon="7.26414">
        <ele>1683.6</ele>
        <time>2023-02-05T09:12:29Z</time>
      </trkpt>
      <trkpt lat="44.12578" lon="7.26413">
        <ele>1683.8</ele>
        <time>2023-02-05T09:12:30Z</time>
      </trkpt>
      <trkpt lat="44.12579" lon="7.26412">
        <ele>1683.9</ele>
        <time>2023-02-05T09:12:31Z</time>
      </trkpt>
      <trkpt lat="44.12579" lon="7.26411">
        <ele>1684</ele>
        <time>2023-02-05T09:12:32Z</time>
      </trkpt>
      <trkpt lat="44.12579" lon="7.2641">
        <ele>1684.2</ele>
        <time>2023-02-05T09:12:33Z</time>
      </trkpt>
      <trkpt lat="44.12579" lon="7.26409">
        <ele>1684.4</ele>
        <time>2023-02-05T09:12:34Z</time>
      </trkpt>
      <trkpt lat="44.12579" lon="7.26408">
        <ele>1684.5</ele>
        <time>2023-02-05T09:12:35Z</time>
      </trkpt>
      <trkpt lat="44.12579" lon="7.26407">
        <ele>1684.6</ele>
        <time>2023-02-05T09:12:36Z</time>
      </trkpt>
      <trkpt lat="44.12579" lon="7.26406">
        <ele>1684.6</ele>
        <time>2023-02-05T09:12:37Z</time>
      </trkpt>
      <trkpt lat="44.1258" lon="7.26405">
        <ele>1684.8</ele>
        <time>2023-02-05T09:12:38Z</time>
      </trkpt>
      <trkpt lat="44.1258" lon="7.26404">
        <ele>1684.9</ele>
        <time>2023-02-05T09:12:39Z</time>
      </trkpt>
      <trkpt lat="44.1258" lon="7.26402">
        <ele>1685</ele>
        <time>2023-02-05T09:12:40Z</time>
      </trkpt>
      <trkpt lat="44.1258" lon="7.26401">
        <ele>1685.1</ele>
        <time>2023-02-05T09:12:41Z</time>
      </trkpt>
      <trkpt lat="44.1258" lon="7.264">
        <ele>1685.2</ele>
        <time>2023-02-05T09:12:42Z</time>
      </trkpt>
      <trkpt lat="44.1258" lon="7.26399">
        <ele>1685.3</ele>
        <time>2023-02-05T09:12:43Z</time>
      </trkpt>
      <trkpt lat="44.1258" lon="7.26398">
        <ele>1685.4</ele>
        <time>2023-02-05T09:12:44Z</time>
      </trkpt>
      <trkpt lat="44.1258" lon="7.26397">
        <ele>1685.5</ele>
        <time>2023-02-05T09:12:45Z</time>
      </trkpt>
      <trkpt lat="44.1258" lon="7.26396">
        <ele>1685.5</ele>
        <time>2023-02-05T09:12:46Z</time>
      </trkpt>
      <trkpt lat="44.12581" lon="7.26394">
        <ele>1685.6</ele>
        <time>2023-02-05T09:12:47Z</time>
      </trkpt>
      <trkpt lat="44.12581" lon="7.26393">
        <ele>1685.6</ele>
        <time>2023-02-05T09:12:48Z</time>
      </trkpt>
      <trkpt lat="44.12581" lon="7.26392">
        <ele>1685.6</ele>
        <time>2023-02-05T09:12:49Z</time>
      </trkpt>
      <trkpt lat="44.12581" lon="7.26391">
        <ele>1685.7</ele>
        <time>2023-02-05T09:12:50Z</time>
      </trkpt>
      <trkpt lat="44.12581" lon="7.2639">
        <ele>1685.7</ele>
        <time>2023-02-05T09:12:51Z</time>
      </trkpt>
      <trkpt lat="44.12581" lon="7.26389">
        <ele>1685.7</ele>
        <time>2023-02-05T09:12:52Z</time>
      </trkpt>
      <trkpt lat="44.12581" lon="7.26387">
        <ele>1685.8</ele>
        <time>2023-02-05T09:12:53Z</time>
      </trkpt>
      <trkpt lat="44.12581" lon="7.26386">
        <ele>1685.9</ele>
        <time>2023-02-05T09:12:54Z</time>
      </trkpt>
      <trkpt lat="44.12581" lon="7.26385">
        <ele>1685.8</ele>
        <time>2023-02-05T09:12:55Z</time>
      </trkpt>
      <trkpt lat="44.12581" lon="7.26384">
        <ele>1685.9</ele>
        <time>2023-02-05T09:12:56Z</time>
      </trkpt>
      <trkpt lat="44.12582" lon="7.26383">
        <ele>1686</ele>
        <time>2023-02-05T09:12:57Z</time>
      </trkpt>
      <trkpt lat="44.12582" lon="7.26382">
        <ele>1686.1</ele>
        <time>2023-02-05T09:12:58Z</time>
      </trkpt>
      <trkpt lat="44.12583" lon="7.2638">
        <ele>1686.2</ele>
        <time>2023-02-05T09:12:59Z</time>
      </trkpt>
      <trkpt lat="44.12583" lon="7.26379">
        <ele>1686.2</ele>
        <time>2023-02-05T09:13:00Z</time>
      </trkpt>
      <trkpt lat="44.12583" lon="7.26378">
        <ele>1686.3</ele>
        <time>2023-02-05T09:13:01Z</time>
      </trkpt>
      <trkpt lat="44.12583" lon="7.26377">
        <ele>1686.2</ele>
        <time>2023-02-05T09:13:02Z</time>
      </trkpt>
      <trkpt lat="44.12583" lon="7.26376">
        <ele>1686.2</ele>
        <time>2023-02-05T09:13:03Z</time>
      </trkpt>
      <trkpt lat="44.12583" lon="7.26374">
        <ele>1686.2</ele>
        <time>2023-02-05T09:13:04Z</time>
      </trkpt>
      <trkpt lat="44.12583" lon="7.26373">
        <ele>1686.2</ele>
        <time>2023-02-05T09:13:05Z</time>
      </trkpt>
      <trkpt lat="44.12583" lon="7.26372">
        <ele>1686.3</ele>
        <time>2023-02-05T09:13:06Z</time>
      </trkpt>
      <trkpt lat="44.12583" lon="7.26371">
        <ele>1686.3</ele>
        <time>2023-02-05T09:13:07Z</time>
      </trkpt>
      <trkpt lat="44.12583" lon="7.2637">
        <ele>1686.4</ele>
        <time>2023-02-05T09:13:08Z</time>
      </trkpt>
      <trkpt lat="44.12583" lon="7.26369">
        <ele>1686.5</ele>
        <time>2023-02-05T09:13:09Z</time>
      </trkpt>
      <trkpt lat="44.12583" lon="7.26367">
        <ele>1686.5</ele>
        <time>2023-02-05T09:13:10Z</time>
      </trkpt>
      <trkpt lat="44.12583" lon="7.26366">
        <ele>1686.7</ele>
        <time>2023-02-05T09:13:11Z</time>
      </trkpt>
      <trkpt lat="44.12583" lon="7.26365">
        <ele>1686.9</ele>
        <time>2023-02-05T09:13:12Z</time>
      </trkpt>
      <trkpt lat="44.12583" lon="7.26363">
        <ele>1687.1</ele>
        <time>2023-02-05T09:13:13Z</time>
      </trkpt>
      <trkpt lat="44.12583" lon="7.26362">
        <ele>1687</ele>
        <time>2023-02-05T09:13:14Z</time>
      </trkpt>
      <trkpt lat="44.12583" lon="7.26361">
        <ele>1686.9</ele>
        <time>2023-02-05T09:13:15Z</time>
      </trkpt>
      <trkpt lat="44.12583" lon="7.2636">
        <ele>1687</ele>
        <time>2023-02-05T09:13:16Z</time>
      </trkpt>
      <trkpt lat="44.12583" lon="7.26359">
        <ele>1687</ele>
        <time>2023-02-05T09:13:17Z</time>
      </trkpt>
      <trkpt lat="44.12583" lon="7.26357">
        <ele>1687.1</ele>
        <time>2023-02-05T09:13:18Z</time>
      </trkpt>
      <trkpt lat="44.12583" lon="7.26356">
        <ele>1687.2</ele>
        <time>2023-02-05T09:13:19Z</time>
      </trkpt>
      <trkpt lat="44.12583" lon="7.26355">
        <ele>1687.3</ele>
        <time>2023-02-05T09:13:20Z</time>
      </trkpt>
      <trkpt lat="44.12583" lon="7.26354">
        <ele>1687.4</ele>
        <time>2023-02-05T09:13:21Z</time>
      </trkpt>
      <trkpt lat="44.12584" lon="7.26352">
        <ele>1687.4</ele>
        <time>2023-02-05T09:13:22Z</time>
      </trkpt>
      <trkpt lat="44.12584" lon="7.26351">
        <ele>1687.4</ele>
        <time>2023-02-05T09:13:23Z</time>
      </trkpt>
      <trkpt lat="44.12584" lon="7.26351">
        <ele>1687.4</ele>
        <time>2023-02-05T09:13:24Z</time>
      </trkpt>
      <trkpt lat="44.12583" lon="7.26351">
        <ele>1687.4</ele>
        <time>2023-02-05T09:13:25Z</time>
      </trkpt>
      <trkpt lat="44.12583" lon="7.26349">
        <ele>1687.5</ele>
        <time>2023-02-05T09:13:26Z</time>
      </trkpt>
      <trkpt lat="44.12582" lon="7.26348">
        <ele>1687.5</ele>
        <time>2023-02-05T09:13:27Z</time>
      </trkpt>
      <trkpt lat="44.12582" lon="7.26347">
        <ele>1687.6</ele>
        <time>2023-02-05T09:13:28Z</time>
      </trkpt>
      <trkpt lat="44.12582" lon="7.26345">
        <ele>1687.6</ele>
        <time>2023-02-05T09:13:29Z</time>
      </trkpt>
      <trkpt lat="44.12582" lon="7.26344">
        <ele>1687.6</ele>
        <time>2023-02-05T09:13:30Z</time>
      </trkpt>
      <trkpt lat="44.12581" lon="7.26343">
        <ele>1687.7</ele>
        <time>2023-02-05T09:13:31Z</time>
      </trkpt>
      <trkpt lat="44.12581" lon="7.26341">
        <ele>1687.8</ele>
        <time>2023-02-05T09:13:32Z</time>
      </trkpt>
      <trkpt lat="44.12581" lon="7.2634">
        <ele>1687.9</ele>
        <time>2023-02-05T09:13:33Z</time>
      </trkpt>
      <trkpt lat="44.12582" lon="7.26339">
        <ele>1687.9</ele>
        <time>2023-02-05T09:13:34Z</time>
      </trkpt>
      <trkpt lat="44.12583" lon="7.26338">
        <ele>1687.9</ele>
        <time>2023-02-05T09:13:35Z</time>
      </trkpt>
      <trkpt lat="44.12583" lon="7.26337">
        <ele>1688</ele>
        <time>2023-02-05T09:13:36Z</time>
      </trkpt>
      <trkpt lat="44.12584" lon="7.26336">
        <ele>1688.1</ele>
        <time>2023-02-05T09:13:37Z</time>
      </trkpt>
      <trkpt lat="44.12584" lon="7.26335">
        <ele>1688.2</ele>
        <time>2023-02-05T09:13:38Z</time>
      </trkpt>
      <trkpt lat="44.12584" lon="7.26334">
        <ele>1688.3</ele>
        <time>2023-02-05T09:13:39Z</time>
      </trkpt>
      <trkpt lat="44.12584" lon="7.26333">
        <ele>1688.3</ele>
        <time>2023-02-05T09:13:40Z</time>
      </trkpt>
      <trkpt lat="44.12584" lon="7.26332">
        <ele>1688.4</ele>
        <time>2023-02-05T09:13:41Z</time>
      </trkpt>
      <trkpt lat="44.12584" lon="7.2633">
        <ele>1688.5</ele>
        <time>2023-02-05T09:13:42Z</time>
      </trkpt>
      <trkpt lat="44.12584" lon="7.26329">
        <ele>1688.7</ele>
        <time>2023-02-05T09:13:43Z</time>
      </trkpt>
      <trkpt lat="44.12584" lon="7.26328">
        <ele>1688.8</ele>
        <time>2023-02-05T09:13:44Z</time>
      </trkpt>
      <trkpt lat="44.12584" lon="7.26327">
        <ele>1688.9</ele>
        <time>2023-02-05T09:13:45Z</time>
      </trkpt>
      <trkpt lat="44.12584" lon="7.26326">
        <ele>1688.9</ele>
        <time>2023-02-05T09:13:46Z</time>
      </trkpt>
      <trkpt lat="44.12584" lon="7.26325">
        <ele>1689</ele>
        <time>2023-02-05T09:13:47Z</time>
      </trkpt>
      <trkpt lat="44.12585" lon="7.26324">
        <ele>1689</ele>
        <time>2023-02-05T09:13:48Z</time>
      </trkpt>
      <trkpt lat="44.12585" lon="7.26323">
        <ele>1689</ele>
        <time>2023-02-05T09:13:49Z</time>
      </trkpt>
      <trkpt lat="44.12585" lon="7.26321">
        <ele>1689</ele>
        <time>2023-02-05T09:13:50Z</time>
      </trkpt>
      <trkpt lat="44.12585" lon="7.2632">
        <ele>1689</ele>
        <time>2023-02-05T09:13:51Z</time>
      </trkpt>
      <trkpt lat="44.12585" lon="7.26319">
        <ele>1689.1</ele>
        <time>2023-02-05T09:13:52Z</time>
      </trkpt>
      <trkpt lat="44.12585" lon="7.26318">
        <ele>1689.1</ele>
        <time>2023-02-05T09:13:53Z</time>
      </trkpt>
      <trkpt lat="44.12585" lon="7.26317">
        <ele>1689.1</ele>
        <time>2023-02-05T09:13:54Z</time>
      </trkpt>
      <trkpt lat="44.12586" lon="7.26316">
        <ele>1689.2</ele>
        <time>2023-02-05T09:13:55Z</time>
      </trkpt>
      <trkpt lat="44.12586" lon="7.26315">
        <ele>1689.3</ele>
        <time>2023-02-05T09:13:56Z</time>
      </trkpt>
      <trkpt lat="44.12586" lon="7.26314">
        <ele>1689.3</ele>
        <time>2023-02-05T09:13:57Z</time>
      </trkpt>
      <trkpt lat="44.12586" lon="7.26312">
        <ele>1689.4</ele>
        <time>2023-02-05T09:13:58Z</time>
      </trkpt>
      <trkpt lat="44.12586" lon="7.26311">
        <ele>1689.4</ele>
        <time>2023-02-05T09:13:59Z</time>
      </trkpt>
      <trkpt lat="44.12585" lon="7.2631">
        <ele>1689.4</ele>
        <time>2023-02-05T09:14:00Z</time>
      </trkpt>
      <trkpt lat="44.12585" lon="7.26308">
        <ele>1689.4</ele>
        <time>2023-02-05T09:14:01Z</time>
      </trkpt>
      <trkpt lat="44.12586" lon="7.26307">
        <ele>1689.5</ele>
        <time>2023-02-05T09:14:02Z</time>
      </trkpt>
      <trkpt lat="44.12586" lon="7.26306">
        <ele>1689.6</ele>
        <time>2023-02-05T09:14:03Z</time>
      </trkpt>
      <trkpt lat="44.12586" lon="7.26304">
        <ele>1689.7</ele>
        <time>2023-02-05T09:14:04Z</time>
      </trkpt>
      <trkpt lat="44.12586" lon="7.26303">
        <ele>1689.7</ele>
        <time>2023-02-05T09:14:05Z</time>
      </trkpt>
      <trkpt lat="44.12586" lon="7.26302">
        <ele>1689.7</ele>
        <time>2023-02-05T09:14:06Z</time>
      </trkpt>
      <trkpt lat="44.12587" lon="7.263">
        <ele>1689.7</ele>
        <time>2023-02-05T09:14:07Z</time>
      </trkpt>
      <trkpt lat="44.12587" lon="7.26299">
        <ele>1689.6</ele>
        <time>2023-02-05T09:14:08Z</time>
      </trkpt>
      <trkpt lat="44.12587" lon="7.26298">
        <ele>1689.8</ele>
        <time>2023-02-05T09:14:09Z</time>
      </trkpt>
      <trkpt lat="44.12588" lon="7.26297">
        <ele>1689.8</ele>
        <time>2023-02-05T09:14:10Z</time>
      </trkpt>
      <trkpt lat="44.12587" lon="7.26295">
        <ele>1689.8</ele>
        <time>2023-02-05T09:14:11Z</time>
      </trkpt>
      <trkpt lat="44.12588" lon="7.26294">
        <ele>1689.8</ele>
        <time>2023-02-05T09:14:12Z</time>
      </trkpt>
      <trkpt lat="44.12588" lon="7.26293">
        <ele>1689.8</ele>
        <time>2023-02-05T09:14:13Z</time>
      </trkpt>
      <trkpt lat="44.12588" lon="7.26291">
        <ele>1689.8</ele>
        <time>2023-02-05T09:14:14Z</time>
      </trkpt>
      <trkpt lat="44.12588" lon="7.2629">
        <ele>1689.9</ele>
        <time>2023-02-05T09:14:15Z</time>
      </trkpt>
      <trkpt lat="44.12588" lon="7.26289">
        <ele>1689.9</ele>
        <time>2023-02-05T09:14:16Z</time>
      </trkpt>
      <trkpt lat="44.12588" lon="7.26287">
        <ele>1690</ele>
        <time>2023-02-05T09:14:17Z</time>
      </trkpt>
      <trkpt lat="44.12589" lon="7.26286">
        <ele>1690.1</ele>
        <time>2023-02-05T09:14:18Z</time>
      </trkpt>
      <trkpt lat="44.12589" lon="7.26285">
        <ele>1690.1</ele>
        <time>2023-02-05T09:14:19Z</time>
      </trkpt>
      <trkpt lat="44.12589" lon="7.26283">
        <ele>1690.2</ele>
        <time>2023-02-05T09:14:20Z</time>
      </trkpt>
      <trkpt lat="44.12589" lon="7.26282">
        <ele>1690.2</ele>
        <time>2023-02-05T09:14:21Z</time>
      </trkpt>
      <trkpt lat="44.12589" lon="7.26281">
        <ele>1690.2</ele>
        <time>2023-02-05T09:14:22Z</time>
      </trkpt>
      <trkpt lat="44.12589" lon="7.2628">
        <ele>1690.3</ele>
        <time>2023-02-05T09:14:23Z</time>
      </trkpt>
      <trkpt lat="44.12589" lon="7.26278">
        <ele>1690.4</ele>
        <time>2023-02-05T09:14:24Z</time>
      </trkpt>
      <trkpt lat="44.1259" lon="7.26277">
        <ele>1690.4</ele>
        <time>2023-02-05T09:14:25Z</time>
      </trkpt>
      <trkpt lat="44.1259" lon="7.26276">
        <ele>1690.5</ele>
        <time>2023-02-05T09:14:26Z</time>
      </trkpt>
      <trkpt lat="44.1259" lon="7.26274">
        <ele>1690.7</ele>
        <time>2023-02-05T09:14:27Z</time>
      </trkpt>
      <trkpt lat="44.1259" lon="7.26273">
        <ele>1690.8</ele>
        <time>2023-02-05T09:14:28Z</time>
      </trkpt>
      <trkpt lat="44.1259" lon="7.26272">
        <ele>1690.9</ele>
        <time>2023-02-05T09:14:29Z</time>
      </trkpt>
      <trkpt lat="44.1259" lon="7.2627">
        <ele>1690.9</ele>
        <time>2023-02-05T09:14:30Z</time>
      </trkpt>
      <trkpt lat="44.1259" lon="7.26269">
        <ele>1691</ele>
        <time>2023-02-05T09:14:31Z</time>
      </trkpt>
      <trkpt lat="44.1259" lon="7.26268">
        <ele>1691</ele>
        <time>2023-02-05T09:14:32Z</time>
      </trkpt>
      <trkpt lat="44.12591" lon="7.26267">
        <ele>1691.1</ele>
        <time>2023-02-05T09:14:33Z</time>
      </trkpt>
      <trkpt lat="44.12591" lon="7.26266">
        <ele>1691.2</ele>
        <time>2023-02-05T09:14:34Z</time>
      </trkpt>
      <trkpt lat="44.12591" lon="7.26264">
        <ele>1691.1</ele>
        <time>2023-02-05T09:14:35Z</time>
      </trkpt>
      <trkpt lat="44.1259" lon="7.26263">
        <ele>1691.1</ele>
        <time>2023-02-05T09:14:36Z</time>
      </trkpt>
      <trkpt lat="44.12591" lon="7.26262">
        <ele>1691.1</ele>
        <time>2023-02-05T09:14:37Z</time>
      </trkpt>
      <trkpt lat="44.12591" lon="7.2626">
        <ele>1691.1</ele>
        <time>2023-02-05T09:14:38Z</time>
      </trkpt>
      <trkpt lat="44.12591" lon="7.26259">
        <ele>1691.1</ele>
        <time>2023-02-05T09:14:39Z</time>
      </trkpt>
      <trkpt lat="44.12591" lon="7.26258">
        <ele>1691.2</ele>
        <time>2023-02-05T09:14:40Z</time>
      </trkpt>
      <trkpt lat="44.12591" lon="7.26257">
        <ele>1691.3</ele>
        <time>2023-02-05T09:14:41Z</time>
      </trkpt>
      <trkpt lat="44.12591" lon="7.26256">
        <ele>1691.4</ele>
        <time>2023-02-05T09:14:42Z</time>
      </trkpt>
      <trkpt lat="44.12591" lon="7.26255">
        <ele>1691.4</ele>
        <time>2023-02-05T09:14:43Z</time>
      </trkpt>
      <trkpt lat="44.12591" lon="7.26254">
        <ele>1691.5</ele>
        <time>2023-02-05T09:14:44Z</time>
      </trkpt>
      <trkpt lat="44.12591" lon="7.26253">
        <ele>1691.5</ele>
        <time>2023-02-05T09:14:45Z</time>
      </trkpt>
      <trkpt lat="44.12592" lon="7.26253">
        <ele>1691.5</ele>
        <time>2023-02-05T09:14:46Z</time>
      </trkpt>
      <trkpt lat="44.12592" lon="7.26252">
        <ele>1691.5</ele>
        <time>2023-02-05T09:14:47Z</time>
      </trkpt>
      <trkpt lat="44.12592" lon="7.26251">
        <ele>1691.6</ele>
        <time>2023-02-05T09:14:48Z</time>
      </trkpt>
      <trkpt lat="44.12593" lon="7.2625">
        <ele>1691.6</ele>
        <time>2023-02-05T09:14:49Z</time>
      </trkpt>
      <trkpt lat="44.12593" lon="7.26249">
        <ele>1691.6</ele>
        <time>2023-02-05T09:14:50Z</time>
      </trkpt>
      <trkpt lat="44.12593" lon="7.26248">
        <ele>1691.7</ele>
        <time>2023-02-05T09:14:51Z</time>
      </trkpt>
      <trkpt lat="44.12594" lon="7.26248">
        <ele>1691.7</ele>
        <time>2023-02-05T09:14:52Z</time>
      </trkpt>
      <trkpt lat="44.12594" lon="7.26247">
        <ele>1691.8</ele>
        <time>2023-02-05T09:14:53Z</time>
      </trkpt>
      <trkpt lat="44.12594" lon="7.26247">
        <ele>1691.9</ele>
        <time>2023-02-05T09:14:54Z</time>
      </trkpt>
      <trkpt lat="44.12595" lon="7.26247">
        <ele>1691.9</ele>
        <time>2023-02-05T09:14:55Z</time>
      </trkpt>
      <trkpt lat="44.12595" lon="7.26247">
        <ele>1691.9</ele>
        <time>2023-02-05T09:14:56Z</time>
      </trkpt>
      <trkpt lat="44.12595" lon="7.26247">
        <ele>1691.9</ele>
        <time>2023-02-05T09:14:57Z</time>
      </trkpt>
      <trkpt lat="44.12595" lon="7.26247">
        <ele>1692</ele>
        <time>2023-02-05T09:14:58Z</time>
      </trkpt>
      <trkpt lat="44.12595" lon="7.26248">
        <ele>1692.1</ele>
        <time>2023-02-05T09:14:59Z</time>
      </trkpt>
      <trkpt lat="44.12596" lon="7.26248">
        <ele>1692.1</ele>
        <time>2023-02-05T09:15:00Z</time>
      </trkpt>
      <trkpt lat="44.12596" lon="7.26248">
        <ele>1692.2</ele>
        <time>2023-02-05T09:15:01Z</time>
      </trkpt>
      <trkpt lat="44.12596" lon="7.26248">
        <ele>1692.2</ele>
        <time>2023-02-05T09:15:02Z</time>
      </trkpt>
      <trkpt lat="44.12596" lon="7.26248">
        <ele>1692.2</ele>
        <time>2023-02-05T09:15:03Z</time>
      </trkpt>
      <trkpt lat="44.12596" lon="7.26248">
        <ele>1692.1</ele>
        <time>2023-02-05T09:15:04Z</time>
      </trkpt>
      <trkpt lat="44.12596" lon="7.26248">
        <ele>1692</ele>
        <time>2023-02-05T09:15:05Z</time>
      </trkpt>
      <trkpt lat="44.12597" lon="7.26248">
        <ele>1691.9</ele>
        <time>2023-02-05T09:15:06Z</time>
      </trkpt>
      <trkpt lat="44.12597" lon="7.26247">
        <ele>1691.8</ele>
        <time>2023-02-05T09:15:07Z</time>
      </trkpt>
      <trkpt lat="44.12597" lon="7.26247">
        <ele>1691.8</ele>
        <time>2023-02-05T09:15:08Z</time>
      </trkpt>
      <trkpt lat="44.12597" lon="7.26247">
        <ele>1691.7</ele>
        <time>2023-02-05T09:15:09Z</time>
      </trkpt>
      <trkpt lat="44.12597" lon="7.26247">
        <ele>1691.7</ele>
        <time>2023-02-05T09:15:10Z</time>
      </trkpt>
      <trkpt lat="44.12597" lon="7.26247">
        <ele>1691.8</ele>
        <time>2023-02-05T09:15:11Z</time>
      </trkpt>
      <trkpt lat="44.12597" lon="7.26247">
        <ele>1691.8</ele>
        <time>2023-02-05T09:15:12Z</time>
      </trkpt>
      <trkpt lat="44.12597" lon="7.26247">
        <ele>1691.8</ele>
        <time>2023-02-05T09:15:13Z</time>
      </trkpt>
      <trkpt lat="44.12597" lon="7.26247">
        <ele>1691.8</ele>
        <time>2023-02-05T09:15:14Z</time>
      </trkpt>
      <trkpt lat="44.12597" lon="7.26247">
        <ele>1691.8</ele>
        <time>2023-02-05T09:15:15Z</time>
      </trkpt>
      <trkpt lat="44.12597" lon="7.26247">
        <ele>1691.7</ele>
        <time>2023-02-05T09:15:16Z</time>
      </trkpt>
      <trkpt lat="44.12597" lon="7.26247">
        <ele>1691.7</ele>
        <time>2023-02-05T09:15:17Z</time>
      </trkpt>
      <trkpt lat="44.12597" lon="7.26247">
        <ele>1691.7</ele>
        <time>2023-02-05T09:15:18Z</time>
      </trkpt>
      <trkpt lat="44.12597" lon="7.26247">
        <ele>1691.8</ele>
        <time>2023-02-05T09:15:19Z</time>
      </trkpt>
      <trkpt lat="44.12597" lon="7.26247">
        <ele>1691.8</ele>
        <time>2023-02-05T09:15:20Z</time>
      </trkpt>
      <trkpt lat="44.12597" lon="7.26247">
        <ele>1691.8</ele>
        <time>2023-02-05T09:15:21Z</time>
      </trkpt>
      <trkpt lat="44.12598" lon="7.26247">
        <ele>1691.8</ele>
        <time>2023-02-05T09:15:22Z</time>
      </trkpt>
      <trkpt lat="44.12598" lon="7.26247">
        <ele>1691.8</ele>
        <time>2023-02-05T09:15:23Z</time>
      </trkpt>
      <trkpt lat="44.12597" lon="7.26247">
        <ele>1691.8</ele>
        <time>2023-02-05T09:15:24Z</time>
      </trkpt>
      <trkpt lat="44.12597" lon="7.26246">
        <ele>1691.9</ele>
        <time>2023-02-05T09:15:25Z</time>
      </trkpt>
      <trkpt lat="44.12597" lon="7.26245">
        <ele>1691.9</ele>
        <time>2023-02-05T09:15:26Z</time>
      </trkpt>
      <trkpt lat="44.12597" lon="7.26244">
        <ele>1692</ele>
        <time>2023-02-05T09:15:27Z</time>
      </trkpt>
      <trkpt lat="44.12597" lon="7.26244">
        <ele>1692</ele>
        <time>2023-02-05T09:15:28Z</time>
      </trkpt>
      <trkpt lat="44.12597" lon="7.26243">
        <ele>1692</ele>
        <time>2023-02-05T09:15:29Z</time>
      </trkpt>
      <trkpt lat="44.12596" lon="7.26242">
        <ele>1692</ele>
        <time>2023-02-05T09:15:30Z</time>
      </trkpt>
      <trkpt lat="44.12596" lon="7.26241">
        <ele>1692</ele>
        <time>2023-02-05T09:15:31Z</time>
      </trkpt>
      <trkpt lat="44.12596" lon="7.26239">
        <ele>1692</ele>
        <time>2023-02-05T09:15:32Z</time>
      </trkpt>
      <trkpt lat="44.12596" lon="7.26238">
        <ele>1692</ele>
        <time>2023-02-05T09:15:33Z</time>
      </trkpt>
      <trkpt lat="44.12596" lon="7.26237">
        <ele>1692</ele>
        <time>2023-02-05T09:15:34Z</time>
      </trkpt>
      <trkpt lat="44.12596" lon="7.26236">
        <ele>1692.1</ele>
        <time>2023-02-05T09:15:35Z</time>
      </trkpt>
      <trkpt lat="44.12596" lon="7.26235">
        <ele>1692.2</ele>
        <time>2023-02-05T09:15:36Z</time>
      </trkpt>
      <trkpt lat="44.12596" lon="7.26234">
        <ele>1692.2</ele>
        <time>2023-02-05T09:15:37Z</time>
      </trkpt>
      <trkpt lat="44.12596" lon="7.26233">
        <ele>1692.3</ele>
        <time>2023-02-05T09:15:38Z</time>
      </trkpt>
      <trkpt lat="44.12597" lon="7.26232">
        <ele>1692.3</ele>
        <time>2023-02-05T09:15:39Z</time>
      </trkpt>
      <trkpt lat="44.12597" lon="7.26231">
        <ele>1692.3</ele>
        <time>2023-02-05T09:15:40Z</time>
      </trkpt>
      <trkpt lat="44.12597" lon="7.26229">
        <ele>1692.4</ele>
        <time>2023-02-05T09:15:41Z</time>
      </trkpt>
      <trkpt lat="44.12597" lon="7.26228">
        <ele>1692.5</ele>
        <time>2023-02-05T09:15:42Z</time>
      </trkpt>
      <trkpt lat="44.12597" lon="7.26227">
        <ele>1692.6</ele>
        <time>2023-02-05T09:15:43Z</time>
      </trkpt>
      <trkpt lat="44.12597" lon="7.26225">
        <ele>1692.6</ele>
        <time>2023-02-05T09:15:44Z</time>
      </trkpt>
      <trkpt lat="44.12597" lon="7.26224">
        <ele>1692.7</ele>
        <time>2023-02-05T09:15:45Z</time>
      </trkpt>
      <trkpt lat="44.12597" lon="7.26223">
        <ele>1692.7</ele>
        <time>2023-02-05T09:15:46Z</time>
      </trkpt>
      <trkpt lat="44.12597" lon="7.26222">
        <ele>1692.7</ele>
        <time>2023-02-05T09:15:47Z</time>
      </trkpt>
      <trkpt lat="44.12597" lon="7.26221">
        <ele>1692.8</ele>
        <time>2023-02-05T09:15:48Z</time>
      </trkpt>
      <trkpt lat="44.12597" lon="7.2622">
        <ele>1692.8</ele>
        <time>2023-02-05T09:15:49Z</time>
      </trkpt>
      <trkpt lat="44.12597" lon="7.26218">
        <ele>1692.9</ele>
        <time>2023-02-05T09:15:50Z</time>
      </trkpt>
      <trkpt lat="44.12596" lon="7.26217">
        <ele>1692.9</ele>
        <time>2023-02-05T09:15:51Z</time>
      </trkpt>
      <trkpt lat="44.12596" lon="7.26216">
        <ele>1693</ele>
        <time>2023-02-05T09:15:52Z</time>
      </trkpt>
      <trkpt lat="44.12596" lon="7.26214">
        <ele>1693</ele>
        <time>2023-02-05T09:15:53Z</time>
      </trkpt>
      <trkpt lat="44.12595" lon="7.26213">
        <ele>1693.1</ele>
        <time>2023-02-05T09:15:54Z</time>
      </trkpt>
      <trkpt lat="44.12596" lon="7.26212">
        <ele>1693.2</ele>
        <time>2023-02-05T09:15:55Z</time>
      </trkpt>
      <trkpt lat="44.12597" lon="7.2621">
        <ele>1693.3</ele>
        <time>2023-02-05T09:15:56Z</time>
      </trkpt>
      <trkpt lat="44.12597" lon="7.26209">
        <ele>1693.5</ele>
        <time>2023-02-05T09:15:57Z</time>
      </trkpt>
      <trkpt lat="44.12598" lon="7.26208">
        <ele>1693.5</ele>
        <time>2023-02-05T09:15:58Z</time>
      </trkpt>
      <trkpt lat="44.12598" lon="7.26207">
        <ele>1693.5</ele>
        <time>2023-02-05T09:15:59Z</time>
      </trkpt>
      <trkpt lat="44.12598" lon="7.26206">
        <ele>1693.6</ele>
        <time>2023-02-05T09:16:00Z</time>
      </trkpt>
      <trkpt lat="44.12599" lon="7.26205">
        <ele>1693.7</ele>
        <time>2023-02-05T09:16:01Z</time>
      </trkpt>
      <trkpt lat="44.12599" lon="7.26204">
        <ele>1693.7</ele>
        <time>2023-02-05T09:16:02Z</time>
      </trkpt>
      <trkpt lat="44.12599" lon="7.26202">
        <ele>1693.9</ele>
        <time>2023-02-05T09:16:03Z</time>
      </trkpt>
      <trkpt lat="44.12599" lon="7.26201">
        <ele>1694.1</ele>
        <time>2023-02-05T09:16:04Z</time>
      </trkpt>
      <trkpt lat="44.12599" lon="7.26199">
        <ele>1694.2</ele>
        <time>2023-02-05T09:16:05Z</time>
      </trkpt>
      <trkpt lat="44.12599" lon="7.26198">
        <ele>1694.3</ele>
        <time>2023-02-05T09:16:06Z</time>
      </trkpt>
      <trkpt lat="44.12599" lon="7.26197">
        <ele>1694.4</ele>
        <time>2023-02-05T09:16:07Z</time>
      </trkpt>
      <trkpt lat="44.12599" lon="7.26195">
        <ele>1694.5</ele>
        <time>2023-02-05T09:16:08Z</time>
      </trkpt>
      <trkpt lat="44.12599" lon="7.26194">
        <ele>1694.5</ele>
        <time>2023-02-05T09:16:09Z</time>
      </trkpt>
      <trkpt lat="44.12598" lon="7.26193">
        <ele>1694.6</ele>
        <time>2023-02-05T09:16:10Z</time>
      </trkpt>
      <trkpt lat="44.12598" lon="7.26191">
        <ele>1694.7</ele>
        <time>2023-02-05T09:16:11Z</time>
      </trkpt>
      <trkpt lat="44.12599" lon="7.2619">
        <ele>1694.7</ele>
        <time>2023-02-05T09:16:12Z</time>
      </trkpt>
      <trkpt lat="44.12599" lon="7.26188">
        <ele>1694.7</ele>
        <time>2023-02-05T09:16:13Z</time>
      </trkpt>
      <trkpt lat="44.12598" lon="7.26187">
        <ele>1694.8</ele>
        <time>2023-02-05T09:16:14Z</time>
      </trkpt>
      <trkpt lat="44.12598" lon="7.26185">
        <ele>1694.8</ele>
        <time>2023-02-05T09:16:15Z</time>
      </trkpt>
      <trkpt lat="44.12598" lon="7.26184">
        <ele>1694.9</ele>
        <time>2023-02-05T09:16:16Z</time>
      </trkpt>
      <trkpt lat="44.12599" lon="7.26183">
        <ele>1695.1</ele>
        <time>2023-02-05T09:16:17Z</time>
      </trkpt>
      <trkpt lat="44.12598" lon="7.26182">
        <ele>1695.2</ele>
        <time>2023-02-05T09:16:18Z</time>
      </trkpt>
      <trkpt lat="44.12599" lon="7.26181">
        <ele>1695.3</ele>
        <time>2023-02-05T09:16:19Z</time>
      </trkpt>
      <trkpt lat="44.126" lon="7.26179">
        <ele>1695.5</ele>
        <time>2023-02-05T09:16:20Z</time>
      </trkpt>
      <trkpt lat="44.126" lon="7.26178">
        <ele>1695.6</ele>
        <time>2023-02-05T09:16:21Z</time>
      </trkpt>
      <trkpt lat="44.126" lon="7.26178">
        <ele>1695.7</ele>
        <time>2023-02-05T09:16:22Z</time>
      </trkpt>
      <trkpt lat="44.12601" lon="7.26176">
        <ele>1695.7</ele>
        <time>2023-02-05T09:16:23Z</time>
      </trkpt>
      <trkpt lat="44.12601" lon="7.26175">
        <ele>1696.3</ele>
        <time>2023-02-05T09:16:24Z</time>
      </trkpt>
      <trkpt lat="44.12602" lon="7.26174">
        <ele>1696.4</ele>
        <time>2023-02-05T09:16:25Z</time>
      </trkpt>
      <trkpt lat="44.12602" lon="7.26173">
        <ele>1696.3</ele>
        <time>2023-02-05T09:16:26Z</time>
      </trkpt>
      <trkpt lat="44.12602" lon="7.26171">
        <ele>1696.3</ele>
        <time>2023-02-05T09:16:27Z</time>
      </trkpt>
      <trkpt lat="44.12602" lon="7.2617">
        <ele>1696.3</ele>
        <time>2023-02-05T09:16:28Z</time>
      </trkpt>
      <trkpt lat="44.12602" lon="7.26169">
        <ele>1696.3</ele>
        <time>2023-02-05T09:16:29Z</time>
      </trkpt>
      <trkpt lat="44.12602" lon="7.26168">
        <ele>1696.3</ele>
        <time>2023-02-05T09:16:30Z</time>
      </trkpt>
      <trkpt lat="44.12603" lon="7.26166">
        <ele>1696.4</ele>
        <time>2023-02-05T09:16:31Z</time>
      </trkpt>
      <trkpt lat="44.12602" lon="7.26165">
        <ele>1696.5</ele>
        <time>2023-02-05T09:16:32Z</time>
      </trkpt>
      <trkpt lat="44.12602" lon="7.26164">
        <ele>1696.6</ele>
        <time>2023-02-05T09:16:33Z</time>
      </trkpt>
      <trkpt lat="44.12602" lon="7.26163">
        <ele>1696.6</ele>
        <time>2023-02-05T09:16:34Z</time>
      </trkpt>
      <trkpt lat="44.12602" lon="7.26162">
        <ele>1696.7</ele>
        <time>2023-02-05T09:16:35Z</time>
      </trkpt>
      <trkpt lat="44.12602" lon="7.26161">
        <ele>1696.7</ele>
        <time>2023-02-05T09:16:36Z</time>
      </trkpt>
      <trkpt lat="44.12602" lon="7.2616">
        <ele>1696.8</ele>
        <time>2023-02-05T09:16:37Z</time>
      </trkpt>
      <trkpt lat="44.12602" lon="7.26159">
        <ele>1696.9</ele>
        <time>2023-02-05T09:16:38Z</time>
      </trkpt>
      <trkpt lat="44.12602" lon="7.26159">
        <ele>1697</ele>
        <time>2023-02-05T09:16:39Z</time>
      </trkpt>
      <trkpt lat="44.12602" lon="7.26158">
        <ele>1697.2</ele>
        <time>2023-02-05T09:16:40Z</time>
      </trkpt>
      <trkpt lat="44.12603" lon="7.26158">
        <ele>1697.2</ele>
        <time>2023-02-05T09:16:41Z</time>
      </trkpt>
      <trkpt lat="44.12603" lon="7.26158">
        <ele>1697.2</ele>
        <time>2023-02-05T09:16:42Z</time>
      </trkpt>
      <trkpt lat="44.12604" lon="7.26158">
        <ele>1697.2</ele>
        <time>2023-02-05T09:16:43Z</time>
      </trkpt>
      <trkpt lat="44.12604" lon="7.26158">
        <ele>1697.2</ele>
        <time>2023-02-05T09:16:44Z</time>
      </trkpt>
      <trkpt lat="44.12604" lon="7.26158">
        <ele>1697.2</ele>
        <time>2023-02-05T09:16:45Z</time>
      </trkpt>
      <trkpt lat="44.12604" lon="7.26158">
        <ele>1697.2</ele>
        <time>2023-02-05T09:16:46Z</time>
      </trkpt>
      <trkpt lat="44.12604" lon="7.26157">
        <ele>1697.2</ele>
        <time>2023-02-05T09:16:47Z</time>
      </trkpt>
      <trkpt lat="44.12604" lon="7.26157">
        <ele>1697.1</ele>
        <time>2023-02-05T09:16:48Z</time>
      </trkpt>
      <trkpt lat="44.12605" lon="7.26157">
        <ele>1697.2</ele>
        <time>2023-02-05T09:16:49Z</time>
      </trkpt>
      <trkpt lat="44.12605" lon="7.26157">
        <ele>1697.2</ele>
        <time>2023-02-05T09:16:50Z</time>
      </trkpt>
      <trkpt lat="44.12605" lon="7.26157">
        <ele>1697.2</ele>
        <time>2023-02-05T09:16:51Z</time>
      </trkpt>
      <trkpt lat="44.12606" lon="7.26157">
        <ele>1697.2</ele>
        <time>2023-02-05T09:16:52Z</time>
      </trkpt>
      <trkpt lat="44.12606" lon="7.26156">
        <ele>1697.3</ele>
        <time>2023-02-05T09:16:53Z</time>
      </trkpt>
      <trkpt lat="44.12606" lon="7.26156">
        <ele>1697.3</ele>
        <time>2023-02-05T09:16:54Z</time>
      </trkpt>
      <trkpt lat="44.12606" lon="7.26156">
        <ele>1697.4</ele>
        <time>2023-02-05T09:16:55Z</time>
      </trkpt>
      <trkpt lat="44.12606" lon="7.26156">
        <ele>1697.4</ele>
        <time>2023-02-05T09:16:56Z</time>
      </trkpt>
      <trkpt lat="44.12606" lon="7.26156">
        <ele>1697.5</ele>
        <time>2023-02-05T09:16:57Z</time>
      </trkpt>
      <trkpt lat="44.12607" lon="7.26155">
        <ele>1697.4</ele>
        <time>2023-02-05T09:16:58Z</time>
      </trkpt>
      <trkpt lat="44.12607" lon="7.26155">
        <ele>1697.3</ele>
        <time>2023-02-05T09:16:59Z</time>
      </trkpt>
      <trkpt lat="44.12607" lon="7.26155">
        <ele>1697.4</ele>
        <time>2023-02-05T09:17:00Z</time>
      </trkpt>
      <trkpt lat="44.12606" lon="7.26154">
        <ele>1697.4</ele>
        <time>2023-02-05T09:17:01Z</time>
      </trkpt>
      <trkpt lat="44.12606" lon="7.26154">
        <ele>1697.4</ele>
        <time>2023-02-05T09:17:02Z</time>
      </trkpt>
      <trkpt lat="44.12607" lon="7.26154">
        <ele>1697.4</ele>
        <time>2023-02-05T09:17:03Z</time>
      </trkpt>
      <trkpt lat="44.12608" lon="7.26154">
        <ele>1697.3</ele>
        <time>2023-02-05T09:17:04Z</time>
      </trkpt>
      <trkpt lat="44.12607" lon="7.26153">
        <ele>1697.3</ele>
        <time>2023-02-05T09:17:05Z</time>
      </trkpt>
      <trkpt lat="44.12607" lon="7.26152">
        <ele>1697.4</ele>
        <time>2023-02-05T09:17:06Z</time>
      </trkpt>
      <trkpt lat="44.12608" lon="7.26151">
        <ele>1697.4</ele>
        <time>2023-02-05T09:17:07Z</time>
      </trkpt>
      <trkpt lat="44.12608" lon="7.2615">
        <ele>1697.4</ele>
        <time>2023-02-05T09:17:08Z</time>
      </trkpt>
      <trkpt lat="44.12608" lon="7.26149">
        <ele>1697.5</ele>
        <time>2023-02-05T09:17:09Z</time>
      </trkpt>
      <trkpt lat="44.12609" lon="7.26148">
        <ele>1697.6</ele>
        <time>2023-02-05T09:17:10Z</time>
      </trkpt>
      <trkpt lat="44.12609" lon="7.26147">
        <ele>1697.6</ele>
        <time>2023-02-05T09:17:11Z</time>
      </trkpt>
      <trkpt lat="44.12609" lon="7.26145">
        <ele>1697.6</ele>
        <time>2023-02-05T09:17:12Z</time>
      </trkpt>
      <trkpt lat="44.12609" lon="7.26144">
        <ele>1697.7</ele>
        <time>2023-02-05T09:17:13Z</time>
      </trkpt>
      <trkpt lat="44.12609" lon="7.26143">
        <ele>1697.8</ele>
        <time>2023-02-05T09:17:14Z</time>
      </trkpt>
      <trkpt lat="44.12609" lon="7.26141">
        <ele>1697.8</ele>
        <time>2023-02-05T09:17:15Z</time>
      </trkpt>
      <trkpt lat="44.12609" lon="7.26141">
        <ele>1697.9</ele>
        <time>2023-02-05T09:17:16Z</time>
      </trkpt>
      <trkpt lat="44.12609" lon="7.26139">
        <ele>1697.9</ele>
        <time>2023-02-05T09:17:17Z</time>
      </trkpt>
      <trkpt lat="44.1261" lon="7.26139">
        <ele>1698</ele>
        <time>2023-02-05T09:17:18Z</time>
      </trkpt>
      <trkpt lat="44.1261" lon="7.26138">
        <ele>1698</ele>
        <time>2023-02-05T09:17:19Z</time>
      </trkpt>
      <trkpt lat="44.1261" lon="7.26137">
        <ele>1698</ele>
        <time>2023-02-05T09:17:20Z</time>
      </trkpt>
      <trkpt lat="44.1261" lon="7.26136">
        <ele>1698</ele>
        <time>2023-02-05T09:17:21Z</time>
      </trkpt>
      <trkpt lat="44.1261" lon="7.26134">
        <ele>1698.1</ele>
        <time>2023-02-05T09:17:22Z</time>
      </trkpt>
      <trkpt lat="44.1261" lon="7.26133">
        <ele>1698.1</ele>
        <time>2023-02-05T09:17:23Z</time>
      </trkpt>
      <trkpt lat="44.1261" lon="7.26132">
        <ele>1698.1</ele>
        <time>2023-02-05T09:17:24Z</time>
      </trkpt>
      <trkpt lat="44.1261" lon="7.26131">
        <ele>1698.1</ele>
        <time>2023-02-05T09:17:25Z</time>
      </trkpt>
      <trkpt lat="44.12609" lon="7.2613">
        <ele>1698.2</ele>
        <time>2023-02-05T09:17:26Z</time>
      </trkpt>
      <trkpt lat="44.12609" lon="7.26128">
        <ele>1698.2</ele>
        <time>2023-02-05T09:17:27Z</time>
      </trkpt>
      <trkpt lat="44.12609" lon="7.26127">
        <ele>1698.3</ele>
        <time>2023-02-05T09:17:28Z</time>
      </trkpt>
      <trkpt lat="44.12609" lon="7.26126">
        <ele>1698.4</ele>
        <time>2023-02-05T09:17:29Z</time>
      </trkpt>
      <trkpt lat="44.12609" lon="7.26124">
        <ele>1698.5</ele>
        <time>2023-02-05T09:17:30Z</time>
      </trkpt>
      <trkpt lat="44.12608" lon="7.26123">
        <ele>1698.6</ele>
        <time>2023-02-05T09:17:31Z</time>
      </trkpt>
      <trkpt lat="44.12608" lon="7.26122">
        <ele>1698.7</ele>
        <time>2023-02-05T09:17:32Z</time>
      </trkpt>
      <trkpt lat="44.12608" lon="7.26121">
        <ele>1698.7</ele>
        <time>2023-02-05T09:17:33Z</time>
      </trkpt>
      <trkpt lat="44.12608" lon="7.26119">
        <ele>1698.7</ele>
        <time>2023-02-05T09:17:34Z</time>
      </trkpt>
      <trkpt lat="44.12608" lon="7.26118">
        <ele>1698.8</ele>
        <time>2023-02-05T09:17:35Z</time>
      </trkpt>
      <trkpt lat="44.12608" lon="7.26116">
        <ele>1698.9</ele>
        <time>2023-02-05T09:17:36Z</time>
      </trkpt>
      <trkpt lat="44.12608" lon="7.26115">
        <ele>1698.9</ele>
        <time>2023-02-05T09:17:37Z</time>
      </trkpt>
      <trkpt lat="44.12608" lon="7.26114">
        <ele>1699</ele>
        <time>2023-02-05T09:17:38Z</time>
      </trkpt>
      <trkpt lat="44.12608" lon="7.26113">
        <ele>1699.1</ele>
        <time>2023-02-05T09:17:39Z</time>
      </trkpt>
      <trkpt lat="44.12607" lon="7.26112">
        <ele>1699.2</ele>
        <time>2023-02-05T09:17:40Z</time>
      </trkpt>
      <trkpt lat="44.12608" lon="7.26111">
        <ele>1699.4</ele>
        <time>2023-02-05T09:17:41Z</time>
      </trkpt>
      <trkpt lat="44.12608" lon="7.2611">
        <ele>1699.5</ele>
        <time>2023-02-05T09:17:42Z</time>
      </trkpt>
      <trkpt lat="44.12608" lon="7.26109">
        <ele>1699.5</ele>
        <time>2023-02-05T09:17:43Z</time>
      </trkpt>
      <trkpt lat="44.12608" lon="7.26107">
        <ele>1699.6</ele>
        <time>2023-02-05T09:17:44Z</time>
      </trkpt>
      <trkpt lat="44.12608" lon="7.26106">
        <ele>1699.6</ele>
        <time>2023-02-05T09:17:45Z</time>
      </trkpt>
      <trkpt lat="44.12608" lon="7.26105">
        <ele>1699.8</ele>
        <time>2023-02-05T09:17:46Z</time>
      </trkpt>
      <trkpt lat="44.12608" lon="7.26104">
        <ele>1699.9</ele>
        <time>2023-02-05T09:17:47Z</time>
      </trkpt>
      <trkpt lat="44.12608" lon="7.26103">
        <ele>1700</ele>
        <time>2023-02-05T09:17:48Z</time>
      </trkpt>
      <trkpt lat="44.12607" lon="7.26101">
        <ele>1700</ele>
        <time>2023-02-05T09:17:49Z</time>
      </trkpt>
      <trkpt lat="44.12607" lon="7.261">
        <ele>1700.1</ele>
        <time>2023-02-05T09:17:50Z</time>
      </trkpt>
      <trkpt lat="44.12606" lon="7.26099">
        <ele>1700.2</ele>
        <time>2023-02-05T09:17:51Z</time>
      </trkpt>
      <trkpt lat="44.12606" lon="7.26098">
        <ele>1700.2</ele>
        <time>2023-02-05T09:17:52Z</time>
      </trkpt>
      <trkpt lat="44.12606" lon="7.26097">
        <ele>1700.3</ele>
        <time>2023-02-05T09:17:53Z</time>
      </trkpt>
      <trkpt lat="44.12605" lon="7.26095">
        <ele>1700.3</ele>
        <time>2023-02-05T09:17:54Z</time>
      </trkpt>
      <trkpt lat="44.12604" lon="7.26094">
        <ele>1700.3</ele>
        <time>2023-02-05T09:17:55Z</time>
      </trkpt>
      <trkpt lat="44.12605" lon="7.26093">
        <ele>1700.5</ele>
        <time>2023-02-05T09:17:56Z</time>
      </trkpt>
      <trkpt lat="44.12605" lon="7.26091">
        <ele>1700.5</ele>
        <time>2023-02-05T09:17:57Z</time>
      </trkpt>
      <trkpt lat="44.12604" lon="7.2609">
        <ele>1700.6</ele>
        <time>2023-02-05T09:17:58Z</time>
      </trkpt>
      <trkpt lat="44.12604" lon="7.26089">
        <ele>1700.6</ele>
        <time>2023-02-05T09:17:59Z</time>
      </trkpt>
      <trkpt lat="44.12604" lon="7.26087">
        <ele>1700.7</ele>
        <time>2023-02-05T09:18:00Z</time>
      </trkpt>
      <trkpt lat="44.12604" lon="7.26086">
        <ele>1700.7</ele>
        <time>2023-02-05T09:18:01Z</time>
      </trkpt>
      <trkpt lat="44.12603" lon="7.26085">
        <ele>1700.8</ele>
        <time>2023-02-05T09:18:02Z</time>
      </trkpt>
      <trkpt lat="44.12604" lon="7.26085">
        <ele>1700.9</ele>
        <time>2023-02-05T09:18:03Z</time>
      </trkpt>
      <trkpt lat="44.12603" lon="7.26084">
        <ele>1701</ele>
        <time>2023-02-05T09:18:04Z</time>
      </trkpt>
      <trkpt lat="44.12603" lon="7.26083">
        <ele>1701.1</ele>
        <time>2023-02-05T09:18:05Z</time>
      </trkpt>
      <trkpt lat="44.12603" lon="7.26082">
        <ele>1701.2</ele>
        <time>2023-02-05T09:18:06Z</time>
      </trkpt>
      <trkpt lat="44.12603" lon="7.26081">
        <ele>1701.3</ele>
        <time>2023-02-05T09:18:07Z</time>
      </trkpt>
      <trkpt lat="44.12602" lon="7.26079">
        <ele>1701.4</ele>
        <time>2023-02-05T09:18:08Z</time>
      </trkpt>
      <trkpt lat="44.12602" lon="7.26079">
        <ele>1701.5</ele>
        <time>2023-02-05T09:18:09Z</time>
      </trkpt>
      <trkpt lat="44.12601" lon="7.26078">
        <ele>1701.6</ele>
        <time>2023-02-05T09:18:10Z</time>
      </trkpt>
      <trkpt lat="44.12601" lon="7.26077">
        <ele>1701.7</ele>
        <time>2023-02-05T09:18:11Z</time>
      </trkpt>
      <trkpt lat="44.12602" lon="7.26077">
        <ele>1701.8</ele>
        <time>2023-02-05T09:18:12Z</time>
      </trkpt>
      <trkpt lat="44.12602" lon="7.26077">
        <ele>1701.8</ele>
        <time>2023-02-05T09:18:13Z</time>
      </trkpt>
      <trkpt lat="44.12602" lon="7.26077">
        <ele>1701.9</ele>
        <time>2023-02-05T09:18:14Z</time>
      </trkpt>
      <trkpt lat="44.12601" lon="7.26076">
        <ele>1702</ele>
        <time>2023-02-05T09:18:15Z</time>
      </trkpt>
      <trkpt lat="44.12602" lon="7.26075">
        <ele>1702</ele>
        <time>2023-02-05T09:18:16Z</time>
      </trkpt>
      <trkpt lat="44.12602" lon="7.26074">
        <ele>1702.1</ele>
        <time>2023-02-05T09:18:17Z</time>
      </trkpt>
      <trkpt lat="44.12603" lon="7.26073">
        <ele>1702.2</ele>
        <time>2023-02-05T09:18:18Z</time>
      </trkpt>
      <trkpt lat="44.12603" lon="7.26071">
        <ele>1702.2</ele>
        <time>2023-02-05T09:18:19Z</time>
      </trkpt>
      <trkpt lat="44.12603" lon="7.2607">
        <ele>1702.3</ele>
        <time>2023-02-05T09:18:20Z</time>
      </trkpt>
      <trkpt lat="44.12603" lon="7.26069">
        <ele>1702.3</ele>
        <time>2023-02-05T09:18:21Z</time>
      </trkpt>
      <trkpt lat="44.12603" lon="7.26067">
        <ele>1702.3</ele>
        <time>2023-02-05T09:18:22Z</time>
      </trkpt>
      <trkpt lat="44.12602" lon="7.26066">
        <ele>1702.3</ele>
        <time>2023-02-05T09:18:23Z</time>
      </trkpt>
      <trkpt lat="44.12603" lon="7.26065">
        <ele>1702.3</ele>
        <time>2023-02-05T09:18:24Z</time>
      </trkpt>
      <trkpt lat="44.12602" lon="7.26063">
        <ele>1702.3</ele>
        <time>2023-02-05T09:18:25Z</time>
      </trkpt>
      <trkpt lat="44.12602" lon="7.26062">
        <ele>1702.3</ele>
        <time>2023-02-05T09:18:26Z</time>
      </trkpt>
      <trkpt lat="44.12602" lon="7.26061">
        <ele>1702.3</ele>
        <time>2023-02-05T09:18:27Z</time>
      </trkpt>
      <trkpt lat="44.12602" lon="7.2606">
        <ele>1702.4</ele>
        <time>2023-02-05T09:18:28Z</time>
      </trkpt>
      <trkpt lat="44.12602" lon="7.26058">
        <ele>1702.4</ele>
        <time>2023-02-05T09:18:29Z</time>
      </trkpt>
      <trkpt lat="44.12602" lon="7.26057">
        <ele>1702.5</ele>
        <time>2023-02-05T09:18:30Z</time>
      </trkpt>
      <trkpt lat="44.12602" lon="7.26056">
        <ele>1702.5</ele>
        <time>2023-02-05T09:18:31Z</time>
      </trkpt>
      <trkpt lat="44.12602" lon="7.26055">
        <ele>1702.6</ele>
        <time>2023-02-05T09:18:32Z</time>
      </trkpt>
      <trkpt lat="44.12603" lon="7.26054">
        <ele>1702.7</ele>
        <time>2023-02-05T09:18:33Z</time>
      </trkpt>
      <trkpt lat="44.12603" lon="7.26053">
        <ele>1702.6</ele>
        <time>2023-02-05T09:18:34Z</time>
      </trkpt>
      <trkpt lat="44.12603" lon="7.26052">
        <ele>1702.7</ele>
        <time>2023-02-05T09:18:35Z</time>
      </trkpt>
      <trkpt lat="44.12603" lon="7.26052">
        <ele>1702.8</ele>
        <time>2023-02-05T09:18:36Z</time>
      </trkpt>
      <trkpt lat="44.12604" lon="7.26051">
        <ele>1702.9</ele>
        <time>2023-02-05T09:18:37Z</time>
      </trkpt>
      <trkpt lat="44.12604" lon="7.26051">
        <ele>1703</ele>
        <time>2023-02-05T09:18:38Z</time>
      </trkpt>
      <trkpt lat="44.12604" lon="7.2605">
        <ele>1703.1</ele>
        <time>2023-02-05T09:18:39Z</time>
      </trkpt>
      <trkpt lat="44.12605" lon="7.2605">
        <ele>1703.1</ele>
        <time>2023-02-05T09:18:40Z</time>
      </trkpt>
      <trkpt lat="44.12605" lon="7.26048">
        <ele>1703.3</ele>
        <time>2023-02-05T09:18:41Z</time>
      </trkpt>
      <trkpt lat="44.12605" lon="7.26048">
        <ele>1703.4</ele>
        <time>2023-02-05T09:18:42Z</time>
      </trkpt>
      <trkpt lat="44.12605" lon="7.26047">
        <ele>1703.6</ele>
        <time>2023-02-05T09:18:43Z</time>
      </trkpt>
      <trkpt lat="44.12605" lon="7.26047">
        <ele>1703.7</ele>
        <time>2023-02-05T09:18:44Z</time>
      </trkpt>
      <trkpt lat="44.12605" lon="7.26047">
        <ele>1703.8</ele>
        <time>2023-02-05T09:18:45Z</time>
      </trkpt>
      <trkpt lat="44.12605" lon="7.26048">
        <ele>1703.9</ele>
        <time>2023-02-05T09:18:46Z</time>
      </trkpt>
      <trkpt lat="44.12605" lon="7.26048">
        <ele>1703.9</ele>
        <time>2023-02-05T09:18:47Z</time>
      </trkpt>
      <trkpt lat="44.12605" lon="7.26048">
        <ele>1704</ele>
        <time>2023-02-05T09:18:48Z</time>
      </trkpt>
      <trkpt lat="44.12605" lon="7.26048">
        <ele>1704</ele>
        <time>2023-02-05T09:18:49Z</time>
      </trkpt>
      <trkpt lat="44.12605" lon="7.26048">
        <ele>1704</ele>
        <time>2023-02-05T09:18:50Z</time>
      </trkpt>
      <trkpt lat="44.12605" lon="7.26048">
        <ele>1704</ele>
        <time>2023-02-05T09:18:51Z</time>
      </trkpt>
      <trkpt lat="44.12605" lon="7.26049">
        <ele>1704</ele>
        <time>2023-02-05T09:18:52Z</time>
      </trkpt>
      <trkpt lat="44.12606" lon="7.26048">
        <ele>1704</ele>
        <time>2023-02-05T09:18:53Z</time>
      </trkpt>
      <trkpt lat="44.12606" lon="7.26049">
        <ele>1704.1</ele>
        <time>2023-02-05T09:18:54Z</time>
      </trkpt>
      <trkpt lat="44.12606" lon="7.26048">
        <ele>1704.1</ele>
        <time>2023-02-05T09:18:55Z</time>
      </trkpt>
      <trkpt lat="44.12607" lon="7.26049">
        <ele>1704.1</ele>
        <time>2023-02-05T09:18:56Z</time>
      </trkpt>
      <trkpt lat="44.12607" lon="7.26049">
        <ele>1704.2</ele>
        <time>2023-02-05T09:18:57Z</time>
      </trkpt>
      <trkpt lat="44.12607" lon="7.26048">
        <ele>1704.2</ele>
        <time>2023-02-05T09:18:58Z</time>
      </trkpt>
      <trkpt lat="44.12607" lon="7.26048">
        <ele>1704.2</ele>
        <time>2023-02-05T09:18:59Z</time>
      </trkpt>
      <trkpt lat="44.12607" lon="7.26048">
        <ele>1704.2</ele>
        <time>2023-02-05T09:19:00Z</time>
      </trkpt>
      <trkpt lat="44.12608" lon="7.26048">
        <ele>1704.2</ele>
        <time>2023-02-05T09:19:01Z</time>
      </trkpt>
      <trkpt lat="44.12608" lon="7.26048">
        <ele>1704.2</ele>
        <time>2023-02-05T09:19:02Z</time>
      </trkpt>
      <trkpt lat="44.12608" lon="7.26048">
        <ele>1704.2</ele>
        <time>2023-02-05T09:19:03Z</time>
      </trkpt>
      <trkpt lat="44.12608" lon="7.26048">
        <ele>1704.2</ele>
        <time>2023-02-05T09:19:04Z</time>
      </trkpt>
      <trkpt lat="44.12608" lon="7.26047">
        <ele>1704.2</ele>
        <time>2023-02-05T09:19:05Z</time>
      </trkpt>
      <trkpt lat="44.12608" lon="7.26047">
        <ele>1704.2</ele>
        <time>2023-02-05T09:19:06Z</time>
      </trkpt>
      <trkpt lat="44.12608" lon="7.26047">
        <ele>1704.1</ele>
        <time>2023-02-05T09:19:07Z</time>
      </trkpt>
      <trkpt lat="44.12609" lon="7.26047">
        <ele>1704.1</ele>
        <time>2023-02-05T09:19:08Z</time>
      </trkpt>
      <trkpt lat="44.12609" lon="7.26047">
        <ele>1704.2</ele>
        <time>2023-02-05T09:19:09Z</time>
      </trkpt>
      <trkpt lat="44.12609" lon="7.26046">
        <ele>1704.3</ele>
        <time>2023-02-05T09:19:10Z</time>
      </trkpt>
      <trkpt lat="44.12609" lon="7.26046">
        <ele>1704.4</ele>
        <time>2023-02-05T09:19:11Z</time>
      </trkpt>
      <trkpt lat="44.12609" lon="7.26046">
        <ele>1704.5</ele>
        <time>2023-02-05T09:19:12Z</time>
      </trkpt>
      <trkpt lat="44.1261" lon="7.26046">
        <ele>1704.5</ele>
        <time>2023-02-05T09:19:13Z</time>
      </trkpt>
      <trkpt lat="44.1261" lon="7.26046">
        <ele>1704.5</ele>
        <time>2023-02-05T09:19:14Z</time>
      </trkpt>
      <trkpt lat="44.1261" lon="7.26046">
        <ele>1704.5</ele>
        <time>2023-02-05T09:19:15Z</time>
      </trkpt>
      <trkpt lat="44.1261" lon="7.26046">
        <ele>1704.5</ele>
        <time>2023-02-05T09:19:16Z</time>
      </trkpt>
      <trkpt lat="44.1261" lon="7.26046">
        <ele>1704.5</ele>
        <time>2023-02-05T09:19:17Z</time>
      </trkpt>
      <trkpt lat="44.12611" lon="7.26046">
        <ele>1704.5</ele>
        <time>2023-02-05T09:19:18Z</time>
      </trkpt>
      <trkpt lat="44.12611" lon="7.26046">
        <ele>1704.4</ele>
        <time>2023-02-05T09:19:19Z</time>
      </trkpt>
      <trkpt lat="44.12611" lon="7.26046">
        <ele>1704.4</ele>
        <time>2023-02-05T09:19:20Z</time>
      </trkpt>
      <trkpt lat="44.12611" lon="7.26045">
        <ele>1704.4</ele>
        <time>2023-02-05T09:19:21Z</time>
      </trkpt>
      <trkpt lat="44.12611" lon="7.26045">
        <ele>1704.4</ele>
        <time>2023-02-05T09:19:22Z</time>
      </trkpt>
      <trkpt lat="44.12612" lon="7.26045">
        <ele>1704.5</ele>
        <time>2023-02-05T09:19:23Z</time>
      </trkpt>
      <trkpt lat="44.12612" lon="7.26045">
        <ele>1704.5</ele>
        <time>2023-02-05T09:19:24Z</time>
      </trkpt>
      <trkpt lat="44.12612" lon="7.26045">
        <ele>1704.4</ele>
        <time>2023-02-05T09:19:25Z</time>
      </trkpt>
      <trkpt lat="44.12612" lon="7.26045">
        <ele>1704.3</ele>
        <time>2023-02-05T09:19:26Z</time>
      </trkpt>
      <trkpt lat="44.12612" lon="7.26045">
        <ele>1704.3</ele>
        <time>2023-02-05T09:19:27Z</time>
      </trkpt>
      <trkpt lat="44.12612" lon="7.26045">
        <ele>1704.2</ele>
        <time>2023-02-05T09:19:28Z</time>
      </trkpt>
      <trkpt lat="44.12612" lon="7.26045">
        <ele>1704.3</ele>
        <time>2023-02-05T09:19:29Z</time>
      </trkpt>
      <trkpt lat="44.12612" lon="7.26045">
        <ele>1704.3</ele>
        <time>2023-02-05T09:19:30Z</time>
      </trkpt>
      <trkpt lat="44.12612" lon="7.26045">
        <ele>1704.2</ele>
        <time>2023-02-05T09:19:31Z</time>
      </trkpt>
      <trkpt lat="44.12612" lon="7.26045">
        <ele>1704.3</ele>
        <time>2023-02-05T09:19:32Z</time>
      </trkpt>
      <trkpt lat="44.12612" lon="7.26045">
        <ele>1704.2</ele>
        <time>2023-02-05T09:19:33Z</time>
      </trkpt>
      <trkpt lat="44.12612" lon="7.26045">
        <ele>1704.1</ele>
        <time>2023-02-05T09:19:34Z</time>
      </trkpt>
      <trkpt lat="44.12613" lon="7.26045">
        <ele>1704</ele>
        <time>2023-02-05T09:19:35Z</time>
      </trkpt>
      <trkpt lat="44.12613" lon="7.26046">
        <ele>1704</ele>
        <time>2023-02-05T09:19:36Z</time>
      </trkpt>
      <trkpt lat="44.12613" lon="7.26047">
        <ele>1704</ele>
        <time>2023-02-05T09:19:37Z</time>
      </trkpt>
      <trkpt lat="44.12613" lon="7.26048">
        <ele>1704</ele>
        <time>2023-02-05T09:19:38Z</time>
      </trkpt>
      <trkpt lat="44.12613" lon="7.26049">
        <ele>1704.1</ele>
        <time>2023-02-05T09:19:39Z</time>
      </trkpt>
      <trkpt lat="44.12613" lon="7.2605">
        <ele>1704</ele>
        <time>2023-02-05T09:19:40Z</time>
      </trkpt>
      <trkpt lat="44.12614" lon="7.26051">
        <ele>1704.1</ele>
        <time>2023-02-05T09:19:41Z</time>
      </trkpt>
      <trkpt lat="44.12614" lon="7.26051">
        <ele>1704.2</ele>
        <time>2023-02-05T09:19:42Z</time>
      </trkpt>
      <trkpt lat="44.12614" lon="7.26052">
        <ele>1704.2</ele>
        <time>2023-02-05T09:19:43Z</time>
      </trkpt>
      <trkpt lat="44.12614" lon="7.26053">
        <ele>1704.3</ele>
        <time>2023-02-05T09:19:44Z</time>
      </trkpt>
      <trkpt lat="44.12615" lon="7.26053">
        <ele>1704.5</ele>
        <time>2023-02-05T09:19:45Z</time>
      </trkpt>
      <trkpt lat="44.12615" lon="7.26054">
        <ele>1704.6</ele>
        <time>2023-02-05T09:19:46Z</time>
      </trkpt>
      <trkpt lat="44.12615" lon="7.26055">
        <ele>1704.7</ele>
        <time>2023-02-05T09:19:47Z</time>
      </trkpt>
      <trkpt lat="44.12615" lon="7.26056">
        <ele>1704.7</ele>
        <time>2023-02-05T09:19:48Z</time>
      </trkpt>
      <trkpt lat="44.12615" lon="7.26056">
        <ele>1704.8</ele>
        <time>2023-02-05T09:19:49Z</time>
      </trkpt>
      <trkpt lat="44.12615" lon="7.26057">
        <ele>1704.8</ele>
        <time>2023-02-05T09:19:50Z</time>
      </trkpt>
      <trkpt lat="44.12614" lon="7.26058">
        <ele>1704.9</ele>
        <time>2023-02-05T09:19:51Z</time>
      </trkpt>
      <trkpt lat="44.12615" lon="7.26058">
        <ele>1705</ele>
        <time>2023-02-05T09:19:52Z</time>
      </trkpt>
      <trkpt lat="44.12614" lon="7.26059">
        <ele>1705</ele>
        <time>2023-02-05T09:19:53Z</time>
      </trkpt>
      <trkpt lat="44.12613" lon="7.2606">
        <ele>1705.1</ele>
        <time>2023-02-05T09:19:54Z</time>
      </trkpt>
      <trkpt lat="44.12613" lon="7.2606">
        <ele>1705.1</ele>
        <time>2023-02-05T09:19:55Z</time>
      </trkpt>
      <trkpt lat="44.12613" lon="7.26061">
        <ele>1705.1</ele>
        <time>2023-02-05T09:19:56Z</time>
      </trkpt>
      <trkpt lat="44.12612" lon="7.26061">
        <ele>1705.3</ele>
        <time>2023-02-05T09:19:57Z</time>
      </trkpt>
      <trkpt lat="44.12612" lon="7.26061">
        <ele>1705.3</ele>
        <time>2023-02-05T09:19:58Z</time>
      </trkpt>
      <trkpt lat="44.12612" lon="7.26062">
        <ele>1705.4</ele>
        <time>2023-02-05T09:19:59Z</time>
      </trkpt>
      <trkpt lat="44.12611" lon="7.26063">
        <ele>1705.5</ele>
        <time>2023-02-05T09:20:00Z</time>
      </trkpt>
      <trkpt lat="44.12611" lon="7.26064">
        <ele>1705.6</ele>
        <time>2023-02-05T09:20:01Z</time>
      </trkpt>
      <trkpt lat="44.12611" lon="7.26064">
        <ele>1705.6</ele>
        <time>2023-02-05T09:20:02Z</time>
      </trkpt>
      <trkpt lat="44.12611" lon="7.26065">
        <ele>1705.7</ele>
        <time>2023-02-05T09:20:03Z</time>
      </trkpt>
      <trkpt lat="44.12611" lon="7.26065">
        <ele>1705.7</ele>
        <time>2023-02-05T09:20:04Z</time>
      </trkpt>
      <trkpt lat="44.12611" lon="7.26066">
        <ele>1705.8</ele>
        <time>2023-02-05T09:20:05Z</time>
      </trkpt>
      <trkpt lat="44.12612" lon="7.26067">
        <ele>1705.8</ele>
        <time>2023-02-05T09:20:06Z</time>
      </trkpt>
      <trkpt lat="44.12612" lon="7.26068">
        <ele>1705.8</ele>
        <time>2023-02-05T09:20:07Z</time>
      </trkpt>
      <trkpt lat="44.12612" lon="7.26069">
        <ele>1705.8</ele>
        <time>2023-02-05T09:20:08Z</time>
      </trkpt>
      <trkpt lat="44.12612" lon="7.2607">
        <ele>1705.9</ele>
        <time>2023-02-05T09:20:09Z</time>
      </trkpt>
      <trkpt lat="44.12612" lon="7.2607">
        <ele>1705.9</ele>
        <time>2023-02-05T09:20:10Z</time>
      </trkpt>
      <trkpt lat="44.12612" lon="7.2607">
        <ele>1705.9</ele>
        <time>2023-02-05T09:20:11Z</time>
      </trkpt>
      <trkpt lat="44.12612" lon="7.26071">
        <ele>1705.9</ele>
        <time>2023-02-05T09:20:12Z</time>
      </trkpt>
      <trkpt lat="44.12612" lon="7.26072">
        <ele>1706.1</ele>
        <time>2023-02-05T09:20:13Z</time>
      </trkpt>
      <trkpt lat="44.12612" lon="7.26074">
        <ele>1706.2</ele>
        <time>2023-02-05T09:20:14Z</time>
      </trkpt>
      <trkpt lat="44.12612" lon="7.26074">
        <ele>1706.2</ele>
        <time>2023-02-05T09:20:15Z</time>
      </trkpt>
      <trkpt lat="44.12612" lon="7.26075">
        <ele>1706.3</ele>
        <time>2023-02-05T09:20:16Z</time>
      </trkpt>
      <trkpt lat="44.12613" lon="7.26076">
        <ele>1706.4</ele>
        <time>2023-02-05T09:20:17Z</time>
      </trkpt>
      <trkpt lat="44.12614" lon="7.26078">
        <ele>1706.4</ele>
        <time>2023-02-05T09:20:18Z</time>
      </trkpt>
      <trkpt lat="44.12615" lon="7.26078">
        <ele>1706.5</ele>
        <time>2023-02-05T09:20:19Z</time>
      </trkpt>
      <trkpt lat="44.12615" lon="7.26079">
        <ele>1706.7</ele>
        <time>2023-02-05T09:20:20Z</time>
      </trkpt>
      <trkpt lat="44.12616" lon="7.2608">
        <ele>1706.7</ele>
        <time>2023-02-05T09:20:21Z</time>
      </trkpt>
      <trkpt lat="44.12616" lon="7.26081">
        <ele>1706.8</ele>
        <time>2023-02-05T09:20:22Z</time>
      </trkpt>
      <trkpt lat="44.12615" lon="7.26081">
        <ele>1706.8</ele>
        <time>2023-02-05T09:20:23Z</time>
      </trkpt>
      <trkpt lat="44.12617" lon="7.26083">
        <ele>1706.8</ele>
        <time>2023-02-05T09:20:24Z</time>
      </trkpt>
      <trkpt lat="44.12618" lon="7.26083">
        <ele>1706.9</ele>
        <time>2023-02-05T09:20:25Z</time>
      </trkpt>
      <trkpt lat="44.12618" lon="7.26083">
        <ele>1706.9</ele>
        <time>2023-02-05T09:20:26Z</time>
      </trkpt>
      <trkpt lat="44.12619" lon="7.26085">
        <ele>1707</ele>
        <time>2023-02-05T09:20:27Z</time>
      </trkpt>
      <trkpt lat="44.12619" lon="7.26086">
        <ele>1707.1</ele>
        <time>2023-02-05T09:20:28Z</time>
      </trkpt>
      <trkpt lat="44.12619" lon="7.26087">
        <ele>1707.2</ele>
        <time>2023-02-05T09:20:29Z</time>
      </trkpt>
      <trkpt lat="44.1262" lon="7.26087">
        <ele>1707.2</ele>
        <time>2023-02-05T09:20:30Z</time>
      </trkpt>
      <trkpt lat="44.12621" lon="7.26088">
        <ele>1707.3</ele>
        <time>2023-02-05T09:20:31Z</time>
      </trkpt>
      <trkpt lat="44.12621" lon="7.26089">
        <ele>1707.4</ele>
        <time>2023-02-05T09:20:32Z</time>
      </trkpt>
      <trkpt lat="44.12621" lon="7.2609">
        <ele>1707.5</ele>
        <time>2023-02-05T09:20:33Z</time>
      </trkpt>
      <trkpt lat="44.12621" lon="7.26091">
        <ele>1707.6</ele>
        <time>2023-02-05T09:20:34Z</time>
      </trkpt>
      <trkpt lat="44.12622" lon="7.26092">
        <ele>1707.7</ele>
        <time>2023-02-05T09:20:35Z</time>
      </trkpt>
      <trkpt lat="44.12622" lon="7.26093">
        <ele>1707.9</ele>
        <time>2023-02-05T09:20:36Z</time>
      </trkpt>
      <trkpt lat="44.12622" lon="7.26094">
        <ele>1708</ele>
        <time>2023-02-05T09:20:37Z</time>
      </trkpt>
      <trkpt lat="44.12623" lon="7.26094">
        <ele>1707.9</ele>
        <time>2023-02-05T09:20:38Z</time>
      </trkpt>
      <trkpt lat="44.12623" lon="7.26095">
        <ele>1708.1</ele>
        <time>2023-02-05T09:20:39Z</time>
      </trkpt>
      <trkpt lat="44.12624" lon="7.26096">
        <ele>1708.2</ele>
        <time>2023-02-05T09:20:40Z</time>
      </trkpt>
      <trkpt lat="44.12626" lon="7.26097">
        <ele>1708.3</ele>
        <time>2023-02-05T09:20:41Z</time>
      </trkpt>
      <trkpt lat="44.12626" lon="7.26099">
        <ele>1708.3</ele>
        <time>2023-02-05T09:20:42Z</time>
      </trkpt>
      <trkpt lat="44.12627" lon="7.261">
        <ele>1708.4</ele>
        <time>2023-02-05T09:20:43Z</time>
      </trkpt>
      <trkpt lat="44.12627" lon="7.26101">
        <ele>1708.4</ele>
        <time>2023-02-05T09:20:44Z</time>
      </trkpt>
      <trkpt lat="44.12627" lon="7.26102">
        <ele>1708.4</ele>
        <time>2023-02-05T09:20:45Z</time>
      </trkpt>
      <trkpt lat="44.12628" lon="7.26103">
        <ele>1708.5</ele>
        <time>2023-02-05T09:20:46Z</time>
      </trkpt>
      <trkpt lat="44.12629" lon="7.26104">
        <ele>1708.5</ele>
        <time>2023-02-05T09:20:47Z</time>
      </trkpt>
      <trkpt lat="44.1263" lon="7.26105">
        <ele>1708.6</ele>
        <time>2023-02-05T09:20:48Z</time>
      </trkpt>
      <trkpt lat="44.12631" lon="7.26106">
        <ele>1708.6</ele>
        <time>2023-02-05T09:20:49Z</time>
      </trkpt>
      <trkpt lat="44.12631" lon="7.26107">
        <ele>1708.6</ele>
        <time>2023-02-05T09:20:50Z</time>
      </trkpt>
      <trkpt lat="44.12632" lon="7.26109">
        <ele>1708.6</ele>
        <time>2023-02-05T09:20:51Z</time>
      </trkpt>
      <trkpt lat="44.12633" lon="7.2611">
        <ele>1708.7</ele>
        <time>2023-02-05T09:20:52Z</time>
      </trkpt>
      <trkpt lat="44.12634" lon="7.26111">
        <ele>1708.7</ele>
        <time>2023-02-05T09:20:53Z</time>
      </trkpt>
      <trkpt lat="44.12634" lon="7.26112">
        <ele>1708.7</ele>
        <time>2023-02-05T09:20:54Z</time>
      </trkpt>
      <trkpt lat="44.12634" lon="7.26113">
        <ele>1708.7</ele>
        <time>2023-02-05T09:20:55Z</time>
      </trkpt>
      <trkpt lat="44.12635" lon="7.26114">
        <ele>1708.8</ele>
        <time>2023-02-05T09:20:56Z</time>
      </trkpt>
      <trkpt lat="44.12636" lon="7.26115">
        <ele>1708.8</ele>
        <time>2023-02-05T09:20:57Z</time>
      </trkpt>
      <trkpt lat="44.12637" lon="7.26116">
        <ele>1708.8</ele>
        <time>2023-02-05T09:20:58Z</time>
      </trkpt>
      <trkpt lat="44.12639" lon="7.26116">
        <ele>1708.8</ele>
        <time>2023-02-05T09:20:59Z</time>
      </trkpt>
      <trkpt lat="44.12639" lon="7.26118">
        <ele>1709</ele>
        <time>2023-02-05T09:21:00Z</time>
      </trkpt>
      <trkpt lat="44.1264" lon="7.26119">
        <ele>1709.1</ele>
        <time>2023-02-05T09:21:01Z</time>
      </trkpt>
      <trkpt lat="44.12641" lon="7.2612">
        <ele>1709.2</ele>
        <time>2023-02-05T09:21:02Z</time>
      </trkpt>
      <trkpt lat="44.12642" lon="7.2612">
        <ele>1709.2</ele>
        <time>2023-02-05T09:21:03Z</time>
      </trkpt>
      <trkpt lat="44.12643" lon="7.26121">
        <ele>1709.4</ele>
        <time>2023-02-05T09:21:04Z</time>
      </trkpt>
      <trkpt lat="44.12643" lon="7.26122">
        <ele>1709.5</ele>
        <time>2023-02-05T09:21:05Z</time>
      </trkpt>
      <trkpt lat="44.12644" lon="7.26122">
        <ele>1709.5</ele>
        <time>2023-02-05T09:21:06Z</time>
      </trkpt>
      <trkpt lat="44.12644" lon="7.26123">
        <ele>1709.6</ele>
        <time>2023-02-05T09:21:07Z</time>
      </trkpt>
      <trkpt lat="44.12645" lon="7.26123">
        <ele>1709.7</ele>
        <time>2023-02-05T09:21:08Z</time>
      </trkpt>
      <trkpt lat="44.12646" lon="7.26125">
        <ele>1709.8</ele>
        <time>2023-02-05T09:21:09Z</time>
      </trkpt>
      <trkpt lat="44.12647" lon="7.26125">
        <ele>1709.8</ele>
        <time>2023-02-05T09:21:10Z</time>
      </trkpt>
      <trkpt lat="44.12648" lon="7.26126">
        <ele>1709.9</ele>
        <time>2023-02-05T09:21:11Z</time>
      </trkpt>
      <trkpt lat="44.12649" lon="7.26127">
        <ele>1709.9</ele>
        <time>2023-02-05T09:21:12Z</time>
      </trkpt>
      <trkpt lat="44.12649" lon="7.26128">
        <ele>1709.9</ele>
        <time>2023-02-05T09:21:13Z</time>
      </trkpt>
      <trkpt lat="44.1265" lon="7.26129">
        <ele>1710</ele>
        <time>2023-02-05T09:21:14Z</time>
      </trkpt>
      <trkpt lat="44.1265" lon="7.2613">
        <ele>1709.9</ele>
        <time>2023-02-05T09:21:15Z</time>
      </trkpt>
      <trkpt lat="44.12651" lon="7.26131">
        <ele>1710</ele>
        <time>2023-02-05T09:21:16Z</time>
      </trkpt>
      <trkpt lat="44.12651" lon="7.26132">
        <ele>1710</ele>
        <time>2023-02-05T09:21:17Z</time>
      </trkpt>
      <trkpt lat="44.12652" lon="7.26133">
        <ele>1710</ele>
        <time>2023-02-05T09:21:18Z</time>
      </trkpt>
      <trkpt lat="44.12652" lon="7.26134">
        <ele>1710</ele>
        <time>2023-02-05T09:21:19Z</time>
      </trkpt>
      <trkpt lat="44.12653" lon="7.26135">
        <ele>1710</ele>
        <time>2023-02-05T09:21:20Z</time>
      </trkpt>
      <trkpt lat="44.12653" lon="7.26135">
        <ele>1710.1</ele>
        <time>2023-02-05T09:21:21Z</time>
      </trkpt>
      <trkpt lat="44.12653" lon="7.26136">
        <ele>1710.1</ele>
        <time>2023-02-05T09:21:22Z</time>
      </trkpt>
      <trkpt lat="44.12654" lon="7.26137">
        <ele>1710.1</ele>
        <time>2023-02-05T09:21:23Z</time>
      </trkpt>
      <trkpt lat="44.12655" lon="7.26137">
        <ele>1710.1</ele>
        <time>2023-02-05T09:21:24Z</time>
      </trkpt>
      <trkpt lat="44.12655" lon="7.26138">
        <ele>1710.2</ele>
        <time>2023-02-05T09:21:25Z</time>
      </trkpt>
      <trkpt lat="44.12656" lon="7.26139">
        <ele>1710.3</ele>
        <time>2023-02-05T09:21:26Z</time>
      </trkpt>
      <trkpt lat="44.12656" lon="7.2614">
        <ele>1710.4</ele>
        <time>2023-02-05T09:21:27Z</time>
      </trkpt>
      <trkpt lat="44.12657" lon="7.26141">
        <ele>1710.4</ele>
        <time>2023-02-05T09:21:28Z</time>
      </trkpt>
      <trkpt lat="44.12657" lon="7.26142">
        <ele>1710.5</ele>
        <time>2023-02-05T09:21:29Z</time>
      </trkpt>
      <trkpt lat="44.12658" lon="7.26142">
        <ele>1710.5</ele>
        <time>2023-02-05T09:21:30Z</time>
      </trkpt>
      <trkpt lat="44.12658" lon="7.26143">
        <ele>1710.6</ele>
        <time>2023-02-05T09:21:31Z</time>
      </trkpt>
      <trkpt lat="44.12657" lon="7.26143">
        <ele>1710.7</ele>
        <time>2023-02-05T09:21:32Z</time>
      </trkpt>
      <trkpt lat="44.12658" lon="7.26144">
        <ele>1710.8</ele>
        <time>2023-02-05T09:21:33Z</time>
      </trkpt>
      <trkpt lat="44.12658" lon="7.26145">
        <ele>1710.9</ele>
        <time>2023-02-05T09:21:34Z</time>
      </trkpt>
      <trkpt lat="44.12658" lon="7.26145">
        <ele>1711</ele>
        <time>2023-02-05T09:21:35Z</time>
      </trkpt>
      <trkpt lat="44.12657" lon="7.26145">
        <ele>1711.1</ele>
        <time>2023-02-05T09:21:36Z</time>
      </trkpt>
      <trkpt lat="44.12657" lon="7.26146">
        <ele>1711.1</ele>
        <time>2023-02-05T09:21:37Z</time>
      </trkpt>
      <trkpt lat="44.12657" lon="7.26146">
        <ele>1711.1</ele>
        <time>2023-02-05T09:21:38Z</time>
      </trkpt>
      <trkpt lat="44.12658" lon="7.26147">
        <ele>1711.2</ele>
        <time>2023-02-05T09:21:39Z</time>
      </trkpt>
      <trkpt lat="44.12658" lon="7.26147">
        <ele>1711.2</ele>
        <time>2023-02-05T09:21:40Z</time>
      </trkpt>
      <trkpt lat="44.12658" lon="7.26148">
        <ele>1711.3</ele>
        <time>2023-02-05T09:21:41Z</time>
      </trkpt>
      <trkpt lat="44.12658" lon="7.26149">
        <ele>1711.5</ele>
        <time>2023-02-05T09:21:42Z</time>
      </trkpt>
      <trkpt lat="44.12657" lon="7.26148">
        <ele>1711.5</ele>
        <time>2023-02-05T09:21:43Z</time>
      </trkpt>
      <trkpt lat="44.12658" lon="7.26149">
        <ele>1711.6</ele>
        <time>2023-02-05T09:21:44Z</time>
      </trkpt>
      <trkpt lat="44.12659" lon="7.26151">
        <ele>1711.5</ele>
        <time>2023-02-05T09:21:45Z</time>
      </trkpt>
      <trkpt lat="44.1266" lon="7.26151">
        <ele>1711.7</ele>
        <time>2023-02-05T09:21:46Z</time>
      </trkpt>
      <trkpt lat="44.1266" lon="7.26152">
        <ele>1711.7</ele>
        <time>2023-02-05T09:21:47Z</time>
      </trkpt>
      <trkpt lat="44.1266" lon="7.26152">
        <ele>1711.8</ele>
        <time>2023-02-05T09:21:48Z</time>
      </trkpt>
      <trkpt lat="44.12661" lon="7.26153">
        <ele>1711.9</ele>
        <time>2023-02-05T09:21:49Z</time>
      </trkpt>
      <trkpt lat="44.12662" lon="7.26154">
        <ele>1712</ele>
        <time>2023-02-05T09:21:50Z</time>
      </trkpt>
      <trkpt lat="44.12662" lon="7.26155">
        <ele>1712.2</ele>
        <time>2023-02-05T09:21:51Z</time>
      </trkpt>
      <trkpt lat="44.12663" lon="7.26156">
        <ele>1712.3</ele>
        <time>2023-02-05T09:21:52Z</time>
      </trkpt>
      <trkpt lat="44.12664" lon="7.26156">
        <ele>1712.4</ele>
        <time>2023-02-05T09:21:53Z</time>
      </trkpt>
      <trkpt lat="44.12664" lon="7.26157">
        <ele>1712.5</ele>
        <time>2023-02-05T09:21:54Z</time>
      </trkpt>
      <trkpt lat="44.12665" lon="7.26158">
        <ele>1712.7</ele>
        <time>2023-02-05T09:21:55Z</time>
      </trkpt>
      <trkpt lat="44.12666" lon="7.26159">
        <ele>1712.9</ele>
        <time>2023-02-05T09:21:56Z</time>
      </trkpt>
      <trkpt lat="44.12666" lon="7.26159">
        <ele>1713</ele>
        <time>2023-02-05T09:21:57Z</time>
      </trkpt>
      <trkpt lat="44.12667" lon="7.2616">
        <ele>1713.1</ele>
        <time>2023-02-05T09:21:58Z</time>
      </trkpt>
      <trkpt lat="44.12668" lon="7.26161">
        <ele>1713.2</ele>
        <time>2023-02-05T09:21:59Z</time>
      </trkpt>
      <trkpt lat="44.12669" lon="7.26162">
        <ele>1713.3</ele>
        <time>2023-02-05T09:22:00Z</time>
      </trkpt>
      <trkpt lat="44.12669" lon="7.26162">
        <ele>1713.5</ele>
        <time>2023-02-05T09:22:01Z</time>
      </trkpt>
      <trkpt lat="44.1267" lon="7.26164">
        <ele>1713.6</ele>
        <time>2023-02-05T09:22:02Z</time>
      </trkpt>
      <trkpt lat="44.1267" lon="7.26165">
        <ele>1713.8</ele>
        <time>2023-02-05T09:22:03Z</time>
      </trkpt>
      <trkpt lat="44.12671" lon="7.26165">
        <ele>1713.9</ele>
        <time>2023-02-05T09:22:04Z</time>
      </trkpt>
      <trkpt lat="44.12672" lon="7.26166">
        <ele>1713.9</ele>
        <time>2023-02-05T09:22:05Z</time>
      </trkpt>
      <trkpt lat="44.12672" lon="7.26167">
        <ele>1713.9</ele>
        <time>2023-02-05T09:22:06Z</time>
      </trkpt>
      <trkpt lat="44.12673" lon="7.26168">
        <ele>1713.9</ele>
        <time>2023-02-05T09:22:07Z</time>
      </trkpt>
      <trkpt lat="44.12674" lon="7.26168">
        <ele>1714.2</ele>
        <time>2023-02-05T09:22:08Z</time>
      </trkpt>
      <trkpt lat="44.12674" lon="7.26169">
        <ele>1714.3</ele>
        <time>2023-02-05T09:22:09Z</time>
      </trkpt>
      <trkpt lat="44.12675" lon="7.2617">
        <ele>1714.5</ele>
        <time>2023-02-05T09:22:10Z</time>
      </trkpt>
      <trkpt lat="44.12676" lon="7.2617">
        <ele>1714.6</ele>
        <time>2023-02-05T09:22:11Z</time>
      </trkpt>
      <trkpt lat="44.12676" lon="7.2617">
        <ele>1714.6</ele>
        <time>2023-02-05T09:22:12Z</time>
      </trkpt>
      <trkpt lat="44.12677" lon="7.26171">
        <ele>1714.7</ele>
        <time>2023-02-05T09:22:13Z</time>
      </trkpt>
      <trkpt lat="44.12678" lon="7.26171">
        <ele>1714.7</ele>
        <time>2023-02-05T09:22:14Z</time>
      </trkpt>
      <trkpt lat="44.12679" lon="7.26172">
        <ele>1714.7</ele>
        <time>2023-02-05T09:22:15Z</time>
      </trkpt>
      <trkpt lat="44.12679" lon="7.26173">
        <ele>1714.8</ele>
        <time>2023-02-05T09:22:16Z</time>
      </trkpt>
      <trkpt lat="44.1268" lon="7.26173">
        <ele>1714.8</ele>
        <time>2023-02-05T09:22:17Z</time>
      </trkpt>
      <trkpt lat="44.12681" lon="7.26174">
        <ele>1714.8</ele>
        <time>2023-02-05T09:22:18Z</time>
      </trkpt>
      <trkpt lat="44.1268" lon="7.26174">
        <ele>1714.8</ele>
        <time>2023-02-05T09:22:19Z</time>
      </trkpt>
      <trkpt lat="44.12681" lon="7.26174">
        <ele>1715</ele>
        <time>2023-02-05T09:22:20Z</time>
      </trkpt>
      <trkpt lat="44.12681" lon="7.26175">
        <ele>1715.1</ele>
        <time>2023-02-05T09:22:21Z</time>
      </trkpt>
      <trkpt lat="44.12681" lon="7.26175">
        <ele>1715.1</ele>
        <time>2023-02-05T09:22:22Z</time>
      </trkpt>
      <trkpt lat="44.12681" lon="7.26176">
        <ele>1715.2</ele>
        <time>2023-02-05T09:22:23Z</time>
      </trkpt>
      <trkpt lat="44.12682" lon="7.26177">
        <ele>1715.2</ele>
        <time>2023-02-05T09:22:24Z</time>
      </trkpt>
      <trkpt lat="44.12682" lon="7.26179">
        <ele>1715.4</ele>
        <time>2023-02-05T09:22:25Z</time>
      </trkpt>
      <trkpt lat="44.12682" lon="7.26179">
        <ele>1715.5</ele>
        <time>2023-02-05T09:22:26Z</time>
      </trkpt>
      <trkpt lat="44.12682" lon="7.26179">
        <ele>1715.6</ele>
        <time>2023-02-05T09:22:27Z</time>
      </trkpt>
      <trkpt lat="44.12681" lon="7.2618">
        <ele>1715.6</ele>
        <time>2023-02-05T09:22:28Z</time>
      </trkpt>
      <trkpt lat="44.12682" lon="7.2618">
        <ele>1715.7</ele>
        <time>2023-02-05T09:22:29Z</time>
      </trkpt>
      <trkpt lat="44.12681" lon="7.26181">
        <ele>1715.7</ele>
        <time>2023-02-05T09:22:30Z</time>
      </trkpt>
      <trkpt lat="44.12681" lon="7.26181">
        <ele>1715.8</ele>
        <time>2023-02-05T09:22:31Z</time>
      </trkpt>
      <trkpt lat="44.1268" lon="7.26182">
        <ele>1715.8</ele>
        <time>2023-02-05T09:22:32Z</time>
      </trkpt>
      <trkpt lat="44.1268" lon="7.26182">
        <ele>1716</ele>
        <time>2023-02-05T09:22:33Z</time>
      </trkpt>
      <trkpt lat="44.12679" lon="7.26182">
        <ele>1716.1</ele>
        <time>2023-02-05T09:22:34Z</time>
      </trkpt>
      <trkpt lat="44.12679" lon="7.26182">
        <ele>1716.2</ele>
        <time>2023-02-05T09:22:35Z</time>
      </trkpt>
      <trkpt lat="44.12679" lon="7.26183">
        <ele>1716.3</ele>
        <time>2023-02-05T09:22:36Z</time>
      </trkpt>
      <trkpt lat="44.12678" lon="7.26182">
        <ele>1716.4</ele>
        <time>2023-02-05T09:22:37Z</time>
      </trkpt>
      <trkpt lat="44.12677" lon="7.26182">
        <ele>1716.4</ele>
        <time>2023-02-05T09:22:38Z</time>
      </trkpt>
      <trkpt lat="44.12678" lon="7.26183">
        <ele>1716.5</ele>
        <time>2023-02-05T09:22:39Z</time>
      </trkpt>
      <trkpt lat="44.12678" lon="7.26184">
        <ele>1716.6</ele>
        <time>2023-02-05T09:22:40Z</time>
      </trkpt>
      <trkpt lat="44.12677" lon="7.26185">
        <ele>1716.6</ele>
        <time>2023-02-05T09:22:41Z</time>
      </trkpt>
      <trkpt lat="44.12677" lon="7.26187">
        <ele>1716.6</ele>
        <time>2023-02-05T09:22:42Z</time>
      </trkpt>
      <trkpt lat="44.12677" lon="7.26188">
        <ele>1716.8</ele>
        <time>2023-02-05T09:22:43Z</time>
      </trkpt>
      <trkpt lat="44.12678" lon="7.26189">
        <ele>1717</ele>
        <time>2023-02-05T09:22:44Z</time>
      </trkpt>
      <trkpt lat="44.12679" lon="7.2619">
        <ele>1716.9</ele>
        <time>2023-02-05T09:22:45Z</time>
      </trkpt>
      <trkpt lat="44.12679" lon="7.2619">
        <ele>1716.9</ele>
        <time>2023-02-05T09:22:46Z</time>
      </trkpt>
      <trkpt lat="44.12679" lon="7.26191">
        <ele>1717</ele>
        <time>2023-02-05T09:22:47Z</time>
      </trkpt>
      <trkpt lat="44.12679" lon="7.26192">
        <ele>1717</ele>
        <time>2023-02-05T09:22:48Z</time>
      </trkpt>
      <trkpt lat="44.12682" lon="7.26194">
        <ele>1717.1</ele>
        <time>2023-02-05T09:22:49Z</time>
      </trkpt>
      <trkpt lat="44.12682" lon="7.26195">
        <ele>1717.1</ele>
        <time>2023-02-05T09:22:50Z</time>
      </trkpt>
      <trkpt lat="44.12683" lon="7.26196">
        <ele>1717.1</ele>
        <time>2023-02-05T09:22:51Z</time>
      </trkpt>
      <trkpt lat="44.12683" lon="7.26196">
        <ele>1717.2</ele>
        <time>2023-02-05T09:22:52Z</time>
      </trkpt>
      <trkpt lat="44.12682" lon="7.26197">
        <ele>1717.2</ele>
        <time>2023-02-05T09:22:53Z</time>
      </trkpt>
      <trkpt lat="44.12683" lon="7.26198">
        <ele>1717.2</ele>
        <time>2023-02-05T09:22:54Z</time>
      </trkpt>
      <trkpt lat="44.12683" lon="7.26198">
        <ele>1717.3</ele>
        <time>2023-02-05T09:22:55Z</time>
      </trkpt>
      <trkpt lat="44.12682" lon="7.262">
        <ele>1717.4</ele>
        <time>2023-02-05T09:22:56Z</time>
      </trkpt>
      <trkpt lat="44.12683" lon="7.26201">
        <ele>1717.4</ele>
        <time>2023-02-05T09:22:57Z</time>
      </trkpt>
      <trkpt lat="44.12683" lon="7.26201">
        <ele>1717.4</ele>
        <time>2023-02-05T09:22:58Z</time>
      </trkpt>
      <trkpt lat="44.12683" lon="7.26202">
        <ele>1717.5</ele>
        <time>2023-02-05T09:22:59Z</time>
      </trkpt>
      <trkpt lat="44.12684" lon="7.26203">
        <ele>1717.5</ele>
        <time>2023-02-05T09:23:00Z</time>
      </trkpt>
      <trkpt lat="44.12685" lon="7.26204">
        <ele>1717.5</ele>
        <time>2023-02-05T09:23:01Z</time>
      </trkpt>
      <trkpt lat="44.12685" lon="7.26205">
        <ele>1717.6</ele>
        <time>2023-02-05T09:23:02Z</time>
      </trkpt>
      <trkpt lat="44.12685" lon="7.26206">
        <ele>1717.7</ele>
        <time>2023-02-05T09:23:03Z</time>
      </trkpt>
      <trkpt lat="44.12685" lon="7.26206">
        <ele>1717.8</ele>
        <time>2023-02-05T09:23:04Z</time>
      </trkpt>
      <trkpt lat="44.12684" lon="7.26207">
        <ele>1717.9</ele>
        <time>2023-02-05T09:23:05Z</time>
      </trkpt>
      <trkpt lat="44.12684" lon="7.26207">
        <ele>1717.9</ele>
        <time>2023-02-05T09:23:06Z</time>
      </trkpt>
      <trkpt lat="44.12683" lon="7.26208">
        <ele>1717.9</ele>
        <time>2023-02-05T09:23:07Z</time>
      </trkpt>
      <trkpt lat="44.12683" lon="7.2621">
        <ele>1717.8</ele>
        <time>2023-02-05T09:23:08Z</time>
      </trkpt>
      <trkpt lat="44.12683" lon="7.26211">
        <ele>1717.8</ele>
        <time>2023-02-05T09:23:09Z</time>
      </trkpt>
      <trkpt lat="44.12683" lon="7.26212">
        <ele>1717.9</ele>
        <time>2023-02-05T09:23:10Z</time>
      </trkpt>
      <trkpt lat="44.12684" lon="7.26214">
        <ele>1717.9</ele>
        <time>2023-02-05T09:23:11Z</time>
      </trkpt>
      <trkpt lat="44.12685" lon="7.26216">
        <ele>1718</ele>
        <time>2023-02-05T09:23:12Z</time>
      </trkpt>
      <trkpt lat="44.12687" lon="7.26218">
        <ele>1718</ele>
        <time>2023-02-05T09:23:13Z</time>
      </trkpt>
      <trkpt lat="44.12688" lon="7.26219">
        <ele>1718</ele>
        <time>2023-02-05T09:23:14Z</time>
      </trkpt>
      <trkpt lat="44.12688" lon="7.2622">
        <ele>1718.1</ele>
        <time>2023-02-05T09:23:15Z</time>
      </trkpt>
      <trkpt lat="44.12688" lon="7.26221">
        <ele>1718.2</ele>
        <time>2023-02-05T09:23:16Z</time>
      </trkpt>
      <trkpt lat="44.12689" lon="7.26223">
        <ele>1718.3</ele>
        <time>2023-02-05T09:23:17Z</time>
      </trkpt>
      <trkpt lat="44.1269" lon="7.26225">
        <ele>1718.4</ele>
        <time>2023-02-05T09:23:18Z</time>
      </trkpt>
      <trkpt lat="44.12691" lon="7.26227">
        <ele>1718.5</ele>
        <time>2023-02-05T09:23:19Z</time>
      </trkpt>
      <trkpt lat="44.12691" lon="7.26228">
        <ele>1718.6</ele>
        <time>2023-02-05T09:23:20Z</time>
      </trkpt>
      <trkpt lat="44.12691" lon="7.2623">
        <ele>1718.6</ele>
        <time>2023-02-05T09:23:21Z</time>
      </trkpt>
      <trkpt lat="44.12692" lon="7.26232">
        <ele>1718.7</ele>
        <time>2023-02-05T09:23:22Z</time>
      </trkpt>
      <trkpt lat="44.12693" lon="7.26233">
        <ele>1718.7</ele>
        <time>2023-02-05T09:23:23Z</time>
      </trkpt>
      <trkpt lat="44.12694" lon="7.26234">
        <ele>1718.8</ele>
        <time>2023-02-05T09:23:24Z</time>
      </trkpt>
      <trkpt lat="44.12695" lon="7.26236">
        <ele>1718.9</ele>
        <time>2023-02-05T09:23:25Z</time>
      </trkpt>
      <trkpt lat="44.12696" lon="7.26236">
        <ele>1718.9</ele>
        <time>2023-02-05T09:23:26Z</time>
      </trkpt>
      <trkpt lat="44.12696" lon="7.26237">
        <ele>1719</ele>
        <time>2023-02-05T09:23:27Z</time>
      </trkpt>
      <trkpt lat="44.12696" lon="7.26239">
        <ele>1719</ele>
        <time>2023-02-05T09:23:28Z</time>
      </trkpt>
      <trkpt lat="44.12697" lon="7.2624">
        <ele>1719.1</ele>
        <time>2023-02-05T09:23:29Z</time>
      </trkpt>
      <trkpt lat="44.12697" lon="7.26241">
        <ele>1719.1</ele>
        <time>2023-02-05T09:23:30Z</time>
      </trkpt>
      <trkpt lat="44.12698" lon="7.26242">
        <ele>1719.2</ele>
        <time>2023-02-05T09:23:31Z</time>
      </trkpt>
      <trkpt lat="44.12698" lon="7.26243">
        <ele>1719.3</ele>
        <time>2023-02-05T09:23:32Z</time>
      </trkpt>
      <trkpt lat="44.12698" lon="7.26244">
        <ele>1719.4</ele>
        <time>2023-02-05T09:23:33Z</time>
      </trkpt>
      <trkpt lat="44.12698" lon="7.26245">
        <ele>1719.5</ele>
        <time>2023-02-05T09:23:34Z</time>
      </trkpt>
      <trkpt lat="44.12697" lon="7.26245">
        <ele>1719.6</ele>
        <time>2023-02-05T09:23:35Z</time>
      </trkpt>
      <trkpt lat="44.12698" lon="7.26246">
        <ele>1719.6</ele>
        <time>2023-02-05T09:23:36Z</time>
      </trkpt>
      <trkpt lat="44.12697" lon="7.26247">
        <ele>1719.7</ele>
        <time>2023-02-05T09:23:37Z</time>
      </trkpt>
      <trkpt lat="44.12697" lon="7.26248">
        <ele>1719.7</ele>
        <time>2023-02-05T09:23:38Z</time>
      </trkpt>
      <trkpt lat="44.12696" lon="7.26248">
        <ele>1719.8</ele>
        <time>2023-02-05T09:23:39Z</time>
      </trkpt>
      <trkpt lat="44.12695" lon="7.26249">
        <ele>1719.9</ele>
        <time>2023-02-05T09:23:40Z</time>
      </trkpt>
      <trkpt lat="44.12695" lon="7.2625">
        <ele>1719.9</ele>
        <time>2023-02-05T09:23:41Z</time>
      </trkpt>
      <trkpt lat="44.12695" lon="7.26251">
        <ele>1720.1</ele>
        <time>2023-02-05T09:23:42Z</time>
      </trkpt>
      <trkpt lat="44.12695" lon="7.26252">
        <ele>1720.2</ele>
        <time>2023-02-05T09:23:43Z</time>
      </trkpt>
      <trkpt lat="44.12694" lon="7.26253">
        <ele>1720.3</ele>
        <time>2023-02-05T09:23:44Z</time>
      </trkpt>
      <trkpt lat="44.12693" lon="7.26253">
        <ele>1720.4</ele>
        <time>2023-02-05T09:23:45Z</time>
      </trkpt>
      <trkpt lat="44.12693" lon="7.26254">
        <ele>1720.5</ele>
        <time>2023-02-05T09:23:46Z</time>
      </trkpt>
      <trkpt lat="44.12693" lon="7.26255">
        <ele>1720.5</ele>
        <time>2023-02-05T09:23:47Z</time>
      </trkpt>
      <trkpt lat="44.12693" lon="7.26256">
        <ele>1720.6</ele>
        <time>2023-02-05T09:23:48Z</time>
      </trkpt>
      <trkpt lat="44.12693" lon="7.26258">
        <ele>1720.6</ele>
        <time>2023-02-05T09:23:49Z</time>
      </trkpt>
      <trkpt lat="44.12694" lon="7.26259">
        <ele>1720.7</ele>
        <time>2023-02-05T09:23:50Z</time>
      </trkpt>
      <trkpt lat="44.12693" lon="7.2626">
        <ele>1720.7</ele>
        <time>2023-02-05T09:23:51Z</time>
      </trkpt>
      <trkpt lat="44.12692" lon="7.2626">
        <ele>1720.7</ele>
        <time>2023-02-05T09:23:52Z</time>
      </trkpt>
      <trkpt lat="44.12692" lon="7.26261">
        <ele>1720.8</ele>
        <time>2023-02-05T09:23:53Z</time>
      </trkpt>
      <trkpt lat="44.12691" lon="7.26262">
        <ele>1721</ele>
        <time>2023-02-05T09:23:54Z</time>
      </trkpt>
      <trkpt lat="44.12691" lon="7.26262">
        <ele>1721.2</ele>
        <time>2023-02-05T09:23:55Z</time>
      </trkpt>
      <trkpt lat="44.12691" lon="7.26263">
        <ele>1721.3</ele>
        <time>2023-02-05T09:23:56Z</time>
      </trkpt>
      <trkpt lat="44.12691" lon="7.26264">
        <ele>1721.4</ele>
        <time>2023-02-05T09:23:57Z</time>
      </trkpt>
      <trkpt lat="44.12691" lon="7.26265">
        <ele>1721.6</ele>
        <time>2023-02-05T09:23:58Z</time>
      </trkpt>
      <trkpt lat="44.12691" lon="7.26266">
        <ele>1721.7</ele>
        <time>2023-02-05T09:23:59Z</time>
      </trkpt>
      <trkpt lat="44.12691" lon="7.26267">
        <ele>1721.9</ele>
        <time>2023-02-05T09:24:00Z</time>
      </trkpt>
      <trkpt lat="44.12691" lon="7.26268">
        <ele>1721.8</ele>
        <time>2023-02-05T09:24:01Z</time>
      </trkpt>
      <trkpt lat="44.1269" lon="7.26269">
        <ele>1721.8</ele>
        <time>2023-02-05T09:24:02Z</time>
      </trkpt>
      <trkpt lat="44.12689" lon="7.2627">
        <ele>1722.1</ele>
        <time>2023-02-05T09:24:03Z</time>
      </trkpt>
      <trkpt lat="44.12689" lon="7.26271">
        <ele>1722.4</ele>
        <time>2023-02-05T09:24:04Z</time>
      </trkpt>
      <trkpt lat="44.12689" lon="7.26272">
        <ele>1722.5</ele>
        <time>2023-02-05T09:24:05Z</time>
      </trkpt>
      <trkpt lat="44.12689" lon="7.26273">
        <ele>1722.7</ele>
        <time>2023-02-05T09:24:06Z</time>
      </trkpt>
      <trkpt lat="44.12689" lon="7.26274">
        <ele>1722.8</ele>
        <time>2023-02-05T09:24:07Z</time>
      </trkpt>
      <trkpt lat="44.12689" lon="7.26274">
        <ele>1722.9</ele>
        <time>2023-02-05T09:24:08Z</time>
      </trkpt>
      <trkpt lat="44.12688" lon="7.26275">
        <ele>1722.9</ele>
        <time>2023-02-05T09:24:09Z</time>
      </trkpt>
      <trkpt lat="44.12688" lon="7.26277">
        <ele>1722.9</ele>
        <time>2023-02-05T09:24:10Z</time>
      </trkpt>
      <trkpt lat="44.12688" lon="7.26278">
        <ele>1723</ele>
        <time>2023-02-05T09:24:11Z</time>
      </trkpt>
      <trkpt lat="44.12688" lon="7.26279">
        <ele>1723.1</ele>
        <time>2023-02-05T09:24:12Z</time>
      </trkpt>
      <trkpt lat="44.12689" lon="7.26281">
        <ele>1723.1</ele>
        <time>2023-02-05T09:24:13Z</time>
      </trkpt>
      <trkpt lat="44.1269" lon="7.26282">
        <ele>1723.1</ele>
        <time>2023-02-05T09:24:14Z</time>
      </trkpt>
      <trkpt lat="44.1269" lon="7.26283">
        <ele>1723.2</ele>
        <time>2023-02-05T09:24:15Z</time>
      </trkpt>
      <trkpt lat="44.1269" lon="7.26285">
        <ele>1723.3</ele>
        <time>2023-02-05T09:24:16Z</time>
      </trkpt>
      <trkpt lat="44.12691" lon="7.26285">
        <ele>1723.3</ele>
        <time>2023-02-05T09:24:17Z</time>
      </trkpt>
      <trkpt lat="44.12692" lon="7.26287">
        <ele>1723.3</ele>
        <time>2023-02-05T09:24:18Z</time>
      </trkpt>
      <trkpt lat="44.12695" lon="7.26289">
        <ele>1723.3</ele>
        <time>2023-02-05T09:24:19Z</time>
      </trkpt>
      <trkpt lat="44.12695" lon="7.2629">
        <ele>1723.3</ele>
        <time>2023-02-05T09:24:20Z</time>
      </trkpt>
      <trkpt lat="44.12697" lon="7.26292">
        <ele>1723.3</ele>
        <time>2023-02-05T09:24:21Z</time>
      </trkpt>
      <trkpt lat="44.12697" lon="7.26293">
        <ele>1723.4</ele>
        <time>2023-02-05T09:24:22Z</time>
      </trkpt>
      <trkpt lat="44.12697" lon="7.26295">
        <ele>1723.6</ele>
        <time>2023-02-05T09:24:23Z</time>
      </trkpt>
      <trkpt lat="44.12698" lon="7.26296">
        <ele>1723.6</ele>
        <time>2023-02-05T09:24:24Z</time>
      </trkpt>
      <trkpt lat="44.12699" lon="7.26297">
        <ele>1723.7</ele>
        <time>2023-02-05T09:24:25Z</time>
      </trkpt>
      <trkpt lat="44.12699" lon="7.26299">
        <ele>1723.8</ele>
        <time>2023-02-05T09:24:26Z</time>
      </trkpt>
      <trkpt lat="44.127" lon="7.263">
        <ele>1723.8</ele>
        <time>2023-02-05T09:24:27Z</time>
      </trkpt>
      <trkpt lat="44.127" lon="7.26301">
        <ele>1723.8</ele>
        <time>2023-02-05T09:24:28Z</time>
      </trkpt>
      <trkpt lat="44.127" lon="7.26301">
        <ele>1723.8</ele>
        <time>2023-02-05T09:24:29Z</time>
      </trkpt>
      <trkpt lat="44.127" lon="7.26303">
        <ele>1723.9</ele>
        <time>2023-02-05T09:24:30Z</time>
      </trkpt>
      <trkpt lat="44.127" lon="7.26304">
        <ele>1723.9</ele>
        <time>2023-02-05T09:24:31Z</time>
      </trkpt>
      <trkpt lat="44.12701" lon="7.26306">
        <ele>1724.1</ele>
        <time>2023-02-05T09:24:32Z</time>
      </trkpt>
      <trkpt lat="44.12701" lon="7.26307">
        <ele>1724.2</ele>
        <time>2023-02-05T09:24:33Z</time>
      </trkpt>
      <trkpt lat="44.12701" lon="7.26308">
        <ele>1724.4</ele>
        <time>2023-02-05T09:24:34Z</time>
      </trkpt>
      <trkpt lat="44.127" lon="7.26309">
        <ele>1724.4</ele>
        <time>2023-02-05T09:24:35Z</time>
      </trkpt>
      <trkpt lat="44.12699" lon="7.26309">
        <ele>1724.5</ele>
        <time>2023-02-05T09:24:36Z</time>
      </trkpt>
      <trkpt lat="44.12699" lon="7.2631">
        <ele>1724.6</ele>
        <time>2023-02-05T09:24:37Z</time>
      </trkpt>
      <trkpt lat="44.12699" lon="7.26311">
        <ele>1724.6</ele>
        <time>2023-02-05T09:24:38Z</time>
      </trkpt>
      <trkpt lat="44.12698" lon="7.26312">
        <ele>1724.6</ele>
        <time>2023-02-05T09:24:39Z</time>
      </trkpt>
      <trkpt lat="44.12698" lon="7.26313">
        <ele>1724.6</ele>
        <time>2023-02-05T09:24:40Z</time>
      </trkpt>
      <trkpt lat="44.12698" lon="7.26314">
        <ele>1724.6</ele>
        <time>2023-02-05T09:24:41Z</time>
      </trkpt>
      <trkpt lat="44.12698" lon="7.26315">
        <ele>1724.7</ele>
        <time>2023-02-05T09:24:42Z</time>
      </trkpt>
      <trkpt lat="44.12698" lon="7.26317">
        <ele>1724.8</ele>
        <time>2023-02-05T09:24:43Z</time>
      </trkpt>
      <trkpt lat="44.12698" lon="7.26318">
        <ele>1724.8</ele>
        <time>2023-02-05T09:24:44Z</time>
      </trkpt>
      <trkpt lat="44.12697" lon="7.26319">
        <ele>1724.9</ele>
        <time>2023-02-05T09:24:45Z</time>
      </trkpt>
      <trkpt lat="44.12697" lon="7.2632">
        <ele>1724.9</ele>
        <time>2023-02-05T09:24:46Z</time>
      </trkpt>
      <trkpt lat="44.12697" lon="7.26321">
        <ele>1725.1</ele>
        <time>2023-02-05T09:24:47Z</time>
      </trkpt>
      <trkpt lat="44.12697" lon="7.26322">
        <ele>1725.2</ele>
        <time>2023-02-05T09:24:48Z</time>
      </trkpt>
      <trkpt lat="44.12696" lon="7.26323">
        <ele>1725.3</ele>
        <time>2023-02-05T09:24:49Z</time>
      </trkpt>
      <trkpt lat="44.12695" lon="7.26324">
        <ele>1725.3</ele>
        <time>2023-02-05T09:24:50Z</time>
      </trkpt>
      <trkpt lat="44.12694" lon="7.26325">
        <ele>1725.4</ele>
        <time>2023-02-05T09:24:51Z</time>
      </trkpt>
      <trkpt lat="44.12695" lon="7.26325">
        <ele>1725.5</ele>
        <time>2023-02-05T09:24:52Z</time>
      </trkpt>
      <trkpt lat="44.12695" lon="7.26327">
        <ele>1725.6</ele>
        <time>2023-02-05T09:24:53Z</time>
      </trkpt>
      <trkpt lat="44.12696" lon="7.26328">
        <ele>1725.8</ele>
        <time>2023-02-05T09:24:54Z</time>
      </trkpt>
      <trkpt lat="44.12696" lon="7.26329">
        <ele>1725.9</ele>
        <time>2023-02-05T09:24:55Z</time>
      </trkpt>
      <trkpt lat="44.12696" lon="7.2633">
        <ele>1726.1</ele>
        <time>2023-02-05T09:24:56Z</time>
      </trkpt>
      <trkpt lat="44.12697" lon="7.2633">
        <ele>1726.2</ele>
        <time>2023-02-05T09:24:57Z</time>
      </trkpt>
      <trkpt lat="44.12698" lon="7.26332">
        <ele>1726.3</ele>
        <time>2023-02-05T09:24:58Z</time>
      </trkpt>
      <trkpt lat="44.12698" lon="7.26332">
        <ele>1726.4</ele>
        <time>2023-02-05T09:24:59Z</time>
      </trkpt>
      <trkpt lat="44.127" lon="7.26333">
        <ele>1726.5</ele>
        <time>2023-02-05T09:25:00Z</time>
      </trkpt>
      <trkpt lat="44.127" lon="7.26334">
        <ele>1726.6</ele>
        <time>2023-02-05T09:25:01Z</time>
      </trkpt>
      <trkpt lat="44.127" lon="7.26334">
        <ele>1726.7</ele>
        <time>2023-02-05T09:25:02Z</time>
      </trkpt>
      <trkpt lat="44.12701" lon="7.26335">
        <ele>1726.8</ele>
        <time>2023-02-05T09:25:03Z</time>
      </trkpt>
      <trkpt lat="44.12701" lon="7.26336">
        <ele>1726.8</ele>
        <time>2023-02-05T09:25:04Z</time>
      </trkpt>
      <trkpt lat="44.12702" lon="7.26337">
        <ele>1727</ele>
        <time>2023-02-05T09:25:05Z</time>
      </trkpt>
      <trkpt lat="44.12703" lon="7.26338">
        <ele>1727.1</ele>
        <time>2023-02-05T09:25:06Z</time>
      </trkpt>
      <trkpt lat="44.12705" lon="7.26338">
        <ele>1727.3</ele>
        <time>2023-02-05T09:25:07Z</time>
      </trkpt>
      <trkpt lat="44.12705" lon="7.26339">
        <ele>1727.4</ele>
        <time>2023-02-05T09:25:08Z</time>
      </trkpt>
      <trkpt lat="44.12707" lon="7.26339">
        <ele>1727.5</ele>
        <time>2023-02-05T09:25:09Z</time>
      </trkpt>
      <trkpt lat="44.12709" lon="7.2634">
        <ele>1727.6</ele>
        <time>2023-02-05T09:25:10Z</time>
      </trkpt>
      <trkpt lat="44.12711" lon="7.2634">
        <ele>1727.7</ele>
        <time>2023-02-05T09:25:11Z</time>
      </trkpt>
      <trkpt lat="44.12711" lon="7.26339">
        <ele>1727.8</ele>
        <time>2023-02-05T09:25:12Z</time>
      </trkpt>
      <trkpt lat="44.12711" lon="7.26339">
        <ele>1727.9</ele>
        <time>2023-02-05T09:25:13Z</time>
      </trkpt>
      <trkpt lat="44.12712" lon="7.26338">
        <ele>1727.9</ele>
        <time>2023-02-05T09:25:14Z</time>
      </trkpt>
      <trkpt lat="44.12712" lon="7.26337">
        <ele>1728</ele>
        <time>2023-02-05T09:25:15Z</time>
      </trkpt>
      <trkpt lat="44.12712" lon="7.26336">
        <ele>1728.1</ele>
        <time>2023-02-05T09:25:16Z</time>
      </trkpt>
      <trkpt lat="44.12713" lon="7.26335">
        <ele>1728.1</ele>
        <time>2023-02-05T09:25:17Z</time>
      </trkpt>
      <trkpt lat="44.12713" lon="7.26334">
        <ele>1728.2</ele>
        <time>2023-02-05T09:25:18Z</time>
      </trkpt>
      <trkpt lat="44.12713" lon="7.26333">
        <ele>1728.2</ele>
        <time>2023-02-05T09:25:19Z</time>
      </trkpt>
      <trkpt lat="44.12712" lon="7.26332">
        <ele>1728.3</ele>
        <time>2023-02-05T09:25:20Z</time>
      </trkpt>
      <trkpt lat="44.12713" lon="7.26332">
        <ele>1728.3</ele>
        <time>2023-02-05T09:25:21Z</time>
      </trkpt>
      <trkpt lat="44.12713" lon="7.26331">
        <ele>1728.4</ele>
        <time>2023-02-05T09:25:22Z</time>
      </trkpt>
      <trkpt lat="44.12713" lon="7.2633">
        <ele>1728.5</ele>
        <time>2023-02-05T09:25:23Z</time>
      </trkpt>
      <trkpt lat="44.12713" lon="7.26329">
        <ele>1728.6</ele>
        <time>2023-02-05T09:25:24Z</time>
      </trkpt>
      <trkpt lat="44.12714" lon="7.26328">
        <ele>1728.7</ele>
        <time>2023-02-05T09:25:25Z</time>
      </trkpt>
      <trkpt lat="44.12714" lon="7.26326">
        <ele>1728.8</ele>
        <time>2023-02-05T09:25:26Z</time>
      </trkpt>
      <trkpt lat="44.12714" lon="7.26325">
        <ele>1728.9</ele>
        <time>2023-02-05T09:25:27Z</time>
      </trkpt>
      <trkpt lat="44.12714" lon="7.26324">
        <ele>1729</ele>
        <time>2023-02-05T09:25:28Z</time>
      </trkpt>
      <trkpt lat="44.12714" lon="7.26323">
        <ele>1729.1</ele>
        <time>2023-02-05T09:25:29Z</time>
      </trkpt>
      <trkpt lat="44.12714" lon="7.26322">
        <ele>1729.2</ele>
        <time>2023-02-05T09:25:30Z</time>
      </trkpt>
      <trkpt lat="44.12714" lon="7.2632">
        <ele>1729.3</ele>
        <time>2023-02-05T09:25:31Z</time>
      </trkpt>
      <trkpt lat="44.12714" lon="7.26319">
        <ele>1729.3</ele>
        <time>2023-02-05T09:25:32Z</time>
      </trkpt>
      <trkpt lat="44.12715" lon="7.26318">
        <ele>1729.5</ele>
        <time>2023-02-05T09:25:33Z</time>
      </trkpt>
      <trkpt lat="44.12715" lon="7.26317">
        <ele>1729.6</ele>
        <time>2023-02-05T09:25:34Z</time>
      </trkpt>
      <trkpt lat="44.12716" lon="7.26316">
        <ele>1729.7</ele>
        <time>2023-02-05T09:25:35Z</time>
      </trkpt>
      <trkpt lat="44.12717" lon="7.26315">
        <ele>1729.8</ele>
        <time>2023-02-05T09:25:36Z</time>
      </trkpt>
      <trkpt lat="44.12717" lon="7.26314">
        <ele>1729.8</ele>
        <time>2023-02-05T09:25:37Z</time>
      </trkpt>
      <trkpt lat="44.12717" lon="7.26312">
        <ele>1729.8</ele>
        <time>2023-02-05T09:25:38Z</time>
      </trkpt>
      <trkpt lat="44.12717" lon="7.26311">
        <ele>1729.8</ele>
        <time>2023-02-05T09:25:39Z</time>
      </trkpt>
      <trkpt lat="44.12716" lon="7.2631">
        <ele>1730.1</ele>
        <time>2023-02-05T09:25:40Z</time>
      </trkpt>
      <trkpt lat="44.12716" lon="7.26308">
        <ele>1730.1</ele>
        <time>2023-02-05T09:25:41Z</time>
      </trkpt>
      <trkpt lat="44.12717" lon="7.26307">
        <ele>1730.1</ele>
        <time>2023-02-05T09:25:42Z</time>
      </trkpt>
      <trkpt lat="44.12717" lon="7.26306">
        <ele>1730.2</ele>
        <time>2023-02-05T09:25:43Z</time>
      </trkpt>
      <trkpt lat="44.12716" lon="7.26305">
        <ele>1730.3</ele>
        <time>2023-02-05T09:25:44Z</time>
      </trkpt>
      <trkpt lat="44.12717" lon="7.26304">
        <ele>1730.3</ele>
        <time>2023-02-05T09:25:45Z</time>
      </trkpt>
      <trkpt lat="44.12718" lon="7.26303">
        <ele>1730.5</ele>
        <time>2023-02-05T09:25:46Z</time>
      </trkpt>
      <trkpt lat="44.12718" lon="7.26303">
        <ele>1730.7</ele>
        <time>2023-02-05T09:25:47Z</time>
      </trkpt>
      <trkpt lat="44.12718" lon="7.26302">
        <ele>1730.8</ele>
        <time>2023-02-05T09:25:48Z</time>
      </trkpt>
      <trkpt lat="44.12717" lon="7.26301">
        <ele>1730.9</ele>
        <time>2023-02-05T09:25:49Z</time>
      </trkpt>
      <trkpt lat="44.12718" lon="7.263">
        <ele>1730.9</ele>
        <time>2023-02-05T09:25:50Z</time>
      </trkpt>
      <trkpt lat="44.12719" lon="7.26299">
        <ele>1731</ele>
        <time>2023-02-05T09:25:51Z</time>
      </trkpt>
      <trkpt lat="44.12719" lon="7.26298">
        <ele>1731</ele>
        <time>2023-02-05T09:25:52Z</time>
      </trkpt>
      <trkpt lat="44.1272" lon="7.26297">
        <ele>1731</ele>
        <time>2023-02-05T09:25:53Z</time>
      </trkpt>
      <trkpt lat="44.1272" lon="7.26295">
        <ele>1731.1</ele>
        <time>2023-02-05T09:25:54Z</time>
      </trkpt>
      <trkpt lat="44.12721" lon="7.26294">
        <ele>1731.1</ele>
        <time>2023-02-05T09:25:55Z</time>
      </trkpt>
      <trkpt lat="44.1272" lon="7.26293">
        <ele>1731.2</ele>
        <time>2023-02-05T09:25:56Z</time>
      </trkpt>
      <trkpt lat="44.12721" lon="7.26292">
        <ele>1731.2</ele>
        <time>2023-02-05T09:25:57Z</time>
      </trkpt>
      <trkpt lat="44.12721" lon="7.26291">
        <ele>1731.2</ele>
        <time>2023-02-05T09:25:58Z</time>
      </trkpt>
      <trkpt lat="44.12721" lon="7.2629">
        <ele>1731.3</ele>
        <time>2023-02-05T09:25:59Z</time>
      </trkpt>
      <trkpt lat="44.12721" lon="7.26289">
        <ele>1731.4</ele>
        <time>2023-02-05T09:26:00Z</time>
      </trkpt>
      <trkpt lat="44.12722" lon="7.26288">
        <ele>1731.4</ele>
        <time>2023-02-05T09:26:01Z</time>
      </trkpt>
      <trkpt lat="44.12723" lon="7.26287">
        <ele>1731.5</ele>
        <time>2023-02-05T09:26:02Z</time>
      </trkpt>
      <trkpt lat="44.12723" lon="7.26286">
        <ele>1731.5</ele>
        <time>2023-02-05T09:26:03Z</time>
      </trkpt>
      <trkpt lat="44.12724" lon="7.26286">
        <ele>1731.6</ele>
        <time>2023-02-05T09:26:04Z</time>
      </trkpt>
      <trkpt lat="44.12724" lon="7.26284">
        <ele>1731.7</ele>
        <time>2023-02-05T09:26:05Z</time>
      </trkpt>
      <trkpt lat="44.12724" lon="7.26283">
        <ele>1731.7</ele>
        <time>2023-02-05T09:26:06Z</time>
      </trkpt>
      <trkpt lat="44.12725" lon="7.26282">
        <ele>1731.8</ele>
        <time>2023-02-05T09:26:07Z</time>
      </trkpt>
      <trkpt lat="44.12725" lon="7.26281">
        <ele>1731.9</ele>
        <time>2023-02-05T09:26:08Z</time>
      </trkpt>
      <trkpt lat="44.12725" lon="7.26281">
        <ele>1732</ele>
        <time>2023-02-05T09:26:09Z</time>
      </trkpt>
      <trkpt lat="44.12725" lon="7.2628">
        <ele>1732.2</ele>
        <time>2023-02-05T09:26:10Z</time>
      </trkpt>
      <trkpt lat="44.12725" lon="7.26278">
        <ele>1732.2</ele>
        <time>2023-02-05T09:26:11Z</time>
      </trkpt>
      <trkpt lat="44.12725" lon="7.26277">
        <ele>1732.2</ele>
        <time>2023-02-05T09:26:12Z</time>
      </trkpt>
      <trkpt lat="44.12725" lon="7.26276">
        <ele>1732.3</ele>
        <time>2023-02-05T09:26:13Z</time>
      </trkpt>
      <trkpt lat="44.12725" lon="7.26275">
        <ele>1732.3</ele>
        <time>2023-02-05T09:26:14Z</time>
      </trkpt>
      <trkpt lat="44.12725" lon="7.26274">
        <ele>1732.4</ele>
        <time>2023-02-05T09:26:15Z</time>
      </trkpt>
      <trkpt lat="44.12725" lon="7.26273">
        <ele>1732.5</ele>
        <time>2023-02-05T09:26:16Z</time>
      </trkpt>
      <trkpt lat="44.12725" lon="7.26271">
        <ele>1732.6</ele>
        <time>2023-02-05T09:26:17Z</time>
      </trkpt>
      <trkpt lat="44.12725" lon="7.26269">
        <ele>1732.6</ele>
        <time>2023-02-05T09:26:18Z</time>
      </trkpt>
      <trkpt lat="44.12725" lon="7.26267">
        <ele>1732.7</ele>
        <time>2023-02-05T09:26:19Z</time>
      </trkpt>
      <trkpt lat="44.12725" lon="7.26266">
        <ele>1732.5</ele>
        <time>2023-02-05T09:26:20Z</time>
      </trkpt>
      <trkpt lat="44.12726" lon="7.26265">
        <ele>1732.6</ele>
        <time>2023-02-05T09:26:21Z</time>
      </trkpt>
      <trkpt lat="44.12725" lon="7.26264">
        <ele>1732.7</ele>
        <time>2023-02-05T09:26:22Z</time>
      </trkpt>
      <trkpt lat="44.12725" lon="7.26263">
        <ele>1732.8</ele>
        <time>2023-02-05T09:26:23Z</time>
      </trkpt>
      <trkpt lat="44.12726" lon="7.26262">
        <ele>1733</ele>
        <time>2023-02-05T09:26:24Z</time>
      </trkpt>
      <trkpt lat="44.12727" lon="7.26261">
        <ele>1733.1</ele>
        <time>2023-02-05T09:26:25Z</time>
      </trkpt>
      <trkpt lat="44.12727" lon="7.26261">
        <ele>1733.2</ele>
        <time>2023-02-05T09:26:26Z</time>
      </trkpt>
      <trkpt lat="44.12727" lon="7.26259">
        <ele>1733.3</ele>
        <time>2023-02-05T09:26:27Z</time>
      </trkpt>
      <trkpt lat="44.12727" lon="7.26258">
        <ele>1733.3</ele>
        <time>2023-02-05T09:26:28Z</time>
      </trkpt>
      <trkpt lat="44.12726" lon="7.26257">
        <ele>1733.5</ele>
        <time>2023-02-05T09:26:29Z</time>
      </trkpt>
      <trkpt lat="44.12727" lon="7.26255">
        <ele>1733.6</ele>
        <time>2023-02-05T09:26:30Z</time>
      </trkpt>
      <trkpt lat="44.12727" lon="7.26254">
        <ele>1733.8</ele>
        <time>2023-02-05T09:26:31Z</time>
      </trkpt>
      <trkpt lat="44.12727" lon="7.26253">
        <ele>1733.8</ele>
        <time>2023-02-05T09:26:32Z</time>
      </trkpt>
      <trkpt lat="44.12727" lon="7.26252">
        <ele>1733.9</ele>
        <time>2023-02-05T09:26:33Z</time>
      </trkpt>
      <trkpt lat="44.12727" lon="7.26251">
        <ele>1734</ele>
        <time>2023-02-05T09:26:34Z</time>
      </trkpt>
      <trkpt lat="44.12727" lon="7.2625">
        <ele>1734</ele>
        <time>2023-02-05T09:26:35Z</time>
      </trkpt>
      <trkpt lat="44.12728" lon="7.26249">
        <ele>1734.1</ele>
        <time>2023-02-05T09:26:36Z</time>
      </trkpt>
      <trkpt lat="44.12728" lon="7.26248">
        <ele>1734.2</ele>
        <time>2023-02-05T09:26:37Z</time>
      </trkpt>
      <trkpt lat="44.12729" lon="7.26248">
        <ele>1734.2</ele>
        <time>2023-02-05T09:26:38Z</time>
      </trkpt>
      <trkpt lat="44.12729" lon="7.26246">
        <ele>1734.4</ele>
        <time>2023-02-05T09:26:39Z</time>
      </trkpt>
      <trkpt lat="44.12729" lon="7.26245">
        <ele>1734.5</ele>
        <time>2023-02-05T09:26:40Z</time>
      </trkpt>
      <trkpt lat="44.12729" lon="7.26244">
        <ele>1734.5</ele>
        <time>2023-02-05T09:26:41Z</time>
      </trkpt>
      <trkpt lat="44.1273" lon="7.26243">
        <ele>1734.7</ele>
        <time>2023-02-05T09:26:42Z</time>
      </trkpt>
      <trkpt lat="44.1273" lon="7.26242">
        <ele>1734.8</ele>
        <time>2023-02-05T09:26:43Z</time>
      </trkpt>
      <trkpt lat="44.12731" lon="7.26241">
        <ele>1734.9</ele>
        <time>2023-02-05T09:26:44Z</time>
      </trkpt>
      <trkpt lat="44.12731" lon="7.2624">
        <ele>1735</ele>
        <time>2023-02-05T09:26:45Z</time>
      </trkpt>
      <trkpt lat="44.12731" lon="7.26239">
        <ele>1735.1</ele>
        <time>2023-02-05T09:26:46Z</time>
      </trkpt>
      <trkpt lat="44.12732" lon="7.26238">
        <ele>1735.2</ele>
        <time>2023-02-05T09:26:47Z</time>
      </trkpt>
      <trkpt lat="44.12732" lon="7.26237">
        <ele>1735.3</ele>
        <time>2023-02-05T09:26:48Z</time>
      </trkpt>
      <trkpt lat="44.12732" lon="7.26236">
        <ele>1735.4</ele>
        <time>2023-02-05T09:26:49Z</time>
      </trkpt>
      <trkpt lat="44.12733" lon="7.26235">
        <ele>1735.5</ele>
        <time>2023-02-05T09:26:50Z</time>
      </trkpt>
      <trkpt lat="44.12733" lon="7.26234">
        <ele>1735.6</ele>
        <time>2023-02-05T09:26:51Z</time>
      </trkpt>
      <trkpt lat="44.12733" lon="7.26233">
        <ele>1735.7</ele>
        <time>2023-02-05T09:26:52Z</time>
      </trkpt>
      <trkpt lat="44.12734" lon="7.26232">
        <ele>1735.8</ele>
        <time>2023-02-05T09:26:53Z</time>
      </trkpt>
      <trkpt lat="44.12733" lon="7.26231">
        <ele>1735.8</ele>
        <time>2023-02-05T09:26:54Z</time>
      </trkpt>
      <trkpt lat="44.12734" lon="7.2623">
        <ele>1735.9</ele>
        <time>2023-02-05T09:26:55Z</time>
      </trkpt>
      <trkpt lat="44.12734" lon="7.26229">
        <ele>1735.9</ele>
        <time>2023-02-05T09:26:56Z</time>
      </trkpt>
      <trkpt lat="44.12735" lon="7.26228">
        <ele>1735.9</ele>
        <time>2023-02-05T09:26:57Z</time>
      </trkpt>
      <trkpt lat="44.12735" lon="7.26227">
        <ele>1736</ele>
        <time>2023-02-05T09:26:58Z</time>
      </trkpt>
      <trkpt lat="44.12736" lon="7.26226">
        <ele>1736.1</ele>
        <time>2023-02-05T09:26:59Z</time>
      </trkpt>
      <trkpt lat="44.12736" lon="7.26226">
        <ele>1736.3</ele>
        <time>2023-02-05T09:27:00Z</time>
      </trkpt>
      <trkpt lat="44.12736" lon="7.26225">
        <ele>1736.4</ele>
        <time>2023-02-05T09:27:01Z</time>
      </trkpt>
      <trkpt lat="44.12736" lon="7.26224">
        <ele>1736.5</ele>
        <time>2023-02-05T09:27:02Z</time>
      </trkpt>
      <trkpt lat="44.12736" lon="7.26222">
        <ele>1736.5</ele>
        <time>2023-02-05T09:27:03Z</time>
      </trkpt>
      <trkpt lat="44.12737" lon="7.26222">
        <ele>1736.6</ele>
        <time>2023-02-05T09:27:04Z</time>
      </trkpt>
      <trkpt lat="44.12737" lon="7.26221">
        <ele>1736.7</ele>
        <time>2023-02-05T09:27:05Z</time>
      </trkpt>
      <trkpt lat="44.12737" lon="7.2622">
        <ele>1736.8</ele>
        <time>2023-02-05T09:27:06Z</time>
      </trkpt>
      <trkpt lat="44.12738" lon="7.2622">
        <ele>1737</ele>
        <time>2023-02-05T09:27:07Z</time>
      </trkpt>
      <trkpt lat="44.12738" lon="7.26219">
        <ele>1737</ele>
        <time>2023-02-05T09:27:08Z</time>
      </trkpt>
      <trkpt lat="44.12738" lon="7.26218">
        <ele>1737.2</ele>
        <time>2023-02-05T09:27:09Z</time>
      </trkpt>
      <trkpt lat="44.12739" lon="7.26216">
        <ele>1737.3</ele>
        <time>2023-02-05T09:27:10Z</time>
      </trkpt>
      <trkpt lat="44.12738" lon="7.26215">
        <ele>1737.4</ele>
        <time>2023-02-05T09:27:11Z</time>
      </trkpt>
      <trkpt lat="44.12738" lon="7.26214">
        <ele>1737.4</ele>
        <time>2023-02-05T09:27:12Z</time>
      </trkpt>
      <trkpt lat="44.12738" lon="7.26213">
        <ele>1737.5</ele>
        <time>2023-02-05T09:27:13Z</time>
      </trkpt>
      <trkpt lat="44.12738" lon="7.26211">
        <ele>1737.5</ele>
        <time>2023-02-05T09:27:14Z</time>
      </trkpt>
      <trkpt lat="44.12738" lon="7.2621">
        <ele>1737.6</ele>
        <time>2023-02-05T09:27:15Z</time>
      </trkpt>
      <trkpt lat="44.12739" lon="7.26209">
        <ele>1737.6</ele>
        <time>2023-02-05T09:27:16Z</time>
      </trkpt>
      <trkpt lat="44.1274" lon="7.26209">
        <ele>1737.7</ele>
        <time>2023-02-05T09:27:17Z</time>
      </trkpt>
      <trkpt lat="44.1274" lon="7.26208">
        <ele>1737.8</ele>
        <time>2023-02-05T09:27:18Z</time>
      </trkpt>
      <trkpt lat="44.1274" lon="7.26206">
        <ele>1737.8</ele>
        <time>2023-02-05T09:27:19Z</time>
      </trkpt>
      <trkpt lat="44.1274" lon="7.26205">
        <ele>1737.9</ele>
        <time>2023-02-05T09:27:20Z</time>
      </trkpt>
      <trkpt lat="44.12741" lon="7.26205">
        <ele>1737.9</ele>
        <time>2023-02-05T09:27:21Z</time>
      </trkpt>
      <trkpt lat="44.12741" lon="7.26203">
        <ele>1738</ele>
        <time>2023-02-05T09:27:22Z</time>
      </trkpt>
      <trkpt lat="44.12741" lon="7.26202">
        <ele>1738.1</ele>
        <time>2023-02-05T09:27:23Z</time>
      </trkpt>
      <trkpt lat="44.12741" lon="7.26201">
        <ele>1738.1</ele>
        <time>2023-02-05T09:27:24Z</time>
      </trkpt>
      <trkpt lat="44.12741" lon="7.262">
        <ele>1738.2</ele>
        <time>2023-02-05T09:27:25Z</time>
      </trkpt>
      <trkpt lat="44.12741" lon="7.26199">
        <ele>1738.3</ele>
        <time>2023-02-05T09:27:26Z</time>
      </trkpt>
      <trkpt lat="44.12741" lon="7.26197">
        <ele>1738.3</ele>
        <time>2023-02-05T09:27:27Z</time>
      </trkpt>
      <trkpt lat="44.12741" lon="7.26196">
        <ele>1738.4</ele>
        <time>2023-02-05T09:27:28Z</time>
      </trkpt>
      <trkpt lat="44.12741" lon="7.26195">
        <ele>1738.4</ele>
        <time>2023-02-05T09:27:29Z</time>
      </trkpt>
      <trkpt lat="44.12741" lon="7.26194">
        <ele>1738.5</ele>
        <time>2023-02-05T09:27:30Z</time>
      </trkpt>
      <trkpt lat="44.12741" lon="7.26193">
        <ele>1738.6</ele>
        <time>2023-02-05T09:27:31Z</time>
      </trkpt>
      <trkpt lat="44.12742" lon="7.26192">
        <ele>1738.7</ele>
        <time>2023-02-05T09:27:32Z</time>
      </trkpt>
      <trkpt lat="44.1274" lon="7.26191">
        <ele>1738.8</ele>
        <time>2023-02-05T09:27:33Z</time>
      </trkpt>
      <trkpt lat="44.1274" lon="7.2619">
        <ele>1739</ele>
        <time>2023-02-05T09:27:34Z</time>
      </trkpt>
      <trkpt lat="44.12741" lon="7.26189">
        <ele>1739.1</ele>
        <time>2023-02-05T09:27:35Z</time>
      </trkpt>
      <trkpt lat="44.1274" lon="7.26188">
        <ele>1739.2</ele>
        <time>2023-02-05T09:27:36Z</time>
      </trkpt>
      <trkpt lat="44.1274" lon="7.26187">
        <ele>1739.2</ele>
        <time>2023-02-05T09:27:37Z</time>
      </trkpt>
      <trkpt lat="44.1274" lon="7.26185">
        <ele>1739.5</ele>
        <time>2023-02-05T09:27:38Z</time>
      </trkpt>
      <trkpt lat="44.1274" lon="7.26184">
        <ele>1739.7</ele>
        <time>2023-02-05T09:27:39Z</time>
      </trkpt>
      <trkpt lat="44.1274" lon="7.26183">
        <ele>1739.9</ele>
        <time>2023-02-05T09:27:40Z</time>
      </trkpt>
      <trkpt lat="44.1274" lon="7.26182">
        <ele>1740</ele>
        <time>2023-02-05T09:27:41Z</time>
      </trkpt>
      <trkpt lat="44.1274" lon="7.2618">
        <ele>1740.1</ele>
        <time>2023-02-05T09:27:42Z</time>
      </trkpt>
      <trkpt lat="44.1274" lon="7.26179">
        <ele>1740.2</ele>
        <time>2023-02-05T09:27:43Z</time>
      </trkpt>
      <trkpt lat="44.12739" lon="7.26178">
        <ele>1740.3</ele>
        <time>2023-02-05T09:27:44Z</time>
      </trkpt>
      <trkpt lat="44.1274" lon="7.26177">
        <ele>1740.5</ele>
        <time>2023-02-05T09:27:45Z</time>
      </trkpt>
      <trkpt lat="44.1274" lon="7.26176">
        <ele>1740.6</ele>
        <time>2023-02-05T09:27:46Z</time>
      </trkpt>
      <trkpt lat="44.1274" lon="7.26175">
        <ele>1740.7</ele>
        <time>2023-02-05T09:27:47Z</time>
      </trkpt>
      <trkpt lat="44.1274" lon="7.26174">
        <ele>1740.6</ele>
        <time>2023-02-05T09:27:48Z</time>
      </trkpt>
      <trkpt lat="44.12741" lon="7.26172">
        <ele>1740.6</ele>
        <time>2023-02-05T09:27:49Z</time>
      </trkpt>
      <trkpt lat="44.12741" lon="7.26171">
        <ele>1740.6</ele>
        <time>2023-02-05T09:27:50Z</time>
      </trkpt>
      <trkpt lat="44.12741" lon="7.2617">
        <ele>1740.6</ele>
        <time>2023-02-05T09:27:51Z</time>
      </trkpt>
      <trkpt lat="44.12742" lon="7.26169">
        <ele>1740.7</ele>
        <time>2023-02-05T09:27:52Z</time>
      </trkpt>
      <trkpt lat="44.12743" lon="7.26168">
        <ele>1740.8</ele>
        <time>2023-02-05T09:27:53Z</time>
      </trkpt>
      <trkpt lat="44.12745" lon="7.26168">
        <ele>1740.9</ele>
        <time>2023-02-05T09:27:54Z</time>
      </trkpt>
      <trkpt lat="44.12745" lon="7.26167">
        <ele>1740.9</ele>
        <time>2023-02-05T09:27:55Z</time>
      </trkpt>
      <trkpt lat="44.12747" lon="7.26166">
        <ele>1741.1</ele>
        <time>2023-02-05T09:27:56Z</time>
      </trkpt>
      <trkpt lat="44.12747" lon="7.26166">
        <ele>1741.3</ele>
        <time>2023-02-05T09:27:57Z</time>
      </trkpt>
      <trkpt lat="44.12748" lon="7.26165">
        <ele>1741.4</ele>
        <time>2023-02-05T09:27:58Z</time>
      </trkpt>
      <trkpt lat="44.12748" lon="7.26164">
        <ele>1741.4</ele>
        <time>2023-02-05T09:27:59Z</time>
      </trkpt>
      <trkpt lat="44.1275" lon="7.26164">
        <ele>1741.5</ele>
        <time>2023-02-05T09:28:00Z</time>
      </trkpt>
      <trkpt lat="44.1275" lon="7.26162">
        <ele>1741.5</ele>
        <time>2023-02-05T09:28:01Z</time>
      </trkpt>
      <trkpt lat="44.1275" lon="7.26161">
        <ele>1741.6</ele>
        <time>2023-02-05T09:28:02Z</time>
      </trkpt>
      <trkpt lat="44.12751" lon="7.2616">
        <ele>1741.7</ele>
        <time>2023-02-05T09:28:03Z</time>
      </trkpt>
      <trkpt lat="44.12752" lon="7.26159">
        <ele>1741.7</ele>
        <time>2023-02-05T09:28:04Z</time>
      </trkpt>
      <trkpt lat="44.12752" lon="7.26159">
        <ele>1741.7</ele>
        <time>2023-02-05T09:28:05Z</time>
      </trkpt>
      <trkpt lat="44.12752" lon="7.26158">
        <ele>1741.8</ele>
        <time>2023-02-05T09:28:06Z</time>
      </trkpt>
      <trkpt lat="44.12753" lon="7.26157">
        <ele>1741.9</ele>
        <time>2023-02-05T09:28:07Z</time>
      </trkpt>
      <trkpt lat="44.12753" lon="7.26157">
        <ele>1742</ele>
        <time>2023-02-05T09:28:08Z</time>
      </trkpt>
      <trkpt lat="44.12753" lon="7.26155">
        <ele>1742.1</ele>
        <time>2023-02-05T09:28:09Z</time>
      </trkpt>
      <trkpt lat="44.12753" lon="7.26154">
        <ele>1742.2</ele>
        <time>2023-02-05T09:28:10Z</time>
      </trkpt>
      <trkpt lat="44.12753" lon="7.26152">
        <ele>1742.3</ele>
        <time>2023-02-05T09:28:11Z</time>
      </trkpt>
      <trkpt lat="44.12753" lon="7.26151">
        <ele>1742.4</ele>
        <time>2023-02-05T09:28:12Z</time>
      </trkpt>
      <trkpt lat="44.12753" lon="7.26149">
        <ele>1742.4</ele>
        <time>2023-02-05T09:28:13Z</time>
      </trkpt>
      <trkpt lat="44.12754" lon="7.26148">
        <ele>1742.4</ele>
        <time>2023-02-05T09:28:14Z</time>
      </trkpt>
      <trkpt lat="44.12754" lon="7.26147">
        <ele>1742.5</ele>
        <time>2023-02-05T09:28:15Z</time>
      </trkpt>
      <trkpt lat="44.12754" lon="7.26146">
        <ele>1742.5</ele>
        <time>2023-02-05T09:28:16Z</time>
      </trkpt>
      <trkpt lat="44.12755" lon="7.26145">
        <ele>1742.6</ele>
        <time>2023-02-05T09:28:17Z</time>
      </trkpt>
      <trkpt lat="44.12754" lon="7.26143">
        <ele>1742.7</ele>
        <time>2023-02-05T09:28:18Z</time>
      </trkpt>
      <trkpt lat="44.12754" lon="7.26142">
        <ele>1742.8</ele>
        <time>2023-02-05T09:28:19Z</time>
      </trkpt>
      <trkpt lat="44.12754" lon="7.26141">
        <ele>1742.9</ele>
        <time>2023-02-05T09:28:20Z</time>
      </trkpt>
      <trkpt lat="44.12754" lon="7.2614">
        <ele>1743</ele>
        <time>2023-02-05T09:28:21Z</time>
      </trkpt>
      <trkpt lat="44.12753" lon="7.26138">
        <ele>1743</ele>
        <time>2023-02-05T09:28:22Z</time>
      </trkpt>
      <trkpt lat="44.12752" lon="7.26137">
        <ele>1743.1</ele>
        <time>2023-02-05T09:28:23Z</time>
      </trkpt>
      <trkpt lat="44.12752" lon="7.26136">
        <ele>1743.1</ele>
        <time>2023-02-05T09:28:24Z</time>
      </trkpt>
      <trkpt lat="44.12753" lon="7.26134">
        <ele>1743.2</ele>
        <time>2023-02-05T09:28:25Z</time>
      </trkpt>
      <trkpt lat="44.12752" lon="7.26133">
        <ele>1743.2</ele>
        <time>2023-02-05T09:28:26Z</time>
      </trkpt>
      <trkpt lat="44.12752" lon="7.26131">
        <ele>1743.3</ele>
        <time>2023-02-05T09:28:27Z</time>
      </trkpt>
      <trkpt lat="44.12752" lon="7.26129">
        <ele>1743.3</ele>
        <time>2023-02-05T09:28:28Z</time>
      </trkpt>
      <trkpt lat="44.12753" lon="7.26128">
        <ele>1743.3</ele>
        <time>2023-02-05T09:28:29Z</time>
      </trkpt>
      <trkpt lat="44.12753" lon="7.26127">
        <ele>1743.4</ele>
        <time>2023-02-05T09:28:30Z</time>
      </trkpt>
      <trkpt lat="44.12753" lon="7.26126">
        <ele>1743.5</ele>
        <time>2023-02-05T09:28:31Z</time>
      </trkpt>
      <trkpt lat="44.12753" lon="7.26124">
        <ele>1743.5</ele>
        <time>2023-02-05T09:28:32Z</time>
      </trkpt>
      <trkpt lat="44.12753" lon="7.26123">
        <ele>1743.6</ele>
        <time>2023-02-05T09:28:33Z</time>
      </trkpt>
      <trkpt lat="44.12753" lon="7.26122">
        <ele>1743.6</ele>
        <time>2023-02-05T09:28:34Z</time>
      </trkpt>
      <trkpt lat="44.12754" lon="7.26121">
        <ele>1743.7</ele>
        <time>2023-02-05T09:28:35Z</time>
      </trkpt>
      <trkpt lat="44.12755" lon="7.2612">
        <ele>1743.8</ele>
        <time>2023-02-05T09:28:36Z</time>
      </trkpt>
      <trkpt lat="44.12755" lon="7.26119">
        <ele>1743.9</ele>
        <time>2023-02-05T09:28:37Z</time>
      </trkpt>
      <trkpt lat="44.12755" lon="7.26118">
        <ele>1744.1</ele>
        <time>2023-02-05T09:28:38Z</time>
      </trkpt>
      <trkpt lat="44.12757" lon="7.26118">
        <ele>1744.2</ele>
        <time>2023-02-05T09:28:39Z</time>
      </trkpt>
      <trkpt lat="44.12757" lon="7.26118">
        <ele>1744.3</ele>
        <time>2023-02-05T09:28:40Z</time>
      </trkpt>
      <trkpt lat="44.12757" lon="7.26117">
        <ele>1744.3</ele>
        <time>2023-02-05T09:28:41Z</time>
      </trkpt>
      <trkpt lat="44.12758" lon="7.26117">
        <ele>1744.4</ele>
        <time>2023-02-05T09:28:42Z</time>
      </trkpt>
      <trkpt lat="44.12757" lon="7.26116">
        <ele>1744.4</ele>
        <time>2023-02-05T09:28:43Z</time>
      </trkpt>
      <trkpt lat="44.12757" lon="7.26115">
        <ele>1744.5</ele>
        <time>2023-02-05T09:28:44Z</time>
      </trkpt>
      <trkpt lat="44.12757" lon="7.26115">
        <ele>1744.5</ele>
        <time>2023-02-05T09:28:45Z</time>
      </trkpt>
      <trkpt lat="44.12758" lon="7.26115">
        <ele>1744.6</ele>
        <time>2023-02-05T09:28:46Z</time>
      </trkpt>
      <trkpt lat="44.1276" lon="7.26115">
        <ele>1744.7</ele>
        <time>2023-02-05T09:28:47Z</time>
      </trkpt>
      <trkpt lat="44.1276" lon="7.26114">
        <ele>1744.7</ele>
        <time>2023-02-05T09:28:48Z</time>
      </trkpt>
      <trkpt lat="44.12761" lon="7.26114">
        <ele>1744.8</ele>
        <time>2023-02-05T09:28:49Z</time>
      </trkpt>
      <trkpt lat="44.12761" lon="7.26114">
        <ele>1744.9</ele>
        <time>2023-02-05T09:28:50Z</time>
      </trkpt>
      <trkpt lat="44.12761" lon="7.26113">
        <ele>1745</ele>
        <time>2023-02-05T09:28:51Z</time>
      </trkpt>
      <trkpt lat="44.12761" lon="7.26112">
        <ele>1745</ele>
        <time>2023-02-05T09:28:52Z</time>
      </trkpt>
      <trkpt lat="44.12762" lon="7.26111">
        <ele>1745.1</ele>
        <time>2023-02-05T09:28:53Z</time>
      </trkpt>
      <trkpt lat="44.12763" lon="7.2611">
        <ele>1745.2</ele>
        <time>2023-02-05T09:28:54Z</time>
      </trkpt>
      <trkpt lat="44.12763" lon="7.26107">
        <ele>1745.3</ele>
        <time>2023-02-05T09:28:55Z</time>
      </trkpt>
      <trkpt lat="44.12763" lon="7.26106">
        <ele>1745.4</ele>
        <time>2023-02-05T09:28:56Z</time>
      </trkpt>
      <trkpt lat="44.12763" lon="7.26103">
        <ele>1745.4</ele>
        <time>2023-02-05T09:28:57Z</time>
      </trkpt>
      <trkpt lat="44.12763" lon="7.26102">
        <ele>1745.5</ele>
        <time>2023-02-05T09:28:58Z</time>
      </trkpt>
      <trkpt lat="44.12763" lon="7.261">
        <ele>1745.5</ele>
        <time>2023-02-05T09:28:59Z</time>
      </trkpt>
      <trkpt lat="44.12763" lon="7.26099">
        <ele>1745.6</ele>
        <time>2023-02-05T09:29:00Z</time>
      </trkpt>
      <trkpt lat="44.12763" lon="7.26097">
        <ele>1745.6</ele>
        <time>2023-02-05T09:29:01Z</time>
      </trkpt>
      <trkpt lat="44.12762" lon="7.26096">
        <ele>1745.6</ele>
        <time>2023-02-05T09:29:02Z</time>
      </trkpt>
      <trkpt lat="44.12762" lon="7.26095">
        <ele>1745.7</ele>
        <time>2023-02-05T09:29:03Z</time>
      </trkpt>
      <trkpt lat="44.12762" lon="7.26094">
        <ele>1745.7</ele>
        <time>2023-02-05T09:29:04Z</time>
      </trkpt>
      <trkpt lat="44.12761" lon="7.26093">
        <ele>1745.8</ele>
        <time>2023-02-05T09:29:05Z</time>
      </trkpt>
      <trkpt lat="44.12761" lon="7.26092">
        <ele>1745.9</ele>
        <time>2023-02-05T09:29:06Z</time>
      </trkpt>
      <trkpt lat="44.12761" lon="7.26091">
        <ele>1745.9</ele>
        <time>2023-02-05T09:29:07Z</time>
      </trkpt>
      <trkpt lat="44.12761" lon="7.2609">
        <ele>1746</ele>
        <time>2023-02-05T09:29:08Z</time>
      </trkpt>
      <trkpt lat="44.1276" lon="7.26088">
        <ele>1746</ele>
        <time>2023-02-05T09:29:09Z</time>
      </trkpt>
      <trkpt lat="44.12761" lon="7.26088">
        <ele>1746.1</ele>
        <time>2023-02-05T09:29:10Z</time>
      </trkpt>
      <trkpt lat="44.12762" lon="7.26087">
        <ele>1746.2</ele>
        <time>2023-02-05T09:29:11Z</time>
      </trkpt>
      <trkpt lat="44.12763" lon="7.26087">
        <ele>1746.3</ele>
        <time>2023-02-05T09:29:12Z</time>
      </trkpt>
      <trkpt lat="44.12763" lon="7.26087">
        <ele>1746.4</ele>
        <time>2023-02-05T09:29:13Z</time>
      </trkpt>
      <trkpt lat="44.12762" lon="7.26085">
        <ele>1746.5</ele>
        <time>2023-02-05T09:29:14Z</time>
      </trkpt>
      <trkpt lat="44.12763" lon="7.26085">
        <ele>1746.6</ele>
        <time>2023-02-05T09:29:15Z</time>
      </trkpt>
      <trkpt lat="44.12762" lon="7.26084">
        <ele>1746.6</ele>
        <time>2023-02-05T09:29:16Z</time>
      </trkpt>
      <trkpt lat="44.12762" lon="7.26083">
        <ele>1746.7</ele>
        <time>2023-02-05T09:29:17Z</time>
      </trkpt>
      <trkpt lat="44.12763" lon="7.26081">
        <ele>1746.8</ele>
        <time>2023-02-05T09:29:18Z</time>
      </trkpt>
      <trkpt lat="44.12764" lon="7.2608">
        <ele>1746.9</ele>
        <time>2023-02-05T09:29:19Z</time>
      </trkpt>
      <trkpt lat="44.12765" lon="7.2608">
        <ele>1747</ele>
        <time>2023-02-05T09:29:20Z</time>
      </trkpt>
      <trkpt lat="44.12765" lon="7.26078">
        <ele>1747</ele>
        <time>2023-02-05T09:29:21Z</time>
      </trkpt>
      <trkpt lat="44.12765" lon="7.26077">
        <ele>1747.1</ele>
        <time>2023-02-05T09:29:22Z</time>
      </trkpt>
      <trkpt lat="44.12765" lon="7.26076">
        <ele>1747.1</ele>
        <time>2023-02-05T09:29:23Z</time>
      </trkpt>
      <trkpt lat="44.12764" lon="7.26075">
        <ele>1747.2</ele>
        <time>2023-02-05T09:29:24Z</time>
      </trkpt>
      <trkpt lat="44.12764" lon="7.26074">
        <ele>1747.1</ele>
        <time>2023-02-05T09:29:25Z</time>
      </trkpt>
      <trkpt lat="44.12764" lon="7.26073">
        <ele>1747.2</ele>
        <time>2023-02-05T09:29:26Z</time>
      </trkpt>
      <trkpt lat="44.12764" lon="7.26072">
        <ele>1747.4</ele>
        <time>2023-02-05T09:29:27Z</time>
      </trkpt>
      <trkpt lat="44.12764" lon="7.26072">
        <ele>1747.5</ele>
        <time>2023-02-05T09:29:28Z</time>
      </trkpt>
      <trkpt lat="44.12764" lon="7.26072">
        <ele>1747.6</ele>
        <time>2023-02-05T09:29:29Z</time>
      </trkpt>
      <trkpt lat="44.12763" lon="7.26071">
        <ele>1747.7</ele>
        <time>2023-02-05T09:29:30Z</time>
      </trkpt>
      <trkpt lat="44.12763" lon="7.26069">
        <ele>1747.8</ele>
        <time>2023-02-05T09:29:31Z</time>
      </trkpt>
      <trkpt lat="44.12763" lon="7.26068">
        <ele>1748.2</ele>
        <time>2023-02-05T09:29:32Z</time>
      </trkpt>
      <trkpt lat="44.12763" lon="7.26067">
        <ele>1748.3</ele>
        <time>2023-02-05T09:29:33Z</time>
      </trkpt>
      <trkpt lat="44.12763" lon="7.26066">
        <ele>1748.4</ele>
        <time>2023-02-05T09:29:34Z</time>
      </trkpt>
      <trkpt lat="44.12762" lon="7.26065">
        <ele>1748.6</ele>
        <time>2023-02-05T09:29:35Z</time>
      </trkpt>
      <trkpt lat="44.12762" lon="7.26064">
        <ele>1748.6</ele>
        <time>2023-02-05T09:29:36Z</time>
      </trkpt>
      <trkpt lat="44.12762" lon="7.26063">
        <ele>1748.6</ele>
        <time>2023-02-05T09:29:37Z</time>
      </trkpt>
      <trkpt lat="44.12762" lon="7.26062">
        <ele>1748.7</ele>
        <time>2023-02-05T09:29:38Z</time>
      </trkpt>
      <trkpt lat="44.12763" lon="7.26061">
        <ele>1748.7</ele>
        <time>2023-02-05T09:29:39Z</time>
      </trkpt>
      <trkpt lat="44.12762" lon="7.26057">
        <ele>1748.8</ele>
        <time>2023-02-05T09:29:40Z</time>
      </trkpt>
      <trkpt lat="44.12762" lon="7.26055">
        <ele>1748.8</ele>
        <time>2023-02-05T09:29:41Z</time>
      </trkpt>
      <trkpt lat="44.12761" lon="7.26054">
        <ele>1748.8</ele>
        <time>2023-02-05T09:29:42Z</time>
      </trkpt>
      <trkpt lat="44.12761" lon="7.26053">
        <ele>1748.8</ele>
        <time>2023-02-05T09:29:43Z</time>
      </trkpt>
      <trkpt lat="44.1276" lon="7.26049">
        <ele>1748.9</ele>
        <time>2023-02-05T09:29:44Z</time>
      </trkpt>
      <trkpt lat="44.1276" lon="7.26048">
        <ele>1749</ele>
        <time>2023-02-05T09:29:45Z</time>
      </trkpt>
      <trkpt lat="44.1276" lon="7.26047">
        <ele>1749.1</ele>
        <time>2023-02-05T09:29:46Z</time>
      </trkpt>
      <trkpt lat="44.12759" lon="7.26045">
        <ele>1749.2</ele>
        <time>2023-02-05T09:29:47Z</time>
      </trkpt>
      <trkpt lat="44.12759" lon="7.26044">
        <ele>1749.2</ele>
        <time>2023-02-05T09:29:48Z</time>
      </trkpt>
      <trkpt lat="44.1276" lon="7.26042">
        <ele>1749.4</ele>
        <time>2023-02-05T09:29:49Z</time>
      </trkpt>
      <trkpt lat="44.1276" lon="7.26041">
        <ele>1749.5</ele>
        <time>2023-02-05T09:29:50Z</time>
      </trkpt>
      <trkpt lat="44.1276" lon="7.2604">
        <ele>1749.6</ele>
        <time>2023-02-05T09:29:51Z</time>
      </trkpt>
      <trkpt lat="44.1276" lon="7.26039">
        <ele>1749.8</ele>
        <time>2023-02-05T09:29:52Z</time>
      </trkpt>
      <trkpt lat="44.1276" lon="7.26038">
        <ele>1750</ele>
        <time>2023-02-05T09:29:53Z</time>
      </trkpt>
      <trkpt lat="44.12759" lon="7.26036">
        <ele>1750.2</ele>
        <time>2023-02-05T09:29:54Z</time>
      </trkpt>
      <trkpt lat="44.12759" lon="7.26035">
        <ele>1750.3</ele>
        <time>2023-02-05T09:29:55Z</time>
      </trkpt>
      <trkpt lat="44.12759" lon="7.26034">
        <ele>1750.4</ele>
        <time>2023-02-05T09:29:56Z</time>
      </trkpt>
      <trkpt lat="44.12759" lon="7.26033">
        <ele>1750.5</ele>
        <time>2023-02-05T09:29:57Z</time>
      </trkpt>
      <trkpt lat="44.12758" lon="7.26032">
        <ele>1750.6</ele>
        <time>2023-02-05T09:29:58Z</time>
      </trkpt>
      <trkpt lat="44.12758" lon="7.26031">
        <ele>1750.7</ele>
        <time>2023-02-05T09:29:59Z</time>
      </trkpt>
      <trkpt lat="44.12757" lon="7.2603">
        <ele>1750.8</ele>
        <time>2023-02-05T09:30:00Z</time>
      </trkpt>
      <trkpt lat="44.12758" lon="7.26028">
        <ele>1750.9</ele>
        <time>2023-02-05T09:30:01Z</time>
      </trkpt>
      <trkpt lat="44.12757" lon="7.26027">
        <ele>1751</ele>
        <time>2023-02-05T09:30:02Z</time>
      </trkpt>
      <trkpt lat="44.12757" lon="7.26027">
        <ele>1751.1</ele>
        <time>2023-02-05T09:30:03Z</time>
      </trkpt>
      <trkpt lat="44.12757" lon="7.26026">
        <ele>1751.3</ele>
        <time>2023-02-05T09:30:04Z</time>
      </trkpt>
      <trkpt lat="44.12756" lon="7.26025">
        <ele>1751.5</ele>
        <time>2023-02-05T09:30:05Z</time>
      </trkpt>
      <trkpt lat="44.12756" lon="7.26024">
        <ele>1751.6</ele>
        <time>2023-02-05T09:30:06Z</time>
      </trkpt>
      <trkpt lat="44.12756" lon="7.26023">
        <ele>1751.7</ele>
        <time>2023-02-05T09:30:07Z</time>
      </trkpt>
      <trkpt lat="44.12755" lon="7.26021">
        <ele>1751.8</ele>
        <time>2023-02-05T09:30:08Z</time>
      </trkpt>
      <trkpt lat="44.12755" lon="7.2602">
        <ele>1751.9</ele>
        <time>2023-02-05T09:30:09Z</time>
      </trkpt>
      <trkpt lat="44.12754" lon="7.26019">
        <ele>1752</ele>
        <time>2023-02-05T09:30:10Z</time>
      </trkpt>
      <trkpt lat="44.12754" lon="7.26018">
        <ele>1752.1</ele>
        <time>2023-02-05T09:30:11Z</time>
      </trkpt>
      <trkpt lat="44.12754" lon="7.26017">
        <ele>1752.1</ele>
        <time>2023-02-05T09:30:12Z</time>
      </trkpt>
      <trkpt lat="44.12754" lon="7.26017">
        <ele>1752.2</ele>
        <time>2023-02-05T09:30:13Z</time>
      </trkpt>
      <trkpt lat="44.12753" lon="7.26016">
        <ele>1752.3</ele>
        <time>2023-02-05T09:30:14Z</time>
      </trkpt>
      <trkpt lat="44.12753" lon="7.26015">
        <ele>1752.5</ele>
        <time>2023-02-05T09:30:15Z</time>
      </trkpt>
      <trkpt lat="44.12753" lon="7.26014">
        <ele>1752.6</ele>
        <time>2023-02-05T09:30:16Z</time>
      </trkpt>
      <trkpt lat="44.12753" lon="7.26015">
        <ele>1752.7</ele>
        <time>2023-02-05T09:30:17Z</time>
      </trkpt>
      <trkpt lat="44.12753" lon="7.26014">
        <ele>1752.7</ele>
        <time>2023-02-05T09:30:18Z</time>
      </trkpt>
      <trkpt lat="44.12754" lon="7.26013">
        <ele>1752.9</ele>
        <time>2023-02-05T09:30:19Z</time>
      </trkpt>
      <trkpt lat="44.12754" lon="7.26013">
        <ele>1753</ele>
        <time>2023-02-05T09:30:20Z</time>
      </trkpt>
      <trkpt lat="44.12754" lon="7.26013">
        <ele>1753</ele>
        <time>2023-02-05T09:30:21Z</time>
      </trkpt>
      <trkpt lat="44.12754" lon="7.26013">
        <ele>1753.1</ele>
        <time>2023-02-05T09:30:22Z</time>
      </trkpt>
      <trkpt lat="44.12753" lon="7.26012">
        <ele>1753.2</ele>
        <time>2023-02-05T09:30:23Z</time>
      </trkpt>
      <trkpt lat="44.12753" lon="7.26012">
        <ele>1753.3</ele>
        <time>2023-02-05T09:30:24Z</time>
      </trkpt>
      <trkpt lat="44.12752" lon="7.26012">
        <ele>1753.3</ele>
        <time>2023-02-05T09:30:25Z</time>
      </trkpt>
      <trkpt lat="44.12752" lon="7.26011">
        <ele>1753.4</ele>
        <time>2023-02-05T09:30:26Z</time>
      </trkpt>
      <trkpt lat="44.12752" lon="7.26011">
        <ele>1753.4</ele>
        <time>2023-02-05T09:30:27Z</time>
      </trkpt>
      <trkpt lat="44.12751" lon="7.26009">
        <ele>1753.5</ele>
        <time>2023-02-05T09:30:28Z</time>
      </trkpt>
      <trkpt lat="44.12751" lon="7.26008">
        <ele>1753.5</ele>
        <time>2023-02-05T09:30:29Z</time>
      </trkpt>
      <trkpt lat="44.1275" lon="7.26007">
        <ele>1753.6</ele>
        <time>2023-02-05T09:30:30Z</time>
      </trkpt>
      <trkpt lat="44.12749" lon="7.26005">
        <ele>1753.6</ele>
        <time>2023-02-05T09:30:31Z</time>
      </trkpt>
      <trkpt lat="44.12748" lon="7.26005">
        <ele>1753.7</ele>
        <time>2023-02-05T09:30:32Z</time>
      </trkpt>
      <trkpt lat="44.12748" lon="7.26004">
        <ele>1753.8</ele>
        <time>2023-02-05T09:30:33Z</time>
      </trkpt>
      <trkpt lat="44.12748" lon="7.26002">
        <ele>1753.9</ele>
        <time>2023-02-05T09:30:34Z</time>
      </trkpt>
      <trkpt lat="44.12748" lon="7.26002">
        <ele>1754</ele>
        <time>2023-02-05T09:30:35Z</time>
      </trkpt>
      <trkpt lat="44.12747" lon="7.26001">
        <ele>1754.2</ele>
        <time>2023-02-05T09:30:36Z</time>
      </trkpt>
      <trkpt lat="44.12747" lon="7.26001">
        <ele>1754.4</ele>
        <time>2023-02-05T09:30:37Z</time>
      </trkpt>
      <trkpt lat="44.12746" lon="7.26">
        <ele>1754.6</ele>
        <time>2023-02-05T09:30:38Z</time>
      </trkpt>
      <trkpt lat="44.12746" lon="7.26">
        <ele>1754.8</ele>
        <time>2023-02-05T09:30:39Z</time>
      </trkpt>
      <trkpt lat="44.12746" lon="7.25998">
        <ele>1755</ele>
        <time>2023-02-05T09:30:40Z</time>
      </trkpt>
      <trkpt lat="44.12746" lon="7.25998">
        <ele>1755.2</ele>
        <time>2023-02-05T09:30:41Z</time>
      </trkpt>
      <trkpt lat="44.12745" lon="7.25998">
        <ele>1755.3</ele>
        <time>2023-02-05T09:30:42Z</time>
      </trkpt>
      <trkpt lat="44.12745" lon="7.25997">
        <ele>1755.5</ele>
        <time>2023-02-05T09:30:43Z</time>
      </trkpt>
      <trkpt lat="44.12744" lon="7.25995">
        <ele>1755.4</ele>
        <time>2023-02-05T09:30:44Z</time>
      </trkpt>
      <trkpt lat="44.12744" lon="7.25995">
        <ele>1755.3</ele>
        <time>2023-02-05T09:30:45Z</time>
      </trkpt>
      <trkpt lat="44.12744" lon="7.25994">
        <ele>1755.5</ele>
        <time>2023-02-05T09:30:46Z</time>
      </trkpt>
      <trkpt lat="44.12744" lon="7.25993">
        <ele>1755.6</ele>
        <time>2023-02-05T09:30:47Z</time>
      </trkpt>
      <trkpt lat="44.12744" lon="7.25992">
        <ele>1755.7</ele>
        <time>2023-02-05T09:30:48Z</time>
      </trkpt>
      <trkpt lat="44.12743" lon="7.25992">
        <ele>1755.8</ele>
        <time>2023-02-05T09:30:49Z</time>
      </trkpt>
      <trkpt lat="44.12743" lon="7.25991">
        <ele>1756</ele>
        <time>2023-02-05T09:30:50Z</time>
      </trkpt>
      <trkpt lat="44.12742" lon="7.2599">
        <ele>1756.1</ele>
        <time>2023-02-05T09:30:51Z</time>
      </trkpt>
      <trkpt lat="44.12741" lon="7.25989">
        <ele>1756.2</ele>
        <time>2023-02-05T09:30:52Z</time>
      </trkpt>
      <trkpt lat="44.1274" lon="7.25988">
        <ele>1756.3</ele>
        <time>2023-02-05T09:30:53Z</time>
      </trkpt>
      <trkpt lat="44.1274" lon="7.25988">
        <ele>1756.4</ele>
        <time>2023-02-05T09:30:54Z</time>
      </trkpt>
      <trkpt lat="44.1274" lon="7.25989">
        <ele>1756.4</ele>
        <time>2023-02-05T09:30:55Z</time>
      </trkpt>
      <trkpt lat="44.1274" lon="7.25989">
        <ele>1756.5</ele>
        <time>2023-02-05T09:30:56Z</time>
      </trkpt>
      <trkpt lat="44.12739" lon="7.25989">
        <ele>1756.6</ele>
        <time>2023-02-05T09:30:57Z</time>
      </trkpt>
      <trkpt lat="44.12739" lon="7.2599">
        <ele>1756.7</ele>
        <time>2023-02-05T09:30:58Z</time>
      </trkpt>
      <trkpt lat="44.12738" lon="7.25989">
        <ele>1756.7</ele>
        <time>2023-02-05T09:30:59Z</time>
      </trkpt>
      <trkpt lat="44.12738" lon="7.25989">
        <ele>1756.8</ele>
        <time>2023-02-05T09:31:00Z</time>
      </trkpt>
      <trkpt lat="44.12738" lon="7.25988">
        <ele>1756.9</ele>
        <time>2023-02-05T09:31:01Z</time>
      </trkpt>
      <trkpt lat="44.12738" lon="7.25987">
        <ele>1757.1</ele>
        <time>2023-02-05T09:31:02Z</time>
      </trkpt>
      <trkpt lat="44.12738" lon="7.25987">
        <ele>1757.3</ele>
        <time>2023-02-05T09:31:03Z</time>
      </trkpt>
      <trkpt lat="44.12737" lon="7.25986">
        <ele>1757.4</ele>
        <time>2023-02-05T09:31:04Z</time>
      </trkpt>
      <trkpt lat="44.12737" lon="7.25986">
        <ele>1757.5</ele>
        <time>2023-02-05T09:31:05Z</time>
      </trkpt>
      <trkpt lat="44.12737" lon="7.25987">
        <ele>1757.5</ele>
        <time>2023-02-05T09:31:06Z</time>
      </trkpt>
      <trkpt lat="44.12737" lon="7.25987">
        <ele>1757.5</ele>
        <time>2023-02-05T09:31:07Z</time>
      </trkpt>
      <trkpt lat="44.12736" lon="7.25988">
        <ele>1757.6</ele>
        <time>2023-02-05T09:31:08Z</time>
      </trkpt>
      <trkpt lat="44.12736" lon="7.25988">
        <ele>1757.7</ele>
        <time>2023-02-05T09:31:09Z</time>
      </trkpt>
      <trkpt lat="44.12735" lon="7.25988">
        <ele>1757.9</ele>
        <time>2023-02-05T09:31:10Z</time>
      </trkpt>
      <trkpt lat="44.12733" lon="7.25988">
        <ele>1758.1</ele>
        <time>2023-02-05T09:31:11Z</time>
      </trkpt>
      <trkpt lat="44.12732" lon="7.25987">
        <ele>1758.3</ele>
        <time>2023-02-05T09:31:12Z</time>
      </trkpt>
      <trkpt lat="44.12731" lon="7.25986">
        <ele>1758.5</ele>
        <time>2023-02-05T09:31:13Z</time>
      </trkpt>
      <trkpt lat="44.12731" lon="7.25985">
        <ele>1758.6</ele>
        <time>2023-02-05T09:31:14Z</time>
      </trkpt>
      <trkpt lat="44.12731" lon="7.25984">
        <ele>1758.8</ele>
        <time>2023-02-05T09:31:15Z</time>
      </trkpt>
      <trkpt lat="44.1273" lon="7.25983">
        <ele>1758.9</ele>
        <time>2023-02-05T09:31:16Z</time>
      </trkpt>
      <trkpt lat="44.12729" lon="7.25982">
        <ele>1758.9</ele>
        <time>2023-02-05T09:31:17Z</time>
      </trkpt>
      <trkpt lat="44.12729" lon="7.25982">
        <ele>1759.1</ele>
        <time>2023-02-05T09:31:18Z</time>
      </trkpt>
      <trkpt lat="44.12728" lon="7.25981">
        <ele>1759.2</ele>
        <time>2023-02-05T09:31:19Z</time>
      </trkpt>
      <trkpt lat="44.12728" lon="7.2598">
        <ele>1759.4</ele>
        <time>2023-02-05T09:31:20Z</time>
      </trkpt>
      <trkpt lat="44.12726" lon="7.2598">
        <ele>1759.6</ele>
        <time>2023-02-05T09:31:21Z</time>
      </trkpt>
      <trkpt lat="44.12725" lon="7.2598">
        <ele>1759.7</ele>
        <time>2023-02-05T09:31:22Z</time>
      </trkpt>
      <trkpt lat="44.12725" lon="7.2598">
        <ele>1759.9</ele>
        <time>2023-02-05T09:31:23Z</time>
      </trkpt>
      <trkpt lat="44.12724" lon="7.25979">
        <ele>1760</ele>
        <time>2023-02-05T09:31:24Z</time>
      </trkpt>
      <trkpt lat="44.12724" lon="7.25978">
        <ele>1760.2</ele>
        <time>2023-02-05T09:31:25Z</time>
      </trkpt>
      <trkpt lat="44.12722" lon="7.25977">
        <ele>1760.4</ele>
        <time>2023-02-05T09:31:26Z</time>
      </trkpt>
      <trkpt lat="44.1272" lon="7.25973">
        <ele>1760.6</ele>
        <time>2023-02-05T09:31:27Z</time>
      </trkpt>
      <trkpt lat="44.12719" lon="7.25972">
        <ele>1760.7</ele>
        <time>2023-02-05T09:31:28Z</time>
      </trkpt>
      <trkpt lat="44.12719" lon="7.25971">
        <ele>1760.8</ele>
        <time>2023-02-05T09:31:29Z</time>
      </trkpt>
      <trkpt lat="44.12718" lon="7.2597">
        <ele>1760.8</ele>
        <time>2023-02-05T09:31:30Z</time>
      </trkpt>
      <trkpt lat="44.12717" lon="7.25969">
        <ele>1760.9</ele>
        <time>2023-02-05T09:31:31Z</time>
      </trkpt>
      <trkpt lat="44.12716" lon="7.25968">
        <ele>1761</ele>
        <time>2023-02-05T09:31:32Z</time>
      </trkpt>
      <trkpt lat="44.12716" lon="7.25968">
        <ele>1761.1</ele>
        <time>2023-02-05T09:31:33Z</time>
      </trkpt>
      <trkpt lat="44.12715" lon="7.25967">
        <ele>1761.2</ele>
        <time>2023-02-05T09:31:34Z</time>
      </trkpt>
      <trkpt lat="44.12715" lon="7.25966">
        <ele>1761.3</ele>
        <time>2023-02-05T09:31:35Z</time>
      </trkpt>
      <trkpt lat="44.12714" lon="7.25963">
        <ele>1761.4</ele>
        <time>2023-02-05T09:31:36Z</time>
      </trkpt>
      <trkpt lat="44.12714" lon="7.25961">
        <ele>1761.5</ele>
        <time>2023-02-05T09:31:37Z</time>
      </trkpt>
      <trkpt lat="44.12713" lon="7.2596">
        <ele>1761.6</ele>
        <time>2023-02-05T09:31:38Z</time>
      </trkpt>
      <trkpt lat="44.12711" lon="7.25959">
        <ele>1761.7</ele>
        <time>2023-02-05T09:31:39Z</time>
      </trkpt>
      <trkpt lat="44.1271" lon="7.25958">
        <ele>1761.8</ele>
        <time>2023-02-05T09:31:40Z</time>
      </trkpt>
      <trkpt lat="44.12709" lon="7.25957">
        <ele>1761.8</ele>
        <time>2023-02-05T09:31:41Z</time>
      </trkpt>
      <trkpt lat="44.12708" lon="7.25956">
        <ele>1761.9</ele>
        <time>2023-02-05T09:31:42Z</time>
      </trkpt>
      <trkpt lat="44.12707" lon="7.25955">
        <ele>1762.1</ele>
        <time>2023-02-05T09:31:43Z</time>
      </trkpt>
      <trkpt lat="44.12707" lon="7.25954">
        <ele>1762.1</ele>
        <time>2023-02-05T09:31:44Z</time>
      </trkpt>
      <trkpt lat="44.12706" lon="7.25953">
        <ele>1762.1</ele>
        <time>2023-02-05T09:31:45Z</time>
      </trkpt>
      <trkpt lat="44.12705" lon="7.25952">
        <ele>1762.1</ele>
        <time>2023-02-05T09:31:46Z</time>
      </trkpt>
      <trkpt lat="44.12705" lon="7.25951">
        <ele>1762.2</ele>
        <time>2023-02-05T09:31:47Z</time>
      </trkpt>
      <trkpt lat="44.12704" lon="7.2595">
        <ele>1762.3</ele>
        <time>2023-02-05T09:31:48Z</time>
      </trkpt>
      <trkpt lat="44.12703" lon="7.25948">
        <ele>1762.4</ele>
        <time>2023-02-05T09:31:49Z</time>
      </trkpt>
      <trkpt lat="44.12703" lon="7.25947">
        <ele>1762.5</ele>
        <time>2023-02-05T09:31:50Z</time>
      </trkpt>
      <trkpt lat="44.12703" lon="7.25946">
        <ele>1762.5</ele>
        <time>2023-02-05T09:31:51Z</time>
      </trkpt>
      <trkpt lat="44.12701" lon="7.25944">
        <ele>1762.5</ele>
        <time>2023-02-05T09:31:52Z</time>
      </trkpt>
      <trkpt lat="44.12701" lon="7.25943">
        <ele>1762.5</ele>
        <time>2023-02-05T09:31:53Z</time>
      </trkpt>
      <trkpt lat="44.127" lon="7.25942">
        <ele>1762.6</ele>
        <time>2023-02-05T09:31:54Z</time>
      </trkpt>
      <trkpt lat="44.127" lon="7.2594">
        <ele>1762.7</ele>
        <time>2023-02-05T09:31:55Z</time>
      </trkpt>
      <trkpt lat="44.12699" lon="7.25939">
        <ele>1762.7</ele>
        <time>2023-02-05T09:31:56Z</time>
      </trkpt>
      <trkpt lat="44.12699" lon="7.25938">
        <ele>1762.7</ele>
        <time>2023-02-05T09:31:57Z</time>
      </trkpt>
      <trkpt lat="44.12699" lon="7.25937">
        <ele>1762.8</ele>
        <time>2023-02-05T09:31:58Z</time>
      </trkpt>
      <trkpt lat="44.12698" lon="7.25936">
        <ele>1762.9</ele>
        <time>2023-02-05T09:31:59Z</time>
      </trkpt>
      <trkpt lat="44.12697" lon="7.25935">
        <ele>1762.9</ele>
        <time>2023-02-05T09:32:00Z</time>
      </trkpt>
      <trkpt lat="44.12696" lon="7.25933">
        <ele>1763.1</ele>
        <time>2023-02-05T09:32:01Z</time>
      </trkpt>
      <trkpt lat="44.12696" lon="7.25932">
        <ele>1763.1</ele>
        <time>2023-02-05T09:32:02Z</time>
      </trkpt>
      <trkpt lat="44.12696" lon="7.25931">
        <ele>1763.3</ele>
        <time>2023-02-05T09:32:03Z</time>
      </trkpt>
      <trkpt lat="44.12695" lon="7.25929">
        <ele>1763.4</ele>
        <time>2023-02-05T09:32:04Z</time>
      </trkpt>
      <trkpt lat="44.12696" lon="7.25929">
        <ele>1763.5</ele>
        <time>2023-02-05T09:32:05Z</time>
      </trkpt>
      <trkpt lat="44.12695" lon="7.25927">
        <ele>1763.6</ele>
        <time>2023-02-05T09:32:06Z</time>
      </trkpt>
      <trkpt lat="44.12695" lon="7.25926">
        <ele>1763.7</ele>
        <time>2023-02-05T09:32:07Z</time>
      </trkpt>
      <trkpt lat="44.12695" lon="7.25925">
        <ele>1763.8</ele>
        <time>2023-02-05T09:32:08Z</time>
      </trkpt>
      <trkpt lat="44.12695" lon="7.25924">
        <ele>1763.9</ele>
        <time>2023-02-05T09:32:09Z</time>
      </trkpt>
      <trkpt lat="44.12695" lon="7.25923">
        <ele>1763.9</ele>
        <time>2023-02-05T09:32:10Z</time>
      </trkpt>
      <trkpt lat="44.12695" lon="7.25921">
        <ele>1764</ele>
        <time>2023-02-05T09:32:11Z</time>
      </trkpt>
      <trkpt lat="44.12695" lon="7.2592">
        <ele>1764</ele>
        <time>2023-02-05T09:32:12Z</time>
      </trkpt>
      <trkpt lat="44.12694" lon="7.25919">
        <ele>1764</ele>
        <time>2023-02-05T09:32:13Z</time>
      </trkpt>
      <trkpt lat="44.12694" lon="7.25917">
        <ele>1764.1</ele>
        <time>2023-02-05T09:32:14Z</time>
      </trkpt>
      <trkpt lat="44.12694" lon="7.25916">
        <ele>1764.2</ele>
        <time>2023-02-05T09:32:15Z</time>
      </trkpt>
      <trkpt lat="44.12694" lon="7.25914">
        <ele>1764.3</ele>
        <time>2023-02-05T09:32:16Z</time>
      </trkpt>
      <trkpt lat="44.12694" lon="7.25913">
        <ele>1764.4</ele>
        <time>2023-02-05T09:32:17Z</time>
      </trkpt>
      <trkpt lat="44.12694" lon="7.25912">
        <ele>1764.4</ele>
        <time>2023-02-05T09:32:18Z</time>
      </trkpt>
      <trkpt lat="44.12694" lon="7.25911">
        <ele>1764.6</ele>
        <time>2023-02-05T09:32:19Z</time>
      </trkpt>
      <trkpt lat="44.12695" lon="7.2591">
        <ele>1764.7</ele>
        <time>2023-02-05T09:32:20Z</time>
      </trkpt>
      <trkpt lat="44.12695" lon="7.25908">
        <ele>1764.6</ele>
        <time>2023-02-05T09:32:21Z</time>
      </trkpt>
      <trkpt lat="44.12695" lon="7.25907">
        <ele>1764.8</ele>
        <time>2023-02-05T09:32:22Z</time>
      </trkpt>
      <trkpt lat="44.12695" lon="7.25907">
        <ele>1764.9</ele>
        <time>2023-02-05T09:32:23Z</time>
      </trkpt>
      <trkpt lat="44.12696" lon="7.25906">
        <ele>1765</ele>
        <time>2023-02-05T09:32:24Z</time>
      </trkpt>
      <trkpt lat="44.12696" lon="7.25905">
        <ele>1765</ele>
        <time>2023-02-05T09:32:25Z</time>
      </trkpt>
      <trkpt lat="44.12696" lon="7.25904">
        <ele>1765.1</ele>
        <time>2023-02-05T09:32:26Z</time>
      </trkpt>
      <trkpt lat="44.12696" lon="7.25903">
        <ele>1765.2</ele>
        <time>2023-02-05T09:32:27Z</time>
      </trkpt>
      <trkpt lat="44.12695" lon="7.25902">
        <ele>1765.3</ele>
        <time>2023-02-05T09:32:28Z</time>
      </trkpt>
      <trkpt lat="44.12696" lon="7.25901">
        <ele>1765.4</ele>
        <time>2023-02-05T09:32:29Z</time>
      </trkpt>
      <trkpt lat="44.12696" lon="7.259">
        <ele>1765.4</ele>
        <time>2023-02-05T09:32:30Z</time>
      </trkpt>
      <trkpt lat="44.12696" lon="7.25899">
        <ele>1765.5</ele>
        <time>2023-02-05T09:32:31Z</time>
      </trkpt>
      <trkpt lat="44.12696" lon="7.25898">
        <ele>1765.6</ele>
        <time>2023-02-05T09:32:32Z</time>
      </trkpt>
      <trkpt lat="44.12696" lon="7.25897">
        <ele>1765.6</ele>
        <time>2023-02-05T09:32:33Z</time>
      </trkpt>
      <trkpt lat="44.12696" lon="7.25897">
        <ele>1765.7</ele>
        <time>2023-02-05T09:32:34Z</time>
      </trkpt>
      <trkpt lat="44.12696" lon="7.25896">
        <ele>1765.7</ele>
        <time>2023-02-05T09:32:35Z</time>
      </trkpt>
      <trkpt lat="44.12696" lon="7.25895">
        <ele>1765.8</ele>
        <time>2023-02-05T09:32:36Z</time>
      </trkpt>
      <trkpt lat="44.12696" lon="7.25894">
        <ele>1765.9</ele>
        <time>2023-02-05T09:32:37Z</time>
      </trkpt>
      <trkpt lat="44.12697" lon="7.25893">
        <ele>1765.9</ele>
        <time>2023-02-05T09:32:38Z</time>
      </trkpt>
      <trkpt lat="44.12697" lon="7.25891">
        <ele>1765.9</ele>
        <time>2023-02-05T09:32:39Z</time>
      </trkpt>
      <trkpt lat="44.12697" lon="7.25891">
        <ele>1766</ele>
        <time>2023-02-05T09:32:40Z</time>
      </trkpt>
      <trkpt lat="44.12697" lon="7.25889">
        <ele>1766</ele>
        <time>2023-02-05T09:32:41Z</time>
      </trkpt>
      <trkpt lat="44.12697" lon="7.25887">
        <ele>1766</ele>
        <time>2023-02-05T09:32:42Z</time>
      </trkpt>
      <trkpt lat="44.12697" lon="7.25886">
        <ele>1766.1</ele>
        <time>2023-02-05T09:32:43Z</time>
      </trkpt>
      <trkpt lat="44.12698" lon="7.25886">
        <ele>1766.1</ele>
        <time>2023-02-05T09:32:44Z</time>
      </trkpt>
      <trkpt lat="44.12698" lon="7.25885">
        <ele>1766.2</ele>
        <time>2023-02-05T09:32:45Z</time>
      </trkpt>
      <trkpt lat="44.12698" lon="7.25885">
        <ele>1766.2</ele>
        <time>2023-02-05T09:32:46Z</time>
      </trkpt>
      <trkpt lat="44.12698" lon="7.25884">
        <ele>1766.3</ele>
        <time>2023-02-05T09:32:47Z</time>
      </trkpt>
      <trkpt lat="44.12699" lon="7.25883">
        <ele>1766.4</ele>
        <time>2023-02-05T09:32:48Z</time>
      </trkpt>
      <trkpt lat="44.12699" lon="7.25882">
        <ele>1766.4</ele>
        <time>2023-02-05T09:32:49Z</time>
      </trkpt>
      <trkpt lat="44.12699" lon="7.25881">
        <ele>1766.5</ele>
        <time>2023-02-05T09:32:50Z</time>
      </trkpt>
      <trkpt lat="44.127" lon="7.25879">
        <ele>1766.6</ele>
        <time>2023-02-05T09:32:51Z</time>
      </trkpt>
      <trkpt lat="44.12701" lon="7.25879">
        <ele>1766.6</ele>
        <time>2023-02-05T09:32:52Z</time>
      </trkpt>
      <trkpt lat="44.12701" lon="7.25878">
        <ele>1766.7</ele>
        <time>2023-02-05T09:32:53Z</time>
      </trkpt>
      <trkpt lat="44.12702" lon="7.25877">
        <ele>1766.7</ele>
        <time>2023-02-05T09:32:54Z</time>
      </trkpt>
      <trkpt lat="44.12702" lon="7.25876">
        <ele>1766.7</ele>
        <time>2023-02-05T09:32:55Z</time>
      </trkpt>
      <trkpt lat="44.12703" lon="7.25876">
        <ele>1766.7</ele>
        <time>2023-02-05T09:32:56Z</time>
      </trkpt>
      <trkpt lat="44.12704" lon="7.25875">
        <ele>1766.7</ele>
        <time>2023-02-05T09:32:57Z</time>
      </trkpt>
      <trkpt lat="44.12705" lon="7.25874">
        <ele>1766.7</ele>
        <time>2023-02-05T09:32:58Z</time>
      </trkpt>
      <trkpt lat="44.12704" lon="7.25873">
        <ele>1766.8</ele>
        <time>2023-02-05T09:32:59Z</time>
      </trkpt>
      <trkpt lat="44.12705" lon="7.25871">
        <ele>1766.9</ele>
        <time>2023-02-05T09:33:00Z</time>
      </trkpt>
      <trkpt lat="44.12705" lon="7.2587">
        <ele>1766.8</ele>
        <time>2023-02-05T09:33:01Z</time>
      </trkpt>
      <trkpt lat="44.12703" lon="7.25868">
        <ele>1766.9</ele>
        <time>2023-02-05T09:33:02Z</time>
      </trkpt>
      <trkpt lat="44.12703" lon="7.25867">
        <ele>1767.1</ele>
        <time>2023-02-05T09:33:03Z</time>
      </trkpt>
      <trkpt lat="44.12703" lon="7.25866">
        <ele>1767.2</ele>
        <time>2023-02-05T09:33:04Z</time>
      </trkpt>
      <trkpt lat="44.12703" lon="7.25866">
        <ele>1767.3</ele>
        <time>2023-02-05T09:33:05Z</time>
      </trkpt>
      <trkpt lat="44.12702" lon="7.25865">
        <ele>1767.4</ele>
        <time>2023-02-05T09:33:06Z</time>
      </trkpt>
      <trkpt lat="44.12702" lon="7.25865">
        <ele>1767.5</ele>
        <time>2023-02-05T09:33:07Z</time>
      </trkpt>
      <trkpt lat="44.12702" lon="7.25864">
        <ele>1767.6</ele>
        <time>2023-02-05T09:33:08Z</time>
      </trkpt>
      <trkpt lat="44.12703" lon="7.25862">
        <ele>1767.7</ele>
        <time>2023-02-05T09:33:09Z</time>
      </trkpt>
      <trkpt lat="44.12702" lon="7.25861">
        <ele>1767.8</ele>
        <time>2023-02-05T09:33:10Z</time>
      </trkpt>
      <trkpt lat="44.12704" lon="7.25861">
        <ele>1767.8</ele>
        <time>2023-02-05T09:33:11Z</time>
      </trkpt>
      <trkpt lat="44.12704" lon="7.2586">
        <ele>1767.9</ele>
        <time>2023-02-05T09:33:12Z</time>
      </trkpt>
      <trkpt lat="44.12704" lon="7.25858">
        <ele>1768</ele>
        <time>2023-02-05T09:33:13Z</time>
      </trkpt>
      <trkpt lat="44.12704" lon="7.25857">
        <ele>1768.1</ele>
        <time>2023-02-05T09:33:14Z</time>
      </trkpt>
      <trkpt lat="44.12704" lon="7.25857">
        <ele>1768.3</ele>
        <time>2023-02-05T09:33:15Z</time>
      </trkpt>
      <trkpt lat="44.12705" lon="7.25855">
        <ele>1768.4</ele>
        <time>2023-02-05T09:33:16Z</time>
      </trkpt>
      <trkpt lat="44.12704" lon="7.25853">
        <ele>1768.5</ele>
        <time>2023-02-05T09:33:17Z</time>
      </trkpt>
      <trkpt lat="44.12704" lon="7.25853">
        <ele>1768.6</ele>
        <time>2023-02-05T09:33:18Z</time>
      </trkpt>
      <trkpt lat="44.12704" lon="7.25852">
        <ele>1768.6</ele>
        <time>2023-02-05T09:33:19Z</time>
      </trkpt>
      <trkpt lat="44.12705" lon="7.25851">
        <ele>1768.6</ele>
        <time>2023-02-05T09:33:20Z</time>
      </trkpt>
      <trkpt lat="44.12705" lon="7.25851">
        <ele>1768.7</ele>
        <time>2023-02-05T09:33:21Z</time>
      </trkpt>
      <trkpt lat="44.12705" lon="7.25851">
        <ele>1768.9</ele>
        <time>2023-02-05T09:33:22Z</time>
      </trkpt>
      <trkpt lat="44.12705" lon="7.2585">
        <ele>1769</ele>
        <time>2023-02-05T09:33:23Z</time>
      </trkpt>
      <trkpt lat="44.12705" lon="7.25848">
        <ele>1769.1</ele>
        <time>2023-02-05T09:33:24Z</time>
      </trkpt>
      <trkpt lat="44.12705" lon="7.25847">
        <ele>1769.2</ele>
        <time>2023-02-05T09:33:25Z</time>
      </trkpt>
      <trkpt lat="44.12706" lon="7.25847">
        <ele>1769.3</ele>
        <time>2023-02-05T09:33:26Z</time>
      </trkpt>
      <trkpt lat="44.12705" lon="7.25844">
        <ele>1769.5</ele>
        <time>2023-02-05T09:33:27Z</time>
      </trkpt>
      <trkpt lat="44.12705" lon="7.25843">
        <ele>1769.6</ele>
        <time>2023-02-05T09:33:28Z</time>
      </trkpt>
      <trkpt lat="44.12706" lon="7.25842">
        <ele>1769.7</ele>
        <time>2023-02-05T09:33:29Z</time>
      </trkpt>
      <trkpt lat="44.12707" lon="7.25843">
        <ele>1769.8</ele>
        <time>2023-02-05T09:33:30Z</time>
      </trkpt>
      <trkpt lat="44.12707" lon="7.25842">
        <ele>1770</ele>
        <time>2023-02-05T09:33:31Z</time>
      </trkpt>
      <trkpt lat="44.12706" lon="7.25842">
        <ele>1770.1</ele>
        <time>2023-02-05T09:33:32Z</time>
      </trkpt>
      <trkpt lat="44.12707" lon="7.25841">
        <ele>1770.2</ele>
        <time>2023-02-05T09:33:33Z</time>
      </trkpt>
      <trkpt lat="44.12706" lon="7.2584">
        <ele>1770.3</ele>
        <time>2023-02-05T09:33:34Z</time>
      </trkpt>
      <trkpt lat="44.12705" lon="7.25838">
        <ele>1770.4</ele>
        <time>2023-02-05T09:33:35Z</time>
      </trkpt>
      <trkpt lat="44.12705" lon="7.25837">
        <ele>1770.6</ele>
        <time>2023-02-05T09:33:36Z</time>
      </trkpt>
      <trkpt lat="44.12704" lon="7.25836">
        <ele>1770.7</ele>
        <time>2023-02-05T09:33:37Z</time>
      </trkpt>
      <trkpt lat="44.12704" lon="7.25836">
        <ele>1770.8</ele>
        <time>2023-02-05T09:33:38Z</time>
      </trkpt>
      <trkpt lat="44.12704" lon="7.25835">
        <ele>1771.1</ele>
        <time>2023-02-05T09:33:39Z</time>
      </trkpt>
      <trkpt lat="44.12703" lon="7.25833">
        <ele>1771.3</ele>
        <time>2023-02-05T09:33:40Z</time>
      </trkpt>
      <trkpt lat="44.12701" lon="7.25832">
        <ele>1771.5</ele>
        <time>2023-02-05T09:33:41Z</time>
      </trkpt>
      <trkpt lat="44.127" lon="7.25831">
        <ele>1771.7</ele>
        <time>2023-02-05T09:33:42Z</time>
      </trkpt>
      <trkpt lat="44.12699" lon="7.2583">
        <ele>1771.8</ele>
        <time>2023-02-05T09:33:43Z</time>
      </trkpt>
      <trkpt lat="44.127" lon="7.25829">
        <ele>1771.8</ele>
        <time>2023-02-05T09:33:44Z</time>
      </trkpt>
      <trkpt lat="44.12699" lon="7.25828">
        <ele>1772</ele>
        <time>2023-02-05T09:33:45Z</time>
      </trkpt>
      <trkpt lat="44.12699" lon="7.25828">
        <ele>1772.1</ele>
        <time>2023-02-05T09:33:46Z</time>
      </trkpt>
      <trkpt lat="44.12698" lon="7.25827">
        <ele>1772.1</ele>
        <time>2023-02-05T09:33:47Z</time>
      </trkpt>
      <trkpt lat="44.12698" lon="7.25826">
        <ele>1772.2</ele>
        <time>2023-02-05T09:33:48Z</time>
      </trkpt>
      <trkpt lat="44.12697" lon="7.25826">
        <ele>1772.4</ele>
        <time>2023-02-05T09:33:49Z</time>
      </trkpt>
      <trkpt lat="44.12696" lon="7.25825">
        <ele>1772.5</ele>
        <time>2023-02-05T09:33:50Z</time>
      </trkpt>
      <trkpt lat="44.12696" lon="7.25824">
        <ele>1772.6</ele>
        <time>2023-02-05T09:33:51Z</time>
      </trkpt>
      <trkpt lat="44.12694" lon="7.25824">
        <ele>1772.7</ele>
        <time>2023-02-05T09:33:52Z</time>
      </trkpt>
      <trkpt lat="44.12694" lon="7.25823">
        <ele>1772.8</ele>
        <time>2023-02-05T09:33:53Z</time>
      </trkpt>
      <trkpt lat="44.12693" lon="7.25822">
        <ele>1772.9</ele>
        <time>2023-02-05T09:33:54Z</time>
      </trkpt>
      <trkpt lat="44.12693" lon="7.25821">
        <ele>1773</ele>
        <time>2023-02-05T09:33:55Z</time>
      </trkpt>
      <trkpt lat="44.12693" lon="7.2582">
        <ele>1773.1</ele>
        <time>2023-02-05T09:33:56Z</time>
      </trkpt>
      <trkpt lat="44.12692" lon="7.25819">
        <ele>1773.3</ele>
        <time>2023-02-05T09:33:57Z</time>
      </trkpt>
      <trkpt lat="44.12691" lon="7.25818">
        <ele>1773.3</ele>
        <time>2023-02-05T09:33:58Z</time>
      </trkpt>
      <trkpt lat="44.12691" lon="7.25817">
        <ele>1773.4</ele>
        <time>2023-02-05T09:33:59Z</time>
      </trkpt>
      <trkpt lat="44.12691" lon="7.25816">
        <ele>1773.4</ele>
        <time>2023-02-05T09:34:00Z</time>
      </trkpt>
      <trkpt lat="44.12691" lon="7.25815">
        <ele>1773.5</ele>
        <time>2023-02-05T09:34:01Z</time>
      </trkpt>
      <trkpt lat="44.12691" lon="7.25814">
        <ele>1773.5</ele>
        <time>2023-02-05T09:34:02Z</time>
      </trkpt>
      <trkpt lat="44.1269" lon="7.25813">
        <ele>1773.6</ele>
        <time>2023-02-05T09:34:03Z</time>
      </trkpt>
      <trkpt lat="44.1269" lon="7.25812">
        <ele>1773.7</ele>
        <time>2023-02-05T09:34:04Z</time>
      </trkpt>
      <trkpt lat="44.1269" lon="7.25811">
        <ele>1773.7</ele>
        <time>2023-02-05T09:34:05Z</time>
      </trkpt>
      <trkpt lat="44.1269" lon="7.25809">
        <ele>1773.9</ele>
        <time>2023-02-05T09:34:06Z</time>
      </trkpt>
      <trkpt lat="44.12691" lon="7.25808">
        <ele>1773.9</ele>
        <time>2023-02-05T09:34:07Z</time>
      </trkpt>
      <trkpt lat="44.1269" lon="7.25807">
        <ele>1774</ele>
        <time>2023-02-05T09:34:08Z</time>
      </trkpt>
      <trkpt lat="44.1269" lon="7.25806">
        <ele>1774.1</ele>
        <time>2023-02-05T09:34:09Z</time>
      </trkpt>
      <trkpt lat="44.12691" lon="7.25806">
        <ele>1774.2</ele>
        <time>2023-02-05T09:34:10Z</time>
      </trkpt>
      <trkpt lat="44.1269" lon="7.25805">
        <ele>1774.2</ele>
        <time>2023-02-05T09:34:11Z</time>
      </trkpt>
      <trkpt lat="44.1269" lon="7.25804">
        <ele>1774.3</ele>
        <time>2023-02-05T09:34:12Z</time>
      </trkpt>
      <trkpt lat="44.12691" lon="7.25803">
        <ele>1774.4</ele>
        <time>2023-02-05T09:34:13Z</time>
      </trkpt>
      <trkpt lat="44.12691" lon="7.25803">
        <ele>1774.5</ele>
        <time>2023-02-05T09:34:14Z</time>
      </trkpt>
      <trkpt lat="44.12691" lon="7.25802">
        <ele>1774.5</ele>
        <time>2023-02-05T09:34:15Z</time>
      </trkpt>
      <trkpt lat="44.12691" lon="7.25801">
        <ele>1774.5</ele>
        <time>2023-02-05T09:34:16Z</time>
      </trkpt>
      <trkpt lat="44.12691" lon="7.25801">
        <ele>1774.6</ele>
        <time>2023-02-05T09:34:17Z</time>
      </trkpt>
      <trkpt lat="44.12691" lon="7.258">
        <ele>1774.7</ele>
        <time>2023-02-05T09:34:18Z</time>
      </trkpt>
      <trkpt lat="44.12691" lon="7.25799">
        <ele>1774.8</ele>
        <time>2023-02-05T09:34:19Z</time>
      </trkpt>
      <trkpt lat="44.12692" lon="7.25799">
        <ele>1775</ele>
        <time>2023-02-05T09:34:20Z</time>
      </trkpt>
      <trkpt lat="44.12692" lon="7.25798">
        <ele>1775.1</ele>
        <time>2023-02-05T09:34:21Z</time>
      </trkpt>
      <trkpt lat="44.12692" lon="7.25798">
        <ele>1775.2</ele>
        <time>2023-02-05T09:34:22Z</time>
      </trkpt>
      <trkpt lat="44.12693" lon="7.25798">
        <ele>1775.3</ele>
        <time>2023-02-05T09:34:23Z</time>
      </trkpt>
      <trkpt lat="44.12694" lon="7.25798">
        <ele>1775.3</ele>
        <time>2023-02-05T09:34:24Z</time>
      </trkpt>
      <trkpt lat="44.12695" lon="7.25798">
        <ele>1775.3</ele>
        <time>2023-02-05T09:34:25Z</time>
      </trkpt>
      <trkpt lat="44.12695" lon="7.25798">
        <ele>1775.3</ele>
        <time>2023-02-05T09:34:26Z</time>
      </trkpt>
      <trkpt lat="44.12696" lon="7.25798">
        <ele>1775.3</ele>
        <time>2023-02-05T09:34:27Z</time>
      </trkpt>
      <trkpt lat="44.12696" lon="7.25797">
        <ele>1775.3</ele>
        <time>2023-02-05T09:34:28Z</time>
      </trkpt>
      <trkpt lat="44.12696" lon="7.25797">
        <ele>1775.4</ele>
        <time>2023-02-05T09:34:29Z</time>
      </trkpt>
      <trkpt lat="44.12697" lon="7.25797">
        <ele>1775.5</ele>
        <time>2023-02-05T09:34:30Z</time>
      </trkpt>
      <trkpt lat="44.12697" lon="7.25796">
        <ele>1775.6</ele>
        <time>2023-02-05T09:34:31Z</time>
      </trkpt>
      <trkpt lat="44.12698" lon="7.25796">
        <ele>1775.6</ele>
        <time>2023-02-05T09:34:32Z</time>
      </trkpt>
      <trkpt lat="44.12699" lon="7.25796">
        <ele>1775.8</ele>
        <time>2023-02-05T09:34:33Z</time>
      </trkpt>
      <trkpt lat="44.12699" lon="7.25796">
        <ele>1775.9</ele>
        <time>2023-02-05T09:34:34Z</time>
      </trkpt>
      <trkpt lat="44.127" lon="7.25796">
        <ele>1776</ele>
        <time>2023-02-05T09:34:35Z</time>
      </trkpt>
      <trkpt lat="44.127" lon="7.25796">
        <ele>1776</ele>
        <time>2023-02-05T09:34:36Z</time>
      </trkpt>
      <trkpt lat="44.127" lon="7.25796">
        <ele>1776</ele>
        <time>2023-02-05T09:34:37Z</time>
      </trkpt>
      <trkpt lat="44.12701" lon="7.25796">
        <ele>1776</ele>
        <time>2023-02-05T09:34:38Z</time>
      </trkpt>
      <trkpt lat="44.12702" lon="7.25796">
        <ele>1776.1</ele>
        <time>2023-02-05T09:34:39Z</time>
      </trkpt>
      <trkpt lat="44.12702" lon="7.25795">
        <ele>1776.1</ele>
        <time>2023-02-05T09:34:40Z</time>
      </trkpt>
      <trkpt lat="44.12702" lon="7.25795">
        <ele>1776.2</ele>
        <time>2023-02-05T09:34:41Z</time>
      </trkpt>
      <trkpt lat="44.12702" lon="7.25795">
        <ele>1776.2</ele>
        <time>2023-02-05T09:34:42Z</time>
      </trkpt>
      <trkpt lat="44.12703" lon="7.25795">
        <ele>1776.2</ele>
        <time>2023-02-05T09:34:43Z</time>
      </trkpt>
      <trkpt lat="44.12703" lon="7.25795">
        <ele>1776.2</ele>
        <time>2023-02-05T09:34:44Z</time>
      </trkpt>
      <trkpt lat="44.12704" lon="7.25795">
        <ele>1776.2</ele>
        <time>2023-02-05T09:34:45Z</time>
      </trkpt>
      <trkpt lat="44.12704" lon="7.25794">
        <ele>1776.2</ele>
        <time>2023-02-05T09:34:46Z</time>
      </trkpt>
      <trkpt lat="44.12704" lon="7.25794">
        <ele>1776.2</ele>
        <time>2023-02-05T09:34:47Z</time>
      </trkpt>
      <trkpt lat="44.12705" lon="7.25795">
        <ele>1776.3</ele>
        <time>2023-02-05T09:34:48Z</time>
      </trkpt>
      <trkpt lat="44.12706" lon="7.25793">
        <ele>1776.3</ele>
        <time>2023-02-05T09:34:49Z</time>
      </trkpt>
      <trkpt lat="44.12706" lon="7.25793">
        <ele>1776.4</ele>
        <time>2023-02-05T09:34:50Z</time>
      </trkpt>
      <trkpt lat="44.12707" lon="7.25793">
        <ele>1776.6</ele>
        <time>2023-02-05T09:34:51Z</time>
      </trkpt>
      <trkpt lat="44.12708" lon="7.25794">
        <ele>1776.7</ele>
        <time>2023-02-05T09:34:52Z</time>
      </trkpt>
      <trkpt lat="44.12709" lon="7.25794">
        <ele>1776.8</ele>
        <time>2023-02-05T09:34:53Z</time>
      </trkpt>
      <trkpt lat="44.12709" lon="7.25794">
        <ele>1776.9</ele>
        <time>2023-02-05T09:34:54Z</time>
      </trkpt>
      <trkpt lat="44.1271" lon="7.25793">
        <ele>1776.9</ele>
        <time>2023-02-05T09:34:55Z</time>
      </trkpt>
      <trkpt lat="44.1271" lon="7.25793">
        <ele>1777</ele>
        <time>2023-02-05T09:34:56Z</time>
      </trkpt>
      <trkpt lat="44.1271" lon="7.25793">
        <ele>1777</ele>
        <time>2023-02-05T09:34:57Z</time>
      </trkpt>
      <trkpt lat="44.1271" lon="7.25792">
        <ele>1777</ele>
        <time>2023-02-05T09:34:58Z</time>
      </trkpt>
      <trkpt lat="44.1271" lon="7.25792">
        <ele>1777.1</ele>
        <time>2023-02-05T09:34:59Z</time>
      </trkpt>
      <trkpt lat="44.12711" lon="7.25792">
        <ele>1777.2</ele>
        <time>2023-02-05T09:35:00Z</time>
      </trkpt>
      <trkpt lat="44.12711" lon="7.25791">
        <ele>1777.3</ele>
        <time>2023-02-05T09:35:01Z</time>
      </trkpt>
      <trkpt lat="44.12711" lon="7.25789">
        <ele>1777.4</ele>
        <time>2023-02-05T09:35:02Z</time>
      </trkpt>
      <trkpt lat="44.12711" lon="7.25788">
        <ele>1777.6</ele>
        <time>2023-02-05T09:35:03Z</time>
      </trkpt>
      <trkpt lat="44.12712" lon="7.25788">
        <ele>1777.7</ele>
        <time>2023-02-05T09:35:04Z</time>
      </trkpt>
      <trkpt lat="44.12713" lon="7.25787">
        <ele>1777.7</ele>
        <time>2023-02-05T09:35:05Z</time>
      </trkpt>
      <trkpt lat="44.12713" lon="7.25786">
        <ele>1777.9</ele>
        <time>2023-02-05T09:35:06Z</time>
      </trkpt>
      <trkpt lat="44.12713" lon="7.25785">
        <ele>1778</ele>
        <time>2023-02-05T09:35:07Z</time>
      </trkpt>
      <trkpt lat="44.12714" lon="7.25784">
        <ele>1778.1</ele>
        <time>2023-02-05T09:35:08Z</time>
      </trkpt>
      <trkpt lat="44.12714" lon="7.25784">
        <ele>1778.2</ele>
        <time>2023-02-05T09:35:09Z</time>
      </trkpt>
      <trkpt lat="44.12716" lon="7.25783">
        <ele>1778.3</ele>
        <time>2023-02-05T09:35:10Z</time>
      </trkpt>
      <trkpt lat="44.12716" lon="7.25782">
        <ele>1778.4</ele>
        <time>2023-02-05T09:35:11Z</time>
      </trkpt>
      <trkpt lat="44.12718" lon="7.2578">
        <ele>1778.5</ele>
        <time>2023-02-05T09:35:12Z</time>
      </trkpt>
      <trkpt lat="44.12718" lon="7.25779">
        <ele>1778.7</ele>
        <time>2023-02-05T09:35:13Z</time>
      </trkpt>
      <trkpt lat="44.12719" lon="7.25777">
        <ele>1778.8</ele>
        <time>2023-02-05T09:35:14Z</time>
      </trkpt>
      <trkpt lat="44.1272" lon="7.25777">
        <ele>1778.9</ele>
        <time>2023-02-05T09:35:15Z</time>
      </trkpt>
      <trkpt lat="44.1272" lon="7.25777">
        <ele>1779</ele>
        <time>2023-02-05T09:35:16Z</time>
      </trkpt>
      <trkpt lat="44.1272" lon="7.25776">
        <ele>1779</ele>
        <time>2023-02-05T09:35:17Z</time>
      </trkpt>
      <trkpt lat="44.12721" lon="7.25775">
        <ele>1779.2</ele>
        <time>2023-02-05T09:35:18Z</time>
      </trkpt>
      <trkpt lat="44.12721" lon="7.25774">
        <ele>1779.3</ele>
        <time>2023-02-05T09:35:19Z</time>
      </trkpt>
      <trkpt lat="44.12722" lon="7.25774">
        <ele>1779.5</ele>
        <time>2023-02-05T09:35:20Z</time>
      </trkpt>
      <trkpt lat="44.12724" lon="7.25775">
        <ele>1779.7</ele>
        <time>2023-02-05T09:35:21Z</time>
      </trkpt>
      <trkpt lat="44.12724" lon="7.25775">
        <ele>1779.9</ele>
        <time>2023-02-05T09:35:22Z</time>
      </trkpt>
      <trkpt lat="44.12725" lon="7.25774">
        <ele>1780</ele>
        <time>2023-02-05T09:35:23Z</time>
      </trkpt>
      <trkpt lat="44.12725" lon="7.25774">
        <ele>1780.1</ele>
        <time>2023-02-05T09:35:24Z</time>
      </trkpt>
      <trkpt lat="44.12726" lon="7.25773">
        <ele>1780.2</ele>
        <time>2023-02-05T09:35:25Z</time>
      </trkpt>
      <trkpt lat="44.12727" lon="7.25773">
        <ele>1780.4</ele>
        <time>2023-02-05T09:35:26Z</time>
      </trkpt>
      <trkpt lat="44.12729" lon="7.25774">
        <ele>1780.6</ele>
        <time>2023-02-05T09:35:27Z</time>
      </trkpt>
      <trkpt lat="44.12729" lon="7.25774">
        <ele>1780.8</ele>
        <time>2023-02-05T09:35:28Z</time>
      </trkpt>
      <trkpt lat="44.1273" lon="7.25773">
        <ele>1780.8</ele>
        <time>2023-02-05T09:35:29Z</time>
      </trkpt>
      <trkpt lat="44.1273" lon="7.25773">
        <ele>1780.9</ele>
        <time>2023-02-05T09:35:30Z</time>
      </trkpt>
      <trkpt lat="44.12729" lon="7.25772">
        <ele>1781</ele>
        <time>2023-02-05T09:35:31Z</time>
      </trkpt>
      <trkpt lat="44.1273" lon="7.25772">
        <ele>1781.1</ele>
        <time>2023-02-05T09:35:32Z</time>
      </trkpt>
      <trkpt lat="44.1273" lon="7.25772">
        <ele>1781.1</ele>
        <time>2023-02-05T09:35:33Z</time>
      </trkpt>
      <trkpt lat="44.12731" lon="7.25771">
        <ele>1781.2</ele>
        <time>2023-02-05T09:35:34Z</time>
      </trkpt>
      <trkpt lat="44.12732" lon="7.25772">
        <ele>1781.2</ele>
        <time>2023-02-05T09:35:35Z</time>
      </trkpt>
      <trkpt lat="44.12732" lon="7.25773">
        <ele>1781.2</ele>
        <time>2023-02-05T09:35:36Z</time>
      </trkpt>
      <trkpt lat="44.12732" lon="7.25771">
        <ele>1781.1</ele>
        <time>2023-02-05T09:35:37Z</time>
      </trkpt>
      <trkpt lat="44.12733" lon="7.25771">
        <ele>1781.1</ele>
        <time>2023-02-05T09:35:38Z</time>
      </trkpt>
      <trkpt lat="44.12733" lon="7.2577">
        <ele>1781.1</ele>
        <time>2023-02-05T09:35:39Z</time>
      </trkpt>
      <trkpt lat="44.12734" lon="7.2577">
        <ele>1781.1</ele>
        <time>2023-02-05T09:35:40Z</time>
      </trkpt>
      <trkpt lat="44.12735" lon="7.2577">
        <ele>1781.2</ele>
        <time>2023-02-05T09:35:41Z</time>
      </trkpt>
      <trkpt lat="44.12736" lon="7.2577">
        <ele>1781.3</ele>
        <time>2023-02-05T09:35:42Z</time>
      </trkpt>
      <trkpt lat="44.12736" lon="7.2577">
        <ele>1781.4</ele>
        <time>2023-02-05T09:35:43Z</time>
      </trkpt>
      <trkpt lat="44.12737" lon="7.25769">
        <ele>1781.6</ele>
        <time>2023-02-05T09:35:44Z</time>
      </trkpt>
      <trkpt lat="44.12738" lon="7.25769">
        <ele>1781.6</ele>
        <time>2023-02-05T09:35:45Z</time>
      </trkpt>
      <trkpt lat="44.12737" lon="7.25768">
        <ele>1781.7</ele>
        <time>2023-02-05T09:35:46Z</time>
      </trkpt>
      <trkpt lat="44.12738" lon="7.25768">
        <ele>1781.6</ele>
        <time>2023-02-05T09:35:47Z</time>
      </trkpt>
      <trkpt lat="44.12739" lon="7.25768">
        <ele>1781.7</ele>
        <time>2023-02-05T09:35:48Z</time>
      </trkpt>
      <trkpt lat="44.12741" lon="7.25768">
        <ele>1781.7</ele>
        <time>2023-02-05T09:35:49Z</time>
      </trkpt>
      <trkpt lat="44.12741" lon="7.25767">
        <ele>1781.8</ele>
        <time>2023-02-05T09:35:50Z</time>
      </trkpt>
      <trkpt lat="44.12742" lon="7.25767">
        <ele>1781.8</ele>
        <time>2023-02-05T09:35:51Z</time>
      </trkpt>
      <trkpt lat="44.12743" lon="7.25767">
        <ele>1781.9</ele>
        <time>2023-02-05T09:35:52Z</time>
      </trkpt>
      <trkpt lat="44.12746" lon="7.25767">
        <ele>1781.9</ele>
        <time>2023-02-05T09:35:53Z</time>
      </trkpt>
      <trkpt lat="44.12747" lon="7.25767">
        <ele>1781.9</ele>
        <time>2023-02-05T09:35:54Z</time>
      </trkpt>
      <trkpt lat="44.12748" lon="7.25767">
        <ele>1781.9</ele>
        <time>2023-02-05T09:35:55Z</time>
      </trkpt>
      <trkpt lat="44.12748" lon="7.25766">
        <ele>1781.9</ele>
        <time>2023-02-05T09:35:56Z</time>
      </trkpt>
      <trkpt lat="44.12749" lon="7.25766">
        <ele>1781.8</ele>
        <time>2023-02-05T09:35:57Z</time>
      </trkpt>
      <trkpt lat="44.12749" lon="7.25765">
        <ele>1781.9</ele>
        <time>2023-02-05T09:35:58Z</time>
      </trkpt>
      <trkpt lat="44.12749" lon="7.25764">
        <ele>1782</ele>
        <time>2023-02-05T09:35:59Z</time>
      </trkpt>
      <trkpt lat="44.1275" lon="7.25764">
        <ele>1782.1</ele>
        <time>2023-02-05T09:36:00Z</time>
      </trkpt>
      <trkpt lat="44.12751" lon="7.25763">
        <ele>1782.2</ele>
        <time>2023-02-05T09:36:01Z</time>
      </trkpt>
      <trkpt lat="44.12752" lon="7.25763">
        <ele>1782.3</ele>
        <time>2023-02-05T09:36:02Z</time>
      </trkpt>
      <trkpt lat="44.12753" lon="7.25763">
        <ele>1782.4</ele>
        <time>2023-02-05T09:36:03Z</time>
      </trkpt>
      <trkpt lat="44.12753" lon="7.25762">
        <ele>1782.4</ele>
        <time>2023-02-05T09:36:04Z</time>
      </trkpt>
      <trkpt lat="44.12755" lon="7.25762">
        <ele>1782.6</ele>
        <time>2023-02-05T09:36:05Z</time>
      </trkpt>
      <trkpt lat="44.12757" lon="7.25762">
        <ele>1782.7</ele>
        <time>2023-02-05T09:36:06Z</time>
      </trkpt>
      <trkpt lat="44.12756" lon="7.25762">
        <ele>1782.8</ele>
        <time>2023-02-05T09:36:07Z</time>
      </trkpt>
      <trkpt lat="44.12757" lon="7.25762">
        <ele>1782.9</ele>
        <time>2023-02-05T09:36:08Z</time>
      </trkpt>
      <trkpt lat="44.1276" lon="7.25764">
        <ele>1782.9</ele>
        <time>2023-02-05T09:36:09Z</time>
      </trkpt>
      <trkpt lat="44.12757" lon="7.25762">
        <ele>1782.8</ele>
        <time>2023-02-05T09:36:10Z</time>
      </trkpt>
      <trkpt lat="44.12755" lon="7.2576">
        <ele>1782.8</ele>
        <time>2023-02-05T09:36:11Z</time>
      </trkpt>
      <trkpt lat="44.12752" lon="7.25757">
        <ele>1782.7</ele>
        <time>2023-02-05T09:36:12Z</time>
      </trkpt>
      <trkpt lat="44.12752" lon="7.25755">
        <ele>1782.6</ele>
        <time>2023-02-05T09:36:13Z</time>
      </trkpt>
      <trkpt lat="44.12751" lon="7.25753">
        <ele>1782.6</ele>
        <time>2023-02-05T09:36:14Z</time>
      </trkpt>
      <trkpt lat="44.12751" lon="7.25752">
        <ele>1782.6</ele>
        <time>2023-02-05T09:36:15Z</time>
      </trkpt>
      <trkpt lat="44.1275" lon="7.25751">
        <ele>1782.6</ele>
        <time>2023-02-05T09:36:16Z</time>
      </trkpt>
      <trkpt lat="44.1275" lon="7.2575">
        <ele>1782.5</ele>
        <time>2023-02-05T09:36:17Z</time>
      </trkpt>
      <trkpt lat="44.1275" lon="7.2575">
        <ele>1782.5</ele>
        <time>2023-02-05T09:36:18Z</time>
      </trkpt>
      <trkpt lat="44.12748" lon="7.25749">
        <ele>1782.5</ele>
        <time>2023-02-05T09:36:19Z</time>
      </trkpt>
      <trkpt lat="44.12748" lon="7.25749">
        <ele>1782.6</ele>
        <time>2023-02-05T09:36:20Z</time>
      </trkpt>
      <trkpt lat="44.12748" lon="7.25749">
        <ele>1782.7</ele>
        <time>2023-02-05T09:36:21Z</time>
      </trkpt>
      <trkpt lat="44.12748" lon="7.25749">
        <ele>1782.7</ele>
        <time>2023-02-05T09:36:22Z</time>
      </trkpt>
      <trkpt lat="44.12749" lon="7.2575">
        <ele>1782.8</ele>
        <time>2023-02-05T09:36:23Z</time>
      </trkpt>
      <trkpt lat="44.12751" lon="7.25751">
        <ele>1782.8</ele>
        <time>2023-02-05T09:36:24Z</time>
      </trkpt>
      <trkpt lat="44.1275" lon="7.2575">
        <ele>1782.6</ele>
        <time>2023-02-05T09:36:25Z</time>
      </trkpt>
      <trkpt lat="44.1275" lon="7.2575">
        <ele>1782.5</ele>
        <time>2023-02-05T09:36:26Z</time>
      </trkpt>
      <trkpt lat="44.1275" lon="7.2575">
        <ele>1782.5</ele>
        <time>2023-02-05T09:36:27Z</time>
      </trkpt>
      <trkpt lat="44.12749" lon="7.25749">
        <ele>1782.6</ele>
        <time>2023-02-05T09:36:28Z</time>
      </trkpt>
      <trkpt lat="44.12749" lon="7.25749">
        <ele>1782.6</ele>
        <time>2023-02-05T09:36:29Z</time>
      </trkpt>
      <trkpt lat="44.12748" lon="7.25748">
        <ele>1782.7</ele>
        <time>2023-02-05T09:36:30Z</time>
      </trkpt>
      <trkpt lat="44.12748" lon="7.25748">
        <ele>1782.6</ele>
        <time>2023-02-05T09:36:31Z</time>
      </trkpt>
      <trkpt lat="44.12747" lon="7.25748">
        <ele>1782.6</ele>
        <time>2023-02-05T09:36:32Z</time>
      </trkpt>
      <trkpt lat="44.12747" lon="7.25748">
        <ele>1782.6</ele>
        <time>2023-02-05T09:36:33Z</time>
      </trkpt>
      <trkpt lat="44.12745" lon="7.25747">
        <ele>1782.6</ele>
        <time>2023-02-05T09:36:34Z</time>
      </trkpt>
      <trkpt lat="44.12745" lon="7.25747">
        <ele>1782.6</ele>
        <time>2023-02-05T09:36:35Z</time>
      </trkpt>
      <trkpt lat="44.12746" lon="7.25747">
        <ele>1782.6</ele>
        <time>2023-02-05T09:36:36Z</time>
      </trkpt>
      <trkpt lat="44.12743" lon="7.25746">
        <ele>1782.6</ele>
        <time>2023-02-05T09:36:37Z</time>
      </trkpt>
      <trkpt lat="44.12743" lon="7.25745">
        <ele>1782.6</ele>
        <time>2023-02-05T09:36:38Z</time>
      </trkpt>
      <trkpt lat="44.12743" lon="7.25746">
        <ele>1782.5</ele>
        <time>2023-02-05T09:36:39Z</time>
      </trkpt>
      <trkpt lat="44.12743" lon="7.25746">
        <ele>1782.6</ele>
        <time>2023-02-05T09:36:40Z</time>
      </trkpt>
      <trkpt lat="44.12744" lon="7.25746">
        <ele>1782.6</ele>
        <time>2023-02-05T09:36:41Z</time>
      </trkpt>
      <trkpt lat="44.12743" lon="7.25745">
        <ele>1782.6</ele>
        <time>2023-02-05T09:36:42Z</time>
      </trkpt>
      <trkpt lat="44.12742" lon="7.25744">
        <ele>1782.5</ele>
        <time>2023-02-05T09:36:43Z</time>
      </trkpt>
      <trkpt lat="44.12742" lon="7.25744">
        <ele>1782.6</ele>
        <time>2023-02-05T09:36:44Z</time>
      </trkpt>
      <trkpt lat="44.12742" lon="7.25744">
        <ele>1782.6</ele>
        <time>2023-02-05T09:36:45Z</time>
      </trkpt>
      <trkpt lat="44.12742" lon="7.25744">
        <ele>1782.6</ele>
        <time>2023-02-05T09:36:46Z</time>
      </trkpt>
      <trkpt lat="44.12742" lon="7.25744">
        <ele>1782.6</ele>
        <time>2023-02-05T09:36:47Z</time>
      </trkpt>
      <trkpt lat="44.12743" lon="7.25744">
        <ele>1782.7</ele>
        <time>2023-02-05T09:36:48Z</time>
      </trkpt>
      <trkpt lat="44.12743" lon="7.25744">
        <ele>1782.7</ele>
        <time>2023-02-05T09:36:49Z</time>
      </trkpt>
      <trkpt lat="44.12743" lon="7.25744">
        <ele>1782.7</ele>
        <time>2023-02-05T09:36:50Z</time>
      </trkpt>
      <trkpt lat="44.12743" lon="7.25744">
        <ele>1782.6</ele>
        <time>2023-02-05T09:36:51Z</time>
      </trkpt>
      <trkpt lat="44.12742" lon="7.25743">
        <ele>1782.7</ele>
        <time>2023-02-05T09:36:52Z</time>
      </trkpt>
      <trkpt lat="44.12742" lon="7.25743">
        <ele>1782.7</ele>
        <time>2023-02-05T09:36:53Z</time>
      </trkpt>
      <trkpt lat="44.12742" lon="7.25743">
        <ele>1782.6</ele>
        <time>2023-02-05T09:36:54Z</time>
      </trkpt>
      <trkpt lat="44.12742" lon="7.25743">
        <ele>1782.6</ele>
        <time>2023-02-05T09:36:55Z</time>
      </trkpt>
      <trkpt lat="44.12742" lon="7.25743">
        <ele>1782.6</ele>
        <time>2023-02-05T09:36:56Z</time>
      </trkpt>
      <trkpt lat="44.12742" lon="7.25743">
        <ele>1782.5</ele>
        <time>2023-02-05T09:36:57Z</time>
      </trkpt>
      <trkpt lat="44.12742" lon="7.25743">
        <ele>1782.5</ele>
        <time>2023-02-05T09:36:58Z</time>
      </trkpt>
      <trkpt lat="44.12742" lon="7.25743">
        <ele>1782.5</ele>
        <time>2023-02-05T09:36:59Z</time>
      </trkpt>
      <trkpt lat="44.12741" lon="7.25742">
        <ele>1782.5</ele>
        <time>2023-02-05T09:37:00Z</time>
      </trkpt>
      <trkpt lat="44.12742" lon="7.25743">
        <ele>1782.5</ele>
        <time>2023-02-05T09:37:01Z</time>
      </trkpt>
      <trkpt lat="44.12743" lon="7.25744">
        <ele>1782.5</ele>
        <time>2023-02-05T09:37:02Z</time>
      </trkpt>
      <trkpt lat="44.12743" lon="7.25743">
        <ele>1782.6</ele>
        <time>2023-02-05T09:37:03Z</time>
      </trkpt>
      <trkpt lat="44.12742" lon="7.25742">
        <ele>1782.7</ele>
        <time>2023-02-05T09:37:04Z</time>
      </trkpt>
      <trkpt lat="44.12742" lon="7.25742">
        <ele>1782.6</ele>
        <time>2023-02-05T09:37:05Z</time>
      </trkpt>
      <trkpt lat="44.12741" lon="7.25741">
        <ele>1782.6</ele>
        <time>2023-02-05T09:37:06Z</time>
      </trkpt>
      <trkpt lat="44.12741" lon="7.25741">
        <ele>1782.5</ele>
        <time>2023-02-05T09:37:07Z</time>
      </trkpt>
      <trkpt lat="44.12739" lon="7.2574">
        <ele>1782.5</ele>
        <time>2023-02-05T09:37:08Z</time>
      </trkpt>
      <trkpt lat="44.12739" lon="7.25739">
        <ele>1782.4</ele>
        <time>2023-02-05T09:37:09Z</time>
      </trkpt>
      <trkpt lat="44.12738" lon="7.25739">
        <ele>1782.3</ele>
        <time>2023-02-05T09:37:10Z</time>
      </trkpt>
      <trkpt lat="44.12737" lon="7.25738">
        <ele>1782.3</ele>
        <time>2023-02-05T09:37:11Z</time>
      </trkpt>
      <trkpt lat="44.12737" lon="7.25738">
        <ele>1782.2</ele>
        <time>2023-02-05T09:37:12Z</time>
      </trkpt>
      <trkpt lat="44.12736" lon="7.25737">
        <ele>1782.2</ele>
        <time>2023-02-05T09:37:13Z</time>
      </trkpt>
      <trkpt lat="44.12735" lon="7.25737">
        <ele>1782.2</ele>
        <time>2023-02-05T09:37:14Z</time>
      </trkpt>
      <trkpt lat="44.12736" lon="7.25737">
        <ele>1782.2</ele>
        <time>2023-02-05T09:37:15Z</time>
      </trkpt>
      <trkpt lat="44.12735" lon="7.25737">
        <ele>1782.3</ele>
        <time>2023-02-05T09:37:16Z</time>
      </trkpt>
      <trkpt lat="44.12735" lon="7.25737">
        <ele>1782.2</ele>
        <time>2023-02-05T09:37:17Z</time>
      </trkpt>
      <trkpt lat="44.12735" lon="7.25737">
        <ele>1782.3</ele>
        <time>2023-02-05T09:37:18Z</time>
      </trkpt>
      <trkpt lat="44.12735" lon="7.25737">
        <ele>1782.4</ele>
        <time>2023-02-05T09:37:19Z</time>
      </trkpt>
      <trkpt lat="44.12736" lon="7.25737">
        <ele>1782.3</ele>
        <time>2023-02-05T09:37:20Z</time>
      </trkpt>
      <trkpt lat="44.12735" lon="7.25737">
        <ele>1782.3</ele>
        <time>2023-02-05T09:37:21Z</time>
      </trkpt>
      <trkpt lat="44.12736" lon="7.25736">
        <ele>1782.3</ele>
        <time>2023-02-05T09:37:22Z</time>
      </trkpt>
      <trkpt lat="44.12737" lon="7.25736">
        <ele>1782.3</ele>
        <time>2023-02-05T09:37:23Z</time>
      </trkpt>
      <trkpt lat="44.12737" lon="7.25735">
        <ele>1782.3</ele>
        <time>2023-02-05T09:37:24Z</time>
      </trkpt>
      <trkpt lat="44.12738" lon="7.25735">
        <ele>1782.3</ele>
        <time>2023-02-05T09:37:25Z</time>
      </trkpt>
      <trkpt lat="44.12738" lon="7.25734">
        <ele>1782.4</ele>
        <time>2023-02-05T09:37:26Z</time>
      </trkpt>
      <trkpt lat="44.12739" lon="7.25734">
        <ele>1782.5</ele>
        <time>2023-02-05T09:37:27Z</time>
      </trkpt>
      <trkpt lat="44.12739" lon="7.25734">
        <ele>1782.6</ele>
        <time>2023-02-05T09:37:28Z</time>
      </trkpt>
      <trkpt lat="44.12739" lon="7.25734">
        <ele>1782.7</ele>
        <time>2023-02-05T09:37:29Z</time>
      </trkpt>
      <trkpt lat="44.1274" lon="7.25733">
        <ele>1782.7</ele>
        <time>2023-02-05T09:37:30Z</time>
      </trkpt>
      <trkpt lat="44.1274" lon="7.25732">
        <ele>1782.7</ele>
        <time>2023-02-05T09:37:31Z</time>
      </trkpt>
      <trkpt lat="44.1274" lon="7.25732">
        <ele>1782.7</ele>
        <time>2023-02-05T09:37:32Z</time>
      </trkpt>
      <trkpt lat="44.1274" lon="7.25731">
        <ele>1782.7</ele>
        <time>2023-02-05T09:37:33Z</time>
      </trkpt>
      <trkpt lat="44.1274" lon="7.2573">
        <ele>1782.7</ele>
        <time>2023-02-05T09:37:34Z</time>
      </trkpt>
      <trkpt lat="44.1274" lon="7.2573">
        <ele>1782.8</ele>
        <time>2023-02-05T09:37:35Z</time>
      </trkpt>
      <trkpt lat="44.1274" lon="7.2573">
        <ele>1782.8</ele>
        <time>2023-02-05T09:37:36Z</time>
      </trkpt>
      <trkpt lat="44.1274" lon="7.2573">
        <ele>1782.9</ele>
        <time>2023-02-05T09:37:37Z</time>
      </trkpt>
      <trkpt lat="44.1274" lon="7.25729">
        <ele>1782.8</ele>
        <time>2023-02-05T09:37:38Z</time>
      </trkpt>
      <trkpt lat="44.1274" lon="7.25729">
        <ele>1782.9</ele>
        <time>2023-02-05T09:37:39Z</time>
      </trkpt>
      <trkpt lat="44.1274" lon="7.25729">
        <ele>1782.9</ele>
        <time>2023-02-05T09:37:40Z</time>
      </trkpt>
      <trkpt lat="44.12741" lon="7.25729">
        <ele>1782.9</ele>
        <time>2023-02-05T09:37:41Z</time>
      </trkpt>
      <trkpt lat="44.12741" lon="7.25729">
        <ele>1782.8</ele>
        <time>2023-02-05T09:37:42Z</time>
      </trkpt>
      <trkpt lat="44.12742" lon="7.25729">
        <ele>1782.8</ele>
        <time>2023-02-05T09:37:43Z</time>
      </trkpt>
      <trkpt lat="44.12742" lon="7.25729">
        <ele>1782.9</ele>
        <time>2023-02-05T09:37:44Z</time>
      </trkpt>
      <trkpt lat="44.1274" lon="7.25728">
        <ele>1783</ele>
        <time>2023-02-05T09:37:45Z</time>
      </trkpt>
      <trkpt lat="44.12739" lon="7.25727">
        <ele>1783</ele>
        <time>2023-02-05T09:37:46Z</time>
      </trkpt>
      <trkpt lat="44.12739" lon="7.25726">
        <ele>1783</ele>
        <time>2023-02-05T09:37:47Z</time>
      </trkpt>
      <trkpt lat="44.12739" lon="7.25725">
        <ele>1782.9</ele>
        <time>2023-02-05T09:37:48Z</time>
      </trkpt>
      <trkpt lat="44.12738" lon="7.25725">
        <ele>1782.9</ele>
        <time>2023-02-05T09:37:49Z</time>
      </trkpt>
      <trkpt lat="44.12738" lon="7.25724">
        <ele>1782.9</ele>
        <time>2023-02-05T09:37:50Z</time>
      </trkpt>
      <trkpt lat="44.12737" lon="7.25723">
        <ele>1782.9</ele>
        <time>2023-02-05T09:37:51Z</time>
      </trkpt>
      <trkpt lat="44.12737" lon="7.25722">
        <ele>1782.8</ele>
        <time>2023-02-05T09:37:52Z</time>
      </trkpt>
      <trkpt lat="44.12736" lon="7.25721">
        <ele>1782.9</ele>
        <time>2023-02-05T09:37:53Z</time>
      </trkpt>
      <trkpt lat="44.12736" lon="7.2572">
        <ele>1782.8</ele>
        <time>2023-02-05T09:37:54Z</time>
      </trkpt>
      <trkpt lat="44.12735" lon="7.2572">
        <ele>1782.9</ele>
        <time>2023-02-05T09:37:55Z</time>
      </trkpt>
      <trkpt lat="44.12732" lon="7.25717">
        <ele>1782.9</ele>
        <time>2023-02-05T09:37:56Z</time>
      </trkpt>
      <trkpt lat="44.1273" lon="7.25716">
        <ele>1782.9</ele>
        <time>2023-02-05T09:37:57Z</time>
      </trkpt>
      <trkpt lat="44.12728" lon="7.25714">
        <ele>1783</ele>
        <time>2023-02-05T09:37:58Z</time>
      </trkpt>
      <trkpt lat="44.12725" lon="7.25712">
        <ele>1783</ele>
        <time>2023-02-05T09:37:59Z</time>
      </trkpt>
      <trkpt lat="44.12722" lon="7.2571">
        <ele>1783.1</ele>
        <time>2023-02-05T09:38:00Z</time>
      </trkpt>
      <trkpt lat="44.12718" lon="7.25706">
        <ele>1783.1</ele>
        <time>2023-02-05T09:38:01Z</time>
      </trkpt>
      <trkpt lat="44.12715" lon="7.25704">
        <ele>1783.1</ele>
        <time>2023-02-05T09:38:02Z</time>
      </trkpt>
      <trkpt lat="44.12712" lon="7.25702">
        <ele>1783</ele>
        <time>2023-02-05T09:38:03Z</time>
      </trkpt>
      <trkpt lat="44.12711" lon="7.25701">
        <ele>1783</ele>
        <time>2023-02-05T09:38:04Z</time>
      </trkpt>
      <trkpt lat="44.12709" lon="7.25699">
        <ele>1783</ele>
        <time>2023-02-05T09:38:05Z</time>
      </trkpt>
      <trkpt lat="44.12708" lon="7.25698">
        <ele>1783</ele>
        <time>2023-02-05T09:38:06Z</time>
      </trkpt>
      <trkpt lat="44.12707" lon="7.25697">
        <ele>1783</ele>
        <time>2023-02-05T09:38:07Z</time>
      </trkpt>
      <trkpt lat="44.12706" lon="7.25696">
        <ele>1783</ele>
        <time>2023-02-05T09:38:08Z</time>
      </trkpt>
      <trkpt lat="44.12706" lon="7.25696">
        <ele>1783</ele>
        <time>2023-02-05T09:38:09Z</time>
      </trkpt>
      <trkpt lat="44.12706" lon="7.25696">
        <ele>1783.1</ele>
        <time>2023-02-05T09:38:10Z</time>
      </trkpt>
      <trkpt lat="44.12706" lon="7.25697">
        <ele>1783.1</ele>
        <time>2023-02-05T09:38:11Z</time>
      </trkpt>
      <trkpt lat="44.12707" lon="7.25697">
        <ele>1783.1</ele>
        <time>2023-02-05T09:38:12Z</time>
      </trkpt>
      <trkpt lat="44.12707" lon="7.25697">
        <ele>1783.1</ele>
        <time>2023-02-05T09:38:13Z</time>
      </trkpt>
      <trkpt lat="44.12707" lon="7.25697">
        <ele>1783.1</ele>
        <time>2023-02-05T09:38:14Z</time>
      </trkpt>
      <trkpt lat="44.12708" lon="7.25698">
        <ele>1783.1</ele>
        <time>2023-02-05T09:38:15Z</time>
      </trkpt>
      <trkpt lat="44.12708" lon="7.25698">
        <ele>1783</ele>
        <time>2023-02-05T09:38:16Z</time>
      </trkpt>
      <trkpt lat="44.12708" lon="7.25698">
        <ele>1782.9</ele>
        <time>2023-02-05T09:38:17Z</time>
      </trkpt>
      <trkpt lat="44.12708" lon="7.25698">
        <ele>1782.9</ele>
        <time>2023-02-05T09:38:18Z</time>
      </trkpt>
      <trkpt lat="44.12708" lon="7.25699">
        <ele>1782.9</ele>
        <time>2023-02-05T09:38:19Z</time>
      </trkpt>
      <trkpt lat="44.12709" lon="7.25699">
        <ele>1782.9</ele>
        <time>2023-02-05T09:38:20Z</time>
      </trkpt>
      <trkpt lat="44.12709" lon="7.257">
        <ele>1782.9</ele>
        <time>2023-02-05T09:38:21Z</time>
      </trkpt>
      <trkpt lat="44.12709" lon="7.257">
        <ele>1782.8</ele>
        <time>2023-02-05T09:38:22Z</time>
      </trkpt>
      <trkpt lat="44.12709" lon="7.257">
        <ele>1782.8</ele>
        <time>2023-02-05T09:38:23Z</time>
      </trkpt>
      <trkpt lat="44.12708" lon="7.257">
        <ele>1782.8</ele>
        <time>2023-02-05T09:38:24Z</time>
      </trkpt>
      <trkpt lat="44.12708" lon="7.257">
        <ele>1782.7</ele>
        <time>2023-02-05T09:38:25Z</time>
      </trkpt>
      <trkpt lat="44.12708" lon="7.257">
        <ele>1782.7</ele>
        <time>2023-02-05T09:38:26Z</time>
      </trkpt>
      <trkpt lat="44.12707" lon="7.257">
        <ele>1782.8</ele>
        <time>2023-02-05T09:38:27Z</time>
      </trkpt>
      <trkpt lat="44.12707" lon="7.257">
        <ele>1782.8</ele>
        <time>2023-02-05T09:38:28Z</time>
      </trkpt>
      <trkpt lat="44.12707" lon="7.25699">
        <ele>1782.8</ele>
        <time>2023-02-05T09:38:29Z</time>
      </trkpt>
      <trkpt lat="44.12706" lon="7.25699">
        <ele>1782.9</ele>
        <time>2023-02-05T09:38:30Z</time>
      </trkpt>
      <trkpt lat="44.12706" lon="7.25699">
        <ele>1782.8</ele>
        <time>2023-02-05T09:38:31Z</time>
      </trkpt>
      <trkpt lat="44.12705" lon="7.25698">
        <ele>1782.8</ele>
        <time>2023-02-05T09:38:32Z</time>
      </trkpt>
      <trkpt lat="44.12705" lon="7.25698">
        <ele>1782.7</ele>
        <time>2023-02-05T09:38:33Z</time>
      </trkpt>
      <trkpt lat="44.12705" lon="7.25698">
        <ele>1782.8</ele>
        <time>2023-02-05T09:38:34Z</time>
      </trkpt>
      <trkpt lat="44.12705" lon="7.25698">
        <ele>1782.7</ele>
        <time>2023-02-05T09:38:35Z</time>
      </trkpt>
      <trkpt lat="44.12705" lon="7.25698">
        <ele>1782.7</ele>
        <time>2023-02-05T09:38:36Z</time>
      </trkpt>
      <trkpt lat="44.12705" lon="7.25698">
        <ele>1782.7</ele>
        <time>2023-02-05T09:38:37Z</time>
      </trkpt>
      <trkpt lat="44.12705" lon="7.25698">
        <ele>1782.7</ele>
        <time>2023-02-05T09:38:38Z</time>
      </trkpt>
      <trkpt lat="44.12705" lon="7.25697">
        <ele>1782.7</ele>
        <time>2023-02-05T09:38:39Z</time>
      </trkpt>
      <trkpt lat="44.12705" lon="7.25698">
        <ele>1782.7</ele>
        <time>2023-02-05T09:38:40Z</time>
      </trkpt>
      <trkpt lat="44.12705" lon="7.25698">
        <ele>1782.6</ele>
        <time>2023-02-05T09:38:41Z</time>
      </trkpt>
      <trkpt lat="44.12703" lon="7.25695">
        <ele>1782.6</ele>
        <time>2023-02-05T09:38:42Z</time>
      </trkpt>
      <trkpt lat="44.12701" lon="7.25694">
        <ele>1782.6</ele>
        <time>2023-02-05T09:38:43Z</time>
      </trkpt>
      <trkpt lat="44.12701" lon="7.25694">
        <ele>1782.6</ele>
        <time>2023-02-05T09:38:44Z</time>
      </trkpt>
      <trkpt lat="44.12701" lon="7.25694">
        <ele>1782.7</ele>
        <time>2023-02-05T09:38:45Z</time>
      </trkpt>
      <trkpt lat="44.12701" lon="7.25693">
        <ele>1782.7</ele>
        <time>2023-02-05T09:38:46Z</time>
      </trkpt>
      <trkpt lat="44.12701" lon="7.25693">
        <ele>1782.8</ele>
        <time>2023-02-05T09:38:47Z</time>
      </trkpt>
      <trkpt lat="44.127" lon="7.25692">
        <ele>1782.8</ele>
        <time>2023-02-05T09:38:48Z</time>
      </trkpt>
      <trkpt lat="44.127" lon="7.25693">
        <ele>1782.9</ele>
        <time>2023-02-05T09:38:49Z</time>
      </trkpt>
      <trkpt lat="44.127" lon="7.25693">
        <ele>1782.8</ele>
        <time>2023-02-05T09:38:50Z</time>
      </trkpt>
      <trkpt lat="44.127" lon="7.25693">
        <ele>1782.7</ele>
        <time>2023-02-05T09:38:51Z</time>
      </trkpt>
      <trkpt lat="44.12701" lon="7.25694">
        <ele>1782.6</ele>
        <time>2023-02-05T09:38:52Z</time>
      </trkpt>
      <trkpt lat="44.12701" lon="7.25694">
        <ele>1782.7</ele>
        <time>2023-02-05T09:38:53Z</time>
      </trkpt>
      <trkpt lat="44.12703" lon="7.25695">
        <ele>1782.7</ele>
        <time>2023-02-05T09:38:54Z</time>
      </trkpt>
      <trkpt lat="44.12704" lon="7.25695">
        <ele>1782.7</ele>
        <time>2023-02-05T09:38:55Z</time>
      </trkpt>
      <trkpt lat="44.12705" lon="7.25695">
        <ele>1782.8</ele>
        <time>2023-02-05T09:38:56Z</time>
      </trkpt>
      <trkpt lat="44.12708" lon="7.25697">
        <ele>1782.9</ele>
        <time>2023-02-05T09:38:57Z</time>
      </trkpt>
      <trkpt lat="44.12709" lon="7.25697">
        <ele>1782.9</ele>
        <time>2023-02-05T09:38:58Z</time>
      </trkpt>
      <trkpt lat="44.12711" lon="7.25699">
        <ele>1782.9</ele>
        <time>2023-02-05T09:38:59Z</time>
      </trkpt>
      <trkpt lat="44.12712" lon="7.25699">
        <ele>1782.9</ele>
        <time>2023-02-05T09:39:00Z</time>
      </trkpt>
      <trkpt lat="44.12713" lon="7.257">
        <ele>1782.9</ele>
        <time>2023-02-05T09:39:01Z</time>
      </trkpt>
      <trkpt lat="44.12713" lon="7.257">
        <ele>1782.8</ele>
        <time>2023-02-05T09:39:02Z</time>
      </trkpt>
      <trkpt lat="44.12715" lon="7.25701">
        <ele>1782.8</ele>
        <time>2023-02-05T09:39:03Z</time>
      </trkpt>
      <trkpt lat="44.12715" lon="7.25701">
        <ele>1782.8</ele>
        <time>2023-02-05T09:39:04Z</time>
      </trkpt>
      <trkpt lat="44.12716" lon="7.25702">
        <ele>1782.8</ele>
        <time>2023-02-05T09:39:05Z</time>
      </trkpt>
      <trkpt lat="44.12716" lon="7.25703">
        <ele>1782.8</ele>
        <time>2023-02-05T09:39:06Z</time>
      </trkpt>
      <trkpt lat="44.12717" lon="7.25703">
        <ele>1782.8</ele>
        <time>2023-02-05T09:39:07Z</time>
      </trkpt>
      <trkpt lat="44.12718" lon="7.25704">
        <ele>1782.7</ele>
        <time>2023-02-05T09:39:08Z</time>
      </trkpt>
      <trkpt lat="44.12719" lon="7.25705">
        <ele>1782.7</ele>
        <time>2023-02-05T09:39:09Z</time>
      </trkpt>
      <trkpt lat="44.12719" lon="7.25705">
        <ele>1782.8</ele>
        <time>2023-02-05T09:39:10Z</time>
      </trkpt>
      <trkpt lat="44.1272" lon="7.25705">
        <ele>1782.8</ele>
        <time>2023-02-05T09:39:11Z</time>
      </trkpt>
      <trkpt lat="44.12721" lon="7.25706">
        <ele>1782.8</ele>
        <time>2023-02-05T09:39:12Z</time>
      </trkpt>
      <trkpt lat="44.12723" lon="7.25707">
        <ele>1782.9</ele>
        <time>2023-02-05T09:39:13Z</time>
      </trkpt>
      <trkpt lat="44.12724" lon="7.25708">
        <ele>1782.9</ele>
        <time>2023-02-05T09:39:14Z</time>
      </trkpt>
      <trkpt lat="44.12726" lon="7.25708">
        <ele>1783</ele>
        <time>2023-02-05T09:39:15Z</time>
      </trkpt>
      <trkpt lat="44.12726" lon="7.25708">
        <ele>1783</ele>
        <time>2023-02-05T09:39:16Z</time>
      </trkpt>
      <trkpt lat="44.12728" lon="7.25709">
        <ele>1783</ele>
        <time>2023-02-05T09:39:17Z</time>
      </trkpt>
      <trkpt lat="44.1273" lon="7.2571">
        <ele>1783</ele>
        <time>2023-02-05T09:39:18Z</time>
      </trkpt>
      <trkpt lat="44.1273" lon="7.25711">
        <ele>1783</ele>
        <time>2023-02-05T09:39:19Z</time>
      </trkpt>
      <trkpt lat="44.12731" lon="7.25712">
        <ele>1782.9</ele>
        <time>2023-02-05T09:39:20Z</time>
      </trkpt>
      <trkpt lat="44.12731" lon="7.25712">
        <ele>1782.9</ele>
        <time>2023-02-05T09:39:21Z</time>
      </trkpt>
      <trkpt lat="44.12731" lon="7.25712">
        <ele>1783</ele>
        <time>2023-02-05T09:39:22Z</time>
      </trkpt>
      <trkpt lat="44.12732" lon="7.25713">
        <ele>1783</ele>
        <time>2023-02-05T09:39:23Z</time>
      </trkpt>
      <trkpt lat="44.12731" lon="7.25712">
        <ele>1783</ele>
        <time>2023-02-05T09:39:24Z</time>
      </trkpt>
      <trkpt lat="44.12731" lon="7.25712">
        <ele>1783.1</ele>
        <time>2023-02-05T09:39:25Z</time>
      </trkpt>
      <trkpt lat="44.12731" lon="7.25712">
        <ele>1783</ele>
        <time>2023-02-05T09:39:26Z</time>
      </trkpt>
      <trkpt lat="44.1273" lon="7.25711">
        <ele>1783.1</ele>
        <time>2023-02-05T09:39:27Z</time>
      </trkpt>
      <trkpt lat="44.1273" lon="7.25712">
        <ele>1783.1</ele>
        <time>2023-02-05T09:39:28Z</time>
      </trkpt>
      <trkpt lat="44.12729" lon="7.25712">
        <ele>1783.1</ele>
        <time>2023-02-05T09:39:29Z</time>
      </trkpt>
      <trkpt lat="44.12729" lon="7.25711">
        <ele>1783.1</ele>
        <time>2023-02-05T09:39:30Z</time>
      </trkpt>
      <trkpt lat="44.12728" lon="7.2571">
        <ele>1783.1</ele>
        <time>2023-02-05T09:39:31Z</time>
      </trkpt>
      <trkpt lat="44.12729" lon="7.25711">
        <ele>1783.1</ele>
        <time>2023-02-05T09:39:32Z</time>
      </trkpt>
      <trkpt lat="44.12729" lon="7.25711">
        <ele>1783.1</ele>
        <time>2023-02-05T09:39:33Z</time>
      </trkpt>
      <trkpt lat="44.1273" lon="7.25711">
        <ele>1783</ele>
        <time>2023-02-05T09:39:34Z</time>
      </trkpt>
      <trkpt lat="44.1273" lon="7.25712">
        <ele>1783.1</ele>
        <time>2023-02-05T09:39:35Z</time>
      </trkpt>
      <trkpt lat="44.1273" lon="7.25712">
        <ele>1783.1</ele>
        <time>2023-02-05T09:39:36Z</time>
      </trkpt>
      <trkpt lat="44.12731" lon="7.25712">
        <ele>1783.1</ele>
        <time>2023-02-05T09:39:37Z</time>
      </trkpt>
      <trkpt lat="44.1273" lon="7.25712">
        <ele>1783.1</ele>
        <time>2023-02-05T09:39:38Z</time>
      </trkpt>
      <trkpt lat="44.12731" lon="7.25712">
        <ele>1783.1</ele>
        <time>2023-02-05T09:39:39Z</time>
      </trkpt>
      <trkpt lat="44.12731" lon="7.25713">
        <ele>1783.1</ele>
        <time>2023-02-05T09:39:40Z</time>
      </trkpt>
      <trkpt lat="44.12732" lon="7.25713">
        <ele>1783.2</ele>
        <time>2023-02-05T09:39:41Z</time>
      </trkpt>
      <trkpt lat="44.12732" lon="7.25714">
        <ele>1783.2</ele>
        <time>2023-02-05T09:39:42Z</time>
      </trkpt>
      <trkpt lat="44.12733" lon="7.25714">
        <ele>1783.2</ele>
        <time>2023-02-05T09:39:43Z</time>
      </trkpt>
      <trkpt lat="44.12735" lon="7.25716">
        <ele>1783.3</ele>
        <time>2023-02-05T09:39:44Z</time>
      </trkpt>
      <trkpt lat="44.12737" lon="7.25718">
        <ele>1783.4</ele>
        <time>2023-02-05T09:39:45Z</time>
      </trkpt>
      <trkpt lat="44.12737" lon="7.25718">
        <ele>1783.4</ele>
        <time>2023-02-05T09:39:46Z</time>
      </trkpt>
      <trkpt lat="44.12737" lon="7.25718">
        <ele>1783.4</ele>
        <time>2023-02-05T09:39:47Z</time>
      </trkpt>
      <trkpt lat="44.12738" lon="7.25719">
        <ele>1783.4</ele>
        <time>2023-02-05T09:39:48Z</time>
      </trkpt>
      <trkpt lat="44.12738" lon="7.25719">
        <ele>1783.4</ele>
        <time>2023-02-05T09:39:49Z</time>
      </trkpt>
      <trkpt lat="44.12739" lon="7.2572">
        <ele>1783.4</ele>
        <time>2023-02-05T09:39:50Z</time>
      </trkpt>
      <trkpt lat="44.12738" lon="7.25719">
        <ele>1783.4</ele>
        <time>2023-02-05T09:39:51Z</time>
      </trkpt>
      <trkpt lat="44.12738" lon="7.25719">
        <ele>1783.3</ele>
        <time>2023-02-05T09:39:52Z</time>
      </trkpt>
      <trkpt lat="44.12739" lon="7.2572">
        <ele>1783.3</ele>
        <time>2023-02-05T09:39:53Z</time>
      </trkpt>
      <trkpt lat="44.12739" lon="7.2572">
        <ele>1783.2</ele>
        <time>2023-02-05T09:39:54Z</time>
      </trkpt>
      <trkpt lat="44.12739" lon="7.2572">
        <ele>1783.2</ele>
        <time>2023-02-05T09:39:55Z</time>
      </trkpt>
      <trkpt lat="44.12741" lon="7.2572">
        <ele>1783.2</ele>
        <time>2023-02-05T09:39:56Z</time>
      </trkpt>
      <trkpt lat="44.12741" lon="7.2572">
        <ele>1783.3</ele>
        <time>2023-02-05T09:39:57Z</time>
      </trkpt>
      <trkpt lat="44.12742" lon="7.2572">
        <ele>1783.2</ele>
        <time>2023-02-05T09:39:58Z</time>
      </trkpt>
      <trkpt lat="44.12742" lon="7.2572">
        <ele>1783.3</ele>
        <time>2023-02-05T09:39:59Z</time>
      </trkpt>
      <trkpt lat="44.12742" lon="7.2572">
        <ele>1783.2</ele>
        <time>2023-02-05T09:40:00Z</time>
      </trkpt>
      <trkpt lat="44.12743" lon="7.25721">
        <ele>1783.2</ele>
        <time>2023-02-05T09:40:01Z</time>
      </trkpt>
      <trkpt lat="44.12744" lon="7.25721">
        <ele>1783.2</ele>
        <time>2023-02-05T09:40:02Z</time>
      </trkpt>
      <trkpt lat="44.12745" lon="7.25721">
        <ele>1783.2</ele>
        <time>2023-02-05T09:40:03Z</time>
      </trkpt>
      <trkpt lat="44.12745" lon="7.25721">
        <ele>1783.2</ele>
        <time>2023-02-05T09:40:04Z</time>
      </trkpt>
      <trkpt lat="44.12745" lon="7.2572">
        <ele>1783.3</ele>
        <time>2023-02-05T09:40:05Z</time>
      </trkpt>
      <trkpt lat="44.12745" lon="7.25721">
        <ele>1783.3</ele>
        <time>2023-02-05T09:40:06Z</time>
      </trkpt>
      <trkpt lat="44.12745" lon="7.25721">
        <ele>1783.3</ele>
        <time>2023-02-05T09:40:07Z</time>
      </trkpt>
      <trkpt lat="44.12745" lon="7.25721">
        <ele>1783.4</ele>
        <time>2023-02-05T09:40:08Z</time>
      </trkpt>
      <trkpt lat="44.12745" lon="7.25721">
        <ele>1783.3</ele>
        <time>2023-02-05T09:40:09Z</time>
      </trkpt>
      <trkpt lat="44.12745" lon="7.25721">
        <ele>1783.3</ele>
        <time>2023-02-05T09:40:10Z</time>
      </trkpt>
      <trkpt lat="44.12745" lon="7.2572">
        <ele>1783.2</ele>
        <time>2023-02-05T09:40:11Z</time>
      </trkpt>
      <trkpt lat="44.12746" lon="7.25721">
        <ele>1783.1</ele>
        <time>2023-02-05T09:40:12Z</time>
      </trkpt>
      <trkpt lat="44.12746" lon="7.25721">
        <ele>1783.1</ele>
        <time>2023-02-05T09:40:13Z</time>
      </trkpt>
      <trkpt lat="44.12747" lon="7.25722">
        <ele>1783</ele>
        <time>2023-02-05T09:40:14Z</time>
      </trkpt>
      <trkpt lat="44.12748" lon="7.25722">
        <ele>1783</ele>
        <time>2023-02-05T09:40:15Z</time>
      </trkpt>
      <trkpt lat="44.12748" lon="7.25722">
        <ele>1783.1</ele>
        <time>2023-02-05T09:40:16Z</time>
      </trkpt>
      <trkpt lat="44.12748" lon="7.25722">
        <ele>1783.1</ele>
        <time>2023-02-05T09:40:17Z</time>
      </trkpt>
      <trkpt lat="44.12747" lon="7.25721">
        <ele>1783.1</ele>
        <time>2023-02-05T09:40:18Z</time>
      </trkpt>
      <trkpt lat="44.12746" lon="7.2572">
        <ele>1783.1</ele>
        <time>2023-02-05T09:40:19Z</time>
      </trkpt>
      <trkpt lat="44.12744" lon="7.25719">
        <ele>1783.1</ele>
        <time>2023-02-05T09:40:20Z</time>
      </trkpt>
      <trkpt lat="44.12742" lon="7.25718">
        <ele>1783</ele>
        <time>2023-02-05T09:40:21Z</time>
      </trkpt>
      <trkpt lat="44.1274" lon="7.25716">
        <ele>1783</ele>
        <time>2023-02-05T09:40:22Z</time>
      </trkpt>
      <trkpt lat="44.12739" lon="7.25715">
        <ele>1783</ele>
        <time>2023-02-05T09:40:23Z</time>
      </trkpt>
      <trkpt lat="44.12738" lon="7.25715">
        <ele>1783.1</ele>
        <time>2023-02-05T09:40:24Z</time>
      </trkpt>
      <trkpt lat="44.12737" lon="7.25714">
        <ele>1783.1</ele>
        <time>2023-02-05T09:40:25Z</time>
      </trkpt>
      <trkpt lat="44.12736" lon="7.25713">
        <ele>1783.1</ele>
        <time>2023-02-05T09:40:26Z</time>
      </trkpt>
      <trkpt lat="44.12734" lon="7.25713">
        <ele>1783</ele>
        <time>2023-02-05T09:40:27Z</time>
      </trkpt>
      <trkpt lat="44.12734" lon="7.25712">
        <ele>1783</ele>
        <time>2023-02-05T09:40:28Z</time>
      </trkpt>
      <trkpt lat="44.12733" lon="7.25712">
        <ele>1782.9</ele>
        <time>2023-02-05T09:40:29Z</time>
      </trkpt>
      <trkpt lat="44.12732" lon="7.25711">
        <ele>1782.9</ele>
        <time>2023-02-05T09:40:30Z</time>
      </trkpt>
      <trkpt lat="44.1273" lon="7.2571">
        <ele>1782.9</ele>
        <time>2023-02-05T09:40:31Z</time>
      </trkpt>
      <trkpt lat="44.12729" lon="7.25709">
        <ele>1782.8</ele>
        <time>2023-02-05T09:40:32Z</time>
      </trkpt>
      <trkpt lat="44.12727" lon="7.25708">
        <ele>1782.8</ele>
        <time>2023-02-05T09:40:33Z</time>
      </trkpt>
      <trkpt lat="44.12728" lon="7.25708">
        <ele>1782.7</ele>
        <time>2023-02-05T09:40:34Z</time>
      </trkpt>
      <trkpt lat="44.12728" lon="7.25709">
        <ele>1782.7</ele>
        <time>2023-02-05T09:40:35Z</time>
      </trkpt>
      <trkpt lat="44.12729" lon="7.25709">
        <ele>1782.8</ele>
        <time>2023-02-05T09:40:36Z</time>
      </trkpt>
      <trkpt lat="44.12728" lon="7.25709">
        <ele>1782.8</ele>
        <time>2023-02-05T09:40:37Z</time>
      </trkpt>
      <trkpt lat="44.12727" lon="7.25708">
        <ele>1782.8</ele>
        <time>2023-02-05T09:40:38Z</time>
      </trkpt>
      <trkpt lat="44.12725" lon="7.25706">
        <ele>1782.9</ele>
        <time>2023-02-05T09:40:39Z</time>
      </trkpt>
      <trkpt lat="44.12722" lon="7.25704">
        <ele>1782.9</ele>
        <time>2023-02-05T09:40:40Z</time>
      </trkpt>
      <trkpt lat="44.1272" lon="7.25703">
        <ele>1782.9</ele>
        <time>2023-02-05T09:40:41Z</time>
      </trkpt>
      <trkpt lat="44.12718" lon="7.25702">
        <ele>1783</ele>
        <time>2023-02-05T09:40:42Z</time>
      </trkpt>
      <trkpt lat="44.12717" lon="7.25701">
        <ele>1783</ele>
        <time>2023-02-05T09:40:43Z</time>
      </trkpt>
      <trkpt lat="44.12717" lon="7.25701">
        <ele>1783</ele>
        <time>2023-02-05T09:40:44Z</time>
      </trkpt>
      <trkpt lat="44.12716" lon="7.25701">
        <ele>1782.9</ele>
        <time>2023-02-05T09:40:45Z</time>
      </trkpt>
      <trkpt lat="44.12716" lon="7.25701">
        <ele>1782.9</ele>
        <time>2023-02-05T09:40:46Z</time>
      </trkpt>
      <trkpt lat="44.12715" lon="7.25701">
        <ele>1782.9</ele>
        <time>2023-02-05T09:40:47Z</time>
      </trkpt>
      <trkpt lat="44.12715" lon="7.25701">
        <ele>1782.9</ele>
        <time>2023-02-05T09:40:48Z</time>
      </trkpt>
      <trkpt lat="44.12715" lon="7.25701">
        <ele>1782.8</ele>
        <time>2023-02-05T09:40:49Z</time>
      </trkpt>
      <trkpt lat="44.12715" lon="7.25701">
        <ele>1782.8</ele>
        <time>2023-02-05T09:40:50Z</time>
      </trkpt>
      <trkpt lat="44.12715" lon="7.25702">
        <ele>1783</ele>
        <time>2023-02-05T09:40:51Z</time>
      </trkpt>
      <trkpt lat="44.12716" lon="7.25702">
        <ele>1783.1</ele>
        <time>2023-02-05T09:40:52Z</time>
      </trkpt>
      <trkpt lat="44.12722" lon="7.25706">
        <ele>1783.1</ele>
        <time>2023-02-05T09:40:53Z</time>
      </trkpt>
      <trkpt lat="44.12726" lon="7.25709">
        <ele>1783.1</ele>
        <time>2023-02-05T09:40:54Z</time>
      </trkpt>
      <trkpt lat="44.12729" lon="7.25711">
        <ele>1783.1</ele>
        <time>2023-02-05T09:40:55Z</time>
      </trkpt>
      <trkpt lat="44.12732" lon="7.25713">
        <ele>1783</ele>
        <time>2023-02-05T09:40:56Z</time>
      </trkpt>
      <trkpt lat="44.12731" lon="7.25712">
        <ele>1783</ele>
        <time>2023-02-05T09:40:57Z</time>
      </trkpt>
      <trkpt lat="44.12731" lon="7.25712">
        <ele>1783</ele>
        <time>2023-02-05T09:40:58Z</time>
      </trkpt>
      <trkpt lat="44.12733" lon="7.25713">
        <ele>1783</ele>
        <time>2023-02-05T09:40:59Z</time>
      </trkpt>
      <trkpt lat="44.12734" lon="7.25714">
        <ele>1783</ele>
        <time>2023-02-05T09:41:00Z</time>
      </trkpt>
      <trkpt lat="44.12736" lon="7.25715">
        <ele>1783.1</ele>
        <time>2023-02-05T09:41:01Z</time>
      </trkpt>
      <trkpt lat="44.12738" lon="7.25717">
        <ele>1783.2</ele>
        <time>2023-02-05T09:41:02Z</time>
      </trkpt>
      <trkpt lat="44.1274" lon="7.25718">
        <ele>1783.2</ele>
        <time>2023-02-05T09:41:03Z</time>
      </trkpt>
      <trkpt lat="44.12742" lon="7.25719">
        <ele>1783.2</ele>
        <time>2023-02-05T09:41:04Z</time>
      </trkpt>
      <trkpt lat="44.12744" lon="7.2572">
        <ele>1783.2</ele>
        <time>2023-02-05T09:41:05Z</time>
      </trkpt>
      <trkpt lat="44.12746" lon="7.25722">
        <ele>1783.2</ele>
        <time>2023-02-05T09:41:06Z</time>
      </trkpt>
      <trkpt lat="44.12747" lon="7.25722">
        <ele>1783.2</ele>
        <time>2023-02-05T09:41:07Z</time>
      </trkpt>
      <trkpt lat="44.12748" lon="7.25723">
        <ele>1783.2</ele>
        <time>2023-02-05T09:41:08Z</time>
      </trkpt>
      <trkpt lat="44.12749" lon="7.25723">
        <ele>1783.1</ele>
        <time>2023-02-05T09:41:09Z</time>
      </trkpt>
      <trkpt lat="44.1275" lon="7.25724">
        <ele>1783.1</ele>
        <time>2023-02-05T09:41:10Z</time>
      </trkpt>
      <trkpt lat="44.12751" lon="7.25724">
        <ele>1783.2</ele>
        <time>2023-02-05T09:41:11Z</time>
      </trkpt>
      <trkpt lat="44.12752" lon="7.25724">
        <ele>1783.1</ele>
        <time>2023-02-05T09:41:12Z</time>
      </trkpt>
      <trkpt lat="44.12752" lon="7.25724">
        <ele>1783.2</ele>
        <time>2023-02-05T09:41:13Z</time>
      </trkpt>
      <trkpt lat="44.12752" lon="7.25724">
        <ele>1783.2</ele>
        <time>2023-02-05T09:41:14Z</time>
      </trkpt>
      <trkpt lat="44.12752" lon="7.25724">
        <ele>1783.3</ele>
        <time>2023-02-05T09:41:15Z</time>
      </trkpt>
      <trkpt lat="44.12753" lon="7.25725">
        <ele>1783.3</ele>
        <time>2023-02-05T09:41:16Z</time>
      </trkpt>
      <trkpt lat="44.12754" lon="7.25725">
        <ele>1783.4</ele>
        <time>2023-02-05T09:41:17Z</time>
      </trkpt>
      <trkpt lat="44.12755" lon="7.25725">
        <ele>1783.5</ele>
        <time>2023-02-05T09:41:18Z</time>
      </trkpt>
      <trkpt lat="44.12756" lon="7.25726">
        <ele>1783.5</ele>
        <time>2023-02-05T09:41:19Z</time>
      </trkpt>
      <trkpt lat="44.12757" lon="7.25727">
        <ele>1783.6</ele>
        <time>2023-02-05T09:41:20Z</time>
      </trkpt>
      <trkpt lat="44.12757" lon="7.25727">
        <ele>1783.6</ele>
        <time>2023-02-05T09:41:21Z</time>
      </trkpt>
      <trkpt lat="44.12757" lon="7.25727">
        <ele>1783.6</ele>
        <time>2023-02-05T09:41:22Z</time>
      </trkpt>
      <trkpt lat="44.12757" lon="7.25727">
        <ele>1783.5</ele>
        <time>2023-02-05T09:41:23Z</time>
      </trkpt>
      <trkpt lat="44.12757" lon="7.25727">
        <ele>1783.5</ele>
        <time>2023-02-05T09:41:24Z</time>
      </trkpt>
      <trkpt lat="44.12756" lon="7.25727">
        <ele>1783.5</ele>
        <time>2023-02-05T09:41:25Z</time>
      </trkpt>
      <trkpt lat="44.12756" lon="7.25727">
        <ele>1783.5</ele>
        <time>2023-02-05T09:41:26Z</time>
      </trkpt>
      <trkpt lat="44.12756" lon="7.25727">
        <ele>1783.5</ele>
        <time>2023-02-05T09:41:27Z</time>
      </trkpt>
      <trkpt lat="44.12756" lon="7.25727">
        <ele>1783.6</ele>
        <time>2023-02-05T09:41:28Z</time>
      </trkpt>
      <trkpt lat="44.12755" lon="7.25727">
        <ele>1783.6</ele>
        <time>2023-02-05T09:41:29Z</time>
      </trkpt>
      <trkpt lat="44.12756" lon="7.25727">
        <ele>1783.6</ele>
        <time>2023-02-05T09:41:30Z</time>
      </trkpt>
      <trkpt lat="44.12755" lon="7.25726">
        <ele>1783.7</ele>
        <time>2023-02-05T09:41:31Z</time>
      </trkpt>
      <trkpt lat="44.12754" lon="7.25726">
        <ele>1783.7</ele>
        <time>2023-02-05T09:41:32Z</time>
      </trkpt>
      <trkpt lat="44.12753" lon="7.25726">
        <ele>1783.7</ele>
        <time>2023-02-05T09:41:33Z</time>
      </trkpt>
      <trkpt lat="44.12752" lon="7.25725">
        <ele>1783.7</ele>
        <time>2023-02-05T09:41:34Z</time>
      </trkpt>
      <trkpt lat="44.12752" lon="7.25725">
        <ele>1783.7</ele>
        <time>2023-02-05T09:41:35Z</time>
      </trkpt>
      <trkpt lat="44.12751" lon="7.25724">
        <ele>1783.7</ele>
        <time>2023-02-05T09:41:36Z</time>
      </trkpt>
      <trkpt lat="44.12749" lon="7.25723">
        <ele>1783.6</ele>
        <time>2023-02-05T09:41:37Z</time>
      </trkpt>
      <trkpt lat="44.12748" lon="7.25722">
        <ele>1783.7</ele>
        <time>2023-02-05T09:41:38Z</time>
      </trkpt>
      <trkpt lat="44.12746" lon="7.25721">
        <ele>1783.7</ele>
        <time>2023-02-05T09:41:39Z</time>
      </trkpt>
      <trkpt lat="44.12746" lon="7.25721">
        <ele>1783.6</ele>
        <time>2023-02-05T09:41:40Z</time>
      </trkpt>
      <trkpt lat="44.12747" lon="7.25721">
        <ele>1783.6</ele>
        <time>2023-02-05T09:41:41Z</time>
      </trkpt>
      <trkpt lat="44.12747" lon="7.25721">
        <ele>1783.5</ele>
        <time>2023-02-05T09:41:42Z</time>
      </trkpt>
      <trkpt lat="44.12747" lon="7.25722">
        <ele>1783.4</ele>
        <time>2023-02-05T09:41:43Z</time>
      </trkpt>
      <trkpt lat="44.12747" lon="7.25722">
        <ele>1783.4</ele>
        <time>2023-02-05T09:41:44Z</time>
      </trkpt>
      <trkpt lat="44.12747" lon="7.25722">
        <ele>1783.4</ele>
        <time>2023-02-05T09:41:45Z</time>
      </trkpt>
      <trkpt lat="44.12747" lon="7.25723">
        <ele>1783.4</ele>
        <time>2023-02-05T09:41:46Z</time>
      </trkpt>
      <trkpt lat="44.12747" lon="7.25723">
        <ele>1783.4</ele>
        <time>2023-02-05T09:41:47Z</time>
      </trkpt>
      <trkpt lat="44.12748" lon="7.25723">
        <ele>1783.4</ele>
        <time>2023-02-05T09:41:48Z</time>
      </trkpt>
      <trkpt lat="44.12749" lon="7.25724">
        <ele>1783.4</ele>
        <time>2023-02-05T09:41:49Z</time>
      </trkpt>
      <trkpt lat="44.1275" lon="7.25725">
        <ele>1783.4</ele>
        <time>2023-02-05T09:41:50Z</time>
      </trkpt>
      <trkpt lat="44.12751" lon="7.25726">
        <ele>1783.4</ele>
        <time>2023-02-05T09:41:51Z</time>
      </trkpt>
      <trkpt lat="44.12753" lon="7.25726">
        <ele>1783.5</ele>
        <time>2023-02-05T09:41:52Z</time>
      </trkpt>
      <trkpt lat="44.12754" lon="7.25727">
        <ele>1783.6</ele>
        <time>2023-02-05T09:41:53Z</time>
      </trkpt>
      <trkpt lat="44.12755" lon="7.25728">
        <ele>1783.7</ele>
        <time>2023-02-05T09:41:54Z</time>
      </trkpt>
      <trkpt lat="44.12755" lon="7.25728">
        <ele>1783.6</ele>
        <time>2023-02-05T09:41:55Z</time>
      </trkpt>
      <trkpt lat="44.12756" lon="7.25729">
        <ele>1783.6</ele>
        <time>2023-02-05T09:41:56Z</time>
      </trkpt>
      <trkpt lat="44.12757" lon="7.25729">
        <ele>1783.6</ele>
        <time>2023-02-05T09:41:57Z</time>
      </trkpt>
      <trkpt lat="44.12757" lon="7.25729">
        <ele>1783.6</ele>
        <time>2023-02-05T09:41:58Z</time>
      </trkpt>
      <trkpt lat="44.12758" lon="7.2573">
        <ele>1783.6</ele>
        <time>2023-02-05T09:41:59Z</time>
      </trkpt>
      <trkpt lat="44.12758" lon="7.2573">
        <ele>1783.5</ele>
        <time>2023-02-05T09:42:00Z</time>
      </trkpt>
      <trkpt lat="44.12758" lon="7.2573">
        <ele>1783.5</ele>
        <time>2023-02-05T09:42:01Z</time>
      </trkpt>
      <trkpt lat="44.12759" lon="7.2573">
        <ele>1783.4</ele>
        <time>2023-02-05T09:42:02Z</time>
      </trkpt>
      <trkpt lat="44.12758" lon="7.2573">
        <ele>1783.4</ele>
        <time>2023-02-05T09:42:03Z</time>
      </trkpt>
      <trkpt lat="44.12757" lon="7.25729">
        <ele>1783.3</ele>
        <time>2023-02-05T09:42:04Z</time>
      </trkpt>
      <trkpt lat="44.12755" lon="7.25728">
        <ele>1783.3</ele>
        <time>2023-02-05T09:42:05Z</time>
      </trkpt>
      <trkpt lat="44.12754" lon="7.25727">
        <ele>1783.3</ele>
        <time>2023-02-05T09:42:06Z</time>
      </trkpt>
      <trkpt lat="44.12753" lon="7.25726">
        <ele>1783.3</ele>
        <time>2023-02-05T09:42:07Z</time>
      </trkpt>
      <trkpt lat="44.12752" lon="7.25725">
        <ele>1783.4</ele>
        <time>2023-02-05T09:42:08Z</time>
      </trkpt>
      <trkpt lat="44.1275" lon="7.25725">
        <ele>1783.3</ele>
        <time>2023-02-05T09:42:09Z</time>
      </trkpt>
      <trkpt lat="44.12749" lon="7.25723">
        <ele>1783.3</ele>
        <time>2023-02-05T09:42:10Z</time>
      </trkpt>
      <trkpt lat="44.12748" lon="7.25723">
        <ele>1783.3</ele>
        <time>2023-02-05T09:42:11Z</time>
      </trkpt>
      <trkpt lat="44.12747" lon="7.25723">
        <ele>1783.2</ele>
        <time>2023-02-05T09:42:12Z</time>
      </trkpt>
      <trkpt lat="44.12747" lon="7.25723">
        <ele>1783.2</ele>
        <time>2023-02-05T09:42:13Z</time>
      </trkpt>
      <trkpt lat="44.12747" lon="7.25723">
        <ele>1783.2</ele>
        <time>2023-02-05T09:42:14Z</time>
      </trkpt>
      <trkpt lat="44.12747" lon="7.25723">
        <ele>1783.1</ele>
        <time>2023-02-05T09:42:15Z</time>
      </trkpt>
      <trkpt lat="44.12747" lon="7.25723">
        <ele>1783.1</ele>
        <time>2023-02-05T09:42:16Z</time>
      </trkpt>
      <trkpt lat="44.12748" lon="7.25724">
        <ele>1783.1</ele>
        <time>2023-02-05T09:42:17Z</time>
      </trkpt>
      <trkpt lat="44.12748" lon="7.25724">
        <ele>1783</ele>
        <time>2023-02-05T09:42:18Z</time>
      </trkpt>
      <trkpt lat="44.12748" lon="7.25724">
        <ele>1783</ele>
        <time>2023-02-05T09:42:19Z</time>
      </trkpt>
      <trkpt lat="44.12748" lon="7.25725">
        <ele>1783</ele>
        <time>2023-02-05T09:42:20Z</time>
      </trkpt>
      <trkpt lat="44.12748" lon="7.25725">
        <ele>1783</ele>
        <time>2023-02-05T09:42:21Z</time>
      </trkpt>
      <trkpt lat="44.12748" lon="7.25725">
        <ele>1783.1</ele>
        <time>2023-02-05T09:42:22Z</time>
      </trkpt>
      <trkpt lat="44.12748" lon="7.25724">
        <ele>1783.2</ele>
        <time>2023-02-05T09:42:23Z</time>
      </trkpt>
      <trkpt lat="44.12747" lon="7.25724">
        <ele>1783.3</ele>
        <time>2023-02-05T09:42:24Z</time>
      </trkpt>
      <trkpt lat="44.12747" lon="7.25725">
        <ele>1783.3</ele>
        <time>2023-02-05T09:42:25Z</time>
      </trkpt>
      <trkpt lat="44.12747" lon="7.25725">
        <ele>1783.2</ele>
        <time>2023-02-05T09:42:26Z</time>
      </trkpt>
      <trkpt lat="44.12746" lon="7.25725">
        <ele>1783.2</ele>
        <time>2023-02-05T09:42:27Z</time>
      </trkpt>
      <trkpt lat="44.12745" lon="7.25724">
        <ele>1783.2</ele>
        <time>2023-02-05T09:42:28Z</time>
      </trkpt>
      <trkpt lat="44.12744" lon="7.25724">
        <ele>1783.1</ele>
        <time>2023-02-05T09:42:29Z</time>
      </trkpt>
      <trkpt lat="44.12744" lon="7.25724">
        <ele>1783.1</ele>
        <time>2023-02-05T09:42:30Z</time>
      </trkpt>
      <trkpt lat="44.12744" lon="7.25724">
        <ele>1783</ele>
        <time>2023-02-05T09:42:31Z</time>
      </trkpt>
      <trkpt lat="44.12744" lon="7.25724">
        <ele>1783</ele>
        <time>2023-02-05T09:42:32Z</time>
      </trkpt>
      <trkpt lat="44.12744" lon="7.25725">
        <ele>1782.9</ele>
        <time>2023-02-05T09:42:33Z</time>
      </trkpt>
      <trkpt lat="44.12744" lon="7.25725">
        <ele>1782.9</ele>
        <time>2023-02-05T09:42:34Z</time>
      </trkpt>
      <trkpt lat="44.12744" lon="7.25725">
        <ele>1782.9</ele>
        <time>2023-02-05T09:42:35Z</time>
      </trkpt>
      <trkpt lat="44.12744" lon="7.25725">
        <ele>1783</ele>
        <time>2023-02-05T09:42:36Z</time>
      </trkpt>
      <trkpt lat="44.12744" lon="7.25725">
        <ele>1783</ele>
        <time>2023-02-05T09:42:37Z</time>
      </trkpt>
      <trkpt lat="44.12744" lon="7.25725">
        <ele>1783</ele>
        <time>2023-02-05T09:42:38Z</time>
      </trkpt>
      <trkpt lat="44.12744" lon="7.25725">
        <ele>1782.9</ele>
        <time>2023-02-05T09:42:39Z</time>
      </trkpt>
      <trkpt lat="44.12744" lon="7.25725">
        <ele>1782.9</ele>
        <time>2023-02-05T09:42:40Z</time>
      </trkpt>
      <trkpt lat="44.12743" lon="7.25723">
        <ele>1782.9</ele>
        <time>2023-02-05T09:42:41Z</time>
      </trkpt>
      <trkpt lat="44.12743" lon="7.25722">
        <ele>1783</ele>
        <time>2023-02-05T09:42:42Z</time>
      </trkpt>
      <trkpt lat="44.12743" lon="7.25722">
        <ele>1783</ele>
        <time>2023-02-05T09:42:43Z</time>
      </trkpt>
      <trkpt lat="44.12742" lon="7.25721">
        <ele>1782.9</ele>
        <time>2023-02-05T09:42:44Z</time>
      </trkpt>
      <trkpt lat="44.12742" lon="7.2572">
        <ele>1782.9</ele>
        <time>2023-02-05T09:42:45Z</time>
      </trkpt>
      <trkpt lat="44.12742" lon="7.25719">
        <ele>1782.9</ele>
        <time>2023-02-05T09:42:46Z</time>
      </trkpt>
      <trkpt lat="44.12744" lon="7.25719">
        <ele>1783</ele>
        <time>2023-02-05T09:42:47Z</time>
      </trkpt>
      <trkpt lat="44.12744" lon="7.25718">
        <ele>1783.1</ele>
        <time>2023-02-05T09:42:48Z</time>
      </trkpt>
      <trkpt lat="44.12744" lon="7.25717">
        <ele>1783.2</ele>
        <time>2023-02-05T09:42:49Z</time>
      </trkpt>
      <trkpt lat="44.12744" lon="7.25717">
        <ele>1783.3</ele>
        <time>2023-02-05T09:42:50Z</time>
      </trkpt>
      <trkpt lat="44.12747" lon="7.25717">
        <ele>1783.4</ele>
        <time>2023-02-05T09:42:51Z</time>
      </trkpt>
      <trkpt lat="44.12747" lon="7.25717">
        <ele>1783.4</ele>
        <time>2023-02-05T09:42:52Z</time>
      </trkpt>
      <trkpt lat="44.12749" lon="7.25718">
        <ele>1783.3</ele>
        <time>2023-02-05T09:42:53Z</time>
      </trkpt>
      <trkpt lat="44.1275" lon="7.25718">
        <ele>1783.3</ele>
        <time>2023-02-05T09:42:54Z</time>
      </trkpt>
      <trkpt lat="44.12751" lon="7.25718">
        <ele>1783.3</ele>
        <time>2023-02-05T09:42:55Z</time>
      </trkpt>
      <trkpt lat="44.12752" lon="7.25718">
        <ele>1783.4</ele>
        <time>2023-02-05T09:42:56Z</time>
      </trkpt>
      <trkpt lat="44.12752" lon="7.25717">
        <ele>1783.5</ele>
        <time>2023-02-05T09:42:57Z</time>
      </trkpt>
      <trkpt lat="44.12754" lon="7.25718">
        <ele>1783.5</ele>
        <time>2023-02-05T09:42:58Z</time>
      </trkpt>
      <trkpt lat="44.12756" lon="7.25718">
        <ele>1783.5</ele>
        <time>2023-02-05T09:42:59Z</time>
      </trkpt>
      <trkpt lat="44.12757" lon="7.25718">
        <ele>1783.6</ele>
        <time>2023-02-05T09:43:00Z</time>
      </trkpt>
      <trkpt lat="44.12758" lon="7.25718">
        <ele>1783.6</ele>
        <time>2023-02-05T09:43:01Z</time>
      </trkpt>
      <trkpt lat="44.12758" lon="7.25718">
        <ele>1783.6</ele>
        <time>2023-02-05T09:43:02Z</time>
      </trkpt>
      <trkpt lat="44.12759" lon="7.25717">
        <ele>1783.8</ele>
        <time>2023-02-05T09:43:03Z</time>
      </trkpt>
      <trkpt lat="44.1276" lon="7.25718">
        <ele>1783.9</ele>
        <time>2023-02-05T09:43:04Z</time>
      </trkpt>
      <trkpt lat="44.12763" lon="7.25719">
        <ele>1783.9</ele>
        <time>2023-02-05T09:43:05Z</time>
      </trkpt>
      <trkpt lat="44.12764" lon="7.25719">
        <ele>1783.9</ele>
        <time>2023-02-05T09:43:06Z</time>
      </trkpt>
      <trkpt lat="44.12765" lon="7.25719">
        <ele>1784</ele>
        <time>2023-02-05T09:43:07Z</time>
      </trkpt>
      <trkpt lat="44.12767" lon="7.25719">
        <ele>1784</ele>
        <time>2023-02-05T09:43:08Z</time>
      </trkpt>
      <trkpt lat="44.12768" lon="7.25719">
        <ele>1784</ele>
        <time>2023-02-05T09:43:09Z</time>
      </trkpt>
      <trkpt lat="44.12769" lon="7.25719">
        <ele>1784</ele>
        <time>2023-02-05T09:43:10Z</time>
      </trkpt>
      <trkpt lat="44.12768" lon="7.25717">
        <ele>1784.1</ele>
        <time>2023-02-05T09:43:11Z</time>
      </trkpt>
      <trkpt lat="44.12769" lon="7.25717">
        <ele>1784.2</ele>
        <time>2023-02-05T09:43:12Z</time>
      </trkpt>
      <trkpt lat="44.12769" lon="7.25717">
        <ele>1784.3</ele>
        <time>2023-02-05T09:43:13Z</time>
      </trkpt>
      <trkpt lat="44.12771" lon="7.25717">
        <ele>1784.4</ele>
        <time>2023-02-05T09:43:14Z</time>
      </trkpt>
      <trkpt lat="44.12771" lon="7.25717">
        <ele>1784.4</ele>
        <time>2023-02-05T09:43:15Z</time>
      </trkpt>
      <trkpt lat="44.12772" lon="7.25716">
        <ele>1784.5</ele>
        <time>2023-02-05T09:43:16Z</time>
      </trkpt>
      <trkpt lat="44.12773" lon="7.25715">
        <ele>1784.6</ele>
        <time>2023-02-05T09:43:17Z</time>
      </trkpt>
      <trkpt lat="44.12772" lon="7.25715">
        <ele>1784.5</ele>
        <time>2023-02-05T09:43:18Z</time>
      </trkpt>
      <trkpt lat="44.12773" lon="7.25715">
        <ele>1784.5</ele>
        <time>2023-02-05T09:43:19Z</time>
      </trkpt>
      <trkpt lat="44.12774" lon="7.25714">
        <ele>1784.5</ele>
        <time>2023-02-05T09:43:20Z</time>
      </trkpt>
      <trkpt lat="44.12776" lon="7.25714">
        <ele>1784.6</ele>
        <time>2023-02-05T09:43:21Z</time>
      </trkpt>
      <trkpt lat="44.12778" lon="7.25715">
        <ele>1784.7</ele>
        <time>2023-02-05T09:43:22Z</time>
      </trkpt>
      <trkpt lat="44.12779" lon="7.25714">
        <ele>1784.8</ele>
        <time>2023-02-05T09:43:23Z</time>
      </trkpt>
      <trkpt lat="44.12779" lon="7.25713">
        <ele>1784.8</ele>
        <time>2023-02-05T09:43:24Z</time>
      </trkpt>
      <trkpt lat="44.1278" lon="7.25713">
        <ele>1785</ele>
        <time>2023-02-05T09:43:25Z</time>
      </trkpt>
      <trkpt lat="44.12781" lon="7.25713">
        <ele>1785.2</ele>
        <time>2023-02-05T09:43:26Z</time>
      </trkpt>
      <trkpt lat="44.12782" lon="7.25713">
        <ele>1785.2</ele>
        <time>2023-02-05T09:43:27Z</time>
      </trkpt>
      <trkpt lat="44.1278" lon="7.2571">
        <ele>1785.2</ele>
        <time>2023-02-05T09:43:28Z</time>
      </trkpt>
      <trkpt lat="44.12779" lon="7.25709">
        <ele>1785.2</ele>
        <time>2023-02-05T09:43:29Z</time>
      </trkpt>
      <trkpt lat="44.12779" lon="7.25707">
        <ele>1785.3</ele>
        <time>2023-02-05T09:43:30Z</time>
      </trkpt>
      <trkpt lat="44.12779" lon="7.25707">
        <ele>1785.4</ele>
        <time>2023-02-05T09:43:31Z</time>
      </trkpt>
      <trkpt lat="44.12781" lon="7.25707">
        <ele>1785.6</ele>
        <time>2023-02-05T09:43:32Z</time>
      </trkpt>
      <trkpt lat="44.12782" lon="7.25706">
        <ele>1785.7</ele>
        <time>2023-02-05T09:43:33Z</time>
      </trkpt>
      <trkpt lat="44.12783" lon="7.25706">
        <ele>1785.8</ele>
        <time>2023-02-05T09:43:34Z</time>
      </trkpt>
      <trkpt lat="44.12783" lon="7.25705">
        <ele>1785.8</ele>
        <time>2023-02-05T09:43:35Z</time>
      </trkpt>
      <trkpt lat="44.12783" lon="7.25704">
        <ele>1785.9</ele>
        <time>2023-02-05T09:43:36Z</time>
      </trkpt>
      <trkpt lat="44.12783" lon="7.25703">
        <ele>1786</ele>
        <time>2023-02-05T09:43:37Z</time>
      </trkpt>
      <trkpt lat="44.12784" lon="7.25701">
        <ele>1786</ele>
        <time>2023-02-05T09:43:38Z</time>
      </trkpt>
      <trkpt lat="44.12786" lon="7.25701">
        <ele>1786</ele>
        <time>2023-02-05T09:43:39Z</time>
      </trkpt>
      <trkpt lat="44.12787" lon="7.25701">
        <ele>1786.1</ele>
        <time>2023-02-05T09:43:40Z</time>
      </trkpt>
      <trkpt lat="44.12787" lon="7.257">
        <ele>1786.1</ele>
        <time>2023-02-05T09:43:41Z</time>
      </trkpt>
      <trkpt lat="44.12788" lon="7.25699">
        <ele>1786.3</ele>
        <time>2023-02-05T09:43:42Z</time>
      </trkpt>
      <trkpt lat="44.12788" lon="7.25698">
        <ele>1786.3</ele>
        <time>2023-02-05T09:43:43Z</time>
      </trkpt>
      <trkpt lat="44.12788" lon="7.25697">
        <ele>1786.4</ele>
        <time>2023-02-05T09:43:44Z</time>
      </trkpt>
      <trkpt lat="44.12788" lon="7.25696">
        <ele>1786.5</ele>
        <time>2023-02-05T09:43:45Z</time>
      </trkpt>
      <trkpt lat="44.12789" lon="7.25695">
        <ele>1786.5</ele>
        <time>2023-02-05T09:43:46Z</time>
      </trkpt>
      <trkpt lat="44.1279" lon="7.25694">
        <ele>1786.5</ele>
        <time>2023-02-05T09:43:47Z</time>
      </trkpt>
      <trkpt lat="44.12791" lon="7.25693">
        <ele>1786.6</ele>
        <time>2023-02-05T09:43:48Z</time>
      </trkpt>
      <trkpt lat="44.12792" lon="7.25692">
        <ele>1786.5</ele>
        <time>2023-02-05T09:43:49Z</time>
      </trkpt>
      <trkpt lat="44.12791" lon="7.2569">
        <ele>1786.5</ele>
        <time>2023-02-05T09:43:50Z</time>
      </trkpt>
      <trkpt lat="44.12791" lon="7.25689">
        <ele>1786.5</ele>
        <time>2023-02-05T09:43:51Z</time>
      </trkpt>
      <trkpt lat="44.12792" lon="7.25688">
        <ele>1786.5</ele>
        <time>2023-02-05T09:43:52Z</time>
      </trkpt>
      <trkpt lat="44.12792" lon="7.25687">
        <ele>1786.5</ele>
        <time>2023-02-05T09:43:53Z</time>
      </trkpt>
      <trkpt lat="44.12793" lon="7.25686">
        <ele>1786.5</ele>
        <time>2023-02-05T09:43:54Z</time>
      </trkpt>
      <trkpt lat="44.12794" lon="7.25686">
        <ele>1786.6</ele>
        <time>2023-02-05T09:43:55Z</time>
      </trkpt>
      <trkpt lat="44.12794" lon="7.25685">
        <ele>1786.6</ele>
        <time>2023-02-05T09:43:56Z</time>
      </trkpt>
      <trkpt lat="44.12795" lon="7.25685">
        <ele>1786.7</ele>
        <time>2023-02-05T09:43:57Z</time>
      </trkpt>
      <trkpt lat="44.12794" lon="7.25684">
        <ele>1786.7</ele>
        <time>2023-02-05T09:43:58Z</time>
      </trkpt>
      <trkpt lat="44.12795" lon="7.25684">
        <ele>1786.7</ele>
        <time>2023-02-05T09:43:59Z</time>
      </trkpt>
      <trkpt lat="44.12795" lon="7.25685">
        <ele>1786.8</ele>
        <time>2023-02-05T09:44:00Z</time>
      </trkpt>
      <trkpt lat="44.12795" lon="7.25684">
        <ele>1786.8</ele>
        <time>2023-02-05T09:44:01Z</time>
      </trkpt>
      <trkpt lat="44.12796" lon="7.25684">
        <ele>1786.9</ele>
        <time>2023-02-05T09:44:02Z</time>
      </trkpt>
      <trkpt lat="44.12796" lon="7.25684">
        <ele>1787</ele>
        <time>2023-02-05T09:44:03Z</time>
      </trkpt>
      <trkpt lat="44.12796" lon="7.25683">
        <ele>1787</ele>
        <time>2023-02-05T09:44:04Z</time>
      </trkpt>
      <trkpt lat="44.12796" lon="7.25683">
        <ele>1787.1</ele>
        <time>2023-02-05T09:44:05Z</time>
      </trkpt>
      <trkpt lat="44.12796" lon="7.25682">
        <ele>1787.3</ele>
        <time>2023-02-05T09:44:06Z</time>
      </trkpt>
      <trkpt lat="44.12796" lon="7.25681">
        <ele>1787.4</ele>
        <time>2023-02-05T09:44:07Z</time>
      </trkpt>
      <trkpt lat="44.12796" lon="7.25681">
        <ele>1787.4</ele>
        <time>2023-02-05T09:44:08Z</time>
      </trkpt>
      <trkpt lat="44.12796" lon="7.2568">
        <ele>1787.5</ele>
        <time>2023-02-05T09:44:09Z</time>
      </trkpt>
      <trkpt lat="44.12796" lon="7.25679">
        <ele>1787.5</ele>
        <time>2023-02-05T09:44:10Z</time>
      </trkpt>
      <trkpt lat="44.12796" lon="7.25678">
        <ele>1787.5</ele>
        <time>2023-02-05T09:44:11Z</time>
      </trkpt>
      <trkpt lat="44.12796" lon="7.25678">
        <ele>1787.6</ele>
        <time>2023-02-05T09:44:12Z</time>
      </trkpt>
      <trkpt lat="44.12796" lon="7.25677">
        <ele>1787.7</ele>
        <time>2023-02-05T09:44:13Z</time>
      </trkpt>
      <trkpt lat="44.12796" lon="7.25676">
        <ele>1787.7</ele>
        <time>2023-02-05T09:44:14Z</time>
      </trkpt>
      <trkpt lat="44.12795" lon="7.25676">
        <ele>1787.7</ele>
        <time>2023-02-05T09:44:15Z</time>
      </trkpt>
      <trkpt lat="44.12795" lon="7.25675">
        <ele>1787.7</ele>
        <time>2023-02-05T09:44:16Z</time>
      </trkpt>
      <trkpt lat="44.12794" lon="7.25675">
        <ele>1787.7</ele>
        <time>2023-02-05T09:44:17Z</time>
      </trkpt>
      <trkpt lat="44.12794" lon="7.25674">
        <ele>1787.8</ele>
        <time>2023-02-05T09:44:18Z</time>
      </trkpt>
      <trkpt lat="44.12793" lon="7.25671">
        <ele>1787.9</ele>
        <time>2023-02-05T09:44:19Z</time>
      </trkpt>
      <trkpt lat="44.12794" lon="7.25671">
        <ele>1788</ele>
        <time>2023-02-05T09:44:20Z</time>
      </trkpt>
      <trkpt lat="44.12793" lon="7.2567">
        <ele>1788</ele>
        <time>2023-02-05T09:44:21Z</time>
      </trkpt>
      <trkpt lat="44.12793" lon="7.25668">
        <ele>1788</ele>
        <time>2023-02-05T09:44:22Z</time>
      </trkpt>
      <trkpt lat="44.12794" lon="7.25667">
        <ele>1788</ele>
        <time>2023-02-05T09:44:23Z</time>
      </trkpt>
      <trkpt lat="44.12794" lon="7.25666">
        <ele>1788</ele>
        <time>2023-02-05T09:44:24Z</time>
      </trkpt>
      <trkpt lat="44.12793" lon="7.25665">
        <ele>1788</ele>
        <time>2023-02-05T09:44:25Z</time>
      </trkpt>
      <trkpt lat="44.12793" lon="7.25663">
        <ele>1788</ele>
        <time>2023-02-05T09:44:26Z</time>
      </trkpt>
      <trkpt lat="44.12794" lon="7.25663">
        <ele>1788.1</ele>
        <time>2023-02-05T09:44:27Z</time>
      </trkpt>
      <trkpt lat="44.12793" lon="7.25663">
        <ele>1788.1</ele>
        <time>2023-02-05T09:44:28Z</time>
      </trkpt>
      <trkpt lat="44.12794" lon="7.25662">
        <ele>1788.2</ele>
        <time>2023-02-05T09:44:29Z</time>
      </trkpt>
      <trkpt lat="44.12794" lon="7.25662">
        <ele>1788.3</ele>
        <time>2023-02-05T09:44:30Z</time>
      </trkpt>
      <trkpt lat="44.12793" lon="7.25661">
        <ele>1788.4</ele>
        <time>2023-02-05T09:44:31Z</time>
      </trkpt>
      <trkpt lat="44.12793" lon="7.2566">
        <ele>1788.6</ele>
        <time>2023-02-05T09:44:32Z</time>
      </trkpt>
      <trkpt lat="44.12792" lon="7.25659">
        <ele>1788.7</ele>
        <time>2023-02-05T09:44:33Z</time>
      </trkpt>
      <trkpt lat="44.12792" lon="7.25659">
        <ele>1788.8</ele>
        <time>2023-02-05T09:44:34Z</time>
      </trkpt>
      <trkpt lat="44.12793" lon="7.25658">
        <ele>1788.8</ele>
        <time>2023-02-05T09:44:35Z</time>
      </trkpt>
      <trkpt lat="44.12793" lon="7.25657">
        <ele>1788.9</ele>
        <time>2023-02-05T09:44:36Z</time>
      </trkpt>
      <trkpt lat="44.12792" lon="7.25656">
        <ele>1789</ele>
        <time>2023-02-05T09:44:37Z</time>
      </trkpt>
      <trkpt lat="44.12793" lon="7.25655">
        <ele>1789.1</ele>
        <time>2023-02-05T09:44:38Z</time>
      </trkpt>
      <trkpt lat="44.12792" lon="7.25653">
        <ele>1789.1</ele>
        <time>2023-02-05T09:44:39Z</time>
      </trkpt>
      <trkpt lat="44.12792" lon="7.25652">
        <ele>1789.3</ele>
        <time>2023-02-05T09:44:40Z</time>
      </trkpt>
      <trkpt lat="44.12792" lon="7.25651">
        <ele>1789.4</ele>
        <time>2023-02-05T09:44:41Z</time>
      </trkpt>
      <trkpt lat="44.12792" lon="7.2565">
        <ele>1789.5</ele>
        <time>2023-02-05T09:44:42Z</time>
      </trkpt>
      <trkpt lat="44.12791" lon="7.25649">
        <ele>1789.7</ele>
        <time>2023-02-05T09:44:43Z</time>
      </trkpt>
      <trkpt lat="44.12791" lon="7.25648">
        <ele>1789.8</ele>
        <time>2023-02-05T09:44:44Z</time>
      </trkpt>
      <trkpt lat="44.12791" lon="7.25647">
        <ele>1789.9</ele>
        <time>2023-02-05T09:44:45Z</time>
      </trkpt>
      <trkpt lat="44.1279" lon="7.25646">
        <ele>1790</ele>
        <time>2023-02-05T09:44:46Z</time>
      </trkpt>
      <trkpt lat="44.1279" lon="7.25645">
        <ele>1790.2</ele>
        <time>2023-02-05T09:44:47Z</time>
      </trkpt>
      <trkpt lat="44.1279" lon="7.25644">
        <ele>1790.2</ele>
        <time>2023-02-05T09:44:48Z</time>
      </trkpt>
      <trkpt lat="44.1279" lon="7.25643">
        <ele>1790.3</ele>
        <time>2023-02-05T09:44:49Z</time>
      </trkpt>
      <trkpt lat="44.1279" lon="7.25642">
        <ele>1790.3</ele>
        <time>2023-02-05T09:44:50Z</time>
      </trkpt>
      <trkpt lat="44.1279" lon="7.25641">
        <ele>1790.3</ele>
        <time>2023-02-05T09:44:51Z</time>
      </trkpt>
      <trkpt lat="44.1279" lon="7.2564">
        <ele>1790.5</ele>
        <time>2023-02-05T09:44:52Z</time>
      </trkpt>
      <trkpt lat="44.1279" lon="7.25638">
        <ele>1790.6</ele>
        <time>2023-02-05T09:44:53Z</time>
      </trkpt>
      <trkpt lat="44.12789" lon="7.25637">
        <ele>1790.8</ele>
        <time>2023-02-05T09:44:54Z</time>
      </trkpt>
      <trkpt lat="44.12789" lon="7.25636">
        <ele>1790.9</ele>
        <time>2023-02-05T09:44:55Z</time>
      </trkpt>
      <trkpt lat="44.12789" lon="7.25634">
        <ele>1791</ele>
        <time>2023-02-05T09:44:56Z</time>
      </trkpt>
      <trkpt lat="44.12789" lon="7.25633">
        <ele>1791</ele>
        <time>2023-02-05T09:44:57Z</time>
      </trkpt>
      <trkpt lat="44.12789" lon="7.25632">
        <ele>1791</ele>
        <time>2023-02-05T09:44:58Z</time>
      </trkpt>
      <trkpt lat="44.12788" lon="7.25631">
        <ele>1791</ele>
        <time>2023-02-05T09:44:59Z</time>
      </trkpt>
      <trkpt lat="44.12788" lon="7.2563">
        <ele>1791</ele>
        <time>2023-02-05T09:45:00Z</time>
      </trkpt>
      <trkpt lat="44.12788" lon="7.25629">
        <ele>1791</ele>
        <time>2023-02-05T09:45:01Z</time>
      </trkpt>
      <trkpt lat="44.12788" lon="7.25628">
        <ele>1791.1</ele>
        <time>2023-02-05T09:45:02Z</time>
      </trkpt>
      <trkpt lat="44.12788" lon="7.25627">
        <ele>1791.1</ele>
        <time>2023-02-05T09:45:03Z</time>
      </trkpt>
      <trkpt lat="44.12787" lon="7.25625">
        <ele>1791.3</ele>
        <time>2023-02-05T09:45:04Z</time>
      </trkpt>
      <trkpt lat="44.12787" lon="7.25625">
        <ele>1791.4</ele>
        <time>2023-02-05T09:45:05Z</time>
      </trkpt>
      <trkpt lat="44.12787" lon="7.25623">
        <ele>1791.3</ele>
        <time>2023-02-05T09:45:06Z</time>
      </trkpt>
      <trkpt lat="44.12787" lon="7.25623">
        <ele>1791.3</ele>
        <time>2023-02-05T09:45:07Z</time>
      </trkpt>
      <trkpt lat="44.12786" lon="7.25621">
        <ele>1791.3</ele>
        <time>2023-02-05T09:45:08Z</time>
      </trkpt>
      <trkpt lat="44.12785" lon="7.2562">
        <ele>1791.4</ele>
        <time>2023-02-05T09:45:09Z</time>
      </trkpt>
      <trkpt lat="44.12785" lon="7.25619">
        <ele>1791.5</ele>
        <time>2023-02-05T09:45:10Z</time>
      </trkpt>
      <trkpt lat="44.12785" lon="7.25618">
        <ele>1791.5</ele>
        <time>2023-02-05T09:45:11Z</time>
      </trkpt>
      <trkpt lat="44.12785" lon="7.25617">
        <ele>1791.6</ele>
        <time>2023-02-05T09:45:12Z</time>
      </trkpt>
      <trkpt lat="44.12785" lon="7.25616">
        <ele>1791.6</ele>
        <time>2023-02-05T09:45:13Z</time>
      </trkpt>
      <trkpt lat="44.12785" lon="7.25614">
        <ele>1791.7</ele>
        <time>2023-02-05T09:45:14Z</time>
      </trkpt>
      <trkpt lat="44.12785" lon="7.25613">
        <ele>1791.8</ele>
        <time>2023-02-05T09:45:15Z</time>
      </trkpt>
      <trkpt lat="44.12785" lon="7.25611">
        <ele>1792</ele>
        <time>2023-02-05T09:45:16Z</time>
      </trkpt>
      <trkpt lat="44.12785" lon="7.2561">
        <ele>1792.1</ele>
        <time>2023-02-05T09:45:17Z</time>
      </trkpt>
      <trkpt lat="44.12785" lon="7.25609">
        <ele>1792</ele>
        <time>2023-02-05T09:45:18Z</time>
      </trkpt>
      <trkpt lat="44.12785" lon="7.25608">
        <ele>1792</ele>
        <time>2023-02-05T09:45:19Z</time>
      </trkpt>
      <trkpt lat="44.12785" lon="7.25607">
        <ele>1792.2</ele>
        <time>2023-02-05T09:45:20Z</time>
      </trkpt>
      <trkpt lat="44.12786" lon="7.25606">
        <ele>1792.3</ele>
        <time>2023-02-05T09:45:21Z</time>
      </trkpt>
      <trkpt lat="44.12786" lon="7.25604">
        <ele>1792.3</ele>
        <time>2023-02-05T09:45:22Z</time>
      </trkpt>
      <trkpt lat="44.12786" lon="7.25604">
        <ele>1792.4</ele>
        <time>2023-02-05T09:45:23Z</time>
      </trkpt>
      <trkpt lat="44.12786" lon="7.25602">
        <ele>1792.5</ele>
        <time>2023-02-05T09:45:24Z</time>
      </trkpt>
      <trkpt lat="44.12786" lon="7.25601">
        <ele>1792.5</ele>
        <time>2023-02-05T09:45:25Z</time>
      </trkpt>
      <trkpt lat="44.12786" lon="7.256">
        <ele>1792.6</ele>
        <time>2023-02-05T09:45:26Z</time>
      </trkpt>
      <trkpt lat="44.12786" lon="7.25599">
        <ele>1792.7</ele>
        <time>2023-02-05T09:45:27Z</time>
      </trkpt>
      <trkpt lat="44.12787" lon="7.25598">
        <ele>1792.8</ele>
        <time>2023-02-05T09:45:28Z</time>
      </trkpt>
      <trkpt lat="44.12787" lon="7.25597">
        <ele>1792.8</ele>
        <time>2023-02-05T09:45:29Z</time>
      </trkpt>
      <trkpt lat="44.12787" lon="7.25596">
        <ele>1792.9</ele>
        <time>2023-02-05T09:45:30Z</time>
      </trkpt>
      <trkpt lat="44.12786" lon="7.25594">
        <ele>1793</ele>
        <time>2023-02-05T09:45:31Z</time>
      </trkpt>
      <trkpt lat="44.12786" lon="7.25593">
        <ele>1793.1</ele>
        <time>2023-02-05T09:45:32Z</time>
      </trkpt>
      <trkpt lat="44.12785" lon="7.25592">
        <ele>1793.2</ele>
        <time>2023-02-05T09:45:33Z</time>
      </trkpt>
      <trkpt lat="44.12786" lon="7.25591">
        <ele>1793.4</ele>
        <time>2023-02-05T09:45:34Z</time>
      </trkpt>
      <trkpt lat="44.12786" lon="7.25591">
        <ele>1793.5</ele>
        <time>2023-02-05T09:45:35Z</time>
      </trkpt>
      <trkpt lat="44.12786" lon="7.2559">
        <ele>1793.6</ele>
        <time>2023-02-05T09:45:36Z</time>
      </trkpt>
      <trkpt lat="44.12785" lon="7.25589">
        <ele>1793.7</ele>
        <time>2023-02-05T09:45:37Z</time>
      </trkpt>
      <trkpt lat="44.12785" lon="7.25588">
        <ele>1793.7</ele>
        <time>2023-02-05T09:45:38Z</time>
      </trkpt>
      <trkpt lat="44.12785" lon="7.25588">
        <ele>1793.8</ele>
        <time>2023-02-05T09:45:39Z</time>
      </trkpt>
      <trkpt lat="44.12785" lon="7.25587">
        <ele>1793.9</ele>
        <time>2023-02-05T09:45:40Z</time>
      </trkpt>
      <trkpt lat="44.12785" lon="7.25586">
        <ele>1794</ele>
        <time>2023-02-05T09:45:41Z</time>
      </trkpt>
      <trkpt lat="44.12785" lon="7.25585">
        <ele>1794.1</ele>
        <time>2023-02-05T09:45:42Z</time>
      </trkpt>
      <trkpt lat="44.12785" lon="7.25584">
        <ele>1794.2</ele>
        <time>2023-02-05T09:45:43Z</time>
      </trkpt>
      <trkpt lat="44.12784" lon="7.25583">
        <ele>1794.2</ele>
        <time>2023-02-05T09:45:44Z</time>
      </trkpt>
      <trkpt lat="44.12784" lon="7.25582">
        <ele>1794.3</ele>
        <time>2023-02-05T09:45:45Z</time>
      </trkpt>
      <trkpt lat="44.12783" lon="7.2558">
        <ele>1794.4</ele>
        <time>2023-02-05T09:45:46Z</time>
      </trkpt>
      <trkpt lat="44.12783" lon="7.25578">
        <ele>1794.5</ele>
        <time>2023-02-05T09:45:47Z</time>
      </trkpt>
      <trkpt lat="44.12782" lon="7.25577">
        <ele>1794.5</ele>
        <time>2023-02-05T09:45:48Z</time>
      </trkpt>
      <trkpt lat="44.12782" lon="7.25576">
        <ele>1794.5</ele>
        <time>2023-02-05T09:45:49Z</time>
      </trkpt>
      <trkpt lat="44.12783" lon="7.25575">
        <ele>1794.6</ele>
        <time>2023-02-05T09:45:50Z</time>
      </trkpt>
      <trkpt lat="44.12782" lon="7.25573">
        <ele>1794.7</ele>
        <time>2023-02-05T09:45:51Z</time>
      </trkpt>
      <trkpt lat="44.12782" lon="7.25572">
        <ele>1794.7</ele>
        <time>2023-02-05T09:45:52Z</time>
      </trkpt>
      <trkpt lat="44.12782" lon="7.25571">
        <ele>1794.8</ele>
        <time>2023-02-05T09:45:53Z</time>
      </trkpt>
      <trkpt lat="44.12782" lon="7.25569">
        <ele>1794.9</ele>
        <time>2023-02-05T09:45:54Z</time>
      </trkpt>
      <trkpt lat="44.12782" lon="7.25568">
        <ele>1795</ele>
        <time>2023-02-05T09:45:55Z</time>
      </trkpt>
      <trkpt lat="44.12781" lon="7.25567">
        <ele>1795.1</ele>
        <time>2023-02-05T09:45:56Z</time>
      </trkpt>
      <trkpt lat="44.12781" lon="7.25566">
        <ele>1795.2</ele>
        <time>2023-02-05T09:45:57Z</time>
      </trkpt>
      <trkpt lat="44.1278" lon="7.25565">
        <ele>1795.3</ele>
        <time>2023-02-05T09:45:58Z</time>
      </trkpt>
      <trkpt lat="44.12781" lon="7.25565">
        <ele>1795.4</ele>
        <time>2023-02-05T09:45:59Z</time>
      </trkpt>
      <trkpt lat="44.12781" lon="7.25564">
        <ele>1795.5</ele>
        <time>2023-02-05T09:46:00Z</time>
      </trkpt>
      <trkpt lat="44.12781" lon="7.25563">
        <ele>1795.7</ele>
        <time>2023-02-05T09:46:01Z</time>
      </trkpt>
      <trkpt lat="44.12782" lon="7.25562">
        <ele>1795.8</ele>
        <time>2023-02-05T09:46:02Z</time>
      </trkpt>
      <trkpt lat="44.12781" lon="7.2556">
        <ele>1795.9</ele>
        <time>2023-02-05T09:46:03Z</time>
      </trkpt>
      <trkpt lat="44.12781" lon="7.25559">
        <ele>1796.1</ele>
        <time>2023-02-05T09:46:04Z</time>
      </trkpt>
      <trkpt lat="44.12781" lon="7.25558">
        <ele>1796.2</ele>
        <time>2023-02-05T09:46:05Z</time>
      </trkpt>
      <trkpt lat="44.12782" lon="7.25558">
        <ele>1796.3</ele>
        <time>2023-02-05T09:46:06Z</time>
      </trkpt>
      <trkpt lat="44.12782" lon="7.25557">
        <ele>1796.4</ele>
        <time>2023-02-05T09:46:07Z</time>
      </trkpt>
      <trkpt lat="44.12783" lon="7.25556">
        <ele>1796.5</ele>
        <time>2023-02-05T09:46:08Z</time>
      </trkpt>
      <trkpt lat="44.12782" lon="7.25555">
        <ele>1796.6</ele>
        <time>2023-02-05T09:46:09Z</time>
      </trkpt>
      <trkpt lat="44.12782" lon="7.25554">
        <ele>1796.6</ele>
        <time>2023-02-05T09:46:10Z</time>
      </trkpt>
      <trkpt lat="44.12781" lon="7.25553">
        <ele>1796.8</ele>
        <time>2023-02-05T09:46:11Z</time>
      </trkpt>
      <trkpt lat="44.12781" lon="7.25553">
        <ele>1797</ele>
        <time>2023-02-05T09:46:12Z</time>
      </trkpt>
      <trkpt lat="44.1278" lon="7.25552">
        <ele>1797.1</ele>
        <time>2023-02-05T09:46:13Z</time>
      </trkpt>
      <trkpt lat="44.1278" lon="7.25551">
        <ele>1797.2</ele>
        <time>2023-02-05T09:46:14Z</time>
      </trkpt>
      <trkpt lat="44.1278" lon="7.25549">
        <ele>1797.3</ele>
        <time>2023-02-05T09:46:15Z</time>
      </trkpt>
      <trkpt lat="44.1278" lon="7.25548">
        <ele>1797.4</ele>
        <time>2023-02-05T09:46:16Z</time>
      </trkpt>
      <trkpt lat="44.1278" lon="7.25547">
        <ele>1797.4</ele>
        <time>2023-02-05T09:46:17Z</time>
      </trkpt>
      <trkpt lat="44.12779" lon="7.25546">
        <ele>1797.5</ele>
        <time>2023-02-05T09:46:18Z</time>
      </trkpt>
      <trkpt lat="44.12779" lon="7.25545">
        <ele>1797.5</ele>
        <time>2023-02-05T09:46:19Z</time>
      </trkpt>
      <trkpt lat="44.12779" lon="7.25544">
        <ele>1797.5</ele>
        <time>2023-02-05T09:46:20Z</time>
      </trkpt>
      <trkpt lat="44.12778" lon="7.25543">
        <ele>1797.6</ele>
        <time>2023-02-05T09:46:21Z</time>
      </trkpt>
      <trkpt lat="44.12778" lon="7.25541">
        <ele>1797.8</ele>
        <time>2023-02-05T09:46:22Z</time>
      </trkpt>
      <trkpt lat="44.12777" lon="7.2554">
        <ele>1797.9</ele>
        <time>2023-02-05T09:46:23Z</time>
      </trkpt>
      <trkpt lat="44.12777" lon="7.25539">
        <ele>1798.2</ele>
        <time>2023-02-05T09:46:24Z</time>
      </trkpt>
      <trkpt lat="44.12776" lon="7.25538">
        <ele>1798.3</ele>
        <time>2023-02-05T09:46:25Z</time>
      </trkpt>
      <trkpt lat="44.12776" lon="7.25536">
        <ele>1798.4</ele>
        <time>2023-02-05T09:46:26Z</time>
      </trkpt>
      <trkpt lat="44.12776" lon="7.25535">
        <ele>1798.6</ele>
        <time>2023-02-05T09:46:27Z</time>
      </trkpt>
      <trkpt lat="44.12775" lon="7.25534">
        <ele>1798.7</ele>
        <time>2023-02-05T09:46:28Z</time>
      </trkpt>
      <trkpt lat="44.12773" lon="7.25532">
        <ele>1798.9</ele>
        <time>2023-02-05T09:46:29Z</time>
      </trkpt>
      <trkpt lat="44.12772" lon="7.2553">
        <ele>1799</ele>
        <time>2023-02-05T09:46:30Z</time>
      </trkpt>
      <trkpt lat="44.12772" lon="7.25529">
        <ele>1799.1</ele>
        <time>2023-02-05T09:46:31Z</time>
      </trkpt>
      <trkpt lat="44.12772" lon="7.25528">
        <ele>1799.2</ele>
        <time>2023-02-05T09:46:32Z</time>
      </trkpt>
      <trkpt lat="44.12771" lon="7.25526">
        <ele>1799.2</ele>
        <time>2023-02-05T09:46:33Z</time>
      </trkpt>
      <trkpt lat="44.1277" lon="7.25525">
        <ele>1799.3</ele>
        <time>2023-02-05T09:46:34Z</time>
      </trkpt>
      <trkpt lat="44.1277" lon="7.25524">
        <ele>1799.3</ele>
        <time>2023-02-05T09:46:35Z</time>
      </trkpt>
      <trkpt lat="44.12769" lon="7.25522">
        <ele>1799.4</ele>
        <time>2023-02-05T09:46:36Z</time>
      </trkpt>
      <trkpt lat="44.12769" lon="7.2552">
        <ele>1799.5</ele>
        <time>2023-02-05T09:46:37Z</time>
      </trkpt>
      <trkpt lat="44.12769" lon="7.25519">
        <ele>1799.7</ele>
        <time>2023-02-05T09:46:38Z</time>
      </trkpt>
      <trkpt lat="44.12768" lon="7.25518">
        <ele>1799.8</ele>
        <time>2023-02-05T09:46:39Z</time>
      </trkpt>
      <trkpt lat="44.12768" lon="7.25516">
        <ele>1800</ele>
        <time>2023-02-05T09:46:40Z</time>
      </trkpt>
      <trkpt lat="44.12768" lon="7.25515">
        <ele>1800.1</ele>
        <time>2023-02-05T09:46:41Z</time>
      </trkpt>
      <trkpt lat="44.12768" lon="7.25514">
        <ele>1800.2</ele>
        <time>2023-02-05T09:46:42Z</time>
      </trkpt>
      <trkpt lat="44.12768" lon="7.25513">
        <ele>1800.3</ele>
        <time>2023-02-05T09:46:43Z</time>
      </trkpt>
      <trkpt lat="44.12768" lon="7.25511">
        <ele>1800.4</ele>
        <time>2023-02-05T09:46:44Z</time>
      </trkpt>
      <trkpt lat="44.12767" lon="7.2551">
        <ele>1800.5</ele>
        <time>2023-02-05T09:46:45Z</time>
      </trkpt>
      <trkpt lat="44.12767" lon="7.25508">
        <ele>1800.6</ele>
        <time>2023-02-05T09:46:46Z</time>
      </trkpt>
      <trkpt lat="44.12767" lon="7.25507">
        <ele>1800.7</ele>
        <time>2023-02-05T09:46:47Z</time>
      </trkpt>
      <trkpt lat="44.12767" lon="7.25506">
        <ele>1800.7</ele>
        <time>2023-02-05T09:46:48Z</time>
      </trkpt>
      <trkpt lat="44.12766" lon="7.25504">
        <ele>1800.7</ele>
        <time>2023-02-05T09:46:49Z</time>
      </trkpt>
      <trkpt lat="44.12766" lon="7.25503">
        <ele>1800.8</ele>
        <time>2023-02-05T09:46:50Z</time>
      </trkpt>
      <trkpt lat="44.12765" lon="7.25501">
        <ele>1800.9</ele>
        <time>2023-02-05T09:46:51Z</time>
      </trkpt>
      <trkpt lat="44.12765" lon="7.25499">
        <ele>1801</ele>
        <time>2023-02-05T09:46:52Z</time>
      </trkpt>
      <trkpt lat="44.12765" lon="7.25498">
        <ele>1801.1</ele>
        <time>2023-02-05T09:46:53Z</time>
      </trkpt>
      <trkpt lat="44.12765" lon="7.25497">
        <ele>1801.2</ele>
        <time>2023-02-05T09:46:54Z</time>
      </trkpt>
      <trkpt lat="44.12765" lon="7.25495">
        <ele>1801.3</ele>
        <time>2023-02-05T09:46:55Z</time>
      </trkpt>
      <trkpt lat="44.12765" lon="7.25494">
        <ele>1801.4</ele>
        <time>2023-02-05T09:46:56Z</time>
      </trkpt>
      <trkpt lat="44.12765" lon="7.25493">
        <ele>1801.5</ele>
        <time>2023-02-05T09:46:57Z</time>
      </trkpt>
      <trkpt lat="44.12765" lon="7.25491">
        <ele>1801.5</ele>
        <time>2023-02-05T09:46:58Z</time>
      </trkpt>
      <trkpt lat="44.12765" lon="7.2549">
        <ele>1801.6</ele>
        <time>2023-02-05T09:46:59Z</time>
      </trkpt>
      <trkpt lat="44.12766" lon="7.25489">
        <ele>1801.8</ele>
        <time>2023-02-05T09:47:00Z</time>
      </trkpt>
      <trkpt lat="44.12766" lon="7.25488">
        <ele>1802</ele>
        <time>2023-02-05T09:47:01Z</time>
      </trkpt>
      <trkpt lat="44.12766" lon="7.25487">
        <ele>1802.1</ele>
        <time>2023-02-05T09:47:02Z</time>
      </trkpt>
      <trkpt lat="44.12766" lon="7.25487">
        <ele>1802.3</ele>
        <time>2023-02-05T09:47:03Z</time>
      </trkpt>
      <trkpt lat="44.12767" lon="7.25486">
        <ele>1802.4</ele>
        <time>2023-02-05T09:47:04Z</time>
      </trkpt>
      <trkpt lat="44.12768" lon="7.25485">
        <ele>1802.4</ele>
        <time>2023-02-05T09:47:05Z</time>
      </trkpt>
      <trkpt lat="44.12768" lon="7.25484">
        <ele>1802.5</ele>
        <time>2023-02-05T09:47:06Z</time>
      </trkpt>
      <trkpt lat="44.12768" lon="7.25483">
        <ele>1802.6</ele>
        <time>2023-02-05T09:47:07Z</time>
      </trkpt>
      <trkpt lat="44.12769" lon="7.25482">
        <ele>1802.6</ele>
        <time>2023-02-05T09:47:08Z</time>
      </trkpt>
      <trkpt lat="44.12769" lon="7.25482">
        <ele>1802.7</ele>
        <time>2023-02-05T09:47:09Z</time>
      </trkpt>
      <trkpt lat="44.1277" lon="7.25481">
        <ele>1802.8</ele>
        <time>2023-02-05T09:47:10Z</time>
      </trkpt>
      <trkpt lat="44.1277" lon="7.2548">
        <ele>1802.8</ele>
        <time>2023-02-05T09:47:11Z</time>
      </trkpt>
      <trkpt lat="44.12771" lon="7.25479">
        <ele>1803</ele>
        <time>2023-02-05T09:47:12Z</time>
      </trkpt>
      <trkpt lat="44.12771" lon="7.25478">
        <ele>1803.1</ele>
        <time>2023-02-05T09:47:13Z</time>
      </trkpt>
      <trkpt lat="44.12772" lon="7.25477">
        <ele>1803.2</ele>
        <time>2023-02-05T09:47:14Z</time>
      </trkpt>
      <trkpt lat="44.12773" lon="7.25477">
        <ele>1803.3</ele>
        <time>2023-02-05T09:47:15Z</time>
      </trkpt>
      <trkpt lat="44.12773" lon="7.25476">
        <ele>1803.5</ele>
        <time>2023-02-05T09:47:16Z</time>
      </trkpt>
      <trkpt lat="44.12774" lon="7.25476">
        <ele>1803.6</ele>
        <time>2023-02-05T09:47:17Z</time>
      </trkpt>
      <trkpt lat="44.12774" lon="7.25475">
        <ele>1803.7</ele>
        <time>2023-02-05T09:47:18Z</time>
      </trkpt>
      <trkpt lat="44.12774" lon="7.25474">
        <ele>1803.8</ele>
        <time>2023-02-05T09:47:19Z</time>
      </trkpt>
      <trkpt lat="44.12775" lon="7.25474">
        <ele>1803.9</ele>
        <time>2023-02-05T09:47:20Z</time>
      </trkpt>
      <trkpt lat="44.12775" lon="7.25473">
        <ele>1804</ele>
        <time>2023-02-05T09:47:21Z</time>
      </trkpt>
      <trkpt lat="44.12776" lon="7.25472">
        <ele>1804</ele>
        <time>2023-02-05T09:47:22Z</time>
      </trkpt>
      <trkpt lat="44.12776" lon="7.25471">
        <ele>1804.1</ele>
        <time>2023-02-05T09:47:23Z</time>
      </trkpt>
      <trkpt lat="44.12776" lon="7.25471">
        <ele>1804.2</ele>
        <time>2023-02-05T09:47:24Z</time>
      </trkpt>
      <trkpt lat="44.12777" lon="7.2547">
        <ele>1804.3</ele>
        <time>2023-02-05T09:47:25Z</time>
      </trkpt>
      <trkpt lat="44.12777" lon="7.25469">
        <ele>1804.3</ele>
        <time>2023-02-05T09:47:26Z</time>
      </trkpt>
      <trkpt lat="44.12778" lon="7.25468">
        <ele>1804.4</ele>
        <time>2023-02-05T09:47:27Z</time>
      </trkpt>
      <trkpt lat="44.12778" lon="7.25467">
        <ele>1804.4</ele>
        <time>2023-02-05T09:47:28Z</time>
      </trkpt>
      <trkpt lat="44.12779" lon="7.25466">
        <ele>1804.4</ele>
        <time>2023-02-05T09:47:29Z</time>
      </trkpt>
      <trkpt lat="44.12779" lon="7.25465">
        <ele>1804.5</ele>
        <time>2023-02-05T09:47:30Z</time>
      </trkpt>
      <trkpt lat="44.1278" lon="7.25464">
        <ele>1804.7</ele>
        <time>2023-02-05T09:47:31Z</time>
      </trkpt>
      <trkpt lat="44.1278" lon="7.25462">
        <ele>1804.8</ele>
        <time>2023-02-05T09:47:32Z</time>
      </trkpt>
      <trkpt lat="44.12781" lon="7.25461">
        <ele>1805</ele>
        <time>2023-02-05T09:47:33Z</time>
      </trkpt>
      <trkpt lat="44.12781" lon="7.2546">
        <ele>1805.1</ele>
        <time>2023-02-05T09:47:34Z</time>
      </trkpt>
      <trkpt lat="44.12782" lon="7.25459">
        <ele>1805.2</ele>
        <time>2023-02-05T09:47:35Z</time>
      </trkpt>
      <trkpt lat="44.12782" lon="7.25458">
        <ele>1805.4</ele>
        <time>2023-02-05T09:47:36Z</time>
      </trkpt>
      <trkpt lat="44.12783" lon="7.25456">
        <ele>1805.5</ele>
        <time>2023-02-05T09:47:37Z</time>
      </trkpt>
      <trkpt lat="44.12783" lon="7.25455">
        <ele>1805.5</ele>
        <time>2023-02-05T09:47:38Z</time>
      </trkpt>
      <trkpt lat="44.12784" lon="7.25454">
        <ele>1805.7</ele>
        <time>2023-02-05T09:47:39Z</time>
      </trkpt>
      <trkpt lat="44.12783" lon="7.25453">
        <ele>1805.9</ele>
        <time>2023-02-05T09:47:40Z</time>
      </trkpt>
      <trkpt lat="44.12784" lon="7.25451">
        <ele>1806</ele>
        <time>2023-02-05T09:47:41Z</time>
      </trkpt>
      <trkpt lat="44.12784" lon="7.25449">
        <ele>1806.1</ele>
        <time>2023-02-05T09:47:42Z</time>
      </trkpt>
      <trkpt lat="44.12784" lon="7.25448">
        <ele>1806.2</ele>
        <time>2023-02-05T09:47:43Z</time>
      </trkpt>
      <trkpt lat="44.12784" lon="7.25447">
        <ele>1806.1</ele>
        <time>2023-02-05T09:47:44Z</time>
      </trkpt>
      <trkpt lat="44.12785" lon="7.25446">
        <ele>1806.1</ele>
        <time>2023-02-05T09:47:45Z</time>
      </trkpt>
      <trkpt lat="44.12785" lon="7.25444">
        <ele>1806.1</ele>
        <time>2023-02-05T09:47:46Z</time>
      </trkpt>
      <trkpt lat="44.12786" lon="7.25443">
        <ele>1806.2</ele>
        <time>2023-02-05T09:47:47Z</time>
      </trkpt>
      <trkpt lat="44.12787" lon="7.25442">
        <ele>1806.3</ele>
        <time>2023-02-05T09:47:48Z</time>
      </trkpt>
      <trkpt lat="44.12788" lon="7.25441">
        <ele>1806.4</ele>
        <time>2023-02-05T09:47:49Z</time>
      </trkpt>
      <trkpt lat="44.12788" lon="7.2544">
        <ele>1806.4</ele>
        <time>2023-02-05T09:47:50Z</time>
      </trkpt>
      <trkpt lat="44.12789" lon="7.25439">
        <ele>1806.5</ele>
        <time>2023-02-05T09:47:51Z</time>
      </trkpt>
      <trkpt lat="44.12789" lon="7.25437">
        <ele>1806.6</ele>
        <time>2023-02-05T09:47:52Z</time>
      </trkpt>
      <trkpt lat="44.12789" lon="7.25436">
        <ele>1806.6</ele>
        <time>2023-02-05T09:47:53Z</time>
      </trkpt>
      <trkpt lat="44.12789" lon="7.25434">
        <ele>1806.7</ele>
        <time>2023-02-05T09:47:54Z</time>
      </trkpt>
      <trkpt lat="44.1279" lon="7.25433">
        <ele>1806.9</ele>
        <time>2023-02-05T09:47:55Z</time>
      </trkpt>
      <trkpt lat="44.1279" lon="7.25432">
        <ele>1807</ele>
        <time>2023-02-05T09:47:56Z</time>
      </trkpt>
      <trkpt lat="44.1279" lon="7.25431">
        <ele>1807.1</ele>
        <time>2023-02-05T09:47:57Z</time>
      </trkpt>
      <trkpt lat="44.1279" lon="7.25429">
        <ele>1807.1</ele>
        <time>2023-02-05T09:47:58Z</time>
      </trkpt>
      <trkpt lat="44.12791" lon="7.25428">
        <ele>1807.3</ele>
        <time>2023-02-05T09:47:59Z</time>
      </trkpt>
      <trkpt lat="44.12791" lon="7.25427">
        <ele>1807.3</ele>
        <time>2023-02-05T09:48:00Z</time>
      </trkpt>
      <trkpt lat="44.12791" lon="7.25426">
        <ele>1807.4</ele>
        <time>2023-02-05T09:48:01Z</time>
      </trkpt>
      <trkpt lat="44.12791" lon="7.25424">
        <ele>1807.5</ele>
        <time>2023-02-05T09:48:02Z</time>
      </trkpt>
      <trkpt lat="44.12792" lon="7.25423">
        <ele>1807.5</ele>
        <time>2023-02-05T09:48:03Z</time>
      </trkpt>
      <trkpt lat="44.12793" lon="7.25422">
        <ele>1807.7</ele>
        <time>2023-02-05T09:48:04Z</time>
      </trkpt>
      <trkpt lat="44.12793" lon="7.25421">
        <ele>1807.9</ele>
        <time>2023-02-05T09:48:05Z</time>
      </trkpt>
      <trkpt lat="44.12794" lon="7.2542">
        <ele>1808</ele>
        <time>2023-02-05T09:48:06Z</time>
      </trkpt>
      <trkpt lat="44.12794" lon="7.25419">
        <ele>1808.1</ele>
        <time>2023-02-05T09:48:07Z</time>
      </trkpt>
      <trkpt lat="44.12796" lon="7.25418">
        <ele>1808.2</ele>
        <time>2023-02-05T09:48:08Z</time>
      </trkpt>
      <trkpt lat="44.12796" lon="7.25417">
        <ele>1808.2</ele>
        <time>2023-02-05T09:48:09Z</time>
      </trkpt>
      <trkpt lat="44.12796" lon="7.25415">
        <ele>1808.3</ele>
        <time>2023-02-05T09:48:10Z</time>
      </trkpt>
      <trkpt lat="44.12797" lon="7.25414">
        <ele>1808.4</ele>
        <time>2023-02-05T09:48:11Z</time>
      </trkpt>
      <trkpt lat="44.12797" lon="7.25412">
        <ele>1808.5</ele>
        <time>2023-02-05T09:48:12Z</time>
      </trkpt>
      <trkpt lat="44.12797" lon="7.25411">
        <ele>1808.4</ele>
        <time>2023-02-05T09:48:13Z</time>
      </trkpt>
      <trkpt lat="44.12797" lon="7.2541">
        <ele>1808.5</ele>
        <time>2023-02-05T09:48:14Z</time>
      </trkpt>
      <trkpt lat="44.12798" lon="7.25409">
        <ele>1808.6</ele>
        <time>2023-02-05T09:48:15Z</time>
      </trkpt>
      <trkpt lat="44.12798" lon="7.25408">
        <ele>1808.7</ele>
        <time>2023-02-05T09:48:16Z</time>
      </trkpt>
      <trkpt lat="44.12799" lon="7.25408">
        <ele>1808.7</ele>
        <time>2023-02-05T09:48:17Z</time>
      </trkpt>
      <trkpt lat="44.128" lon="7.25407">
        <ele>1808.8</ele>
        <time>2023-02-05T09:48:18Z</time>
      </trkpt>
      <trkpt lat="44.128" lon="7.25405">
        <ele>1808.9</ele>
        <time>2023-02-05T09:48:19Z</time>
      </trkpt>
      <trkpt lat="44.128" lon="7.25403">
        <ele>1809</ele>
        <time>2023-02-05T09:48:20Z</time>
      </trkpt>
      <trkpt lat="44.12801" lon="7.25401">
        <ele>1809.1</ele>
        <time>2023-02-05T09:48:21Z</time>
      </trkpt>
      <trkpt lat="44.12802" lon="7.254">
        <ele>1809.2</ele>
        <time>2023-02-05T09:48:22Z</time>
      </trkpt>
      <trkpt lat="44.12801" lon="7.25399">
        <ele>1809.4</ele>
        <time>2023-02-05T09:48:23Z</time>
      </trkpt>
      <trkpt lat="44.12801" lon="7.25398">
        <ele>1809.5</ele>
        <time>2023-02-05T09:48:24Z</time>
      </trkpt>
      <trkpt lat="44.12801" lon="7.25396">
        <ele>1809.5</ele>
        <time>2023-02-05T09:48:25Z</time>
      </trkpt>
      <trkpt lat="44.12802" lon="7.25395">
        <ele>1809.6</ele>
        <time>2023-02-05T09:48:26Z</time>
      </trkpt>
      <trkpt lat="44.12803" lon="7.25394">
        <ele>1809.6</ele>
        <time>2023-02-05T09:48:27Z</time>
      </trkpt>
      <trkpt lat="44.12803" lon="7.25393">
        <ele>1809.7</ele>
        <time>2023-02-05T09:48:28Z</time>
      </trkpt>
      <trkpt lat="44.12803" lon="7.25391">
        <ele>1809.7</ele>
        <time>2023-02-05T09:48:29Z</time>
      </trkpt>
      <trkpt lat="44.12803" lon="7.2539">
        <ele>1809.9</ele>
        <time>2023-02-05T09:48:30Z</time>
      </trkpt>
      <trkpt lat="44.12803" lon="7.25389">
        <ele>1810.1</ele>
        <time>2023-02-05T09:48:31Z</time>
      </trkpt>
      <trkpt lat="44.12804" lon="7.25388">
        <ele>1810.2</ele>
        <time>2023-02-05T09:48:32Z</time>
      </trkpt>
      <trkpt lat="44.12805" lon="7.25387">
        <ele>1810.2</ele>
        <time>2023-02-05T09:48:33Z</time>
      </trkpt>
      <trkpt lat="44.12805" lon="7.25386">
        <ele>1810.4</ele>
        <time>2023-02-05T09:48:34Z</time>
      </trkpt>
      <trkpt lat="44.12805" lon="7.25385">
        <ele>1810.5</ele>
        <time>2023-02-05T09:48:35Z</time>
      </trkpt>
      <trkpt lat="44.12805" lon="7.25383">
        <ele>1810.6</ele>
        <time>2023-02-05T09:48:36Z</time>
      </trkpt>
      <trkpt lat="44.12805" lon="7.25381">
        <ele>1810.6</ele>
        <time>2023-02-05T09:48:37Z</time>
      </trkpt>
      <trkpt lat="44.12805" lon="7.2538">
        <ele>1810.7</ele>
        <time>2023-02-05T09:48:38Z</time>
      </trkpt>
      <trkpt lat="44.12805" lon="7.2538">
        <ele>1810.8</ele>
        <time>2023-02-05T09:48:39Z</time>
      </trkpt>
      <trkpt lat="44.12805" lon="7.25378">
        <ele>1810.9</ele>
        <time>2023-02-05T09:48:40Z</time>
      </trkpt>
      <trkpt lat="44.12805" lon="7.25377">
        <ele>1811</ele>
        <time>2023-02-05T09:48:41Z</time>
      </trkpt>
      <trkpt lat="44.12806" lon="7.25376">
        <ele>1811.1</ele>
        <time>2023-02-05T09:48:42Z</time>
      </trkpt>
      <trkpt lat="44.12805" lon="7.25374">
        <ele>1811.2</ele>
        <time>2023-02-05T09:48:43Z</time>
      </trkpt>
      <trkpt lat="44.12805" lon="7.25373">
        <ele>1811.3</ele>
        <time>2023-02-05T09:48:44Z</time>
      </trkpt>
      <trkpt lat="44.12805" lon="7.25372">
        <ele>1811.4</ele>
        <time>2023-02-05T09:48:45Z</time>
      </trkpt>
      <trkpt lat="44.12806" lon="7.2537">
        <ele>1811.4</ele>
        <time>2023-02-05T09:48:46Z</time>
      </trkpt>
      <trkpt lat="44.12806" lon="7.25369">
        <ele>1811.5</ele>
        <time>2023-02-05T09:48:47Z</time>
      </trkpt>
      <trkpt lat="44.12807" lon="7.25369">
        <ele>1811.5</ele>
        <time>2023-02-05T09:48:48Z</time>
      </trkpt>
      <trkpt lat="44.12808" lon="7.25368">
        <ele>1811.6</ele>
        <time>2023-02-05T09:48:49Z</time>
      </trkpt>
      <trkpt lat="44.12809" lon="7.25368">
        <ele>1811.6</ele>
        <time>2023-02-05T09:48:50Z</time>
      </trkpt>
      <trkpt lat="44.12809" lon="7.25367">
        <ele>1811.7</ele>
        <time>2023-02-05T09:48:51Z</time>
      </trkpt>
      <trkpt lat="44.1281" lon="7.25366">
        <ele>1811.8</ele>
        <time>2023-02-05T09:48:52Z</time>
      </trkpt>
      <trkpt lat="44.1281" lon="7.25365">
        <ele>1811.9</ele>
        <time>2023-02-05T09:48:53Z</time>
      </trkpt>
      <trkpt lat="44.1281" lon="7.25364">
        <ele>1812</ele>
        <time>2023-02-05T09:48:54Z</time>
      </trkpt>
      <trkpt lat="44.12811" lon="7.25363">
        <ele>1812.1</ele>
        <time>2023-02-05T09:48:55Z</time>
      </trkpt>
      <trkpt lat="44.12811" lon="7.25363">
        <ele>1812.3</ele>
        <time>2023-02-05T09:48:56Z</time>
      </trkpt>
      <trkpt lat="44.12812" lon="7.25362">
        <ele>1812.4</ele>
        <time>2023-02-05T09:48:57Z</time>
      </trkpt>
      <trkpt lat="44.12813" lon="7.25361">
        <ele>1812.6</ele>
        <time>2023-02-05T09:48:58Z</time>
      </trkpt>
      <trkpt lat="44.12814" lon="7.2536">
        <ele>1812.7</ele>
        <time>2023-02-05T09:48:59Z</time>
      </trkpt>
      <trkpt lat="44.12813" lon="7.2536">
        <ele>1812.8</ele>
        <time>2023-02-05T09:49:00Z</time>
      </trkpt>
      <trkpt lat="44.12812" lon="7.25357">
        <ele>1813</ele>
        <time>2023-02-05T09:49:01Z</time>
      </trkpt>
      <trkpt lat="44.12813" lon="7.25356">
        <ele>1813.1</ele>
        <time>2023-02-05T09:49:02Z</time>
      </trkpt>
      <trkpt lat="44.12813" lon="7.25355">
        <ele>1813.2</ele>
        <time>2023-02-05T09:49:03Z</time>
      </trkpt>
      <trkpt lat="44.12813" lon="7.25354">
        <ele>1813.3</ele>
        <time>2023-02-05T09:49:04Z</time>
      </trkpt>
      <trkpt lat="44.12814" lon="7.25353">
        <ele>1813.4</ele>
        <time>2023-02-05T09:49:05Z</time>
      </trkpt>
      <trkpt lat="44.12815" lon="7.25352">
        <ele>1813.4</ele>
        <time>2023-02-05T09:49:06Z</time>
      </trkpt>
      <trkpt lat="44.12815" lon="7.25351">
        <ele>1813.6</ele>
        <time>2023-02-05T09:49:07Z</time>
      </trkpt>
      <trkpt lat="44.12816" lon="7.2535">
        <ele>1813.7</ele>
        <time>2023-02-05T09:49:08Z</time>
      </trkpt>
      <trkpt lat="44.12816" lon="7.25349">
        <ele>1813.7</ele>
        <time>2023-02-05T09:49:09Z</time>
      </trkpt>
      <trkpt lat="44.12816" lon="7.25348">
        <ele>1813.8</ele>
        <time>2023-02-05T09:49:10Z</time>
      </trkpt>
      <trkpt lat="44.12816" lon="7.25348">
        <ele>1813.8</ele>
        <time>2023-02-05T09:49:11Z</time>
      </trkpt>
      <trkpt lat="44.12816" lon="7.25347">
        <ele>1813.9</ele>
        <time>2023-02-05T09:49:12Z</time>
      </trkpt>
      <trkpt lat="44.12816" lon="7.25346">
        <ele>1813.9</ele>
        <time>2023-02-05T09:49:13Z</time>
      </trkpt>
      <trkpt lat="44.12817" lon="7.25346">
        <ele>1813.9</ele>
        <time>2023-02-05T09:49:14Z</time>
      </trkpt>
      <trkpt lat="44.12817" lon="7.25345">
        <ele>1814</ele>
        <time>2023-02-05T09:49:15Z</time>
      </trkpt>
      <trkpt lat="44.12817" lon="7.25344">
        <ele>1814.1</ele>
        <time>2023-02-05T09:49:16Z</time>
      </trkpt>
      <trkpt lat="44.12817" lon="7.25343">
        <ele>1814.2</ele>
        <time>2023-02-05T09:49:17Z</time>
      </trkpt>
      <trkpt lat="44.12818" lon="7.25342">
        <ele>1814.3</ele>
        <time>2023-02-05T09:49:18Z</time>
      </trkpt>
      <trkpt lat="44.12818" lon="7.25342">
        <ele>1814.4</ele>
        <time>2023-02-05T09:49:19Z</time>
      </trkpt>
      <trkpt lat="44.12818" lon="7.25341">
        <ele>1814.4</ele>
        <time>2023-02-05T09:49:20Z</time>
      </trkpt>
      <trkpt lat="44.12819" lon="7.2534">
        <ele>1814.5</ele>
        <time>2023-02-05T09:49:21Z</time>
      </trkpt>
      <trkpt lat="44.12819" lon="7.25339">
        <ele>1814.6</ele>
        <time>2023-02-05T09:49:22Z</time>
      </trkpt>
      <trkpt lat="44.1282" lon="7.25339">
        <ele>1814.7</ele>
        <time>2023-02-05T09:49:23Z</time>
      </trkpt>
      <trkpt lat="44.1282" lon="7.25338">
        <ele>1814.7</ele>
        <time>2023-02-05T09:49:24Z</time>
      </trkpt>
      <trkpt lat="44.12821" lon="7.25338">
        <ele>1814.8</ele>
        <time>2023-02-05T09:49:25Z</time>
      </trkpt>
      <trkpt lat="44.12821" lon="7.25337">
        <ele>1814.9</ele>
        <time>2023-02-05T09:49:26Z</time>
      </trkpt>
      <trkpt lat="44.12822" lon="7.25336">
        <ele>1815.1</ele>
        <time>2023-02-05T09:49:27Z</time>
      </trkpt>
      <trkpt lat="44.12822" lon="7.25336">
        <ele>1815.2</ele>
        <time>2023-02-05T09:49:28Z</time>
      </trkpt>
      <trkpt lat="44.12823" lon="7.25335">
        <ele>1815.2</ele>
        <time>2023-02-05T09:49:29Z</time>
      </trkpt>
      <trkpt lat="44.12823" lon="7.25334">
        <ele>1815.3</ele>
        <time>2023-02-05T09:49:30Z</time>
      </trkpt>
      <trkpt lat="44.12824" lon="7.25334">
        <ele>1815.4</ele>
        <time>2023-02-05T09:49:31Z</time>
      </trkpt>
      <trkpt lat="44.12824" lon="7.25332">
        <ele>1815.5</ele>
        <time>2023-02-05T09:49:32Z</time>
      </trkpt>
      <trkpt lat="44.12824" lon="7.25331">
        <ele>1815.6</ele>
        <time>2023-02-05T09:49:33Z</time>
      </trkpt>
      <trkpt lat="44.12825" lon="7.2533">
        <ele>1815.7</ele>
        <time>2023-02-05T09:49:34Z</time>
      </trkpt>
      <trkpt lat="44.12826" lon="7.25329">
        <ele>1815.8</ele>
        <time>2023-02-05T09:49:35Z</time>
      </trkpt>
      <trkpt lat="44.12826" lon="7.25329">
        <ele>1815.9</ele>
        <time>2023-02-05T09:49:36Z</time>
      </trkpt>
      <trkpt lat="44.12826" lon="7.25328">
        <ele>1815.8</ele>
        <time>2023-02-05T09:49:37Z</time>
      </trkpt>
      <trkpt lat="44.12827" lon="7.25327">
        <ele>1815.9</ele>
        <time>2023-02-05T09:49:38Z</time>
      </trkpt>
      <trkpt lat="44.12828" lon="7.25327">
        <ele>1815.9</ele>
        <time>2023-02-05T09:49:39Z</time>
      </trkpt>
      <trkpt lat="44.1283" lon="7.25327">
        <ele>1816</ele>
        <time>2023-02-05T09:49:40Z</time>
      </trkpt>
      <trkpt lat="44.1283" lon="7.25326">
        <ele>1816.1</ele>
        <time>2023-02-05T09:49:41Z</time>
      </trkpt>
      <trkpt lat="44.12831" lon="7.25325">
        <ele>1816.1</ele>
        <time>2023-02-05T09:49:42Z</time>
      </trkpt>
      <trkpt lat="44.12831" lon="7.25324">
        <ele>1816.2</ele>
        <time>2023-02-05T09:49:43Z</time>
      </trkpt>
      <trkpt lat="44.12831" lon="7.25323">
        <ele>1816.3</ele>
        <time>2023-02-05T09:49:44Z</time>
      </trkpt>
      <trkpt lat="44.12832" lon="7.25323">
        <ele>1816.4</ele>
        <time>2023-02-05T09:49:45Z</time>
      </trkpt>
      <trkpt lat="44.12832" lon="7.25323">
        <ele>1816.6</ele>
        <time>2023-02-05T09:49:46Z</time>
      </trkpt>
      <trkpt lat="44.12832" lon="7.25321">
        <ele>1816.6</ele>
        <time>2023-02-05T09:49:47Z</time>
      </trkpt>
      <trkpt lat="44.12833" lon="7.25321">
        <ele>1816.7</ele>
        <time>2023-02-05T09:49:48Z</time>
      </trkpt>
      <trkpt lat="44.12835" lon="7.25321">
        <ele>1816.7</ele>
        <time>2023-02-05T09:49:49Z</time>
      </trkpt>
      <trkpt lat="44.12835" lon="7.2532">
        <ele>1816.9</ele>
        <time>2023-02-05T09:49:50Z</time>
      </trkpt>
      <trkpt lat="44.12836" lon="7.2532">
        <ele>1817</ele>
        <time>2023-02-05T09:49:51Z</time>
      </trkpt>
      <trkpt lat="44.12836" lon="7.25318">
        <ele>1817.1</ele>
        <time>2023-02-05T09:49:52Z</time>
      </trkpt>
      <trkpt lat="44.12836" lon="7.25317">
        <ele>1817.2</ele>
        <time>2023-02-05T09:49:53Z</time>
      </trkpt>
      <trkpt lat="44.12837" lon="7.25315">
        <ele>1817.3</ele>
        <time>2023-02-05T09:49:54Z</time>
      </trkpt>
      <trkpt lat="44.12837" lon="7.25314">
        <ele>1817.4</ele>
        <time>2023-02-05T09:49:55Z</time>
      </trkpt>
      <trkpt lat="44.12837" lon="7.25312">
        <ele>1817.4</ele>
        <time>2023-02-05T09:49:56Z</time>
      </trkpt>
      <trkpt lat="44.12838" lon="7.2531">
        <ele>1817.5</ele>
        <time>2023-02-05T09:49:57Z</time>
      </trkpt>
      <trkpt lat="44.12838" lon="7.25308">
        <ele>1817.6</ele>
        <time>2023-02-05T09:49:58Z</time>
      </trkpt>
      <trkpt lat="44.12838" lon="7.25307">
        <ele>1817.8</ele>
        <time>2023-02-05T09:49:59Z</time>
      </trkpt>
      <trkpt lat="44.12838" lon="7.25307">
        <ele>1817.9</ele>
        <time>2023-02-05T09:50:00Z</time>
      </trkpt>
      <trkpt lat="44.12839" lon="7.25306">
        <ele>1817.9</ele>
        <time>2023-02-05T09:50:01Z</time>
      </trkpt>
      <trkpt lat="44.1284" lon="7.25304">
        <ele>1817.9</ele>
        <time>2023-02-05T09:50:02Z</time>
      </trkpt>
      <trkpt lat="44.12839" lon="7.25302">
        <ele>1818</ele>
        <time>2023-02-05T09:50:03Z</time>
      </trkpt>
      <trkpt lat="44.1284" lon="7.25301">
        <ele>1818</ele>
        <time>2023-02-05T09:50:04Z</time>
      </trkpt>
      <trkpt lat="44.1284" lon="7.25298">
        <ele>1818</ele>
        <time>2023-02-05T09:50:05Z</time>
      </trkpt>
      <trkpt lat="44.12841" lon="7.25296">
        <ele>1818</ele>
        <time>2023-02-05T09:50:06Z</time>
      </trkpt>
      <trkpt lat="44.12842" lon="7.25294">
        <ele>1818.1</ele>
        <time>2023-02-05T09:50:07Z</time>
      </trkpt>
      <trkpt lat="44.12842" lon="7.25293">
        <ele>1818.1</ele>
        <time>2023-02-05T09:50:08Z</time>
      </trkpt>
      <trkpt lat="44.12842" lon="7.25291">
        <ele>1818.1</ele>
        <time>2023-02-05T09:50:09Z</time>
      </trkpt>
      <trkpt lat="44.12843" lon="7.25289">
        <ele>1818.1</ele>
        <time>2023-02-05T09:50:10Z</time>
      </trkpt>
      <trkpt lat="44.12844" lon="7.25288">
        <ele>1818.3</ele>
        <time>2023-02-05T09:50:11Z</time>
      </trkpt>
      <trkpt lat="44.12844" lon="7.25287">
        <ele>1818.4</ele>
        <time>2023-02-05T09:50:12Z</time>
      </trkpt>
      <trkpt lat="44.12845" lon="7.25286">
        <ele>1818.5</ele>
        <time>2023-02-05T09:50:13Z</time>
      </trkpt>
      <trkpt lat="44.12846" lon="7.25285">
        <ele>1818.6</ele>
        <time>2023-02-05T09:50:14Z</time>
      </trkpt>
      <trkpt lat="44.12847" lon="7.25284">
        <ele>1818.6</ele>
        <time>2023-02-05T09:50:15Z</time>
      </trkpt>
      <trkpt lat="44.12848" lon="7.25283">
        <ele>1818.7</ele>
        <time>2023-02-05T09:50:16Z</time>
      </trkpt>
      <trkpt lat="44.12848" lon="7.25282">
        <ele>1818.8</ele>
        <time>2023-02-05T09:50:17Z</time>
      </trkpt>
      <trkpt lat="44.12848" lon="7.25281">
        <ele>1818.9</ele>
        <time>2023-02-05T09:50:18Z</time>
      </trkpt>
      <trkpt lat="44.12848" lon="7.25279">
        <ele>1818.9</ele>
        <time>2023-02-05T09:50:19Z</time>
      </trkpt>
      <trkpt lat="44.12848" lon="7.25278">
        <ele>1819.1</ele>
        <time>2023-02-05T09:50:20Z</time>
      </trkpt>
      <trkpt lat="44.12849" lon="7.25277">
        <ele>1819.2</ele>
        <time>2023-02-05T09:50:21Z</time>
      </trkpt>
      <trkpt lat="44.1285" lon="7.25276">
        <ele>1819.3</ele>
        <time>2023-02-05T09:50:22Z</time>
      </trkpt>
      <trkpt lat="44.1285" lon="7.25275">
        <ele>1819.3</ele>
        <time>2023-02-05T09:50:23Z</time>
      </trkpt>
      <trkpt lat="44.1285" lon="7.25274">
        <ele>1819.4</ele>
        <time>2023-02-05T09:50:24Z</time>
      </trkpt>
      <trkpt lat="44.12851" lon="7.25273">
        <ele>1819.5</ele>
        <time>2023-02-05T09:50:25Z</time>
      </trkpt>
      <trkpt lat="44.12851" lon="7.25272">
        <ele>1819.8</ele>
        <time>2023-02-05T09:50:26Z</time>
      </trkpt>
      <trkpt lat="44.12851" lon="7.2527">
        <ele>1819.9</ele>
        <time>2023-02-05T09:50:27Z</time>
      </trkpt>
      <trkpt lat="44.12852" lon="7.25269">
        <ele>1820.1</ele>
        <time>2023-02-05T09:50:28Z</time>
      </trkpt>
      <trkpt lat="44.12853" lon="7.25267">
        <ele>1820.1</ele>
        <time>2023-02-05T09:50:29Z</time>
      </trkpt>
      <trkpt lat="44.12853" lon="7.25266">
        <ele>1820.2</ele>
        <time>2023-02-05T09:50:30Z</time>
      </trkpt>
      <trkpt lat="44.12852" lon="7.25264">
        <ele>1820.2</ele>
        <time>2023-02-05T09:50:31Z</time>
      </trkpt>
      <trkpt lat="44.12853" lon="7.25263">
        <ele>1820.3</ele>
        <time>2023-02-05T09:50:32Z</time>
      </trkpt>
      <trkpt lat="44.12852" lon="7.25261">
        <ele>1820.5</ele>
        <time>2023-02-05T09:50:33Z</time>
      </trkpt>
      <trkpt lat="44.12853" lon="7.2526">
        <ele>1820.6</ele>
        <time>2023-02-05T09:50:34Z</time>
      </trkpt>
      <trkpt lat="44.12852" lon="7.25258">
        <ele>1820.8</ele>
        <time>2023-02-05T09:50:35Z</time>
      </trkpt>
      <trkpt lat="44.12853" lon="7.25257">
        <ele>1820.8</ele>
        <time>2023-02-05T09:50:36Z</time>
      </trkpt>
      <trkpt lat="44.12854" lon="7.25255">
        <ele>1820.9</ele>
        <time>2023-02-05T09:50:37Z</time>
      </trkpt>
      <trkpt lat="44.12855" lon="7.25254">
        <ele>1820.9</ele>
        <time>2023-02-05T09:50:38Z</time>
      </trkpt>
      <trkpt lat="44.12854" lon="7.25252">
        <ele>1820.9</ele>
        <time>2023-02-05T09:50:39Z</time>
      </trkpt>
      <trkpt lat="44.12853" lon="7.25251">
        <ele>1821</ele>
        <time>2023-02-05T09:50:40Z</time>
      </trkpt>
      <trkpt lat="44.12854" lon="7.2525">
        <ele>1821</ele>
        <time>2023-02-05T09:50:41Z</time>
      </trkpt>
      <trkpt lat="44.12854" lon="7.25249">
        <ele>1821.1</ele>
        <time>2023-02-05T09:50:42Z</time>
      </trkpt>
      <trkpt lat="44.12854" lon="7.25248">
        <ele>1821.1</ele>
        <time>2023-02-05T09:50:43Z</time>
      </trkpt>
      <trkpt lat="44.12854" lon="7.25247">
        <ele>1821.1</ele>
        <time>2023-02-05T09:50:44Z</time>
      </trkpt>
      <trkpt lat="44.12854" lon="7.25245">
        <ele>1821.2</ele>
        <time>2023-02-05T09:50:45Z</time>
      </trkpt>
      <trkpt lat="44.12855" lon="7.25244">
        <ele>1821.4</ele>
        <time>2023-02-05T09:50:46Z</time>
      </trkpt>
      <trkpt lat="44.12855" lon="7.25243">
        <ele>1821.4</ele>
        <time>2023-02-05T09:50:47Z</time>
      </trkpt>
      <trkpt lat="44.12856" lon="7.25242">
        <ele>1821.5</ele>
        <time>2023-02-05T09:50:48Z</time>
      </trkpt>
      <trkpt lat="44.12856" lon="7.25242">
        <ele>1821.7</ele>
        <time>2023-02-05T09:50:49Z</time>
      </trkpt>
      <trkpt lat="44.12858" lon="7.25242">
        <ele>1821.9</ele>
        <time>2023-02-05T09:50:50Z</time>
      </trkpt>
      <trkpt lat="44.12858" lon="7.25241">
        <ele>1822</ele>
        <time>2023-02-05T09:50:51Z</time>
      </trkpt>
      <trkpt lat="44.12859" lon="7.2524">
        <ele>1822.2</ele>
        <time>2023-02-05T09:50:52Z</time>
      </trkpt>
      <trkpt lat="44.12859" lon="7.25239">
        <ele>1822.4</ele>
        <time>2023-02-05T09:50:53Z</time>
      </trkpt>
      <trkpt lat="44.1286" lon="7.25239">
        <ele>1822.5</ele>
        <time>2023-02-05T09:50:54Z</time>
      </trkpt>
      <trkpt lat="44.1286" lon="7.25238">
        <ele>1822.6</ele>
        <time>2023-02-05T09:50:55Z</time>
      </trkpt>
      <trkpt lat="44.12861" lon="7.25237">
        <ele>1822.6</ele>
        <time>2023-02-05T09:50:56Z</time>
      </trkpt>
      <trkpt lat="44.1286" lon="7.25236">
        <ele>1822.7</ele>
        <time>2023-02-05T09:50:57Z</time>
      </trkpt>
      <trkpt lat="44.1286" lon="7.25236">
        <ele>1822.7</ele>
        <time>2023-02-05T09:50:58Z</time>
      </trkpt>
      <trkpt lat="44.1286" lon="7.25236">
        <ele>1822.8</ele>
        <time>2023-02-05T09:50:59Z</time>
      </trkpt>
      <trkpt lat="44.1286" lon="7.25235">
        <ele>1822.9</ele>
        <time>2023-02-05T09:51:00Z</time>
      </trkpt>
      <trkpt lat="44.12862" lon="7.25235">
        <ele>1823</ele>
        <time>2023-02-05T09:51:01Z</time>
      </trkpt>
      <trkpt lat="44.12862" lon="7.25235">
        <ele>1823</ele>
        <time>2023-02-05T09:51:02Z</time>
      </trkpt>
      <trkpt lat="44.12862" lon="7.25234">
        <ele>1823</ele>
        <time>2023-02-05T09:51:03Z</time>
      </trkpt>
      <trkpt lat="44.12862" lon="7.25234">
        <ele>1823</ele>
        <time>2023-02-05T09:51:04Z</time>
      </trkpt>
      <trkpt lat="44.12862" lon="7.25234">
        <ele>1823</ele>
        <time>2023-02-05T09:51:05Z</time>
      </trkpt>
      <trkpt lat="44.12863" lon="7.25234">
        <ele>1823.1</ele>
        <time>2023-02-05T09:51:06Z</time>
      </trkpt>
      <trkpt lat="44.12864" lon="7.25234">
        <ele>1823.1</ele>
        <time>2023-02-05T09:51:07Z</time>
      </trkpt>
      <trkpt lat="44.12865" lon="7.25234">
        <ele>1823.1</ele>
        <time>2023-02-05T09:51:08Z</time>
      </trkpt>
      <trkpt lat="44.12866" lon="7.25234">
        <ele>1823.1</ele>
        <time>2023-02-05T09:51:09Z</time>
      </trkpt>
      <trkpt lat="44.12867" lon="7.25234">
        <ele>1823.2</ele>
        <time>2023-02-05T09:51:10Z</time>
      </trkpt>
      <trkpt lat="44.12868" lon="7.25235">
        <ele>1823.2</ele>
        <time>2023-02-05T09:51:11Z</time>
      </trkpt>
      <trkpt lat="44.12869" lon="7.25235">
        <ele>1823.2</ele>
        <time>2023-02-05T09:51:12Z</time>
      </trkpt>
      <trkpt lat="44.1287" lon="7.25235">
        <ele>1823.2</ele>
        <time>2023-02-05T09:51:13Z</time>
      </trkpt>
      <trkpt lat="44.12869" lon="7.25235">
        <ele>1823.1</ele>
        <time>2023-02-05T09:51:14Z</time>
      </trkpt>
      <trkpt lat="44.1287" lon="7.25235">
        <ele>1823.1</ele>
        <time>2023-02-05T09:51:15Z</time>
      </trkpt>
      <trkpt lat="44.12871" lon="7.25235">
        <ele>1823.1</ele>
        <time>2023-02-05T09:51:16Z</time>
      </trkpt>
      <trkpt lat="44.12872" lon="7.25235">
        <ele>1823.1</ele>
        <time>2023-02-05T09:51:17Z</time>
      </trkpt>
      <trkpt lat="44.12873" lon="7.25235">
        <ele>1823.2</ele>
        <time>2023-02-05T09:51:18Z</time>
      </trkpt>
      <trkpt lat="44.12873" lon="7.25235">
        <ele>1823.2</ele>
        <time>2023-02-05T09:51:19Z</time>
      </trkpt>
      <trkpt lat="44.12874" lon="7.25235">
        <ele>1823.2</ele>
        <time>2023-02-05T09:51:20Z</time>
      </trkpt>
      <trkpt lat="44.12875" lon="7.25235">
        <ele>1823.2</ele>
        <time>2023-02-05T09:51:21Z</time>
      </trkpt>
      <trkpt lat="44.12876" lon="7.25235">
        <ele>1823.3</ele>
        <time>2023-02-05T09:51:22Z</time>
      </trkpt>
      <trkpt lat="44.12876" lon="7.25235">
        <ele>1823.3</ele>
        <time>2023-02-05T09:51:23Z</time>
      </trkpt>
      <trkpt lat="44.12876" lon="7.25235">
        <ele>1823.3</ele>
        <time>2023-02-05T09:51:24Z</time>
      </trkpt>
      <trkpt lat="44.12875" lon="7.25234">
        <ele>1823.3</ele>
        <time>2023-02-05T09:51:25Z</time>
      </trkpt>
      <trkpt lat="44.12875" lon="7.25234">
        <ele>1823.4</ele>
        <time>2023-02-05T09:51:26Z</time>
      </trkpt>
      <trkpt lat="44.12876" lon="7.25235">
        <ele>1823.4</ele>
        <time>2023-02-05T09:51:27Z</time>
      </trkpt>
      <trkpt lat="44.12876" lon="7.25235">
        <ele>1823.4</ele>
        <time>2023-02-05T09:51:28Z</time>
      </trkpt>
      <trkpt lat="44.12876" lon="7.25235">
        <ele>1823.4</ele>
        <time>2023-02-05T09:51:29Z</time>
      </trkpt>
      <trkpt lat="44.12876" lon="7.25234">
        <ele>1823.5</ele>
        <time>2023-02-05T09:51:30Z</time>
      </trkpt>
      <trkpt lat="44.12876" lon="7.25234">
        <ele>1823.5</ele>
        <time>2023-02-05T09:51:31Z</time>
      </trkpt>
      <trkpt lat="44.12876" lon="7.25234">
        <ele>1823.5</ele>
        <time>2023-02-05T09:51:32Z</time>
      </trkpt>
      <trkpt lat="44.12876" lon="7.25234">
        <ele>1823.5</ele>
        <time>2023-02-05T09:51:33Z</time>
      </trkpt>
      <trkpt lat="44.12875" lon="7.25234">
        <ele>1823.5</ele>
        <time>2023-02-05T09:51:34Z</time>
      </trkpt>
      <trkpt lat="44.12875" lon="7.25234">
        <ele>1823.5</ele>
        <time>2023-02-05T09:51:35Z</time>
      </trkpt>
      <trkpt lat="44.12874" lon="7.25234">
        <ele>1823.5</ele>
        <time>2023-02-05T09:51:36Z</time>
      </trkpt>
      <trkpt lat="44.12874" lon="7.25234">
        <ele>1823.4</ele>
        <time>2023-02-05T09:51:37Z</time>
      </trkpt>
      <trkpt lat="44.12874" lon="7.25235">
        <ele>1823.5</ele>
        <time>2023-02-05T09:51:38Z</time>
      </trkpt>
      <trkpt lat="44.12874" lon="7.25235">
        <ele>1823.5</ele>
        <time>2023-02-05T09:51:39Z</time>
      </trkpt>
      <trkpt lat="44.12874" lon="7.25235">
        <ele>1823.5</ele>
        <time>2023-02-05T09:51:40Z</time>
      </trkpt>
      <trkpt lat="44.12874" lon="7.25236">
        <ele>1823.5</ele>
        <time>2023-02-05T09:51:41Z</time>
      </trkpt>
      <trkpt lat="44.12874" lon="7.25236">
        <ele>1823.5</ele>
        <time>2023-02-05T09:51:42Z</time>
      </trkpt>
      <trkpt lat="44.12874" lon="7.25236">
        <ele>1823.4</ele>
        <time>2023-02-05T09:51:43Z</time>
      </trkpt>
      <trkpt lat="44.12874" lon="7.25236">
        <ele>1823.4</ele>
        <time>2023-02-05T09:51:44Z</time>
      </trkpt>
      <trkpt lat="44.12874" lon="7.25236">
        <ele>1823.3</ele>
        <time>2023-02-05T09:51:45Z</time>
      </trkpt>
      <trkpt lat="44.12874" lon="7.25237">
        <ele>1823.2</ele>
        <time>2023-02-05T09:51:46Z</time>
      </trkpt>
      <trkpt lat="44.12874" lon="7.25237">
        <ele>1823.3</ele>
        <time>2023-02-05T09:51:47Z</time>
      </trkpt>
      <trkpt lat="44.12874" lon="7.25237">
        <ele>1823.2</ele>
        <time>2023-02-05T09:51:48Z</time>
      </trkpt>
      <trkpt lat="44.12874" lon="7.25237">
        <ele>1823.1</ele>
        <time>2023-02-05T09:51:49Z</time>
      </trkpt>
      <trkpt lat="44.12873" lon="7.25237">
        <ele>1823.1</ele>
        <time>2023-02-05T09:51:50Z</time>
      </trkpt>
      <trkpt lat="44.12873" lon="7.25237">
        <ele>1823.1</ele>
        <time>2023-02-05T09:51:51Z</time>
      </trkpt>
      <trkpt lat="44.12873" lon="7.25237">
        <ele>1823</ele>
        <time>2023-02-05T09:51:52Z</time>
      </trkpt>
      <trkpt lat="44.12873" lon="7.25237">
        <ele>1823</ele>
        <time>2023-02-05T09:51:53Z</time>
      </trkpt>
      <trkpt lat="44.12873" lon="7.25237">
        <ele>1823</ele>
        <time>2023-02-05T09:51:54Z</time>
      </trkpt>
      <trkpt lat="44.12873" lon="7.25237">
        <ele>1822.9</ele>
        <time>2023-02-05T09:51:55Z</time>
      </trkpt>
      <trkpt lat="44.12872" lon="7.25236">
        <ele>1822.9</ele>
        <time>2023-02-05T09:51:56Z</time>
      </trkpt>
      <trkpt lat="44.12872" lon="7.25236">
        <ele>1822.9</ele>
        <time>2023-02-05T09:51:57Z</time>
      </trkpt>
      <trkpt lat="44.12871" lon="7.25236">
        <ele>1823</ele>
        <time>2023-02-05T09:51:58Z</time>
      </trkpt>
      <trkpt lat="44.12871" lon="7.25236">
        <ele>1823</ele>
        <time>2023-02-05T09:51:59Z</time>
      </trkpt>
      <trkpt lat="44.1287" lon="7.25235">
        <ele>1823.1</ele>
        <time>2023-02-05T09:52:00Z</time>
      </trkpt>
      <trkpt lat="44.1287" lon="7.25235">
        <ele>1823.2</ele>
        <time>2023-02-05T09:52:01Z</time>
      </trkpt>
      <trkpt lat="44.12869" lon="7.25235">
        <ele>1823.2</ele>
        <time>2023-02-05T09:52:02Z</time>
      </trkpt>
      <trkpt lat="44.12869" lon="7.25235">
        <ele>1823.2</ele>
        <time>2023-02-05T09:52:03Z</time>
      </trkpt>
      <trkpt lat="44.12868" lon="7.25234">
        <ele>1823.2</ele>
        <time>2023-02-05T09:52:04Z</time>
      </trkpt>
      <trkpt lat="44.12868" lon="7.25234">
        <ele>1823.2</ele>
        <time>2023-02-05T09:52:05Z</time>
      </trkpt>
      <trkpt lat="44.12868" lon="7.25234">
        <ele>1823.3</ele>
        <time>2023-02-05T09:52:06Z</time>
      </trkpt>
      <trkpt lat="44.12867" lon="7.25234">
        <ele>1823.3</ele>
        <time>2023-02-05T09:52:07Z</time>
      </trkpt>
      <trkpt lat="44.12867" lon="7.25234">
        <ele>1823.4</ele>
        <time>2023-02-05T09:52:08Z</time>
      </trkpt>
      <trkpt lat="44.12867" lon="7.25234">
        <ele>1823.3</ele>
        <time>2023-02-05T09:52:09Z</time>
      </trkpt>
      <trkpt lat="44.12867" lon="7.25234">
        <ele>1823.2</ele>
        <time>2023-02-05T09:52:10Z</time>
      </trkpt>
      <trkpt lat="44.12867" lon="7.25234">
        <ele>1823.2</ele>
        <time>2023-02-05T09:52:11Z</time>
      </trkpt>
      <trkpt lat="44.12867" lon="7.25234">
        <ele>1823.1</ele>
        <time>2023-02-05T09:52:12Z</time>
      </trkpt>
      <trkpt lat="44.12867" lon="7.25234">
        <ele>1823.1</ele>
        <time>2023-02-05T09:52:13Z</time>
      </trkpt>
      <trkpt lat="44.12867" lon="7.25234">
        <ele>1823</ele>
        <time>2023-02-05T09:52:14Z</time>
      </trkpt>
      <trkpt lat="44.12866" lon="7.25234">
        <ele>1823</ele>
        <time>2023-02-05T09:52:15Z</time>
      </trkpt>
      <trkpt lat="44.12867" lon="7.25234">
        <ele>1823.1</ele>
        <time>2023-02-05T09:52:16Z</time>
      </trkpt>
      <trkpt lat="44.12866" lon="7.25233">
        <ele>1823.1</ele>
        <time>2023-02-05T09:52:17Z</time>
      </trkpt>
      <trkpt lat="44.12866" lon="7.25233">
        <ele>1823.1</ele>
        <time>2023-02-05T09:52:18Z</time>
      </trkpt>
      <trkpt lat="44.12866" lon="7.25233">
        <ele>1823</ele>
        <time>2023-02-05T09:52:19Z</time>
      </trkpt>
      <trkpt lat="44.12866" lon="7.25233">
        <ele>1822.9</ele>
        <time>2023-02-05T09:52:20Z</time>
      </trkpt>
      <trkpt lat="44.12866" lon="7.25233">
        <ele>1822.9</ele>
        <time>2023-02-05T09:52:21Z</time>
      </trkpt>
      <trkpt lat="44.12866" lon="7.25233">
        <ele>1822.9</ele>
        <time>2023-02-05T09:52:22Z</time>
      </trkpt>
      <trkpt lat="44.12865" lon="7.25233">
        <ele>1822.8</ele>
        <time>2023-02-05T09:52:23Z</time>
      </trkpt>
      <trkpt lat="44.12865" lon="7.25233">
        <ele>1822.9</ele>
        <time>2023-02-05T09:52:24Z</time>
      </trkpt>
      <trkpt lat="44.12865" lon="7.25233">
        <ele>1822.9</ele>
        <time>2023-02-05T09:52:25Z</time>
      </trkpt>
      <trkpt lat="44.12865" lon="7.25233">
        <ele>1822.8</ele>
        <time>2023-02-05T09:52:26Z</time>
      </trkpt>
      <trkpt lat="44.12865" lon="7.25233">
        <ele>1822.8</ele>
        <time>2023-02-05T09:52:27Z</time>
      </trkpt>
      <trkpt lat="44.12865" lon="7.25233">
        <ele>1822.8</ele>
        <time>2023-02-05T09:52:28Z</time>
      </trkpt>
      <trkpt lat="44.12865" lon="7.25233">
        <ele>1822.8</ele>
        <time>2023-02-05T09:52:29Z</time>
      </trkpt>
      <trkpt lat="44.12865" lon="7.25233">
        <ele>1822.9</ele>
        <time>2023-02-05T09:52:30Z</time>
      </trkpt>
      <trkpt lat="44.12865" lon="7.25233">
        <ele>1822.8</ele>
        <time>2023-02-05T09:52:31Z</time>
      </trkpt>
      <trkpt lat="44.12864" lon="7.25233">
        <ele>1822.8</ele>
        <time>2023-02-05T09:52:32Z</time>
      </trkpt>
      <trkpt lat="44.12864" lon="7.25233">
        <ele>1822.8</ele>
        <time>2023-02-05T09:52:33Z</time>
      </trkpt>
      <trkpt lat="44.12864" lon="7.25233">
        <ele>1822.8</ele>
        <time>2023-02-05T09:52:34Z</time>
      </trkpt>
      <trkpt lat="44.12864" lon="7.25233">
        <ele>1822.8</ele>
        <time>2023-02-05T09:52:35Z</time>
      </trkpt>
      <trkpt lat="44.12864" lon="7.25233">
        <ele>1822.8</ele>
        <time>2023-02-05T09:52:36Z</time>
      </trkpt>
      <trkpt lat="44.12864" lon="7.25233">
        <ele>1822.8</ele>
        <time>2023-02-05T09:52:37Z</time>
      </trkpt>
      <trkpt lat="44.12864" lon="7.25233">
        <ele>1822.8</ele>
        <time>2023-02-05T09:52:38Z</time>
      </trkpt>
      <trkpt lat="44.12864" lon="7.25233">
        <ele>1822.9</ele>
        <time>2023-02-05T09:52:39Z</time>
      </trkpt>
      <trkpt lat="44.12864" lon="7.25233">
        <ele>1823</ele>
        <time>2023-02-05T09:52:40Z</time>
      </trkpt>
      <trkpt lat="44.12863" lon="7.25234">
        <ele>1823</ele>
        <time>2023-02-05T09:52:41Z</time>
      </trkpt>
      <trkpt lat="44.12861" lon="7.25234">
        <ele>1823</ele>
        <time>2023-02-05T09:52:42Z</time>
      </trkpt>
      <trkpt lat="44.1286" lon="7.25233">
        <ele>1823.1</ele>
        <time>2023-02-05T09:52:43Z</time>
      </trkpt>
      <trkpt lat="44.1286" lon="7.25233">
        <ele>1823.2</ele>
        <time>2023-02-05T09:52:44Z</time>
      </trkpt>
      <trkpt lat="44.12859" lon="7.25233">
        <ele>1823.3</ele>
        <time>2023-02-05T09:52:45Z</time>
      </trkpt>
      <trkpt lat="44.12859" lon="7.25233">
        <ele>1823.3</ele>
        <time>2023-02-05T09:52:46Z</time>
      </trkpt>
      <trkpt lat="44.12859" lon="7.25233">
        <ele>1823.2</ele>
        <time>2023-02-05T09:52:47Z</time>
      </trkpt>
      <trkpt lat="44.12858" lon="7.25232">
        <ele>1823.1</ele>
        <time>2023-02-05T09:52:48Z</time>
      </trkpt>
      <trkpt lat="44.12858" lon="7.25232">
        <ele>1823.1</ele>
        <time>2023-02-05T09:52:49Z</time>
      </trkpt>
      <trkpt lat="44.12857" lon="7.25232">
        <ele>1823.2</ele>
        <time>2023-02-05T09:52:50Z</time>
      </trkpt>
      <trkpt lat="44.12857" lon="7.25232">
        <ele>1823.2</ele>
        <time>2023-02-05T09:52:51Z</time>
      </trkpt>
      <trkpt lat="44.12856" lon="7.25232">
        <ele>1823.2</ele>
        <time>2023-02-05T09:52:52Z</time>
      </trkpt>
      <trkpt lat="44.12856" lon="7.25232">
        <ele>1823.2</ele>
        <time>2023-02-05T09:52:53Z</time>
      </trkpt>
      <trkpt lat="44.12855" lon="7.25232">
        <ele>1823.2</ele>
        <time>2023-02-05T09:52:54Z</time>
      </trkpt>
      <trkpt lat="44.12855" lon="7.25231">
        <ele>1823.2</ele>
        <time>2023-02-05T09:52:55Z</time>
      </trkpt>
      <trkpt lat="44.12855" lon="7.25231">
        <ele>1823.3</ele>
        <time>2023-02-05T09:52:56Z</time>
      </trkpt>
      <trkpt lat="44.12855" lon="7.25231">
        <ele>1823.3</ele>
        <time>2023-02-05T09:52:57Z</time>
      </trkpt>
      <trkpt lat="44.12854" lon="7.25231">
        <ele>1823.1</ele>
        <time>2023-02-05T09:52:58Z</time>
      </trkpt>
      <trkpt lat="44.12853" lon="7.2523">
        <ele>1823.1</ele>
        <time>2023-02-05T09:52:59Z</time>
      </trkpt>
      <trkpt lat="44.12854" lon="7.2523">
        <ele>1823</ele>
        <time>2023-02-05T09:53:00Z</time>
      </trkpt>
      <trkpt lat="44.12855" lon="7.25231">
        <ele>1823</ele>
        <time>2023-02-05T09:53:01Z</time>
      </trkpt>
      <trkpt lat="44.12855" lon="7.25231">
        <ele>1823</ele>
        <time>2023-02-05T09:53:02Z</time>
      </trkpt>
      <trkpt lat="44.12855" lon="7.25231">
        <ele>1823.1</ele>
        <time>2023-02-05T09:53:03Z</time>
      </trkpt>
      <trkpt lat="44.12855" lon="7.25231">
        <ele>1823.1</ele>
        <time>2023-02-05T09:53:04Z</time>
      </trkpt>
      <trkpt lat="44.12856" lon="7.25231">
        <ele>1823.1</ele>
        <time>2023-02-05T09:53:05Z</time>
      </trkpt>
      <trkpt lat="44.12857" lon="7.25231">
        <ele>1823.1</ele>
        <time>2023-02-05T09:53:06Z</time>
      </trkpt>
      <trkpt lat="44.12857" lon="7.25231">
        <ele>1823.2</ele>
        <time>2023-02-05T09:53:07Z</time>
      </trkpt>
      <trkpt lat="44.12857" lon="7.25231">
        <ele>1823.2</ele>
        <time>2023-02-05T09:53:08Z</time>
      </trkpt>
      <trkpt lat="44.12858" lon="7.25231">
        <ele>1823.2</ele>
        <time>2023-02-05T09:53:09Z</time>
      </trkpt>
      <trkpt lat="44.12858" lon="7.25231">
        <ele>1823.2</ele>
        <time>2023-02-05T09:53:10Z</time>
      </trkpt>
      <trkpt lat="44.12858" lon="7.25231">
        <ele>1823.1</ele>
        <time>2023-02-05T09:53:11Z</time>
      </trkpt>
      <trkpt lat="44.12859" lon="7.25231">
        <ele>1823.1</ele>
        <time>2023-02-05T09:53:12Z</time>
      </trkpt>
      <trkpt lat="44.12859" lon="7.25231">
        <ele>1823.1</ele>
        <time>2023-02-05T09:53:13Z</time>
      </trkpt>
      <trkpt lat="44.1286" lon="7.25232">
        <ele>1823.1</ele>
        <time>2023-02-05T09:53:14Z</time>
      </trkpt>
      <trkpt lat="44.1286" lon="7.25232">
        <ele>1823.1</ele>
        <time>2023-02-05T09:53:15Z</time>
      </trkpt>
      <trkpt lat="44.1286" lon="7.25232">
        <ele>1823.1</ele>
        <time>2023-02-05T09:53:16Z</time>
      </trkpt>
      <trkpt lat="44.12861" lon="7.25232">
        <ele>1823.1</ele>
        <time>2023-02-05T09:53:17Z</time>
      </trkpt>
      <trkpt lat="44.12861" lon="7.25232">
        <ele>1823.1</ele>
        <time>2023-02-05T09:53:18Z</time>
      </trkpt>
      <trkpt lat="44.12861" lon="7.25233">
        <ele>1823.2</ele>
        <time>2023-02-05T09:53:19Z</time>
      </trkpt>
      <trkpt lat="44.12861" lon="7.25233">
        <ele>1823.2</ele>
        <time>2023-02-05T09:53:20Z</time>
      </trkpt>
      <trkpt lat="44.1286" lon="7.25233">
        <ele>1823.2</ele>
        <time>2023-02-05T09:53:21Z</time>
      </trkpt>
      <trkpt lat="44.1286" lon="7.25233">
        <ele>1823.2</ele>
        <time>2023-02-05T09:53:22Z</time>
      </trkpt>
      <trkpt lat="44.12861" lon="7.25233">
        <ele>1823.3</ele>
        <time>2023-02-05T09:53:23Z</time>
      </trkpt>
      <trkpt lat="44.12861" lon="7.25233">
        <ele>1823.2</ele>
        <time>2023-02-05T09:53:24Z</time>
      </trkpt>
      <trkpt lat="44.12862" lon="7.25233">
        <ele>1823.2</ele>
        <time>2023-02-05T09:53:25Z</time>
      </trkpt>
      <trkpt lat="44.12862" lon="7.25233">
        <ele>1823.2</ele>
        <time>2023-02-05T09:53:26Z</time>
      </trkpt>
      <trkpt lat="44.12862" lon="7.25233">
        <ele>1823.2</ele>
        <time>2023-02-05T09:53:27Z</time>
      </trkpt>
      <trkpt lat="44.12862" lon="7.25233">
        <ele>1823.2</ele>
        <time>2023-02-05T09:53:28Z</time>
      </trkpt>
      <trkpt lat="44.12862" lon="7.25233">
        <ele>1823.2</ele>
        <time>2023-02-05T09:53:29Z</time>
      </trkpt>
      <trkpt lat="44.12862" lon="7.25233">
        <ele>1823.2</ele>
        <time>2023-02-05T09:53:30Z</time>
      </trkpt>
      <trkpt lat="44.12862" lon="7.25233">
        <ele>1823.2</ele>
        <time>2023-02-05T09:53:31Z</time>
      </trkpt>
      <trkpt lat="44.12862" lon="7.25233">
        <ele>1823.3</ele>
        <time>2023-02-05T09:53:32Z</time>
      </trkpt>
      <trkpt lat="44.12862" lon="7.25233">
        <ele>1823.4</ele>
        <time>2023-02-05T09:53:33Z</time>
      </trkpt>
      <trkpt lat="44.12862" lon="7.25234">
        <ele>1823.5</ele>
        <time>2023-02-05T09:53:34Z</time>
      </trkpt>
      <trkpt lat="44.12862" lon="7.25234">
        <ele>1823.6</ele>
        <time>2023-02-05T09:53:35Z</time>
      </trkpt>
      <trkpt lat="44.12862" lon="7.25234">
        <ele>1823.6</ele>
        <time>2023-02-05T09:53:36Z</time>
      </trkpt>
      <trkpt lat="44.12862" lon="7.25234">
        <ele>1823.6</ele>
        <time>2023-02-05T09:53:37Z</time>
      </trkpt>
      <trkpt lat="44.12862" lon="7.25235">
        <ele>1823.6</ele>
        <time>2023-02-05T09:53:38Z</time>
      </trkpt>
      <trkpt lat="44.12862" lon="7.25235">
        <ele>1823.6</ele>
        <time>2023-02-05T09:53:39Z</time>
      </trkpt>
      <trkpt lat="44.12862" lon="7.25235">
        <ele>1823.6</ele>
        <time>2023-02-05T09:53:40Z</time>
      </trkpt>
      <trkpt lat="44.12862" lon="7.25235">
        <ele>1823.6</ele>
        <time>2023-02-05T09:53:41Z</time>
      </trkpt>
      <trkpt lat="44.12862" lon="7.25234">
        <ele>1823.6</ele>
        <time>2023-02-05T09:53:42Z</time>
      </trkpt>
      <trkpt lat="44.12862" lon="7.25234">
        <ele>1823.5</ele>
        <time>2023-02-05T09:53:43Z</time>
      </trkpt>
      <trkpt lat="44.12863" lon="7.25234">
        <ele>1823.5</ele>
        <time>2023-02-05T09:53:44Z</time>
      </trkpt>
      <trkpt lat="44.12863" lon="7.25234">
        <ele>1823.5</ele>
        <time>2023-02-05T09:53:45Z</time>
      </trkpt>
      <trkpt lat="44.12864" lon="7.25235">
        <ele>1823.4</ele>
        <time>2023-02-05T09:53:46Z</time>
      </trkpt>
      <trkpt lat="44.12864" lon="7.25235">
        <ele>1823.4</ele>
        <time>2023-02-05T09:53:47Z</time>
      </trkpt>
      <trkpt lat="44.12864" lon="7.25236">
        <ele>1823.4</ele>
        <time>2023-02-05T09:53:48Z</time>
      </trkpt>
      <trkpt lat="44.12865" lon="7.25236">
        <ele>1823.4</ele>
        <time>2023-02-05T09:53:49Z</time>
      </trkpt>
      <trkpt lat="44.12864" lon="7.25236">
        <ele>1823.4</ele>
        <time>2023-02-05T09:53:50Z</time>
      </trkpt>
      <trkpt lat="44.12865" lon="7.25236">
        <ele>1823.5</ele>
        <time>2023-02-05T09:53:51Z</time>
      </trkpt>
      <trkpt lat="44.12865" lon="7.25237">
        <ele>1823.5</ele>
        <time>2023-02-05T09:53:52Z</time>
      </trkpt>
      <trkpt lat="44.12865" lon="7.25237">
        <ele>1823.5</ele>
        <time>2023-02-05T09:53:53Z</time>
      </trkpt>
      <trkpt lat="44.12866" lon="7.25238">
        <ele>1823.6</ele>
        <time>2023-02-05T09:53:54Z</time>
      </trkpt>
      <trkpt lat="44.12866" lon="7.25239">
        <ele>1823.7</ele>
        <time>2023-02-05T09:53:55Z</time>
      </trkpt>
      <trkpt lat="44.12866" lon="7.25239">
        <ele>1823.8</ele>
        <time>2023-02-05T09:53:56Z</time>
      </trkpt>
      <trkpt lat="44.12866" lon="7.2524">
        <ele>1823.9</ele>
        <time>2023-02-05T09:53:57Z</time>
      </trkpt>
      <trkpt lat="44.12866" lon="7.2524">
        <ele>1823.9</ele>
        <time>2023-02-05T09:53:58Z</time>
      </trkpt>
      <trkpt lat="44.12867" lon="7.25241">
        <ele>1824.2</ele>
        <time>2023-02-05T09:53:59Z</time>
      </trkpt>
      <trkpt lat="44.12867" lon="7.25242">
        <ele>1824.2</ele>
        <time>2023-02-05T09:54:00Z</time>
      </trkpt>
      <trkpt lat="44.12867" lon="7.25243">
        <ele>1824.4</ele>
        <time>2023-02-05T09:54:01Z</time>
      </trkpt>
      <trkpt lat="44.12867" lon="7.25244">
        <ele>1824.5</ele>
        <time>2023-02-05T09:54:02Z</time>
      </trkpt>
      <trkpt lat="44.12868" lon="7.25245">
        <ele>1824.5</ele>
        <time>2023-02-05T09:54:03Z</time>
      </trkpt>
      <trkpt lat="44.12868" lon="7.25245">
        <ele>1824.6</ele>
        <time>2023-02-05T09:54:04Z</time>
      </trkpt>
      <trkpt lat="44.12867" lon="7.25246">
        <ele>1824.7</ele>
        <time>2023-02-05T09:54:05Z</time>
      </trkpt>
      <trkpt lat="44.12867" lon="7.25247">
        <ele>1824.7</ele>
        <time>2023-02-05T09:54:06Z</time>
      </trkpt>
      <trkpt lat="44.12867" lon="7.25247">
        <ele>1824.8</ele>
        <time>2023-02-05T09:54:07Z</time>
      </trkpt>
      <trkpt lat="44.12866" lon="7.25247">
        <ele>1824.9</ele>
        <time>2023-02-05T09:54:08Z</time>
      </trkpt>
      <trkpt lat="44.12867" lon="7.25248">
        <ele>1824.9</ele>
        <time>2023-02-05T09:54:09Z</time>
      </trkpt>
      <trkpt lat="44.12867" lon="7.25249">
        <ele>1824.9</ele>
        <time>2023-02-05T09:54:10Z</time>
      </trkpt>
      <trkpt lat="44.12867" lon="7.2525">
        <ele>1825</ele>
        <time>2023-02-05T09:54:11Z</time>
      </trkpt>
      <trkpt lat="44.12867" lon="7.25251">
        <ele>1825</ele>
        <time>2023-02-05T09:54:12Z</time>
      </trkpt>
      <trkpt lat="44.12867" lon="7.25251">
        <ele>1825.2</ele>
        <time>2023-02-05T09:54:13Z</time>
      </trkpt>
      <trkpt lat="44.12867" lon="7.25252">
        <ele>1825.2</ele>
        <time>2023-02-05T09:54:14Z</time>
      </trkpt>
      <trkpt lat="44.12868" lon="7.25253">
        <ele>1825.3</ele>
        <time>2023-02-05T09:54:15Z</time>
      </trkpt>
      <trkpt lat="44.12868" lon="7.25254">
        <ele>1825.3</ele>
        <time>2023-02-05T09:54:16Z</time>
      </trkpt>
      <trkpt lat="44.12868" lon="7.25255">
        <ele>1825.4</ele>
        <time>2023-02-05T09:54:17Z</time>
      </trkpt>
      <trkpt lat="44.12868" lon="7.25256">
        <ele>1825.4</ele>
        <time>2023-02-05T09:54:18Z</time>
      </trkpt>
      <trkpt lat="44.12867" lon="7.25256">
        <ele>1825.4</ele>
        <time>2023-02-05T09:54:19Z</time>
      </trkpt>
      <trkpt lat="44.12868" lon="7.25258">
        <ele>1825.5</ele>
        <time>2023-02-05T09:54:20Z</time>
      </trkpt>
      <trkpt lat="44.12867" lon="7.25259">
        <ele>1825.5</ele>
        <time>2023-02-05T09:54:21Z</time>
      </trkpt>
      <trkpt lat="44.12867" lon="7.25259">
        <ele>1825.5</ele>
        <time>2023-02-05T09:54:22Z</time>
      </trkpt>
      <trkpt lat="44.12867" lon="7.2526">
        <ele>1825.6</ele>
        <time>2023-02-05T09:54:23Z</time>
      </trkpt>
      <trkpt lat="44.12868" lon="7.25262">
        <ele>1825.7</ele>
        <time>2023-02-05T09:54:24Z</time>
      </trkpt>
      <trkpt lat="44.12868" lon="7.25263">
        <ele>1825.8</ele>
        <time>2023-02-05T09:54:25Z</time>
      </trkpt>
      <trkpt lat="44.12869" lon="7.25264">
        <ele>1825.9</ele>
        <time>2023-02-05T09:54:26Z</time>
      </trkpt>
      <trkpt lat="44.12869" lon="7.25264">
        <ele>1826</ele>
        <time>2023-02-05T09:54:27Z</time>
      </trkpt>
      <trkpt lat="44.1287" lon="7.25265">
        <ele>1826</ele>
        <time>2023-02-05T09:54:28Z</time>
      </trkpt>
      <trkpt lat="44.1287" lon="7.25266">
        <ele>1826.1</ele>
        <time>2023-02-05T09:54:29Z</time>
      </trkpt>
      <trkpt lat="44.1287" lon="7.25267">
        <ele>1826.2</ele>
        <time>2023-02-05T09:54:30Z</time>
      </trkpt>
      <trkpt lat="44.1287" lon="7.25268">
        <ele>1826.3</ele>
        <time>2023-02-05T09:54:31Z</time>
      </trkpt>
      <trkpt lat="44.1287" lon="7.25269">
        <ele>1826.4</ele>
        <time>2023-02-05T09:54:32Z</time>
      </trkpt>
      <trkpt lat="44.1287" lon="7.25269">
        <ele>1826.4</ele>
        <time>2023-02-05T09:54:33Z</time>
      </trkpt>
      <trkpt lat="44.1287" lon="7.2527">
        <ele>1826.5</ele>
        <time>2023-02-05T09:54:34Z</time>
      </trkpt>
      <trkpt lat="44.1287" lon="7.25271">
        <ele>1826.6</ele>
        <time>2023-02-05T09:54:35Z</time>
      </trkpt>
      <trkpt lat="44.1287" lon="7.25272">
        <ele>1826.7</ele>
        <time>2023-02-05T09:54:36Z</time>
      </trkpt>
      <trkpt lat="44.1287" lon="7.25272">
        <ele>1826.7</ele>
        <time>2023-02-05T09:54:37Z</time>
      </trkpt>
      <trkpt lat="44.1287" lon="7.25273">
        <ele>1826.8</ele>
        <time>2023-02-05T09:54:38Z</time>
      </trkpt>
      <trkpt lat="44.1287" lon="7.25274">
        <ele>1826.9</ele>
        <time>2023-02-05T09:54:39Z</time>
      </trkpt>
      <trkpt lat="44.12871" lon="7.25275">
        <ele>1826.9</ele>
        <time>2023-02-05T09:54:40Z</time>
      </trkpt>
      <trkpt lat="44.12871" lon="7.25276">
        <ele>1827</ele>
        <time>2023-02-05T09:54:41Z</time>
      </trkpt>
      <trkpt lat="44.12871" lon="7.25277">
        <ele>1827.2</ele>
        <time>2023-02-05T09:54:42Z</time>
      </trkpt>
      <trkpt lat="44.12871" lon="7.25278">
        <ele>1827.3</ele>
        <time>2023-02-05T09:54:43Z</time>
      </trkpt>
      <trkpt lat="44.12871" lon="7.25278">
        <ele>1827.4</ele>
        <time>2023-02-05T09:54:44Z</time>
      </trkpt>
      <trkpt lat="44.12871" lon="7.25278">
        <ele>1827.5</ele>
        <time>2023-02-05T09:54:45Z</time>
      </trkpt>
      <trkpt lat="44.12871" lon="7.25279">
        <ele>1827.6</ele>
        <time>2023-02-05T09:54:46Z</time>
      </trkpt>
      <trkpt lat="44.1287" lon="7.25279">
        <ele>1827.6</ele>
        <time>2023-02-05T09:54:47Z</time>
      </trkpt>
      <trkpt lat="44.12871" lon="7.25279">
        <ele>1827.7</ele>
        <time>2023-02-05T09:54:48Z</time>
      </trkpt>
      <trkpt lat="44.12871" lon="7.2528">
        <ele>1827.7</ele>
        <time>2023-02-05T09:54:49Z</time>
      </trkpt>
      <trkpt lat="44.12871" lon="7.2528">
        <ele>1827.8</ele>
        <time>2023-02-05T09:54:50Z</time>
      </trkpt>
      <trkpt lat="44.12871" lon="7.25281">
        <ele>1827.9</ele>
        <time>2023-02-05T09:54:51Z</time>
      </trkpt>
      <trkpt lat="44.12871" lon="7.25282">
        <ele>1827.9</ele>
        <time>2023-02-05T09:54:52Z</time>
      </trkpt>
      <trkpt lat="44.1287" lon="7.25282">
        <ele>1828</ele>
        <time>2023-02-05T09:54:53Z</time>
      </trkpt>
      <trkpt lat="44.12869" lon="7.25283">
        <ele>1828.3</ele>
        <time>2023-02-05T09:54:54Z</time>
      </trkpt>
      <trkpt lat="44.1287" lon="7.25284">
        <ele>1828.4</ele>
        <time>2023-02-05T09:54:55Z</time>
      </trkpt>
      <trkpt lat="44.1287" lon="7.25284">
        <ele>1828.5</ele>
        <time>2023-02-05T09:54:56Z</time>
      </trkpt>
      <trkpt lat="44.1287" lon="7.25285">
        <ele>1828.6</ele>
        <time>2023-02-05T09:54:57Z</time>
      </trkpt>
      <trkpt lat="44.12871" lon="7.25286">
        <ele>1828.7</ele>
        <time>2023-02-05T09:54:58Z</time>
      </trkpt>
      <trkpt lat="44.12872" lon="7.25288">
        <ele>1828.8</ele>
        <time>2023-02-05T09:54:59Z</time>
      </trkpt>
      <trkpt lat="44.12873" lon="7.2529">
        <ele>1828.8</ele>
        <time>2023-02-05T09:55:00Z</time>
      </trkpt>
      <trkpt lat="44.12874" lon="7.25292">
        <ele>1828.8</ele>
        <time>2023-02-05T09:55:01Z</time>
      </trkpt>
      <trkpt lat="44.12874" lon="7.25293">
        <ele>1828.8</ele>
        <time>2023-02-05T09:55:02Z</time>
      </trkpt>
      <trkpt lat="44.12874" lon="7.25295">
        <ele>1828.8</ele>
        <time>2023-02-05T09:55:03Z</time>
      </trkpt>
      <trkpt lat="44.12876" lon="7.25297">
        <ele>1828.9</ele>
        <time>2023-02-05T09:55:04Z</time>
      </trkpt>
      <trkpt lat="44.12877" lon="7.25298">
        <ele>1828.9</ele>
        <time>2023-02-05T09:55:05Z</time>
      </trkpt>
      <trkpt lat="44.12878" lon="7.25299">
        <ele>1828.9</ele>
        <time>2023-02-05T09:55:06Z</time>
      </trkpt>
      <trkpt lat="44.12878" lon="7.253">
        <ele>1828.9</ele>
        <time>2023-02-05T09:55:07Z</time>
      </trkpt>
      <trkpt lat="44.12878" lon="7.25301">
        <ele>1829</ele>
        <time>2023-02-05T09:55:08Z</time>
      </trkpt>
      <trkpt lat="44.12879" lon="7.25301">
        <ele>1829.1</ele>
        <time>2023-02-05T09:55:09Z</time>
      </trkpt>
      <trkpt lat="44.12878" lon="7.25302">
        <ele>1829.2</ele>
        <time>2023-02-05T09:55:10Z</time>
      </trkpt>
      <trkpt lat="44.12878" lon="7.25304">
        <ele>1829.3</ele>
        <time>2023-02-05T09:55:11Z</time>
      </trkpt>
      <trkpt lat="44.12879" lon="7.25305">
        <ele>1829.3</ele>
        <time>2023-02-05T09:55:12Z</time>
      </trkpt>
      <trkpt lat="44.1288" lon="7.25307">
        <ele>1829.4</ele>
        <time>2023-02-05T09:55:13Z</time>
      </trkpt>
      <trkpt lat="44.12881" lon="7.25308">
        <ele>1829.5</ele>
        <time>2023-02-05T09:55:14Z</time>
      </trkpt>
      <trkpt lat="44.12881" lon="7.25309">
        <ele>1829.5</ele>
        <time>2023-02-05T09:55:15Z</time>
      </trkpt>
      <trkpt lat="44.12881" lon="7.25311">
        <ele>1829.5</ele>
        <time>2023-02-05T09:55:16Z</time>
      </trkpt>
      <trkpt lat="44.12882" lon="7.25313">
        <ele>1829.5</ele>
        <time>2023-02-05T09:55:17Z</time>
      </trkpt>
      <trkpt lat="44.12883" lon="7.25314">
        <ele>1829.5</ele>
        <time>2023-02-05T09:55:18Z</time>
      </trkpt>
      <trkpt lat="44.12883" lon="7.25316">
        <ele>1829.5</ele>
        <time>2023-02-05T09:55:19Z</time>
      </trkpt>
      <trkpt lat="44.12884" lon="7.25317">
        <ele>1829.5</ele>
        <time>2023-02-05T09:55:20Z</time>
      </trkpt>
      <trkpt lat="44.12884" lon="7.2532">
        <ele>1829.7</ele>
        <time>2023-02-05T09:55:21Z</time>
      </trkpt>
      <trkpt lat="44.12885" lon="7.25321">
        <ele>1829.7</ele>
        <time>2023-02-05T09:55:22Z</time>
      </trkpt>
      <trkpt lat="44.12885" lon="7.25322">
        <ele>1829.8</ele>
        <time>2023-02-05T09:55:23Z</time>
      </trkpt>
      <trkpt lat="44.12886" lon="7.25324">
        <ele>1829.8</ele>
        <time>2023-02-05T09:55:24Z</time>
      </trkpt>
      <trkpt lat="44.12886" lon="7.25325">
        <ele>1830</ele>
        <time>2023-02-05T09:55:25Z</time>
      </trkpt>
      <trkpt lat="44.12887" lon="7.25327">
        <ele>1830.1</ele>
        <time>2023-02-05T09:55:26Z</time>
      </trkpt>
      <trkpt lat="44.12887" lon="7.25328">
        <ele>1830.2</ele>
        <time>2023-02-05T09:55:27Z</time>
      </trkpt>
      <trkpt lat="44.12887" lon="7.25328">
        <ele>1830.3</ele>
        <time>2023-02-05T09:55:28Z</time>
      </trkpt>
      <trkpt lat="44.12888" lon="7.25329">
        <ele>1830.2</ele>
        <time>2023-02-05T09:55:29Z</time>
      </trkpt>
      <trkpt lat="44.12888" lon="7.2533">
        <ele>1830.3</ele>
        <time>2023-02-05T09:55:30Z</time>
      </trkpt>
      <trkpt lat="44.12888" lon="7.25331">
        <ele>1830.3</ele>
        <time>2023-02-05T09:55:31Z</time>
      </trkpt>
      <trkpt lat="44.12889" lon="7.25332">
        <ele>1830.3</ele>
        <time>2023-02-05T09:55:32Z</time>
      </trkpt>
      <trkpt lat="44.1289" lon="7.25333">
        <ele>1830.3</ele>
        <time>2023-02-05T09:55:33Z</time>
      </trkpt>
      <trkpt lat="44.1289" lon="7.25334">
        <ele>1830.4</ele>
        <time>2023-02-05T09:55:34Z</time>
      </trkpt>
      <trkpt lat="44.1289" lon="7.25335">
        <ele>1830.4</ele>
        <time>2023-02-05T09:55:35Z</time>
      </trkpt>
      <trkpt lat="44.1289" lon="7.25335">
        <ele>1830.4</ele>
        <time>2023-02-05T09:55:36Z</time>
      </trkpt>
      <trkpt lat="44.1289" lon="7.25336">
        <ele>1830.5</ele>
        <time>2023-02-05T09:55:37Z</time>
      </trkpt>
      <trkpt lat="44.1289" lon="7.25337">
        <ele>1830.5</ele>
        <time>2023-02-05T09:55:38Z</time>
      </trkpt>
      <trkpt lat="44.12889" lon="7.25337">
        <ele>1830.6</ele>
        <time>2023-02-05T09:55:39Z</time>
      </trkpt>
      <trkpt lat="44.12889" lon="7.25337">
        <ele>1830.7</ele>
        <time>2023-02-05T09:55:40Z</time>
      </trkpt>
      <trkpt lat="44.12888" lon="7.25338">
        <ele>1830.7</ele>
        <time>2023-02-05T09:55:41Z</time>
      </trkpt>
      <trkpt lat="44.12888" lon="7.25339">
        <ele>1830.8</ele>
        <time>2023-02-05T09:55:42Z</time>
      </trkpt>
      <trkpt lat="44.12887" lon="7.25339">
        <ele>1830.8</ele>
        <time>2023-02-05T09:55:43Z</time>
      </trkpt>
      <trkpt lat="44.12887" lon="7.2534">
        <ele>1830.9</ele>
        <time>2023-02-05T09:55:44Z</time>
      </trkpt>
      <trkpt lat="44.12886" lon="7.2534">
        <ele>1830.9</ele>
        <time>2023-02-05T09:55:45Z</time>
      </trkpt>
      <trkpt lat="44.12886" lon="7.25341">
        <ele>1831</ele>
        <time>2023-02-05T09:55:46Z</time>
      </trkpt>
      <trkpt lat="44.12885" lon="7.2534">
        <ele>1831.1</ele>
        <time>2023-02-05T09:55:47Z</time>
      </trkpt>
      <trkpt lat="44.12885" lon="7.2534">
        <ele>1831.2</ele>
        <time>2023-02-05T09:55:48Z</time>
      </trkpt>
      <trkpt lat="44.12883" lon="7.25339">
        <ele>1831.3</ele>
        <time>2023-02-05T09:55:49Z</time>
      </trkpt>
      <trkpt lat="44.12883" lon="7.2534">
        <ele>1831.3</ele>
        <time>2023-02-05T09:55:50Z</time>
      </trkpt>
      <trkpt lat="44.12882" lon="7.2534">
        <ele>1831.4</ele>
        <time>2023-02-05T09:55:51Z</time>
      </trkpt>
      <trkpt lat="44.12881" lon="7.2534">
        <ele>1831.4</ele>
        <time>2023-02-05T09:55:52Z</time>
      </trkpt>
      <trkpt lat="44.12881" lon="7.25341">
        <ele>1831.5</ele>
        <time>2023-02-05T09:55:53Z</time>
      </trkpt>
      <trkpt lat="44.1288" lon="7.25341">
        <ele>1831.6</ele>
        <time>2023-02-05T09:55:54Z</time>
      </trkpt>
      <trkpt lat="44.12879" lon="7.25342">
        <ele>1831.7</ele>
        <time>2023-02-05T09:55:55Z</time>
      </trkpt>
      <trkpt lat="44.12879" lon="7.25342">
        <ele>1831.8</ele>
        <time>2023-02-05T09:55:56Z</time>
      </trkpt>
      <trkpt lat="44.12878" lon="7.25342">
        <ele>1831.9</ele>
        <time>2023-02-05T09:55:57Z</time>
      </trkpt>
      <trkpt lat="44.12878" lon="7.25343">
        <ele>1832</ele>
        <time>2023-02-05T09:55:58Z</time>
      </trkpt>
      <trkpt lat="44.12877" lon="7.25343">
        <ele>1832.1</ele>
        <time>2023-02-05T09:55:59Z</time>
      </trkpt>
      <trkpt lat="44.12877" lon="7.25344">
        <ele>1832.1</ele>
        <time>2023-02-05T09:56:00Z</time>
      </trkpt>
      <trkpt lat="44.12877" lon="7.25345">
        <ele>1832.1</ele>
        <time>2023-02-05T09:56:01Z</time>
      </trkpt>
      <trkpt lat="44.12876" lon="7.25345">
        <ele>1832.2</ele>
        <time>2023-02-05T09:56:02Z</time>
      </trkpt>
      <trkpt lat="44.12877" lon="7.25347">
        <ele>1832.2</ele>
        <time>2023-02-05T09:56:03Z</time>
      </trkpt>
      <trkpt lat="44.12877" lon="7.25348">
        <ele>1832.3</ele>
        <time>2023-02-05T09:56:04Z</time>
      </trkpt>
      <trkpt lat="44.12876" lon="7.25349">
        <ele>1832.5</ele>
        <time>2023-02-05T09:56:05Z</time>
      </trkpt>
      <trkpt lat="44.12875" lon="7.2535">
        <ele>1832.5</ele>
        <time>2023-02-05T09:56:06Z</time>
      </trkpt>
      <trkpt lat="44.12874" lon="7.2535">
        <ele>1832.5</ele>
        <time>2023-02-05T09:56:07Z</time>
      </trkpt>
      <trkpt lat="44.12874" lon="7.25351">
        <ele>1832.7</ele>
        <time>2023-02-05T09:56:08Z</time>
      </trkpt>
      <trkpt lat="44.12874" lon="7.25352">
        <ele>1832.8</ele>
        <time>2023-02-05T09:56:09Z</time>
      </trkpt>
      <trkpt lat="44.12874" lon="7.25353">
        <ele>1833</ele>
        <time>2023-02-05T09:56:10Z</time>
      </trkpt>
      <trkpt lat="44.12873" lon="7.25353">
        <ele>1833.1</ele>
        <time>2023-02-05T09:56:11Z</time>
      </trkpt>
      <trkpt lat="44.12872" lon="7.25353">
        <ele>1833.1</ele>
        <time>2023-02-05T09:56:12Z</time>
      </trkpt>
      <trkpt lat="44.12872" lon="7.25354">
        <ele>1833.3</ele>
        <time>2023-02-05T09:56:13Z</time>
      </trkpt>
      <trkpt lat="44.12871" lon="7.25355">
        <ele>1833.4</ele>
        <time>2023-02-05T09:56:14Z</time>
      </trkpt>
      <trkpt lat="44.12872" lon="7.25357">
        <ele>1833.5</ele>
        <time>2023-02-05T09:56:15Z</time>
      </trkpt>
      <trkpt lat="44.12872" lon="7.25359">
        <ele>1833.5</ele>
        <time>2023-02-05T09:56:16Z</time>
      </trkpt>
      <trkpt lat="44.12872" lon="7.25359">
        <ele>1833.5</ele>
        <time>2023-02-05T09:56:17Z</time>
      </trkpt>
      <trkpt lat="44.12871" lon="7.2536">
        <ele>1833.5</ele>
        <time>2023-02-05T09:56:18Z</time>
      </trkpt>
      <trkpt lat="44.1287" lon="7.2536">
        <ele>1833.6</ele>
        <time>2023-02-05T09:56:19Z</time>
      </trkpt>
      <trkpt lat="44.1287" lon="7.25361">
        <ele>1833.7</ele>
        <time>2023-02-05T09:56:20Z</time>
      </trkpt>
      <trkpt lat="44.1287" lon="7.25363">
        <ele>1833.7</ele>
        <time>2023-02-05T09:56:21Z</time>
      </trkpt>
      <trkpt lat="44.1287" lon="7.25364">
        <ele>1833.7</ele>
        <time>2023-02-05T09:56:22Z</time>
      </trkpt>
      <trkpt lat="44.1287" lon="7.25365">
        <ele>1833.7</ele>
        <time>2023-02-05T09:56:23Z</time>
      </trkpt>
      <trkpt lat="44.1287" lon="7.25366">
        <ele>1833.7</ele>
        <time>2023-02-05T09:56:24Z</time>
      </trkpt>
      <trkpt lat="44.1287" lon="7.25367">
        <ele>1833.8</ele>
        <time>2023-02-05T09:56:25Z</time>
      </trkpt>
      <trkpt lat="44.12869" lon="7.25368">
        <ele>1833.8</ele>
        <time>2023-02-05T09:56:26Z</time>
      </trkpt>
      <trkpt lat="44.12868" lon="7.25368">
        <ele>1833.9</ele>
        <time>2023-02-05T09:56:27Z</time>
      </trkpt>
      <trkpt lat="44.12867" lon="7.25369">
        <ele>1834</ele>
        <time>2023-02-05T09:56:28Z</time>
      </trkpt>
      <trkpt lat="44.12866" lon="7.2537">
        <ele>1834.1</ele>
        <time>2023-02-05T09:56:29Z</time>
      </trkpt>
      <trkpt lat="44.12866" lon="7.25371">
        <ele>1834.2</ele>
        <time>2023-02-05T09:56:30Z</time>
      </trkpt>
      <trkpt lat="44.12865" lon="7.25371">
        <ele>1834.4</ele>
        <time>2023-02-05T09:56:31Z</time>
      </trkpt>
      <trkpt lat="44.12865" lon="7.25372">
        <ele>1834.5</ele>
        <time>2023-02-05T09:56:32Z</time>
      </trkpt>
      <trkpt lat="44.12864" lon="7.25373">
        <ele>1834.5</ele>
        <time>2023-02-05T09:56:33Z</time>
      </trkpt>
      <trkpt lat="44.12864" lon="7.25374">
        <ele>1834.6</ele>
        <time>2023-02-05T09:56:34Z</time>
      </trkpt>
      <trkpt lat="44.12864" lon="7.25375">
        <ele>1834.6</ele>
        <time>2023-02-05T09:56:35Z</time>
      </trkpt>
      <trkpt lat="44.12864" lon="7.25376">
        <ele>1834.7</ele>
        <time>2023-02-05T09:56:36Z</time>
      </trkpt>
      <trkpt lat="44.12863" lon="7.25377">
        <ele>1834.7</ele>
        <time>2023-02-05T09:56:37Z</time>
      </trkpt>
      <trkpt lat="44.12862" lon="7.25377">
        <ele>1834.8</ele>
        <time>2023-02-05T09:56:38Z</time>
      </trkpt>
      <trkpt lat="44.12862" lon="7.25378">
        <ele>1834.9</ele>
        <time>2023-02-05T09:56:39Z</time>
      </trkpt>
      <trkpt lat="44.12861" lon="7.25379">
        <ele>1834.9</ele>
        <time>2023-02-05T09:56:40Z</time>
      </trkpt>
      <trkpt lat="44.12861" lon="7.25379">
        <ele>1834.9</ele>
        <time>2023-02-05T09:56:41Z</time>
      </trkpt>
      <trkpt lat="44.1286" lon="7.2538">
        <ele>1835</ele>
        <time>2023-02-05T09:56:42Z</time>
      </trkpt>
      <trkpt lat="44.1286" lon="7.2538">
        <ele>1835</ele>
        <time>2023-02-05T09:56:43Z</time>
      </trkpt>
      <trkpt lat="44.12858" lon="7.2538">
        <ele>1835.1</ele>
        <time>2023-02-05T09:56:44Z</time>
      </trkpt>
      <trkpt lat="44.12857" lon="7.25381">
        <ele>1835.1</ele>
        <time>2023-02-05T09:56:45Z</time>
      </trkpt>
      <trkpt lat="44.12857" lon="7.25382">
        <ele>1835.2</ele>
        <time>2023-02-05T09:56:46Z</time>
      </trkpt>
      <trkpt lat="44.12857" lon="7.25383">
        <ele>1835.2</ele>
        <time>2023-02-05T09:56:47Z</time>
      </trkpt>
      <trkpt lat="44.12856" lon="7.25384">
        <ele>1835.3</ele>
        <time>2023-02-05T09:56:48Z</time>
      </trkpt>
      <trkpt lat="44.12857" lon="7.25386">
        <ele>1835.3</ele>
        <time>2023-02-05T09:56:49Z</time>
      </trkpt>
      <trkpt lat="44.12857" lon="7.25387">
        <ele>1835.4</ele>
        <time>2023-02-05T09:56:50Z</time>
      </trkpt>
      <trkpt lat="44.12856" lon="7.25388">
        <ele>1835.5</ele>
        <time>2023-02-05T09:56:51Z</time>
      </trkpt>
      <trkpt lat="44.12856" lon="7.25389">
        <ele>1835.5</ele>
        <time>2023-02-05T09:56:52Z</time>
      </trkpt>
      <trkpt lat="44.12856" lon="7.2539">
        <ele>1835.5</ele>
        <time>2023-02-05T09:56:53Z</time>
      </trkpt>
      <trkpt lat="44.12856" lon="7.25392">
        <ele>1835.4</ele>
        <time>2023-02-05T09:56:54Z</time>
      </trkpt>
      <trkpt lat="44.12857" lon="7.25394">
        <ele>1835.5</ele>
        <time>2023-02-05T09:56:55Z</time>
      </trkpt>
      <trkpt lat="44.12857" lon="7.25396">
        <ele>1835.5</ele>
        <time>2023-02-05T09:56:56Z</time>
      </trkpt>
      <trkpt lat="44.12857" lon="7.25397">
        <ele>1835.5</ele>
        <time>2023-02-05T09:56:57Z</time>
      </trkpt>
      <trkpt lat="44.12858" lon="7.25399">
        <ele>1835.6</ele>
        <time>2023-02-05T09:56:58Z</time>
      </trkpt>
      <trkpt lat="44.12858" lon="7.25401">
        <ele>1835.7</ele>
        <time>2023-02-05T09:56:59Z</time>
      </trkpt>
      <trkpt lat="44.12858" lon="7.25402">
        <ele>1835.8</ele>
        <time>2023-02-05T09:57:00Z</time>
      </trkpt>
      <trkpt lat="44.12859" lon="7.25403">
        <ele>1835.9</ele>
        <time>2023-02-05T09:57:01Z</time>
      </trkpt>
      <trkpt lat="44.1286" lon="7.25405">
        <ele>1836</ele>
        <time>2023-02-05T09:57:02Z</time>
      </trkpt>
      <trkpt lat="44.12859" lon="7.25406">
        <ele>1836</ele>
        <time>2023-02-05T09:57:03Z</time>
      </trkpt>
      <trkpt lat="44.12858" lon="7.25406">
        <ele>1836.2</ele>
        <time>2023-02-05T09:57:04Z</time>
      </trkpt>
      <trkpt lat="44.12858" lon="7.25407">
        <ele>1836.3</ele>
        <time>2023-02-05T09:57:05Z</time>
      </trkpt>
      <trkpt lat="44.12857" lon="7.25408">
        <ele>1836.4</ele>
        <time>2023-02-05T09:57:06Z</time>
      </trkpt>
      <trkpt lat="44.12858" lon="7.2541">
        <ele>1836.5</ele>
        <time>2023-02-05T09:57:07Z</time>
      </trkpt>
      <trkpt lat="44.12859" lon="7.25412">
        <ele>1836.5</ele>
        <time>2023-02-05T09:57:08Z</time>
      </trkpt>
      <trkpt lat="44.12859" lon="7.25413">
        <ele>1836.6</ele>
        <time>2023-02-05T09:57:09Z</time>
      </trkpt>
      <trkpt lat="44.1286" lon="7.25415">
        <ele>1836.7</ele>
        <time>2023-02-05T09:57:10Z</time>
      </trkpt>
      <trkpt lat="44.12861" lon="7.25416">
        <ele>1836.7</ele>
        <time>2023-02-05T09:57:11Z</time>
      </trkpt>
      <trkpt lat="44.12861" lon="7.25417">
        <ele>1836.7</ele>
        <time>2023-02-05T09:57:12Z</time>
      </trkpt>
      <trkpt lat="44.12862" lon="7.25418">
        <ele>1836.8</ele>
        <time>2023-02-05T09:57:13Z</time>
      </trkpt>
      <trkpt lat="44.12863" lon="7.25419">
        <ele>1836.9</ele>
        <time>2023-02-05T09:57:14Z</time>
      </trkpt>
      <trkpt lat="44.12863" lon="7.2542">
        <ele>1836.9</ele>
        <time>2023-02-05T09:57:15Z</time>
      </trkpt>
      <trkpt lat="44.12865" lon="7.25421">
        <ele>1837</ele>
        <time>2023-02-05T09:57:16Z</time>
      </trkpt>
      <trkpt lat="44.12866" lon="7.25422">
        <ele>1837</ele>
        <time>2023-02-05T09:57:17Z</time>
      </trkpt>
      <trkpt lat="44.12867" lon="7.25423">
        <ele>1837.1</ele>
        <time>2023-02-05T09:57:18Z</time>
      </trkpt>
      <trkpt lat="44.12868" lon="7.25424">
        <ele>1837.2</ele>
        <time>2023-02-05T09:57:19Z</time>
      </trkpt>
      <trkpt lat="44.12869" lon="7.25425">
        <ele>1837.3</ele>
        <time>2023-02-05T09:57:20Z</time>
      </trkpt>
      <trkpt lat="44.1287" lon="7.25425">
        <ele>1837.3</ele>
        <time>2023-02-05T09:57:21Z</time>
      </trkpt>
      <trkpt lat="44.1287" lon="7.25425">
        <ele>1837.4</ele>
        <time>2023-02-05T09:57:22Z</time>
      </trkpt>
      <trkpt lat="44.12871" lon="7.25426">
        <ele>1837.5</ele>
        <time>2023-02-05T09:57:23Z</time>
      </trkpt>
      <trkpt lat="44.12872" lon="7.25426">
        <ele>1837.5</ele>
        <time>2023-02-05T09:57:24Z</time>
      </trkpt>
      <trkpt lat="44.12873" lon="7.25425">
        <ele>1837.6</ele>
        <time>2023-02-05T09:57:25Z</time>
      </trkpt>
      <trkpt lat="44.12874" lon="7.25424">
        <ele>1837.7</ele>
        <time>2023-02-05T09:57:26Z</time>
      </trkpt>
      <trkpt lat="44.12874" lon="7.25423">
        <ele>1837.8</ele>
        <time>2023-02-05T09:57:27Z</time>
      </trkpt>
      <trkpt lat="44.12874" lon="7.25423">
        <ele>1837.9</ele>
        <time>2023-02-05T09:57:28Z</time>
      </trkpt>
      <trkpt lat="44.12875" lon="7.25422">
        <ele>1837.9</ele>
        <time>2023-02-05T09:57:29Z</time>
      </trkpt>
      <trkpt lat="44.12875" lon="7.25421">
        <ele>1838</ele>
        <time>2023-02-05T09:57:30Z</time>
      </trkpt>
      <trkpt lat="44.12876" lon="7.25419">
        <ele>1838.1</ele>
        <time>2023-02-05T09:57:31Z</time>
      </trkpt>
      <trkpt lat="44.12876" lon="7.25419">
        <ele>1838.2</ele>
        <time>2023-02-05T09:57:32Z</time>
      </trkpt>
      <trkpt lat="44.12876" lon="7.25418">
        <ele>1838.3</ele>
        <time>2023-02-05T09:57:33Z</time>
      </trkpt>
      <trkpt lat="44.12877" lon="7.25417">
        <ele>1838.3</ele>
        <time>2023-02-05T09:57:34Z</time>
      </trkpt>
      <trkpt lat="44.12877" lon="7.25416">
        <ele>1838.4</ele>
        <time>2023-02-05T09:57:35Z</time>
      </trkpt>
      <trkpt lat="44.12878" lon="7.25416">
        <ele>1838.6</ele>
        <time>2023-02-05T09:57:36Z</time>
      </trkpt>
      <trkpt lat="44.12879" lon="7.25415">
        <ele>1838.6</ele>
        <time>2023-02-05T09:57:37Z</time>
      </trkpt>
      <trkpt lat="44.1288" lon="7.25414">
        <ele>1838.6</ele>
        <time>2023-02-05T09:57:38Z</time>
      </trkpt>
      <trkpt lat="44.1288" lon="7.25413">
        <ele>1838.6</ele>
        <time>2023-02-05T09:57:39Z</time>
      </trkpt>
      <trkpt lat="44.1288" lon="7.25412">
        <ele>1838.7</ele>
        <time>2023-02-05T09:57:40Z</time>
      </trkpt>
      <trkpt lat="44.12881" lon="7.25411">
        <ele>1838.7</ele>
        <time>2023-02-05T09:57:41Z</time>
      </trkpt>
      <trkpt lat="44.12881" lon="7.25411">
        <ele>1838.8</ele>
        <time>2023-02-05T09:57:42Z</time>
      </trkpt>
      <trkpt lat="44.12881" lon="7.2541">
        <ele>1839</ele>
        <time>2023-02-05T09:57:43Z</time>
      </trkpt>
      <trkpt lat="44.12882" lon="7.25409">
        <ele>1839.1</ele>
        <time>2023-02-05T09:57:44Z</time>
      </trkpt>
      <trkpt lat="44.12882" lon="7.25408">
        <ele>1839.3</ele>
        <time>2023-02-05T09:57:45Z</time>
      </trkpt>
      <trkpt lat="44.12883" lon="7.25408">
        <ele>1839.4</ele>
        <time>2023-02-05T09:57:46Z</time>
      </trkpt>
      <trkpt lat="44.12884" lon="7.25407">
        <ele>1839.4</ele>
        <time>2023-02-05T09:57:47Z</time>
      </trkpt>
      <trkpt lat="44.12884" lon="7.25407">
        <ele>1839.5</ele>
        <time>2023-02-05T09:57:48Z</time>
      </trkpt>
      <trkpt lat="44.12884" lon="7.25406">
        <ele>1839.6</ele>
        <time>2023-02-05T09:57:49Z</time>
      </trkpt>
      <trkpt lat="44.12884" lon="7.25405">
        <ele>1839.6</ele>
        <time>2023-02-05T09:57:50Z</time>
      </trkpt>
      <trkpt lat="44.12885" lon="7.25404">
        <ele>1839.5</ele>
        <time>2023-02-05T09:57:51Z</time>
      </trkpt>
      <trkpt lat="44.12885" lon="7.25404">
        <ele>1839.6</ele>
        <time>2023-02-05T09:57:52Z</time>
      </trkpt>
      <trkpt lat="44.12886" lon="7.25403">
        <ele>1839.7</ele>
        <time>2023-02-05T09:57:53Z</time>
      </trkpt>
      <trkpt lat="44.12886" lon="7.25402">
        <ele>1839.7</ele>
        <time>2023-02-05T09:57:54Z</time>
      </trkpt>
      <trkpt lat="44.12887" lon="7.25402">
        <ele>1839.8</ele>
        <time>2023-02-05T09:57:55Z</time>
      </trkpt>
      <trkpt lat="44.12887" lon="7.25402">
        <ele>1840</ele>
        <time>2023-02-05T09:57:56Z</time>
      </trkpt>
      <trkpt lat="44.12888" lon="7.25401">
        <ele>1840</ele>
        <time>2023-02-05T09:57:57Z</time>
      </trkpt>
      <trkpt lat="44.12888" lon="7.25401">
        <ele>1840.1</ele>
        <time>2023-02-05T09:57:58Z</time>
      </trkpt>
      <trkpt lat="44.12888" lon="7.254">
        <ele>1840.1</ele>
        <time>2023-02-05T09:57:59Z</time>
      </trkpt>
      <trkpt lat="44.12889" lon="7.25399">
        <ele>1840.2</ele>
        <time>2023-02-05T09:58:00Z</time>
      </trkpt>
      <trkpt lat="44.12889" lon="7.25399">
        <ele>1840.3</ele>
        <time>2023-02-05T09:58:01Z</time>
      </trkpt>
      <trkpt lat="44.1289" lon="7.25398">
        <ele>1840.5</ele>
        <time>2023-02-05T09:58:02Z</time>
      </trkpt>
      <trkpt lat="44.1289" lon="7.25398">
        <ele>1840.5</ele>
        <time>2023-02-05T09:58:03Z</time>
      </trkpt>
      <trkpt lat="44.12891" lon="7.25397">
        <ele>1840.6</ele>
        <time>2023-02-05T09:58:04Z</time>
      </trkpt>
      <trkpt lat="44.12891" lon="7.25396">
        <ele>1840.6</ele>
        <time>2023-02-05T09:58:05Z</time>
      </trkpt>
      <trkpt lat="44.12892" lon="7.25395">
        <ele>1840.7</ele>
        <time>2023-02-05T09:58:06Z</time>
      </trkpt>
      <trkpt lat="44.12892" lon="7.25394">
        <ele>1840.7</ele>
        <time>2023-02-05T09:58:07Z</time>
      </trkpt>
      <trkpt lat="44.12892" lon="7.25393">
        <ele>1840.7</ele>
        <time>2023-02-05T09:58:08Z</time>
      </trkpt>
      <trkpt lat="44.12892" lon="7.25392">
        <ele>1840.8</ele>
        <time>2023-02-05T09:58:09Z</time>
      </trkpt>
      <trkpt lat="44.12892" lon="7.25391">
        <ele>1840.8</ele>
        <time>2023-02-05T09:58:10Z</time>
      </trkpt>
      <trkpt lat="44.12893" lon="7.2539">
        <ele>1840.8</ele>
        <time>2023-02-05T09:58:11Z</time>
      </trkpt>
      <trkpt lat="44.12893" lon="7.25389">
        <ele>1840.9</ele>
        <time>2023-02-05T09:58:12Z</time>
      </trkpt>
      <trkpt lat="44.12894" lon="7.25389">
        <ele>1841.1</ele>
        <time>2023-02-05T09:58:13Z</time>
      </trkpt>
      <trkpt lat="44.12894" lon="7.25387">
        <ele>1841.2</ele>
        <time>2023-02-05T09:58:14Z</time>
      </trkpt>
      <trkpt lat="44.12895" lon="7.25387">
        <ele>1841.3</ele>
        <time>2023-02-05T09:58:15Z</time>
      </trkpt>
      <trkpt lat="44.12896" lon="7.25387">
        <ele>1841.3</ele>
        <time>2023-02-05T09:58:16Z</time>
      </trkpt>
      <trkpt lat="44.12897" lon="7.25386">
        <ele>1841.6</ele>
        <time>2023-02-05T09:58:17Z</time>
      </trkpt>
      <trkpt lat="44.12897" lon="7.25385">
        <ele>1841.7</ele>
        <time>2023-02-05T09:58:18Z</time>
      </trkpt>
      <trkpt lat="44.12898" lon="7.25385">
        <ele>1841.8</ele>
        <time>2023-02-05T09:58:19Z</time>
      </trkpt>
      <trkpt lat="44.12899" lon="7.25385">
        <ele>1841.8</ele>
        <time>2023-02-05T09:58:20Z</time>
      </trkpt>
      <trkpt lat="44.12899" lon="7.25384">
        <ele>1841.9</ele>
        <time>2023-02-05T09:58:21Z</time>
      </trkpt>
      <trkpt lat="44.12899" lon="7.25384">
        <ele>1841.9</ele>
        <time>2023-02-05T09:58:22Z</time>
      </trkpt>
      <trkpt lat="44.129" lon="7.25384">
        <ele>1841.9</ele>
        <time>2023-02-05T09:58:23Z</time>
      </trkpt>
      <trkpt lat="44.129" lon="7.25383">
        <ele>1841.9</ele>
        <time>2023-02-05T09:58:24Z</time>
      </trkpt>
      <trkpt lat="44.12901" lon="7.25383">
        <ele>1841.9</ele>
        <time>2023-02-05T09:58:25Z</time>
      </trkpt>
      <trkpt lat="44.12902" lon="7.25384">
        <ele>1841.9</ele>
        <time>2023-02-05T09:58:26Z</time>
      </trkpt>
      <trkpt lat="44.12903" lon="7.25383">
        <ele>1842.1</ele>
        <time>2023-02-05T09:58:27Z</time>
      </trkpt>
      <trkpt lat="44.12903" lon="7.25383">
        <ele>1842.1</ele>
        <time>2023-02-05T09:58:28Z</time>
      </trkpt>
      <trkpt lat="44.12904" lon="7.25383">
        <ele>1842.1</ele>
        <time>2023-02-05T09:58:29Z</time>
      </trkpt>
      <trkpt lat="44.12905" lon="7.25382">
        <ele>1842.2</ele>
        <time>2023-02-05T09:58:30Z</time>
      </trkpt>
      <trkpt lat="44.12905" lon="7.25382">
        <ele>1842.2</ele>
        <time>2023-02-05T09:58:31Z</time>
      </trkpt>
      <trkpt lat="44.12906" lon="7.2538">
        <ele>1842.2</ele>
        <time>2023-02-05T09:58:32Z</time>
      </trkpt>
      <trkpt lat="44.12907" lon="7.25379">
        <ele>1842.3</ele>
        <time>2023-02-05T09:58:33Z</time>
      </trkpt>
      <trkpt lat="44.12907" lon="7.25378">
        <ele>1842.3</ele>
        <time>2023-02-05T09:58:34Z</time>
      </trkpt>
      <trkpt lat="44.12908" lon="7.25378">
        <ele>1842.3</ele>
        <time>2023-02-05T09:58:35Z</time>
      </trkpt>
      <trkpt lat="44.12909" lon="7.25377">
        <ele>1842.4</ele>
        <time>2023-02-05T09:58:36Z</time>
      </trkpt>
      <trkpt lat="44.1291" lon="7.25377">
        <ele>1842.5</ele>
        <time>2023-02-05T09:58:37Z</time>
      </trkpt>
      <trkpt lat="44.12911" lon="7.25377">
        <ele>1842.6</ele>
        <time>2023-02-05T09:58:38Z</time>
      </trkpt>
      <trkpt lat="44.12912" lon="7.25377">
        <ele>1842.7</ele>
        <time>2023-02-05T09:58:39Z</time>
      </trkpt>
      <trkpt lat="44.12913" lon="7.25376">
        <ele>1842.8</ele>
        <time>2023-02-05T09:58:40Z</time>
      </trkpt>
      <trkpt lat="44.12913" lon="7.25375">
        <ele>1842.9</ele>
        <time>2023-02-05T09:58:41Z</time>
      </trkpt>
      <trkpt lat="44.12913" lon="7.25374">
        <ele>1843</ele>
        <time>2023-02-05T09:58:42Z</time>
      </trkpt>
      <trkpt lat="44.12914" lon="7.25373">
        <ele>1843.3</ele>
        <time>2023-02-05T09:58:43Z</time>
      </trkpt>
      <trkpt lat="44.12915" lon="7.25372">
        <ele>1843.3</ele>
        <time>2023-02-05T09:58:44Z</time>
      </trkpt>
      <trkpt lat="44.12915" lon="7.25372">
        <ele>1843.3</ele>
        <time>2023-02-05T09:58:45Z</time>
      </trkpt>
      <trkpt lat="44.12916" lon="7.25371">
        <ele>1843.4</ele>
        <time>2023-02-05T09:58:46Z</time>
      </trkpt>
      <trkpt lat="44.12917" lon="7.2537">
        <ele>1843.5</ele>
        <time>2023-02-05T09:58:47Z</time>
      </trkpt>
      <trkpt lat="44.12917" lon="7.25369">
        <ele>1843.5</ele>
        <time>2023-02-05T09:58:48Z</time>
      </trkpt>
      <trkpt lat="44.12917" lon="7.25368">
        <ele>1843.6</ele>
        <time>2023-02-05T09:58:49Z</time>
      </trkpt>
      <trkpt lat="44.12918" lon="7.25368">
        <ele>1843.6</ele>
        <time>2023-02-05T09:58:50Z</time>
      </trkpt>
      <trkpt lat="44.12918" lon="7.25367">
        <ele>1843.6</ele>
        <time>2023-02-05T09:58:51Z</time>
      </trkpt>
      <trkpt lat="44.12918" lon="7.25366">
        <ele>1843.8</ele>
        <time>2023-02-05T09:58:52Z</time>
      </trkpt>
      <trkpt lat="44.12919" lon="7.25366">
        <ele>1843.9</ele>
        <time>2023-02-05T09:58:53Z</time>
      </trkpt>
      <trkpt lat="44.1292" lon="7.25366">
        <ele>1843.9</ele>
        <time>2023-02-05T09:58:54Z</time>
      </trkpt>
      <trkpt lat="44.1292" lon="7.25365">
        <ele>1843.9</ele>
        <time>2023-02-05T09:58:55Z</time>
      </trkpt>
      <trkpt lat="44.12921" lon="7.25365">
        <ele>1843.9</ele>
        <time>2023-02-05T09:58:56Z</time>
      </trkpt>
      <trkpt lat="44.12922" lon="7.25365">
        <ele>1843.9</ele>
        <time>2023-02-05T09:58:57Z</time>
      </trkpt>
      <trkpt lat="44.12923" lon="7.25364">
        <ele>1843.9</ele>
        <time>2023-02-05T09:58:58Z</time>
      </trkpt>
      <trkpt lat="44.12923" lon="7.25364">
        <ele>1844</ele>
        <time>2023-02-05T09:58:59Z</time>
      </trkpt>
      <trkpt lat="44.12924" lon="7.25363">
        <ele>1844.1</ele>
        <time>2023-02-05T09:59:00Z</time>
      </trkpt>
      <trkpt lat="44.12924" lon="7.25363">
        <ele>1844.2</ele>
        <time>2023-02-05T09:59:01Z</time>
      </trkpt>
      <trkpt lat="44.12926" lon="7.25362">
        <ele>1844.2</ele>
        <time>2023-02-05T09:59:02Z</time>
      </trkpt>
      <trkpt lat="44.12927" lon="7.25362">
        <ele>1844.3</ele>
        <time>2023-02-05T09:59:03Z</time>
      </trkpt>
      <trkpt lat="44.12928" lon="7.25362">
        <ele>1844.4</ele>
        <time>2023-02-05T09:59:04Z</time>
      </trkpt>
      <trkpt lat="44.12929" lon="7.25362">
        <ele>1844.4</ele>
        <time>2023-02-05T09:59:05Z</time>
      </trkpt>
      <trkpt lat="44.12929" lon="7.25361">
        <ele>1844.4</ele>
        <time>2023-02-05T09:59:06Z</time>
      </trkpt>
      <trkpt lat="44.12929" lon="7.25361">
        <ele>1844.4</ele>
        <time>2023-02-05T09:59:07Z</time>
      </trkpt>
      <trkpt lat="44.1293" lon="7.2536">
        <ele>1844.4</ele>
        <time>2023-02-05T09:59:08Z</time>
      </trkpt>
      <trkpt lat="44.12931" lon="7.2536">
        <ele>1844.6</ele>
        <time>2023-02-05T09:59:09Z</time>
      </trkpt>
      <trkpt lat="44.1293" lon="7.25359">
        <ele>1844.7</ele>
        <time>2023-02-05T09:59:10Z</time>
      </trkpt>
      <trkpt lat="44.12931" lon="7.25358">
        <ele>1844.9</ele>
        <time>2023-02-05T09:59:11Z</time>
      </trkpt>
      <trkpt lat="44.12931" lon="7.25357">
        <ele>1844.9</ele>
        <time>2023-02-05T09:59:12Z</time>
      </trkpt>
      <trkpt lat="44.12932" lon="7.25356">
        <ele>1845</ele>
        <time>2023-02-05T09:59:13Z</time>
      </trkpt>
      <trkpt lat="44.12933" lon="7.25356">
        <ele>1845</ele>
        <time>2023-02-05T09:59:14Z</time>
      </trkpt>
      <trkpt lat="44.12935" lon="7.25356">
        <ele>1845.1</ele>
        <time>2023-02-05T09:59:15Z</time>
      </trkpt>
      <trkpt lat="44.12935" lon="7.25355">
        <ele>1845.1</ele>
        <time>2023-02-05T09:59:16Z</time>
      </trkpt>
      <trkpt lat="44.12935" lon="7.25355">
        <ele>1845.1</ele>
        <time>2023-02-05T09:59:17Z</time>
      </trkpt>
      <trkpt lat="44.12935" lon="7.25354">
        <ele>1845.2</ele>
        <time>2023-02-05T09:59:18Z</time>
      </trkpt>
      <trkpt lat="44.12936" lon="7.25353">
        <ele>1845.2</ele>
        <time>2023-02-05T09:59:19Z</time>
      </trkpt>
      <trkpt lat="44.12937" lon="7.25352">
        <ele>1845.3</ele>
        <time>2023-02-05T09:59:20Z</time>
      </trkpt>
      <trkpt lat="44.12937" lon="7.25352">
        <ele>1845.3</ele>
        <time>2023-02-05T09:59:21Z</time>
      </trkpt>
      <trkpt lat="44.12939" lon="7.25351">
        <ele>1845.4</ele>
        <time>2023-02-05T09:59:22Z</time>
      </trkpt>
      <trkpt lat="44.12941" lon="7.2535">
        <ele>1845.5</ele>
        <time>2023-02-05T09:59:23Z</time>
      </trkpt>
      <trkpt lat="44.12942" lon="7.25349">
        <ele>1845.6</ele>
        <time>2023-02-05T09:59:24Z</time>
      </trkpt>
      <trkpt lat="44.12942" lon="7.25348">
        <ele>1845.7</ele>
        <time>2023-02-05T09:59:25Z</time>
      </trkpt>
      <trkpt lat="44.12942" lon="7.25347">
        <ele>1845.8</ele>
        <time>2023-02-05T09:59:26Z</time>
      </trkpt>
      <trkpt lat="44.12942" lon="7.25346">
        <ele>1845.8</ele>
        <time>2023-02-05T09:59:27Z</time>
      </trkpt>
      <trkpt lat="44.12942" lon="7.25345">
        <ele>1845.9</ele>
        <time>2023-02-05T09:59:28Z</time>
      </trkpt>
      <trkpt lat="44.12942" lon="7.25344">
        <ele>1845.8</ele>
        <time>2023-02-05T09:59:29Z</time>
      </trkpt>
      <trkpt lat="44.12942" lon="7.25344">
        <ele>1845.9</ele>
        <time>2023-02-05T09:59:30Z</time>
      </trkpt>
      <trkpt lat="44.12943" lon="7.25343">
        <ele>1845.9</ele>
        <time>2023-02-05T09:59:31Z</time>
      </trkpt>
      <trkpt lat="44.12943" lon="7.25339">
        <ele>1846</ele>
        <time>2023-02-05T09:59:32Z</time>
      </trkpt>
      <trkpt lat="44.12942" lon="7.25337">
        <ele>1846</ele>
        <time>2023-02-05T09:59:33Z</time>
      </trkpt>
      <trkpt lat="44.12942" lon="7.25335">
        <ele>1846.1</ele>
        <time>2023-02-05T09:59:34Z</time>
      </trkpt>
      <trkpt lat="44.12941" lon="7.25334">
        <ele>1846.2</ele>
        <time>2023-02-05T09:59:35Z</time>
      </trkpt>
      <trkpt lat="44.12941" lon="7.25333">
        <ele>1846.2</ele>
        <time>2023-02-05T09:59:36Z</time>
      </trkpt>
      <trkpt lat="44.12942" lon="7.25333">
        <ele>1846.2</ele>
        <time>2023-02-05T09:59:37Z</time>
      </trkpt>
      <trkpt lat="44.12943" lon="7.25332">
        <ele>1846.4</ele>
        <time>2023-02-05T09:59:38Z</time>
      </trkpt>
      <trkpt lat="44.12943" lon="7.25331">
        <ele>1846.6</ele>
        <time>2023-02-05T09:59:39Z</time>
      </trkpt>
      <trkpt lat="44.12944" lon="7.2533">
        <ele>1846.7</ele>
        <time>2023-02-05T09:59:40Z</time>
      </trkpt>
      <trkpt lat="44.12945" lon="7.25329">
        <ele>1846.8</ele>
        <time>2023-02-05T09:59:41Z</time>
      </trkpt>
      <trkpt lat="44.12945" lon="7.25328">
        <ele>1846.9</ele>
        <time>2023-02-05T09:59:42Z</time>
      </trkpt>
      <trkpt lat="44.12945" lon="7.25327">
        <ele>1847</ele>
        <time>2023-02-05T09:59:43Z</time>
      </trkpt>
      <trkpt lat="44.12946" lon="7.25327">
        <ele>1847</ele>
        <time>2023-02-05T09:59:44Z</time>
      </trkpt>
      <trkpt lat="44.12947" lon="7.25325">
        <ele>1847</ele>
        <time>2023-02-05T09:59:45Z</time>
      </trkpt>
      <trkpt lat="44.12947" lon="7.25324">
        <ele>1847.1</ele>
        <time>2023-02-05T09:59:46Z</time>
      </trkpt>
      <trkpt lat="44.12947" lon="7.25323">
        <ele>1847.1</ele>
        <time>2023-02-05T09:59:47Z</time>
      </trkpt>
      <trkpt lat="44.12948" lon="7.25322">
        <ele>1847.1</ele>
        <time>2023-02-05T09:59:48Z</time>
      </trkpt>
      <trkpt lat="44.12948" lon="7.25321">
        <ele>1847.1</ele>
        <time>2023-02-05T09:59:49Z</time>
      </trkpt>
      <trkpt lat="44.12947" lon="7.2532">
        <ele>1847.2</ele>
        <time>2023-02-05T09:59:50Z</time>
      </trkpt>
      <trkpt lat="44.12948" lon="7.25319">
        <ele>1847.3</ele>
        <time>2023-02-05T09:59:51Z</time>
      </trkpt>
      <trkpt lat="44.12948" lon="7.25318">
        <ele>1847.3</ele>
        <time>2023-02-05T09:59:52Z</time>
      </trkpt>
      <trkpt lat="44.12948" lon="7.25317">
        <ele>1847.4</ele>
        <time>2023-02-05T09:59:53Z</time>
      </trkpt>
      <trkpt lat="44.12949" lon="7.25316">
        <ele>1847.5</ele>
        <time>2023-02-05T09:59:54Z</time>
      </trkpt>
      <trkpt lat="44.12949" lon="7.25315">
        <ele>1847.6</ele>
        <time>2023-02-05T09:59:55Z</time>
      </trkpt>
      <trkpt lat="44.12949" lon="7.25314">
        <ele>1847.7</ele>
        <time>2023-02-05T09:59:56Z</time>
      </trkpt>
      <trkpt lat="44.12949" lon="7.25313">
        <ele>1847.8</ele>
        <time>2023-02-05T09:59:57Z</time>
      </trkpt>
      <trkpt lat="44.12949" lon="7.25311">
        <ele>1847.8</ele>
        <time>2023-02-05T09:59:58Z</time>
      </trkpt>
      <trkpt lat="44.1295" lon="7.2531">
        <ele>1847.9</ele>
        <time>2023-02-05T09:59:59Z</time>
      </trkpt>
      <trkpt lat="44.1295" lon="7.25309">
        <ele>1847.9</ele>
        <time>2023-02-05T10:00:00Z</time>
      </trkpt>
      <trkpt lat="44.1295" lon="7.25308">
        <ele>1848.1</ele>
        <time>2023-02-05T10:00:01Z</time>
      </trkpt>
      <trkpt lat="44.12951" lon="7.25307">
        <ele>1848.2</ele>
        <time>2023-02-05T10:00:02Z</time>
      </trkpt>
      <trkpt lat="44.12951" lon="7.25306">
        <ele>1848.3</ele>
        <time>2023-02-05T10:00:03Z</time>
      </trkpt>
      <trkpt lat="44.12952" lon="7.25306">
        <ele>1848.4</ele>
        <time>2023-02-05T10:00:04Z</time>
      </trkpt>
      <trkpt lat="44.12952" lon="7.25304">
        <ele>1848.5</ele>
        <time>2023-02-05T10:00:05Z</time>
      </trkpt>
      <trkpt lat="44.12953" lon="7.25304">
        <ele>1848.5</ele>
        <time>2023-02-05T10:00:06Z</time>
      </trkpt>
      <trkpt lat="44.12953" lon="7.25303">
        <ele>1848.6</ele>
        <time>2023-02-05T10:00:07Z</time>
      </trkpt>
      <trkpt lat="44.12953" lon="7.25301">
        <ele>1848.8</ele>
        <time>2023-02-05T10:00:08Z</time>
      </trkpt>
      <trkpt lat="44.12953" lon="7.25301">
        <ele>1848.9</ele>
        <time>2023-02-05T10:00:09Z</time>
      </trkpt>
      <trkpt lat="44.12954" lon="7.253">
        <ele>1849</ele>
        <time>2023-02-05T10:00:10Z</time>
      </trkpt>
      <trkpt lat="44.12954" lon="7.25299">
        <ele>1849.1</ele>
        <time>2023-02-05T10:00:11Z</time>
      </trkpt>
      <trkpt lat="44.12954" lon="7.25298">
        <ele>1849.2</ele>
        <time>2023-02-05T10:00:12Z</time>
      </trkpt>
      <trkpt lat="44.12954" lon="7.25297">
        <ele>1849.3</ele>
        <time>2023-02-05T10:00:13Z</time>
      </trkpt>
      <trkpt lat="44.12955" lon="7.25296">
        <ele>1849.3</ele>
        <time>2023-02-05T10:00:14Z</time>
      </trkpt>
      <trkpt lat="44.12954" lon="7.25294">
        <ele>1849.4</ele>
        <time>2023-02-05T10:00:15Z</time>
      </trkpt>
      <trkpt lat="44.12954" lon="7.25294">
        <ele>1849.4</ele>
        <time>2023-02-05T10:00:16Z</time>
      </trkpt>
      <trkpt lat="44.12955" lon="7.25293">
        <ele>1849.5</ele>
        <time>2023-02-05T10:00:17Z</time>
      </trkpt>
      <trkpt lat="44.12956" lon="7.25292">
        <ele>1849.5</ele>
        <time>2023-02-05T10:00:18Z</time>
      </trkpt>
      <trkpt lat="44.12957" lon="7.25291">
        <ele>1849.6</ele>
        <time>2023-02-05T10:00:19Z</time>
      </trkpt>
      <trkpt lat="44.12957" lon="7.2529">
        <ele>1849.6</ele>
        <time>2023-02-05T10:00:20Z</time>
      </trkpt>
      <trkpt lat="44.12957" lon="7.25289">
        <ele>1849.6</ele>
        <time>2023-02-05T10:00:21Z</time>
      </trkpt>
      <trkpt lat="44.12957" lon="7.25288">
        <ele>1849.6</ele>
        <time>2023-02-05T10:00:22Z</time>
      </trkpt>
      <trkpt lat="44.12958" lon="7.25287">
        <ele>1849.6</ele>
        <time>2023-02-05T10:00:23Z</time>
      </trkpt>
      <trkpt lat="44.12958" lon="7.25286">
        <ele>1849.6</ele>
        <time>2023-02-05T10:00:24Z</time>
      </trkpt>
      <trkpt lat="44.12959" lon="7.25285">
        <ele>1849.6</ele>
        <time>2023-02-05T10:00:25Z</time>
      </trkpt>
      <trkpt lat="44.12959" lon="7.25284">
        <ele>1849.7</ele>
        <time>2023-02-05T10:00:26Z</time>
      </trkpt>
      <trkpt lat="44.1296" lon="7.25283">
        <ele>1849.7</ele>
        <time>2023-02-05T10:00:27Z</time>
      </trkpt>
      <trkpt lat="44.1296" lon="7.25282">
        <ele>1849.7</ele>
        <time>2023-02-05T10:00:28Z</time>
      </trkpt>
      <trkpt lat="44.12959" lon="7.2528">
        <ele>1849.7</ele>
        <time>2023-02-05T10:00:29Z</time>
      </trkpt>
      <trkpt lat="44.1296" lon="7.2528">
        <ele>1849.8</ele>
        <time>2023-02-05T10:00:30Z</time>
      </trkpt>
      <trkpt lat="44.1296" lon="7.25279">
        <ele>1849.9</ele>
        <time>2023-02-05T10:00:31Z</time>
      </trkpt>
      <trkpt lat="44.12961" lon="7.25278">
        <ele>1850</ele>
        <time>2023-02-05T10:00:32Z</time>
      </trkpt>
      <trkpt lat="44.12961" lon="7.25277">
        <ele>1850.1</ele>
        <time>2023-02-05T10:00:33Z</time>
      </trkpt>
      <trkpt lat="44.12962" lon="7.25277">
        <ele>1850.2</ele>
        <time>2023-02-05T10:00:34Z</time>
      </trkpt>
      <trkpt lat="44.12962" lon="7.25276">
        <ele>1850.2</ele>
        <time>2023-02-05T10:00:35Z</time>
      </trkpt>
      <trkpt lat="44.12962" lon="7.25275">
        <ele>1850.3</ele>
        <time>2023-02-05T10:00:36Z</time>
      </trkpt>
      <trkpt lat="44.12962" lon="7.25275">
        <ele>1850.4</ele>
        <time>2023-02-05T10:00:37Z</time>
      </trkpt>
      <trkpt lat="44.12962" lon="7.25273">
        <ele>1850.4</ele>
        <time>2023-02-05T10:00:38Z</time>
      </trkpt>
      <trkpt lat="44.12962" lon="7.25272">
        <ele>1850.5</ele>
        <time>2023-02-05T10:00:39Z</time>
      </trkpt>
      <trkpt lat="44.12962" lon="7.25271">
        <ele>1850.6</ele>
        <time>2023-02-05T10:00:40Z</time>
      </trkpt>
      <trkpt lat="44.12963" lon="7.2527">
        <ele>1850.6</ele>
        <time>2023-02-05T10:00:41Z</time>
      </trkpt>
      <trkpt lat="44.12963" lon="7.25269">
        <ele>1850.6</ele>
        <time>2023-02-05T10:00:42Z</time>
      </trkpt>
      <trkpt lat="44.12963" lon="7.25268">
        <ele>1850.7</ele>
        <time>2023-02-05T10:00:43Z</time>
      </trkpt>
      <trkpt lat="44.12963" lon="7.25267">
        <ele>1850.6</ele>
        <time>2023-02-05T10:00:44Z</time>
      </trkpt>
      <trkpt lat="44.12964" lon="7.25266">
        <ele>1850.6</ele>
        <time>2023-02-05T10:00:45Z</time>
      </trkpt>
      <trkpt lat="44.12964" lon="7.25265">
        <ele>1850.6</ele>
        <time>2023-02-05T10:00:46Z</time>
      </trkpt>
      <trkpt lat="44.12963" lon="7.25264">
        <ele>1850.6</ele>
        <time>2023-02-05T10:00:47Z</time>
      </trkpt>
      <trkpt lat="44.12963" lon="7.25263">
        <ele>1850.6</ele>
        <time>2023-02-05T10:00:48Z</time>
      </trkpt>
      <trkpt lat="44.12963" lon="7.25262">
        <ele>1850.7</ele>
        <time>2023-02-05T10:00:49Z</time>
      </trkpt>
      <trkpt lat="44.12963" lon="7.25261">
        <ele>1850.9</ele>
        <time>2023-02-05T10:00:50Z</time>
      </trkpt>
      <trkpt lat="44.12964" lon="7.2526">
        <ele>1851</ele>
        <time>2023-02-05T10:00:51Z</time>
      </trkpt>
      <trkpt lat="44.12964" lon="7.25259">
        <ele>1851.1</ele>
        <time>2023-02-05T10:00:52Z</time>
      </trkpt>
      <trkpt lat="44.12965" lon="7.25258">
        <ele>1851.1</ele>
        <time>2023-02-05T10:00:53Z</time>
      </trkpt>
      <trkpt lat="44.12965" lon="7.25257">
        <ele>1851.2</ele>
        <time>2023-02-05T10:00:54Z</time>
      </trkpt>
      <trkpt lat="44.12965" lon="7.25256">
        <ele>1851.2</ele>
        <time>2023-02-05T10:00:55Z</time>
      </trkpt>
      <trkpt lat="44.12965" lon="7.25255">
        <ele>1851.3</ele>
        <time>2023-02-05T10:00:56Z</time>
      </trkpt>
      <trkpt lat="44.12965" lon="7.25254">
        <ele>1851.4</ele>
        <time>2023-02-05T10:00:57Z</time>
      </trkpt>
      <trkpt lat="44.12965" lon="7.25253">
        <ele>1851.5</ele>
        <time>2023-02-05T10:00:58Z</time>
      </trkpt>
      <trkpt lat="44.12966" lon="7.25252">
        <ele>1851.5</ele>
        <time>2023-02-05T10:00:59Z</time>
      </trkpt>
      <trkpt lat="44.12966" lon="7.25251">
        <ele>1851.6</ele>
        <time>2023-02-05T10:01:00Z</time>
      </trkpt>
      <trkpt lat="44.12967" lon="7.2525">
        <ele>1851.7</ele>
        <time>2023-02-05T10:01:01Z</time>
      </trkpt>
      <trkpt lat="44.12967" lon="7.25249">
        <ele>1851.8</ele>
        <time>2023-02-05T10:01:02Z</time>
      </trkpt>
      <trkpt lat="44.12967" lon="7.25248">
        <ele>1851.9</ele>
        <time>2023-02-05T10:01:03Z</time>
      </trkpt>
      <trkpt lat="44.12967" lon="7.25247">
        <ele>1852</ele>
        <time>2023-02-05T10:01:04Z</time>
      </trkpt>
      <trkpt lat="44.12967" lon="7.25246">
        <ele>1852.1</ele>
        <time>2023-02-05T10:01:05Z</time>
      </trkpt>
      <trkpt lat="44.12967" lon="7.25244">
        <ele>1852.2</ele>
        <time>2023-02-05T10:01:06Z</time>
      </trkpt>
      <trkpt lat="44.12967" lon="7.25243">
        <ele>1852.4</ele>
        <time>2023-02-05T10:01:07Z</time>
      </trkpt>
      <trkpt lat="44.12967" lon="7.25243">
        <ele>1852.5</ele>
        <time>2023-02-05T10:01:08Z</time>
      </trkpt>
      <trkpt lat="44.12967" lon="7.25242">
        <ele>1852.6</ele>
        <time>2023-02-05T10:01:09Z</time>
      </trkpt>
      <trkpt lat="44.12968" lon="7.2524">
        <ele>1852.7</ele>
        <time>2023-02-05T10:01:10Z</time>
      </trkpt>
      <trkpt lat="44.12967" lon="7.25239">
        <ele>1852.8</ele>
        <time>2023-02-05T10:01:11Z</time>
      </trkpt>
      <trkpt lat="44.12967" lon="7.25238">
        <ele>1853</ele>
        <time>2023-02-05T10:01:12Z</time>
      </trkpt>
      <trkpt lat="44.12968" lon="7.25237">
        <ele>1853</ele>
        <time>2023-02-05T10:01:13Z</time>
      </trkpt>
      <trkpt lat="44.12968" lon="7.25236">
        <ele>1853.1</ele>
        <time>2023-02-05T10:01:14Z</time>
      </trkpt>
      <trkpt lat="44.12969" lon="7.25235">
        <ele>1853.1</ele>
        <time>2023-02-05T10:01:15Z</time>
      </trkpt>
      <trkpt lat="44.12969" lon="7.25234">
        <ele>1853.2</ele>
        <time>2023-02-05T10:01:16Z</time>
      </trkpt>
      <trkpt lat="44.12969" lon="7.25233">
        <ele>1853.2</ele>
        <time>2023-02-05T10:01:17Z</time>
      </trkpt>
      <trkpt lat="44.12969" lon="7.25232">
        <ele>1853.3</ele>
        <time>2023-02-05T10:01:18Z</time>
      </trkpt>
      <trkpt lat="44.1297" lon="7.25231">
        <ele>1853.3</ele>
        <time>2023-02-05T10:01:19Z</time>
      </trkpt>
      <trkpt lat="44.1297" lon="7.2523">
        <ele>1853.4</ele>
        <time>2023-02-05T10:01:20Z</time>
      </trkpt>
      <trkpt lat="44.1297" lon="7.25229">
        <ele>1853.5</ele>
        <time>2023-02-05T10:01:21Z</time>
      </trkpt>
      <trkpt lat="44.12971" lon="7.25228">
        <ele>1853.6</ele>
        <time>2023-02-05T10:01:22Z</time>
      </trkpt>
      <trkpt lat="44.12971" lon="7.25227">
        <ele>1853.7</ele>
        <time>2023-02-05T10:01:23Z</time>
      </trkpt>
      <trkpt lat="44.12971" lon="7.25226">
        <ele>1853.8</ele>
        <time>2023-02-05T10:01:24Z</time>
      </trkpt>
      <trkpt lat="44.12971" lon="7.25225">
        <ele>1853.9</ele>
        <time>2023-02-05T10:01:25Z</time>
      </trkpt>
      <trkpt lat="44.12972" lon="7.25224">
        <ele>1853.9</ele>
        <time>2023-02-05T10:01:26Z</time>
      </trkpt>
      <trkpt lat="44.12972" lon="7.25223">
        <ele>1853.9</ele>
        <time>2023-02-05T10:01:27Z</time>
      </trkpt>
      <trkpt lat="44.12972" lon="7.25222">
        <ele>1854</ele>
        <time>2023-02-05T10:01:28Z</time>
      </trkpt>
      <trkpt lat="44.12972" lon="7.25221">
        <ele>1854</ele>
        <time>2023-02-05T10:01:29Z</time>
      </trkpt>
      <trkpt lat="44.12972" lon="7.2522">
        <ele>1854</ele>
        <time>2023-02-05T10:01:30Z</time>
      </trkpt>
      <trkpt lat="44.12973" lon="7.25219">
        <ele>1854.1</ele>
        <time>2023-02-05T10:01:31Z</time>
      </trkpt>
      <trkpt lat="44.12972" lon="7.25218">
        <ele>1854.2</ele>
        <time>2023-02-05T10:01:32Z</time>
      </trkpt>
      <trkpt lat="44.12973" lon="7.25216">
        <ele>1854.2</ele>
        <time>2023-02-05T10:01:33Z</time>
      </trkpt>
      <trkpt lat="44.12973" lon="7.25216">
        <ele>1854.3</ele>
        <time>2023-02-05T10:01:34Z</time>
      </trkpt>
      <trkpt lat="44.12973" lon="7.25215">
        <ele>1854.4</ele>
        <time>2023-02-05T10:01:35Z</time>
      </trkpt>
      <trkpt lat="44.12973" lon="7.25213">
        <ele>1854.4</ele>
        <time>2023-02-05T10:01:36Z</time>
      </trkpt>
      <trkpt lat="44.12973" lon="7.25213">
        <ele>1854.4</ele>
        <time>2023-02-05T10:01:37Z</time>
      </trkpt>
      <trkpt lat="44.12973" lon="7.25212">
        <ele>1854.5</ele>
        <time>2023-02-05T10:01:38Z</time>
      </trkpt>
      <trkpt lat="44.12973" lon="7.25212">
        <ele>1854.6</ele>
        <time>2023-02-05T10:01:39Z</time>
      </trkpt>
      <trkpt lat="44.12973" lon="7.25211">
        <ele>1854.7</ele>
        <time>2023-02-05T10:01:40Z</time>
      </trkpt>
      <trkpt lat="44.12974" lon="7.2521">
        <ele>1854.7</ele>
        <time>2023-02-05T10:01:41Z</time>
      </trkpt>
      <trkpt lat="44.12974" lon="7.25209">
        <ele>1854.8</ele>
        <time>2023-02-05T10:01:42Z</time>
      </trkpt>
      <trkpt lat="44.12974" lon="7.25207">
        <ele>1854.9</ele>
        <time>2023-02-05T10:01:43Z</time>
      </trkpt>
      <trkpt lat="44.12975" lon="7.25207">
        <ele>1854.9</ele>
        <time>2023-02-05T10:01:44Z</time>
      </trkpt>
      <trkpt lat="44.12974" lon="7.25205">
        <ele>1855</ele>
        <time>2023-02-05T10:01:45Z</time>
      </trkpt>
      <trkpt lat="44.12974" lon="7.25204">
        <ele>1855</ele>
        <time>2023-02-05T10:01:46Z</time>
      </trkpt>
      <trkpt lat="44.12974" lon="7.25203">
        <ele>1855.1</ele>
        <time>2023-02-05T10:01:47Z</time>
      </trkpt>
      <trkpt lat="44.12974" lon="7.25202">
        <ele>1855.2</ele>
        <time>2023-02-05T10:01:48Z</time>
      </trkpt>
      <trkpt lat="44.12973" lon="7.25201">
        <ele>1855.3</ele>
        <time>2023-02-05T10:01:49Z</time>
      </trkpt>
      <trkpt lat="44.12973" lon="7.252">
        <ele>1855.5</ele>
        <time>2023-02-05T10:01:50Z</time>
      </trkpt>
      <trkpt lat="44.12974" lon="7.25199">
        <ele>1855.6</ele>
        <time>2023-02-05T10:01:51Z</time>
      </trkpt>
      <trkpt lat="44.12974" lon="7.25198">
        <ele>1855.6</ele>
        <time>2023-02-05T10:01:52Z</time>
      </trkpt>
      <trkpt lat="44.12975" lon="7.25197">
        <ele>1855.6</ele>
        <time>2023-02-05T10:01:53Z</time>
      </trkpt>
      <trkpt lat="44.12975" lon="7.25196">
        <ele>1855.5</ele>
        <time>2023-02-05T10:01:54Z</time>
      </trkpt>
      <trkpt lat="44.12975" lon="7.25195">
        <ele>1855.5</ele>
        <time>2023-02-05T10:01:55Z</time>
      </trkpt>
      <trkpt lat="44.12975" lon="7.25194">
        <ele>1855.5</ele>
        <time>2023-02-05T10:01:56Z</time>
      </trkpt>
      <trkpt lat="44.12975" lon="7.25193">
        <ele>1855.6</ele>
        <time>2023-02-05T10:01:57Z</time>
      </trkpt>
      <trkpt lat="44.12976" lon="7.25192">
        <ele>1855.6</ele>
        <time>2023-02-05T10:01:58Z</time>
      </trkpt>
      <trkpt lat="44.12977" lon="7.25191">
        <ele>1855.7</ele>
        <time>2023-02-05T10:01:59Z</time>
      </trkpt>
      <trkpt lat="44.12977" lon="7.2519">
        <ele>1855.8</ele>
        <time>2023-02-05T10:02:00Z</time>
      </trkpt>
      <trkpt lat="44.12977" lon="7.25189">
        <ele>1855.8</ele>
        <time>2023-02-05T10:02:01Z</time>
      </trkpt>
      <trkpt lat="44.12977" lon="7.25187">
        <ele>1855.8</ele>
        <time>2023-02-05T10:02:02Z</time>
      </trkpt>
      <trkpt lat="44.12978" lon="7.25187">
        <ele>1855.9</ele>
        <time>2023-02-05T10:02:03Z</time>
      </trkpt>
      <trkpt lat="44.12978" lon="7.25186">
        <ele>1856</ele>
        <time>2023-02-05T10:02:04Z</time>
      </trkpt>
      <trkpt lat="44.12979" lon="7.25185">
        <ele>1856.3</ele>
        <time>2023-02-05T10:02:05Z</time>
      </trkpt>
      <trkpt lat="44.1298" lon="7.25184">
        <ele>1856.4</ele>
        <time>2023-02-05T10:02:06Z</time>
      </trkpt>
      <trkpt lat="44.12979" lon="7.25183">
        <ele>1856.5</ele>
        <time>2023-02-05T10:02:07Z</time>
      </trkpt>
      <trkpt lat="44.12979" lon="7.25182">
        <ele>1856.6</ele>
        <time>2023-02-05T10:02:08Z</time>
      </trkpt>
      <trkpt lat="44.12979" lon="7.2518">
        <ele>1856.6</ele>
        <time>2023-02-05T10:02:09Z</time>
      </trkpt>
      <trkpt lat="44.1298" lon="7.25179">
        <ele>1856.7</ele>
        <time>2023-02-05T10:02:10Z</time>
      </trkpt>
      <trkpt lat="44.1298" lon="7.25178">
        <ele>1856.8</ele>
        <time>2023-02-05T10:02:11Z</time>
      </trkpt>
      <trkpt lat="44.1298" lon="7.25177">
        <ele>1856.8</ele>
        <time>2023-02-05T10:02:12Z</time>
      </trkpt>
      <trkpt lat="44.1298" lon="7.25177">
        <ele>1856.9</ele>
        <time>2023-02-05T10:02:13Z</time>
      </trkpt>
      <trkpt lat="44.12981" lon="7.25176">
        <ele>1856.9</ele>
        <time>2023-02-05T10:02:14Z</time>
      </trkpt>
      <trkpt lat="44.12981" lon="7.25175">
        <ele>1856.9</ele>
        <time>2023-02-05T10:02:15Z</time>
      </trkpt>
      <trkpt lat="44.12981" lon="7.25174">
        <ele>1856.9</ele>
        <time>2023-02-05T10:02:16Z</time>
      </trkpt>
      <trkpt lat="44.12981" lon="7.25173">
        <ele>1856.8</ele>
        <time>2023-02-05T10:02:17Z</time>
      </trkpt>
      <trkpt lat="44.12981" lon="7.25171">
        <ele>1857</ele>
        <time>2023-02-05T10:02:18Z</time>
      </trkpt>
      <trkpt lat="44.12981" lon="7.2517">
        <ele>1857.1</ele>
        <time>2023-02-05T10:02:19Z</time>
      </trkpt>
      <trkpt lat="44.12981" lon="7.25169">
        <ele>1857.1</ele>
        <time>2023-02-05T10:02:20Z</time>
      </trkpt>
      <trkpt lat="44.12981" lon="7.25167">
        <ele>1857.1</ele>
        <time>2023-02-05T10:02:21Z</time>
      </trkpt>
      <trkpt lat="44.1298" lon="7.25166">
        <ele>1857.1</ele>
        <time>2023-02-05T10:02:22Z</time>
      </trkpt>
      <trkpt lat="44.1298" lon="7.25165">
        <ele>1857.2</ele>
        <time>2023-02-05T10:02:23Z</time>
      </trkpt>
      <trkpt lat="44.1298" lon="7.25163">
        <ele>1857.2</ele>
        <time>2023-02-05T10:02:24Z</time>
      </trkpt>
      <trkpt lat="44.1298" lon="7.25162">
        <ele>1857.3</ele>
        <time>2023-02-05T10:02:25Z</time>
      </trkpt>
      <trkpt lat="44.1298" lon="7.25161">
        <ele>1857.3</ele>
        <time>2023-02-05T10:02:26Z</time>
      </trkpt>
      <trkpt lat="44.12981" lon="7.2516">
        <ele>1857.4</ele>
        <time>2023-02-05T10:02:27Z</time>
      </trkpt>
      <trkpt lat="44.1298" lon="7.25159">
        <ele>1857.5</ele>
        <time>2023-02-05T10:02:28Z</time>
      </trkpt>
      <trkpt lat="44.1298" lon="7.25157">
        <ele>1857.5</ele>
        <time>2023-02-05T10:02:29Z</time>
      </trkpt>
      <trkpt lat="44.12981" lon="7.25156">
        <ele>1857.6</ele>
        <time>2023-02-05T10:02:30Z</time>
      </trkpt>
      <trkpt lat="44.12981" lon="7.25155">
        <ele>1857.7</ele>
        <time>2023-02-05T10:02:31Z</time>
      </trkpt>
      <trkpt lat="44.12981" lon="7.25154">
        <ele>1857.8</ele>
        <time>2023-02-05T10:02:32Z</time>
      </trkpt>
      <trkpt lat="44.12981" lon="7.25153">
        <ele>1857.7</ele>
        <time>2023-02-05T10:02:33Z</time>
      </trkpt>
      <trkpt lat="44.12981" lon="7.25152">
        <ele>1857.9</ele>
        <time>2023-02-05T10:02:34Z</time>
      </trkpt>
      <trkpt lat="44.12981" lon="7.25151">
        <ele>1857.9</ele>
        <time>2023-02-05T10:02:35Z</time>
      </trkpt>
      <trkpt lat="44.12982" lon="7.2515">
        <ele>1857.9</ele>
        <time>2023-02-05T10:02:36Z</time>
      </trkpt>
      <trkpt lat="44.12982" lon="7.25149">
        <ele>1857.9</ele>
        <time>2023-02-05T10:02:37Z</time>
      </trkpt>
      <trkpt lat="44.12983" lon="7.25148">
        <ele>1858</ele>
        <time>2023-02-05T10:02:38Z</time>
      </trkpt>
      <trkpt lat="44.12983" lon="7.25147">
        <ele>1858.2</ele>
        <time>2023-02-05T10:02:39Z</time>
      </trkpt>
      <trkpt lat="44.12983" lon="7.25146">
        <ele>1858.2</ele>
        <time>2023-02-05T10:02:40Z</time>
      </trkpt>
      <trkpt lat="44.12983" lon="7.25145">
        <ele>1858.3</ele>
        <time>2023-02-05T10:02:41Z</time>
      </trkpt>
      <trkpt lat="44.12983" lon="7.25143">
        <ele>1858.4</ele>
        <time>2023-02-05T10:02:42Z</time>
      </trkpt>
      <trkpt lat="44.12984" lon="7.25143">
        <ele>1858.5</ele>
        <time>2023-02-05T10:02:43Z</time>
      </trkpt>
      <trkpt lat="44.12984" lon="7.25142">
        <ele>1858.4</ele>
        <time>2023-02-05T10:02:44Z</time>
      </trkpt>
      <trkpt lat="44.12984" lon="7.25141">
        <ele>1858.4</ele>
        <time>2023-02-05T10:02:45Z</time>
      </trkpt>
      <trkpt lat="44.12984" lon="7.25141">
        <ele>1858.5</ele>
        <time>2023-02-05T10:02:46Z</time>
      </trkpt>
      <trkpt lat="44.12984" lon="7.25139">
        <ele>1858.6</ele>
        <time>2023-02-05T10:02:47Z</time>
      </trkpt>
      <trkpt lat="44.12984" lon="7.25138">
        <ele>1858.6</ele>
        <time>2023-02-05T10:02:48Z</time>
      </trkpt>
      <trkpt lat="44.12985" lon="7.25137">
        <ele>1858.6</ele>
        <time>2023-02-05T10:02:49Z</time>
      </trkpt>
      <trkpt lat="44.12984" lon="7.25137">
        <ele>1858.7</ele>
        <time>2023-02-05T10:02:50Z</time>
      </trkpt>
      <trkpt lat="44.12983" lon="7.25135">
        <ele>1858.8</ele>
        <time>2023-02-05T10:02:51Z</time>
      </trkpt>
      <trkpt lat="44.12983" lon="7.25134">
        <ele>1858.9</ele>
        <time>2023-02-05T10:02:52Z</time>
      </trkpt>
      <trkpt lat="44.12983" lon="7.25133">
        <ele>1858.9</ele>
        <time>2023-02-05T10:02:53Z</time>
      </trkpt>
      <trkpt lat="44.12983" lon="7.25132">
        <ele>1858.9</ele>
        <time>2023-02-05T10:02:54Z</time>
      </trkpt>
      <trkpt lat="44.12983" lon="7.25131">
        <ele>1859.1</ele>
        <time>2023-02-05T10:02:55Z</time>
      </trkpt>
      <trkpt lat="44.12984" lon="7.2513">
        <ele>1859.2</ele>
        <time>2023-02-05T10:02:56Z</time>
      </trkpt>
      <trkpt lat="44.12984" lon="7.25129">
        <ele>1859.3</ele>
        <time>2023-02-05T10:02:57Z</time>
      </trkpt>
      <trkpt lat="44.12984" lon="7.25129">
        <ele>1859.4</ele>
        <time>2023-02-05T10:02:58Z</time>
      </trkpt>
      <trkpt lat="44.12984" lon="7.25128">
        <ele>1859.5</ele>
        <time>2023-02-05T10:02:59Z</time>
      </trkpt>
      <trkpt lat="44.12984" lon="7.25127">
        <ele>1859.6</ele>
        <time>2023-02-05T10:03:00Z</time>
      </trkpt>
      <trkpt lat="44.12985" lon="7.25127">
        <ele>1859.6</ele>
        <time>2023-02-05T10:03:01Z</time>
      </trkpt>
      <trkpt lat="44.12985" lon="7.25126">
        <ele>1859.7</ele>
        <time>2023-02-05T10:03:02Z</time>
      </trkpt>
      <trkpt lat="44.12985" lon="7.25125">
        <ele>1859.8</ele>
        <time>2023-02-05T10:03:03Z</time>
      </trkpt>
      <trkpt lat="44.12985" lon="7.25124">
        <ele>1859.9</ele>
        <time>2023-02-05T10:03:04Z</time>
      </trkpt>
      <trkpt lat="44.12985" lon="7.25122">
        <ele>1860</ele>
        <time>2023-02-05T10:03:05Z</time>
      </trkpt>
      <trkpt lat="44.12984" lon="7.2512">
        <ele>1860</ele>
        <time>2023-02-05T10:03:06Z</time>
      </trkpt>
      <trkpt lat="44.12984" lon="7.2512">
        <ele>1860</ele>
        <time>2023-02-05T10:03:07Z</time>
      </trkpt>
      <trkpt lat="44.12985" lon="7.25119">
        <ele>1860.1</ele>
        <time>2023-02-05T10:03:08Z</time>
      </trkpt>
      <trkpt lat="44.12986" lon="7.25118">
        <ele>1860.3</ele>
        <time>2023-02-05T10:03:09Z</time>
      </trkpt>
      <trkpt lat="44.12986" lon="7.25117">
        <ele>1860.4</ele>
        <time>2023-02-05T10:03:10Z</time>
      </trkpt>
      <trkpt lat="44.12986" lon="7.25116">
        <ele>1860.5</ele>
        <time>2023-02-05T10:03:11Z</time>
      </trkpt>
      <trkpt lat="44.12986" lon="7.25115">
        <ele>1860.5</ele>
        <time>2023-02-05T10:03:12Z</time>
      </trkpt>
      <trkpt lat="44.12985" lon="7.25113">
        <ele>1860.5</ele>
        <time>2023-02-05T10:03:13Z</time>
      </trkpt>
      <trkpt lat="44.12985" lon="7.25112">
        <ele>1860.5</ele>
        <time>2023-02-05T10:03:14Z</time>
      </trkpt>
      <trkpt lat="44.12986" lon="7.25111">
        <ele>1860.6</ele>
        <time>2023-02-05T10:03:15Z</time>
      </trkpt>
      <trkpt lat="44.12986" lon="7.2511">
        <ele>1860.7</ele>
        <time>2023-02-05T10:03:16Z</time>
      </trkpt>
      <trkpt lat="44.12985" lon="7.25109">
        <ele>1860.9</ele>
        <time>2023-02-05T10:03:17Z</time>
      </trkpt>
      <trkpt lat="44.12985" lon="7.25108">
        <ele>1861</ele>
        <time>2023-02-05T10:03:18Z</time>
      </trkpt>
      <trkpt lat="44.12985" lon="7.25106">
        <ele>1861.2</ele>
        <time>2023-02-05T10:03:19Z</time>
      </trkpt>
      <trkpt lat="44.12987" lon="7.25106">
        <ele>1861.3</ele>
        <time>2023-02-05T10:03:20Z</time>
      </trkpt>
      <trkpt lat="44.12987" lon="7.25105">
        <ele>1861.3</ele>
        <time>2023-02-05T10:03:21Z</time>
      </trkpt>
      <trkpt lat="44.12986" lon="7.25104">
        <ele>1861.5</ele>
        <time>2023-02-05T10:03:22Z</time>
      </trkpt>
      <trkpt lat="44.12987" lon="7.25103">
        <ele>1861.6</ele>
        <time>2023-02-05T10:03:23Z</time>
      </trkpt>
      <trkpt lat="44.12986" lon="7.25102">
        <ele>1861.7</ele>
        <time>2023-02-05T10:03:24Z</time>
      </trkpt>
      <trkpt lat="44.12987" lon="7.25101">
        <ele>1861.8</ele>
        <time>2023-02-05T10:03:25Z</time>
      </trkpt>
      <trkpt lat="44.12987" lon="7.25099">
        <ele>1861.8</ele>
        <time>2023-02-05T10:03:26Z</time>
      </trkpt>
      <trkpt lat="44.12986" lon="7.25098">
        <ele>1861.9</ele>
        <time>2023-02-05T10:03:27Z</time>
      </trkpt>
      <trkpt lat="44.12987" lon="7.25097">
        <ele>1861.9</ele>
        <time>2023-02-05T10:03:28Z</time>
      </trkpt>
      <trkpt lat="44.12987" lon="7.25096">
        <ele>1862</ele>
        <time>2023-02-05T10:03:29Z</time>
      </trkpt>
      <trkpt lat="44.12987" lon="7.25095">
        <ele>1862</ele>
        <time>2023-02-05T10:03:30Z</time>
      </trkpt>
      <trkpt lat="44.12988" lon="7.25093">
        <ele>1862</ele>
        <time>2023-02-05T10:03:31Z</time>
      </trkpt>
      <trkpt lat="44.12988" lon="7.25093">
        <ele>1861.9</ele>
        <time>2023-02-05T10:03:32Z</time>
      </trkpt>
      <trkpt lat="44.12988" lon="7.25092">
        <ele>1861.9</ele>
        <time>2023-02-05T10:03:33Z</time>
      </trkpt>
      <trkpt lat="44.12988" lon="7.25091">
        <ele>1862</ele>
        <time>2023-02-05T10:03:34Z</time>
      </trkpt>
      <trkpt lat="44.12988" lon="7.2509">
        <ele>1862.1</ele>
        <time>2023-02-05T10:03:35Z</time>
      </trkpt>
      <trkpt lat="44.12989" lon="7.25089">
        <ele>1862.1</ele>
        <time>2023-02-05T10:03:36Z</time>
      </trkpt>
      <trkpt lat="44.12989" lon="7.25088">
        <ele>1862.2</ele>
        <time>2023-02-05T10:03:37Z</time>
      </trkpt>
      <trkpt lat="44.1299" lon="7.25087">
        <ele>1862.2</ele>
        <time>2023-02-05T10:03:38Z</time>
      </trkpt>
      <trkpt lat="44.1299" lon="7.25086">
        <ele>1862.2</ele>
        <time>2023-02-05T10:03:39Z</time>
      </trkpt>
      <trkpt lat="44.1299" lon="7.25085">
        <ele>1862.1</ele>
        <time>2023-02-05T10:03:40Z</time>
      </trkpt>
      <trkpt lat="44.12991" lon="7.25084">
        <ele>1862.3</ele>
        <time>2023-02-05T10:03:41Z</time>
      </trkpt>
      <trkpt lat="44.12991" lon="7.25083">
        <ele>1862.4</ele>
        <time>2023-02-05T10:03:42Z</time>
      </trkpt>
      <trkpt lat="44.12991" lon="7.25082">
        <ele>1862.5</ele>
        <time>2023-02-05T10:03:43Z</time>
      </trkpt>
      <trkpt lat="44.12991" lon="7.25081">
        <ele>1862.5</ele>
        <time>2023-02-05T10:03:44Z</time>
      </trkpt>
      <trkpt lat="44.12991" lon="7.2508">
        <ele>1862.7</ele>
        <time>2023-02-05T10:03:45Z</time>
      </trkpt>
      <trkpt lat="44.12991" lon="7.25079">
        <ele>1862.7</ele>
        <time>2023-02-05T10:03:46Z</time>
      </trkpt>
      <trkpt lat="44.12991" lon="7.25078">
        <ele>1862.7</ele>
        <time>2023-02-05T10:03:47Z</time>
      </trkpt>
      <trkpt lat="44.12991" lon="7.25076">
        <ele>1862.7</ele>
        <time>2023-02-05T10:03:48Z</time>
      </trkpt>
      <trkpt lat="44.12992" lon="7.25076">
        <ele>1862.7</ele>
        <time>2023-02-05T10:03:49Z</time>
      </trkpt>
      <trkpt lat="44.12992" lon="7.25075">
        <ele>1862.7</ele>
        <time>2023-02-05T10:03:50Z</time>
      </trkpt>
      <trkpt lat="44.12992" lon="7.25073">
        <ele>1862.8</ele>
        <time>2023-02-05T10:03:51Z</time>
      </trkpt>
      <trkpt lat="44.12992" lon="7.25072">
        <ele>1862.9</ele>
        <time>2023-02-05T10:03:52Z</time>
      </trkpt>
      <trkpt lat="44.12993" lon="7.25071">
        <ele>1863</ele>
        <time>2023-02-05T10:03:53Z</time>
      </trkpt>
      <trkpt lat="44.12993" lon="7.2507">
        <ele>1863.1</ele>
        <time>2023-02-05T10:03:54Z</time>
      </trkpt>
      <trkpt lat="44.12994" lon="7.2507">
        <ele>1863.1</ele>
        <time>2023-02-05T10:03:55Z</time>
      </trkpt>
      <trkpt lat="44.12994" lon="7.25068">
        <ele>1863.2</ele>
        <time>2023-02-05T10:03:56Z</time>
      </trkpt>
      <trkpt lat="44.12994" lon="7.25067">
        <ele>1863.3</ele>
        <time>2023-02-05T10:03:57Z</time>
      </trkpt>
      <trkpt lat="44.12994" lon="7.25066">
        <ele>1863.3</ele>
        <time>2023-02-05T10:03:58Z</time>
      </trkpt>
      <trkpt lat="44.12994" lon="7.25065">
        <ele>1863.3</ele>
        <time>2023-02-05T10:03:59Z</time>
      </trkpt>
      <trkpt lat="44.12994" lon="7.25063">
        <ele>1863.3</ele>
        <time>2023-02-05T10:04:00Z</time>
      </trkpt>
      <trkpt lat="44.12995" lon="7.25062">
        <ele>1863.4</ele>
        <time>2023-02-05T10:04:01Z</time>
      </trkpt>
      <trkpt lat="44.12995" lon="7.25061">
        <ele>1863.4</ele>
        <time>2023-02-05T10:04:02Z</time>
      </trkpt>
      <trkpt lat="44.12994" lon="7.2506">
        <ele>1863.6</ele>
        <time>2023-02-05T10:04:03Z</time>
      </trkpt>
      <trkpt lat="44.12994" lon="7.25059">
        <ele>1863.7</ele>
        <time>2023-02-05T10:04:04Z</time>
      </trkpt>
      <trkpt lat="44.12994" lon="7.25058">
        <ele>1863.8</ele>
        <time>2023-02-05T10:04:05Z</time>
      </trkpt>
      <trkpt lat="44.12995" lon="7.25058">
        <ele>1863.9</ele>
        <time>2023-02-05T10:04:06Z</time>
      </trkpt>
      <trkpt lat="44.12995" lon="7.25056">
        <ele>1863.9</ele>
        <time>2023-02-05T10:04:07Z</time>
      </trkpt>
      <trkpt lat="44.12995" lon="7.25055">
        <ele>1864</ele>
        <time>2023-02-05T10:04:08Z</time>
      </trkpt>
      <trkpt lat="44.12995" lon="7.25054">
        <ele>1864</ele>
        <time>2023-02-05T10:04:09Z</time>
      </trkpt>
      <trkpt lat="44.12995" lon="7.25053">
        <ele>1864.1</ele>
        <time>2023-02-05T10:04:10Z</time>
      </trkpt>
      <trkpt lat="44.12996" lon="7.25052">
        <ele>1864.1</ele>
        <time>2023-02-05T10:04:11Z</time>
      </trkpt>
      <trkpt lat="44.12996" lon="7.25051">
        <ele>1864.2</ele>
        <time>2023-02-05T10:04:12Z</time>
      </trkpt>
      <trkpt lat="44.12995" lon="7.25049">
        <ele>1864.2</ele>
        <time>2023-02-05T10:04:13Z</time>
      </trkpt>
      <trkpt lat="44.12996" lon="7.25048">
        <ele>1864.3</ele>
        <time>2023-02-05T10:04:14Z</time>
      </trkpt>
      <trkpt lat="44.12995" lon="7.25047">
        <ele>1864.3</ele>
        <time>2023-02-05T10:04:15Z</time>
      </trkpt>
      <trkpt lat="44.12995" lon="7.25045">
        <ele>1864.4</ele>
        <time>2023-02-05T10:04:16Z</time>
      </trkpt>
      <trkpt lat="44.12996" lon="7.25045">
        <ele>1864.5</ele>
        <time>2023-02-05T10:04:17Z</time>
      </trkpt>
      <trkpt lat="44.12997" lon="7.25044">
        <ele>1864.7</ele>
        <time>2023-02-05T10:04:18Z</time>
      </trkpt>
      <trkpt lat="44.12998" lon="7.25042">
        <ele>1864.8</ele>
        <time>2023-02-05T10:04:19Z</time>
      </trkpt>
      <trkpt lat="44.12997" lon="7.25041">
        <ele>1864.8</ele>
        <time>2023-02-05T10:04:20Z</time>
      </trkpt>
      <trkpt lat="44.12997" lon="7.25039">
        <ele>1864.8</ele>
        <time>2023-02-05T10:04:21Z</time>
      </trkpt>
      <trkpt lat="44.12997" lon="7.25039">
        <ele>1864.9</ele>
        <time>2023-02-05T10:04:22Z</time>
      </trkpt>
      <trkpt lat="44.12998" lon="7.25038">
        <ele>1865</ele>
        <time>2023-02-05T10:04:23Z</time>
      </trkpt>
      <trkpt lat="44.12998" lon="7.25037">
        <ele>1865.1</ele>
        <time>2023-02-05T10:04:24Z</time>
      </trkpt>
      <trkpt lat="44.12998" lon="7.25035">
        <ele>1865.1</ele>
        <time>2023-02-05T10:04:25Z</time>
      </trkpt>
      <trkpt lat="44.12998" lon="7.25035">
        <ele>1865.2</ele>
        <time>2023-02-05T10:04:26Z</time>
      </trkpt>
      <trkpt lat="44.12998" lon="7.25034">
        <ele>1865.2</ele>
        <time>2023-02-05T10:04:27Z</time>
      </trkpt>
      <trkpt lat="44.12999" lon="7.25033">
        <ele>1865.3</ele>
        <time>2023-02-05T10:04:28Z</time>
      </trkpt>
      <trkpt lat="44.12999" lon="7.25032">
        <ele>1865.4</ele>
        <time>2023-02-05T10:04:29Z</time>
      </trkpt>
      <trkpt lat="44.12999" lon="7.25031">
        <ele>1865.5</ele>
        <time>2023-02-05T10:04:30Z</time>
      </trkpt>
      <trkpt lat="44.13" lon="7.2503">
        <ele>1865.6</ele>
        <time>2023-02-05T10:04:31Z</time>
      </trkpt>
      <trkpt lat="44.13001" lon="7.25029">
        <ele>1865.5</ele>
        <time>2023-02-05T10:04:32Z</time>
      </trkpt>
      <trkpt lat="44.13001" lon="7.25029">
        <ele>1865.6</ele>
        <time>2023-02-05T10:04:33Z</time>
      </trkpt>
      <trkpt lat="44.13001" lon="7.25027">
        <ele>1865.7</ele>
        <time>2023-02-05T10:04:34Z</time>
      </trkpt>
      <trkpt lat="44.13001" lon="7.25026">
        <ele>1865.7</ele>
        <time>2023-02-05T10:04:35Z</time>
      </trkpt>
      <trkpt lat="44.13001" lon="7.25025">
        <ele>1865.8</ele>
        <time>2023-02-05T10:04:36Z</time>
      </trkpt>
      <trkpt lat="44.13001" lon="7.25024">
        <ele>1865.9</ele>
        <time>2023-02-05T10:04:37Z</time>
      </trkpt>
      <trkpt lat="44.13002" lon="7.25023">
        <ele>1865.9</ele>
        <time>2023-02-05T10:04:38Z</time>
      </trkpt>
      <trkpt lat="44.13002" lon="7.25022">
        <ele>1865.9</ele>
        <time>2023-02-05T10:04:39Z</time>
      </trkpt>
      <trkpt lat="44.13002" lon="7.25021">
        <ele>1866</ele>
        <time>2023-02-05T10:04:40Z</time>
      </trkpt>
      <trkpt lat="44.13002" lon="7.2502">
        <ele>1866</ele>
        <time>2023-02-05T10:04:41Z</time>
      </trkpt>
      <trkpt lat="44.13002" lon="7.25019">
        <ele>1866.2</ele>
        <time>2023-02-05T10:04:42Z</time>
      </trkpt>
      <trkpt lat="44.13003" lon="7.25018">
        <ele>1866.3</ele>
        <time>2023-02-05T10:04:43Z</time>
      </trkpt>
      <trkpt lat="44.13003" lon="7.25018">
        <ele>1866.4</ele>
        <time>2023-02-05T10:04:44Z</time>
      </trkpt>
      <trkpt lat="44.13003" lon="7.25017">
        <ele>1866.5</ele>
        <time>2023-02-05T10:04:45Z</time>
      </trkpt>
      <trkpt lat="44.13004" lon="7.25017">
        <ele>1866.6</ele>
        <time>2023-02-05T10:04:46Z</time>
      </trkpt>
      <trkpt lat="44.13005" lon="7.25016">
        <ele>1866.7</ele>
        <time>2023-02-05T10:04:47Z</time>
      </trkpt>
      <trkpt lat="44.13005" lon="7.25015">
        <ele>1866.8</ele>
        <time>2023-02-05T10:04:48Z</time>
      </trkpt>
      <trkpt lat="44.13005" lon="7.25013">
        <ele>1866.9</ele>
        <time>2023-02-05T10:04:49Z</time>
      </trkpt>
      <trkpt lat="44.13005" lon="7.25013">
        <ele>1867.1</ele>
        <time>2023-02-05T10:04:50Z</time>
      </trkpt>
      <trkpt lat="44.13006" lon="7.25011">
        <ele>1867.2</ele>
        <time>2023-02-05T10:04:51Z</time>
      </trkpt>
      <trkpt lat="44.13006" lon="7.2501">
        <ele>1867.3</ele>
        <time>2023-02-05T10:04:52Z</time>
      </trkpt>
      <trkpt lat="44.13007" lon="7.25009">
        <ele>1867.4</ele>
        <time>2023-02-05T10:04:53Z</time>
      </trkpt>
      <trkpt lat="44.13007" lon="7.25008">
        <ele>1867.5</ele>
        <time>2023-02-05T10:04:54Z</time>
      </trkpt>
      <trkpt lat="44.13007" lon="7.25007">
        <ele>1867.6</ele>
        <time>2023-02-05T10:04:55Z</time>
      </trkpt>
      <trkpt lat="44.13007" lon="7.25006">
        <ele>1867.6</ele>
        <time>2023-02-05T10:04:56Z</time>
      </trkpt>
      <trkpt lat="44.13006" lon="7.25004">
        <ele>1867.6</ele>
        <time>2023-02-05T10:04:57Z</time>
      </trkpt>
      <trkpt lat="44.13006" lon="7.25003">
        <ele>1867.7</ele>
        <time>2023-02-05T10:04:58Z</time>
      </trkpt>
      <trkpt lat="44.13007" lon="7.25003">
        <ele>1867.7</ele>
        <time>2023-02-05T10:04:59Z</time>
      </trkpt>
      <trkpt lat="44.13007" lon="7.25002">
        <ele>1867.7</ele>
        <time>2023-02-05T10:05:00Z</time>
      </trkpt>
      <trkpt lat="44.13007" lon="7.25001">
        <ele>1867.9</ele>
        <time>2023-02-05T10:05:01Z</time>
      </trkpt>
      <trkpt lat="44.13008" lon="7.25">
        <ele>1868</ele>
        <time>2023-02-05T10:05:02Z</time>
      </trkpt>
      <trkpt lat="44.13008" lon="7.24999">
        <ele>1868.1</ele>
        <time>2023-02-05T10:05:03Z</time>
      </trkpt>
      <trkpt lat="44.13008" lon="7.24999">
        <ele>1868.1</ele>
        <time>2023-02-05T10:05:04Z</time>
      </trkpt>
      <trkpt lat="44.13008" lon="7.24998">
        <ele>1868.2</ele>
        <time>2023-02-05T10:05:05Z</time>
      </trkpt>
      <trkpt lat="44.13008" lon="7.24997">
        <ele>1868.3</ele>
        <time>2023-02-05T10:05:06Z</time>
      </trkpt>
      <trkpt lat="44.13008" lon="7.24996">
        <ele>1868.4</ele>
        <time>2023-02-05T10:05:07Z</time>
      </trkpt>
      <trkpt lat="44.13008" lon="7.24995">
        <ele>1868.5</ele>
        <time>2023-02-05T10:05:08Z</time>
      </trkpt>
      <trkpt lat="44.13009" lon="7.24994">
        <ele>1868.6</ele>
        <time>2023-02-05T10:05:09Z</time>
      </trkpt>
      <trkpt lat="44.13009" lon="7.24993">
        <ele>1868.7</ele>
        <time>2023-02-05T10:05:10Z</time>
      </trkpt>
      <trkpt lat="44.1301" lon="7.24993">
        <ele>1868.6</ele>
        <time>2023-02-05T10:05:11Z</time>
      </trkpt>
      <trkpt lat="44.1301" lon="7.24992">
        <ele>1868.6</ele>
        <time>2023-02-05T10:05:12Z</time>
      </trkpt>
      <trkpt lat="44.13011" lon="7.24992">
        <ele>1868.7</ele>
        <time>2023-02-05T10:05:13Z</time>
      </trkpt>
      <trkpt lat="44.13011" lon="7.24991">
        <ele>1868.8</ele>
        <time>2023-02-05T10:05:14Z</time>
      </trkpt>
      <trkpt lat="44.13012" lon="7.2499">
        <ele>1868.9</ele>
        <time>2023-02-05T10:05:15Z</time>
      </trkpt>
      <trkpt lat="44.13013" lon="7.2499">
        <ele>1868.9</ele>
        <time>2023-02-05T10:05:16Z</time>
      </trkpt>
      <trkpt lat="44.13013" lon="7.24989">
        <ele>1869</ele>
        <time>2023-02-05T10:05:17Z</time>
      </trkpt>
      <trkpt lat="44.13014" lon="7.24987">
        <ele>1869.1</ele>
        <time>2023-02-05T10:05:18Z</time>
      </trkpt>
      <trkpt lat="44.13014" lon="7.24987">
        <ele>1869.2</ele>
        <time>2023-02-05T10:05:19Z</time>
      </trkpt>
      <trkpt lat="44.13014" lon="7.24986">
        <ele>1869.2</ele>
        <time>2023-02-05T10:05:20Z</time>
      </trkpt>
      <trkpt lat="44.13013" lon="7.24984">
        <ele>1869.3</ele>
        <time>2023-02-05T10:05:21Z</time>
      </trkpt>
      <trkpt lat="44.13013" lon="7.24983">
        <ele>1869.3</ele>
        <time>2023-02-05T10:05:22Z</time>
      </trkpt>
      <trkpt lat="44.13014" lon="7.24982">
        <ele>1869.4</ele>
        <time>2023-02-05T10:05:23Z</time>
      </trkpt>
      <trkpt lat="44.13014" lon="7.2498">
        <ele>1869.5</ele>
        <time>2023-02-05T10:05:24Z</time>
      </trkpt>
      <trkpt lat="44.13014" lon="7.24978">
        <ele>1869.6</ele>
        <time>2023-02-05T10:05:25Z</time>
      </trkpt>
      <trkpt lat="44.13014" lon="7.24977">
        <ele>1869.6</ele>
        <time>2023-02-05T10:05:26Z</time>
      </trkpt>
      <trkpt lat="44.13015" lon="7.24975">
        <ele>1869.6</ele>
        <time>2023-02-05T10:05:27Z</time>
      </trkpt>
      <trkpt lat="44.13015" lon="7.24973">
        <ele>1869.5</ele>
        <time>2023-02-05T10:05:28Z</time>
      </trkpt>
      <trkpt lat="44.13015" lon="7.24972">
        <ele>1869.7</ele>
        <time>2023-02-05T10:05:29Z</time>
      </trkpt>
      <trkpt lat="44.13016" lon="7.24971">
        <ele>1869.8</ele>
        <time>2023-02-05T10:05:30Z</time>
      </trkpt>
      <trkpt lat="44.13016" lon="7.24969">
        <ele>1869.8</ele>
        <time>2023-02-05T10:05:31Z</time>
      </trkpt>
      <trkpt lat="44.13017" lon="7.24968">
        <ele>1869.9</ele>
        <time>2023-02-05T10:05:32Z</time>
      </trkpt>
      <trkpt lat="44.13017" lon="7.24967">
        <ele>1870</ele>
        <time>2023-02-05T10:05:33Z</time>
      </trkpt>
      <trkpt lat="44.13017" lon="7.24966">
        <ele>1870.1</ele>
        <time>2023-02-05T10:05:34Z</time>
      </trkpt>
      <trkpt lat="44.13017" lon="7.24964">
        <ele>1870.2</ele>
        <time>2023-02-05T10:05:35Z</time>
      </trkpt>
      <trkpt lat="44.13017" lon="7.24962">
        <ele>1870.4</ele>
        <time>2023-02-05T10:05:36Z</time>
      </trkpt>
      <trkpt lat="44.13017" lon="7.24961">
        <ele>1870.5</ele>
        <time>2023-02-05T10:05:37Z</time>
      </trkpt>
      <trkpt lat="44.13017" lon="7.24959">
        <ele>1870.6</ele>
        <time>2023-02-05T10:05:38Z</time>
      </trkpt>
      <trkpt lat="44.13018" lon="7.24958">
        <ele>1870.7</ele>
        <time>2023-02-05T10:05:39Z</time>
      </trkpt>
      <trkpt lat="44.13018" lon="7.24957">
        <ele>1870.7</ele>
        <time>2023-02-05T10:05:40Z</time>
      </trkpt>
      <trkpt lat="44.13018" lon="7.24956">
        <ele>1870.8</ele>
        <time>2023-02-05T10:05:41Z</time>
      </trkpt>
      <trkpt lat="44.13019" lon="7.24955">
        <ele>1870.9</ele>
        <time>2023-02-05T10:05:42Z</time>
      </trkpt>
      <trkpt lat="44.13019" lon="7.24954">
        <ele>1871</ele>
        <time>2023-02-05T10:05:43Z</time>
      </trkpt>
      <trkpt lat="44.13019" lon="7.24953">
        <ele>1871.1</ele>
        <time>2023-02-05T10:05:44Z</time>
      </trkpt>
      <trkpt lat="44.1302" lon="7.24952">
        <ele>1871.2</ele>
        <time>2023-02-05T10:05:45Z</time>
      </trkpt>
      <trkpt lat="44.13019" lon="7.24951">
        <ele>1871.3</ele>
        <time>2023-02-05T10:05:46Z</time>
      </trkpt>
      <trkpt lat="44.1302" lon="7.2495">
        <ele>1871.3</ele>
        <time>2023-02-05T10:05:47Z</time>
      </trkpt>
      <trkpt lat="44.13019" lon="7.2495">
        <ele>1871.3</ele>
        <time>2023-02-05T10:05:48Z</time>
      </trkpt>
      <trkpt lat="44.1302" lon="7.24948">
        <ele>1871.5</ele>
        <time>2023-02-05T10:05:49Z</time>
      </trkpt>
      <trkpt lat="44.1302" lon="7.24947">
        <ele>1871.6</ele>
        <time>2023-02-05T10:05:50Z</time>
      </trkpt>
      <trkpt lat="44.13021" lon="7.24946">
        <ele>1871.7</ele>
        <time>2023-02-05T10:05:51Z</time>
      </trkpt>
      <trkpt lat="44.13021" lon="7.24945">
        <ele>1871.7</ele>
        <time>2023-02-05T10:05:52Z</time>
      </trkpt>
      <trkpt lat="44.13021" lon="7.24944">
        <ele>1871.7</ele>
        <time>2023-02-05T10:05:53Z</time>
      </trkpt>
      <trkpt lat="44.13021" lon="7.24944">
        <ele>1871.9</ele>
        <time>2023-02-05T10:05:54Z</time>
      </trkpt>
      <trkpt lat="44.13021" lon="7.24942">
        <ele>1872</ele>
        <time>2023-02-05T10:05:55Z</time>
      </trkpt>
      <trkpt lat="44.13021" lon="7.24942">
        <ele>1872</ele>
        <time>2023-02-05T10:05:56Z</time>
      </trkpt>
      <trkpt lat="44.13022" lon="7.24941">
        <ele>1872.1</ele>
        <time>2023-02-05T10:05:57Z</time>
      </trkpt>
      <trkpt lat="44.13023" lon="7.2494">
        <ele>1872.2</ele>
        <time>2023-02-05T10:05:58Z</time>
      </trkpt>
      <trkpt lat="44.13023" lon="7.2494">
        <ele>1872.4</ele>
        <time>2023-02-05T10:05:59Z</time>
      </trkpt>
      <trkpt lat="44.13023" lon="7.24939">
        <ele>1872.5</ele>
        <time>2023-02-05T10:06:00Z</time>
      </trkpt>
      <trkpt lat="44.13023" lon="7.24939">
        <ele>1872.6</ele>
        <time>2023-02-05T10:06:01Z</time>
      </trkpt>
      <trkpt lat="44.13024" lon="7.24938">
        <ele>1872.6</ele>
        <time>2023-02-05T10:06:02Z</time>
      </trkpt>
      <trkpt lat="44.13024" lon="7.24938">
        <ele>1872.7</ele>
        <time>2023-02-05T10:06:03Z</time>
      </trkpt>
      <trkpt lat="44.13024" lon="7.24937">
        <ele>1872.8</ele>
        <time>2023-02-05T10:06:04Z</time>
      </trkpt>
      <trkpt lat="44.13023" lon="7.24937">
        <ele>1872.8</ele>
        <time>2023-02-05T10:06:05Z</time>
      </trkpt>
      <trkpt lat="44.13024" lon="7.24937">
        <ele>1872.9</ele>
        <time>2023-02-05T10:06:06Z</time>
      </trkpt>
      <trkpt lat="44.13025" lon="7.24936">
        <ele>1872.9</ele>
        <time>2023-02-05T10:06:07Z</time>
      </trkpt>
      <trkpt lat="44.13025" lon="7.24936">
        <ele>1873</ele>
        <time>2023-02-05T10:06:08Z</time>
      </trkpt>
      <trkpt lat="44.13025" lon="7.24936">
        <ele>1873.1</ele>
        <time>2023-02-05T10:06:09Z</time>
      </trkpt>
      <trkpt lat="44.13025" lon="7.24936">
        <ele>1873.2</ele>
        <time>2023-02-05T10:06:10Z</time>
      </trkpt>
      <trkpt lat="44.13026" lon="7.24935">
        <ele>1873.3</ele>
        <time>2023-02-05T10:06:11Z</time>
      </trkpt>
      <trkpt lat="44.13026" lon="7.24935">
        <ele>1873.3</ele>
        <time>2023-02-05T10:06:12Z</time>
      </trkpt>
      <trkpt lat="44.13027" lon="7.24935">
        <ele>1873.3</ele>
        <time>2023-02-05T10:06:13Z</time>
      </trkpt>
      <trkpt lat="44.13028" lon="7.24935">
        <ele>1873.4</ele>
        <time>2023-02-05T10:06:14Z</time>
      </trkpt>
      <trkpt lat="44.13029" lon="7.24935">
        <ele>1873.6</ele>
        <time>2023-02-05T10:06:15Z</time>
      </trkpt>
      <trkpt lat="44.1303" lon="7.24936">
        <ele>1873.6</ele>
        <time>2023-02-05T10:06:16Z</time>
      </trkpt>
      <trkpt lat="44.1303" lon="7.24936">
        <ele>1873.7</ele>
        <time>2023-02-05T10:06:17Z</time>
      </trkpt>
      <trkpt lat="44.1303" lon="7.24935">
        <ele>1873.9</ele>
        <time>2023-02-05T10:06:18Z</time>
      </trkpt>
      <trkpt lat="44.13031" lon="7.24936">
        <ele>1873.9</ele>
        <time>2023-02-05T10:06:19Z</time>
      </trkpt>
      <trkpt lat="44.13031" lon="7.24935">
        <ele>1874</ele>
        <time>2023-02-05T10:06:20Z</time>
      </trkpt>
      <trkpt lat="44.13032" lon="7.24933">
        <ele>1874</ele>
        <time>2023-02-05T10:06:21Z</time>
      </trkpt>
      <trkpt lat="44.13032" lon="7.24934">
        <ele>1874</ele>
        <time>2023-02-05T10:06:22Z</time>
      </trkpt>
      <trkpt lat="44.13033" lon="7.24933">
        <ele>1874</ele>
        <time>2023-02-05T10:06:23Z</time>
      </trkpt>
      <trkpt lat="44.13033" lon="7.24932">
        <ele>1874.2</ele>
        <time>2023-02-05T10:06:24Z</time>
      </trkpt>
      <trkpt lat="44.13034" lon="7.24931">
        <ele>1874.2</ele>
        <time>2023-02-05T10:06:25Z</time>
      </trkpt>
      <trkpt lat="44.13034" lon="7.24931">
        <ele>1874.2</ele>
        <time>2023-02-05T10:06:26Z</time>
      </trkpt>
      <trkpt lat="44.13034" lon="7.2493">
        <ele>1874.3</ele>
        <time>2023-02-05T10:06:27Z</time>
      </trkpt>
      <trkpt lat="44.13035" lon="7.2493">
        <ele>1874.3</ele>
        <time>2023-02-05T10:06:28Z</time>
      </trkpt>
      <trkpt lat="44.13036" lon="7.2493">
        <ele>1874.2</ele>
        <time>2023-02-05T10:06:29Z</time>
      </trkpt>
      <trkpt lat="44.13036" lon="7.2493">
        <ele>1874.2</ele>
        <time>2023-02-05T10:06:30Z</time>
      </trkpt>
      <trkpt lat="44.13037" lon="7.24931">
        <ele>1874.2</ele>
        <time>2023-02-05T10:06:31Z</time>
      </trkpt>
      <trkpt lat="44.13037" lon="7.24932">
        <ele>1874.2</ele>
        <time>2023-02-05T10:06:32Z</time>
      </trkpt>
      <trkpt lat="44.13037" lon="7.24932">
        <ele>1874.2</ele>
        <time>2023-02-05T10:06:33Z</time>
      </trkpt>
      <trkpt lat="44.13037" lon="7.24932">
        <ele>1874.2</ele>
        <time>2023-02-05T10:06:34Z</time>
      </trkpt>
      <trkpt lat="44.13037" lon="7.24933">
        <ele>1874.3</ele>
        <time>2023-02-05T10:06:35Z</time>
      </trkpt>
      <trkpt lat="44.13037" lon="7.24933">
        <ele>1874.3</ele>
        <time>2023-02-05T10:06:36Z</time>
      </trkpt>
      <trkpt lat="44.13037" lon="7.24933">
        <ele>1874.4</ele>
        <time>2023-02-05T10:06:37Z</time>
      </trkpt>
      <trkpt lat="44.13037" lon="7.24933">
        <ele>1874.4</ele>
        <time>2023-02-05T10:06:38Z</time>
      </trkpt>
      <trkpt lat="44.13037" lon="7.24934">
        <ele>1874.4</ele>
        <time>2023-02-05T10:06:39Z</time>
      </trkpt>
      <trkpt lat="44.13037" lon="7.24934">
        <ele>1874.4</ele>
        <time>2023-02-05T10:06:40Z</time>
      </trkpt>
      <trkpt lat="44.13038" lon="7.24935">
        <ele>1874.4</ele>
        <time>2023-02-05T10:06:41Z</time>
      </trkpt>
      <trkpt lat="44.13039" lon="7.24934">
        <ele>1874.5</ele>
        <time>2023-02-05T10:06:42Z</time>
      </trkpt>
      <trkpt lat="44.13039" lon="7.24934">
        <ele>1874.5</ele>
        <time>2023-02-05T10:06:43Z</time>
      </trkpt>
      <trkpt lat="44.13039" lon="7.24934">
        <ele>1874.5</ele>
        <time>2023-02-05T10:06:44Z</time>
      </trkpt>
      <trkpt lat="44.13039" lon="7.24934">
        <ele>1874.6</ele>
        <time>2023-02-05T10:06:45Z</time>
      </trkpt>
      <trkpt lat="44.13039" lon="7.24934">
        <ele>1874.6</ele>
        <time>2023-02-05T10:06:46Z</time>
      </trkpt>
      <trkpt lat="44.13039" lon="7.24934">
        <ele>1874.8</ele>
        <time>2023-02-05T10:06:47Z</time>
      </trkpt>
      <trkpt lat="44.13039" lon="7.24934">
        <ele>1874.8</ele>
        <time>2023-02-05T10:06:48Z</time>
      </trkpt>
      <trkpt lat="44.13039" lon="7.24934">
        <ele>1874.9</ele>
        <time>2023-02-05T10:06:49Z</time>
      </trkpt>
      <trkpt lat="44.13039" lon="7.24934">
        <ele>1875</ele>
        <time>2023-02-05T10:06:50Z</time>
      </trkpt>
      <trkpt lat="44.13039" lon="7.24934">
        <ele>1875</ele>
        <time>2023-02-05T10:06:51Z</time>
      </trkpt>
      <trkpt lat="44.13039" lon="7.24934">
        <ele>1874.9</ele>
        <time>2023-02-05T10:06:52Z</time>
      </trkpt>
      <trkpt lat="44.13039" lon="7.24934">
        <ele>1874.9</ele>
        <time>2023-02-05T10:06:53Z</time>
      </trkpt>
      <trkpt lat="44.13039" lon="7.24934">
        <ele>1874.9</ele>
        <time>2023-02-05T10:06:54Z</time>
      </trkpt>
      <trkpt lat="44.13039" lon="7.24934">
        <ele>1874.9</ele>
        <time>2023-02-05T10:06:55Z</time>
      </trkpt>
      <trkpt lat="44.13038" lon="7.24934">
        <ele>1874.8</ele>
        <time>2023-02-05T10:06:56Z</time>
      </trkpt>
      <trkpt lat="44.13039" lon="7.24934">
        <ele>1874.9</ele>
        <time>2023-02-05T10:06:57Z</time>
      </trkpt>
      <trkpt lat="44.13038" lon="7.24934">
        <ele>1874.9</ele>
        <time>2023-02-05T10:06:58Z</time>
      </trkpt>
      <trkpt lat="44.13038" lon="7.24934">
        <ele>1874.9</ele>
        <time>2023-02-05T10:06:59Z</time>
      </trkpt>
      <trkpt lat="44.13038" lon="7.24934">
        <ele>1875</ele>
        <time>2023-02-05T10:07:00Z</time>
      </trkpt>
      <trkpt lat="44.13038" lon="7.24934">
        <ele>1874.9</ele>
        <time>2023-02-05T10:07:01Z</time>
      </trkpt>
      <trkpt lat="44.13038" lon="7.24934">
        <ele>1874.8</ele>
        <time>2023-02-05T10:07:02Z</time>
      </trkpt>
      <trkpt lat="44.13038" lon="7.24935">
        <ele>1874.8</ele>
        <time>2023-02-05T10:07:03Z</time>
      </trkpt>
      <trkpt lat="44.13037" lon="7.24933">
        <ele>1874.7</ele>
        <time>2023-02-05T10:07:04Z</time>
      </trkpt>
      <trkpt lat="44.13037" lon="7.24932">
        <ele>1874.7</ele>
        <time>2023-02-05T10:07:05Z</time>
      </trkpt>
      <trkpt lat="44.13036" lon="7.24933">
        <ele>1874.7</ele>
        <time>2023-02-05T10:07:06Z</time>
      </trkpt>
      <trkpt lat="44.13036" lon="7.24934">
        <ele>1874.6</ele>
        <time>2023-02-05T10:07:07Z</time>
      </trkpt>
      <trkpt lat="44.13036" lon="7.24935">
        <ele>1874.7</ele>
        <time>2023-02-05T10:07:08Z</time>
      </trkpt>
      <trkpt lat="44.13036" lon="7.24935">
        <ele>1874.7</ele>
        <time>2023-02-05T10:07:09Z</time>
      </trkpt>
      <trkpt lat="44.13036" lon="7.24936">
        <ele>1874.8</ele>
        <time>2023-02-05T10:07:10Z</time>
      </trkpt>
      <trkpt lat="44.13036" lon="7.24937">
        <ele>1874.8</ele>
        <time>2023-02-05T10:07:11Z</time>
      </trkpt>
      <trkpt lat="44.13037" lon="7.24938">
        <ele>1874.7</ele>
        <time>2023-02-05T10:07:12Z</time>
      </trkpt>
      <trkpt lat="44.13037" lon="7.24938">
        <ele>1874.7</ele>
        <time>2023-02-05T10:07:13Z</time>
      </trkpt>
      <trkpt lat="44.13038" lon="7.24939">
        <ele>1874.7</ele>
        <time>2023-02-05T10:07:14Z</time>
      </trkpt>
      <trkpt lat="44.13038" lon="7.2494">
        <ele>1874.7</ele>
        <time>2023-02-05T10:07:15Z</time>
      </trkpt>
      <trkpt lat="44.13038" lon="7.2494">
        <ele>1874.8</ele>
        <time>2023-02-05T10:07:16Z</time>
      </trkpt>
      <trkpt lat="44.13038" lon="7.24941">
        <ele>1874.8</ele>
        <time>2023-02-05T10:07:17Z</time>
      </trkpt>
      <trkpt lat="44.13038" lon="7.24941">
        <ele>1874.9</ele>
        <time>2023-02-05T10:07:18Z</time>
      </trkpt>
      <trkpt lat="44.13039" lon="7.24942">
        <ele>1874.9</ele>
        <time>2023-02-05T10:07:19Z</time>
      </trkpt>
      <trkpt lat="44.13039" lon="7.24943">
        <ele>1875</ele>
        <time>2023-02-05T10:07:20Z</time>
      </trkpt>
      <trkpt lat="44.13039" lon="7.24944">
        <ele>1875.1</ele>
        <time>2023-02-05T10:07:21Z</time>
      </trkpt>
      <trkpt lat="44.13039" lon="7.24945">
        <ele>1875.2</ele>
        <time>2023-02-05T10:07:22Z</time>
      </trkpt>
      <trkpt lat="44.13039" lon="7.24946">
        <ele>1875.3</ele>
        <time>2023-02-05T10:07:23Z</time>
      </trkpt>
      <trkpt lat="44.1304" lon="7.24947">
        <ele>1875.3</ele>
        <time>2023-02-05T10:07:24Z</time>
      </trkpt>
      <trkpt lat="44.1304" lon="7.24948">
        <ele>1875.5</ele>
        <time>2023-02-05T10:07:25Z</time>
      </trkpt>
      <trkpt lat="44.1304" lon="7.24949">
        <ele>1875.6</ele>
        <time>2023-02-05T10:07:26Z</time>
      </trkpt>
      <trkpt lat="44.1304" lon="7.2495">
        <ele>1875.7</ele>
        <time>2023-02-05T10:07:27Z</time>
      </trkpt>
      <trkpt lat="44.1304" lon="7.24951">
        <ele>1875.7</ele>
        <time>2023-02-05T10:07:28Z</time>
      </trkpt>
      <trkpt lat="44.1304" lon="7.24952">
        <ele>1875.8</ele>
        <time>2023-02-05T10:07:29Z</time>
      </trkpt>
      <trkpt lat="44.1304" lon="7.24953">
        <ele>1875.8</ele>
        <time>2023-02-05T10:07:30Z</time>
      </trkpt>
      <trkpt lat="44.1304" lon="7.24953">
        <ele>1875.9</ele>
        <time>2023-02-05T10:07:31Z</time>
      </trkpt>
      <trkpt lat="44.1304" lon="7.24954">
        <ele>1875.9</ele>
        <time>2023-02-05T10:07:32Z</time>
      </trkpt>
      <trkpt lat="44.1304" lon="7.24956">
        <ele>1875.9</ele>
        <time>2023-02-05T10:07:33Z</time>
      </trkpt>
      <trkpt lat="44.1304" lon="7.24957">
        <ele>1876</ele>
        <time>2023-02-05T10:07:34Z</time>
      </trkpt>
      <trkpt lat="44.13039" lon="7.24957">
        <ele>1876</ele>
        <time>2023-02-05T10:07:35Z</time>
      </trkpt>
      <trkpt lat="44.13039" lon="7.24958">
        <ele>1876</ele>
        <time>2023-02-05T10:07:36Z</time>
      </trkpt>
      <trkpt lat="44.1304" lon="7.24958">
        <ele>1876.1</ele>
        <time>2023-02-05T10:07:37Z</time>
      </trkpt>
      <trkpt lat="44.13041" lon="7.24958">
        <ele>1876.1</ele>
        <time>2023-02-05T10:07:38Z</time>
      </trkpt>
      <trkpt lat="44.13041" lon="7.24958">
        <ele>1876.2</ele>
        <time>2023-02-05T10:07:39Z</time>
      </trkpt>
      <trkpt lat="44.13041" lon="7.24958">
        <ele>1876.2</ele>
        <time>2023-02-05T10:07:40Z</time>
      </trkpt>
      <trkpt lat="44.13041" lon="7.24958">
        <ele>1876.2</ele>
        <time>2023-02-05T10:07:41Z</time>
      </trkpt>
      <trkpt lat="44.13042" lon="7.24958">
        <ele>1876.2</ele>
        <time>2023-02-05T10:07:42Z</time>
      </trkpt>
      <trkpt lat="44.13042" lon="7.24958">
        <ele>1876.2</ele>
        <time>2023-02-05T10:07:43Z</time>
      </trkpt>
      <trkpt lat="44.13043" lon="7.24958">
        <ele>1876.2</ele>
        <time>2023-02-05T10:07:44Z</time>
      </trkpt>
      <trkpt lat="44.13043" lon="7.24958">
        <ele>1876.2</ele>
        <time>2023-02-05T10:07:45Z</time>
      </trkpt>
      <trkpt lat="44.13044" lon="7.24958">
        <ele>1876.2</ele>
        <time>2023-02-05T10:07:46Z</time>
      </trkpt>
      <trkpt lat="44.13044" lon="7.24958">
        <ele>1876.2</ele>
        <time>2023-02-05T10:07:47Z</time>
      </trkpt>
      <trkpt lat="44.13044" lon="7.24958">
        <ele>1876.3</ele>
        <time>2023-02-05T10:07:48Z</time>
      </trkpt>
      <trkpt lat="44.13044" lon="7.24958">
        <ele>1876.3</ele>
        <time>2023-02-05T10:07:49Z</time>
      </trkpt>
      <trkpt lat="44.13044" lon="7.24958">
        <ele>1876.3</ele>
        <time>2023-02-05T10:07:50Z</time>
      </trkpt>
      <trkpt lat="44.13044" lon="7.24958">
        <ele>1876.3</ele>
        <time>2023-02-05T10:07:51Z</time>
      </trkpt>
      <trkpt lat="44.13044" lon="7.24958">
        <ele>1876.3</ele>
        <time>2023-02-05T10:07:52Z</time>
      </trkpt>
      <trkpt lat="44.13044" lon="7.24958">
        <ele>1876.3</ele>
        <time>2023-02-05T10:07:53Z</time>
      </trkpt>
      <trkpt lat="44.13044" lon="7.24958">
        <ele>1876.2</ele>
        <time>2023-02-05T10:07:54Z</time>
      </trkpt>
      <trkpt lat="44.13044" lon="7.24958">
        <ele>1876.2</ele>
        <time>2023-02-05T10:07:55Z</time>
      </trkpt>
      <trkpt lat="44.13044" lon="7.24958">
        <ele>1876.3</ele>
        <time>2023-02-05T10:07:56Z</time>
      </trkpt>
      <trkpt lat="44.13044" lon="7.24958">
        <ele>1876.2</ele>
        <time>2023-02-05T10:07:57Z</time>
      </trkpt>
      <trkpt lat="44.13044" lon="7.24958">
        <ele>1876.2</ele>
        <time>2023-02-05T10:07:58Z</time>
      </trkpt>
      <trkpt lat="44.13044" lon="7.24958">
        <ele>1876.1</ele>
        <time>2023-02-05T10:07:59Z</time>
      </trkpt>
      <trkpt lat="44.13044" lon="7.24959">
        <ele>1876.1</ele>
        <time>2023-02-05T10:08:00Z</time>
      </trkpt>
      <trkpt lat="44.13043" lon="7.24959">
        <ele>1876.2</ele>
        <time>2023-02-05T10:08:01Z</time>
      </trkpt>
      <trkpt lat="44.13044" lon="7.24959">
        <ele>1876.2</ele>
        <time>2023-02-05T10:08:02Z</time>
      </trkpt>
      <trkpt lat="44.13044" lon="7.24959">
        <ele>1876.2</ele>
        <time>2023-02-05T10:08:03Z</time>
      </trkpt>
      <trkpt lat="44.13045" lon="7.24959">
        <ele>1876.1</ele>
        <time>2023-02-05T10:08:04Z</time>
      </trkpt>
      <trkpt lat="44.13045" lon="7.24959">
        <ele>1876.1</ele>
        <time>2023-02-05T10:08:05Z</time>
      </trkpt>
      <trkpt lat="44.13046" lon="7.24959">
        <ele>1876.1</ele>
        <time>2023-02-05T10:08:06Z</time>
      </trkpt>
      <trkpt lat="44.13046" lon="7.24959">
        <ele>1876.1</ele>
        <time>2023-02-05T10:08:07Z</time>
      </trkpt>
      <trkpt lat="44.13047" lon="7.2496">
        <ele>1876.1</ele>
        <time>2023-02-05T10:08:08Z</time>
      </trkpt>
      <trkpt lat="44.13047" lon="7.2496">
        <ele>1876.1</ele>
        <time>2023-02-05T10:08:09Z</time>
      </trkpt>
      <trkpt lat="44.13047" lon="7.2496">
        <ele>1876.1</ele>
        <time>2023-02-05T10:08:10Z</time>
      </trkpt>
      <trkpt lat="44.13048" lon="7.2496">
        <ele>1876.1</ele>
        <time>2023-02-05T10:08:11Z</time>
      </trkpt>
      <trkpt lat="44.13048" lon="7.2496">
        <ele>1876</ele>
        <time>2023-02-05T10:08:12Z</time>
      </trkpt>
      <trkpt lat="44.13049" lon="7.2496">
        <ele>1876</ele>
        <time>2023-02-05T10:08:13Z</time>
      </trkpt>
      <trkpt lat="44.13049" lon="7.2496">
        <ele>1875.9</ele>
        <time>2023-02-05T10:08:14Z</time>
      </trkpt>
      <trkpt lat="44.13049" lon="7.2496">
        <ele>1875.9</ele>
        <time>2023-02-05T10:08:15Z</time>
      </trkpt>
      <trkpt lat="44.13048" lon="7.2496">
        <ele>1875.9</ele>
        <time>2023-02-05T10:08:16Z</time>
      </trkpt>
      <trkpt lat="44.13047" lon="7.24961">
        <ele>1875.9</ele>
        <time>2023-02-05T10:08:17Z</time>
      </trkpt>
      <trkpt lat="44.13046" lon="7.24962">
        <ele>1875.9</ele>
        <time>2023-02-05T10:08:18Z</time>
      </trkpt>
      <trkpt lat="44.13046" lon="7.24962">
        <ele>1876.1</ele>
        <time>2023-02-05T10:08:19Z</time>
      </trkpt>
      <trkpt lat="44.13045" lon="7.24962">
        <ele>1876.2</ele>
        <time>2023-02-05T10:08:20Z</time>
      </trkpt>
      <trkpt lat="44.13045" lon="7.24962">
        <ele>1876.2</ele>
        <time>2023-02-05T10:08:21Z</time>
      </trkpt>
      <trkpt lat="44.13045" lon="7.24962">
        <ele>1876.2</ele>
        <time>2023-02-05T10:08:22Z</time>
      </trkpt>
      <trkpt lat="44.13045" lon="7.24962">
        <ele>1876.2</ele>
        <time>2023-02-05T10:08:23Z</time>
      </trkpt>
      <trkpt lat="44.13044" lon="7.24962">
        <ele>1876.2</ele>
        <time>2023-02-05T10:08:24Z</time>
      </trkpt>
      <trkpt lat="44.13044" lon="7.24962">
        <ele>1876.2</ele>
        <time>2023-02-05T10:08:25Z</time>
      </trkpt>
      <trkpt lat="44.13044" lon="7.24962">
        <ele>1876.2</ele>
        <time>2023-02-05T10:08:26Z</time>
      </trkpt>
      <trkpt lat="44.13043" lon="7.24962">
        <ele>1876.3</ele>
        <time>2023-02-05T10:08:27Z</time>
      </trkpt>
      <trkpt lat="44.13043" lon="7.24962">
        <ele>1876.3</ele>
        <time>2023-02-05T10:08:28Z</time>
      </trkpt>
      <trkpt lat="44.13043" lon="7.24962">
        <ele>1876.3</ele>
        <time>2023-02-05T10:08:29Z</time>
      </trkpt>
      <trkpt lat="44.13043" lon="7.24962">
        <ele>1876.3</ele>
        <time>2023-02-05T10:08:30Z</time>
      </trkpt>
      <trkpt lat="44.13043" lon="7.24962">
        <ele>1876.3</ele>
        <time>2023-02-05T10:08:31Z</time>
      </trkpt>
      <trkpt lat="44.13042" lon="7.24962">
        <ele>1876.3</ele>
        <time>2023-02-05T10:08:32Z</time>
      </trkpt>
      <trkpt lat="44.13042" lon="7.24962">
        <ele>1876.3</ele>
        <time>2023-02-05T10:08:33Z</time>
      </trkpt>
      <trkpt lat="44.13043" lon="7.24962">
        <ele>1876.3</ele>
        <time>2023-02-05T10:08:34Z</time>
      </trkpt>
      <trkpt lat="44.13043" lon="7.24962">
        <ele>1876.3</ele>
        <time>2023-02-05T10:08:35Z</time>
      </trkpt>
      <trkpt lat="44.13043" lon="7.24963">
        <ele>1876.4</ele>
        <time>2023-02-05T10:08:36Z</time>
      </trkpt>
      <trkpt lat="44.13043" lon="7.24964">
        <ele>1876.4</ele>
        <time>2023-02-05T10:08:37Z</time>
      </trkpt>
      <trkpt lat="44.13043" lon="7.24965">
        <ele>1876.4</ele>
        <time>2023-02-05T10:08:38Z</time>
      </trkpt>
      <trkpt lat="44.13043" lon="7.24965">
        <ele>1876.5</ele>
        <time>2023-02-05T10:08:39Z</time>
      </trkpt>
      <trkpt lat="44.13042" lon="7.24966">
        <ele>1876.4</ele>
        <time>2023-02-05T10:08:40Z</time>
      </trkpt>
      <trkpt lat="44.13042" lon="7.24966">
        <ele>1876.4</ele>
        <time>2023-02-05T10:08:41Z</time>
      </trkpt>
      <trkpt lat="44.13042" lon="7.24967">
        <ele>1876.4</ele>
        <time>2023-02-05T10:08:42Z</time>
      </trkpt>
      <trkpt lat="44.13042" lon="7.24967">
        <ele>1876.4</ele>
        <time>2023-02-05T10:08:43Z</time>
      </trkpt>
      <trkpt lat="44.13042" lon="7.24968">
        <ele>1876.5</ele>
        <time>2023-02-05T10:08:44Z</time>
      </trkpt>
      <trkpt lat="44.13041" lon="7.24968">
        <ele>1876.6</ele>
        <time>2023-02-05T10:08:45Z</time>
      </trkpt>
      <trkpt lat="44.13041" lon="7.24969">
        <ele>1876.6</ele>
        <time>2023-02-05T10:08:46Z</time>
      </trkpt>
      <trkpt lat="44.13041" lon="7.24969">
        <ele>1876.6</ele>
        <time>2023-02-05T10:08:47Z</time>
      </trkpt>
      <trkpt lat="44.13041" lon="7.2497">
        <ele>1876.6</ele>
        <time>2023-02-05T10:08:48Z</time>
      </trkpt>
      <trkpt lat="44.1304" lon="7.2497">
        <ele>1876.6</ele>
        <time>2023-02-05T10:08:49Z</time>
      </trkpt>
      <trkpt lat="44.1304" lon="7.2497">
        <ele>1876.6</ele>
        <time>2023-02-05T10:08:50Z</time>
      </trkpt>
      <trkpt lat="44.1304" lon="7.2497">
        <ele>1876.5</ele>
        <time>2023-02-05T10:08:51Z</time>
      </trkpt>
      <trkpt lat="44.1304" lon="7.2497">
        <ele>1876.5</ele>
        <time>2023-02-05T10:08:52Z</time>
      </trkpt>
      <trkpt lat="44.1304" lon="7.2497">
        <ele>1876.4</ele>
        <time>2023-02-05T10:08:53Z</time>
      </trkpt>
      <trkpt lat="44.13039" lon="7.2497">
        <ele>1876.4</ele>
        <time>2023-02-05T10:08:54Z</time>
      </trkpt>
      <trkpt lat="44.13039" lon="7.2497">
        <ele>1876.4</ele>
        <time>2023-02-05T10:08:55Z</time>
      </trkpt>
      <trkpt lat="44.13039" lon="7.2497">
        <ele>1876.4</ele>
        <time>2023-02-05T10:08:56Z</time>
      </trkpt>
      <trkpt lat="44.13039" lon="7.2497">
        <ele>1876.3</ele>
        <time>2023-02-05T10:08:57Z</time>
      </trkpt>
      <trkpt lat="44.13039" lon="7.2497">
        <ele>1876.3</ele>
        <time>2023-02-05T10:08:58Z</time>
      </trkpt>
      <trkpt lat="44.13039" lon="7.2497">
        <ele>1876.3</ele>
        <time>2023-02-05T10:08:59Z</time>
      </trkpt>
      <trkpt lat="44.13039" lon="7.24969">
        <ele>1876.3</ele>
        <time>2023-02-05T10:09:00Z</time>
      </trkpt>
      <trkpt lat="44.13039" lon="7.2497">
        <ele>1876.3</ele>
        <time>2023-02-05T10:09:01Z</time>
      </trkpt>
      <trkpt lat="44.13039" lon="7.2497">
        <ele>1876.2</ele>
        <time>2023-02-05T10:09:02Z</time>
      </trkpt>
      <trkpt lat="44.13039" lon="7.24971">
        <ele>1876.3</ele>
        <time>2023-02-05T10:09:03Z</time>
      </trkpt>
      <trkpt lat="44.13039" lon="7.24971">
        <ele>1876.4</ele>
        <time>2023-02-05T10:09:04Z</time>
      </trkpt>
      <trkpt lat="44.13039" lon="7.24972">
        <ele>1876.5</ele>
        <time>2023-02-05T10:09:05Z</time>
      </trkpt>
      <trkpt lat="44.13039" lon="7.24973">
        <ele>1876.5</ele>
        <time>2023-02-05T10:09:06Z</time>
      </trkpt>
      <trkpt lat="44.13039" lon="7.24973">
        <ele>1876.6</ele>
        <time>2023-02-05T10:09:07Z</time>
      </trkpt>
      <trkpt lat="44.13039" lon="7.24974">
        <ele>1876.7</ele>
        <time>2023-02-05T10:09:08Z</time>
      </trkpt>
      <trkpt lat="44.13039" lon="7.24974">
        <ele>1876.7</ele>
        <time>2023-02-05T10:09:09Z</time>
      </trkpt>
      <trkpt lat="44.13039" lon="7.24974">
        <ele>1876.7</ele>
        <time>2023-02-05T10:09:10Z</time>
      </trkpt>
      <trkpt lat="44.13039" lon="7.24975">
        <ele>1876.6</ele>
        <time>2023-02-05T10:09:11Z</time>
      </trkpt>
      <trkpt lat="44.1304" lon="7.24976">
        <ele>1876.8</ele>
        <time>2023-02-05T10:09:12Z</time>
      </trkpt>
      <trkpt lat="44.1304" lon="7.24977">
        <ele>1876.8</ele>
        <time>2023-02-05T10:09:13Z</time>
      </trkpt>
      <trkpt lat="44.1304" lon="7.24978">
        <ele>1876.9</ele>
        <time>2023-02-05T10:09:14Z</time>
      </trkpt>
      <trkpt lat="44.1304" lon="7.24979">
        <ele>1876.9</ele>
        <time>2023-02-05T10:09:15Z</time>
      </trkpt>
      <trkpt lat="44.1304" lon="7.24979">
        <ele>1876.9</ele>
        <time>2023-02-05T10:09:16Z</time>
      </trkpt>
      <trkpt lat="44.1304" lon="7.2498">
        <ele>1876.9</ele>
        <time>2023-02-05T10:09:17Z</time>
      </trkpt>
      <trkpt lat="44.1304" lon="7.24981">
        <ele>1877.1</ele>
        <time>2023-02-05T10:09:18Z</time>
      </trkpt>
      <trkpt lat="44.1304" lon="7.24981">
        <ele>1877.3</ele>
        <time>2023-02-05T10:09:19Z</time>
      </trkpt>
      <trkpt lat="44.1304" lon="7.24982">
        <ele>1877.3</ele>
        <time>2023-02-05T10:09:20Z</time>
      </trkpt>
      <trkpt lat="44.13041" lon="7.24983">
        <ele>1877.4</ele>
        <time>2023-02-05T10:09:21Z</time>
      </trkpt>
      <trkpt lat="44.13041" lon="7.24984">
        <ele>1877.4</ele>
        <time>2023-02-05T10:09:22Z</time>
      </trkpt>
      <trkpt lat="44.13042" lon="7.24985">
        <ele>1877.4</ele>
        <time>2023-02-05T10:09:23Z</time>
      </trkpt>
      <trkpt lat="44.13042" lon="7.24985">
        <ele>1877.4</ele>
        <time>2023-02-05T10:09:24Z</time>
      </trkpt>
      <trkpt lat="44.13042" lon="7.24987">
        <ele>1877.4</ele>
        <time>2023-02-05T10:09:25Z</time>
      </trkpt>
      <trkpt lat="44.13043" lon="7.24988">
        <ele>1877.4</ele>
        <time>2023-02-05T10:09:26Z</time>
      </trkpt>
      <trkpt lat="44.13043" lon="7.24988">
        <ele>1877.6</ele>
        <time>2023-02-05T10:09:27Z</time>
      </trkpt>
      <trkpt lat="44.13043" lon="7.24989">
        <ele>1877.7</ele>
        <time>2023-02-05T10:09:28Z</time>
      </trkpt>
      <trkpt lat="44.13044" lon="7.2499">
        <ele>1877.8</ele>
        <time>2023-02-05T10:09:29Z</time>
      </trkpt>
      <trkpt lat="44.13044" lon="7.24992">
        <ele>1877.9</ele>
        <time>2023-02-05T10:09:30Z</time>
      </trkpt>
      <trkpt lat="44.13045" lon="7.24993">
        <ele>1877.9</ele>
        <time>2023-02-05T10:09:31Z</time>
      </trkpt>
      <trkpt lat="44.13045" lon="7.24994">
        <ele>1878</ele>
        <time>2023-02-05T10:09:32Z</time>
      </trkpt>
      <trkpt lat="44.13046" lon="7.24995">
        <ele>1878</ele>
        <time>2023-02-05T10:09:33Z</time>
      </trkpt>
      <trkpt lat="44.13046" lon="7.24996">
        <ele>1878.1</ele>
        <time>2023-02-05T10:09:34Z</time>
      </trkpt>
      <trkpt lat="44.13047" lon="7.24998">
        <ele>1878.2</ele>
        <time>2023-02-05T10:09:35Z</time>
      </trkpt>
      <trkpt lat="44.13047" lon="7.24998">
        <ele>1878.3</ele>
        <time>2023-02-05T10:09:36Z</time>
      </trkpt>
      <trkpt lat="44.13048" lon="7.24999">
        <ele>1878.4</ele>
        <time>2023-02-05T10:09:37Z</time>
      </trkpt>
      <trkpt lat="44.13049" lon="7.25001">
        <ele>1878.5</ele>
        <time>2023-02-05T10:09:38Z</time>
      </trkpt>
      <trkpt lat="44.1305" lon="7.25002">
        <ele>1878.4</ele>
        <time>2023-02-05T10:09:39Z</time>
      </trkpt>
      <trkpt lat="44.1305" lon="7.25003">
        <ele>1878.3</ele>
        <time>2023-02-05T10:09:40Z</time>
      </trkpt>
      <trkpt lat="44.1305" lon="7.25004">
        <ele>1878.4</ele>
        <time>2023-02-05T10:09:41Z</time>
      </trkpt>
      <trkpt lat="44.13051" lon="7.25005">
        <ele>1878.4</ele>
        <time>2023-02-05T10:09:42Z</time>
      </trkpt>
      <trkpt lat="44.13051" lon="7.25006">
        <ele>1878.4</ele>
        <time>2023-02-05T10:09:43Z</time>
      </trkpt>
      <trkpt lat="44.13051" lon="7.25007">
        <ele>1878.6</ele>
        <time>2023-02-05T10:09:44Z</time>
      </trkpt>
      <trkpt lat="44.13051" lon="7.25008">
        <ele>1878.7</ele>
        <time>2023-02-05T10:09:45Z</time>
      </trkpt>
      <trkpt lat="44.13051" lon="7.25009">
        <ele>1878.7</ele>
        <time>2023-02-05T10:09:46Z</time>
      </trkpt>
      <trkpt lat="44.13051" lon="7.2501">
        <ele>1878.8</ele>
        <time>2023-02-05T10:09:47Z</time>
      </trkpt>
      <trkpt lat="44.13051" lon="7.25011">
        <ele>1878.9</ele>
        <time>2023-02-05T10:09:48Z</time>
      </trkpt>
      <trkpt lat="44.13051" lon="7.25012">
        <ele>1879</ele>
        <time>2023-02-05T10:09:49Z</time>
      </trkpt>
      <trkpt lat="44.13051" lon="7.25013">
        <ele>1879</ele>
        <time>2023-02-05T10:09:50Z</time>
      </trkpt>
      <trkpt lat="44.13052" lon="7.25014">
        <ele>1879.2</ele>
        <time>2023-02-05T10:09:51Z</time>
      </trkpt>
      <trkpt lat="44.13052" lon="7.25015">
        <ele>1879.2</ele>
        <time>2023-02-05T10:09:52Z</time>
      </trkpt>
      <trkpt lat="44.13052" lon="7.25016">
        <ele>1879.3</ele>
        <time>2023-02-05T10:09:53Z</time>
      </trkpt>
      <trkpt lat="44.13052" lon="7.25017">
        <ele>1879.3</ele>
        <time>2023-02-05T10:09:54Z</time>
      </trkpt>
      <trkpt lat="44.13052" lon="7.25017">
        <ele>1879.4</ele>
        <time>2023-02-05T10:09:55Z</time>
      </trkpt>
      <trkpt lat="44.13053" lon="7.25018">
        <ele>1879.4</ele>
        <time>2023-02-05T10:09:56Z</time>
      </trkpt>
      <trkpt lat="44.13052" lon="7.25019">
        <ele>1879.5</ele>
        <time>2023-02-05T10:09:57Z</time>
      </trkpt>
      <trkpt lat="44.13052" lon="7.25021">
        <ele>1879.6</ele>
        <time>2023-02-05T10:09:58Z</time>
      </trkpt>
      <trkpt lat="44.13053" lon="7.25022">
        <ele>1879.6</ele>
        <time>2023-02-05T10:09:59Z</time>
      </trkpt>
      <trkpt lat="44.13053" lon="7.25022">
        <ele>1879.7</ele>
        <time>2023-02-05T10:10:00Z</time>
      </trkpt>
      <trkpt lat="44.13053" lon="7.25023">
        <ele>1879.8</ele>
        <time>2023-02-05T10:10:01Z</time>
      </trkpt>
      <trkpt lat="44.13053" lon="7.25024">
        <ele>1879.9</ele>
        <time>2023-02-05T10:10:02Z</time>
      </trkpt>
      <trkpt lat="44.13053" lon="7.25025">
        <ele>1879.9</ele>
        <time>2023-02-05T10:10:03Z</time>
      </trkpt>
      <trkpt lat="44.13053" lon="7.25027">
        <ele>1880</ele>
        <time>2023-02-05T10:10:04Z</time>
      </trkpt>
      <trkpt lat="44.13054" lon="7.25028">
        <ele>1880.1</ele>
        <time>2023-02-05T10:10:05Z</time>
      </trkpt>
      <trkpt lat="44.13054" lon="7.25029">
        <ele>1880.3</ele>
        <time>2023-02-05T10:10:06Z</time>
      </trkpt>
      <trkpt lat="44.13054" lon="7.2503">
        <ele>1880.4</ele>
        <time>2023-02-05T10:10:07Z</time>
      </trkpt>
      <trkpt lat="44.13054" lon="7.25031">
        <ele>1880.6</ele>
        <time>2023-02-05T10:10:08Z</time>
      </trkpt>
      <trkpt lat="44.13054" lon="7.25032">
        <ele>1880.7</ele>
        <time>2023-02-05T10:10:09Z</time>
      </trkpt>
      <trkpt lat="44.13054" lon="7.25033">
        <ele>1880.8</ele>
        <time>2023-02-05T10:10:10Z</time>
      </trkpt>
      <trkpt lat="44.13055" lon="7.25034">
        <ele>1880.8</ele>
        <time>2023-02-05T10:10:11Z</time>
      </trkpt>
      <trkpt lat="44.13055" lon="7.25035">
        <ele>1880.9</ele>
        <time>2023-02-05T10:10:12Z</time>
      </trkpt>
      <trkpt lat="44.13055" lon="7.25037">
        <ele>1881</ele>
        <time>2023-02-05T10:10:13Z</time>
      </trkpt>
      <trkpt lat="44.13055" lon="7.25038">
        <ele>1881</ele>
        <time>2023-02-05T10:10:14Z</time>
      </trkpt>
      <trkpt lat="44.13055" lon="7.25039">
        <ele>1881</ele>
        <time>2023-02-05T10:10:15Z</time>
      </trkpt>
      <trkpt lat="44.13055" lon="7.2504">
        <ele>1881</ele>
        <time>2023-02-05T10:10:16Z</time>
      </trkpt>
      <trkpt lat="44.13055" lon="7.25041">
        <ele>1881.1</ele>
        <time>2023-02-05T10:10:17Z</time>
      </trkpt>
      <trkpt lat="44.13055" lon="7.25042">
        <ele>1881.2</ele>
        <time>2023-02-05T10:10:18Z</time>
      </trkpt>
      <trkpt lat="44.13055" lon="7.25043">
        <ele>1881.3</ele>
        <time>2023-02-05T10:10:19Z</time>
      </trkpt>
      <trkpt lat="44.13055" lon="7.25044">
        <ele>1881.4</ele>
        <time>2023-02-05T10:10:20Z</time>
      </trkpt>
      <trkpt lat="44.13055" lon="7.25045">
        <ele>1881.5</ele>
        <time>2023-02-05T10:10:21Z</time>
      </trkpt>
      <trkpt lat="44.13055" lon="7.25046">
        <ele>1881.7</ele>
        <time>2023-02-05T10:10:22Z</time>
      </trkpt>
      <trkpt lat="44.13055" lon="7.25047">
        <ele>1881.8</ele>
        <time>2023-02-05T10:10:23Z</time>
      </trkpt>
      <trkpt lat="44.13055" lon="7.25049">
        <ele>1881.8</ele>
        <time>2023-02-05T10:10:24Z</time>
      </trkpt>
      <trkpt lat="44.13054" lon="7.25049">
        <ele>1881.9</ele>
        <time>2023-02-05T10:10:25Z</time>
      </trkpt>
      <trkpt lat="44.13055" lon="7.2505">
        <ele>1881.9</ele>
        <time>2023-02-05T10:10:26Z</time>
      </trkpt>
      <trkpt lat="44.13054" lon="7.25052">
        <ele>1882</ele>
        <time>2023-02-05T10:10:27Z</time>
      </trkpt>
      <trkpt lat="44.13054" lon="7.25053">
        <ele>1882.2</ele>
        <time>2023-02-05T10:10:28Z</time>
      </trkpt>
      <trkpt lat="44.13055" lon="7.25054">
        <ele>1882.3</ele>
        <time>2023-02-05T10:10:29Z</time>
      </trkpt>
      <trkpt lat="44.13055" lon="7.25055">
        <ele>1882.5</ele>
        <time>2023-02-05T10:10:30Z</time>
      </trkpt>
      <trkpt lat="44.13055" lon="7.25056">
        <ele>1882.6</ele>
        <time>2023-02-05T10:10:31Z</time>
      </trkpt>
      <trkpt lat="44.13055" lon="7.25057">
        <ele>1882.8</ele>
        <time>2023-02-05T10:10:32Z</time>
      </trkpt>
      <trkpt lat="44.13055" lon="7.25058">
        <ele>1882.9</ele>
        <time>2023-02-05T10:10:33Z</time>
      </trkpt>
      <trkpt lat="44.13056" lon="7.25059">
        <ele>1883</ele>
        <time>2023-02-05T10:10:34Z</time>
      </trkpt>
      <trkpt lat="44.13056" lon="7.25061">
        <ele>1883.1</ele>
        <time>2023-02-05T10:10:35Z</time>
      </trkpt>
      <trkpt lat="44.13056" lon="7.25062">
        <ele>1883.1</ele>
        <time>2023-02-05T10:10:36Z</time>
      </trkpt>
      <trkpt lat="44.13056" lon="7.25063">
        <ele>1883.2</ele>
        <time>2023-02-05T10:10:37Z</time>
      </trkpt>
      <trkpt lat="44.13056" lon="7.25064">
        <ele>1883.3</ele>
        <time>2023-02-05T10:10:38Z</time>
      </trkpt>
      <trkpt lat="44.13055" lon="7.25065">
        <ele>1883.4</ele>
        <time>2023-02-05T10:10:39Z</time>
      </trkpt>
      <trkpt lat="44.13055" lon="7.25066">
        <ele>1883.4</ele>
        <time>2023-02-05T10:10:40Z</time>
      </trkpt>
      <trkpt lat="44.13055" lon="7.25068">
        <ele>1883.5</ele>
        <time>2023-02-05T10:10:41Z</time>
      </trkpt>
      <trkpt lat="44.13056" lon="7.25069">
        <ele>1883.5</ele>
        <time>2023-02-05T10:10:42Z</time>
      </trkpt>
      <trkpt lat="44.13055" lon="7.2507">
        <ele>1883.5</ele>
        <time>2023-02-05T10:10:43Z</time>
      </trkpt>
      <trkpt lat="44.13055" lon="7.25071">
        <ele>1883.6</ele>
        <time>2023-02-05T10:10:44Z</time>
      </trkpt>
      <trkpt lat="44.13056" lon="7.25073">
        <ele>1883.7</ele>
        <time>2023-02-05T10:10:45Z</time>
      </trkpt>
      <trkpt lat="44.13055" lon="7.25074">
        <ele>1883.8</ele>
        <time>2023-02-05T10:10:46Z</time>
      </trkpt>
      <trkpt lat="44.13055" lon="7.25075">
        <ele>1883.9</ele>
        <time>2023-02-05T10:10:47Z</time>
      </trkpt>
      <trkpt lat="44.13055" lon="7.25076">
        <ele>1884</ele>
        <time>2023-02-05T10:10:48Z</time>
      </trkpt>
      <trkpt lat="44.13055" lon="7.25077">
        <ele>1884.1</ele>
        <time>2023-02-05T10:10:49Z</time>
      </trkpt>
      <trkpt lat="44.13055" lon="7.25078">
        <ele>1884.2</ele>
        <time>2023-02-05T10:10:50Z</time>
      </trkpt>
      <trkpt lat="44.13055" lon="7.2508">
        <ele>1884.3</ele>
        <time>2023-02-05T10:10:51Z</time>
      </trkpt>
      <trkpt lat="44.13056" lon="7.2508">
        <ele>1884.4</ele>
        <time>2023-02-05T10:10:52Z</time>
      </trkpt>
      <trkpt lat="44.13055" lon="7.25082">
        <ele>1884.5</ele>
        <time>2023-02-05T10:10:53Z</time>
      </trkpt>
      <trkpt lat="44.13055" lon="7.25083">
        <ele>1884.5</ele>
        <time>2023-02-05T10:10:54Z</time>
      </trkpt>
      <trkpt lat="44.13056" lon="7.25083">
        <ele>1884.6</ele>
        <time>2023-02-05T10:10:55Z</time>
      </trkpt>
      <trkpt lat="44.13056" lon="7.25085">
        <ele>1884.6</ele>
        <time>2023-02-05T10:10:56Z</time>
      </trkpt>
      <trkpt lat="44.13055" lon="7.25086">
        <ele>1884.6</ele>
        <time>2023-02-05T10:10:57Z</time>
      </trkpt>
      <trkpt lat="44.13055" lon="7.25087">
        <ele>1884.5</ele>
        <time>2023-02-05T10:10:58Z</time>
      </trkpt>
      <trkpt lat="44.13056" lon="7.25088">
        <ele>1884.5</ele>
        <time>2023-02-05T10:10:59Z</time>
      </trkpt>
      <trkpt lat="44.13056" lon="7.25089">
        <ele>1884.6</ele>
        <time>2023-02-05T10:11:00Z</time>
      </trkpt>
      <trkpt lat="44.13056" lon="7.2509">
        <ele>1884.6</ele>
        <time>2023-02-05T10:11:01Z</time>
      </trkpt>
      <trkpt lat="44.13056" lon="7.25091">
        <ele>1884.7</ele>
        <time>2023-02-05T10:11:02Z</time>
      </trkpt>
      <trkpt lat="44.13056" lon="7.25092">
        <ele>1884.8</ele>
        <time>2023-02-05T10:11:03Z</time>
      </trkpt>
      <trkpt lat="44.13055" lon="7.25093">
        <ele>1884.9</ele>
        <time>2023-02-05T10:11:04Z</time>
      </trkpt>
      <trkpt lat="44.13056" lon="7.25094">
        <ele>1885</ele>
        <time>2023-02-05T10:11:05Z</time>
      </trkpt>
      <trkpt lat="44.13056" lon="7.25095">
        <ele>1885</ele>
        <time>2023-02-05T10:11:06Z</time>
      </trkpt>
      <trkpt lat="44.13056" lon="7.25096">
        <ele>1885.1</ele>
        <time>2023-02-05T10:11:07Z</time>
      </trkpt>
      <trkpt lat="44.13056" lon="7.25097">
        <ele>1885.1</ele>
        <time>2023-02-05T10:11:08Z</time>
      </trkpt>
      <trkpt lat="44.13056" lon="7.25098">
        <ele>1885.2</ele>
        <time>2023-02-05T10:11:09Z</time>
      </trkpt>
      <trkpt lat="44.13056" lon="7.25099">
        <ele>1885.2</ele>
        <time>2023-02-05T10:11:10Z</time>
      </trkpt>
      <trkpt lat="44.13056" lon="7.251">
        <ele>1885.3</ele>
        <time>2023-02-05T10:11:11Z</time>
      </trkpt>
      <trkpt lat="44.13056" lon="7.25101">
        <ele>1885.3</ele>
        <time>2023-02-05T10:11:12Z</time>
      </trkpt>
      <trkpt lat="44.13056" lon="7.25103">
        <ele>1885.4</ele>
        <time>2023-02-05T10:11:13Z</time>
      </trkpt>
      <trkpt lat="44.13056" lon="7.25104">
        <ele>1885.4</ele>
        <time>2023-02-05T10:11:14Z</time>
      </trkpt>
      <trkpt lat="44.13056" lon="7.25106">
        <ele>1885.5</ele>
        <time>2023-02-05T10:11:15Z</time>
      </trkpt>
      <trkpt lat="44.13056" lon="7.25106">
        <ele>1885.6</ele>
        <time>2023-02-05T10:11:16Z</time>
      </trkpt>
      <trkpt lat="44.13056" lon="7.25108">
        <ele>1885.6</ele>
        <time>2023-02-05T10:11:17Z</time>
      </trkpt>
      <trkpt lat="44.13056" lon="7.25109">
        <ele>1885.7</ele>
        <time>2023-02-05T10:11:18Z</time>
      </trkpt>
      <trkpt lat="44.13056" lon="7.2511">
        <ele>1885.7</ele>
        <time>2023-02-05T10:11:19Z</time>
      </trkpt>
      <trkpt lat="44.13056" lon="7.25111">
        <ele>1885.8</ele>
        <time>2023-02-05T10:11:20Z</time>
      </trkpt>
      <trkpt lat="44.13056" lon="7.25113">
        <ele>1885.8</ele>
        <time>2023-02-05T10:11:21Z</time>
      </trkpt>
      <trkpt lat="44.13056" lon="7.25114">
        <ele>1885.8</ele>
        <time>2023-02-05T10:11:22Z</time>
      </trkpt>
      <trkpt lat="44.13056" lon="7.25115">
        <ele>1885.9</ele>
        <time>2023-02-05T10:11:23Z</time>
      </trkpt>
      <trkpt lat="44.13056" lon="7.25117">
        <ele>1886</ele>
        <time>2023-02-05T10:11:24Z</time>
      </trkpt>
      <trkpt lat="44.13056" lon="7.25118">
        <ele>1886</ele>
        <time>2023-02-05T10:11:25Z</time>
      </trkpt>
      <trkpt lat="44.13056" lon="7.25119">
        <ele>1886.1</ele>
        <time>2023-02-05T10:11:26Z</time>
      </trkpt>
      <trkpt lat="44.13056" lon="7.25121">
        <ele>1886.2</ele>
        <time>2023-02-05T10:11:27Z</time>
      </trkpt>
      <trkpt lat="44.13056" lon="7.25122">
        <ele>1886.3</ele>
        <time>2023-02-05T10:11:28Z</time>
      </trkpt>
      <trkpt lat="44.13056" lon="7.25123">
        <ele>1886.4</ele>
        <time>2023-02-05T10:11:29Z</time>
      </trkpt>
      <trkpt lat="44.13056" lon="7.25125">
        <ele>1886.5</ele>
        <time>2023-02-05T10:11:30Z</time>
      </trkpt>
      <trkpt lat="44.13055" lon="7.25126">
        <ele>1886.6</ele>
        <time>2023-02-05T10:11:31Z</time>
      </trkpt>
      <trkpt lat="44.13055" lon="7.25127">
        <ele>1886.7</ele>
        <time>2023-02-05T10:11:32Z</time>
      </trkpt>
      <trkpt lat="44.13055" lon="7.25128">
        <ele>1886.8</ele>
        <time>2023-02-05T10:11:33Z</time>
      </trkpt>
      <trkpt lat="44.13056" lon="7.25129">
        <ele>1886.9</ele>
        <time>2023-02-05T10:11:34Z</time>
      </trkpt>
      <trkpt lat="44.13056" lon="7.2513">
        <ele>1886.9</ele>
        <time>2023-02-05T10:11:35Z</time>
      </trkpt>
      <trkpt lat="44.13055" lon="7.25131">
        <ele>1887</ele>
        <time>2023-02-05T10:11:36Z</time>
      </trkpt>
      <trkpt lat="44.13055" lon="7.25133">
        <ele>1887.1</ele>
        <time>2023-02-05T10:11:37Z</time>
      </trkpt>
      <trkpt lat="44.13055" lon="7.25134">
        <ele>1887.2</ele>
        <time>2023-02-05T10:11:38Z</time>
      </trkpt>
      <trkpt lat="44.13055" lon="7.25135">
        <ele>1887.2</ele>
        <time>2023-02-05T10:11:39Z</time>
      </trkpt>
      <trkpt lat="44.13055" lon="7.25137">
        <ele>1887.4</ele>
        <time>2023-02-05T10:11:40Z</time>
      </trkpt>
      <trkpt lat="44.13056" lon="7.25138">
        <ele>1887.5</ele>
        <time>2023-02-05T10:11:41Z</time>
      </trkpt>
      <trkpt lat="44.13056" lon="7.25139">
        <ele>1887.6</ele>
        <time>2023-02-05T10:11:42Z</time>
      </trkpt>
      <trkpt lat="44.13057" lon="7.2514">
        <ele>1887.7</ele>
        <time>2023-02-05T10:11:43Z</time>
      </trkpt>
      <trkpt lat="44.13058" lon="7.25141">
        <ele>1887.7</ele>
        <time>2023-02-05T10:11:44Z</time>
      </trkpt>
      <trkpt lat="44.13059" lon="7.25141">
        <ele>1887.8</ele>
        <time>2023-02-05T10:11:45Z</time>
      </trkpt>
      <trkpt lat="44.1306" lon="7.25142">
        <ele>1887.4</ele>
        <time>2023-02-05T10:11:46Z</time>
      </trkpt>
      <trkpt lat="44.13062" lon="7.25143">
        <ele>1887.3</ele>
        <time>2023-02-05T10:11:47Z</time>
      </trkpt>
      <trkpt lat="44.13063" lon="7.25143">
        <ele>1887.5</ele>
        <time>2023-02-05T10:11:48Z</time>
      </trkpt>
      <trkpt lat="44.13064" lon="7.25143">
        <ele>1887.7</ele>
        <time>2023-02-05T10:11:49Z</time>
      </trkpt>
      <trkpt lat="44.13065" lon="7.25143">
        <ele>1888</ele>
        <time>2023-02-05T10:11:50Z</time>
      </trkpt>
      <trkpt lat="44.13066" lon="7.25142">
        <ele>1888.2</ele>
        <time>2023-02-05T10:11:51Z</time>
      </trkpt>
      <trkpt lat="44.13066" lon="7.25141">
        <ele>1888.4</ele>
        <time>2023-02-05T10:11:52Z</time>
      </trkpt>
      <trkpt lat="44.13067" lon="7.25141">
        <ele>1888.6</ele>
        <time>2023-02-05T10:11:53Z</time>
      </trkpt>
      <trkpt lat="44.13068" lon="7.25141">
        <ele>1888.8</ele>
        <time>2023-02-05T10:11:54Z</time>
      </trkpt>
      <trkpt lat="44.13069" lon="7.25141">
        <ele>1889</ele>
        <time>2023-02-05T10:11:55Z</time>
      </trkpt>
      <trkpt lat="44.1307" lon="7.2514">
        <ele>1889.2</ele>
        <time>2023-02-05T10:11:56Z</time>
      </trkpt>
      <trkpt lat="44.1307" lon="7.25139">
        <ele>1889.3</ele>
        <time>2023-02-05T10:11:57Z</time>
      </trkpt>
      <trkpt lat="44.13071" lon="7.25138">
        <ele>1889.5</ele>
        <time>2023-02-05T10:11:58Z</time>
      </trkpt>
      <trkpt lat="44.13071" lon="7.25137">
        <ele>1889.7</ele>
        <time>2023-02-05T10:11:59Z</time>
      </trkpt>
      <trkpt lat="44.13071" lon="7.25136">
        <ele>1889.8</ele>
        <time>2023-02-05T10:12:00Z</time>
      </trkpt>
      <trkpt lat="44.13071" lon="7.25134">
        <ele>1889.9</ele>
        <time>2023-02-05T10:12:01Z</time>
      </trkpt>
      <trkpt lat="44.13072" lon="7.25133">
        <ele>1890.1</ele>
        <time>2023-02-05T10:12:02Z</time>
      </trkpt>
      <trkpt lat="44.13072" lon="7.25133">
        <ele>1890.2</ele>
        <time>2023-02-05T10:12:03Z</time>
      </trkpt>
      <trkpt lat="44.13072" lon="7.25131">
        <ele>1890.4</ele>
        <time>2023-02-05T10:12:04Z</time>
      </trkpt>
      <trkpt lat="44.13072" lon="7.2513">
        <ele>1890.4</ele>
        <time>2023-02-05T10:12:05Z</time>
      </trkpt>
      <trkpt lat="44.13072" lon="7.25129">
        <ele>1890.5</ele>
        <time>2023-02-05T10:12:06Z</time>
      </trkpt>
      <trkpt lat="44.13072" lon="7.25129">
        <ele>1890.6</ele>
        <time>2023-02-05T10:12:07Z</time>
      </trkpt>
      <trkpt lat="44.13072" lon="7.25127">
        <ele>1890.7</ele>
        <time>2023-02-05T10:12:08Z</time>
      </trkpt>
      <trkpt lat="44.13072" lon="7.25126">
        <ele>1890.8</ele>
        <time>2023-02-05T10:12:09Z</time>
      </trkpt>
      <trkpt lat="44.13072" lon="7.25125">
        <ele>1890.8</ele>
        <time>2023-02-05T10:12:10Z</time>
      </trkpt>
      <trkpt lat="44.13072" lon="7.25125">
        <ele>1890.9</ele>
        <time>2023-02-05T10:12:11Z</time>
      </trkpt>
      <trkpt lat="44.13072" lon="7.25124">
        <ele>1890.9</ele>
        <time>2023-02-05T10:12:12Z</time>
      </trkpt>
      <trkpt lat="44.13072" lon="7.25123">
        <ele>1891</ele>
        <time>2023-02-05T10:12:13Z</time>
      </trkpt>
      <trkpt lat="44.13072" lon="7.25121">
        <ele>1891.1</ele>
        <time>2023-02-05T10:12:14Z</time>
      </trkpt>
      <trkpt lat="44.13072" lon="7.2512">
        <ele>1891.2</ele>
        <time>2023-02-05T10:12:15Z</time>
      </trkpt>
      <trkpt lat="44.13072" lon="7.25119">
        <ele>1891.3</ele>
        <time>2023-02-05T10:12:16Z</time>
      </trkpt>
      <trkpt lat="44.13073" lon="7.25118">
        <ele>1891.3</ele>
        <time>2023-02-05T10:12:17Z</time>
      </trkpt>
      <trkpt lat="44.13074" lon="7.25118">
        <ele>1891.4</ele>
        <time>2023-02-05T10:12:18Z</time>
      </trkpt>
      <trkpt lat="44.13074" lon="7.25117">
        <ele>1891.5</ele>
        <time>2023-02-05T10:12:19Z</time>
      </trkpt>
      <trkpt lat="44.13075" lon="7.25117">
        <ele>1891.6</ele>
        <time>2023-02-05T10:12:20Z</time>
      </trkpt>
      <trkpt lat="44.13075" lon="7.25116">
        <ele>1891.6</ele>
        <time>2023-02-05T10:12:21Z</time>
      </trkpt>
      <trkpt lat="44.13076" lon="7.25115">
        <ele>1891.7</ele>
        <time>2023-02-05T10:12:22Z</time>
      </trkpt>
      <trkpt lat="44.13076" lon="7.25115">
        <ele>1891.8</ele>
        <time>2023-02-05T10:12:23Z</time>
      </trkpt>
      <trkpt lat="44.13077" lon="7.25113">
        <ele>1891.9</ele>
        <time>2023-02-05T10:12:24Z</time>
      </trkpt>
      <trkpt lat="44.13077" lon="7.25112">
        <ele>1892</ele>
        <time>2023-02-05T10:12:25Z</time>
      </trkpt>
      <trkpt lat="44.13077" lon="7.25111">
        <ele>1892.1</ele>
        <time>2023-02-05T10:12:26Z</time>
      </trkpt>
      <trkpt lat="44.13077" lon="7.2511">
        <ele>1892.2</ele>
        <time>2023-02-05T10:12:27Z</time>
      </trkpt>
      <trkpt lat="44.13077" lon="7.2511">
        <ele>1892.3</ele>
        <time>2023-02-05T10:12:28Z</time>
      </trkpt>
      <trkpt lat="44.13077" lon="7.2511">
        <ele>1892.4</ele>
        <time>2023-02-05T10:12:29Z</time>
      </trkpt>
      <trkpt lat="44.13076" lon="7.25109">
        <ele>1892.3</ele>
        <time>2023-02-05T10:12:30Z</time>
      </trkpt>
      <trkpt lat="44.13077" lon="7.25108">
        <ele>1892.3</ele>
        <time>2023-02-05T10:12:31Z</time>
      </trkpt>
      <trkpt lat="44.13077" lon="7.25107">
        <ele>1892.4</ele>
        <time>2023-02-05T10:12:32Z</time>
      </trkpt>
      <trkpt lat="44.13077" lon="7.25107">
        <ele>1892.4</ele>
        <time>2023-02-05T10:12:33Z</time>
      </trkpt>
      <trkpt lat="44.13078" lon="7.25106">
        <ele>1892.4</ele>
        <time>2023-02-05T10:12:34Z</time>
      </trkpt>
      <trkpt lat="44.13078" lon="7.25105">
        <ele>1892.4</ele>
        <time>2023-02-05T10:12:35Z</time>
      </trkpt>
      <trkpt lat="44.13078" lon="7.25105">
        <ele>1892.5</ele>
        <time>2023-02-05T10:12:36Z</time>
      </trkpt>
      <trkpt lat="44.13078" lon="7.25104">
        <ele>1892.5</ele>
        <time>2023-02-05T10:12:37Z</time>
      </trkpt>
      <trkpt lat="44.13078" lon="7.25105">
        <ele>1892.5</ele>
        <time>2023-02-05T10:12:38Z</time>
      </trkpt>
      <trkpt lat="44.13078" lon="7.25105">
        <ele>1892.6</ele>
        <time>2023-02-05T10:12:39Z</time>
      </trkpt>
      <trkpt lat="44.13079" lon="7.25105">
        <ele>1892.7</ele>
        <time>2023-02-05T10:12:40Z</time>
      </trkpt>
      <trkpt lat="44.13079" lon="7.25105">
        <ele>1892.8</ele>
        <time>2023-02-05T10:12:41Z</time>
      </trkpt>
      <trkpt lat="44.13079" lon="7.25105">
        <ele>1892.8</ele>
        <time>2023-02-05T10:12:42Z</time>
      </trkpt>
      <trkpt lat="44.1308" lon="7.25104">
        <ele>1892.8</ele>
        <time>2023-02-05T10:12:43Z</time>
      </trkpt>
      <trkpt lat="44.1308" lon="7.25104">
        <ele>1892.8</ele>
        <time>2023-02-05T10:12:44Z</time>
      </trkpt>
      <trkpt lat="44.1308" lon="7.25103">
        <ele>1892.9</ele>
        <time>2023-02-05T10:12:45Z</time>
      </trkpt>
      <trkpt lat="44.13081" lon="7.25102">
        <ele>1893</ele>
        <time>2023-02-05T10:12:46Z</time>
      </trkpt>
      <trkpt lat="44.13081" lon="7.25101">
        <ele>1892.9</ele>
        <time>2023-02-05T10:12:47Z</time>
      </trkpt>
      <trkpt lat="44.13081" lon="7.25101">
        <ele>1892.9</ele>
        <time>2023-02-05T10:12:48Z</time>
      </trkpt>
      <trkpt lat="44.13081" lon="7.251">
        <ele>1893</ele>
        <time>2023-02-05T10:12:49Z</time>
      </trkpt>
      <trkpt lat="44.13082" lon="7.251">
        <ele>1893</ele>
        <time>2023-02-05T10:12:50Z</time>
      </trkpt>
      <trkpt lat="44.13081" lon="7.251">
        <ele>1893</ele>
        <time>2023-02-05T10:12:51Z</time>
      </trkpt>
      <trkpt lat="44.13082" lon="7.25099">
        <ele>1893</ele>
        <time>2023-02-05T10:12:52Z</time>
      </trkpt>
      <trkpt lat="44.13082" lon="7.25099">
        <ele>1893.1</ele>
        <time>2023-02-05T10:12:53Z</time>
      </trkpt>
      <trkpt lat="44.13082" lon="7.25098">
        <ele>1893.1</ele>
        <time>2023-02-05T10:12:54Z</time>
      </trkpt>
      <trkpt lat="44.13082" lon="7.25097">
        <ele>1893.1</ele>
        <time>2023-02-05T10:12:55Z</time>
      </trkpt>
      <trkpt lat="44.13083" lon="7.25097">
        <ele>1893.1</ele>
        <time>2023-02-05T10:12:56Z</time>
      </trkpt>
      <trkpt lat="44.13084" lon="7.25096">
        <ele>1893.2</ele>
        <time>2023-02-05T10:12:57Z</time>
      </trkpt>
      <trkpt lat="44.13084" lon="7.25095">
        <ele>1893.2</ele>
        <time>2023-02-05T10:12:58Z</time>
      </trkpt>
      <trkpt lat="44.13084" lon="7.25094">
        <ele>1893.2</ele>
        <time>2023-02-05T10:12:59Z</time>
      </trkpt>
      <trkpt lat="44.13084" lon="7.25093">
        <ele>1893.2</ele>
        <time>2023-02-05T10:13:00Z</time>
      </trkpt>
      <trkpt lat="44.13084" lon="7.25092">
        <ele>1893.2</ele>
        <time>2023-02-05T10:13:01Z</time>
      </trkpt>
      <trkpt lat="44.13085" lon="7.25092">
        <ele>1893.2</ele>
        <time>2023-02-05T10:13:02Z</time>
      </trkpt>
      <trkpt lat="44.13085" lon="7.2509">
        <ele>1893.3</ele>
        <time>2023-02-05T10:13:03Z</time>
      </trkpt>
      <trkpt lat="44.13085" lon="7.25089">
        <ele>1893.4</ele>
        <time>2023-02-05T10:13:04Z</time>
      </trkpt>
      <trkpt lat="44.13085" lon="7.25088">
        <ele>1893.4</ele>
        <time>2023-02-05T10:13:05Z</time>
      </trkpt>
      <trkpt lat="44.13086" lon="7.25087">
        <ele>1893.5</ele>
        <time>2023-02-05T10:13:06Z</time>
      </trkpt>
      <trkpt lat="44.13086" lon="7.25086">
        <ele>1893.6</ele>
        <time>2023-02-05T10:13:07Z</time>
      </trkpt>
      <trkpt lat="44.13086" lon="7.25085">
        <ele>1893.7</ele>
        <time>2023-02-05T10:13:08Z</time>
      </trkpt>
      <trkpt lat="44.13086" lon="7.25084">
        <ele>1893.9</ele>
        <time>2023-02-05T10:13:09Z</time>
      </trkpt>
      <trkpt lat="44.13086" lon="7.25083">
        <ele>1894</ele>
        <time>2023-02-05T10:13:10Z</time>
      </trkpt>
      <trkpt lat="44.13086" lon="7.25082">
        <ele>1894.1</ele>
        <time>2023-02-05T10:13:11Z</time>
      </trkpt>
      <trkpt lat="44.13086" lon="7.25081">
        <ele>1894.2</ele>
        <time>2023-02-05T10:13:12Z</time>
      </trkpt>
      <trkpt lat="44.13087" lon="7.2508">
        <ele>1894.3</ele>
        <time>2023-02-05T10:13:13Z</time>
      </trkpt>
      <trkpt lat="44.13087" lon="7.25079">
        <ele>1894.5</ele>
        <time>2023-02-05T10:13:14Z</time>
      </trkpt>
      <trkpt lat="44.13087" lon="7.25079">
        <ele>1894.7</ele>
        <time>2023-02-05T10:13:15Z</time>
      </trkpt>
      <trkpt lat="44.13087" lon="7.25078">
        <ele>1894.9</ele>
        <time>2023-02-05T10:13:16Z</time>
      </trkpt>
      <trkpt lat="44.13088" lon="7.25076">
        <ele>1894.9</ele>
        <time>2023-02-05T10:13:17Z</time>
      </trkpt>
      <trkpt lat="44.13088" lon="7.25075">
        <ele>1894.9</ele>
        <time>2023-02-05T10:13:18Z</time>
      </trkpt>
      <trkpt lat="44.13088" lon="7.25074">
        <ele>1894.9</ele>
        <time>2023-02-05T10:13:19Z</time>
      </trkpt>
      <trkpt lat="44.13088" lon="7.25073">
        <ele>1894.9</ele>
        <time>2023-02-05T10:13:20Z</time>
      </trkpt>
      <trkpt lat="44.13089" lon="7.25072">
        <ele>1894.9</ele>
        <time>2023-02-05T10:13:21Z</time>
      </trkpt>
      <trkpt lat="44.13089" lon="7.25071">
        <ele>1895</ele>
        <time>2023-02-05T10:13:22Z</time>
      </trkpt>
      <trkpt lat="44.13089" lon="7.2507">
        <ele>1895.1</ele>
        <time>2023-02-05T10:13:23Z</time>
      </trkpt>
      <trkpt lat="44.1309" lon="7.2507">
        <ele>1895.1</ele>
        <time>2023-02-05T10:13:24Z</time>
      </trkpt>
      <trkpt lat="44.1309" lon="7.25069">
        <ele>1895.2</ele>
        <time>2023-02-05T10:13:25Z</time>
      </trkpt>
      <trkpt lat="44.13091" lon="7.25068">
        <ele>1895.3</ele>
        <time>2023-02-05T10:13:26Z</time>
      </trkpt>
      <trkpt lat="44.13091" lon="7.25067">
        <ele>1895.4</ele>
        <time>2023-02-05T10:13:27Z</time>
      </trkpt>
      <trkpt lat="44.13091" lon="7.25066">
        <ele>1895.6</ele>
        <time>2023-02-05T10:13:28Z</time>
      </trkpt>
      <trkpt lat="44.13092" lon="7.25065">
        <ele>1895.6</ele>
        <time>2023-02-05T10:13:29Z</time>
      </trkpt>
      <trkpt lat="44.13093" lon="7.25065">
        <ele>1895.6</ele>
        <time>2023-02-05T10:13:30Z</time>
      </trkpt>
      <trkpt lat="44.13093" lon="7.25064">
        <ele>1895.7</ele>
        <time>2023-02-05T10:13:31Z</time>
      </trkpt>
      <trkpt lat="44.13094" lon="7.25062">
        <ele>1895.8</ele>
        <time>2023-02-05T10:13:32Z</time>
      </trkpt>
      <trkpt lat="44.13094" lon="7.25061">
        <ele>1895.8</ele>
        <time>2023-02-05T10:13:33Z</time>
      </trkpt>
      <trkpt lat="44.13094" lon="7.2506">
        <ele>1895.9</ele>
        <time>2023-02-05T10:13:34Z</time>
      </trkpt>
      <trkpt lat="44.13095" lon="7.25059">
        <ele>1896</ele>
        <time>2023-02-05T10:13:35Z</time>
      </trkpt>
      <trkpt lat="44.13095" lon="7.25058">
        <ele>1896.1</ele>
        <time>2023-02-05T10:13:36Z</time>
      </trkpt>
      <trkpt lat="44.13096" lon="7.25057">
        <ele>1896.2</ele>
        <time>2023-02-05T10:13:37Z</time>
      </trkpt>
      <trkpt lat="44.13096" lon="7.25056">
        <ele>1896.3</ele>
        <time>2023-02-05T10:13:38Z</time>
      </trkpt>
      <trkpt lat="44.13097" lon="7.25056">
        <ele>1896.5</ele>
        <time>2023-02-05T10:13:39Z</time>
      </trkpt>
      <trkpt lat="44.13097" lon="7.25055">
        <ele>1896.6</ele>
        <time>2023-02-05T10:13:40Z</time>
      </trkpt>
      <trkpt lat="44.13098" lon="7.25054">
        <ele>1896.7</ele>
        <time>2023-02-05T10:13:41Z</time>
      </trkpt>
      <trkpt lat="44.13098" lon="7.25053">
        <ele>1896.8</ele>
        <time>2023-02-05T10:13:42Z</time>
      </trkpt>
      <trkpt lat="44.13099" lon="7.25052">
        <ele>1896.9</ele>
        <time>2023-02-05T10:13:43Z</time>
      </trkpt>
      <trkpt lat="44.13099" lon="7.25051">
        <ele>1896.9</ele>
        <time>2023-02-05T10:13:44Z</time>
      </trkpt>
      <trkpt lat="44.131" lon="7.2505">
        <ele>1896.9</ele>
        <time>2023-02-05T10:13:45Z</time>
      </trkpt>
      <trkpt lat="44.131" lon="7.2505">
        <ele>1897</ele>
        <time>2023-02-05T10:13:46Z</time>
      </trkpt>
      <trkpt lat="44.13101" lon="7.25049">
        <ele>1897</ele>
        <time>2023-02-05T10:13:47Z</time>
      </trkpt>
      <trkpt lat="44.13102" lon="7.25048">
        <ele>1897.1</ele>
        <time>2023-02-05T10:13:48Z</time>
      </trkpt>
      <trkpt lat="44.13102" lon="7.25047">
        <ele>1897.1</ele>
        <time>2023-02-05T10:13:49Z</time>
      </trkpt>
      <trkpt lat="44.13102" lon="7.25047">
        <ele>1897.3</ele>
        <time>2023-02-05T10:13:50Z</time>
      </trkpt>
      <trkpt lat="44.13102" lon="7.25047">
        <ele>1897.4</ele>
        <time>2023-02-05T10:13:51Z</time>
      </trkpt>
      <trkpt lat="44.13103" lon="7.25046">
        <ele>1897.3</ele>
        <time>2023-02-05T10:13:52Z</time>
      </trkpt>
      <trkpt lat="44.13103" lon="7.25045">
        <ele>1897.2</ele>
        <time>2023-02-05T10:13:53Z</time>
      </trkpt>
      <trkpt lat="44.13103" lon="7.25044">
        <ele>1897.1</ele>
        <time>2023-02-05T10:13:54Z</time>
      </trkpt>
      <trkpt lat="44.13104" lon="7.25044">
        <ele>1897</ele>
        <time>2023-02-05T10:13:55Z</time>
      </trkpt>
      <trkpt lat="44.13105" lon="7.25043">
        <ele>1897.1</ele>
        <time>2023-02-05T10:13:56Z</time>
      </trkpt>
      <trkpt lat="44.13105" lon="7.25042">
        <ele>1897.2</ele>
        <time>2023-02-05T10:13:57Z</time>
      </trkpt>
      <trkpt lat="44.13106" lon="7.25042">
        <ele>1897.3</ele>
        <time>2023-02-05T10:13:58Z</time>
      </trkpt>
      <trkpt lat="44.13106" lon="7.25042">
        <ele>1897.3</ele>
        <time>2023-02-05T10:13:59Z</time>
      </trkpt>
      <trkpt lat="44.13106" lon="7.25041">
        <ele>1897.4</ele>
        <time>2023-02-05T10:14:00Z</time>
      </trkpt>
      <trkpt lat="44.13107" lon="7.2504">
        <ele>1897.4</ele>
        <time>2023-02-05T10:14:01Z</time>
      </trkpt>
      <trkpt lat="44.13108" lon="7.25039">
        <ele>1897.5</ele>
        <time>2023-02-05T10:14:02Z</time>
      </trkpt>
      <trkpt lat="44.13108" lon="7.25038">
        <ele>1897.6</ele>
        <time>2023-02-05T10:14:03Z</time>
      </trkpt>
      <trkpt lat="44.13109" lon="7.25038">
        <ele>1897.8</ele>
        <time>2023-02-05T10:14:04Z</time>
      </trkpt>
      <trkpt lat="44.13109" lon="7.25037">
        <ele>1897.9</ele>
        <time>2023-02-05T10:14:05Z</time>
      </trkpt>
      <trkpt lat="44.1311" lon="7.25036">
        <ele>1898</ele>
        <time>2023-02-05T10:14:06Z</time>
      </trkpt>
      <trkpt lat="44.1311" lon="7.25036">
        <ele>1898.1</ele>
        <time>2023-02-05T10:14:07Z</time>
      </trkpt>
      <trkpt lat="44.1311" lon="7.25036">
        <ele>1898.2</ele>
        <time>2023-02-05T10:14:08Z</time>
      </trkpt>
      <trkpt lat="44.13109" lon="7.25035">
        <ele>1898.3</ele>
        <time>2023-02-05T10:14:09Z</time>
      </trkpt>
      <trkpt lat="44.13109" lon="7.25035">
        <ele>1898.4</ele>
        <time>2023-02-05T10:14:10Z</time>
      </trkpt>
      <trkpt lat="44.13108" lon="7.25034">
        <ele>1898.4</ele>
        <time>2023-02-05T10:14:11Z</time>
      </trkpt>
      <trkpt lat="44.13109" lon="7.25034">
        <ele>1898.5</ele>
        <time>2023-02-05T10:14:12Z</time>
      </trkpt>
      <trkpt lat="44.13109" lon="7.25033">
        <ele>1898.6</ele>
        <time>2023-02-05T10:14:13Z</time>
      </trkpt>
      <trkpt lat="44.1311" lon="7.25032">
        <ele>1898.7</ele>
        <time>2023-02-05T10:14:14Z</time>
      </trkpt>
      <trkpt lat="44.1311" lon="7.25031">
        <ele>1898.8</ele>
        <time>2023-02-05T10:14:15Z</time>
      </trkpt>
      <trkpt lat="44.13111" lon="7.2503">
        <ele>1898.8</ele>
        <time>2023-02-05T10:14:16Z</time>
      </trkpt>
      <trkpt lat="44.13111" lon="7.25029">
        <ele>1898.8</ele>
        <time>2023-02-05T10:14:17Z</time>
      </trkpt>
      <trkpt lat="44.13112" lon="7.25028">
        <ele>1898.8</ele>
        <time>2023-02-05T10:14:18Z</time>
      </trkpt>
      <trkpt lat="44.13112" lon="7.25027">
        <ele>1898.9</ele>
        <time>2023-02-05T10:14:19Z</time>
      </trkpt>
      <trkpt lat="44.13112" lon="7.25026">
        <ele>1898.9</ele>
        <time>2023-02-05T10:14:20Z</time>
      </trkpt>
      <trkpt lat="44.13113" lon="7.25025">
        <ele>1898.9</ele>
        <time>2023-02-05T10:14:21Z</time>
      </trkpt>
      <trkpt lat="44.13114" lon="7.25024">
        <ele>1899</ele>
        <time>2023-02-05T10:14:22Z</time>
      </trkpt>
      <trkpt lat="44.13114" lon="7.25023">
        <ele>1899</ele>
        <time>2023-02-05T10:14:23Z</time>
      </trkpt>
      <trkpt lat="44.13115" lon="7.25022">
        <ele>1899.1</ele>
        <time>2023-02-05T10:14:24Z</time>
      </trkpt>
      <trkpt lat="44.13116" lon="7.25021">
        <ele>1899.3</ele>
        <time>2023-02-05T10:14:25Z</time>
      </trkpt>
      <trkpt lat="44.13116" lon="7.2502">
        <ele>1899.4</ele>
        <time>2023-02-05T10:14:26Z</time>
      </trkpt>
      <trkpt lat="44.13117" lon="7.25019">
        <ele>1899.5</ele>
        <time>2023-02-05T10:14:27Z</time>
      </trkpt>
      <trkpt lat="44.13117" lon="7.25018">
        <ele>1899.5</ele>
        <time>2023-02-05T10:14:28Z</time>
      </trkpt>
      <trkpt lat="44.13117" lon="7.25016">
        <ele>1899.6</ele>
        <time>2023-02-05T10:14:29Z</time>
      </trkpt>
      <trkpt lat="44.13118" lon="7.25015">
        <ele>1899.6</ele>
        <time>2023-02-05T10:14:30Z</time>
      </trkpt>
      <trkpt lat="44.13118" lon="7.25014">
        <ele>1899.7</ele>
        <time>2023-02-05T10:14:31Z</time>
      </trkpt>
      <trkpt lat="44.13119" lon="7.25013">
        <ele>1899.8</ele>
        <time>2023-02-05T10:14:32Z</time>
      </trkpt>
      <trkpt lat="44.13119" lon="7.25012">
        <ele>1899.8</ele>
        <time>2023-02-05T10:14:33Z</time>
      </trkpt>
      <trkpt lat="44.1312" lon="7.25011">
        <ele>1899.8</ele>
        <time>2023-02-05T10:14:34Z</time>
      </trkpt>
      <trkpt lat="44.1312" lon="7.2501">
        <ele>1899.9</ele>
        <time>2023-02-05T10:14:35Z</time>
      </trkpt>
      <trkpt lat="44.1312" lon="7.25009">
        <ele>1900.1</ele>
        <time>2023-02-05T10:14:36Z</time>
      </trkpt>
      <trkpt lat="44.13121" lon="7.25007">
        <ele>1900.2</ele>
        <time>2023-02-05T10:14:37Z</time>
      </trkpt>
      <trkpt lat="44.13122" lon="7.25006">
        <ele>1900.3</ele>
        <time>2023-02-05T10:14:38Z</time>
      </trkpt>
      <trkpt lat="44.13122" lon="7.25005">
        <ele>1900.4</ele>
        <time>2023-02-05T10:14:39Z</time>
      </trkpt>
      <trkpt lat="44.13123" lon="7.25004">
        <ele>1900.5</ele>
        <time>2023-02-05T10:14:40Z</time>
      </trkpt>
      <trkpt lat="44.13123" lon="7.25003">
        <ele>1900.6</ele>
        <time>2023-02-05T10:14:41Z</time>
      </trkpt>
      <trkpt lat="44.13124" lon="7.25002">
        <ele>1900.7</ele>
        <time>2023-02-05T10:14:42Z</time>
      </trkpt>
      <trkpt lat="44.13125" lon="7.25001">
        <ele>1900.7</ele>
        <time>2023-02-05T10:14:43Z</time>
      </trkpt>
      <trkpt lat="44.13125" lon="7.25">
        <ele>1900.7</ele>
        <time>2023-02-05T10:14:44Z</time>
      </trkpt>
      <trkpt lat="44.13125" lon="7.24999">
        <ele>1900.8</ele>
        <time>2023-02-05T10:14:45Z</time>
      </trkpt>
      <trkpt lat="44.13124" lon="7.24998">
        <ele>1900.8</ele>
        <time>2023-02-05T10:14:46Z</time>
      </trkpt>
      <trkpt lat="44.13125" lon="7.24997">
        <ele>1900.9</ele>
        <time>2023-02-05T10:14:47Z</time>
      </trkpt>
      <trkpt lat="44.13125" lon="7.24996">
        <ele>1900.9</ele>
        <time>2023-02-05T10:14:48Z</time>
      </trkpt>
      <trkpt lat="44.13125" lon="7.24995">
        <ele>1901</ele>
        <time>2023-02-05T10:14:49Z</time>
      </trkpt>
      <trkpt lat="44.13126" lon="7.24994">
        <ele>1901</ele>
        <time>2023-02-05T10:14:50Z</time>
      </trkpt>
      <trkpt lat="44.13126" lon="7.24993">
        <ele>1901.1</ele>
        <time>2023-02-05T10:14:51Z</time>
      </trkpt>
      <trkpt lat="44.13126" lon="7.24993">
        <ele>1901.1</ele>
        <time>2023-02-05T10:14:52Z</time>
      </trkpt>
      <trkpt lat="44.13126" lon="7.24992">
        <ele>1901.2</ele>
        <time>2023-02-05T10:14:53Z</time>
      </trkpt>
      <trkpt lat="44.13126" lon="7.24992">
        <ele>1901.2</ele>
        <time>2023-02-05T10:14:54Z</time>
      </trkpt>
      <trkpt lat="44.13126" lon="7.24992">
        <ele>1901.2</ele>
        <time>2023-02-05T10:14:55Z</time>
      </trkpt>
      <trkpt lat="44.13126" lon="7.24992">
        <ele>1901.2</ele>
        <time>2023-02-05T10:14:56Z</time>
      </trkpt>
      <trkpt lat="44.13126" lon="7.24992">
        <ele>1901.3</ele>
        <time>2023-02-05T10:14:57Z</time>
      </trkpt>
      <trkpt lat="44.13126" lon="7.24991">
        <ele>1901.4</ele>
        <time>2023-02-05T10:14:58Z</time>
      </trkpt>
      <trkpt lat="44.13126" lon="7.24991">
        <ele>1901.5</ele>
        <time>2023-02-05T10:14:59Z</time>
      </trkpt>
      <trkpt lat="44.13127" lon="7.24991">
        <ele>1901.5</ele>
        <time>2023-02-05T10:15:00Z</time>
      </trkpt>
      <trkpt lat="44.13127" lon="7.2499">
        <ele>1901.5</ele>
        <time>2023-02-05T10:15:01Z</time>
      </trkpt>
      <trkpt lat="44.13127" lon="7.24989">
        <ele>1901.4</ele>
        <time>2023-02-05T10:15:02Z</time>
      </trkpt>
      <trkpt lat="44.13128" lon="7.24989">
        <ele>1901.5</ele>
        <time>2023-02-05T10:15:03Z</time>
      </trkpt>
      <trkpt lat="44.13129" lon="7.24988">
        <ele>1901.5</ele>
        <time>2023-02-05T10:15:04Z</time>
      </trkpt>
      <trkpt lat="44.13129" lon="7.24987">
        <ele>1901.5</ele>
        <time>2023-02-05T10:15:05Z</time>
      </trkpt>
      <trkpt lat="44.13129" lon="7.24986">
        <ele>1901.5</ele>
        <time>2023-02-05T10:15:06Z</time>
      </trkpt>
      <trkpt lat="44.13129" lon="7.24984">
        <ele>1901.4</ele>
        <time>2023-02-05T10:15:07Z</time>
      </trkpt>
      <trkpt lat="44.1313" lon="7.24983">
        <ele>1901.4</ele>
        <time>2023-02-05T10:15:08Z</time>
      </trkpt>
      <trkpt lat="44.1313" lon="7.24982">
        <ele>1901.4</ele>
        <time>2023-02-05T10:15:09Z</time>
      </trkpt>
      <trkpt lat="44.13131" lon="7.24982">
        <ele>1901.5</ele>
        <time>2023-02-05T10:15:10Z</time>
      </trkpt>
      <trkpt lat="44.13131" lon="7.24981">
        <ele>1901.6</ele>
        <time>2023-02-05T10:15:11Z</time>
      </trkpt>
      <trkpt lat="44.13131" lon="7.2498">
        <ele>1901.7</ele>
        <time>2023-02-05T10:15:12Z</time>
      </trkpt>
      <trkpt lat="44.13132" lon="7.2498">
        <ele>1901.7</ele>
        <time>2023-02-05T10:15:13Z</time>
      </trkpt>
      <trkpt lat="44.13132" lon="7.2498">
        <ele>1901.7</ele>
        <time>2023-02-05T10:15:14Z</time>
      </trkpt>
      <trkpt lat="44.13133" lon="7.2498">
        <ele>1901.8</ele>
        <time>2023-02-05T10:15:15Z</time>
      </trkpt>
      <trkpt lat="44.13133" lon="7.2498">
        <ele>1901.7</ele>
        <time>2023-02-05T10:15:16Z</time>
      </trkpt>
      <trkpt lat="44.13133" lon="7.2498">
        <ele>1901.8</ele>
        <time>2023-02-05T10:15:17Z</time>
      </trkpt>
      <trkpt lat="44.13133" lon="7.2498">
        <ele>1901.8</ele>
        <time>2023-02-05T10:15:18Z</time>
      </trkpt>
      <trkpt lat="44.13134" lon="7.24979">
        <ele>1901.8</ele>
        <time>2023-02-05T10:15:19Z</time>
      </trkpt>
      <trkpt lat="44.13134" lon="7.24978">
        <ele>1901.9</ele>
        <time>2023-02-05T10:15:20Z</time>
      </trkpt>
      <trkpt lat="44.13134" lon="7.24977">
        <ele>1902</ele>
        <time>2023-02-05T10:15:21Z</time>
      </trkpt>
      <trkpt lat="44.13135" lon="7.24976">
        <ele>1901.9</ele>
        <time>2023-02-05T10:15:22Z</time>
      </trkpt>
      <trkpt lat="44.13135" lon="7.24975">
        <ele>1902</ele>
        <time>2023-02-05T10:15:23Z</time>
      </trkpt>
      <trkpt lat="44.13135" lon="7.24975">
        <ele>1902.1</ele>
        <time>2023-02-05T10:15:24Z</time>
      </trkpt>
      <trkpt lat="44.13136" lon="7.24974">
        <ele>1902.1</ele>
        <time>2023-02-05T10:15:25Z</time>
      </trkpt>
      <trkpt lat="44.13136" lon="7.24973">
        <ele>1902.2</ele>
        <time>2023-02-05T10:15:26Z</time>
      </trkpt>
      <trkpt lat="44.13137" lon="7.24972">
        <ele>1902.3</ele>
        <time>2023-02-05T10:15:27Z</time>
      </trkpt>
      <trkpt lat="44.13137" lon="7.24971">
        <ele>1902.4</ele>
        <time>2023-02-05T10:15:28Z</time>
      </trkpt>
      <trkpt lat="44.13137" lon="7.24971">
        <ele>1902.4</ele>
        <time>2023-02-05T10:15:29Z</time>
      </trkpt>
      <trkpt lat="44.13137" lon="7.2497">
        <ele>1902.5</ele>
        <time>2023-02-05T10:15:30Z</time>
      </trkpt>
      <trkpt lat="44.13137" lon="7.24969">
        <ele>1902.6</ele>
        <time>2023-02-05T10:15:31Z</time>
      </trkpt>
      <trkpt lat="44.13138" lon="7.24968">
        <ele>1902.6</ele>
        <time>2023-02-05T10:15:32Z</time>
      </trkpt>
      <trkpt lat="44.13138" lon="7.24968">
        <ele>1902.7</ele>
        <time>2023-02-05T10:15:33Z</time>
      </trkpt>
      <trkpt lat="44.13138" lon="7.24967">
        <ele>1902.8</ele>
        <time>2023-02-05T10:15:34Z</time>
      </trkpt>
      <trkpt lat="44.13138" lon="7.24965">
        <ele>1902.9</ele>
        <time>2023-02-05T10:15:35Z</time>
      </trkpt>
      <trkpt lat="44.13139" lon="7.24965">
        <ele>1903.1</ele>
        <time>2023-02-05T10:15:36Z</time>
      </trkpt>
      <trkpt lat="44.13139" lon="7.24964">
        <ele>1903.1</ele>
        <time>2023-02-05T10:15:37Z</time>
      </trkpt>
      <trkpt lat="44.1314" lon="7.24962">
        <ele>1903.1</ele>
        <time>2023-02-05T10:15:38Z</time>
      </trkpt>
      <trkpt lat="44.1314" lon="7.24961">
        <ele>1903</ele>
        <time>2023-02-05T10:15:39Z</time>
      </trkpt>
      <trkpt lat="44.13141" lon="7.2496">
        <ele>1903.1</ele>
        <time>2023-02-05T10:15:40Z</time>
      </trkpt>
      <trkpt lat="44.13142" lon="7.24959">
        <ele>1903.2</ele>
        <time>2023-02-05T10:15:41Z</time>
      </trkpt>
      <trkpt lat="44.13142" lon="7.24958">
        <ele>1903.3</ele>
        <time>2023-02-05T10:15:42Z</time>
      </trkpt>
      <trkpt lat="44.13142" lon="7.24957">
        <ele>1903.4</ele>
        <time>2023-02-05T10:15:43Z</time>
      </trkpt>
      <trkpt lat="44.13142" lon="7.24956">
        <ele>1903.5</ele>
        <time>2023-02-05T10:15:44Z</time>
      </trkpt>
      <trkpt lat="44.13142" lon="7.24956">
        <ele>1903.6</ele>
        <time>2023-02-05T10:15:45Z</time>
      </trkpt>
      <trkpt lat="44.13142" lon="7.24956">
        <ele>1903.7</ele>
        <time>2023-02-05T10:15:46Z</time>
      </trkpt>
      <trkpt lat="44.13142" lon="7.24956">
        <ele>1903.7</ele>
        <time>2023-02-05T10:15:47Z</time>
      </trkpt>
      <trkpt lat="44.13142" lon="7.24955">
        <ele>1903.8</ele>
        <time>2023-02-05T10:15:48Z</time>
      </trkpt>
      <trkpt lat="44.13142" lon="7.24954">
        <ele>1903.8</ele>
        <time>2023-02-05T10:15:49Z</time>
      </trkpt>
      <trkpt lat="44.13142" lon="7.24954">
        <ele>1903.8</ele>
        <time>2023-02-05T10:15:50Z</time>
      </trkpt>
      <trkpt lat="44.13142" lon="7.24954">
        <ele>1903.9</ele>
        <time>2023-02-05T10:15:51Z</time>
      </trkpt>
      <trkpt lat="44.13143" lon="7.24953">
        <ele>1903.9</ele>
        <time>2023-02-05T10:15:52Z</time>
      </trkpt>
      <trkpt lat="44.13143" lon="7.24953">
        <ele>1903.9</ele>
        <time>2023-02-05T10:15:53Z</time>
      </trkpt>
      <trkpt lat="44.13143" lon="7.24953">
        <ele>1904</ele>
        <time>2023-02-05T10:15:54Z</time>
      </trkpt>
      <trkpt lat="44.13144" lon="7.24953">
        <ele>1904</ele>
        <time>2023-02-05T10:15:55Z</time>
      </trkpt>
      <trkpt lat="44.13144" lon="7.24953">
        <ele>1904</ele>
        <time>2023-02-05T10:15:56Z</time>
      </trkpt>
      <trkpt lat="44.13144" lon="7.24953">
        <ele>1904</ele>
        <time>2023-02-05T10:15:57Z</time>
      </trkpt>
      <trkpt lat="44.13145" lon="7.24952">
        <ele>1904</ele>
        <time>2023-02-05T10:15:58Z</time>
      </trkpt>
      <trkpt lat="44.13146" lon="7.24951">
        <ele>1904.1</ele>
        <time>2023-02-05T10:15:59Z</time>
      </trkpt>
      <trkpt lat="44.13146" lon="7.2495">
        <ele>1904</ele>
        <time>2023-02-05T10:16:00Z</time>
      </trkpt>
      <trkpt lat="44.13146" lon="7.2495">
        <ele>1903.9</ele>
        <time>2023-02-05T10:16:01Z</time>
      </trkpt>
      <trkpt lat="44.13147" lon="7.2495">
        <ele>1904</ele>
        <time>2023-02-05T10:16:02Z</time>
      </trkpt>
      <trkpt lat="44.13147" lon="7.24949">
        <ele>1903.8</ele>
        <time>2023-02-05T10:16:03Z</time>
      </trkpt>
      <trkpt lat="44.13147" lon="7.24948">
        <ele>1903.8</ele>
        <time>2023-02-05T10:16:04Z</time>
      </trkpt>
      <trkpt lat="44.13148" lon="7.24947">
        <ele>1903.7</ele>
        <time>2023-02-05T10:16:05Z</time>
      </trkpt>
      <trkpt lat="44.13148" lon="7.24947">
        <ele>1903.8</ele>
        <time>2023-02-05T10:16:06Z</time>
      </trkpt>
      <trkpt lat="44.13148" lon="7.24946">
        <ele>1903.9</ele>
        <time>2023-02-05T10:16:07Z</time>
      </trkpt>
      <trkpt lat="44.13148" lon="7.24945">
        <ele>1903.9</ele>
        <time>2023-02-05T10:16:08Z</time>
      </trkpt>
      <trkpt lat="44.13148" lon="7.24944">
        <ele>1904</ele>
        <time>2023-02-05T10:16:09Z</time>
      </trkpt>
      <trkpt lat="44.13148" lon="7.24944">
        <ele>1904</ele>
        <time>2023-02-05T10:16:10Z</time>
      </trkpt>
      <trkpt lat="44.13149" lon="7.24943">
        <ele>1904.1</ele>
        <time>2023-02-05T10:16:11Z</time>
      </trkpt>
      <trkpt lat="44.1315" lon="7.24943">
        <ele>1904.1</ele>
        <time>2023-02-05T10:16:12Z</time>
      </trkpt>
      <trkpt lat="44.1315" lon="7.24942">
        <ele>1904.3</ele>
        <time>2023-02-05T10:16:13Z</time>
      </trkpt>
      <trkpt lat="44.13151" lon="7.24941">
        <ele>1904.3</ele>
        <time>2023-02-05T10:16:14Z</time>
      </trkpt>
      <trkpt lat="44.13151" lon="7.2494">
        <ele>1904.3</ele>
        <time>2023-02-05T10:16:15Z</time>
      </trkpt>
      <trkpt lat="44.13151" lon="7.24939">
        <ele>1904.4</ele>
        <time>2023-02-05T10:16:16Z</time>
      </trkpt>
      <trkpt lat="44.13152" lon="7.24938">
        <ele>1904.5</ele>
        <time>2023-02-05T10:16:17Z</time>
      </trkpt>
      <trkpt lat="44.13153" lon="7.24937">
        <ele>1904.6</ele>
        <time>2023-02-05T10:16:18Z</time>
      </trkpt>
      <trkpt lat="44.13153" lon="7.24936">
        <ele>1904.7</ele>
        <time>2023-02-05T10:16:19Z</time>
      </trkpt>
      <trkpt lat="44.13153" lon="7.24935">
        <ele>1904.9</ele>
        <time>2023-02-05T10:16:20Z</time>
      </trkpt>
      <trkpt lat="44.13154" lon="7.24934">
        <ele>1904.9</ele>
        <time>2023-02-05T10:16:21Z</time>
      </trkpt>
      <trkpt lat="44.13154" lon="7.24933">
        <ele>1904.9</ele>
        <time>2023-02-05T10:16:22Z</time>
      </trkpt>
      <trkpt lat="44.13155" lon="7.24932">
        <ele>1904.9</ele>
        <time>2023-02-05T10:16:23Z</time>
      </trkpt>
      <trkpt lat="44.13155" lon="7.24931">
        <ele>1905.1</ele>
        <time>2023-02-05T10:16:24Z</time>
      </trkpt>
      <trkpt lat="44.13155" lon="7.2493">
        <ele>1905.2</ele>
        <time>2023-02-05T10:16:25Z</time>
      </trkpt>
      <trkpt lat="44.13156" lon="7.24929">
        <ele>1905.3</ele>
        <time>2023-02-05T10:16:26Z</time>
      </trkpt>
      <trkpt lat="44.13156" lon="7.24929">
        <ele>1905.3</ele>
        <time>2023-02-05T10:16:27Z</time>
      </trkpt>
      <trkpt lat="44.13157" lon="7.24928">
        <ele>1905.4</ele>
        <time>2023-02-05T10:16:28Z</time>
      </trkpt>
      <trkpt lat="44.13157" lon="7.24927">
        <ele>1905.5</ele>
        <time>2023-02-05T10:16:29Z</time>
      </trkpt>
      <trkpt lat="44.13158" lon="7.24926">
        <ele>1905.5</ele>
        <time>2023-02-05T10:16:30Z</time>
      </trkpt>
      <trkpt lat="44.13158" lon="7.24924">
        <ele>1905.6</ele>
        <time>2023-02-05T10:16:31Z</time>
      </trkpt>
      <trkpt lat="44.13159" lon="7.24923">
        <ele>1905.7</ele>
        <time>2023-02-05T10:16:32Z</time>
      </trkpt>
      <trkpt lat="44.13158" lon="7.24923">
        <ele>1905.7</ele>
        <time>2023-02-05T10:16:33Z</time>
      </trkpt>
      <trkpt lat="44.13159" lon="7.24922">
        <ele>1905.8</ele>
        <time>2023-02-05T10:16:34Z</time>
      </trkpt>
      <trkpt lat="44.1316" lon="7.24921">
        <ele>1905.9</ele>
        <time>2023-02-05T10:16:35Z</time>
      </trkpt>
      <trkpt lat="44.1316" lon="7.2492">
        <ele>1906</ele>
        <time>2023-02-05T10:16:36Z</time>
      </trkpt>
      <trkpt lat="44.1316" lon="7.24919">
        <ele>1906.1</ele>
        <time>2023-02-05T10:16:37Z</time>
      </trkpt>
      <trkpt lat="44.13161" lon="7.24918">
        <ele>1906.2</ele>
        <time>2023-02-05T10:16:38Z</time>
      </trkpt>
      <trkpt lat="44.13161" lon="7.24917">
        <ele>1906.3</ele>
        <time>2023-02-05T10:16:39Z</time>
      </trkpt>
      <trkpt lat="44.13162" lon="7.24916">
        <ele>1906.3</ele>
        <time>2023-02-05T10:16:40Z</time>
      </trkpt>
      <trkpt lat="44.13162" lon="7.24915">
        <ele>1906.5</ele>
        <time>2023-02-05T10:16:41Z</time>
      </trkpt>
      <trkpt lat="44.13163" lon="7.24914">
        <ele>1906.6</ele>
        <time>2023-02-05T10:16:42Z</time>
      </trkpt>
      <trkpt lat="44.13163" lon="7.24913">
        <ele>1906.6</ele>
        <time>2023-02-05T10:16:43Z</time>
      </trkpt>
      <trkpt lat="44.13164" lon="7.24912">
        <ele>1906.7</ele>
        <time>2023-02-05T10:16:44Z</time>
      </trkpt>
      <trkpt lat="44.13164" lon="7.24911">
        <ele>1906.8</ele>
        <time>2023-02-05T10:16:45Z</time>
      </trkpt>
      <trkpt lat="44.13165" lon="7.2491">
        <ele>1906.9</ele>
        <time>2023-02-05T10:16:46Z</time>
      </trkpt>
      <trkpt lat="44.13165" lon="7.24909">
        <ele>1906.9</ele>
        <time>2023-02-05T10:16:47Z</time>
      </trkpt>
      <trkpt lat="44.13166" lon="7.24908">
        <ele>1907</ele>
        <time>2023-02-05T10:16:48Z</time>
      </trkpt>
      <trkpt lat="44.13166" lon="7.24906">
        <ele>1907.1</ele>
        <time>2023-02-05T10:16:49Z</time>
      </trkpt>
      <trkpt lat="44.13166" lon="7.24906">
        <ele>1907.2</ele>
        <time>2023-02-05T10:16:50Z</time>
      </trkpt>
      <trkpt lat="44.13166" lon="7.24905">
        <ele>1907.3</ele>
        <time>2023-02-05T10:16:51Z</time>
      </trkpt>
      <trkpt lat="44.13166" lon="7.24903">
        <ele>1907.4</ele>
        <time>2023-02-05T10:16:52Z</time>
      </trkpt>
      <trkpt lat="44.13166" lon="7.24902">
        <ele>1907.4</ele>
        <time>2023-02-05T10:16:53Z</time>
      </trkpt>
      <trkpt lat="44.13166" lon="7.24901">
        <ele>1907.5</ele>
        <time>2023-02-05T10:16:54Z</time>
      </trkpt>
      <trkpt lat="44.13166" lon="7.249">
        <ele>1907.5</ele>
        <time>2023-02-05T10:16:55Z</time>
      </trkpt>
      <trkpt lat="44.13167" lon="7.24899">
        <ele>1907.6</ele>
        <time>2023-02-05T10:16:56Z</time>
      </trkpt>
      <trkpt lat="44.13167" lon="7.24898">
        <ele>1907.6</ele>
        <time>2023-02-05T10:16:57Z</time>
      </trkpt>
      <trkpt lat="44.13168" lon="7.24897">
        <ele>1907.7</ele>
        <time>2023-02-05T10:16:58Z</time>
      </trkpt>
      <trkpt lat="44.13168" lon="7.24896">
        <ele>1907.7</ele>
        <time>2023-02-05T10:16:59Z</time>
      </trkpt>
      <trkpt lat="44.13168" lon="7.24894">
        <ele>1907.8</ele>
        <time>2023-02-05T10:17:00Z</time>
      </trkpt>
      <trkpt lat="44.13169" lon="7.24893">
        <ele>1907.9</ele>
        <time>2023-02-05T10:17:01Z</time>
      </trkpt>
      <trkpt lat="44.13169" lon="7.24892">
        <ele>1908</ele>
        <time>2023-02-05T10:17:02Z</time>
      </trkpt>
      <trkpt lat="44.13169" lon="7.24891">
        <ele>1908</ele>
        <time>2023-02-05T10:17:03Z</time>
      </trkpt>
      <trkpt lat="44.13169" lon="7.24889">
        <ele>1908</ele>
        <time>2023-02-05T10:17:04Z</time>
      </trkpt>
      <trkpt lat="44.1317" lon="7.24888">
        <ele>1908.1</ele>
        <time>2023-02-05T10:17:05Z</time>
      </trkpt>
      <trkpt lat="44.1317" lon="7.24887">
        <ele>1908.1</ele>
        <time>2023-02-05T10:17:06Z</time>
      </trkpt>
      <trkpt lat="44.13171" lon="7.24886">
        <ele>1908.2</ele>
        <time>2023-02-05T10:17:07Z</time>
      </trkpt>
      <trkpt lat="44.13171" lon="7.24886">
        <ele>1908.3</ele>
        <time>2023-02-05T10:17:08Z</time>
      </trkpt>
      <trkpt lat="44.13171" lon="7.24884">
        <ele>1908.4</ele>
        <time>2023-02-05T10:17:09Z</time>
      </trkpt>
      <trkpt lat="44.13171" lon="7.24883">
        <ele>1908.5</ele>
        <time>2023-02-05T10:17:10Z</time>
      </trkpt>
      <trkpt lat="44.13172" lon="7.24882">
        <ele>1908.6</ele>
        <time>2023-02-05T10:17:11Z</time>
      </trkpt>
      <trkpt lat="44.13172" lon="7.2488">
        <ele>1908.7</ele>
        <time>2023-02-05T10:17:12Z</time>
      </trkpt>
      <trkpt lat="44.13172" lon="7.24879">
        <ele>1908.9</ele>
        <time>2023-02-05T10:17:13Z</time>
      </trkpt>
      <trkpt lat="44.13172" lon="7.24879">
        <ele>1909.1</ele>
        <time>2023-02-05T10:17:14Z</time>
      </trkpt>
      <trkpt lat="44.13172" lon="7.24878">
        <ele>1909.3</ele>
        <time>2023-02-05T10:17:15Z</time>
      </trkpt>
      <trkpt lat="44.13173" lon="7.24877">
        <ele>1909.4</ele>
        <time>2023-02-05T10:17:16Z</time>
      </trkpt>
      <trkpt lat="44.13173" lon="7.24877">
        <ele>1909.5</ele>
        <time>2023-02-05T10:17:17Z</time>
      </trkpt>
      <trkpt lat="44.13174" lon="7.24876">
        <ele>1909.6</ele>
        <time>2023-02-05T10:17:18Z</time>
      </trkpt>
      <trkpt lat="44.13174" lon="7.24875">
        <ele>1909.7</ele>
        <time>2023-02-05T10:17:19Z</time>
      </trkpt>
      <trkpt lat="44.13175" lon="7.24874">
        <ele>1909.8</ele>
        <time>2023-02-05T10:17:20Z</time>
      </trkpt>
      <trkpt lat="44.13176" lon="7.24873">
        <ele>1909.9</ele>
        <time>2023-02-05T10:17:21Z</time>
      </trkpt>
      <trkpt lat="44.13176" lon="7.24872">
        <ele>1910</ele>
        <time>2023-02-05T10:17:22Z</time>
      </trkpt>
      <trkpt lat="44.13177" lon="7.24871">
        <ele>1910.1</ele>
        <time>2023-02-05T10:17:23Z</time>
      </trkpt>
      <trkpt lat="44.13177" lon="7.2487">
        <ele>1910.2</ele>
        <time>2023-02-05T10:17:24Z</time>
      </trkpt>
      <trkpt lat="44.13177" lon="7.24869">
        <ele>1910.3</ele>
        <time>2023-02-05T10:17:25Z</time>
      </trkpt>
      <trkpt lat="44.13177" lon="7.24868">
        <ele>1910.3</ele>
        <time>2023-02-05T10:17:26Z</time>
      </trkpt>
      <trkpt lat="44.13177" lon="7.24867">
        <ele>1910.4</ele>
        <time>2023-02-05T10:17:27Z</time>
      </trkpt>
      <trkpt lat="44.13178" lon="7.24866">
        <ele>1910.5</ele>
        <time>2023-02-05T10:17:28Z</time>
      </trkpt>
      <trkpt lat="44.13178" lon="7.24864">
        <ele>1910.5</ele>
        <time>2023-02-05T10:17:29Z</time>
      </trkpt>
      <trkpt lat="44.13179" lon="7.24863">
        <ele>1910.7</ele>
        <time>2023-02-05T10:17:30Z</time>
      </trkpt>
      <trkpt lat="44.13179" lon="7.24861">
        <ele>1910.7</ele>
        <time>2023-02-05T10:17:31Z</time>
      </trkpt>
      <trkpt lat="44.1318" lon="7.2486">
        <ele>1910.7</ele>
        <time>2023-02-05T10:17:32Z</time>
      </trkpt>
      <trkpt lat="44.1318" lon="7.24859">
        <ele>1910.9</ele>
        <time>2023-02-05T10:17:33Z</time>
      </trkpt>
      <trkpt lat="44.13181" lon="7.24858">
        <ele>1911</ele>
        <time>2023-02-05T10:17:34Z</time>
      </trkpt>
      <trkpt lat="44.13181" lon="7.24857">
        <ele>1911.1</ele>
        <time>2023-02-05T10:17:35Z</time>
      </trkpt>
      <trkpt lat="44.13182" lon="7.24855">
        <ele>1911.2</ele>
        <time>2023-02-05T10:17:36Z</time>
      </trkpt>
      <trkpt lat="44.13182" lon="7.24854">
        <ele>1911.3</ele>
        <time>2023-02-05T10:17:37Z</time>
      </trkpt>
      <trkpt lat="44.13182" lon="7.24854">
        <ele>1911.4</ele>
        <time>2023-02-05T10:17:38Z</time>
      </trkpt>
      <trkpt lat="44.13183" lon="7.24853">
        <ele>1911.5</ele>
        <time>2023-02-05T10:17:39Z</time>
      </trkpt>
      <trkpt lat="44.13183" lon="7.24851">
        <ele>1911.6</ele>
        <time>2023-02-05T10:17:40Z</time>
      </trkpt>
      <trkpt lat="44.13183" lon="7.2485">
        <ele>1911.7</ele>
        <time>2023-02-05T10:17:41Z</time>
      </trkpt>
      <trkpt lat="44.13184" lon="7.24849">
        <ele>1911.7</ele>
        <time>2023-02-05T10:17:42Z</time>
      </trkpt>
      <trkpt lat="44.13184" lon="7.24849">
        <ele>1911.7</ele>
        <time>2023-02-05T10:17:43Z</time>
      </trkpt>
      <trkpt lat="44.13185" lon="7.24848">
        <ele>1911.8</ele>
        <time>2023-02-05T10:17:44Z</time>
      </trkpt>
      <trkpt lat="44.13185" lon="7.24847">
        <ele>1911.9</ele>
        <time>2023-02-05T10:17:45Z</time>
      </trkpt>
      <trkpt lat="44.13186" lon="7.24846">
        <ele>1912</ele>
        <time>2023-02-05T10:17:46Z</time>
      </trkpt>
      <trkpt lat="44.13187" lon="7.24845">
        <ele>1912.1</ele>
        <time>2023-02-05T10:17:47Z</time>
      </trkpt>
      <trkpt lat="44.13187" lon="7.24844">
        <ele>1912.2</ele>
        <time>2023-02-05T10:17:48Z</time>
      </trkpt>
      <trkpt lat="44.13188" lon="7.24844">
        <ele>1912.2</ele>
        <time>2023-02-05T10:17:49Z</time>
      </trkpt>
      <trkpt lat="44.13188" lon="7.24843">
        <ele>1912.3</ele>
        <time>2023-02-05T10:17:50Z</time>
      </trkpt>
      <trkpt lat="44.13189" lon="7.24842">
        <ele>1912.4</ele>
        <time>2023-02-05T10:17:51Z</time>
      </trkpt>
      <trkpt lat="44.13189" lon="7.24841">
        <ele>1912.5</ele>
        <time>2023-02-05T10:17:52Z</time>
      </trkpt>
      <trkpt lat="44.1319" lon="7.2484">
        <ele>1912.6</ele>
        <time>2023-02-05T10:17:53Z</time>
      </trkpt>
      <trkpt lat="44.1319" lon="7.24839">
        <ele>1912.8</ele>
        <time>2023-02-05T10:17:54Z</time>
      </trkpt>
      <trkpt lat="44.1319" lon="7.24838">
        <ele>1912.9</ele>
        <time>2023-02-05T10:17:55Z</time>
      </trkpt>
      <trkpt lat="44.13191" lon="7.24837">
        <ele>1913</ele>
        <time>2023-02-05T10:17:56Z</time>
      </trkpt>
      <trkpt lat="44.13192" lon="7.24836">
        <ele>1913.1</ele>
        <time>2023-02-05T10:17:57Z</time>
      </trkpt>
      <trkpt lat="44.13192" lon="7.24835">
        <ele>1913.1</ele>
        <time>2023-02-05T10:17:58Z</time>
      </trkpt>
      <trkpt lat="44.13192" lon="7.24834">
        <ele>1913.1</ele>
        <time>2023-02-05T10:17:59Z</time>
      </trkpt>
      <trkpt lat="44.13193" lon="7.24833">
        <ele>1913.2</ele>
        <time>2023-02-05T10:18:00Z</time>
      </trkpt>
      <trkpt lat="44.13193" lon="7.24832">
        <ele>1913.2</ele>
        <time>2023-02-05T10:18:01Z</time>
      </trkpt>
      <trkpt lat="44.13194" lon="7.24831">
        <ele>1913.3</ele>
        <time>2023-02-05T10:18:02Z</time>
      </trkpt>
      <trkpt lat="44.13194" lon="7.2483">
        <ele>1913.4</ele>
        <time>2023-02-05T10:18:03Z</time>
      </trkpt>
      <trkpt lat="44.13194" lon="7.24828">
        <ele>1913.5</ele>
        <time>2023-02-05T10:18:04Z</time>
      </trkpt>
      <trkpt lat="44.13195" lon="7.24827">
        <ele>1913.6</ele>
        <time>2023-02-05T10:18:05Z</time>
      </trkpt>
      <trkpt lat="44.13196" lon="7.24826">
        <ele>1913.7</ele>
        <time>2023-02-05T10:18:06Z</time>
      </trkpt>
      <trkpt lat="44.13196" lon="7.24825">
        <ele>1913.8</ele>
        <time>2023-02-05T10:18:07Z</time>
      </trkpt>
      <trkpt lat="44.13197" lon="7.24825">
        <ele>1913.9</ele>
        <time>2023-02-05T10:18:08Z</time>
      </trkpt>
      <trkpt lat="44.13197" lon="7.24824">
        <ele>1913.9</ele>
        <time>2023-02-05T10:18:09Z</time>
      </trkpt>
      <trkpt lat="44.13198" lon="7.24824">
        <ele>1914</ele>
        <time>2023-02-05T10:18:10Z</time>
      </trkpt>
      <trkpt lat="44.13199" lon="7.24823">
        <ele>1914.1</ele>
        <time>2023-02-05T10:18:11Z</time>
      </trkpt>
      <trkpt lat="44.13199" lon="7.24822">
        <ele>1914.1</ele>
        <time>2023-02-05T10:18:12Z</time>
      </trkpt>
      <trkpt lat="44.132" lon="7.24821">
        <ele>1914.1</ele>
        <time>2023-02-05T10:18:13Z</time>
      </trkpt>
      <trkpt lat="44.132" lon="7.2482">
        <ele>1914.3</ele>
        <time>2023-02-05T10:18:14Z</time>
      </trkpt>
      <trkpt lat="44.13201" lon="7.24819">
        <ele>1914.4</ele>
        <time>2023-02-05T10:18:15Z</time>
      </trkpt>
      <trkpt lat="44.13201" lon="7.24818">
        <ele>1914.5</ele>
        <time>2023-02-05T10:18:16Z</time>
      </trkpt>
      <trkpt lat="44.13201" lon="7.24816">
        <ele>1914.6</ele>
        <time>2023-02-05T10:18:17Z</time>
      </trkpt>
      <trkpt lat="44.13201" lon="7.24815">
        <ele>1914.7</ele>
        <time>2023-02-05T10:18:18Z</time>
      </trkpt>
      <trkpt lat="44.13201" lon="7.24814">
        <ele>1914.8</ele>
        <time>2023-02-05T10:18:19Z</time>
      </trkpt>
      <trkpt lat="44.13202" lon="7.24813">
        <ele>1914.9</ele>
        <time>2023-02-05T10:18:20Z</time>
      </trkpt>
      <trkpt lat="44.13202" lon="7.24812">
        <ele>1915</ele>
        <time>2023-02-05T10:18:21Z</time>
      </trkpt>
      <trkpt lat="44.13203" lon="7.24812">
        <ele>1915</ele>
        <time>2023-02-05T10:18:22Z</time>
      </trkpt>
      <trkpt lat="44.13203" lon="7.24811">
        <ele>1915.1</ele>
        <time>2023-02-05T10:18:23Z</time>
      </trkpt>
      <trkpt lat="44.13204" lon="7.2481">
        <ele>1915.2</ele>
        <time>2023-02-05T10:18:24Z</time>
      </trkpt>
      <trkpt lat="44.13205" lon="7.24809">
        <ele>1915.4</ele>
        <time>2023-02-05T10:18:25Z</time>
      </trkpt>
      <trkpt lat="44.13205" lon="7.24808">
        <ele>1915.5</ele>
        <time>2023-02-05T10:18:26Z</time>
      </trkpt>
      <trkpt lat="44.13206" lon="7.24808">
        <ele>1915.6</ele>
        <time>2023-02-05T10:18:27Z</time>
      </trkpt>
      <trkpt lat="44.13206" lon="7.24806">
        <ele>1915.7</ele>
        <time>2023-02-05T10:18:28Z</time>
      </trkpt>
      <trkpt lat="44.13207" lon="7.24806">
        <ele>1915.7</ele>
        <time>2023-02-05T10:18:29Z</time>
      </trkpt>
      <trkpt lat="44.13207" lon="7.24805">
        <ele>1915.9</ele>
        <time>2023-02-05T10:18:30Z</time>
      </trkpt>
      <trkpt lat="44.13207" lon="7.24804">
        <ele>1915.9</ele>
        <time>2023-02-05T10:18:31Z</time>
      </trkpt>
      <trkpt lat="44.13208" lon="7.24803">
        <ele>1916</ele>
        <time>2023-02-05T10:18:32Z</time>
      </trkpt>
      <trkpt lat="44.13208" lon="7.24802">
        <ele>1916</ele>
        <time>2023-02-05T10:18:33Z</time>
      </trkpt>
      <trkpt lat="44.13209" lon="7.24801">
        <ele>1916</ele>
        <time>2023-02-05T10:18:34Z</time>
      </trkpt>
      <trkpt lat="44.1321" lon="7.24801">
        <ele>1916.1</ele>
        <time>2023-02-05T10:18:35Z</time>
      </trkpt>
      <trkpt lat="44.1321" lon="7.248">
        <ele>1916.1</ele>
        <time>2023-02-05T10:18:36Z</time>
      </trkpt>
      <trkpt lat="44.13211" lon="7.24799">
        <ele>1916.1</ele>
        <time>2023-02-05T10:18:37Z</time>
      </trkpt>
      <trkpt lat="44.13211" lon="7.24799">
        <ele>1916.2</ele>
        <time>2023-02-05T10:18:38Z</time>
      </trkpt>
      <trkpt lat="44.13212" lon="7.24798">
        <ele>1916.3</ele>
        <time>2023-02-05T10:18:39Z</time>
      </trkpt>
      <trkpt lat="44.13212" lon="7.24796">
        <ele>1916.4</ele>
        <time>2023-02-05T10:18:40Z</time>
      </trkpt>
      <trkpt lat="44.13213" lon="7.24795">
        <ele>1916.5</ele>
        <time>2023-02-05T10:18:41Z</time>
      </trkpt>
      <trkpt lat="44.13214" lon="7.24794">
        <ele>1916.6</ele>
        <time>2023-02-05T10:18:42Z</time>
      </trkpt>
      <trkpt lat="44.13214" lon="7.24794">
        <ele>1916.7</ele>
        <time>2023-02-05T10:18:43Z</time>
      </trkpt>
      <trkpt lat="44.13215" lon="7.24793">
        <ele>1916.8</ele>
        <time>2023-02-05T10:18:44Z</time>
      </trkpt>
      <trkpt lat="44.13215" lon="7.24792">
        <ele>1916.9</ele>
        <time>2023-02-05T10:18:45Z</time>
      </trkpt>
      <trkpt lat="44.13216" lon="7.24791">
        <ele>1917</ele>
        <time>2023-02-05T10:18:46Z</time>
      </trkpt>
      <trkpt lat="44.13217" lon="7.2479">
        <ele>1917.1</ele>
        <time>2023-02-05T10:18:47Z</time>
      </trkpt>
      <trkpt lat="44.13217" lon="7.2479">
        <ele>1917.2</ele>
        <time>2023-02-05T10:18:48Z</time>
      </trkpt>
      <trkpt lat="44.13218" lon="7.24788">
        <ele>1917.3</ele>
        <time>2023-02-05T10:18:49Z</time>
      </trkpt>
      <trkpt lat="44.13218" lon="7.24787">
        <ele>1917.3</ele>
        <time>2023-02-05T10:18:50Z</time>
      </trkpt>
      <trkpt lat="44.13219" lon="7.24786">
        <ele>1917.4</ele>
        <time>2023-02-05T10:18:51Z</time>
      </trkpt>
      <trkpt lat="44.1322" lon="7.24785">
        <ele>1917.5</ele>
        <time>2023-02-05T10:18:52Z</time>
      </trkpt>
      <trkpt lat="44.1322" lon="7.24785">
        <ele>1917.6</ele>
        <time>2023-02-05T10:18:53Z</time>
      </trkpt>
      <trkpt lat="44.13221" lon="7.24784">
        <ele>1917.6</ele>
        <time>2023-02-05T10:18:54Z</time>
      </trkpt>
      <trkpt lat="44.13221" lon="7.24784">
        <ele>1917.6</ele>
        <time>2023-02-05T10:18:55Z</time>
      </trkpt>
      <trkpt lat="44.13221" lon="7.24783">
        <ele>1917.7</ele>
        <time>2023-02-05T10:18:56Z</time>
      </trkpt>
      <trkpt lat="44.13222" lon="7.24782">
        <ele>1917.7</ele>
        <time>2023-02-05T10:18:57Z</time>
      </trkpt>
      <trkpt lat="44.13223" lon="7.24781">
        <ele>1917.8</ele>
        <time>2023-02-05T10:18:58Z</time>
      </trkpt>
      <trkpt lat="44.13224" lon="7.2478">
        <ele>1917.9</ele>
        <time>2023-02-05T10:18:59Z</time>
      </trkpt>
      <trkpt lat="44.13224" lon="7.24779">
        <ele>1918</ele>
        <time>2023-02-05T10:19:00Z</time>
      </trkpt>
      <trkpt lat="44.13225" lon="7.24778">
        <ele>1918</ele>
        <time>2023-02-05T10:19:01Z</time>
      </trkpt>
      <trkpt lat="44.13225" lon="7.24777">
        <ele>1918.1</ele>
        <time>2023-02-05T10:19:02Z</time>
      </trkpt>
      <trkpt lat="44.13226" lon="7.24776">
        <ele>1918.2</ele>
        <time>2023-02-05T10:19:03Z</time>
      </trkpt>
      <trkpt lat="44.13226" lon="7.24775">
        <ele>1918.3</ele>
        <time>2023-02-05T10:19:04Z</time>
      </trkpt>
      <trkpt lat="44.13227" lon="7.24774">
        <ele>1918.3</ele>
        <time>2023-02-05T10:19:05Z</time>
      </trkpt>
      <trkpt lat="44.13228" lon="7.24774">
        <ele>1918.4</ele>
        <time>2023-02-05T10:19:06Z</time>
      </trkpt>
      <trkpt lat="44.13228" lon="7.24773">
        <ele>1918.5</ele>
        <time>2023-02-05T10:19:07Z</time>
      </trkpt>
      <trkpt lat="44.13228" lon="7.24772">
        <ele>1918.7</ele>
        <time>2023-02-05T10:19:08Z</time>
      </trkpt>
      <trkpt lat="44.13229" lon="7.24771">
        <ele>1918.9</ele>
        <time>2023-02-05T10:19:09Z</time>
      </trkpt>
      <trkpt lat="44.1323" lon="7.2477">
        <ele>1919</ele>
        <time>2023-02-05T10:19:10Z</time>
      </trkpt>
      <trkpt lat="44.1323" lon="7.24769">
        <ele>1919.1</ele>
        <time>2023-02-05T10:19:11Z</time>
      </trkpt>
      <trkpt lat="44.13231" lon="7.24768">
        <ele>1919.2</ele>
        <time>2023-02-05T10:19:12Z</time>
      </trkpt>
      <trkpt lat="44.13232" lon="7.24768">
        <ele>1919.3</ele>
        <time>2023-02-05T10:19:13Z</time>
      </trkpt>
      <trkpt lat="44.13232" lon="7.24767">
        <ele>1919.4</ele>
        <time>2023-02-05T10:19:14Z</time>
      </trkpt>
      <trkpt lat="44.13233" lon="7.24767">
        <ele>1919.5</ele>
        <time>2023-02-05T10:19:15Z</time>
      </trkpt>
      <trkpt lat="44.13233" lon="7.24766">
        <ele>1919.6</ele>
        <time>2023-02-05T10:19:16Z</time>
      </trkpt>
      <trkpt lat="44.13234" lon="7.24765">
        <ele>1919.7</ele>
        <time>2023-02-05T10:19:17Z</time>
      </trkpt>
      <trkpt lat="44.13235" lon="7.24764">
        <ele>1919.7</ele>
        <time>2023-02-05T10:19:18Z</time>
      </trkpt>
      <trkpt lat="44.13235" lon="7.24763">
        <ele>1919.8</ele>
        <time>2023-02-05T10:19:19Z</time>
      </trkpt>
      <trkpt lat="44.13236" lon="7.24762">
        <ele>1919.8</ele>
        <time>2023-02-05T10:19:20Z</time>
      </trkpt>
      <trkpt lat="44.13236" lon="7.24761">
        <ele>1919.9</ele>
        <time>2023-02-05T10:19:21Z</time>
      </trkpt>
      <trkpt lat="44.13237" lon="7.2476">
        <ele>1919.9</ele>
        <time>2023-02-05T10:19:22Z</time>
      </trkpt>
      <trkpt lat="44.13237" lon="7.24759">
        <ele>1920</ele>
        <time>2023-02-05T10:19:23Z</time>
      </trkpt>
      <trkpt lat="44.13237" lon="7.24758">
        <ele>1920</ele>
        <time>2023-02-05T10:19:24Z</time>
      </trkpt>
      <trkpt lat="44.13237" lon="7.24757">
        <ele>1920</ele>
        <time>2023-02-05T10:19:25Z</time>
      </trkpt>
      <trkpt lat="44.13238" lon="7.24757">
        <ele>1920.2</ele>
        <time>2023-02-05T10:19:26Z</time>
      </trkpt>
      <trkpt lat="44.13238" lon="7.24756">
        <ele>1920.3</ele>
        <time>2023-02-05T10:19:27Z</time>
      </trkpt>
      <trkpt lat="44.13238" lon="7.24755">
        <ele>1920.3</ele>
        <time>2023-02-05T10:19:28Z</time>
      </trkpt>
      <trkpt lat="44.13239" lon="7.24754">
        <ele>1920.4</ele>
        <time>2023-02-05T10:19:29Z</time>
      </trkpt>
      <trkpt lat="44.1324" lon="7.24753">
        <ele>1920.4</ele>
        <time>2023-02-05T10:19:30Z</time>
      </trkpt>
      <trkpt lat="44.13241" lon="7.24752">
        <ele>1920.4</ele>
        <time>2023-02-05T10:19:31Z</time>
      </trkpt>
      <trkpt lat="44.13241" lon="7.24751">
        <ele>1920.6</ele>
        <time>2023-02-05T10:19:32Z</time>
      </trkpt>
      <trkpt lat="44.13241" lon="7.2475">
        <ele>1920.8</ele>
        <time>2023-02-05T10:19:33Z</time>
      </trkpt>
      <trkpt lat="44.13242" lon="7.24749">
        <ele>1920.9</ele>
        <time>2023-02-05T10:19:34Z</time>
      </trkpt>
      <trkpt lat="44.13242" lon="7.24748">
        <ele>1920.9</ele>
        <time>2023-02-05T10:19:35Z</time>
      </trkpt>
      <trkpt lat="44.13243" lon="7.24747">
        <ele>1921</ele>
        <time>2023-02-05T10:19:36Z</time>
      </trkpt>
      <trkpt lat="44.13243" lon="7.24746">
        <ele>1921</ele>
        <time>2023-02-05T10:19:37Z</time>
      </trkpt>
      <trkpt lat="44.13243" lon="7.24745">
        <ele>1921</ele>
        <time>2023-02-05T10:19:38Z</time>
      </trkpt>
      <trkpt lat="44.13244" lon="7.24744">
        <ele>1921</ele>
        <time>2023-02-05T10:19:39Z</time>
      </trkpt>
      <trkpt lat="44.13245" lon="7.24743">
        <ele>1921</ele>
        <time>2023-02-05T10:19:40Z</time>
      </trkpt>
      <trkpt lat="44.13246" lon="7.24742">
        <ele>1921.1</ele>
        <time>2023-02-05T10:19:41Z</time>
      </trkpt>
      <trkpt lat="44.13246" lon="7.24741">
        <ele>1921.1</ele>
        <time>2023-02-05T10:19:42Z</time>
      </trkpt>
      <trkpt lat="44.13246" lon="7.2474">
        <ele>1921.1</ele>
        <time>2023-02-05T10:19:43Z</time>
      </trkpt>
      <trkpt lat="44.13246" lon="7.24739">
        <ele>1921.1</ele>
        <time>2023-02-05T10:19:44Z</time>
      </trkpt>
      <trkpt lat="44.13247" lon="7.24738">
        <ele>1921.2</ele>
        <time>2023-02-05T10:19:45Z</time>
      </trkpt>
      <trkpt lat="44.13247" lon="7.24737">
        <ele>1921.2</ele>
        <time>2023-02-05T10:19:46Z</time>
      </trkpt>
      <trkpt lat="44.13248" lon="7.24736">
        <ele>1921.2</ele>
        <time>2023-02-05T10:19:47Z</time>
      </trkpt>
      <trkpt lat="44.13248" lon="7.24735">
        <ele>1921.3</ele>
        <time>2023-02-05T10:19:48Z</time>
      </trkpt>
      <trkpt lat="44.13249" lon="7.24735">
        <ele>1921.3</ele>
        <time>2023-02-05T10:19:49Z</time>
      </trkpt>
      <trkpt lat="44.13249" lon="7.24733">
        <ele>1921.4</ele>
        <time>2023-02-05T10:19:50Z</time>
      </trkpt>
      <trkpt lat="44.1325" lon="7.24732">
        <ele>1921.4</ele>
        <time>2023-02-05T10:19:51Z</time>
      </trkpt>
      <trkpt lat="44.1325" lon="7.24732">
        <ele>1921.6</ele>
        <time>2023-02-05T10:19:52Z</time>
      </trkpt>
      <trkpt lat="44.13251" lon="7.24731">
        <ele>1921.7</ele>
        <time>2023-02-05T10:19:53Z</time>
      </trkpt>
      <trkpt lat="44.13251" lon="7.2473">
        <ele>1921.8</ele>
        <time>2023-02-05T10:19:54Z</time>
      </trkpt>
      <trkpt lat="44.13251" lon="7.24729">
        <ele>1921.8</ele>
        <time>2023-02-05T10:19:55Z</time>
      </trkpt>
      <trkpt lat="44.13252" lon="7.24729">
        <ele>1922</ele>
        <time>2023-02-05T10:19:56Z</time>
      </trkpt>
      <trkpt lat="44.13253" lon="7.24728">
        <ele>1922</ele>
        <time>2023-02-05T10:19:57Z</time>
      </trkpt>
      <trkpt lat="44.13253" lon="7.24727">
        <ele>1922.1</ele>
        <time>2023-02-05T10:19:58Z</time>
      </trkpt>
      <trkpt lat="44.13253" lon="7.24726">
        <ele>1922</ele>
        <time>2023-02-05T10:19:59Z</time>
      </trkpt>
      <trkpt lat="44.13254" lon="7.24725">
        <ele>1921.9</ele>
        <time>2023-02-05T10:20:00Z</time>
      </trkpt>
      <trkpt lat="44.13254" lon="7.24724">
        <ele>1922</ele>
        <time>2023-02-05T10:20:01Z</time>
      </trkpt>
      <trkpt lat="44.13255" lon="7.24724">
        <ele>1922.1</ele>
        <time>2023-02-05T10:20:02Z</time>
      </trkpt>
      <trkpt lat="44.13255" lon="7.24722">
        <ele>1922.1</ele>
        <time>2023-02-05T10:20:03Z</time>
      </trkpt>
      <trkpt lat="44.13255" lon="7.24721">
        <ele>1922.2</ele>
        <time>2023-02-05T10:20:04Z</time>
      </trkpt>
      <trkpt lat="44.13256" lon="7.2472">
        <ele>1922.3</ele>
        <time>2023-02-05T10:20:05Z</time>
      </trkpt>
      <trkpt lat="44.13257" lon="7.24719">
        <ele>1922.3</ele>
        <time>2023-02-05T10:20:06Z</time>
      </trkpt>
      <trkpt lat="44.13257" lon="7.24718">
        <ele>1922.4</ele>
        <time>2023-02-05T10:20:07Z</time>
      </trkpt>
      <trkpt lat="44.13258" lon="7.24717">
        <ele>1922.6</ele>
        <time>2023-02-05T10:20:08Z</time>
      </trkpt>
      <trkpt lat="44.13258" lon="7.24716">
        <ele>1922.7</ele>
        <time>2023-02-05T10:20:09Z</time>
      </trkpt>
      <trkpt lat="44.13258" lon="7.24715">
        <ele>1922.7</ele>
        <time>2023-02-05T10:20:10Z</time>
      </trkpt>
      <trkpt lat="44.13259" lon="7.24714">
        <ele>1922.9</ele>
        <time>2023-02-05T10:20:11Z</time>
      </trkpt>
      <trkpt lat="44.13259" lon="7.24713">
        <ele>1923</ele>
        <time>2023-02-05T10:20:12Z</time>
      </trkpt>
      <trkpt lat="44.1326" lon="7.24712">
        <ele>1923.1</ele>
        <time>2023-02-05T10:20:13Z</time>
      </trkpt>
      <trkpt lat="44.1326" lon="7.24711">
        <ele>1923.1</ele>
        <time>2023-02-05T10:20:14Z</time>
      </trkpt>
      <trkpt lat="44.13261" lon="7.2471">
        <ele>1923.2</ele>
        <time>2023-02-05T10:20:15Z</time>
      </trkpt>
      <trkpt lat="44.13261" lon="7.24709">
        <ele>1923.2</ele>
        <time>2023-02-05T10:20:16Z</time>
      </trkpt>
      <trkpt lat="44.13262" lon="7.24709">
        <ele>1923.3</ele>
        <time>2023-02-05T10:20:17Z</time>
      </trkpt>
      <trkpt lat="44.13263" lon="7.24708">
        <ele>1923.3</ele>
        <time>2023-02-05T10:20:18Z</time>
      </trkpt>
      <trkpt lat="44.13264" lon="7.24708">
        <ele>1923.5</ele>
        <time>2023-02-05T10:20:19Z</time>
      </trkpt>
      <trkpt lat="44.13264" lon="7.24707">
        <ele>1923.5</ele>
        <time>2023-02-05T10:20:20Z</time>
      </trkpt>
      <trkpt lat="44.13265" lon="7.24706">
        <ele>1923.6</ele>
        <time>2023-02-05T10:20:21Z</time>
      </trkpt>
      <trkpt lat="44.13266" lon="7.24705">
        <ele>1923.7</ele>
        <time>2023-02-05T10:20:22Z</time>
      </trkpt>
      <trkpt lat="44.13266" lon="7.24704">
        <ele>1923.8</ele>
        <time>2023-02-05T10:20:23Z</time>
      </trkpt>
      <trkpt lat="44.13266" lon="7.24703">
        <ele>1923.8</ele>
        <time>2023-02-05T10:20:24Z</time>
      </trkpt>
      <trkpt lat="44.13267" lon="7.24703">
        <ele>1923.9</ele>
        <time>2023-02-05T10:20:25Z</time>
      </trkpt>
      <trkpt lat="44.13267" lon="7.24702">
        <ele>1923.9</ele>
        <time>2023-02-05T10:20:26Z</time>
      </trkpt>
      <trkpt lat="44.13268" lon="7.24701">
        <ele>1923.9</ele>
        <time>2023-02-05T10:20:27Z</time>
      </trkpt>
      <trkpt lat="44.13268" lon="7.24701">
        <ele>1924</ele>
        <time>2023-02-05T10:20:28Z</time>
      </trkpt>
      <trkpt lat="44.13268" lon="7.247">
        <ele>1924</ele>
        <time>2023-02-05T10:20:29Z</time>
      </trkpt>
      <trkpt lat="44.13268" lon="7.24699">
        <ele>1924.1</ele>
        <time>2023-02-05T10:20:30Z</time>
      </trkpt>
      <trkpt lat="44.13268" lon="7.24698">
        <ele>1924.1</ele>
        <time>2023-02-05T10:20:31Z</time>
      </trkpt>
      <trkpt lat="44.13269" lon="7.24697">
        <ele>1924.2</ele>
        <time>2023-02-05T10:20:32Z</time>
      </trkpt>
      <trkpt lat="44.13269" lon="7.24697">
        <ele>1924.2</ele>
        <time>2023-02-05T10:20:33Z</time>
      </trkpt>
      <trkpt lat="44.13269" lon="7.24696">
        <ele>1924.2</ele>
        <time>2023-02-05T10:20:34Z</time>
      </trkpt>
      <trkpt lat="44.1327" lon="7.24695">
        <ele>1924.2</ele>
        <time>2023-02-05T10:20:35Z</time>
      </trkpt>
      <trkpt lat="44.1327" lon="7.24695">
        <ele>1924.2</ele>
        <time>2023-02-05T10:20:36Z</time>
      </trkpt>
      <trkpt lat="44.1327" lon="7.24693">
        <ele>1924.4</ele>
        <time>2023-02-05T10:20:37Z</time>
      </trkpt>
      <trkpt lat="44.13271" lon="7.24693">
        <ele>1924.5</ele>
        <time>2023-02-05T10:20:38Z</time>
      </trkpt>
      <trkpt lat="44.13272" lon="7.24691">
        <ele>1924.4</ele>
        <time>2023-02-05T10:20:39Z</time>
      </trkpt>
      <trkpt lat="44.13272" lon="7.2469">
        <ele>1924.4</ele>
        <time>2023-02-05T10:20:40Z</time>
      </trkpt>
      <trkpt lat="44.13272" lon="7.24689">
        <ele>1924.6</ele>
        <time>2023-02-05T10:20:41Z</time>
      </trkpt>
      <trkpt lat="44.13273" lon="7.24688">
        <ele>1924.6</ele>
        <time>2023-02-05T10:20:42Z</time>
      </trkpt>
      <trkpt lat="44.13273" lon="7.24687">
        <ele>1924.6</ele>
        <time>2023-02-05T10:20:43Z</time>
      </trkpt>
      <trkpt lat="44.13273" lon="7.24685">
        <ele>1924.7</ele>
        <time>2023-02-05T10:20:44Z</time>
      </trkpt>
      <trkpt lat="44.13274" lon="7.24685">
        <ele>1924.7</ele>
        <time>2023-02-05T10:20:45Z</time>
      </trkpt>
      <trkpt lat="44.13274" lon="7.24684">
        <ele>1924.8</ele>
        <time>2023-02-05T10:20:46Z</time>
      </trkpt>
      <trkpt lat="44.13275" lon="7.24683">
        <ele>1924.9</ele>
        <time>2023-02-05T10:20:47Z</time>
      </trkpt>
      <trkpt lat="44.13275" lon="7.24682">
        <ele>1925</ele>
        <time>2023-02-05T10:20:48Z</time>
      </trkpt>
      <trkpt lat="44.13276" lon="7.24681">
        <ele>1925</ele>
        <time>2023-02-05T10:20:49Z</time>
      </trkpt>
      <trkpt lat="44.13276" lon="7.24681">
        <ele>1925.1</ele>
        <time>2023-02-05T10:20:50Z</time>
      </trkpt>
      <trkpt lat="44.13276" lon="7.24679">
        <ele>1925.1</ele>
        <time>2023-02-05T10:20:51Z</time>
      </trkpt>
      <trkpt lat="44.13277" lon="7.24679">
        <ele>1925.2</ele>
        <time>2023-02-05T10:20:52Z</time>
      </trkpt>
      <trkpt lat="44.13277" lon="7.24678">
        <ele>1925.1</ele>
        <time>2023-02-05T10:20:53Z</time>
      </trkpt>
      <trkpt lat="44.13277" lon="7.24677">
        <ele>1925.1</ele>
        <time>2023-02-05T10:20:54Z</time>
      </trkpt>
      <trkpt lat="44.13278" lon="7.24676">
        <ele>1925.2</ele>
        <time>2023-02-05T10:20:55Z</time>
      </trkpt>
      <trkpt lat="44.13278" lon="7.24675">
        <ele>1925.3</ele>
        <time>2023-02-05T10:20:56Z</time>
      </trkpt>
      <trkpt lat="44.13279" lon="7.24674">
        <ele>1925.4</ele>
        <time>2023-02-05T10:20:57Z</time>
      </trkpt>
      <trkpt lat="44.13279" lon="7.24673">
        <ele>1925.5</ele>
        <time>2023-02-05T10:20:58Z</time>
      </trkpt>
      <trkpt lat="44.1328" lon="7.24672">
        <ele>1925.5</ele>
        <time>2023-02-05T10:20:59Z</time>
      </trkpt>
      <trkpt lat="44.1328" lon="7.2467">
        <ele>1925.7</ele>
        <time>2023-02-05T10:21:00Z</time>
      </trkpt>
      <trkpt lat="44.1328" lon="7.24669">
        <ele>1925.8</ele>
        <time>2023-02-05T10:21:01Z</time>
      </trkpt>
      <trkpt lat="44.13281" lon="7.24668">
        <ele>1925.9</ele>
        <time>2023-02-05T10:21:02Z</time>
      </trkpt>
      <trkpt lat="44.13282" lon="7.24667">
        <ele>1926</ele>
        <time>2023-02-05T10:21:03Z</time>
      </trkpt>
      <trkpt lat="44.13282" lon="7.24666">
        <ele>1926</ele>
        <time>2023-02-05T10:21:04Z</time>
      </trkpt>
      <trkpt lat="44.13283" lon="7.24665">
        <ele>1926.1</ele>
        <time>2023-02-05T10:21:05Z</time>
      </trkpt>
      <trkpt lat="44.13283" lon="7.24664">
        <ele>1926.2</ele>
        <time>2023-02-05T10:21:06Z</time>
      </trkpt>
      <trkpt lat="44.13284" lon="7.24663">
        <ele>1926.3</ele>
        <time>2023-02-05T10:21:07Z</time>
      </trkpt>
      <trkpt lat="44.13284" lon="7.24662">
        <ele>1926.3</ele>
        <time>2023-02-05T10:21:08Z</time>
      </trkpt>
      <trkpt lat="44.13284" lon="7.24662">
        <ele>1926.3</ele>
        <time>2023-02-05T10:21:09Z</time>
      </trkpt>
      <trkpt lat="44.13285" lon="7.24661">
        <ele>1926.4</ele>
        <time>2023-02-05T10:21:10Z</time>
      </trkpt>
      <trkpt lat="44.13285" lon="7.24659">
        <ele>1926.4</ele>
        <time>2023-02-05T10:21:11Z</time>
      </trkpt>
      <trkpt lat="44.13286" lon="7.24658">
        <ele>1926.5</ele>
        <time>2023-02-05T10:21:12Z</time>
      </trkpt>
      <trkpt lat="44.13286" lon="7.24657">
        <ele>1926.5</ele>
        <time>2023-02-05T10:21:13Z</time>
      </trkpt>
      <trkpt lat="44.13286" lon="7.24656">
        <ele>1926.5</ele>
        <time>2023-02-05T10:21:14Z</time>
      </trkpt>
      <trkpt lat="44.13287" lon="7.24655">
        <ele>1926.6</ele>
        <time>2023-02-05T10:21:15Z</time>
      </trkpt>
      <trkpt lat="44.13287" lon="7.24654">
        <ele>1926.7</ele>
        <time>2023-02-05T10:21:16Z</time>
      </trkpt>
      <trkpt lat="44.13287" lon="7.24653">
        <ele>1926.8</ele>
        <time>2023-02-05T10:21:17Z</time>
      </trkpt>
      <trkpt lat="44.13288" lon="7.24652">
        <ele>1926.9</ele>
        <time>2023-02-05T10:21:18Z</time>
      </trkpt>
      <trkpt lat="44.13288" lon="7.24651">
        <ele>1926.9</ele>
        <time>2023-02-05T10:21:19Z</time>
      </trkpt>
      <trkpt lat="44.13289" lon="7.2465">
        <ele>1927.2</ele>
        <time>2023-02-05T10:21:20Z</time>
      </trkpt>
      <trkpt lat="44.13289" lon="7.24649">
        <ele>1927.3</ele>
        <time>2023-02-05T10:21:21Z</time>
      </trkpt>
      <trkpt lat="44.13289" lon="7.24648">
        <ele>1927.4</ele>
        <time>2023-02-05T10:21:22Z</time>
      </trkpt>
      <trkpt lat="44.1329" lon="7.24647">
        <ele>1927.4</ele>
        <time>2023-02-05T10:21:23Z</time>
      </trkpt>
      <trkpt lat="44.1329" lon="7.24647">
        <ele>1927.3</ele>
        <time>2023-02-05T10:21:24Z</time>
      </trkpt>
      <trkpt lat="44.1329" lon="7.24646">
        <ele>1927.3</ele>
        <time>2023-02-05T10:21:25Z</time>
      </trkpt>
      <trkpt lat="44.1329" lon="7.24645">
        <ele>1927.5</ele>
        <time>2023-02-05T10:21:26Z</time>
      </trkpt>
      <trkpt lat="44.13291" lon="7.24644">
        <ele>1927.6</ele>
        <time>2023-02-05T10:21:27Z</time>
      </trkpt>
      <trkpt lat="44.13291" lon="7.24642">
        <ele>1927.7</ele>
        <time>2023-02-05T10:21:28Z</time>
      </trkpt>
      <trkpt lat="44.13291" lon="7.24641">
        <ele>1927.8</ele>
        <time>2023-02-05T10:21:29Z</time>
      </trkpt>
      <trkpt lat="44.13292" lon="7.2464">
        <ele>1927.8</ele>
        <time>2023-02-05T10:21:30Z</time>
      </trkpt>
      <trkpt lat="44.13292" lon="7.24639">
        <ele>1927.8</ele>
        <time>2023-02-05T10:21:31Z</time>
      </trkpt>
      <trkpt lat="44.13292" lon="7.24638">
        <ele>1927.9</ele>
        <time>2023-02-05T10:21:32Z</time>
      </trkpt>
      <trkpt lat="44.13293" lon="7.24637">
        <ele>1927.9</ele>
        <time>2023-02-05T10:21:33Z</time>
      </trkpt>
      <trkpt lat="44.13293" lon="7.24637">
        <ele>1928</ele>
        <time>2023-02-05T10:21:34Z</time>
      </trkpt>
      <trkpt lat="44.13293" lon="7.24635">
        <ele>1928.1</ele>
        <time>2023-02-05T10:21:35Z</time>
      </trkpt>
      <trkpt lat="44.13294" lon="7.24634">
        <ele>1928.1</ele>
        <time>2023-02-05T10:21:36Z</time>
      </trkpt>
      <trkpt lat="44.13295" lon="7.24633">
        <ele>1928.2</ele>
        <time>2023-02-05T10:21:37Z</time>
      </trkpt>
      <trkpt lat="44.13295" lon="7.24632">
        <ele>1928.3</ele>
        <time>2023-02-05T10:21:38Z</time>
      </trkpt>
      <trkpt lat="44.13296" lon="7.24631">
        <ele>1928.5</ele>
        <time>2023-02-05T10:21:39Z</time>
      </trkpt>
      <trkpt lat="44.13296" lon="7.2463">
        <ele>1928.6</ele>
        <time>2023-02-05T10:21:40Z</time>
      </trkpt>
      <trkpt lat="44.13297" lon="7.24629">
        <ele>1928.7</ele>
        <time>2023-02-05T10:21:41Z</time>
      </trkpt>
      <trkpt lat="44.13297" lon="7.24627">
        <ele>1928.8</ele>
        <time>2023-02-05T10:21:42Z</time>
      </trkpt>
      <trkpt lat="44.13298" lon="7.24626">
        <ele>1929</ele>
        <time>2023-02-05T10:21:43Z</time>
      </trkpt>
      <trkpt lat="44.13299" lon="7.24624">
        <ele>1929.1</ele>
        <time>2023-02-05T10:21:44Z</time>
      </trkpt>
      <trkpt lat="44.13299" lon="7.24623">
        <ele>1929.1</ele>
        <time>2023-02-05T10:21:45Z</time>
      </trkpt>
      <trkpt lat="44.13299" lon="7.24622">
        <ele>1929.2</ele>
        <time>2023-02-05T10:21:46Z</time>
      </trkpt>
      <trkpt lat="44.133" lon="7.24621">
        <ele>1929.3</ele>
        <time>2023-02-05T10:21:47Z</time>
      </trkpt>
      <trkpt lat="44.13301" lon="7.2462">
        <ele>1929.4</ele>
        <time>2023-02-05T10:21:48Z</time>
      </trkpt>
      <trkpt lat="44.13301" lon="7.24618">
        <ele>1929.4</ele>
        <time>2023-02-05T10:21:49Z</time>
      </trkpt>
      <trkpt lat="44.13301" lon="7.24617">
        <ele>1929.5</ele>
        <time>2023-02-05T10:21:50Z</time>
      </trkpt>
      <trkpt lat="44.133" lon="7.24616">
        <ele>1929.5</ele>
        <time>2023-02-05T10:21:51Z</time>
      </trkpt>
      <trkpt lat="44.13301" lon="7.24614">
        <ele>1929.5</ele>
        <time>2023-02-05T10:21:52Z</time>
      </trkpt>
      <trkpt lat="44.133" lon="7.24613">
        <ele>1929.5</ele>
        <time>2023-02-05T10:21:53Z</time>
      </trkpt>
      <trkpt lat="44.133" lon="7.24612">
        <ele>1929.5</ele>
        <time>2023-02-05T10:21:54Z</time>
      </trkpt>
      <trkpt lat="44.133" lon="7.24611">
        <ele>1929.5</ele>
        <time>2023-02-05T10:21:55Z</time>
      </trkpt>
      <trkpt lat="44.133" lon="7.2461">
        <ele>1929.6</ele>
        <time>2023-02-05T10:21:56Z</time>
      </trkpt>
      <trkpt lat="44.133" lon="7.24608">
        <ele>1929.7</ele>
        <time>2023-02-05T10:21:57Z</time>
      </trkpt>
      <trkpt lat="44.13301" lon="7.24608">
        <ele>1929.9</ele>
        <time>2023-02-05T10:21:58Z</time>
      </trkpt>
      <trkpt lat="44.13301" lon="7.24606">
        <ele>1930.1</ele>
        <time>2023-02-05T10:21:59Z</time>
      </trkpt>
      <trkpt lat="44.13302" lon="7.24604">
        <ele>1930.1</ele>
        <time>2023-02-05T10:22:00Z</time>
      </trkpt>
      <trkpt lat="44.13302" lon="7.24603">
        <ele>1930.3</ele>
        <time>2023-02-05T10:22:01Z</time>
      </trkpt>
      <trkpt lat="44.13302" lon="7.24601">
        <ele>1930.5</ele>
        <time>2023-02-05T10:22:02Z</time>
      </trkpt>
      <trkpt lat="44.13302" lon="7.24599">
        <ele>1930.6</ele>
        <time>2023-02-05T10:22:03Z</time>
      </trkpt>
      <trkpt lat="44.13302" lon="7.24597">
        <ele>1930.9</ele>
        <time>2023-02-05T10:22:04Z</time>
      </trkpt>
      <trkpt lat="44.13303" lon="7.24596">
        <ele>1931</ele>
        <time>2023-02-05T10:22:05Z</time>
      </trkpt>
      <trkpt lat="44.13303" lon="7.24595">
        <ele>1931.1</ele>
        <time>2023-02-05T10:22:06Z</time>
      </trkpt>
      <trkpt lat="44.13304" lon="7.24594">
        <ele>1931.2</ele>
        <time>2023-02-05T10:22:07Z</time>
      </trkpt>
      <trkpt lat="44.13304" lon="7.24593">
        <ele>1931.2</ele>
        <time>2023-02-05T10:22:08Z</time>
      </trkpt>
      <trkpt lat="44.13305" lon="7.24591">
        <ele>1931.4</ele>
        <time>2023-02-05T10:22:09Z</time>
      </trkpt>
      <trkpt lat="44.13305" lon="7.2459">
        <ele>1931.4</ele>
        <time>2023-02-05T10:22:10Z</time>
      </trkpt>
      <trkpt lat="44.13306" lon="7.24588">
        <ele>1931.4</ele>
        <time>2023-02-05T10:22:11Z</time>
      </trkpt>
      <trkpt lat="44.13306" lon="7.24586">
        <ele>1931.4</ele>
        <time>2023-02-05T10:22:12Z</time>
      </trkpt>
      <trkpt lat="44.13307" lon="7.24585">
        <ele>1931.6</ele>
        <time>2023-02-05T10:22:13Z</time>
      </trkpt>
      <trkpt lat="44.13307" lon="7.24583">
        <ele>1931.6</ele>
        <time>2023-02-05T10:22:14Z</time>
      </trkpt>
      <trkpt lat="44.13307" lon="7.24582">
        <ele>1931.6</ele>
        <time>2023-02-05T10:22:15Z</time>
      </trkpt>
      <trkpt lat="44.13307" lon="7.2458">
        <ele>1931.6</ele>
        <time>2023-02-05T10:22:16Z</time>
      </trkpt>
      <trkpt lat="44.13308" lon="7.24579">
        <ele>1931.6</ele>
        <time>2023-02-05T10:22:17Z</time>
      </trkpt>
      <trkpt lat="44.13308" lon="7.24577">
        <ele>1931.7</ele>
        <time>2023-02-05T10:22:18Z</time>
      </trkpt>
      <trkpt lat="44.13308" lon="7.24576">
        <ele>1931.8</ele>
        <time>2023-02-05T10:22:19Z</time>
      </trkpt>
      <trkpt lat="44.13309" lon="7.24574">
        <ele>1931.9</ele>
        <time>2023-02-05T10:22:20Z</time>
      </trkpt>
      <trkpt lat="44.13309" lon="7.24573">
        <ele>1932.1</ele>
        <time>2023-02-05T10:22:21Z</time>
      </trkpt>
      <trkpt lat="44.13309" lon="7.24572">
        <ele>1932.2</ele>
        <time>2023-02-05T10:22:22Z</time>
      </trkpt>
      <trkpt lat="44.13309" lon="7.24571">
        <ele>1932.2</ele>
        <time>2023-02-05T10:22:23Z</time>
      </trkpt>
      <trkpt lat="44.13309" lon="7.2457">
        <ele>1932.2</ele>
        <time>2023-02-05T10:22:24Z</time>
      </trkpt>
      <trkpt lat="44.13308" lon="7.2457">
        <ele>1932.2</ele>
        <time>2023-02-05T10:22:25Z</time>
      </trkpt>
      <trkpt lat="44.13308" lon="7.24569">
        <ele>1932.3</ele>
        <time>2023-02-05T10:22:26Z</time>
      </trkpt>
      <trkpt lat="44.13308" lon="7.24568">
        <ele>1932.4</ele>
        <time>2023-02-05T10:22:27Z</time>
      </trkpt>
      <trkpt lat="44.13308" lon="7.24567">
        <ele>1932.4</ele>
        <time>2023-02-05T10:22:28Z</time>
      </trkpt>
      <trkpt lat="44.13308" lon="7.24566">
        <ele>1932.6</ele>
        <time>2023-02-05T10:22:29Z</time>
      </trkpt>
      <trkpt lat="44.13308" lon="7.24565">
        <ele>1932.7</ele>
        <time>2023-02-05T10:22:30Z</time>
      </trkpt>
      <trkpt lat="44.13309" lon="7.24563">
        <ele>1932.8</ele>
        <time>2023-02-05T10:22:31Z</time>
      </trkpt>
      <trkpt lat="44.13309" lon="7.24562">
        <ele>1932.9</ele>
        <time>2023-02-05T10:22:32Z</time>
      </trkpt>
      <trkpt lat="44.13308" lon="7.24561">
        <ele>1932.9</ele>
        <time>2023-02-05T10:22:33Z</time>
      </trkpt>
      <trkpt lat="44.13308" lon="7.2456">
        <ele>1932.9</ele>
        <time>2023-02-05T10:22:34Z</time>
      </trkpt>
      <trkpt lat="44.13308" lon="7.24558">
        <ele>1932.8</ele>
        <time>2023-02-05T10:22:35Z</time>
      </trkpt>
      <trkpt lat="44.13308" lon="7.24557">
        <ele>1932.8</ele>
        <time>2023-02-05T10:22:36Z</time>
      </trkpt>
      <trkpt lat="44.13308" lon="7.24556">
        <ele>1932.8</ele>
        <time>2023-02-05T10:22:37Z</time>
      </trkpt>
      <trkpt lat="44.13308" lon="7.24556">
        <ele>1933</ele>
        <time>2023-02-05T10:22:38Z</time>
      </trkpt>
      <trkpt lat="44.13308" lon="7.24554">
        <ele>1933.2</ele>
        <time>2023-02-05T10:22:39Z</time>
      </trkpt>
      <trkpt lat="44.13308" lon="7.24553">
        <ele>1933.1</ele>
        <time>2023-02-05T10:22:40Z</time>
      </trkpt>
      <trkpt lat="44.13308" lon="7.24552">
        <ele>1933.2</ele>
        <time>2023-02-05T10:22:41Z</time>
      </trkpt>
      <trkpt lat="44.13308" lon="7.24551">
        <ele>1933.3</ele>
        <time>2023-02-05T10:22:42Z</time>
      </trkpt>
      <trkpt lat="44.13308" lon="7.2455">
        <ele>1933.3</ele>
        <time>2023-02-05T10:22:43Z</time>
      </trkpt>
      <trkpt lat="44.13308" lon="7.24549">
        <ele>1933.3</ele>
        <time>2023-02-05T10:22:44Z</time>
      </trkpt>
      <trkpt lat="44.13308" lon="7.24547">
        <ele>1933.4</ele>
        <time>2023-02-05T10:22:45Z</time>
      </trkpt>
      <trkpt lat="44.13308" lon="7.24546">
        <ele>1933.4</ele>
        <time>2023-02-05T10:22:46Z</time>
      </trkpt>
      <trkpt lat="44.13308" lon="7.24545">
        <ele>1933.5</ele>
        <time>2023-02-05T10:22:47Z</time>
      </trkpt>
      <trkpt lat="44.13308" lon="7.24544">
        <ele>1933.5</ele>
        <time>2023-02-05T10:22:48Z</time>
      </trkpt>
      <trkpt lat="44.13308" lon="7.24543">
        <ele>1933.5</ele>
        <time>2023-02-05T10:22:49Z</time>
      </trkpt>
      <trkpt lat="44.13308" lon="7.24542">
        <ele>1933.6</ele>
        <time>2023-02-05T10:22:50Z</time>
      </trkpt>
      <trkpt lat="44.13308" lon="7.24541">
        <ele>1933.6</ele>
        <time>2023-02-05T10:22:51Z</time>
      </trkpt>
      <trkpt lat="44.13308" lon="7.24539">
        <ele>1933.8</ele>
        <time>2023-02-05T10:22:52Z</time>
      </trkpt>
      <trkpt lat="44.13308" lon="7.24538">
        <ele>1934</ele>
        <time>2023-02-05T10:22:53Z</time>
      </trkpt>
      <trkpt lat="44.13308" lon="7.24537">
        <ele>1934.1</ele>
        <time>2023-02-05T10:22:54Z</time>
      </trkpt>
      <trkpt lat="44.13308" lon="7.24536">
        <ele>1934.2</ele>
        <time>2023-02-05T10:22:55Z</time>
      </trkpt>
      <trkpt lat="44.13308" lon="7.24535">
        <ele>1934.3</ele>
        <time>2023-02-05T10:22:56Z</time>
      </trkpt>
      <trkpt lat="44.13308" lon="7.24534">
        <ele>1934.4</ele>
        <time>2023-02-05T10:22:57Z</time>
      </trkpt>
      <trkpt lat="44.13308" lon="7.24533">
        <ele>1934.5</ele>
        <time>2023-02-05T10:22:58Z</time>
      </trkpt>
      <trkpt lat="44.13308" lon="7.24532">
        <ele>1934.6</ele>
        <time>2023-02-05T10:22:59Z</time>
      </trkpt>
      <trkpt lat="44.13309" lon="7.2453">
        <ele>1934.6</ele>
        <time>2023-02-05T10:23:00Z</time>
      </trkpt>
      <trkpt lat="44.13309" lon="7.24529">
        <ele>1934.7</ele>
        <time>2023-02-05T10:23:01Z</time>
      </trkpt>
      <trkpt lat="44.13309" lon="7.24528">
        <ele>1934.8</ele>
        <time>2023-02-05T10:23:02Z</time>
      </trkpt>
      <trkpt lat="44.13309" lon="7.24527">
        <ele>1934.8</ele>
        <time>2023-02-05T10:23:03Z</time>
      </trkpt>
      <trkpt lat="44.13309" lon="7.24525">
        <ele>1934.8</ele>
        <time>2023-02-05T10:23:04Z</time>
      </trkpt>
      <trkpt lat="44.13309" lon="7.24525">
        <ele>1934.8</ele>
        <time>2023-02-05T10:23:05Z</time>
      </trkpt>
      <trkpt lat="44.13309" lon="7.24524">
        <ele>1934.8</ele>
        <time>2023-02-05T10:23:06Z</time>
      </trkpt>
      <trkpt lat="44.1331" lon="7.24523">
        <ele>1934.8</ele>
        <time>2023-02-05T10:23:07Z</time>
      </trkpt>
      <trkpt lat="44.1331" lon="7.24522">
        <ele>1934.9</ele>
        <time>2023-02-05T10:23:08Z</time>
      </trkpt>
      <trkpt lat="44.1331" lon="7.24521">
        <ele>1934.9</ele>
        <time>2023-02-05T10:23:09Z</time>
      </trkpt>
      <trkpt lat="44.1331" lon="7.2452">
        <ele>1935.1</ele>
        <time>2023-02-05T10:23:10Z</time>
      </trkpt>
      <trkpt lat="44.13311" lon="7.24519">
        <ele>1935.1</ele>
        <time>2023-02-05T10:23:11Z</time>
      </trkpt>
      <trkpt lat="44.13311" lon="7.24518">
        <ele>1935.1</ele>
        <time>2023-02-05T10:23:12Z</time>
      </trkpt>
      <trkpt lat="44.13311" lon="7.24517">
        <ele>1935.1</ele>
        <time>2023-02-05T10:23:13Z</time>
      </trkpt>
      <trkpt lat="44.13312" lon="7.24515">
        <ele>1935.2</ele>
        <time>2023-02-05T10:23:14Z</time>
      </trkpt>
      <trkpt lat="44.13312" lon="7.24514">
        <ele>1935.2</ele>
        <time>2023-02-05T10:23:15Z</time>
      </trkpt>
      <trkpt lat="44.13312" lon="7.24513">
        <ele>1935.3</ele>
        <time>2023-02-05T10:23:16Z</time>
      </trkpt>
      <trkpt lat="44.13312" lon="7.24511">
        <ele>1935.5</ele>
        <time>2023-02-05T10:23:17Z</time>
      </trkpt>
      <trkpt lat="44.13313" lon="7.2451">
        <ele>1935.6</ele>
        <time>2023-02-05T10:23:18Z</time>
      </trkpt>
      <trkpt lat="44.13313" lon="7.2451">
        <ele>1935.8</ele>
        <time>2023-02-05T10:23:19Z</time>
      </trkpt>
      <trkpt lat="44.13314" lon="7.24508">
        <ele>1935.9</ele>
        <time>2023-02-05T10:23:20Z</time>
      </trkpt>
      <trkpt lat="44.13314" lon="7.24507">
        <ele>1936</ele>
        <time>2023-02-05T10:23:21Z</time>
      </trkpt>
      <trkpt lat="44.13314" lon="7.24506">
        <ele>1936.2</ele>
        <time>2023-02-05T10:23:22Z</time>
      </trkpt>
      <trkpt lat="44.13315" lon="7.24505">
        <ele>1936.3</ele>
        <time>2023-02-05T10:23:23Z</time>
      </trkpt>
      <trkpt lat="44.13315" lon="7.24503">
        <ele>1936.3</ele>
        <time>2023-02-05T10:23:24Z</time>
      </trkpt>
      <trkpt lat="44.13315" lon="7.24502">
        <ele>1936.4</ele>
        <time>2023-02-05T10:23:25Z</time>
      </trkpt>
      <trkpt lat="44.13315" lon="7.24501">
        <ele>1936.5</ele>
        <time>2023-02-05T10:23:26Z</time>
      </trkpt>
      <trkpt lat="44.13315" lon="7.24499">
        <ele>1936.6</ele>
        <time>2023-02-05T10:23:27Z</time>
      </trkpt>
      <trkpt lat="44.13316" lon="7.24498">
        <ele>1936.8</ele>
        <time>2023-02-05T10:23:28Z</time>
      </trkpt>
      <trkpt lat="44.13316" lon="7.24498">
        <ele>1936.9</ele>
        <time>2023-02-05T10:23:29Z</time>
      </trkpt>
      <trkpt lat="44.13316" lon="7.24496">
        <ele>1937</ele>
        <time>2023-02-05T10:23:30Z</time>
      </trkpt>
      <trkpt lat="44.13316" lon="7.24495">
        <ele>1937</ele>
        <time>2023-02-05T10:23:31Z</time>
      </trkpt>
      <trkpt lat="44.13317" lon="7.24494">
        <ele>1937.1</ele>
        <time>2023-02-05T10:23:32Z</time>
      </trkpt>
      <trkpt lat="44.13317" lon="7.24493">
        <ele>1937.2</ele>
        <time>2023-02-05T10:23:33Z</time>
      </trkpt>
      <trkpt lat="44.13317" lon="7.24492">
        <ele>1937.3</ele>
        <time>2023-02-05T10:23:34Z</time>
      </trkpt>
      <trkpt lat="44.13318" lon="7.24491">
        <ele>1937.4</ele>
        <time>2023-02-05T10:23:35Z</time>
      </trkpt>
      <trkpt lat="44.13318" lon="7.2449">
        <ele>1937.6</ele>
        <time>2023-02-05T10:23:36Z</time>
      </trkpt>
      <trkpt lat="44.13319" lon="7.24489">
        <ele>1937.6</ele>
        <time>2023-02-05T10:23:37Z</time>
      </trkpt>
      <trkpt lat="44.13319" lon="7.24488">
        <ele>1937.6</ele>
        <time>2023-02-05T10:23:38Z</time>
      </trkpt>
      <trkpt lat="44.13319" lon="7.24487">
        <ele>1937.6</ele>
        <time>2023-02-05T10:23:39Z</time>
      </trkpt>
      <trkpt lat="44.13319" lon="7.24486">
        <ele>1937.6</ele>
        <time>2023-02-05T10:23:40Z</time>
      </trkpt>
      <trkpt lat="44.1332" lon="7.24485">
        <ele>1937.7</ele>
        <time>2023-02-05T10:23:41Z</time>
      </trkpt>
      <trkpt lat="44.1332" lon="7.24483">
        <ele>1937.8</ele>
        <time>2023-02-05T10:23:42Z</time>
      </trkpt>
      <trkpt lat="44.13321" lon="7.24482">
        <ele>1937.9</ele>
        <time>2023-02-05T10:23:43Z</time>
      </trkpt>
      <trkpt lat="44.13321" lon="7.24481">
        <ele>1938</ele>
        <time>2023-02-05T10:23:44Z</time>
      </trkpt>
      <trkpt lat="44.13321" lon="7.2448">
        <ele>1938.1</ele>
        <time>2023-02-05T10:23:45Z</time>
      </trkpt>
      <trkpt lat="44.13321" lon="7.24478">
        <ele>1938.1</ele>
        <time>2023-02-05T10:23:46Z</time>
      </trkpt>
      <trkpt lat="44.13321" lon="7.24477">
        <ele>1938.1</ele>
        <time>2023-02-05T10:23:47Z</time>
      </trkpt>
      <trkpt lat="44.13321" lon="7.24476">
        <ele>1938.2</ele>
        <time>2023-02-05T10:23:48Z</time>
      </trkpt>
      <trkpt lat="44.13322" lon="7.24475">
        <ele>1938.2</ele>
        <time>2023-02-05T10:23:49Z</time>
      </trkpt>
      <trkpt lat="44.13322" lon="7.24474">
        <ele>1938.3</ele>
        <time>2023-02-05T10:23:50Z</time>
      </trkpt>
      <trkpt lat="44.13322" lon="7.24473">
        <ele>1938.4</ele>
        <time>2023-02-05T10:23:51Z</time>
      </trkpt>
      <trkpt lat="44.13323" lon="7.24471">
        <ele>1938.5</ele>
        <time>2023-02-05T10:23:52Z</time>
      </trkpt>
      <trkpt lat="44.13323" lon="7.2447">
        <ele>1938.6</ele>
        <time>2023-02-05T10:23:53Z</time>
      </trkpt>
      <trkpt lat="44.13323" lon="7.24469">
        <ele>1938.7</ele>
        <time>2023-02-05T10:23:54Z</time>
      </trkpt>
      <trkpt lat="44.13323" lon="7.24468">
        <ele>1938.8</ele>
        <time>2023-02-05T10:23:55Z</time>
      </trkpt>
      <trkpt lat="44.13323" lon="7.24466">
        <ele>1939</ele>
        <time>2023-02-05T10:23:56Z</time>
      </trkpt>
      <trkpt lat="44.13324" lon="7.24465">
        <ele>1939</ele>
        <time>2023-02-05T10:23:57Z</time>
      </trkpt>
      <trkpt lat="44.13324" lon="7.24463">
        <ele>1939.2</ele>
        <time>2023-02-05T10:23:58Z</time>
      </trkpt>
      <trkpt lat="44.13325" lon="7.24462">
        <ele>1939.3</ele>
        <time>2023-02-05T10:23:59Z</time>
      </trkpt>
      <trkpt lat="44.13325" lon="7.24461">
        <ele>1939.4</ele>
        <time>2023-02-05T10:24:00Z</time>
      </trkpt>
      <trkpt lat="44.13325" lon="7.24459">
        <ele>1939.4</ele>
        <time>2023-02-05T10:24:01Z</time>
      </trkpt>
      <trkpt lat="44.13325" lon="7.24458">
        <ele>1939.4</ele>
        <time>2023-02-05T10:24:02Z</time>
      </trkpt>
      <trkpt lat="44.13326" lon="7.24456">
        <ele>1939.4</ele>
        <time>2023-02-05T10:24:03Z</time>
      </trkpt>
      <trkpt lat="44.13326" lon="7.24455">
        <ele>1939.5</ele>
        <time>2023-02-05T10:24:04Z</time>
      </trkpt>
      <trkpt lat="44.13326" lon="7.24454">
        <ele>1939.5</ele>
        <time>2023-02-05T10:24:05Z</time>
      </trkpt>
      <trkpt lat="44.13326" lon="7.24453">
        <ele>1939.5</ele>
        <time>2023-02-05T10:24:06Z</time>
      </trkpt>
      <trkpt lat="44.13326" lon="7.24452">
        <ele>1939.6</ele>
        <time>2023-02-05T10:24:07Z</time>
      </trkpt>
      <trkpt lat="44.13327" lon="7.24451">
        <ele>1939.7</ele>
        <time>2023-02-05T10:24:08Z</time>
      </trkpt>
      <trkpt lat="44.13327" lon="7.2445">
        <ele>1939.9</ele>
        <time>2023-02-05T10:24:09Z</time>
      </trkpt>
      <trkpt lat="44.13327" lon="7.24449">
        <ele>1940</ele>
        <time>2023-02-05T10:24:10Z</time>
      </trkpt>
      <trkpt lat="44.13327" lon="7.24448">
        <ele>1940</ele>
        <time>2023-02-05T10:24:11Z</time>
      </trkpt>
      <trkpt lat="44.13328" lon="7.24447">
        <ele>1940.1</ele>
        <time>2023-02-05T10:24:12Z</time>
      </trkpt>
      <trkpt lat="44.13329" lon="7.24446">
        <ele>1940.1</ele>
        <time>2023-02-05T10:24:13Z</time>
      </trkpt>
      <trkpt lat="44.13329" lon="7.24445">
        <ele>1940.1</ele>
        <time>2023-02-05T10:24:14Z</time>
      </trkpt>
      <trkpt lat="44.13329" lon="7.24444">
        <ele>1940.1</ele>
        <time>2023-02-05T10:24:15Z</time>
      </trkpt>
      <trkpt lat="44.13329" lon="7.24443">
        <ele>1940.1</ele>
        <time>2023-02-05T10:24:16Z</time>
      </trkpt>
      <trkpt lat="44.1333" lon="7.24443">
        <ele>1940.1</ele>
        <time>2023-02-05T10:24:17Z</time>
      </trkpt>
      <trkpt lat="44.1333" lon="7.24442">
        <ele>1940.1</ele>
        <time>2023-02-05T10:24:18Z</time>
      </trkpt>
      <trkpt lat="44.1333" lon="7.24441">
        <ele>1940.2</ele>
        <time>2023-02-05T10:24:19Z</time>
      </trkpt>
      <trkpt lat="44.1333" lon="7.2444">
        <ele>1940.3</ele>
        <time>2023-02-05T10:24:20Z</time>
      </trkpt>
      <trkpt lat="44.1333" lon="7.2444">
        <ele>1940.3</ele>
        <time>2023-02-05T10:24:21Z</time>
      </trkpt>
      <trkpt lat="44.13331" lon="7.24439">
        <ele>1940.3</ele>
        <time>2023-02-05T10:24:22Z</time>
      </trkpt>
      <trkpt lat="44.13331" lon="7.24438">
        <ele>1940.3</ele>
        <time>2023-02-05T10:24:23Z</time>
      </trkpt>
      <trkpt lat="44.13332" lon="7.24437">
        <ele>1940.3</ele>
        <time>2023-02-05T10:24:24Z</time>
      </trkpt>
      <trkpt lat="44.13332" lon="7.24436">
        <ele>1940.4</ele>
        <time>2023-02-05T10:24:25Z</time>
      </trkpt>
      <trkpt lat="44.13333" lon="7.24435">
        <ele>1940.4</ele>
        <time>2023-02-05T10:24:26Z</time>
      </trkpt>
      <trkpt lat="44.13334" lon="7.24435">
        <ele>1940.5</ele>
        <time>2023-02-05T10:24:27Z</time>
      </trkpt>
      <trkpt lat="44.13335" lon="7.24434">
        <ele>1940.6</ele>
        <time>2023-02-05T10:24:28Z</time>
      </trkpt>
      <trkpt lat="44.13335" lon="7.24434">
        <ele>1940.7</ele>
        <time>2023-02-05T10:24:29Z</time>
      </trkpt>
      <trkpt lat="44.13336" lon="7.24433">
        <ele>1940.8</ele>
        <time>2023-02-05T10:24:30Z</time>
      </trkpt>
      <trkpt lat="44.13337" lon="7.24433">
        <ele>1941</ele>
        <time>2023-02-05T10:24:31Z</time>
      </trkpt>
      <trkpt lat="44.13337" lon="7.24432">
        <ele>1941.1</ele>
        <time>2023-02-05T10:24:32Z</time>
      </trkpt>
      <trkpt lat="44.13338" lon="7.24431">
        <ele>1941.1</ele>
        <time>2023-02-05T10:24:33Z</time>
      </trkpt>
      <trkpt lat="44.13339" lon="7.2443">
        <ele>1941.1</ele>
        <time>2023-02-05T10:24:34Z</time>
      </trkpt>
      <trkpt lat="44.13339" lon="7.24429">
        <ele>1941.2</ele>
        <time>2023-02-05T10:24:35Z</time>
      </trkpt>
      <trkpt lat="44.1334" lon="7.24428">
        <ele>1941.3</ele>
        <time>2023-02-05T10:24:36Z</time>
      </trkpt>
      <trkpt lat="44.13341" lon="7.24428">
        <ele>1941.4</ele>
        <time>2023-02-05T10:24:37Z</time>
      </trkpt>
      <trkpt lat="44.13341" lon="7.24427">
        <ele>1941.5</ele>
        <time>2023-02-05T10:24:38Z</time>
      </trkpt>
      <trkpt lat="44.13342" lon="7.24426">
        <ele>1941.5</ele>
        <time>2023-02-05T10:24:39Z</time>
      </trkpt>
      <trkpt lat="44.13343" lon="7.24425">
        <ele>1941.6</ele>
        <time>2023-02-05T10:24:40Z</time>
      </trkpt>
      <trkpt lat="44.13344" lon="7.24424">
        <ele>1941.7</ele>
        <time>2023-02-05T10:24:41Z</time>
      </trkpt>
      <trkpt lat="44.13344" lon="7.24424">
        <ele>1941.8</ele>
        <time>2023-02-05T10:24:42Z</time>
      </trkpt>
      <trkpt lat="44.13344" lon="7.24424">
        <ele>1941.8</ele>
        <time>2023-02-05T10:24:43Z</time>
      </trkpt>
      <trkpt lat="44.13345" lon="7.24423">
        <ele>1941.9</ele>
        <time>2023-02-05T10:24:44Z</time>
      </trkpt>
      <trkpt lat="44.13345" lon="7.24423">
        <ele>1942</ele>
        <time>2023-02-05T10:24:45Z</time>
      </trkpt>
      <trkpt lat="44.13346" lon="7.24422">
        <ele>1942.2</ele>
        <time>2023-02-05T10:24:46Z</time>
      </trkpt>
      <trkpt lat="44.13346" lon="7.24421">
        <ele>1942.2</ele>
        <time>2023-02-05T10:24:47Z</time>
      </trkpt>
      <trkpt lat="44.13347" lon="7.2442">
        <ele>1942.3</ele>
        <time>2023-02-05T10:24:48Z</time>
      </trkpt>
      <trkpt lat="44.13347" lon="7.24419">
        <ele>1942.4</ele>
        <time>2023-02-05T10:24:49Z</time>
      </trkpt>
      <trkpt lat="44.13347" lon="7.24418">
        <ele>1942.5</ele>
        <time>2023-02-05T10:24:50Z</time>
      </trkpt>
      <trkpt lat="44.13348" lon="7.24417">
        <ele>1942.5</ele>
        <time>2023-02-05T10:24:51Z</time>
      </trkpt>
      <trkpt lat="44.13349" lon="7.24416">
        <ele>1942.6</ele>
        <time>2023-02-05T10:24:52Z</time>
      </trkpt>
      <trkpt lat="44.1335" lon="7.24415">
        <ele>1942.7</ele>
        <time>2023-02-05T10:24:53Z</time>
      </trkpt>
      <trkpt lat="44.1335" lon="7.24415">
        <ele>1942.8</ele>
        <time>2023-02-05T10:24:54Z</time>
      </trkpt>
      <trkpt lat="44.1335" lon="7.24414">
        <ele>1942.9</ele>
        <time>2023-02-05T10:24:55Z</time>
      </trkpt>
      <trkpt lat="44.13351" lon="7.24413">
        <ele>1943</ele>
        <time>2023-02-05T10:24:56Z</time>
      </trkpt>
      <trkpt lat="44.13351" lon="7.24412">
        <ele>1943.1</ele>
        <time>2023-02-05T10:24:57Z</time>
      </trkpt>
      <trkpt lat="44.13352" lon="7.24411">
        <ele>1943.2</ele>
        <time>2023-02-05T10:24:58Z</time>
      </trkpt>
      <trkpt lat="44.13353" lon="7.2441">
        <ele>1943.2</ele>
        <time>2023-02-05T10:24:59Z</time>
      </trkpt>
      <trkpt lat="44.13354" lon="7.24409">
        <ele>1943.3</ele>
        <time>2023-02-05T10:25:00Z</time>
      </trkpt>
      <trkpt lat="44.13354" lon="7.24409">
        <ele>1943.4</ele>
        <time>2023-02-05T10:25:01Z</time>
      </trkpt>
      <trkpt lat="44.13355" lon="7.24408">
        <ele>1943.4</ele>
        <time>2023-02-05T10:25:02Z</time>
      </trkpt>
      <trkpt lat="44.13356" lon="7.24407">
        <ele>1943.5</ele>
        <time>2023-02-05T10:25:03Z</time>
      </trkpt>
      <trkpt lat="44.13357" lon="7.24406">
        <ele>1943.6</ele>
        <time>2023-02-05T10:25:04Z</time>
      </trkpt>
      <trkpt lat="44.13357" lon="7.24404">
        <ele>1943.7</ele>
        <time>2023-02-05T10:25:05Z</time>
      </trkpt>
      <trkpt lat="44.13358" lon="7.24403">
        <ele>1943.7</ele>
        <time>2023-02-05T10:25:06Z</time>
      </trkpt>
      <trkpt lat="44.13358" lon="7.24401">
        <ele>1943.8</ele>
        <time>2023-02-05T10:25:07Z</time>
      </trkpt>
      <trkpt lat="44.13358" lon="7.244">
        <ele>1943.9</ele>
        <time>2023-02-05T10:25:08Z</time>
      </trkpt>
      <trkpt lat="44.13359" lon="7.24399">
        <ele>1944</ele>
        <time>2023-02-05T10:25:09Z</time>
      </trkpt>
      <trkpt lat="44.13359" lon="7.24398">
        <ele>1944.1</ele>
        <time>2023-02-05T10:25:10Z</time>
      </trkpt>
      <trkpt lat="44.1336" lon="7.24398">
        <ele>1944.2</ele>
        <time>2023-02-05T10:25:11Z</time>
      </trkpt>
      <trkpt lat="44.1336" lon="7.24397">
        <ele>1944.4</ele>
        <time>2023-02-05T10:25:12Z</time>
      </trkpt>
      <trkpt lat="44.1336" lon="7.24395">
        <ele>1944.5</ele>
        <time>2023-02-05T10:25:13Z</time>
      </trkpt>
      <trkpt lat="44.13361" lon="7.24395">
        <ele>1944.6</ele>
        <time>2023-02-05T10:25:14Z</time>
      </trkpt>
      <trkpt lat="44.13361" lon="7.24393">
        <ele>1944.6</ele>
        <time>2023-02-05T10:25:15Z</time>
      </trkpt>
      <trkpt lat="44.13361" lon="7.24392">
        <ele>1944.7</ele>
        <time>2023-02-05T10:25:16Z</time>
      </trkpt>
      <trkpt lat="44.13362" lon="7.24391">
        <ele>1944.7</ele>
        <time>2023-02-05T10:25:17Z</time>
      </trkpt>
      <trkpt lat="44.13362" lon="7.24391">
        <ele>1944.8</ele>
        <time>2023-02-05T10:25:18Z</time>
      </trkpt>
      <trkpt lat="44.13362" lon="7.24389">
        <ele>1944.8</ele>
        <time>2023-02-05T10:25:19Z</time>
      </trkpt>
      <trkpt lat="44.13362" lon="7.24388">
        <ele>1944.9</ele>
        <time>2023-02-05T10:25:20Z</time>
      </trkpt>
      <trkpt lat="44.13362" lon="7.24386">
        <ele>1945</ele>
        <time>2023-02-05T10:25:21Z</time>
      </trkpt>
      <trkpt lat="44.13363" lon="7.24385">
        <ele>1945.1</ele>
        <time>2023-02-05T10:25:22Z</time>
      </trkpt>
      <trkpt lat="44.13363" lon="7.24384">
        <ele>1945</ele>
        <time>2023-02-05T10:25:23Z</time>
      </trkpt>
      <trkpt lat="44.13363" lon="7.24383">
        <ele>1945.1</ele>
        <time>2023-02-05T10:25:24Z</time>
      </trkpt>
      <trkpt lat="44.13364" lon="7.24382">
        <ele>1945.2</ele>
        <time>2023-02-05T10:25:25Z</time>
      </trkpt>
      <trkpt lat="44.13364" lon="7.2438">
        <ele>1945.3</ele>
        <time>2023-02-05T10:25:26Z</time>
      </trkpt>
      <trkpt lat="44.13364" lon="7.24379">
        <ele>1945.3</ele>
        <time>2023-02-05T10:25:27Z</time>
      </trkpt>
      <trkpt lat="44.13364" lon="7.24378">
        <ele>1945.3</ele>
        <time>2023-02-05T10:25:28Z</time>
      </trkpt>
      <trkpt lat="44.13364" lon="7.24377">
        <ele>1945.4</ele>
        <time>2023-02-05T10:25:29Z</time>
      </trkpt>
      <trkpt lat="44.13365" lon="7.24376">
        <ele>1945.4</ele>
        <time>2023-02-05T10:25:30Z</time>
      </trkpt>
      <trkpt lat="44.13365" lon="7.24375">
        <ele>1945.5</ele>
        <time>2023-02-05T10:25:31Z</time>
      </trkpt>
      <trkpt lat="44.13366" lon="7.24374">
        <ele>1945.6</ele>
        <time>2023-02-05T10:25:32Z</time>
      </trkpt>
      <trkpt lat="44.13366" lon="7.24372">
        <ele>1945.6</ele>
        <time>2023-02-05T10:25:33Z</time>
      </trkpt>
      <trkpt lat="44.13366" lon="7.24371">
        <ele>1945.7</ele>
        <time>2023-02-05T10:25:34Z</time>
      </trkpt>
      <trkpt lat="44.13367" lon="7.2437">
        <ele>1945.9</ele>
        <time>2023-02-05T10:25:35Z</time>
      </trkpt>
      <trkpt lat="44.13367" lon="7.24369">
        <ele>1946</ele>
        <time>2023-02-05T10:25:36Z</time>
      </trkpt>
      <trkpt lat="44.13368" lon="7.24368">
        <ele>1946</ele>
        <time>2023-02-05T10:25:37Z</time>
      </trkpt>
      <trkpt lat="44.13368" lon="7.24367">
        <ele>1946.1</ele>
        <time>2023-02-05T10:25:38Z</time>
      </trkpt>
      <trkpt lat="44.13368" lon="7.24365">
        <ele>1946.1</ele>
        <time>2023-02-05T10:25:39Z</time>
      </trkpt>
      <trkpt lat="44.13368" lon="7.24364">
        <ele>1946.2</ele>
        <time>2023-02-05T10:25:40Z</time>
      </trkpt>
      <trkpt lat="44.13369" lon="7.24363">
        <ele>1946.3</ele>
        <time>2023-02-05T10:25:41Z</time>
      </trkpt>
      <trkpt lat="44.13369" lon="7.24362">
        <ele>1946.4</ele>
        <time>2023-02-05T10:25:42Z</time>
      </trkpt>
      <trkpt lat="44.1337" lon="7.24361">
        <ele>1946.5</ele>
        <time>2023-02-05T10:25:43Z</time>
      </trkpt>
      <trkpt lat="44.1337" lon="7.2436">
        <ele>1946.6</ele>
        <time>2023-02-05T10:25:44Z</time>
      </trkpt>
      <trkpt lat="44.1337" lon="7.24359">
        <ele>1946.6</ele>
        <time>2023-02-05T10:25:45Z</time>
      </trkpt>
      <trkpt lat="44.1337" lon="7.24357">
        <ele>1946.7</ele>
        <time>2023-02-05T10:25:46Z</time>
      </trkpt>
      <trkpt lat="44.13371" lon="7.24356">
        <ele>1946.8</ele>
        <time>2023-02-05T10:25:47Z</time>
      </trkpt>
      <trkpt lat="44.13371" lon="7.24355">
        <ele>1946.7</ele>
        <time>2023-02-05T10:25:48Z</time>
      </trkpt>
      <trkpt lat="44.13371" lon="7.24353">
        <ele>1946.8</ele>
        <time>2023-02-05T10:25:49Z</time>
      </trkpt>
      <trkpt lat="44.13372" lon="7.24352">
        <ele>1946.9</ele>
        <time>2023-02-05T10:25:50Z</time>
      </trkpt>
      <trkpt lat="44.13372" lon="7.24351">
        <ele>1947.1</ele>
        <time>2023-02-05T10:25:51Z</time>
      </trkpt>
      <trkpt lat="44.13372" lon="7.2435">
        <ele>1947.2</ele>
        <time>2023-02-05T10:25:52Z</time>
      </trkpt>
      <trkpt lat="44.13372" lon="7.24349">
        <ele>1947.4</ele>
        <time>2023-02-05T10:25:53Z</time>
      </trkpt>
      <trkpt lat="44.13373" lon="7.24348">
        <ele>1947.6</ele>
        <time>2023-02-05T10:25:54Z</time>
      </trkpt>
      <trkpt lat="44.13373" lon="7.24347">
        <ele>1947.7</ele>
        <time>2023-02-05T10:25:55Z</time>
      </trkpt>
      <trkpt lat="44.13373" lon="7.24345">
        <ele>1947.9</ele>
        <time>2023-02-05T10:25:56Z</time>
      </trkpt>
      <trkpt lat="44.13373" lon="7.24344">
        <ele>1948</ele>
        <time>2023-02-05T10:25:57Z</time>
      </trkpt>
      <trkpt lat="44.13373" lon="7.24343">
        <ele>1948.1</ele>
        <time>2023-02-05T10:25:58Z</time>
      </trkpt>
      <trkpt lat="44.13373" lon="7.24342">
        <ele>1948.2</ele>
        <time>2023-02-05T10:25:59Z</time>
      </trkpt>
      <trkpt lat="44.13374" lon="7.24342">
        <ele>1948.3</ele>
        <time>2023-02-05T10:26:00Z</time>
      </trkpt>
      <trkpt lat="44.13374" lon="7.2434">
        <ele>1948.4</ele>
        <time>2023-02-05T10:26:01Z</time>
      </trkpt>
      <trkpt lat="44.13374" lon="7.24338">
        <ele>1948.5</ele>
        <time>2023-02-05T10:26:02Z</time>
      </trkpt>
      <trkpt lat="44.13375" lon="7.24337">
        <ele>1948.7</ele>
        <time>2023-02-05T10:26:03Z</time>
      </trkpt>
      <trkpt lat="44.13375" lon="7.24337">
        <ele>1948.7</ele>
        <time>2023-02-05T10:26:04Z</time>
      </trkpt>
      <trkpt lat="44.13375" lon="7.24336">
        <ele>1948.8</ele>
        <time>2023-02-05T10:26:05Z</time>
      </trkpt>
      <trkpt lat="44.13375" lon="7.24335">
        <ele>1948.9</ele>
        <time>2023-02-05T10:26:06Z</time>
      </trkpt>
      <trkpt lat="44.13375" lon="7.24334">
        <ele>1949</ele>
        <time>2023-02-05T10:26:07Z</time>
      </trkpt>
      <trkpt lat="44.13375" lon="7.24333">
        <ele>1949.1</ele>
        <time>2023-02-05T10:26:08Z</time>
      </trkpt>
      <trkpt lat="44.13375" lon="7.24332">
        <ele>1949.2</ele>
        <time>2023-02-05T10:26:09Z</time>
      </trkpt>
      <trkpt lat="44.13376" lon="7.24331">
        <ele>1949.2</ele>
        <time>2023-02-05T10:26:10Z</time>
      </trkpt>
      <trkpt lat="44.13376" lon="7.2433">
        <ele>1949.3</ele>
        <time>2023-02-05T10:26:11Z</time>
      </trkpt>
      <trkpt lat="44.13376" lon="7.24329">
        <ele>1949.3</ele>
        <time>2023-02-05T10:26:12Z</time>
      </trkpt>
      <trkpt lat="44.13376" lon="7.24328">
        <ele>1949.3</ele>
        <time>2023-02-05T10:26:13Z</time>
      </trkpt>
      <trkpt lat="44.13377" lon="7.24327">
        <ele>1949.3</ele>
        <time>2023-02-05T10:26:14Z</time>
      </trkpt>
      <trkpt lat="44.13377" lon="7.24327">
        <ele>1949.3</ele>
        <time>2023-02-05T10:26:15Z</time>
      </trkpt>
      <trkpt lat="44.13377" lon="7.24325">
        <ele>1949.4</ele>
        <time>2023-02-05T10:26:16Z</time>
      </trkpt>
      <trkpt lat="44.13377" lon="7.24324">
        <ele>1949.5</ele>
        <time>2023-02-05T10:26:17Z</time>
      </trkpt>
      <trkpt lat="44.13378" lon="7.24324">
        <ele>1949.5</ele>
        <time>2023-02-05T10:26:18Z</time>
      </trkpt>
      <trkpt lat="44.13378" lon="7.24323">
        <ele>1949.6</ele>
        <time>2023-02-05T10:26:19Z</time>
      </trkpt>
      <trkpt lat="44.13378" lon="7.24321">
        <ele>1949.6</ele>
        <time>2023-02-05T10:26:20Z</time>
      </trkpt>
      <trkpt lat="44.13378" lon="7.2432">
        <ele>1949.6</ele>
        <time>2023-02-05T10:26:21Z</time>
      </trkpt>
      <trkpt lat="44.13378" lon="7.2432">
        <ele>1949.8</ele>
        <time>2023-02-05T10:26:22Z</time>
      </trkpt>
      <trkpt lat="44.13378" lon="7.24319">
        <ele>1949.8</ele>
        <time>2023-02-05T10:26:23Z</time>
      </trkpt>
      <trkpt lat="44.13378" lon="7.24319">
        <ele>1949.8</ele>
        <time>2023-02-05T10:26:24Z</time>
      </trkpt>
      <trkpt lat="44.13378" lon="7.24319">
        <ele>1949.9</ele>
        <time>2023-02-05T10:26:25Z</time>
      </trkpt>
      <trkpt lat="44.13378" lon="7.24319">
        <ele>1949.9</ele>
        <time>2023-02-05T10:26:26Z</time>
      </trkpt>
      <trkpt lat="44.13378" lon="7.24318">
        <ele>1950</ele>
        <time>2023-02-05T10:26:27Z</time>
      </trkpt>
      <trkpt lat="44.13378" lon="7.24317">
        <ele>1950</ele>
        <time>2023-02-05T10:26:28Z</time>
      </trkpt>
      <trkpt lat="44.13379" lon="7.24316">
        <ele>1950.1</ele>
        <time>2023-02-05T10:26:29Z</time>
      </trkpt>
      <trkpt lat="44.13379" lon="7.24315">
        <ele>1950.1</ele>
        <time>2023-02-05T10:26:30Z</time>
      </trkpt>
      <trkpt lat="44.13379" lon="7.24314">
        <ele>1950.1</ele>
        <time>2023-02-05T10:26:31Z</time>
      </trkpt>
      <trkpt lat="44.13379" lon="7.24313">
        <ele>1950.1</ele>
        <time>2023-02-05T10:26:32Z</time>
      </trkpt>
      <trkpt lat="44.13379" lon="7.24312">
        <ele>1950.2</ele>
        <time>2023-02-05T10:26:33Z</time>
      </trkpt>
      <trkpt lat="44.13379" lon="7.2431">
        <ele>1950.2</ele>
        <time>2023-02-05T10:26:34Z</time>
      </trkpt>
      <trkpt lat="44.1338" lon="7.24309">
        <ele>1950.3</ele>
        <time>2023-02-05T10:26:35Z</time>
      </trkpt>
      <trkpt lat="44.1338" lon="7.24308">
        <ele>1950.4</ele>
        <time>2023-02-05T10:26:36Z</time>
      </trkpt>
      <trkpt lat="44.1338" lon="7.24307">
        <ele>1950.5</ele>
        <time>2023-02-05T10:26:37Z</time>
      </trkpt>
      <trkpt lat="44.1338" lon="7.24306">
        <ele>1950.5</ele>
        <time>2023-02-05T10:26:38Z</time>
      </trkpt>
      <trkpt lat="44.13381" lon="7.24305">
        <ele>1950.6</ele>
        <time>2023-02-05T10:26:39Z</time>
      </trkpt>
      <trkpt lat="44.13381" lon="7.24304">
        <ele>1950.6</ele>
        <time>2023-02-05T10:26:40Z</time>
      </trkpt>
      <trkpt lat="44.13381" lon="7.24303">
        <ele>1950.7</ele>
        <time>2023-02-05T10:26:41Z</time>
      </trkpt>
      <trkpt lat="44.13382" lon="7.24302">
        <ele>1950.7</ele>
        <time>2023-02-05T10:26:42Z</time>
      </trkpt>
      <trkpt lat="44.13382" lon="7.24301">
        <ele>1950.8</ele>
        <time>2023-02-05T10:26:43Z</time>
      </trkpt>
      <trkpt lat="44.13382" lon="7.243">
        <ele>1950.8</ele>
        <time>2023-02-05T10:26:44Z</time>
      </trkpt>
      <trkpt lat="44.13382" lon="7.24299">
        <ele>1950.9</ele>
        <time>2023-02-05T10:26:45Z</time>
      </trkpt>
      <trkpt lat="44.13382" lon="7.24298">
        <ele>1951</ele>
        <time>2023-02-05T10:26:46Z</time>
      </trkpt>
      <trkpt lat="44.13382" lon="7.24298">
        <ele>1951</ele>
        <time>2023-02-05T10:26:47Z</time>
      </trkpt>
      <trkpt lat="44.13382" lon="7.24298">
        <ele>1951</ele>
        <time>2023-02-05T10:26:48Z</time>
      </trkpt>
      <trkpt lat="44.13382" lon="7.24298">
        <ele>1951</ele>
        <time>2023-02-05T10:26:49Z</time>
      </trkpt>
      <trkpt lat="44.13382" lon="7.24298">
        <ele>1951.1</ele>
        <time>2023-02-05T10:26:50Z</time>
      </trkpt>
      <trkpt lat="44.13382" lon="7.24298">
        <ele>1951.1</ele>
        <time>2023-02-05T10:26:51Z</time>
      </trkpt>
      <trkpt lat="44.13382" lon="7.24298">
        <ele>1951.1</ele>
        <time>2023-02-05T10:26:52Z</time>
      </trkpt>
      <trkpt lat="44.13382" lon="7.24298">
        <ele>1951.1</ele>
        <time>2023-02-05T10:26:53Z</time>
      </trkpt>
      <trkpt lat="44.13382" lon="7.24298">
        <ele>1951.1</ele>
        <time>2023-02-05T10:26:54Z</time>
      </trkpt>
      <trkpt lat="44.13382" lon="7.24298">
        <ele>1951</ele>
        <time>2023-02-05T10:26:55Z</time>
      </trkpt>
      <trkpt lat="44.13382" lon="7.24298">
        <ele>1950.9</ele>
        <time>2023-02-05T10:26:56Z</time>
      </trkpt>
      <trkpt lat="44.13382" lon="7.24298">
        <ele>1950.9</ele>
        <time>2023-02-05T10:26:57Z</time>
      </trkpt>
      <trkpt lat="44.13382" lon="7.24298">
        <ele>1950.9</ele>
        <time>2023-02-05T10:26:58Z</time>
      </trkpt>
      <trkpt lat="44.13382" lon="7.24298">
        <ele>1950.9</ele>
        <time>2023-02-05T10:26:59Z</time>
      </trkpt>
      <trkpt lat="44.13382" lon="7.24298">
        <ele>1950.9</ele>
        <time>2023-02-05T10:27:00Z</time>
      </trkpt>
      <trkpt lat="44.13382" lon="7.24298">
        <ele>1950.9</ele>
        <time>2023-02-05T10:27:01Z</time>
      </trkpt>
      <trkpt lat="44.13382" lon="7.24298">
        <ele>1951</ele>
        <time>2023-02-05T10:27:02Z</time>
      </trkpt>
      <trkpt lat="44.13382" lon="7.24298">
        <ele>1951</ele>
        <time>2023-02-05T10:27:03Z</time>
      </trkpt>
      <trkpt lat="44.13382" lon="7.24298">
        <ele>1950.9</ele>
        <time>2023-02-05T10:27:04Z</time>
      </trkpt>
      <trkpt lat="44.13381" lon="7.24298">
        <ele>1951</ele>
        <time>2023-02-05T10:27:05Z</time>
      </trkpt>
      <trkpt lat="44.13381" lon="7.24298">
        <ele>1951.1</ele>
        <time>2023-02-05T10:27:06Z</time>
      </trkpt>
      <trkpt lat="44.13381" lon="7.24298">
        <ele>1951.1</ele>
        <time>2023-02-05T10:27:07Z</time>
      </trkpt>
      <trkpt lat="44.13381" lon="7.24298">
        <ele>1951.1</ele>
        <time>2023-02-05T10:27:08Z</time>
      </trkpt>
      <trkpt lat="44.13381" lon="7.24298">
        <ele>1951.1</ele>
        <time>2023-02-05T10:27:09Z</time>
      </trkpt>
      <trkpt lat="44.13381" lon="7.24298">
        <ele>1951.1</ele>
        <time>2023-02-05T10:27:10Z</time>
      </trkpt>
      <trkpt lat="44.13381" lon="7.24298">
        <ele>1951.1</ele>
        <time>2023-02-05T10:27:11Z</time>
      </trkpt>
      <trkpt lat="44.1338" lon="7.24298">
        <ele>1951.1</ele>
        <time>2023-02-05T10:27:12Z</time>
      </trkpt>
      <trkpt lat="44.1338" lon="7.24298">
        <ele>1951.1</ele>
        <time>2023-02-05T10:27:13Z</time>
      </trkpt>
      <trkpt lat="44.1338" lon="7.24298">
        <ele>1951.1</ele>
        <time>2023-02-05T10:27:14Z</time>
      </trkpt>
      <trkpt lat="44.1338" lon="7.24298">
        <ele>1951.1</ele>
        <time>2023-02-05T10:27:15Z</time>
      </trkpt>
      <trkpt lat="44.1338" lon="7.24298">
        <ele>1951.1</ele>
        <time>2023-02-05T10:27:16Z</time>
      </trkpt>
      <trkpt lat="44.1338" lon="7.24298">
        <ele>1951.1</ele>
        <time>2023-02-05T10:27:17Z</time>
      </trkpt>
      <trkpt lat="44.1338" lon="7.24298">
        <ele>1951.1</ele>
        <time>2023-02-05T10:27:18Z</time>
      </trkpt>
      <trkpt lat="44.1338" lon="7.24298">
        <ele>1951.1</ele>
        <time>2023-02-05T10:27:19Z</time>
      </trkpt>
      <trkpt lat="44.1338" lon="7.24298">
        <ele>1951.1</ele>
        <time>2023-02-05T10:27:20Z</time>
      </trkpt>
      <trkpt lat="44.13379" lon="7.24298">
        <ele>1951</ele>
        <time>2023-02-05T10:27:21Z</time>
      </trkpt>
      <trkpt lat="44.13379" lon="7.24298">
        <ele>1951.1</ele>
        <time>2023-02-05T10:27:22Z</time>
      </trkpt>
      <trkpt lat="44.13379" lon="7.24298">
        <ele>1951.1</ele>
        <time>2023-02-05T10:27:23Z</time>
      </trkpt>
      <trkpt lat="44.13379" lon="7.24298">
        <ele>1951.1</ele>
        <time>2023-02-05T10:27:24Z</time>
      </trkpt>
      <trkpt lat="44.13379" lon="7.24298">
        <ele>1951</ele>
        <time>2023-02-05T10:27:25Z</time>
      </trkpt>
      <trkpt lat="44.13379" lon="7.24298">
        <ele>1950.9</ele>
        <time>2023-02-05T10:27:26Z</time>
      </trkpt>
      <trkpt lat="44.13379" lon="7.24297">
        <ele>1950.9</ele>
        <time>2023-02-05T10:27:27Z</time>
      </trkpt>
      <trkpt lat="44.1338" lon="7.24297">
        <ele>1951</ele>
        <time>2023-02-05T10:27:28Z</time>
      </trkpt>
      <trkpt lat="44.1338" lon="7.24296">
        <ele>1951</ele>
        <time>2023-02-05T10:27:29Z</time>
      </trkpt>
      <trkpt lat="44.13379" lon="7.24296">
        <ele>1951</ele>
        <time>2023-02-05T10:27:30Z</time>
      </trkpt>
      <trkpt lat="44.13379" lon="7.24296">
        <ele>1951.1</ele>
        <time>2023-02-05T10:27:31Z</time>
      </trkpt>
      <trkpt lat="44.13379" lon="7.24296">
        <ele>1951.1</ele>
        <time>2023-02-05T10:27:32Z</time>
      </trkpt>
      <trkpt lat="44.13379" lon="7.24296">
        <ele>1951.1</ele>
        <time>2023-02-05T10:27:33Z</time>
      </trkpt>
      <trkpt lat="44.13379" lon="7.24296">
        <ele>1951</ele>
        <time>2023-02-05T10:27:34Z</time>
      </trkpt>
      <trkpt lat="44.13379" lon="7.24296">
        <ele>1951</ele>
        <time>2023-02-05T10:27:35Z</time>
      </trkpt>
      <trkpt lat="44.13379" lon="7.24296">
        <ele>1951</ele>
        <time>2023-02-05T10:27:36Z</time>
      </trkpt>
      <trkpt lat="44.13379" lon="7.24296">
        <ele>1951</ele>
        <time>2023-02-05T10:27:37Z</time>
      </trkpt>
      <trkpt lat="44.13379" lon="7.24295">
        <ele>1951.1</ele>
        <time>2023-02-05T10:27:38Z</time>
      </trkpt>
      <trkpt lat="44.13378" lon="7.24295">
        <ele>1951.1</ele>
        <time>2023-02-05T10:27:39Z</time>
      </trkpt>
      <trkpt lat="44.13378" lon="7.24295">
        <ele>1951.1</ele>
        <time>2023-02-05T10:27:40Z</time>
      </trkpt>
      <trkpt lat="44.13378" lon="7.24295">
        <ele>1951.1</ele>
        <time>2023-02-05T10:27:41Z</time>
      </trkpt>
      <trkpt lat="44.13378" lon="7.24295">
        <ele>1951.1</ele>
        <time>2023-02-05T10:27:42Z</time>
      </trkpt>
      <trkpt lat="44.13377" lon="7.24295">
        <ele>1951.2</ele>
        <time>2023-02-05T10:27:43Z</time>
      </trkpt>
      <trkpt lat="44.13377" lon="7.24294">
        <ele>1951.2</ele>
        <time>2023-02-05T10:27:44Z</time>
      </trkpt>
      <trkpt lat="44.13377" lon="7.24294">
        <ele>1951.3</ele>
        <time>2023-02-05T10:27:45Z</time>
      </trkpt>
      <trkpt lat="44.13377" lon="7.24294">
        <ele>1951.4</ele>
        <time>2023-02-05T10:27:46Z</time>
      </trkpt>
      <trkpt lat="44.13377" lon="7.24294">
        <ele>1951.4</ele>
        <time>2023-02-05T10:27:47Z</time>
      </trkpt>
      <trkpt lat="44.13377" lon="7.24294">
        <ele>1951.4</ele>
        <time>2023-02-05T10:27:48Z</time>
      </trkpt>
      <trkpt lat="44.13377" lon="7.24294">
        <ele>1951.3</ele>
        <time>2023-02-05T10:27:49Z</time>
      </trkpt>
      <trkpt lat="44.13377" lon="7.24294">
        <ele>1951.3</ele>
        <time>2023-02-05T10:27:50Z</time>
      </trkpt>
      <trkpt lat="44.13377" lon="7.24294">
        <ele>1951.2</ele>
        <time>2023-02-05T10:27:51Z</time>
      </trkpt>
      <trkpt lat="44.13377" lon="7.24293">
        <ele>1951.3</ele>
        <time>2023-02-05T10:27:52Z</time>
      </trkpt>
      <trkpt lat="44.13377" lon="7.24293">
        <ele>1951.3</ele>
        <time>2023-02-05T10:27:53Z</time>
      </trkpt>
      <trkpt lat="44.13377" lon="7.24293">
        <ele>1951.3</ele>
        <time>2023-02-05T10:27:54Z</time>
      </trkpt>
      <trkpt lat="44.13377" lon="7.24293">
        <ele>1951.3</ele>
        <time>2023-02-05T10:27:55Z</time>
      </trkpt>
      <trkpt lat="44.13377" lon="7.24293">
        <ele>1951.3</ele>
        <time>2023-02-05T10:27:56Z</time>
      </trkpt>
      <trkpt lat="44.13377" lon="7.24293">
        <ele>1951.2</ele>
        <time>2023-02-05T10:27:57Z</time>
      </trkpt>
      <trkpt lat="44.13377" lon="7.24293">
        <ele>1951.2</ele>
        <time>2023-02-05T10:27:58Z</time>
      </trkpt>
      <trkpt lat="44.13377" lon="7.24293">
        <ele>1951.2</ele>
        <time>2023-02-05T10:27:59Z</time>
      </trkpt>
      <trkpt lat="44.13377" lon="7.24292">
        <ele>1951.2</ele>
        <time>2023-02-05T10:28:00Z</time>
      </trkpt>
      <trkpt lat="44.13377" lon="7.24292">
        <ele>1951.1</ele>
        <time>2023-02-05T10:28:01Z</time>
      </trkpt>
      <trkpt lat="44.13377" lon="7.24292">
        <ele>1951</ele>
        <time>2023-02-05T10:28:02Z</time>
      </trkpt>
      <trkpt lat="44.13377" lon="7.24292">
        <ele>1951</ele>
        <time>2023-02-05T10:28:03Z</time>
      </trkpt>
      <trkpt lat="44.13377" lon="7.24292">
        <ele>1951</ele>
        <time>2023-02-05T10:28:04Z</time>
      </trkpt>
      <trkpt lat="44.13377" lon="7.24292">
        <ele>1951.1</ele>
        <time>2023-02-05T10:28:05Z</time>
      </trkpt>
      <trkpt lat="44.13377" lon="7.24292">
        <ele>1951.2</ele>
        <time>2023-02-05T10:28:06Z</time>
      </trkpt>
      <trkpt lat="44.13377" lon="7.24292">
        <ele>1951.3</ele>
        <time>2023-02-05T10:28:07Z</time>
      </trkpt>
      <trkpt lat="44.13377" lon="7.24292">
        <ele>1951.2</ele>
        <time>2023-02-05T10:28:08Z</time>
      </trkpt>
      <trkpt lat="44.13377" lon="7.24291">
        <ele>1951.2</ele>
        <time>2023-02-05T10:28:09Z</time>
      </trkpt>
      <trkpt lat="44.13377" lon="7.24291">
        <ele>1951.2</ele>
        <time>2023-02-05T10:28:10Z</time>
      </trkpt>
      <trkpt lat="44.13377" lon="7.24291">
        <ele>1951.2</ele>
        <time>2023-02-05T10:28:11Z</time>
      </trkpt>
      <trkpt lat="44.13377" lon="7.24291">
        <ele>1951.2</ele>
        <time>2023-02-05T10:28:12Z</time>
      </trkpt>
      <trkpt lat="44.13376" lon="7.24291">
        <ele>1951.2</ele>
        <time>2023-02-05T10:28:13Z</time>
      </trkpt>
      <trkpt lat="44.13376" lon="7.24291">
        <ele>1951.2</ele>
        <time>2023-02-05T10:28:14Z</time>
      </trkpt>
      <trkpt lat="44.13376" lon="7.24291">
        <ele>1951.2</ele>
        <time>2023-02-05T10:28:15Z</time>
      </trkpt>
      <trkpt lat="44.13376" lon="7.24291">
        <ele>1951.1</ele>
        <time>2023-02-05T10:28:16Z</time>
      </trkpt>
      <trkpt lat="44.13376" lon="7.24292">
        <ele>1951.2</ele>
        <time>2023-02-05T10:28:17Z</time>
      </trkpt>
      <trkpt lat="44.13376" lon="7.24292">
        <ele>1951.2</ele>
        <time>2023-02-05T10:28:18Z</time>
      </trkpt>
      <trkpt lat="44.13376" lon="7.24292">
        <ele>1951.2</ele>
        <time>2023-02-05T10:28:19Z</time>
      </trkpt>
      <trkpt lat="44.13376" lon="7.24292">
        <ele>1951.2</ele>
        <time>2023-02-05T10:28:20Z</time>
      </trkpt>
      <trkpt lat="44.13376" lon="7.24292">
        <ele>1951.1</ele>
        <time>2023-02-05T10:28:21Z</time>
      </trkpt>
      <trkpt lat="44.13376" lon="7.24292">
        <ele>1951.1</ele>
        <time>2023-02-05T10:28:22Z</time>
      </trkpt>
      <trkpt lat="44.13375" lon="7.24291">
        <ele>1951.1</ele>
        <time>2023-02-05T10:28:23Z</time>
      </trkpt>
      <trkpt lat="44.13375" lon="7.24291">
        <ele>1951.1</ele>
        <time>2023-02-05T10:28:24Z</time>
      </trkpt>
      <trkpt lat="44.13375" lon="7.24291">
        <ele>1951.1</ele>
        <time>2023-02-05T10:28:25Z</time>
      </trkpt>
      <trkpt lat="44.13375" lon="7.24291">
        <ele>1951.1</ele>
        <time>2023-02-05T10:28:26Z</time>
      </trkpt>
      <trkpt lat="44.13374" lon="7.24291">
        <ele>1951.2</ele>
        <time>2023-02-05T10:28:27Z</time>
      </trkpt>
      <trkpt lat="44.13374" lon="7.24291">
        <ele>1951.2</ele>
        <time>2023-02-05T10:28:28Z</time>
      </trkpt>
      <trkpt lat="44.13374" lon="7.24291">
        <ele>1951.2</ele>
        <time>2023-02-05T10:28:29Z</time>
      </trkpt>
      <trkpt lat="44.13375" lon="7.24291">
        <ele>1951.2</ele>
        <time>2023-02-05T10:28:30Z</time>
      </trkpt>
      <trkpt lat="44.13376" lon="7.24292">
        <ele>1951.1</ele>
        <time>2023-02-05T10:28:31Z</time>
      </trkpt>
      <trkpt lat="44.13376" lon="7.24291">
        <ele>1951.1</ele>
        <time>2023-02-05T10:28:32Z</time>
      </trkpt>
      <trkpt lat="44.13376" lon="7.24291">
        <ele>1951.1</ele>
        <time>2023-02-05T10:28:33Z</time>
      </trkpt>
      <trkpt lat="44.13376" lon="7.24291">
        <ele>1951.1</ele>
        <time>2023-02-05T10:28:34Z</time>
      </trkpt>
      <trkpt lat="44.13376" lon="7.24292">
        <ele>1951.1</ele>
        <time>2023-02-05T10:28:35Z</time>
      </trkpt>
      <trkpt lat="44.13376" lon="7.24292">
        <ele>1951.1</ele>
        <time>2023-02-05T10:28:36Z</time>
      </trkpt>
      <trkpt lat="44.13376" lon="7.24292">
        <ele>1951</ele>
        <time>2023-02-05T10:28:37Z</time>
      </trkpt>
      <trkpt lat="44.13376" lon="7.24292">
        <ele>1951.1</ele>
        <time>2023-02-05T10:28:38Z</time>
      </trkpt>
      <trkpt lat="44.13376" lon="7.24292">
        <ele>1951.1</ele>
        <time>2023-02-05T10:28:39Z</time>
      </trkpt>
      <trkpt lat="44.13375" lon="7.24292">
        <ele>1951.1</ele>
        <time>2023-02-05T10:28:40Z</time>
      </trkpt>
      <trkpt lat="44.13375" lon="7.24292">
        <ele>1951.2</ele>
        <time>2023-02-05T10:28:41Z</time>
      </trkpt>
      <trkpt lat="44.13375" lon="7.24292">
        <ele>1951.2</ele>
        <time>2023-02-05T10:28:42Z</time>
      </trkpt>
      <trkpt lat="44.13375" lon="7.24292">
        <ele>1951.2</ele>
        <time>2023-02-05T10:28:43Z</time>
      </trkpt>
      <trkpt lat="44.13375" lon="7.24292">
        <ele>1951.2</ele>
        <time>2023-02-05T10:28:44Z</time>
      </trkpt>
      <trkpt lat="44.13375" lon="7.24292">
        <ele>1951.1</ele>
        <time>2023-02-05T10:28:45Z</time>
      </trkpt>
      <trkpt lat="44.13375" lon="7.24291">
        <ele>1951.2</ele>
        <time>2023-02-05T10:28:46Z</time>
      </trkpt>
      <trkpt lat="44.13375" lon="7.24291">
        <ele>1951.2</ele>
        <time>2023-02-05T10:28:47Z</time>
      </trkpt>
      <trkpt lat="44.13375" lon="7.24291">
        <ele>1951.3</ele>
        <time>2023-02-05T10:28:48Z</time>
      </trkpt>
      <trkpt lat="44.13375" lon="7.24291">
        <ele>1951.3</ele>
        <time>2023-02-05T10:28:49Z</time>
      </trkpt>
      <trkpt lat="44.13375" lon="7.24291">
        <ele>1951.3</ele>
        <time>2023-02-05T10:28:50Z</time>
      </trkpt>
      <trkpt lat="44.13374" lon="7.24292">
        <ele>1951.3</ele>
        <time>2023-02-05T10:28:51Z</time>
      </trkpt>
      <trkpt lat="44.13374" lon="7.24292">
        <ele>1951.3</ele>
        <time>2023-02-05T10:28:52Z</time>
      </trkpt>
      <trkpt lat="44.13374" lon="7.24292">
        <ele>1951.2</ele>
        <time>2023-02-05T10:28:53Z</time>
      </trkpt>
      <trkpt lat="44.13374" lon="7.24292">
        <ele>1951.2</ele>
        <time>2023-02-05T10:28:54Z</time>
      </trkpt>
      <trkpt lat="44.13374" lon="7.24292">
        <ele>1951.1</ele>
        <time>2023-02-05T10:28:55Z</time>
      </trkpt>
      <trkpt lat="44.13373" lon="7.24292">
        <ele>1951</ele>
        <time>2023-02-05T10:28:56Z</time>
      </trkpt>
      <trkpt lat="44.13373" lon="7.24292">
        <ele>1951</ele>
        <time>2023-02-05T10:28:57Z</time>
      </trkpt>
      <trkpt lat="44.13374" lon="7.24292">
        <ele>1951</ele>
        <time>2023-02-05T10:28:58Z</time>
      </trkpt>
      <trkpt lat="44.13374" lon="7.24292">
        <ele>1950.9</ele>
        <time>2023-02-05T10:28:59Z</time>
      </trkpt>
      <trkpt lat="44.13374" lon="7.24292">
        <ele>1950.9</ele>
        <time>2023-02-05T10:29:00Z</time>
      </trkpt>
      <trkpt lat="44.13374" lon="7.24292">
        <ele>1950.9</ele>
        <time>2023-02-05T10:29:01Z</time>
      </trkpt>
      <trkpt lat="44.13374" lon="7.24292">
        <ele>1950.9</ele>
        <time>2023-02-05T10:29:02Z</time>
      </trkpt>
      <trkpt lat="44.13374" lon="7.24292">
        <ele>1950.9</ele>
        <time>2023-02-05T10:29:03Z</time>
      </trkpt>
      <trkpt lat="44.13374" lon="7.24293">
        <ele>1950.9</ele>
        <time>2023-02-05T10:29:04Z</time>
      </trkpt>
      <trkpt lat="44.13374" lon="7.24293">
        <ele>1950.9</ele>
        <time>2023-02-05T10:29:05Z</time>
      </trkpt>
      <trkpt lat="44.13374" lon="7.24293">
        <ele>1950.8</ele>
        <time>2023-02-05T10:29:06Z</time>
      </trkpt>
      <trkpt lat="44.13374" lon="7.24293">
        <ele>1950.8</ele>
        <time>2023-02-05T10:29:07Z</time>
      </trkpt>
      <trkpt lat="44.13375" lon="7.24293">
        <ele>1950.8</ele>
        <time>2023-02-05T10:29:08Z</time>
      </trkpt>
      <trkpt lat="44.13375" lon="7.24293">
        <ele>1950.7</ele>
        <time>2023-02-05T10:29:09Z</time>
      </trkpt>
      <trkpt lat="44.13375" lon="7.24293">
        <ele>1950.7</ele>
        <time>2023-02-05T10:29:10Z</time>
      </trkpt>
      <trkpt lat="44.13375" lon="7.24293">
        <ele>1950.7</ele>
        <time>2023-02-05T10:29:11Z</time>
      </trkpt>
      <trkpt lat="44.13376" lon="7.24293">
        <ele>1950.8</ele>
        <time>2023-02-05T10:29:12Z</time>
      </trkpt>
      <trkpt lat="44.13376" lon="7.24293">
        <ele>1950.9</ele>
        <time>2023-02-05T10:29:13Z</time>
      </trkpt>
      <trkpt lat="44.13376" lon="7.24293">
        <ele>1951</ele>
        <time>2023-02-05T10:29:14Z</time>
      </trkpt>
      <trkpt lat="44.13376" lon="7.24292">
        <ele>1951</ele>
        <time>2023-02-05T10:29:15Z</time>
      </trkpt>
      <trkpt lat="44.13376" lon="7.24292">
        <ele>1951</ele>
        <time>2023-02-05T10:29:16Z</time>
      </trkpt>
      <trkpt lat="44.13377" lon="7.24292">
        <ele>1951</ele>
        <time>2023-02-05T10:29:17Z</time>
      </trkpt>
      <trkpt lat="44.13377" lon="7.24291">
        <ele>1951.1</ele>
        <time>2023-02-05T10:29:18Z</time>
      </trkpt>
      <trkpt lat="44.13377" lon="7.24291">
        <ele>1951.1</ele>
        <time>2023-02-05T10:29:19Z</time>
      </trkpt>
      <trkpt lat="44.13377" lon="7.24291">
        <ele>1951</ele>
        <time>2023-02-05T10:29:20Z</time>
      </trkpt>
      <trkpt lat="44.13377" lon="7.24291">
        <ele>1950.9</ele>
        <time>2023-02-05T10:29:21Z</time>
      </trkpt>
      <trkpt lat="44.13377" lon="7.2429">
        <ele>1950.8</ele>
        <time>2023-02-05T10:29:22Z</time>
      </trkpt>
      <trkpt lat="44.13377" lon="7.2429">
        <ele>1950.8</ele>
        <time>2023-02-05T10:29:23Z</time>
      </trkpt>
      <trkpt lat="44.13377" lon="7.2429">
        <ele>1950.9</ele>
        <time>2023-02-05T10:29:24Z</time>
      </trkpt>
      <trkpt lat="44.13377" lon="7.2429">
        <ele>1950.9</ele>
        <time>2023-02-05T10:29:25Z</time>
      </trkpt>
      <trkpt lat="44.13377" lon="7.2429">
        <ele>1950.9</ele>
        <time>2023-02-05T10:29:26Z</time>
      </trkpt>
      <trkpt lat="44.13377" lon="7.2429">
        <ele>1950.9</ele>
        <time>2023-02-05T10:29:27Z</time>
      </trkpt>
      <trkpt lat="44.13377" lon="7.2429">
        <ele>1951</ele>
        <time>2023-02-05T10:29:28Z</time>
      </trkpt>
      <trkpt lat="44.13377" lon="7.2429">
        <ele>1951</ele>
        <time>2023-02-05T10:29:29Z</time>
      </trkpt>
      <trkpt lat="44.13377" lon="7.2429">
        <ele>1951</ele>
        <time>2023-02-05T10:29:30Z</time>
      </trkpt>
      <trkpt lat="44.13377" lon="7.2429">
        <ele>1951</ele>
        <time>2023-02-05T10:29:31Z</time>
      </trkpt>
      <trkpt lat="44.13377" lon="7.2429">
        <ele>1951</ele>
        <time>2023-02-05T10:29:32Z</time>
      </trkpt>
      <trkpt lat="44.13377" lon="7.24289">
        <ele>1950.9</ele>
        <time>2023-02-05T10:29:33Z</time>
      </trkpt>
      <trkpt lat="44.13377" lon="7.24289">
        <ele>1950.9</ele>
        <time>2023-02-05T10:29:34Z</time>
      </trkpt>
      <trkpt lat="44.13377" lon="7.24289">
        <ele>1950.9</ele>
        <time>2023-02-05T10:29:35Z</time>
      </trkpt>
      <trkpt lat="44.13377" lon="7.24289">
        <ele>1950.9</ele>
        <time>2023-02-05T10:29:36Z</time>
      </trkpt>
      <trkpt lat="44.13377" lon="7.24289">
        <ele>1950.9</ele>
        <time>2023-02-05T10:29:37Z</time>
      </trkpt>
      <trkpt lat="44.13377" lon="7.24289">
        <ele>1951</ele>
        <time>2023-02-05T10:29:38Z</time>
      </trkpt>
      <trkpt lat="44.13377" lon="7.24289">
        <ele>1951</ele>
        <time>2023-02-05T10:29:39Z</time>
      </trkpt>
      <trkpt lat="44.13377" lon="7.24289">
        <ele>1951</ele>
        <time>2023-02-05T10:29:40Z</time>
      </trkpt>
      <trkpt lat="44.13377" lon="7.24289">
        <ele>1951.1</ele>
        <time>2023-02-05T10:29:41Z</time>
      </trkpt>
      <trkpt lat="44.13377" lon="7.24289">
        <ele>1951.1</ele>
        <time>2023-02-05T10:29:42Z</time>
      </trkpt>
      <trkpt lat="44.13377" lon="7.24289">
        <ele>1951</ele>
        <time>2023-02-05T10:29:43Z</time>
      </trkpt>
      <trkpt lat="44.13377" lon="7.24289">
        <ele>1951</ele>
        <time>2023-02-05T10:29:44Z</time>
      </trkpt>
      <trkpt lat="44.13377" lon="7.24289">
        <ele>1951</ele>
        <time>2023-02-05T10:29:45Z</time>
      </trkpt>
      <trkpt lat="44.13377" lon="7.24289">
        <ele>1951</ele>
        <time>2023-02-05T10:29:46Z</time>
      </trkpt>
      <trkpt lat="44.13377" lon="7.24289">
        <ele>1950.9</ele>
        <time>2023-02-05T10:29:47Z</time>
      </trkpt>
      <trkpt lat="44.13376" lon="7.24289">
        <ele>1950.9</ele>
        <time>2023-02-05T10:29:48Z</time>
      </trkpt>
      <trkpt lat="44.13376" lon="7.24289">
        <ele>1950.9</ele>
        <time>2023-02-05T10:29:49Z</time>
      </trkpt>
      <trkpt lat="44.13376" lon="7.24289">
        <ele>1950.9</ele>
        <time>2023-02-05T10:29:50Z</time>
      </trkpt>
      <trkpt lat="44.13376" lon="7.24289">
        <ele>1950.9</ele>
        <time>2023-02-05T10:29:51Z</time>
      </trkpt>
      <trkpt lat="44.13376" lon="7.24289">
        <ele>1950.8</ele>
        <time>2023-02-05T10:29:52Z</time>
      </trkpt>
      <trkpt lat="44.13376" lon="7.24289">
        <ele>1950.8</ele>
        <time>2023-02-05T10:29:53Z</time>
      </trkpt>
      <trkpt lat="44.13376" lon="7.24289">
        <ele>1950.8</ele>
        <time>2023-02-05T10:29:54Z</time>
      </trkpt>
      <trkpt lat="44.13377" lon="7.24289">
        <ele>1950.8</ele>
        <time>2023-02-05T10:29:55Z</time>
      </trkpt>
      <trkpt lat="44.13377" lon="7.2429">
        <ele>1950.8</ele>
        <time>2023-02-05T10:29:56Z</time>
      </trkpt>
      <trkpt lat="44.13376" lon="7.2429">
        <ele>1950.8</ele>
        <time>2023-02-05T10:29:57Z</time>
      </trkpt>
      <trkpt lat="44.13377" lon="7.2429">
        <ele>1950.7</ele>
        <time>2023-02-05T10:29:58Z</time>
      </trkpt>
      <trkpt lat="44.13376" lon="7.2429">
        <ele>1950.8</ele>
        <time>2023-02-05T10:29:59Z</time>
      </trkpt>
      <trkpt lat="44.13376" lon="7.2429">
        <ele>1950.8</ele>
        <time>2023-02-05T10:30:00Z</time>
      </trkpt>
      <trkpt lat="44.13377" lon="7.2429">
        <ele>1950.8</ele>
        <time>2023-02-05T10:30:01Z</time>
      </trkpt>
      <trkpt lat="44.13377" lon="7.2429">
        <ele>1950.8</ele>
        <time>2023-02-05T10:30:02Z</time>
      </trkpt>
      <trkpt lat="44.13377" lon="7.2429">
        <ele>1950.8</ele>
        <time>2023-02-05T10:30:03Z</time>
      </trkpt>
      <trkpt lat="44.13377" lon="7.2429">
        <ele>1950.9</ele>
        <time>2023-02-05T10:30:04Z</time>
      </trkpt>
      <trkpt lat="44.13377" lon="7.2429">
        <ele>1950.9</ele>
        <time>2023-02-05T10:30:05Z</time>
      </trkpt>
      <trkpt lat="44.13377" lon="7.2429">
        <ele>1951</ele>
        <time>2023-02-05T10:30:06Z</time>
      </trkpt>
      <trkpt lat="44.13377" lon="7.2429">
        <ele>1951.1</ele>
        <time>2023-02-05T10:30:07Z</time>
      </trkpt>
      <trkpt lat="44.13377" lon="7.2429">
        <ele>1951.1</ele>
        <time>2023-02-05T10:30:08Z</time>
      </trkpt>
      <trkpt lat="44.13377" lon="7.2429">
        <ele>1951.1</ele>
        <time>2023-02-05T10:30:09Z</time>
      </trkpt>
      <trkpt lat="44.13377" lon="7.2429">
        <ele>1951.1</ele>
        <time>2023-02-05T10:30:10Z</time>
      </trkpt>
      <trkpt lat="44.13377" lon="7.2429">
        <ele>1951.2</ele>
        <time>2023-02-05T10:30:11Z</time>
      </trkpt>
      <trkpt lat="44.13377" lon="7.2429">
        <ele>1951.2</ele>
        <time>2023-02-05T10:30:12Z</time>
      </trkpt>
      <trkpt lat="44.13377" lon="7.2429">
        <ele>1951.3</ele>
        <time>2023-02-05T10:30:13Z</time>
      </trkpt>
      <trkpt lat="44.13377" lon="7.2429">
        <ele>1951.3</ele>
        <time>2023-02-05T10:30:14Z</time>
      </trkpt>
      <trkpt lat="44.13377" lon="7.2429">
        <ele>1951.3</ele>
        <time>2023-02-05T10:30:15Z</time>
      </trkpt>
      <trkpt lat="44.13377" lon="7.2429">
        <ele>1951.3</ele>
        <time>2023-02-05T10:30:16Z</time>
      </trkpt>
      <trkpt lat="44.13377" lon="7.2429">
        <ele>1951.2</ele>
        <time>2023-02-05T10:30:17Z</time>
      </trkpt>
      <trkpt lat="44.13377" lon="7.24291">
        <ele>1951.1</ele>
        <time>2023-02-05T10:30:18Z</time>
      </trkpt>
      <trkpt lat="44.13377" lon="7.24291">
        <ele>1951.1</ele>
        <time>2023-02-05T10:30:19Z</time>
      </trkpt>
      <trkpt lat="44.13377" lon="7.24291">
        <ele>1951</ele>
        <time>2023-02-05T10:30:20Z</time>
      </trkpt>
      <trkpt lat="44.13377" lon="7.2429">
        <ele>1951</ele>
        <time>2023-02-05T10:30:21Z</time>
      </trkpt>
      <trkpt lat="44.13377" lon="7.2429">
        <ele>1951</ele>
        <time>2023-02-05T10:30:22Z</time>
      </trkpt>
      <trkpt lat="44.13377" lon="7.2429">
        <ele>1950.9</ele>
        <time>2023-02-05T10:30:23Z</time>
      </trkpt>
      <trkpt lat="44.13377" lon="7.24291">
        <ele>1951</ele>
        <time>2023-02-05T10:30:24Z</time>
      </trkpt>
      <trkpt lat="44.13377" lon="7.24291">
        <ele>1951</ele>
        <time>2023-02-05T10:30:25Z</time>
      </trkpt>
      <trkpt lat="44.13377" lon="7.24291">
        <ele>1951</ele>
        <time>2023-02-05T10:30:26Z</time>
      </trkpt>
      <trkpt lat="44.13377" lon="7.24291">
        <ele>1951</ele>
        <time>2023-02-05T10:30:27Z</time>
      </trkpt>
      <trkpt lat="44.13377" lon="7.24291">
        <ele>1951</ele>
        <time>2023-02-05T10:30:28Z</time>
      </trkpt>
      <trkpt lat="44.13377" lon="7.24291">
        <ele>1951.1</ele>
        <time>2023-02-05T10:30:29Z</time>
      </trkpt>
      <trkpt lat="44.13377" lon="7.24291">
        <ele>1951</ele>
        <time>2023-02-05T10:30:30Z</time>
      </trkpt>
      <trkpt lat="44.13377" lon="7.24291">
        <ele>1951</ele>
        <time>2023-02-05T10:30:31Z</time>
      </trkpt>
      <trkpt lat="44.13377" lon="7.24291">
        <ele>1950.9</ele>
        <time>2023-02-05T10:30:32Z</time>
      </trkpt>
      <trkpt lat="44.13377" lon="7.24291">
        <ele>1950.9</ele>
        <time>2023-02-05T10:30:33Z</time>
      </trkpt>
      <trkpt lat="44.13377" lon="7.24291">
        <ele>1950.9</ele>
        <time>2023-02-05T10:30:34Z</time>
      </trkpt>
      <trkpt lat="44.13377" lon="7.24291">
        <ele>1950.8</ele>
        <time>2023-02-05T10:30:35Z</time>
      </trkpt>
      <trkpt lat="44.13377" lon="7.24291">
        <ele>1950.9</ele>
        <time>2023-02-05T10:30:36Z</time>
      </trkpt>
      <trkpt lat="44.13377" lon="7.24291">
        <ele>1950.9</ele>
        <time>2023-02-05T10:30:37Z</time>
      </trkpt>
      <trkpt lat="44.13377" lon="7.24291">
        <ele>1950.9</ele>
        <time>2023-02-05T10:30:38Z</time>
      </trkpt>
      <trkpt lat="44.13377" lon="7.24291">
        <ele>1950.8</ele>
        <time>2023-02-05T10:30:39Z</time>
      </trkpt>
      <trkpt lat="44.13376" lon="7.24292">
        <ele>1951</ele>
        <time>2023-02-05T10:30:40Z</time>
      </trkpt>
      <trkpt lat="44.13376" lon="7.24292">
        <ele>1951.1</ele>
        <time>2023-02-05T10:30:41Z</time>
      </trkpt>
      <trkpt lat="44.13376" lon="7.24292">
        <ele>1951</ele>
        <time>2023-02-05T10:30:42Z</time>
      </trkpt>
      <trkpt lat="44.13376" lon="7.24292">
        <ele>1951</ele>
        <time>2023-02-05T10:30:43Z</time>
      </trkpt>
      <trkpt lat="44.13376" lon="7.24292">
        <ele>1951</ele>
        <time>2023-02-05T10:30:44Z</time>
      </trkpt>
      <trkpt lat="44.13375" lon="7.24292">
        <ele>1951</ele>
        <time>2023-02-05T10:30:45Z</time>
      </trkpt>
      <trkpt lat="44.13375" lon="7.24292">
        <ele>1951</ele>
        <time>2023-02-05T10:30:46Z</time>
      </trkpt>
      <trkpt lat="44.13375" lon="7.24292">
        <ele>1951</ele>
        <time>2023-02-05T10:30:47Z</time>
      </trkpt>
      <trkpt lat="44.13375" lon="7.24292">
        <ele>1951</ele>
        <time>2023-02-05T10:30:48Z</time>
      </trkpt>
      <trkpt lat="44.13374" lon="7.24292">
        <ele>1951</ele>
        <time>2023-02-05T10:30:49Z</time>
      </trkpt>
      <trkpt lat="44.13374" lon="7.24292">
        <ele>1951.1</ele>
        <time>2023-02-05T10:30:50Z</time>
      </trkpt>
      <trkpt lat="44.13374" lon="7.24291">
        <ele>1951.1</ele>
        <time>2023-02-05T10:30:51Z</time>
      </trkpt>
      <trkpt lat="44.13373" lon="7.24291">
        <ele>1951.2</ele>
        <time>2023-02-05T10:30:52Z</time>
      </trkpt>
      <trkpt lat="44.13373" lon="7.24291">
        <ele>1951.2</ele>
        <time>2023-02-05T10:30:53Z</time>
      </trkpt>
      <trkpt lat="44.13373" lon="7.24291">
        <ele>1951.2</ele>
        <time>2023-02-05T10:30:54Z</time>
      </trkpt>
      <trkpt lat="44.13373" lon="7.24291">
        <ele>1951.2</ele>
        <time>2023-02-05T10:30:55Z</time>
      </trkpt>
      <trkpt lat="44.13373" lon="7.24291">
        <ele>1951.2</ele>
        <time>2023-02-05T10:30:56Z</time>
      </trkpt>
      <trkpt lat="44.13372" lon="7.24291">
        <ele>1951.1</ele>
        <time>2023-02-05T10:30:57Z</time>
      </trkpt>
      <trkpt lat="44.13372" lon="7.24291">
        <ele>1951.1</ele>
        <time>2023-02-05T10:30:58Z</time>
      </trkpt>
      <trkpt lat="44.13372" lon="7.24291">
        <ele>1951.1</ele>
        <time>2023-02-05T10:30:59Z</time>
      </trkpt>
      <trkpt lat="44.13372" lon="7.24291">
        <ele>1951.1</ele>
        <time>2023-02-05T10:31:00Z</time>
      </trkpt>
      <trkpt lat="44.13372" lon="7.24291">
        <ele>1951.1</ele>
        <time>2023-02-05T10:31:01Z</time>
      </trkpt>
      <trkpt lat="44.13372" lon="7.24291">
        <ele>1951.1</ele>
        <time>2023-02-05T10:31:02Z</time>
      </trkpt>
      <trkpt lat="44.13372" lon="7.24291">
        <ele>1951.1</ele>
        <time>2023-02-05T10:31:03Z</time>
      </trkpt>
      <trkpt lat="44.13372" lon="7.24291">
        <ele>1951.1</ele>
        <time>2023-02-05T10:31:04Z</time>
      </trkpt>
      <trkpt lat="44.13371" lon="7.24291">
        <ele>1951</ele>
        <time>2023-02-05T10:31:05Z</time>
      </trkpt>
      <trkpt lat="44.13371" lon="7.24291">
        <ele>1951</ele>
        <time>2023-02-05T10:31:06Z</time>
      </trkpt>
      <trkpt lat="44.13371" lon="7.24291">
        <ele>1951</ele>
        <time>2023-02-05T10:31:07Z</time>
      </trkpt>
      <trkpt lat="44.13371" lon="7.2429">
        <ele>1951</ele>
        <time>2023-02-05T10:31:08Z</time>
      </trkpt>
      <trkpt lat="44.13371" lon="7.2429">
        <ele>1951</ele>
        <time>2023-02-05T10:31:09Z</time>
      </trkpt>
      <trkpt lat="44.13371" lon="7.2429">
        <ele>1951.1</ele>
        <time>2023-02-05T10:31:10Z</time>
      </trkpt>
      <trkpt lat="44.13371" lon="7.2429">
        <ele>1951.2</ele>
        <time>2023-02-05T10:31:11Z</time>
      </trkpt>
      <trkpt lat="44.13371" lon="7.2429">
        <ele>1951.2</ele>
        <time>2023-02-05T10:31:12Z</time>
      </trkpt>
      <trkpt lat="44.13371" lon="7.2429">
        <ele>1951.2</ele>
        <time>2023-02-05T10:31:13Z</time>
      </trkpt>
      <trkpt lat="44.13371" lon="7.2429">
        <ele>1951.1</ele>
        <time>2023-02-05T10:31:14Z</time>
      </trkpt>
      <trkpt lat="44.13371" lon="7.2429">
        <ele>1951.1</ele>
        <time>2023-02-05T10:31:15Z</time>
      </trkpt>
      <trkpt lat="44.13371" lon="7.2429">
        <ele>1951</ele>
        <time>2023-02-05T10:31:16Z</time>
      </trkpt>
      <trkpt lat="44.13371" lon="7.2429">
        <ele>1951</ele>
        <time>2023-02-05T10:31:17Z</time>
      </trkpt>
      <trkpt lat="44.13371" lon="7.2429">
        <ele>1951.1</ele>
        <time>2023-02-05T10:31:18Z</time>
      </trkpt>
      <trkpt lat="44.13371" lon="7.2429">
        <ele>1951.2</ele>
        <time>2023-02-05T10:31:19Z</time>
      </trkpt>
      <trkpt lat="44.13371" lon="7.2429">
        <ele>1951.2</ele>
        <time>2023-02-05T10:31:20Z</time>
      </trkpt>
      <trkpt lat="44.13371" lon="7.2429">
        <ele>1951.3</ele>
        <time>2023-02-05T10:31:21Z</time>
      </trkpt>
      <trkpt lat="44.13371" lon="7.2429">
        <ele>1951.3</ele>
        <time>2023-02-05T10:31:22Z</time>
      </trkpt>
      <trkpt lat="44.13371" lon="7.2429">
        <ele>1951.4</ele>
        <time>2023-02-05T10:31:23Z</time>
      </trkpt>
      <trkpt lat="44.13371" lon="7.2429">
        <ele>1951.3</ele>
        <time>2023-02-05T10:31:24Z</time>
      </trkpt>
      <trkpt lat="44.13371" lon="7.2429">
        <ele>1951.3</ele>
        <time>2023-02-05T10:31:25Z</time>
      </trkpt>
      <trkpt lat="44.13371" lon="7.2429">
        <ele>1951.2</ele>
        <time>2023-02-05T10:31:26Z</time>
      </trkpt>
      <trkpt lat="44.13371" lon="7.2429">
        <ele>1951.2</ele>
        <time>2023-02-05T10:31:27Z</time>
      </trkpt>
      <trkpt lat="44.13371" lon="7.2429">
        <ele>1951.1</ele>
        <time>2023-02-05T10:31:28Z</time>
      </trkpt>
      <trkpt lat="44.13371" lon="7.2429">
        <ele>1951</ele>
        <time>2023-02-05T10:31:29Z</time>
      </trkpt>
      <trkpt lat="44.13371" lon="7.24289">
        <ele>1951</ele>
        <time>2023-02-05T10:31:30Z</time>
      </trkpt>
      <trkpt lat="44.13371" lon="7.24289">
        <ele>1950.9</ele>
        <time>2023-02-05T10:31:31Z</time>
      </trkpt>
      <trkpt lat="44.13371" lon="7.24289">
        <ele>1950.9</ele>
        <time>2023-02-05T10:31:32Z</time>
      </trkpt>
      <trkpt lat="44.13371" lon="7.24289">
        <ele>1951</ele>
        <time>2023-02-05T10:31:33Z</time>
      </trkpt>
      <trkpt lat="44.13371" lon="7.24289">
        <ele>1951.1</ele>
        <time>2023-02-05T10:31:34Z</time>
      </trkpt>
      <trkpt lat="44.13371" lon="7.24289">
        <ele>1951.1</ele>
        <time>2023-02-05T10:31:35Z</time>
      </trkpt>
      <trkpt lat="44.13371" lon="7.24289">
        <ele>1951.1</ele>
        <time>2023-02-05T10:31:36Z</time>
      </trkpt>
      <trkpt lat="44.13371" lon="7.24289">
        <ele>1951.1</ele>
        <time>2023-02-05T10:31:37Z</time>
      </trkpt>
      <trkpt lat="44.13371" lon="7.24289">
        <ele>1951.1</ele>
        <time>2023-02-05T10:31:38Z</time>
      </trkpt>
      <trkpt lat="44.13371" lon="7.24289">
        <ele>1951.1</ele>
        <time>2023-02-05T10:31:39Z</time>
      </trkpt>
      <trkpt lat="44.13371" lon="7.24289">
        <ele>1951.1</ele>
        <time>2023-02-05T10:31:40Z</time>
      </trkpt>
      <trkpt lat="44.13371" lon="7.24289">
        <ele>1951.1</ele>
        <time>2023-02-05T10:31:41Z</time>
      </trkpt>
      <trkpt lat="44.13371" lon="7.24289">
        <ele>1951.2</ele>
        <time>2023-02-05T10:31:42Z</time>
      </trkpt>
      <trkpt lat="44.13371" lon="7.24289">
        <ele>1951.2</ele>
        <time>2023-02-05T10:31:43Z</time>
      </trkpt>
      <trkpt lat="44.13371" lon="7.24289">
        <ele>1951.2</ele>
        <time>2023-02-05T10:31:44Z</time>
      </trkpt>
      <trkpt lat="44.13371" lon="7.24289">
        <ele>1951.2</ele>
        <time>2023-02-05T10:31:45Z</time>
      </trkpt>
      <trkpt lat="44.13371" lon="7.24289">
        <ele>1951.1</ele>
        <time>2023-02-05T10:31:46Z</time>
      </trkpt>
      <trkpt lat="44.13371" lon="7.24289">
        <ele>1951.1</ele>
        <time>2023-02-05T10:31:47Z</time>
      </trkpt>
      <trkpt lat="44.13371" lon="7.24289">
        <ele>1951</ele>
        <time>2023-02-05T10:31:48Z</time>
      </trkpt>
      <trkpt lat="44.13371" lon="7.24289">
        <ele>1951</ele>
        <time>2023-02-05T10:31:49Z</time>
      </trkpt>
      <trkpt lat="44.13371" lon="7.24289">
        <ele>1951</ele>
        <time>2023-02-05T10:31:50Z</time>
      </trkpt>
      <trkpt lat="44.13371" lon="7.24289">
        <ele>1951</ele>
        <time>2023-02-05T10:31:51Z</time>
      </trkpt>
      <trkpt lat="44.13371" lon="7.24288">
        <ele>1951</ele>
        <time>2023-02-05T10:31:52Z</time>
      </trkpt>
      <trkpt lat="44.13371" lon="7.24288">
        <ele>1951.1</ele>
        <time>2023-02-05T10:31:53Z</time>
      </trkpt>
      <trkpt lat="44.13371" lon="7.24288">
        <ele>1951.1</ele>
        <time>2023-02-05T10:31:54Z</time>
      </trkpt>
      <trkpt lat="44.13371" lon="7.24288">
        <ele>1951.1</ele>
        <time>2023-02-05T10:31:55Z</time>
      </trkpt>
      <trkpt lat="44.13371" lon="7.24288">
        <ele>1951</ele>
        <time>2023-02-05T10:31:56Z</time>
      </trkpt>
      <trkpt lat="44.13371" lon="7.24288">
        <ele>1951.1</ele>
        <time>2023-02-05T10:31:57Z</time>
      </trkpt>
      <trkpt lat="44.13371" lon="7.24288">
        <ele>1951.2</ele>
        <time>2023-02-05T10:31:58Z</time>
      </trkpt>
      <trkpt lat="44.13371" lon="7.24288">
        <ele>1951.2</ele>
        <time>2023-02-05T10:31:59Z</time>
      </trkpt>
      <trkpt lat="44.13371" lon="7.24288">
        <ele>1951.2</ele>
        <time>2023-02-05T10:32:00Z</time>
      </trkpt>
      <trkpt lat="44.13371" lon="7.24288">
        <ele>1951.3</ele>
        <time>2023-02-05T10:32:01Z</time>
      </trkpt>
      <trkpt lat="44.13371" lon="7.24288">
        <ele>1951.3</ele>
        <time>2023-02-05T10:32:02Z</time>
      </trkpt>
      <trkpt lat="44.13371" lon="7.24289">
        <ele>1951.3</ele>
        <time>2023-02-05T10:32:03Z</time>
      </trkpt>
      <trkpt lat="44.13371" lon="7.24289">
        <ele>1951.3</ele>
        <time>2023-02-05T10:32:04Z</time>
      </trkpt>
      <trkpt lat="44.13372" lon="7.24289">
        <ele>1951.2</ele>
        <time>2023-02-05T10:32:05Z</time>
      </trkpt>
      <trkpt lat="44.13372" lon="7.24289">
        <ele>1951.2</ele>
        <time>2023-02-05T10:32:06Z</time>
      </trkpt>
      <trkpt lat="44.13372" lon="7.24289">
        <ele>1951.1</ele>
        <time>2023-02-05T10:32:07Z</time>
      </trkpt>
      <trkpt lat="44.13372" lon="7.24289">
        <ele>1951.1</ele>
        <time>2023-02-05T10:32:08Z</time>
      </trkpt>
      <trkpt lat="44.13371" lon="7.24289">
        <ele>1951.1</ele>
        <time>2023-02-05T10:32:09Z</time>
      </trkpt>
      <trkpt lat="44.13371" lon="7.24289">
        <ele>1951</ele>
        <time>2023-02-05T10:32:10Z</time>
      </trkpt>
      <trkpt lat="44.13371" lon="7.24289">
        <ele>1951.1</ele>
        <time>2023-02-05T10:32:11Z</time>
      </trkpt>
      <trkpt lat="44.13371" lon="7.24289">
        <ele>1951.1</ele>
        <time>2023-02-05T10:32:12Z</time>
      </trkpt>
      <trkpt lat="44.13372" lon="7.2429">
        <ele>1951.1</ele>
        <time>2023-02-05T10:32:13Z</time>
      </trkpt>
      <trkpt lat="44.13372" lon="7.2429">
        <ele>1951.2</ele>
        <time>2023-02-05T10:32:14Z</time>
      </trkpt>
      <trkpt lat="44.13372" lon="7.2429">
        <ele>1951.2</ele>
        <time>2023-02-05T10:32:15Z</time>
      </trkpt>
      <trkpt lat="44.13372" lon="7.2429">
        <ele>1951.3</ele>
        <time>2023-02-05T10:32:16Z</time>
      </trkpt>
      <trkpt lat="44.13372" lon="7.2429">
        <ele>1951.3</ele>
        <time>2023-02-05T10:32:17Z</time>
      </trkpt>
      <trkpt lat="44.13372" lon="7.24289">
        <ele>1951.2</ele>
        <time>2023-02-05T10:32:18Z</time>
      </trkpt>
      <trkpt lat="44.13372" lon="7.24289">
        <ele>1951.2</ele>
        <time>2023-02-05T10:32:19Z</time>
      </trkpt>
      <trkpt lat="44.13372" lon="7.24289">
        <ele>1951.1</ele>
        <time>2023-02-05T10:32:20Z</time>
      </trkpt>
      <trkpt lat="44.13372" lon="7.24289">
        <ele>1951.1</ele>
        <time>2023-02-05T10:32:21Z</time>
      </trkpt>
      <trkpt lat="44.13372" lon="7.24289">
        <ele>1951.1</ele>
        <time>2023-02-05T10:32:22Z</time>
      </trkpt>
      <trkpt lat="44.13372" lon="7.24289">
        <ele>1951.2</ele>
        <time>2023-02-05T10:32:23Z</time>
      </trkpt>
      <trkpt lat="44.13372" lon="7.24289">
        <ele>1951.3</ele>
        <time>2023-02-05T10:32:24Z</time>
      </trkpt>
      <trkpt lat="44.13372" lon="7.24289">
        <ele>1951.2</ele>
        <time>2023-02-05T10:32:25Z</time>
      </trkpt>
      <trkpt lat="44.13372" lon="7.24289">
        <ele>1951.2</ele>
        <time>2023-02-05T10:32:26Z</time>
      </trkpt>
      <trkpt lat="44.13372" lon="7.24289">
        <ele>1951.1</ele>
        <time>2023-02-05T10:32:27Z</time>
      </trkpt>
      <trkpt lat="44.13372" lon="7.24289">
        <ele>1951.1</ele>
        <time>2023-02-05T10:32:28Z</time>
      </trkpt>
      <trkpt lat="44.13372" lon="7.24289">
        <ele>1951.2</ele>
        <time>2023-02-05T10:32:29Z</time>
      </trkpt>
      <trkpt lat="44.13372" lon="7.24289">
        <ele>1951.2</ele>
        <time>2023-02-05T10:32:30Z</time>
      </trkpt>
      <trkpt lat="44.13372" lon="7.24289">
        <ele>1951.1</ele>
        <time>2023-02-05T10:32:31Z</time>
      </trkpt>
      <trkpt lat="44.13372" lon="7.24289">
        <ele>1951.2</ele>
        <time>2023-02-05T10:32:32Z</time>
      </trkpt>
      <trkpt lat="44.13372" lon="7.24289">
        <ele>1951.2</ele>
        <time>2023-02-05T10:32:33Z</time>
      </trkpt>
      <trkpt lat="44.13372" lon="7.24289">
        <ele>1951.3</ele>
        <time>2023-02-05T10:32:34Z</time>
      </trkpt>
      <trkpt lat="44.13371" lon="7.24289">
        <ele>1951.2</ele>
        <time>2023-02-05T10:32:35Z</time>
      </trkpt>
      <trkpt lat="44.13371" lon="7.24289">
        <ele>1951.1</ele>
        <time>2023-02-05T10:32:36Z</time>
      </trkpt>
      <trkpt lat="44.13372" lon="7.24289">
        <ele>1951.1</ele>
        <time>2023-02-05T10:32:37Z</time>
      </trkpt>
      <trkpt lat="44.13372" lon="7.24289">
        <ele>1951.1</ele>
        <time>2023-02-05T10:32:38Z</time>
      </trkpt>
      <trkpt lat="44.13372" lon="7.24289">
        <ele>1951.1</ele>
        <time>2023-02-05T10:32:39Z</time>
      </trkpt>
      <trkpt lat="44.13372" lon="7.24289">
        <ele>1951.1</ele>
        <time>2023-02-05T10:32:40Z</time>
      </trkpt>
      <trkpt lat="44.13372" lon="7.24289">
        <ele>1951.1</ele>
        <time>2023-02-05T10:32:41Z</time>
      </trkpt>
      <trkpt lat="44.13372" lon="7.24289">
        <ele>1951.1</ele>
        <time>2023-02-05T10:32:42Z</time>
      </trkpt>
      <trkpt lat="44.13372" lon="7.24289">
        <ele>1951.3</ele>
        <time>2023-02-05T10:32:43Z</time>
      </trkpt>
      <trkpt lat="44.13372" lon="7.24289">
        <ele>1951.4</ele>
        <time>2023-02-05T10:32:44Z</time>
      </trkpt>
      <trkpt lat="44.13372" lon="7.2429">
        <ele>1951.4</ele>
        <time>2023-02-05T10:32:45Z</time>
      </trkpt>
      <trkpt lat="44.13372" lon="7.2429">
        <ele>1951.4</ele>
        <time>2023-02-05T10:32:46Z</time>
      </trkpt>
      <trkpt lat="44.13372" lon="7.2429">
        <ele>1951.3</ele>
        <time>2023-02-05T10:32:47Z</time>
      </trkpt>
      <trkpt lat="44.13372" lon="7.2429">
        <ele>1951.4</ele>
        <time>2023-02-05T10:32:48Z</time>
      </trkpt>
      <trkpt lat="44.13372" lon="7.2429">
        <ele>1951.4</ele>
        <time>2023-02-05T10:32:49Z</time>
      </trkpt>
      <trkpt lat="44.13372" lon="7.2429">
        <ele>1951.4</ele>
        <time>2023-02-05T10:32:50Z</time>
      </trkpt>
      <trkpt lat="44.13372" lon="7.24291">
        <ele>1951.4</ele>
        <time>2023-02-05T10:32:51Z</time>
      </trkpt>
      <trkpt lat="44.13373" lon="7.24291">
        <ele>1951.4</ele>
        <time>2023-02-05T10:32:52Z</time>
      </trkpt>
      <trkpt lat="44.13373" lon="7.24291">
        <ele>1951.5</ele>
        <time>2023-02-05T10:32:53Z</time>
      </trkpt>
      <trkpt lat="44.13373" lon="7.24291">
        <ele>1951.5</ele>
        <time>2023-02-05T10:32:54Z</time>
      </trkpt>
      <trkpt lat="44.13373" lon="7.2429">
        <ele>1951.5</ele>
        <time>2023-02-05T10:32:55Z</time>
      </trkpt>
      <trkpt lat="44.13373" lon="7.2429">
        <ele>1951.5</ele>
        <time>2023-02-05T10:32:56Z</time>
      </trkpt>
      <trkpt lat="44.13372" lon="7.2429">
        <ele>1951.5</ele>
        <time>2023-02-05T10:32:57Z</time>
      </trkpt>
      <trkpt lat="44.13372" lon="7.2429">
        <ele>1951.5</ele>
        <time>2023-02-05T10:32:58Z</time>
      </trkpt>
      <trkpt lat="44.13372" lon="7.2429">
        <ele>1951.4</ele>
        <time>2023-02-05T10:32:59Z</time>
      </trkpt>
      <trkpt lat="44.13372" lon="7.2429">
        <ele>1951.4</ele>
        <time>2023-02-05T10:33:00Z</time>
      </trkpt>
      <trkpt lat="44.13372" lon="7.2429">
        <ele>1951.3</ele>
        <time>2023-02-05T10:33:01Z</time>
      </trkpt>
      <trkpt lat="44.13372" lon="7.2429">
        <ele>1951.4</ele>
        <time>2023-02-05T10:33:02Z</time>
      </trkpt>
      <trkpt lat="44.13372" lon="7.2429">
        <ele>1951.4</ele>
        <time>2023-02-05T10:33:03Z</time>
      </trkpt>
      <trkpt lat="44.13372" lon="7.2429">
        <ele>1951.4</ele>
        <time>2023-02-05T10:33:04Z</time>
      </trkpt>
      <trkpt lat="44.13372" lon="7.2429">
        <ele>1951.4</ele>
        <time>2023-02-05T10:33:05Z</time>
      </trkpt>
      <trkpt lat="44.13372" lon="7.2429">
        <ele>1951.5</ele>
        <time>2023-02-05T10:33:06Z</time>
      </trkpt>
      <trkpt lat="44.13372" lon="7.2429">
        <ele>1951.5</ele>
        <time>2023-02-05T10:33:07Z</time>
      </trkpt>
      <trkpt lat="44.13372" lon="7.2429">
        <ele>1951.6</ele>
        <time>2023-02-05T10:33:08Z</time>
      </trkpt>
      <trkpt lat="44.13372" lon="7.24291">
        <ele>1951.6</ele>
        <time>2023-02-05T10:33:09Z</time>
      </trkpt>
      <trkpt lat="44.13372" lon="7.24291">
        <ele>1951.6</ele>
        <time>2023-02-05T10:33:10Z</time>
      </trkpt>
      <trkpt lat="44.13373" lon="7.24291">
        <ele>1951.6</ele>
        <time>2023-02-05T10:33:11Z</time>
      </trkpt>
      <trkpt lat="44.13373" lon="7.2429">
        <ele>1951.7</ele>
        <time>2023-02-05T10:33:12Z</time>
      </trkpt>
      <trkpt lat="44.13373" lon="7.2429">
        <ele>1951.6</ele>
        <time>2023-02-05T10:33:13Z</time>
      </trkpt>
      <trkpt lat="44.13373" lon="7.2429">
        <ele>1951.6</ele>
        <time>2023-02-05T10:33:14Z</time>
      </trkpt>
      <trkpt lat="44.13373" lon="7.24291">
        <ele>1951.6</ele>
        <time>2023-02-05T10:33:15Z</time>
      </trkpt>
      <trkpt lat="44.13373" lon="7.24291">
        <ele>1951.7</ele>
        <time>2023-02-05T10:33:16Z</time>
      </trkpt>
      <trkpt lat="44.13373" lon="7.24291">
        <ele>1951.7</ele>
        <time>2023-02-05T10:33:17Z</time>
      </trkpt>
      <trkpt lat="44.13373" lon="7.24291">
        <ele>1951.8</ele>
        <time>2023-02-05T10:33:18Z</time>
      </trkpt>
      <trkpt lat="44.13373" lon="7.24291">
        <ele>1951.7</ele>
        <time>2023-02-05T10:33:19Z</time>
      </trkpt>
      <trkpt lat="44.13374" lon="7.24291">
        <ele>1951.7</ele>
        <time>2023-02-05T10:33:20Z</time>
      </trkpt>
      <trkpt lat="44.13374" lon="7.24291">
        <ele>1951.7</ele>
        <time>2023-02-05T10:33:21Z</time>
      </trkpt>
      <trkpt lat="44.13374" lon="7.24291">
        <ele>1951.7</ele>
        <time>2023-02-05T10:33:22Z</time>
      </trkpt>
      <trkpt lat="44.13374" lon="7.24291">
        <ele>1951.7</ele>
        <time>2023-02-05T10:33:23Z</time>
      </trkpt>
      <trkpt lat="44.13374" lon="7.24291">
        <ele>1951.7</ele>
        <time>2023-02-05T10:33:24Z</time>
      </trkpt>
      <trkpt lat="44.13374" lon="7.24291">
        <ele>1951.7</ele>
        <time>2023-02-05T10:33:25Z</time>
      </trkpt>
      <trkpt lat="44.13374" lon="7.24291">
        <ele>1951.7</ele>
        <time>2023-02-05T10:33:26Z</time>
      </trkpt>
      <trkpt lat="44.13374" lon="7.24291">
        <ele>1951.7</ele>
        <time>2023-02-05T10:33:27Z</time>
      </trkpt>
      <trkpt lat="44.13374" lon="7.2429">
        <ele>1951.7</ele>
        <time>2023-02-05T10:33:28Z</time>
      </trkpt>
      <trkpt lat="44.13374" lon="7.2429">
        <ele>1951.7</ele>
        <time>2023-02-05T10:33:29Z</time>
      </trkpt>
      <trkpt lat="44.13374" lon="7.2429">
        <ele>1951.7</ele>
        <time>2023-02-05T10:33:30Z</time>
      </trkpt>
      <trkpt lat="44.13374" lon="7.2429">
        <ele>1951.8</ele>
        <time>2023-02-05T10:33:31Z</time>
      </trkpt>
      <trkpt lat="44.13374" lon="7.2429">
        <ele>1951.7</ele>
        <time>2023-02-05T10:33:32Z</time>
      </trkpt>
      <trkpt lat="44.13374" lon="7.2429">
        <ele>1951.6</ele>
        <time>2023-02-05T10:33:33Z</time>
      </trkpt>
      <trkpt lat="44.13374" lon="7.2429">
        <ele>1951.6</ele>
        <time>2023-02-05T10:33:34Z</time>
      </trkpt>
      <trkpt lat="44.13374" lon="7.2429">
        <ele>1951.7</ele>
        <time>2023-02-05T10:33:35Z</time>
      </trkpt>
      <trkpt lat="44.13374" lon="7.2429">
        <ele>1951.7</ele>
        <time>2023-02-05T10:33:36Z</time>
      </trkpt>
      <trkpt lat="44.13374" lon="7.2429">
        <ele>1951.5</ele>
        <time>2023-02-05T10:33:37Z</time>
      </trkpt>
      <trkpt lat="44.13374" lon="7.24291">
        <ele>1951.5</ele>
        <time>2023-02-05T10:33:38Z</time>
      </trkpt>
      <trkpt lat="44.13375" lon="7.24291">
        <ele>1951.4</ele>
        <time>2023-02-05T10:33:39Z</time>
      </trkpt>
      <trkpt lat="44.13374" lon="7.24291">
        <ele>1951.4</ele>
        <time>2023-02-05T10:33:40Z</time>
      </trkpt>
      <trkpt lat="44.13374" lon="7.24291">
        <ele>1951.3</ele>
        <time>2023-02-05T10:33:41Z</time>
      </trkpt>
      <trkpt lat="44.13374" lon="7.24291">
        <ele>1951.3</ele>
        <time>2023-02-05T10:33:42Z</time>
      </trkpt>
      <trkpt lat="44.13374" lon="7.24291">
        <ele>1951.3</ele>
        <time>2023-02-05T10:33:43Z</time>
      </trkpt>
      <trkpt lat="44.13374" lon="7.24291">
        <ele>1951.3</ele>
        <time>2023-02-05T10:33:44Z</time>
      </trkpt>
      <trkpt lat="44.13374" lon="7.24291">
        <ele>1951.4</ele>
        <time>2023-02-05T10:33:45Z</time>
      </trkpt>
      <trkpt lat="44.13374" lon="7.24291">
        <ele>1951.4</ele>
        <time>2023-02-05T10:33:46Z</time>
      </trkpt>
      <trkpt lat="44.13375" lon="7.24292">
        <ele>1951.4</ele>
        <time>2023-02-05T10:33:47Z</time>
      </trkpt>
      <trkpt lat="44.13375" lon="7.24292">
        <ele>1951.4</ele>
        <time>2023-02-05T10:33:48Z</time>
      </trkpt>
      <trkpt lat="44.13375" lon="7.24292">
        <ele>1951.4</ele>
        <time>2023-02-05T10:33:49Z</time>
      </trkpt>
      <trkpt lat="44.13375" lon="7.24292">
        <ele>1951.4</ele>
        <time>2023-02-05T10:33:50Z</time>
      </trkpt>
      <trkpt lat="44.13375" lon="7.24292">
        <ele>1951.4</ele>
        <time>2023-02-05T10:33:51Z</time>
      </trkpt>
      <trkpt lat="44.13375" lon="7.24292">
        <ele>1951.4</ele>
        <time>2023-02-05T10:33:52Z</time>
      </trkpt>
      <trkpt lat="44.13375" lon="7.24292">
        <ele>1951.5</ele>
        <time>2023-02-05T10:33:53Z</time>
      </trkpt>
      <trkpt lat="44.13375" lon="7.24292">
        <ele>1951.5</ele>
        <time>2023-02-05T10:33:54Z</time>
      </trkpt>
      <trkpt lat="44.13375" lon="7.24292">
        <ele>1951.5</ele>
        <time>2023-02-05T10:33:55Z</time>
      </trkpt>
      <trkpt lat="44.13375" lon="7.24292">
        <ele>1951.5</ele>
        <time>2023-02-05T10:33:56Z</time>
      </trkpt>
      <trkpt lat="44.13375" lon="7.24292">
        <ele>1951.5</ele>
        <time>2023-02-05T10:33:57Z</time>
      </trkpt>
      <trkpt lat="44.13375" lon="7.24293">
        <ele>1951.4</ele>
        <time>2023-02-05T10:33:58Z</time>
      </trkpt>
      <trkpt lat="44.13375" lon="7.24293">
        <ele>1951.4</ele>
        <time>2023-02-05T10:33:59Z</time>
      </trkpt>
      <trkpt lat="44.13375" lon="7.24293">
        <ele>1951.3</ele>
        <time>2023-02-05T10:34:00Z</time>
      </trkpt>
      <trkpt lat="44.13375" lon="7.24293">
        <ele>1951.4</ele>
        <time>2023-02-05T10:34:01Z</time>
      </trkpt>
      <trkpt lat="44.13375" lon="7.24293">
        <ele>1951.4</ele>
        <time>2023-02-05T10:34:02Z</time>
      </trkpt>
      <trkpt lat="44.13375" lon="7.24293">
        <ele>1951.4</ele>
        <time>2023-02-05T10:34:03Z</time>
      </trkpt>
      <trkpt lat="44.13375" lon="7.24293">
        <ele>1951.4</ele>
        <time>2023-02-05T10:34:04Z</time>
      </trkpt>
      <trkpt lat="44.13375" lon="7.24293">
        <ele>1951.4</ele>
        <time>2023-02-05T10:34:05Z</time>
      </trkpt>
      <trkpt lat="44.13375" lon="7.24293">
        <ele>1951.4</ele>
        <time>2023-02-05T10:34:06Z</time>
      </trkpt>
      <trkpt lat="44.13375" lon="7.24293">
        <ele>1951.4</ele>
        <time>2023-02-05T10:34:07Z</time>
      </trkpt>
      <trkpt lat="44.13375" lon="7.24293">
        <ele>1951.4</ele>
        <time>2023-02-05T10:34:08Z</time>
      </trkpt>
      <trkpt lat="44.13374" lon="7.24293">
        <ele>1951.4</ele>
        <time>2023-02-05T10:34:09Z</time>
      </trkpt>
      <trkpt lat="44.13374" lon="7.24293">
        <ele>1951.4</ele>
        <time>2023-02-05T10:34:10Z</time>
      </trkpt>
      <trkpt lat="44.13374" lon="7.24293">
        <ele>1951.4</ele>
        <time>2023-02-05T10:34:11Z</time>
      </trkpt>
      <trkpt lat="44.13374" lon="7.24293">
        <ele>1951.4</ele>
        <time>2023-02-05T10:34:12Z</time>
      </trkpt>
      <trkpt lat="44.13374" lon="7.24293">
        <ele>1951.4</ele>
        <time>2023-02-05T10:34:13Z</time>
      </trkpt>
      <trkpt lat="44.13374" lon="7.24293">
        <ele>1951.4</ele>
        <time>2023-02-05T10:34:14Z</time>
      </trkpt>
      <trkpt lat="44.13374" lon="7.24293">
        <ele>1951.4</ele>
        <time>2023-02-05T10:34:15Z</time>
      </trkpt>
      <trkpt lat="44.13374" lon="7.24293">
        <ele>1951.4</ele>
        <time>2023-02-05T10:34:16Z</time>
      </trkpt>
      <trkpt lat="44.13374" lon="7.24293">
        <ele>1951.4</ele>
        <time>2023-02-05T10:34:17Z</time>
      </trkpt>
      <trkpt lat="44.13374" lon="7.24293">
        <ele>1951.4</ele>
        <time>2023-02-05T10:34:18Z</time>
      </trkpt>
      <trkpt lat="44.13374" lon="7.24293">
        <ele>1951.5</ele>
        <time>2023-02-05T10:34:19Z</time>
      </trkpt>
      <trkpt lat="44.13374" lon="7.24293">
        <ele>1951.5</ele>
        <time>2023-02-05T10:34:20Z</time>
      </trkpt>
      <trkpt lat="44.13375" lon="7.24293">
        <ele>1951.5</ele>
        <time>2023-02-05T10:34:21Z</time>
      </trkpt>
      <trkpt lat="44.13375" lon="7.24293">
        <ele>1951.5</ele>
        <time>2023-02-05T10:34:22Z</time>
      </trkpt>
      <trkpt lat="44.13375" lon="7.24293">
        <ele>1951.5</ele>
        <time>2023-02-05T10:34:23Z</time>
      </trkpt>
      <trkpt lat="44.13375" lon="7.24292">
        <ele>1951.4</ele>
        <time>2023-02-05T10:34:24Z</time>
      </trkpt>
      <trkpt lat="44.13375" lon="7.24292">
        <ele>1951.4</ele>
        <time>2023-02-05T10:34:25Z</time>
      </trkpt>
      <trkpt lat="44.13375" lon="7.24292">
        <ele>1951.4</ele>
        <time>2023-02-05T10:34:26Z</time>
      </trkpt>
      <trkpt lat="44.13375" lon="7.24292">
        <ele>1951.3</ele>
        <time>2023-02-05T10:34:27Z</time>
      </trkpt>
      <trkpt lat="44.13375" lon="7.24292">
        <ele>1951.3</ele>
        <time>2023-02-05T10:34:28Z</time>
      </trkpt>
      <trkpt lat="44.13375" lon="7.24291">
        <ele>1951.3</ele>
        <time>2023-02-05T10:34:29Z</time>
      </trkpt>
      <trkpt lat="44.13375" lon="7.24291">
        <ele>1951.3</ele>
        <time>2023-02-05T10:34:30Z</time>
      </trkpt>
      <trkpt lat="44.13376" lon="7.24291">
        <ele>1951.3</ele>
        <time>2023-02-05T10:34:31Z</time>
      </trkpt>
      <trkpt lat="44.13377" lon="7.24291">
        <ele>1951.3</ele>
        <time>2023-02-05T10:34:32Z</time>
      </trkpt>
      <trkpt lat="44.13377" lon="7.2429">
        <ele>1951.4</ele>
        <time>2023-02-05T10:34:33Z</time>
      </trkpt>
      <trkpt lat="44.13377" lon="7.24289">
        <ele>1951.4</ele>
        <time>2023-02-05T10:34:34Z</time>
      </trkpt>
      <trkpt lat="44.13378" lon="7.24289">
        <ele>1951.5</ele>
        <time>2023-02-05T10:34:35Z</time>
      </trkpt>
      <trkpt lat="44.13378" lon="7.24288">
        <ele>1951.5</ele>
        <time>2023-02-05T10:34:36Z</time>
      </trkpt>
      <trkpt lat="44.13379" lon="7.24288">
        <ele>1951.6</ele>
        <time>2023-02-05T10:34:37Z</time>
      </trkpt>
      <trkpt lat="44.13379" lon="7.24287">
        <ele>1951.7</ele>
        <time>2023-02-05T10:34:38Z</time>
      </trkpt>
      <trkpt lat="44.1338" lon="7.24286">
        <ele>1951.8</ele>
        <time>2023-02-05T10:34:39Z</time>
      </trkpt>
      <trkpt lat="44.1338" lon="7.24286">
        <ele>1951.9</ele>
        <time>2023-02-05T10:34:40Z</time>
      </trkpt>
      <trkpt lat="44.13381" lon="7.24285">
        <ele>1952.1</ele>
        <time>2023-02-05T10:34:41Z</time>
      </trkpt>
      <trkpt lat="44.13382" lon="7.24284">
        <ele>1952.2</ele>
        <time>2023-02-05T10:34:42Z</time>
      </trkpt>
      <trkpt lat="44.13382" lon="7.24283">
        <ele>1952.3</ele>
        <time>2023-02-05T10:34:43Z</time>
      </trkpt>
      <trkpt lat="44.13383" lon="7.24282">
        <ele>1952.3</ele>
        <time>2023-02-05T10:34:44Z</time>
      </trkpt>
      <trkpt lat="44.13383" lon="7.24281">
        <ele>1952.4</ele>
        <time>2023-02-05T10:34:45Z</time>
      </trkpt>
      <trkpt lat="44.13384" lon="7.2428">
        <ele>1952.5</ele>
        <time>2023-02-05T10:34:46Z</time>
      </trkpt>
      <trkpt lat="44.13384" lon="7.24279">
        <ele>1952.5</ele>
        <time>2023-02-05T10:34:47Z</time>
      </trkpt>
      <trkpt lat="44.13385" lon="7.24278">
        <ele>1952.6</ele>
        <time>2023-02-05T10:34:48Z</time>
      </trkpt>
      <trkpt lat="44.13385" lon="7.24277">
        <ele>1952.6</ele>
        <time>2023-02-05T10:34:49Z</time>
      </trkpt>
      <trkpt lat="44.13386" lon="7.24277">
        <ele>1952.7</ele>
        <time>2023-02-05T10:34:50Z</time>
      </trkpt>
      <trkpt lat="44.13387" lon="7.24276">
        <ele>1952.7</ele>
        <time>2023-02-05T10:34:51Z</time>
      </trkpt>
      <trkpt lat="44.13387" lon="7.24276">
        <ele>1952.8</ele>
        <time>2023-02-05T10:34:52Z</time>
      </trkpt>
      <trkpt lat="44.13388" lon="7.24275">
        <ele>1952.9</ele>
        <time>2023-02-05T10:34:53Z</time>
      </trkpt>
      <trkpt lat="44.13388" lon="7.24274">
        <ele>1952.9</ele>
        <time>2023-02-05T10:34:54Z</time>
      </trkpt>
      <trkpt lat="44.13389" lon="7.24274">
        <ele>1952.8</ele>
        <time>2023-02-05T10:34:55Z</time>
      </trkpt>
      <trkpt lat="44.1339" lon="7.24273">
        <ele>1952.9</ele>
        <time>2023-02-05T10:34:56Z</time>
      </trkpt>
      <trkpt lat="44.1339" lon="7.24272">
        <ele>1952.9</ele>
        <time>2023-02-05T10:34:57Z</time>
      </trkpt>
      <trkpt lat="44.13391" lon="7.24272">
        <ele>1953</ele>
        <time>2023-02-05T10:34:58Z</time>
      </trkpt>
      <trkpt lat="44.13392" lon="7.24271">
        <ele>1953.1</ele>
        <time>2023-02-05T10:34:59Z</time>
      </trkpt>
      <trkpt lat="44.13392" lon="7.2427">
        <ele>1953.1</ele>
        <time>2023-02-05T10:35:00Z</time>
      </trkpt>
      <trkpt lat="44.13392" lon="7.24271">
        <ele>1953.2</ele>
        <time>2023-02-05T10:35:01Z</time>
      </trkpt>
      <trkpt lat="44.13392" lon="7.24271">
        <ele>1953.2</ele>
        <time>2023-02-05T10:35:02Z</time>
      </trkpt>
      <trkpt lat="44.13393" lon="7.2427">
        <ele>1953.2</ele>
        <time>2023-02-05T10:35:03Z</time>
      </trkpt>
      <trkpt lat="44.13394" lon="7.2427">
        <ele>1953.3</ele>
        <time>2023-02-05T10:35:04Z</time>
      </trkpt>
      <trkpt lat="44.13394" lon="7.24269">
        <ele>1953.3</ele>
        <time>2023-02-05T10:35:05Z</time>
      </trkpt>
      <trkpt lat="44.13395" lon="7.24269">
        <ele>1953.3</ele>
        <time>2023-02-05T10:35:06Z</time>
      </trkpt>
      <trkpt lat="44.13396" lon="7.24268">
        <ele>1953.4</ele>
        <time>2023-02-05T10:35:07Z</time>
      </trkpt>
      <trkpt lat="44.13396" lon="7.24268">
        <ele>1953.3</ele>
        <time>2023-02-05T10:35:08Z</time>
      </trkpt>
      <trkpt lat="44.13397" lon="7.24267">
        <ele>1953.4</ele>
        <time>2023-02-05T10:35:09Z</time>
      </trkpt>
      <trkpt lat="44.13397" lon="7.24267">
        <ele>1953.6</ele>
        <time>2023-02-05T10:35:10Z</time>
      </trkpt>
      <trkpt lat="44.13397" lon="7.24266">
        <ele>1953.7</ele>
        <time>2023-02-05T10:35:11Z</time>
      </trkpt>
      <trkpt lat="44.13398" lon="7.24266">
        <ele>1953.7</ele>
        <time>2023-02-05T10:35:12Z</time>
      </trkpt>
      <trkpt lat="44.13399" lon="7.24266">
        <ele>1953.7</ele>
        <time>2023-02-05T10:35:13Z</time>
      </trkpt>
      <trkpt lat="44.13399" lon="7.24265">
        <ele>1953.6</ele>
        <time>2023-02-05T10:35:14Z</time>
      </trkpt>
      <trkpt lat="44.134" lon="7.24265">
        <ele>1953.6</ele>
        <time>2023-02-05T10:35:15Z</time>
      </trkpt>
      <trkpt lat="44.134" lon="7.24264">
        <ele>1953.6</ele>
        <time>2023-02-05T10:35:16Z</time>
      </trkpt>
      <trkpt lat="44.13401" lon="7.24263">
        <ele>1953.5</ele>
        <time>2023-02-05T10:35:17Z</time>
      </trkpt>
      <trkpt lat="44.13401" lon="7.24263">
        <ele>1953.7</ele>
        <time>2023-02-05T10:35:18Z</time>
      </trkpt>
      <trkpt lat="44.13402" lon="7.24262">
        <ele>1953.8</ele>
        <time>2023-02-05T10:35:19Z</time>
      </trkpt>
      <trkpt lat="44.13403" lon="7.24261">
        <ele>1953.9</ele>
        <time>2023-02-05T10:35:20Z</time>
      </trkpt>
      <trkpt lat="44.13403" lon="7.2426">
        <ele>1954</ele>
        <time>2023-02-05T10:35:21Z</time>
      </trkpt>
      <trkpt lat="44.13404" lon="7.2426">
        <ele>1954.1</ele>
        <time>2023-02-05T10:35:22Z</time>
      </trkpt>
      <trkpt lat="44.13404" lon="7.24258">
        <ele>1954.2</ele>
        <time>2023-02-05T10:35:23Z</time>
      </trkpt>
      <trkpt lat="44.13405" lon="7.24257">
        <ele>1954.3</ele>
        <time>2023-02-05T10:35:24Z</time>
      </trkpt>
      <trkpt lat="44.13406" lon="7.24257">
        <ele>1954.4</ele>
        <time>2023-02-05T10:35:25Z</time>
      </trkpt>
      <trkpt lat="44.13406" lon="7.24256">
        <ele>1954.5</ele>
        <time>2023-02-05T10:35:26Z</time>
      </trkpt>
      <trkpt lat="44.13407" lon="7.24255">
        <ele>1954.6</ele>
        <time>2023-02-05T10:35:27Z</time>
      </trkpt>
      <trkpt lat="44.13408" lon="7.24255">
        <ele>1954.6</ele>
        <time>2023-02-05T10:35:28Z</time>
      </trkpt>
      <trkpt lat="44.13409" lon="7.24254">
        <ele>1954.7</ele>
        <time>2023-02-05T10:35:29Z</time>
      </trkpt>
      <trkpt lat="44.1341" lon="7.24253">
        <ele>1954.8</ele>
        <time>2023-02-05T10:35:30Z</time>
      </trkpt>
      <trkpt lat="44.1341" lon="7.24252">
        <ele>1954.8</ele>
        <time>2023-02-05T10:35:31Z</time>
      </trkpt>
      <trkpt lat="44.13411" lon="7.24251">
        <ele>1954.9</ele>
        <time>2023-02-05T10:35:32Z</time>
      </trkpt>
      <trkpt lat="44.13412" lon="7.24251">
        <ele>1955</ele>
        <time>2023-02-05T10:35:33Z</time>
      </trkpt>
      <trkpt lat="44.13412" lon="7.2425">
        <ele>1955.2</ele>
        <time>2023-02-05T10:35:34Z</time>
      </trkpt>
      <trkpt lat="44.13413" lon="7.2425">
        <ele>1955.3</ele>
        <time>2023-02-05T10:35:35Z</time>
      </trkpt>
      <trkpt lat="44.13413" lon="7.24249">
        <ele>1955.5</ele>
        <time>2023-02-05T10:35:36Z</time>
      </trkpt>
      <trkpt lat="44.13414" lon="7.24248">
        <ele>1955.5</ele>
        <time>2023-02-05T10:35:37Z</time>
      </trkpt>
      <trkpt lat="44.13415" lon="7.24248">
        <ele>1955.6</ele>
        <time>2023-02-05T10:35:38Z</time>
      </trkpt>
      <trkpt lat="44.13416" lon="7.24247">
        <ele>1955.6</ele>
        <time>2023-02-05T10:35:39Z</time>
      </trkpt>
      <trkpt lat="44.13416" lon="7.24247">
        <ele>1955.7</ele>
        <time>2023-02-05T10:35:40Z</time>
      </trkpt>
      <trkpt lat="44.13417" lon="7.24247">
        <ele>1955.7</ele>
        <time>2023-02-05T10:35:41Z</time>
      </trkpt>
      <trkpt lat="44.13418" lon="7.24247">
        <ele>1955.8</ele>
        <time>2023-02-05T10:35:42Z</time>
      </trkpt>
      <trkpt lat="44.13418" lon="7.24246">
        <ele>1955.9</ele>
        <time>2023-02-05T10:35:43Z</time>
      </trkpt>
      <trkpt lat="44.13419" lon="7.24245">
        <ele>1955.9</ele>
        <time>2023-02-05T10:35:44Z</time>
      </trkpt>
      <trkpt lat="44.1342" lon="7.24244">
        <ele>1956.1</ele>
        <time>2023-02-05T10:35:45Z</time>
      </trkpt>
      <trkpt lat="44.1342" lon="7.24243">
        <ele>1956.2</ele>
        <time>2023-02-05T10:35:46Z</time>
      </trkpt>
      <trkpt lat="44.13421" lon="7.24243">
        <ele>1956.3</ele>
        <time>2023-02-05T10:35:47Z</time>
      </trkpt>
      <trkpt lat="44.13421" lon="7.24242">
        <ele>1956.5</ele>
        <time>2023-02-05T10:35:48Z</time>
      </trkpt>
      <trkpt lat="44.13422" lon="7.24242">
        <ele>1956.6</ele>
        <time>2023-02-05T10:35:49Z</time>
      </trkpt>
      <trkpt lat="44.13422" lon="7.24241">
        <ele>1956.7</ele>
        <time>2023-02-05T10:35:50Z</time>
      </trkpt>
      <trkpt lat="44.13423" lon="7.2424">
        <ele>1956.7</ele>
        <time>2023-02-05T10:35:51Z</time>
      </trkpt>
      <trkpt lat="44.13424" lon="7.24239">
        <ele>1956.8</ele>
        <time>2023-02-05T10:35:52Z</time>
      </trkpt>
      <trkpt lat="44.13425" lon="7.24238">
        <ele>1956.8</ele>
        <time>2023-02-05T10:35:53Z</time>
      </trkpt>
      <trkpt lat="44.13426" lon="7.24237">
        <ele>1956.8</ele>
        <time>2023-02-05T10:35:54Z</time>
      </trkpt>
      <trkpt lat="44.13426" lon="7.24236">
        <ele>1956.9</ele>
        <time>2023-02-05T10:35:55Z</time>
      </trkpt>
      <trkpt lat="44.13427" lon="7.24236">
        <ele>1957</ele>
        <time>2023-02-05T10:35:56Z</time>
      </trkpt>
      <trkpt lat="44.13428" lon="7.24235">
        <ele>1957.1</ele>
        <time>2023-02-05T10:35:57Z</time>
      </trkpt>
      <trkpt lat="44.13429" lon="7.24234">
        <ele>1957.2</ele>
        <time>2023-02-05T10:35:58Z</time>
      </trkpt>
      <trkpt lat="44.1343" lon="7.24234">
        <ele>1957.2</ele>
        <time>2023-02-05T10:35:59Z</time>
      </trkpt>
      <trkpt lat="44.1343" lon="7.24233">
        <ele>1957.4</ele>
        <time>2023-02-05T10:36:00Z</time>
      </trkpt>
      <trkpt lat="44.13431" lon="7.24233">
        <ele>1957.5</ele>
        <time>2023-02-05T10:36:01Z</time>
      </trkpt>
      <trkpt lat="44.13432" lon="7.24232">
        <ele>1957.4</ele>
        <time>2023-02-05T10:36:02Z</time>
      </trkpt>
      <trkpt lat="44.13432" lon="7.24232">
        <ele>1957.5</ele>
        <time>2023-02-05T10:36:03Z</time>
      </trkpt>
      <trkpt lat="44.13433" lon="7.24231">
        <ele>1957.5</ele>
        <time>2023-02-05T10:36:04Z</time>
      </trkpt>
      <trkpt lat="44.13434" lon="7.24231">
        <ele>1957.5</ele>
        <time>2023-02-05T10:36:05Z</time>
      </trkpt>
      <trkpt lat="44.13435" lon="7.24231">
        <ele>1957.5</ele>
        <time>2023-02-05T10:36:06Z</time>
      </trkpt>
      <trkpt lat="44.13436" lon="7.24231">
        <ele>1957.6</ele>
        <time>2023-02-05T10:36:07Z</time>
      </trkpt>
      <trkpt lat="44.13436" lon="7.2423">
        <ele>1957.7</ele>
        <time>2023-02-05T10:36:08Z</time>
      </trkpt>
      <trkpt lat="44.13437" lon="7.2423">
        <ele>1957.8</ele>
        <time>2023-02-05T10:36:09Z</time>
      </trkpt>
      <trkpt lat="44.13438" lon="7.24229">
        <ele>1957.9</ele>
        <time>2023-02-05T10:36:10Z</time>
      </trkpt>
      <trkpt lat="44.13438" lon="7.24229">
        <ele>1957.9</ele>
        <time>2023-02-05T10:36:11Z</time>
      </trkpt>
      <trkpt lat="44.13439" lon="7.24229">
        <ele>1958</ele>
        <time>2023-02-05T10:36:12Z</time>
      </trkpt>
      <trkpt lat="44.13439" lon="7.24229">
        <ele>1958</ele>
        <time>2023-02-05T10:36:13Z</time>
      </trkpt>
      <trkpt lat="44.1344" lon="7.24228">
        <ele>1958.1</ele>
        <time>2023-02-05T10:36:14Z</time>
      </trkpt>
      <trkpt lat="44.13441" lon="7.24227">
        <ele>1958.2</ele>
        <time>2023-02-05T10:36:15Z</time>
      </trkpt>
      <trkpt lat="44.13442" lon="7.24227">
        <ele>1958.3</ele>
        <time>2023-02-05T10:36:16Z</time>
      </trkpt>
      <trkpt lat="44.13442" lon="7.24226">
        <ele>1958.3</ele>
        <time>2023-02-05T10:36:17Z</time>
      </trkpt>
      <trkpt lat="44.13443" lon="7.24226">
        <ele>1958.4</ele>
        <time>2023-02-05T10:36:18Z</time>
      </trkpt>
      <trkpt lat="44.13444" lon="7.24225">
        <ele>1958.4</ele>
        <time>2023-02-05T10:36:19Z</time>
      </trkpt>
      <trkpt lat="44.13444" lon="7.24225">
        <ele>1958.5</ele>
        <time>2023-02-05T10:36:20Z</time>
      </trkpt>
      <trkpt lat="44.13445" lon="7.24225">
        <ele>1958.6</ele>
        <time>2023-02-05T10:36:21Z</time>
      </trkpt>
      <trkpt lat="44.13445" lon="7.24224">
        <ele>1958.8</ele>
        <time>2023-02-05T10:36:22Z</time>
      </trkpt>
      <trkpt lat="44.13446" lon="7.24224">
        <ele>1958.8</ele>
        <time>2023-02-05T10:36:23Z</time>
      </trkpt>
      <trkpt lat="44.13447" lon="7.24223">
        <ele>1959</ele>
        <time>2023-02-05T10:36:24Z</time>
      </trkpt>
      <trkpt lat="44.13448" lon="7.24223">
        <ele>1959.1</ele>
        <time>2023-02-05T10:36:25Z</time>
      </trkpt>
      <trkpt lat="44.13448" lon="7.24222">
        <ele>1959.2</ele>
        <time>2023-02-05T10:36:26Z</time>
      </trkpt>
      <trkpt lat="44.13449" lon="7.24222">
        <ele>1959.4</ele>
        <time>2023-02-05T10:36:27Z</time>
      </trkpt>
      <trkpt lat="44.1345" lon="7.24221">
        <ele>1959.5</ele>
        <time>2023-02-05T10:36:28Z</time>
      </trkpt>
      <trkpt lat="44.13451" lon="7.24221">
        <ele>1959.5</ele>
        <time>2023-02-05T10:36:29Z</time>
      </trkpt>
      <trkpt lat="44.13451" lon="7.2422">
        <ele>1959.6</ele>
        <time>2023-02-05T10:36:30Z</time>
      </trkpt>
      <trkpt lat="44.13452" lon="7.24219">
        <ele>1959.6</ele>
        <time>2023-02-05T10:36:31Z</time>
      </trkpt>
      <trkpt lat="44.13453" lon="7.24219">
        <ele>1959.7</ele>
        <time>2023-02-05T10:36:32Z</time>
      </trkpt>
      <trkpt lat="44.13453" lon="7.24218">
        <ele>1959.7</ele>
        <time>2023-02-05T10:36:33Z</time>
      </trkpt>
      <trkpt lat="44.13454" lon="7.24218">
        <ele>1959.8</ele>
        <time>2023-02-05T10:36:34Z</time>
      </trkpt>
      <trkpt lat="44.13455" lon="7.24217">
        <ele>1960</ele>
        <time>2023-02-05T10:36:35Z</time>
      </trkpt>
      <trkpt lat="44.13456" lon="7.24217">
        <ele>1960.1</ele>
        <time>2023-02-05T10:36:36Z</time>
      </trkpt>
      <trkpt lat="44.13456" lon="7.24217">
        <ele>1960.2</ele>
        <time>2023-02-05T10:36:37Z</time>
      </trkpt>
      <trkpt lat="44.13458" lon="7.24216">
        <ele>1960.3</ele>
        <time>2023-02-05T10:36:38Z</time>
      </trkpt>
      <trkpt lat="44.13459" lon="7.24215">
        <ele>1960.4</ele>
        <time>2023-02-05T10:36:39Z</time>
      </trkpt>
      <trkpt lat="44.1346" lon="7.24215">
        <ele>1960.4</ele>
        <time>2023-02-05T10:36:40Z</time>
      </trkpt>
      <trkpt lat="44.13461" lon="7.24215">
        <ele>1960.5</ele>
        <time>2023-02-05T10:36:41Z</time>
      </trkpt>
      <trkpt lat="44.13461" lon="7.24214">
        <ele>1960.5</ele>
        <time>2023-02-05T10:36:42Z</time>
      </trkpt>
      <trkpt lat="44.13462" lon="7.24214">
        <ele>1960.5</ele>
        <time>2023-02-05T10:36:43Z</time>
      </trkpt>
      <trkpt lat="44.13463" lon="7.24213">
        <ele>1960.5</ele>
        <time>2023-02-05T10:36:44Z</time>
      </trkpt>
      <trkpt lat="44.13464" lon="7.24212">
        <ele>1960.6</ele>
        <time>2023-02-05T10:36:45Z</time>
      </trkpt>
      <trkpt lat="44.13464" lon="7.24212">
        <ele>1960.6</ele>
        <time>2023-02-05T10:36:46Z</time>
      </trkpt>
      <trkpt lat="44.13465" lon="7.24211">
        <ele>1960.7</ele>
        <time>2023-02-05T10:36:47Z</time>
      </trkpt>
      <trkpt lat="44.13465" lon="7.2421">
        <ele>1960.8</ele>
        <time>2023-02-05T10:36:48Z</time>
      </trkpt>
      <trkpt lat="44.13466" lon="7.24209">
        <ele>1960.9</ele>
        <time>2023-02-05T10:36:49Z</time>
      </trkpt>
      <trkpt lat="44.13466" lon="7.24209">
        <ele>1961</ele>
        <time>2023-02-05T10:36:50Z</time>
      </trkpt>
      <trkpt lat="44.13467" lon="7.24208">
        <ele>1961.1</ele>
        <time>2023-02-05T10:36:51Z</time>
      </trkpt>
      <trkpt lat="44.13468" lon="7.24207">
        <ele>1961.1</ele>
        <time>2023-02-05T10:36:52Z</time>
      </trkpt>
      <trkpt lat="44.13468" lon="7.24206">
        <ele>1961.2</ele>
        <time>2023-02-05T10:36:53Z</time>
      </trkpt>
      <trkpt lat="44.13469" lon="7.24206">
        <ele>1961.2</ele>
        <time>2023-02-05T10:36:54Z</time>
      </trkpt>
      <trkpt lat="44.1347" lon="7.24205">
        <ele>1961.3</ele>
        <time>2023-02-05T10:36:55Z</time>
      </trkpt>
      <trkpt lat="44.13471" lon="7.24204">
        <ele>1961.4</ele>
        <time>2023-02-05T10:36:56Z</time>
      </trkpt>
      <trkpt lat="44.13471" lon="7.24204">
        <ele>1961.5</ele>
        <time>2023-02-05T10:36:57Z</time>
      </trkpt>
      <trkpt lat="44.13472" lon="7.24203">
        <ele>1961.6</ele>
        <time>2023-02-05T10:36:58Z</time>
      </trkpt>
      <trkpt lat="44.13472" lon="7.24202">
        <ele>1961.7</ele>
        <time>2023-02-05T10:36:59Z</time>
      </trkpt>
      <trkpt lat="44.13473" lon="7.24202">
        <ele>1961.8</ele>
        <time>2023-02-05T10:37:00Z</time>
      </trkpt>
      <trkpt lat="44.13474" lon="7.24201">
        <ele>1961.9</ele>
        <time>2023-02-05T10:37:01Z</time>
      </trkpt>
      <trkpt lat="44.13474" lon="7.24201">
        <ele>1961.9</ele>
        <time>2023-02-05T10:37:02Z</time>
      </trkpt>
      <trkpt lat="44.13474" lon="7.242">
        <ele>1962</ele>
        <time>2023-02-05T10:37:03Z</time>
      </trkpt>
      <trkpt lat="44.13475" lon="7.24199">
        <ele>1962.1</ele>
        <time>2023-02-05T10:37:04Z</time>
      </trkpt>
      <trkpt lat="44.13476" lon="7.24198">
        <ele>1962.2</ele>
        <time>2023-02-05T10:37:05Z</time>
      </trkpt>
      <trkpt lat="44.13477" lon="7.24198">
        <ele>1962.4</ele>
        <time>2023-02-05T10:37:06Z</time>
      </trkpt>
      <trkpt lat="44.13477" lon="7.24196">
        <ele>1962.5</ele>
        <time>2023-02-05T10:37:07Z</time>
      </trkpt>
      <trkpt lat="44.13478" lon="7.24195">
        <ele>1962.6</ele>
        <time>2023-02-05T10:37:08Z</time>
      </trkpt>
      <trkpt lat="44.13478" lon="7.24194">
        <ele>1962.7</ele>
        <time>2023-02-05T10:37:09Z</time>
      </trkpt>
      <trkpt lat="44.13479" lon="7.24193">
        <ele>1962.9</ele>
        <time>2023-02-05T10:37:10Z</time>
      </trkpt>
      <trkpt lat="44.13479" lon="7.24191">
        <ele>1963</ele>
        <time>2023-02-05T10:37:11Z</time>
      </trkpt>
      <trkpt lat="44.13479" lon="7.2419">
        <ele>1963.2</ele>
        <time>2023-02-05T10:37:12Z</time>
      </trkpt>
      <trkpt lat="44.1348" lon="7.24188">
        <ele>1963.3</ele>
        <time>2023-02-05T10:37:13Z</time>
      </trkpt>
      <trkpt lat="44.13481" lon="7.24187">
        <ele>1963.4</ele>
        <time>2023-02-05T10:37:14Z</time>
      </trkpt>
      <trkpt lat="44.13481" lon="7.24186">
        <ele>1963.5</ele>
        <time>2023-02-05T10:37:15Z</time>
      </trkpt>
      <trkpt lat="44.13482" lon="7.24185">
        <ele>1963.6</ele>
        <time>2023-02-05T10:37:16Z</time>
      </trkpt>
      <trkpt lat="44.13483" lon="7.24184">
        <ele>1963.6</ele>
        <time>2023-02-05T10:37:17Z</time>
      </trkpt>
      <trkpt lat="44.13483" lon="7.24182">
        <ele>1963.8</ele>
        <time>2023-02-05T10:37:18Z</time>
      </trkpt>
      <trkpt lat="44.13484" lon="7.24181">
        <ele>1963.8</ele>
        <time>2023-02-05T10:37:19Z</time>
      </trkpt>
      <trkpt lat="44.13485" lon="7.2418">
        <ele>1964</ele>
        <time>2023-02-05T10:37:20Z</time>
      </trkpt>
      <trkpt lat="44.13486" lon="7.24178">
        <ele>1964.2</ele>
        <time>2023-02-05T10:37:21Z</time>
      </trkpt>
      <trkpt lat="44.13485" lon="7.24177">
        <ele>1964.3</ele>
        <time>2023-02-05T10:37:22Z</time>
      </trkpt>
      <trkpt lat="44.13486" lon="7.24177">
        <ele>1964.2</ele>
        <time>2023-02-05T10:37:23Z</time>
      </trkpt>
      <trkpt lat="44.13487" lon="7.24176">
        <ele>1964.3</ele>
        <time>2023-02-05T10:37:24Z</time>
      </trkpt>
      <trkpt lat="44.13487" lon="7.24175">
        <ele>1964.4</ele>
        <time>2023-02-05T10:37:25Z</time>
      </trkpt>
      <trkpt lat="44.13488" lon="7.24174">
        <ele>1964.4</ele>
        <time>2023-02-05T10:37:26Z</time>
      </trkpt>
      <trkpt lat="44.13488" lon="7.24173">
        <ele>1964.4</ele>
        <time>2023-02-05T10:37:27Z</time>
      </trkpt>
      <trkpt lat="44.13489" lon="7.24172">
        <ele>1964.5</ele>
        <time>2023-02-05T10:37:28Z</time>
      </trkpt>
      <trkpt lat="44.13489" lon="7.24171">
        <ele>1964.7</ele>
        <time>2023-02-05T10:37:29Z</time>
      </trkpt>
      <trkpt lat="44.13489" lon="7.2417">
        <ele>1964.9</ele>
        <time>2023-02-05T10:37:30Z</time>
      </trkpt>
      <trkpt lat="44.13488" lon="7.2417">
        <ele>1965.1</ele>
        <time>2023-02-05T10:37:31Z</time>
      </trkpt>
      <trkpt lat="44.13488" lon="7.24169">
        <ele>1965.2</ele>
        <time>2023-02-05T10:37:32Z</time>
      </trkpt>
      <trkpt lat="44.13488" lon="7.24168">
        <ele>1965.3</ele>
        <time>2023-02-05T10:37:33Z</time>
      </trkpt>
      <trkpt lat="44.13489" lon="7.24165">
        <ele>1965.3</ele>
        <time>2023-02-05T10:37:34Z</time>
      </trkpt>
      <trkpt lat="44.13489" lon="7.24164">
        <ele>1965.3</ele>
        <time>2023-02-05T10:37:35Z</time>
      </trkpt>
      <trkpt lat="44.13489" lon="7.24163">
        <ele>1965.3</ele>
        <time>2023-02-05T10:37:36Z</time>
      </trkpt>
      <trkpt lat="44.1349" lon="7.24162">
        <ele>1965.3</ele>
        <time>2023-02-05T10:37:37Z</time>
      </trkpt>
      <trkpt lat="44.13491" lon="7.24161">
        <ele>1965.4</ele>
        <time>2023-02-05T10:37:38Z</time>
      </trkpt>
      <trkpt lat="44.13493" lon="7.24159">
        <ele>1965.4</ele>
        <time>2023-02-05T10:37:39Z</time>
      </trkpt>
      <trkpt lat="44.13493" lon="7.24158">
        <ele>1965.4</ele>
        <time>2023-02-05T10:37:40Z</time>
      </trkpt>
      <trkpt lat="44.13494" lon="7.24157">
        <ele>1965.5</ele>
        <time>2023-02-05T10:37:41Z</time>
      </trkpt>
      <trkpt lat="44.13495" lon="7.24155">
        <ele>1965.5</ele>
        <time>2023-02-05T10:37:42Z</time>
      </trkpt>
      <trkpt lat="44.13496" lon="7.24154">
        <ele>1965.6</ele>
        <time>2023-02-05T10:37:43Z</time>
      </trkpt>
      <trkpt lat="44.13497" lon="7.24154">
        <ele>1965.7</ele>
        <time>2023-02-05T10:37:44Z</time>
      </trkpt>
      <trkpt lat="44.13497" lon="7.24152">
        <ele>1965.8</ele>
        <time>2023-02-05T10:37:45Z</time>
      </trkpt>
      <trkpt lat="44.13497" lon="7.24151">
        <ele>1965.9</ele>
        <time>2023-02-05T10:37:46Z</time>
      </trkpt>
      <trkpt lat="44.13498" lon="7.2415">
        <ele>1966</ele>
        <time>2023-02-05T10:37:47Z</time>
      </trkpt>
      <trkpt lat="44.13498" lon="7.24148">
        <ele>1966</ele>
        <time>2023-02-05T10:37:48Z</time>
      </trkpt>
      <trkpt lat="44.13499" lon="7.24147">
        <ele>1966.1</ele>
        <time>2023-02-05T10:37:49Z</time>
      </trkpt>
      <trkpt lat="44.13499" lon="7.24146">
        <ele>1966.1</ele>
        <time>2023-02-05T10:37:50Z</time>
      </trkpt>
      <trkpt lat="44.135" lon="7.24145">
        <ele>1966.1</ele>
        <time>2023-02-05T10:37:51Z</time>
      </trkpt>
      <trkpt lat="44.135" lon="7.24143">
        <ele>1966.3</ele>
        <time>2023-02-05T10:37:52Z</time>
      </trkpt>
      <trkpt lat="44.135" lon="7.24142">
        <ele>1966.4</ele>
        <time>2023-02-05T10:37:53Z</time>
      </trkpt>
      <trkpt lat="44.135" lon="7.2414">
        <ele>1966.5</ele>
        <time>2023-02-05T10:37:54Z</time>
      </trkpt>
      <trkpt lat="44.13501" lon="7.24139">
        <ele>1966.6</ele>
        <time>2023-02-05T10:37:55Z</time>
      </trkpt>
      <trkpt lat="44.13502" lon="7.24137">
        <ele>1966.8</ele>
        <time>2023-02-05T10:37:56Z</time>
      </trkpt>
      <trkpt lat="44.13502" lon="7.24136">
        <ele>1966.9</ele>
        <time>2023-02-05T10:37:57Z</time>
      </trkpt>
      <trkpt lat="44.13502" lon="7.24135">
        <ele>1967</ele>
        <time>2023-02-05T10:37:58Z</time>
      </trkpt>
      <trkpt lat="44.13502" lon="7.24134">
        <ele>1967.2</ele>
        <time>2023-02-05T10:37:59Z</time>
      </trkpt>
      <trkpt lat="44.13503" lon="7.24132">
        <ele>1967.1</ele>
        <time>2023-02-05T10:38:00Z</time>
      </trkpt>
      <trkpt lat="44.13503" lon="7.24131">
        <ele>1967.2</ele>
        <time>2023-02-05T10:38:01Z</time>
      </trkpt>
      <trkpt lat="44.13504" lon="7.24129">
        <ele>1967</ele>
        <time>2023-02-05T10:38:02Z</time>
      </trkpt>
      <trkpt lat="44.13503" lon="7.24128">
        <ele>1966.9</ele>
        <time>2023-02-05T10:38:03Z</time>
      </trkpt>
      <trkpt lat="44.13503" lon="7.24127">
        <ele>1966.8</ele>
        <time>2023-02-05T10:38:04Z</time>
      </trkpt>
      <trkpt lat="44.13503" lon="7.24125">
        <ele>1966.9</ele>
        <time>2023-02-05T10:38:05Z</time>
      </trkpt>
      <trkpt lat="44.13503" lon="7.24124">
        <ele>1966.9</ele>
        <time>2023-02-05T10:38:06Z</time>
      </trkpt>
      <trkpt lat="44.13502" lon="7.24122">
        <ele>1967</ele>
        <time>2023-02-05T10:38:07Z</time>
      </trkpt>
      <trkpt lat="44.13502" lon="7.24121">
        <ele>1967.1</ele>
        <time>2023-02-05T10:38:08Z</time>
      </trkpt>
      <trkpt lat="44.13502" lon="7.2412">
        <ele>1967.2</ele>
        <time>2023-02-05T10:38:09Z</time>
      </trkpt>
      <trkpt lat="44.13502" lon="7.24118">
        <ele>1967.2</ele>
        <time>2023-02-05T10:38:10Z</time>
      </trkpt>
      <trkpt lat="44.13503" lon="7.24116">
        <ele>1967.3</ele>
        <time>2023-02-05T10:38:11Z</time>
      </trkpt>
      <trkpt lat="44.13503" lon="7.24115">
        <ele>1967.4</ele>
        <time>2023-02-05T10:38:12Z</time>
      </trkpt>
      <trkpt lat="44.13503" lon="7.24114">
        <ele>1967.5</ele>
        <time>2023-02-05T10:38:13Z</time>
      </trkpt>
      <trkpt lat="44.13502" lon="7.24112">
        <ele>1967.8</ele>
        <time>2023-02-05T10:38:14Z</time>
      </trkpt>
      <trkpt lat="44.13503" lon="7.24111">
        <ele>1968</ele>
        <time>2023-02-05T10:38:15Z</time>
      </trkpt>
      <trkpt lat="44.13504" lon="7.2411">
        <ele>1968.1</ele>
        <time>2023-02-05T10:38:16Z</time>
      </trkpt>
      <trkpt lat="44.13504" lon="7.24109">
        <ele>1968.1</ele>
        <time>2023-02-05T10:38:17Z</time>
      </trkpt>
      <trkpt lat="44.13505" lon="7.24108">
        <ele>1968.1</ele>
        <time>2023-02-05T10:38:18Z</time>
      </trkpt>
      <trkpt lat="44.13504" lon="7.24107">
        <ele>1968.2</ele>
        <time>2023-02-05T10:38:19Z</time>
      </trkpt>
      <trkpt lat="44.13504" lon="7.24105">
        <ele>1968.3</ele>
        <time>2023-02-05T10:38:20Z</time>
      </trkpt>
      <trkpt lat="44.13505" lon="7.24104">
        <ele>1968.4</ele>
        <time>2023-02-05T10:38:21Z</time>
      </trkpt>
      <trkpt lat="44.13506" lon="7.24103">
        <ele>1968.6</ele>
        <time>2023-02-05T10:38:22Z</time>
      </trkpt>
      <trkpt lat="44.13506" lon="7.24101">
        <ele>1968.8</ele>
        <time>2023-02-05T10:38:23Z</time>
      </trkpt>
      <trkpt lat="44.13505" lon="7.241">
        <ele>1968.9</ele>
        <time>2023-02-05T10:38:24Z</time>
      </trkpt>
      <trkpt lat="44.13505" lon="7.24099">
        <ele>1968.9</ele>
        <time>2023-02-05T10:38:25Z</time>
      </trkpt>
      <trkpt lat="44.13505" lon="7.24098">
        <ele>1969</ele>
        <time>2023-02-05T10:38:26Z</time>
      </trkpt>
      <trkpt lat="44.13505" lon="7.24096">
        <ele>1969.1</ele>
        <time>2023-02-05T10:38:27Z</time>
      </trkpt>
      <trkpt lat="44.13506" lon="7.24095">
        <ele>1969.3</ele>
        <time>2023-02-05T10:38:28Z</time>
      </trkpt>
      <trkpt lat="44.13506" lon="7.24093">
        <ele>1969.4</ele>
        <time>2023-02-05T10:38:29Z</time>
      </trkpt>
      <trkpt lat="44.13506" lon="7.24092">
        <ele>1969.4</ele>
        <time>2023-02-05T10:38:30Z</time>
      </trkpt>
      <trkpt lat="44.13506" lon="7.24091">
        <ele>1969.6</ele>
        <time>2023-02-05T10:38:31Z</time>
      </trkpt>
      <trkpt lat="44.13505" lon="7.2409">
        <ele>1969.7</ele>
        <time>2023-02-05T10:38:32Z</time>
      </trkpt>
      <trkpt lat="44.13505" lon="7.24089">
        <ele>1969.9</ele>
        <time>2023-02-05T10:38:33Z</time>
      </trkpt>
      <trkpt lat="44.13505" lon="7.24087">
        <ele>1970.1</ele>
        <time>2023-02-05T10:38:34Z</time>
      </trkpt>
      <trkpt lat="44.13504" lon="7.24085">
        <ele>1970.2</ele>
        <time>2023-02-05T10:38:35Z</time>
      </trkpt>
      <trkpt lat="44.13504" lon="7.24084">
        <ele>1970.3</ele>
        <time>2023-02-05T10:38:36Z</time>
      </trkpt>
      <trkpt lat="44.13504" lon="7.24082">
        <ele>1970.5</ele>
        <time>2023-02-05T10:38:37Z</time>
      </trkpt>
      <trkpt lat="44.13505" lon="7.24081">
        <ele>1970.6</ele>
        <time>2023-02-05T10:38:38Z</time>
      </trkpt>
      <trkpt lat="44.13505" lon="7.2408">
        <ele>1970.6</ele>
        <time>2023-02-05T10:38:39Z</time>
      </trkpt>
      <trkpt lat="44.13505" lon="7.24078">
        <ele>1970.7</ele>
        <time>2023-02-05T10:38:40Z</time>
      </trkpt>
      <trkpt lat="44.13505" lon="7.24076">
        <ele>1970.8</ele>
        <time>2023-02-05T10:38:41Z</time>
      </trkpt>
      <trkpt lat="44.13505" lon="7.24075">
        <ele>1970.8</ele>
        <time>2023-02-05T10:38:42Z</time>
      </trkpt>
      <trkpt lat="44.13504" lon="7.24074">
        <ele>1970.9</ele>
        <time>2023-02-05T10:38:43Z</time>
      </trkpt>
      <trkpt lat="44.13504" lon="7.24072">
        <ele>1971.2</ele>
        <time>2023-02-05T10:38:44Z</time>
      </trkpt>
      <trkpt lat="44.13504" lon="7.24071">
        <ele>1971.3</ele>
        <time>2023-02-05T10:38:45Z</time>
      </trkpt>
      <trkpt lat="44.13504" lon="7.2407">
        <ele>1971.4</ele>
        <time>2023-02-05T10:38:46Z</time>
      </trkpt>
      <trkpt lat="44.13504" lon="7.24069">
        <ele>1971.5</ele>
        <time>2023-02-05T10:38:47Z</time>
      </trkpt>
      <trkpt lat="44.13504" lon="7.24068">
        <ele>1971.7</ele>
        <time>2023-02-05T10:38:48Z</time>
      </trkpt>
      <trkpt lat="44.13504" lon="7.24066">
        <ele>1971.8</ele>
        <time>2023-02-05T10:38:49Z</time>
      </trkpt>
      <trkpt lat="44.13504" lon="7.24065">
        <ele>1971.9</ele>
        <time>2023-02-05T10:38:50Z</time>
      </trkpt>
      <trkpt lat="44.13503" lon="7.24064">
        <ele>1972</ele>
        <time>2023-02-05T10:38:51Z</time>
      </trkpt>
      <trkpt lat="44.13503" lon="7.24063">
        <ele>1972.1</ele>
        <time>2023-02-05T10:38:52Z</time>
      </trkpt>
      <trkpt lat="44.13503" lon="7.24061">
        <ele>1972.3</ele>
        <time>2023-02-05T10:38:53Z</time>
      </trkpt>
      <trkpt lat="44.13503" lon="7.2406">
        <ele>1972.4</ele>
        <time>2023-02-05T10:38:54Z</time>
      </trkpt>
      <trkpt lat="44.13502" lon="7.24059">
        <ele>1972.5</ele>
        <time>2023-02-05T10:38:55Z</time>
      </trkpt>
      <trkpt lat="44.13502" lon="7.24058">
        <ele>1972.7</ele>
        <time>2023-02-05T10:38:56Z</time>
      </trkpt>
      <trkpt lat="44.13502" lon="7.24057">
        <ele>1972.7</ele>
        <time>2023-02-05T10:38:57Z</time>
      </trkpt>
      <trkpt lat="44.13502" lon="7.24056">
        <ele>1972.8</ele>
        <time>2023-02-05T10:38:58Z</time>
      </trkpt>
      <trkpt lat="44.13502" lon="7.24054">
        <ele>1972.9</ele>
        <time>2023-02-05T10:38:59Z</time>
      </trkpt>
      <trkpt lat="44.13502" lon="7.24053">
        <ele>1973</ele>
        <time>2023-02-05T10:39:00Z</time>
      </trkpt>
      <trkpt lat="44.13502" lon="7.24052">
        <ele>1973.1</ele>
        <time>2023-02-05T10:39:01Z</time>
      </trkpt>
      <trkpt lat="44.13502" lon="7.2405">
        <ele>1973.1</ele>
        <time>2023-02-05T10:39:02Z</time>
      </trkpt>
      <trkpt lat="44.13501" lon="7.24049">
        <ele>1973.2</ele>
        <time>2023-02-05T10:39:03Z</time>
      </trkpt>
      <trkpt lat="44.13501" lon="7.24047">
        <ele>1973.3</ele>
        <time>2023-02-05T10:39:04Z</time>
      </trkpt>
      <trkpt lat="44.13502" lon="7.24046">
        <ele>1973.3</ele>
        <time>2023-02-05T10:39:05Z</time>
      </trkpt>
      <trkpt lat="44.13502" lon="7.24045">
        <ele>1973.4</ele>
        <time>2023-02-05T10:39:06Z</time>
      </trkpt>
      <trkpt lat="44.13501" lon="7.24044">
        <ele>1973.5</ele>
        <time>2023-02-05T10:39:07Z</time>
      </trkpt>
      <trkpt lat="44.13501" lon="7.24042">
        <ele>1973.7</ele>
        <time>2023-02-05T10:39:08Z</time>
      </trkpt>
      <trkpt lat="44.13501" lon="7.24041">
        <ele>1973.8</ele>
        <time>2023-02-05T10:39:09Z</time>
      </trkpt>
      <trkpt lat="44.135" lon="7.2404">
        <ele>1973.9</ele>
        <time>2023-02-05T10:39:10Z</time>
      </trkpt>
      <trkpt lat="44.135" lon="7.24038">
        <ele>1974.1</ele>
        <time>2023-02-05T10:39:11Z</time>
      </trkpt>
      <trkpt lat="44.135" lon="7.24037">
        <ele>1974.1</ele>
        <time>2023-02-05T10:39:12Z</time>
      </trkpt>
      <trkpt lat="44.13499" lon="7.24036">
        <ele>1974.1</ele>
        <time>2023-02-05T10:39:13Z</time>
      </trkpt>
      <trkpt lat="44.13499" lon="7.24035">
        <ele>1974.3</ele>
        <time>2023-02-05T10:39:14Z</time>
      </trkpt>
      <trkpt lat="44.13499" lon="7.24033">
        <ele>1974.4</ele>
        <time>2023-02-05T10:39:15Z</time>
      </trkpt>
      <trkpt lat="44.13499" lon="7.24032">
        <ele>1974.6</ele>
        <time>2023-02-05T10:39:16Z</time>
      </trkpt>
      <trkpt lat="44.13499" lon="7.24031">
        <ele>1974.7</ele>
        <time>2023-02-05T10:39:17Z</time>
      </trkpt>
      <trkpt lat="44.13499" lon="7.2403">
        <ele>1974.8</ele>
        <time>2023-02-05T10:39:18Z</time>
      </trkpt>
      <trkpt lat="44.13498" lon="7.24029">
        <ele>1974.9</ele>
        <time>2023-02-05T10:39:19Z</time>
      </trkpt>
      <trkpt lat="44.13498" lon="7.24028">
        <ele>1975</ele>
        <time>2023-02-05T10:39:20Z</time>
      </trkpt>
      <trkpt lat="44.13498" lon="7.24026">
        <ele>1975.1</ele>
        <time>2023-02-05T10:39:21Z</time>
      </trkpt>
      <trkpt lat="44.13499" lon="7.24025">
        <ele>1975.2</ele>
        <time>2023-02-05T10:39:22Z</time>
      </trkpt>
      <trkpt lat="44.13498" lon="7.24024">
        <ele>1975.3</ele>
        <time>2023-02-05T10:39:23Z</time>
      </trkpt>
      <trkpt lat="44.13497" lon="7.24023">
        <ele>1975.4</ele>
        <time>2023-02-05T10:39:24Z</time>
      </trkpt>
      <trkpt lat="44.13497" lon="7.24022">
        <ele>1975.5</ele>
        <time>2023-02-05T10:39:25Z</time>
      </trkpt>
      <trkpt lat="44.13497" lon="7.24021">
        <ele>1975.6</ele>
        <time>2023-02-05T10:39:26Z</time>
      </trkpt>
      <trkpt lat="44.13497" lon="7.2402">
        <ele>1975.7</ele>
        <time>2023-02-05T10:39:27Z</time>
      </trkpt>
      <trkpt lat="44.13497" lon="7.24018">
        <ele>1975.7</ele>
        <time>2023-02-05T10:39:28Z</time>
      </trkpt>
      <trkpt lat="44.13497" lon="7.24017">
        <ele>1975.9</ele>
        <time>2023-02-05T10:39:29Z</time>
      </trkpt>
      <trkpt lat="44.13496" lon="7.24016">
        <ele>1976</ele>
        <time>2023-02-05T10:39:30Z</time>
      </trkpt>
      <trkpt lat="44.13496" lon="7.24015">
        <ele>1976.1</ele>
        <time>2023-02-05T10:39:31Z</time>
      </trkpt>
      <trkpt lat="44.13496" lon="7.24013">
        <ele>1976.2</ele>
        <time>2023-02-05T10:39:32Z</time>
      </trkpt>
      <trkpt lat="44.13496" lon="7.24012">
        <ele>1976.2</ele>
        <time>2023-02-05T10:39:33Z</time>
      </trkpt>
      <trkpt lat="44.13497" lon="7.2401">
        <ele>1976.3</ele>
        <time>2023-02-05T10:39:34Z</time>
      </trkpt>
      <trkpt lat="44.13497" lon="7.24009">
        <ele>1976.4</ele>
        <time>2023-02-05T10:39:35Z</time>
      </trkpt>
      <trkpt lat="44.13497" lon="7.24008">
        <ele>1976.5</ele>
        <time>2023-02-05T10:39:36Z</time>
      </trkpt>
      <trkpt lat="44.13497" lon="7.24006">
        <ele>1976.5</ele>
        <time>2023-02-05T10:39:37Z</time>
      </trkpt>
      <trkpt lat="44.13497" lon="7.24005">
        <ele>1976.6</ele>
        <time>2023-02-05T10:39:38Z</time>
      </trkpt>
      <trkpt lat="44.13497" lon="7.24004">
        <ele>1976.7</ele>
        <time>2023-02-05T10:39:39Z</time>
      </trkpt>
      <trkpt lat="44.13497" lon="7.24003">
        <ele>1976.9</ele>
        <time>2023-02-05T10:39:40Z</time>
      </trkpt>
      <trkpt lat="44.13497" lon="7.24001">
        <ele>1977</ele>
        <time>2023-02-05T10:39:41Z</time>
      </trkpt>
      <trkpt lat="44.13497" lon="7.24001">
        <ele>1977.1</ele>
        <time>2023-02-05T10:39:42Z</time>
      </trkpt>
      <trkpt lat="44.13497" lon="7.24">
        <ele>1977.2</ele>
        <time>2023-02-05T10:39:43Z</time>
      </trkpt>
      <trkpt lat="44.13496" lon="7.23998">
        <ele>1977.3</ele>
        <time>2023-02-05T10:39:44Z</time>
      </trkpt>
      <trkpt lat="44.13496" lon="7.23997">
        <ele>1977.3</ele>
        <time>2023-02-05T10:39:45Z</time>
      </trkpt>
      <trkpt lat="44.13496" lon="7.23996">
        <ele>1977.4</ele>
        <time>2023-02-05T10:39:46Z</time>
      </trkpt>
      <trkpt lat="44.13496" lon="7.23995">
        <ele>1977.5</ele>
        <time>2023-02-05T10:39:47Z</time>
      </trkpt>
      <trkpt lat="44.13496" lon="7.23994">
        <ele>1977.7</ele>
        <time>2023-02-05T10:39:48Z</time>
      </trkpt>
      <trkpt lat="44.13496" lon="7.23992">
        <ele>1977.9</ele>
        <time>2023-02-05T10:39:49Z</time>
      </trkpt>
      <trkpt lat="44.13496" lon="7.23991">
        <ele>1977.9</ele>
        <time>2023-02-05T10:39:50Z</time>
      </trkpt>
      <trkpt lat="44.13496" lon="7.2399">
        <ele>1978</ele>
        <time>2023-02-05T10:39:51Z</time>
      </trkpt>
      <trkpt lat="44.13496" lon="7.23989">
        <ele>1978.1</ele>
        <time>2023-02-05T10:39:52Z</time>
      </trkpt>
      <trkpt lat="44.13495" lon="7.23988">
        <ele>1978.1</ele>
        <time>2023-02-05T10:39:53Z</time>
      </trkpt>
      <trkpt lat="44.13495" lon="7.23987">
        <ele>1978.3</ele>
        <time>2023-02-05T10:39:54Z</time>
      </trkpt>
      <trkpt lat="44.13495" lon="7.23986">
        <ele>1978.4</ele>
        <time>2023-02-05T10:39:55Z</time>
      </trkpt>
      <trkpt lat="44.13496" lon="7.23984">
        <ele>1978.4</ele>
        <time>2023-02-05T10:39:56Z</time>
      </trkpt>
      <trkpt lat="44.13496" lon="7.23983">
        <ele>1978.5</ele>
        <time>2023-02-05T10:39:57Z</time>
      </trkpt>
      <trkpt lat="44.13496" lon="7.23981">
        <ele>1978.6</ele>
        <time>2023-02-05T10:39:58Z</time>
      </trkpt>
      <trkpt lat="44.13497" lon="7.2398">
        <ele>1978.7</ele>
        <time>2023-02-05T10:39:59Z</time>
      </trkpt>
      <trkpt lat="44.13497" lon="7.23979">
        <ele>1978.8</ele>
        <time>2023-02-05T10:40:00Z</time>
      </trkpt>
      <trkpt lat="44.13496" lon="7.23978">
        <ele>1978.8</ele>
        <time>2023-02-05T10:40:01Z</time>
      </trkpt>
      <trkpt lat="44.13496" lon="7.23976">
        <ele>1979</ele>
        <time>2023-02-05T10:40:02Z</time>
      </trkpt>
      <trkpt lat="44.13496" lon="7.23975">
        <ele>1979.1</ele>
        <time>2023-02-05T10:40:03Z</time>
      </trkpt>
      <trkpt lat="44.13496" lon="7.23974">
        <ele>1979.1</ele>
        <time>2023-02-05T10:40:04Z</time>
      </trkpt>
      <trkpt lat="44.13495" lon="7.23973">
        <ele>1979.2</ele>
        <time>2023-02-05T10:40:05Z</time>
      </trkpt>
      <trkpt lat="44.13495" lon="7.23971">
        <ele>1979.2</ele>
        <time>2023-02-05T10:40:06Z</time>
      </trkpt>
      <trkpt lat="44.13494" lon="7.2397">
        <ele>1979.3</ele>
        <time>2023-02-05T10:40:07Z</time>
      </trkpt>
      <trkpt lat="44.13494" lon="7.23969">
        <ele>1979.3</ele>
        <time>2023-02-05T10:40:08Z</time>
      </trkpt>
      <trkpt lat="44.13493" lon="7.23967">
        <ele>1979.3</ele>
        <time>2023-02-05T10:40:09Z</time>
      </trkpt>
      <trkpt lat="44.13493" lon="7.23966">
        <ele>1979.4</ele>
        <time>2023-02-05T10:40:10Z</time>
      </trkpt>
      <trkpt lat="44.13493" lon="7.23965">
        <ele>1979.4</ele>
        <time>2023-02-05T10:40:11Z</time>
      </trkpt>
      <trkpt lat="44.13492" lon="7.23963">
        <ele>1979.4</ele>
        <time>2023-02-05T10:40:12Z</time>
      </trkpt>
      <trkpt lat="44.13492" lon="7.23962">
        <ele>1979.5</ele>
        <time>2023-02-05T10:40:13Z</time>
      </trkpt>
      <trkpt lat="44.13492" lon="7.23961">
        <ele>1979.6</ele>
        <time>2023-02-05T10:40:14Z</time>
      </trkpt>
      <trkpt lat="44.13492" lon="7.2396">
        <ele>1979.7</ele>
        <time>2023-02-05T10:40:15Z</time>
      </trkpt>
      <trkpt lat="44.13491" lon="7.23959">
        <ele>1979.7</ele>
        <time>2023-02-05T10:40:16Z</time>
      </trkpt>
      <trkpt lat="44.13492" lon="7.23957">
        <ele>1979.8</ele>
        <time>2023-02-05T10:40:17Z</time>
      </trkpt>
      <trkpt lat="44.13492" lon="7.23956">
        <ele>1980</ele>
        <time>2023-02-05T10:40:18Z</time>
      </trkpt>
      <trkpt lat="44.13492" lon="7.23956">
        <ele>1980.1</ele>
        <time>2023-02-05T10:40:19Z</time>
      </trkpt>
      <trkpt lat="44.13491" lon="7.23955">
        <ele>1980.2</ele>
        <time>2023-02-05T10:40:20Z</time>
      </trkpt>
      <trkpt lat="44.13492" lon="7.23954">
        <ele>1980.3</ele>
        <time>2023-02-05T10:40:21Z</time>
      </trkpt>
      <trkpt lat="44.13492" lon="7.23952">
        <ele>1980.3</ele>
        <time>2023-02-05T10:40:22Z</time>
      </trkpt>
      <trkpt lat="44.13492" lon="7.23951">
        <ele>1980.3</ele>
        <time>2023-02-05T10:40:23Z</time>
      </trkpt>
      <trkpt lat="44.13492" lon="7.2395">
        <ele>1980.4</ele>
        <time>2023-02-05T10:40:24Z</time>
      </trkpt>
      <trkpt lat="44.13492" lon="7.23949">
        <ele>1980.5</ele>
        <time>2023-02-05T10:40:25Z</time>
      </trkpt>
      <trkpt lat="44.13492" lon="7.23948">
        <ele>1980.6</ele>
        <time>2023-02-05T10:40:26Z</time>
      </trkpt>
      <trkpt lat="44.13492" lon="7.23947">
        <ele>1980.7</ele>
        <time>2023-02-05T10:40:27Z</time>
      </trkpt>
      <trkpt lat="44.13492" lon="7.23946">
        <ele>1980.7</ele>
        <time>2023-02-05T10:40:28Z</time>
      </trkpt>
      <trkpt lat="44.13491" lon="7.23946">
        <ele>1980.8</ele>
        <time>2023-02-05T10:40:29Z</time>
      </trkpt>
      <trkpt lat="44.13491" lon="7.23945">
        <ele>1980.8</ele>
        <time>2023-02-05T10:40:30Z</time>
      </trkpt>
      <trkpt lat="44.13491" lon="7.23944">
        <ele>1980.8</ele>
        <time>2023-02-05T10:40:31Z</time>
      </trkpt>
      <trkpt lat="44.13491" lon="7.23943">
        <ele>1980.9</ele>
        <time>2023-02-05T10:40:32Z</time>
      </trkpt>
      <trkpt lat="44.13491" lon="7.23943">
        <ele>1981</ele>
        <time>2023-02-05T10:40:33Z</time>
      </trkpt>
      <trkpt lat="44.13491" lon="7.23942">
        <ele>1981.1</ele>
        <time>2023-02-05T10:40:34Z</time>
      </trkpt>
      <trkpt lat="44.13491" lon="7.23942">
        <ele>1981.2</ele>
        <time>2023-02-05T10:40:35Z</time>
      </trkpt>
      <trkpt lat="44.13491" lon="7.23941">
        <ele>1981.3</ele>
        <time>2023-02-05T10:40:36Z</time>
      </trkpt>
      <trkpt lat="44.13492" lon="7.2394">
        <ele>1981.2</ele>
        <time>2023-02-05T10:40:37Z</time>
      </trkpt>
      <trkpt lat="44.13492" lon="7.2394">
        <ele>1981.3</ele>
        <time>2023-02-05T10:40:38Z</time>
      </trkpt>
      <trkpt lat="44.13492" lon="7.23939">
        <ele>1981.3</ele>
        <time>2023-02-05T10:40:39Z</time>
      </trkpt>
      <trkpt lat="44.13492" lon="7.23939">
        <ele>1981.3</ele>
        <time>2023-02-05T10:40:40Z</time>
      </trkpt>
      <trkpt lat="44.13492" lon="7.23939">
        <ele>1981.4</ele>
        <time>2023-02-05T10:40:41Z</time>
      </trkpt>
      <trkpt lat="44.13491" lon="7.23939">
        <ele>1981.4</ele>
        <time>2023-02-05T10:40:42Z</time>
      </trkpt>
      <trkpt lat="44.13491" lon="7.23939">
        <ele>1981.5</ele>
        <time>2023-02-05T10:40:43Z</time>
      </trkpt>
      <trkpt lat="44.13491" lon="7.23939">
        <ele>1981.6</ele>
        <time>2023-02-05T10:40:44Z</time>
      </trkpt>
      <trkpt lat="44.13491" lon="7.23939">
        <ele>1981.6</ele>
        <time>2023-02-05T10:40:45Z</time>
      </trkpt>
      <trkpt lat="44.13491" lon="7.23939">
        <ele>1981.6</ele>
        <time>2023-02-05T10:40:46Z</time>
      </trkpt>
      <trkpt lat="44.13491" lon="7.23939">
        <ele>1981.7</ele>
        <time>2023-02-05T10:40:47Z</time>
      </trkpt>
      <trkpt lat="44.13491" lon="7.23939">
        <ele>1981.8</ele>
        <time>2023-02-05T10:40:48Z</time>
      </trkpt>
      <trkpt lat="44.13491" lon="7.23939">
        <ele>1981.8</ele>
        <time>2023-02-05T10:40:49Z</time>
      </trkpt>
      <trkpt lat="44.1349" lon="7.23939">
        <ele>1981.9</ele>
        <time>2023-02-05T10:40:50Z</time>
      </trkpt>
      <trkpt lat="44.1349" lon="7.23939">
        <ele>1982</ele>
        <time>2023-02-05T10:40:51Z</time>
      </trkpt>
      <trkpt lat="44.13489" lon="7.23939">
        <ele>1982.1</ele>
        <time>2023-02-05T10:40:52Z</time>
      </trkpt>
      <trkpt lat="44.13489" lon="7.23939">
        <ele>1982.2</ele>
        <time>2023-02-05T10:40:53Z</time>
      </trkpt>
      <trkpt lat="44.13489" lon="7.23938">
        <ele>1982.3</ele>
        <time>2023-02-05T10:40:54Z</time>
      </trkpt>
      <trkpt lat="44.13488" lon="7.23938">
        <ele>1982.3</ele>
        <time>2023-02-05T10:40:55Z</time>
      </trkpt>
      <trkpt lat="44.13488" lon="7.23938">
        <ele>1982.3</ele>
        <time>2023-02-05T10:40:56Z</time>
      </trkpt>
      <trkpt lat="44.13488" lon="7.23938">
        <ele>1982.2</ele>
        <time>2023-02-05T10:40:57Z</time>
      </trkpt>
      <trkpt lat="44.13488" lon="7.23938">
        <ele>1982.2</ele>
        <time>2023-02-05T10:40:58Z</time>
      </trkpt>
      <trkpt lat="44.13488" lon="7.23938">
        <ele>1982.1</ele>
        <time>2023-02-05T10:40:59Z</time>
      </trkpt>
      <trkpt lat="44.13488" lon="7.23938">
        <ele>1982.1</ele>
        <time>2023-02-05T10:41:00Z</time>
      </trkpt>
      <trkpt lat="44.13488" lon="7.23938">
        <ele>1982.2</ele>
        <time>2023-02-05T10:41:01Z</time>
      </trkpt>
      <trkpt lat="44.13487" lon="7.23938">
        <ele>1982.1</ele>
        <time>2023-02-05T10:41:02Z</time>
      </trkpt>
      <trkpt lat="44.13487" lon="7.23938">
        <ele>1982.1</ele>
        <time>2023-02-05T10:41:03Z</time>
      </trkpt>
      <trkpt lat="44.13487" lon="7.23938">
        <ele>1982.1</ele>
        <time>2023-02-05T10:41:04Z</time>
      </trkpt>
      <trkpt lat="44.13487" lon="7.23938">
        <ele>1980.5</ele>
        <time>2023-02-05T10:41:05Z</time>
      </trkpt>
      <trkpt lat="44.13487" lon="7.23938">
        <ele>1980.7</ele>
        <time>2023-02-05T10:41:06Z</time>
      </trkpt>
      <trkpt lat="44.13487" lon="7.23938">
        <ele>1980.9</ele>
        <time>2023-02-05T10:41:07Z</time>
      </trkpt>
      <trkpt lat="44.13487" lon="7.23938">
        <ele>1981.3</ele>
        <time>2023-02-05T10:41:08Z</time>
      </trkpt>
      <trkpt lat="44.13487" lon="7.23938">
        <ele>1981.6</ele>
        <time>2023-02-05T10:41:09Z</time>
      </trkpt>
      <trkpt lat="44.13487" lon="7.23938">
        <ele>1981.7</ele>
        <time>2023-02-05T10:41:10Z</time>
      </trkpt>
      <trkpt lat="44.13487" lon="7.23938">
        <ele>1981.8</ele>
        <time>2023-02-05T10:41:11Z</time>
      </trkpt>
      <trkpt lat="44.13488" lon="7.23938">
        <ele>1981.8</ele>
        <time>2023-02-05T10:41:12Z</time>
      </trkpt>
      <trkpt lat="44.13488" lon="7.23938">
        <ele>1981.9</ele>
        <time>2023-02-05T10:41:13Z</time>
      </trkpt>
      <trkpt lat="44.13488" lon="7.23938">
        <ele>1982</ele>
        <time>2023-02-05T10:41:14Z</time>
      </trkpt>
      <trkpt lat="44.13488" lon="7.23938">
        <ele>1982.1</ele>
        <time>2023-02-05T10:41:15Z</time>
      </trkpt>
      <trkpt lat="44.13488" lon="7.23938">
        <ele>1982.1</ele>
        <time>2023-02-05T10:41:16Z</time>
      </trkpt>
      <trkpt lat="44.13488" lon="7.23938">
        <ele>1982.1</ele>
        <time>2023-02-05T10:41:17Z</time>
      </trkpt>
      <trkpt lat="44.13488" lon="7.23937">
        <ele>1982.1</ele>
        <time>2023-02-05T10:41:18Z</time>
      </trkpt>
      <trkpt lat="44.13488" lon="7.23937">
        <ele>1982.1</ele>
        <time>2023-02-05T10:41:19Z</time>
      </trkpt>
      <trkpt lat="44.13488" lon="7.23937">
        <ele>1982.4</ele>
        <time>2023-02-05T10:41:20Z</time>
      </trkpt>
      <trkpt lat="44.13488" lon="7.23937">
        <ele>1982.5</ele>
        <time>2023-02-05T10:41:21Z</time>
      </trkpt>
      <trkpt lat="44.13488" lon="7.23937">
        <ele>1982.6</ele>
        <time>2023-02-05T10:41:22Z</time>
      </trkpt>
      <trkpt lat="44.13488" lon="7.23937">
        <ele>1982.5</ele>
        <time>2023-02-05T10:41:23Z</time>
      </trkpt>
      <trkpt lat="44.13488" lon="7.23937">
        <ele>1982.5</ele>
        <time>2023-02-05T10:41:24Z</time>
      </trkpt>
      <trkpt lat="44.13488" lon="7.23937">
        <ele>1982.5</ele>
        <time>2023-02-05T10:41:25Z</time>
      </trkpt>
      <trkpt lat="44.13488" lon="7.23937">
        <ele>1982.5</ele>
        <time>2023-02-05T10:41:26Z</time>
      </trkpt>
      <trkpt lat="44.13488" lon="7.23936">
        <ele>1982.5</ele>
        <time>2023-02-05T10:41:27Z</time>
      </trkpt>
      <trkpt lat="44.13488" lon="7.23936">
        <ele>1982.5</ele>
        <time>2023-02-05T10:41:28Z</time>
      </trkpt>
      <trkpt lat="44.13488" lon="7.23936">
        <ele>1982.5</ele>
        <time>2023-02-05T10:41:29Z</time>
      </trkpt>
      <trkpt lat="44.13488" lon="7.23936">
        <ele>1982.5</ele>
        <time>2023-02-05T10:41:30Z</time>
      </trkpt>
      <trkpt lat="44.13488" lon="7.23935">
        <ele>1982.6</ele>
        <time>2023-02-05T10:41:31Z</time>
      </trkpt>
      <trkpt lat="44.13488" lon="7.23935">
        <ele>1982.6</ele>
        <time>2023-02-05T10:41:32Z</time>
      </trkpt>
      <trkpt lat="44.13488" lon="7.23935">
        <ele>1982.1</ele>
        <time>2023-02-05T10:41:33Z</time>
      </trkpt>
      <trkpt lat="44.13487" lon="7.23935">
        <ele>1982.2</ele>
        <time>2023-02-05T10:41:34Z</time>
      </trkpt>
      <trkpt lat="44.13487" lon="7.23935">
        <ele>1982.2</ele>
        <time>2023-02-05T10:41:35Z</time>
      </trkpt>
      <trkpt lat="44.13487" lon="7.23936">
        <ele>1982.2</ele>
        <time>2023-02-05T10:41:36Z</time>
      </trkpt>
      <trkpt lat="44.13487" lon="7.23936">
        <ele>1982.2</ele>
        <time>2023-02-05T10:41:37Z</time>
      </trkpt>
      <trkpt lat="44.13487" lon="7.23936">
        <ele>1982.1</ele>
        <time>2023-02-05T10:41:38Z</time>
      </trkpt>
      <trkpt lat="44.13487" lon="7.23936">
        <ele>1982.1</ele>
        <time>2023-02-05T10:41:39Z</time>
      </trkpt>
      <trkpt lat="44.13486" lon="7.23936">
        <ele>1982.1</ele>
        <time>2023-02-05T10:41:40Z</time>
      </trkpt>
      <trkpt lat="44.13486" lon="7.23936">
        <ele>1982.2</ele>
        <time>2023-02-05T10:41:41Z</time>
      </trkpt>
      <trkpt lat="44.13486" lon="7.23936">
        <ele>1981.7</ele>
        <time>2023-02-05T10:41:42Z</time>
      </trkpt>
      <trkpt lat="44.13485" lon="7.23936">
        <ele>1981.7</ele>
        <time>2023-02-05T10:41:43Z</time>
      </trkpt>
      <trkpt lat="44.13485" lon="7.23936">
        <ele>1981.9</ele>
        <time>2023-02-05T10:41:44Z</time>
      </trkpt>
      <trkpt lat="44.13485" lon="7.23935">
        <ele>1982</ele>
        <time>2023-02-05T10:41:45Z</time>
      </trkpt>
      <trkpt lat="44.13485" lon="7.23935">
        <ele>1982</ele>
        <time>2023-02-05T10:41:46Z</time>
      </trkpt>
      <trkpt lat="44.13485" lon="7.23935">
        <ele>1982.1</ele>
        <time>2023-02-05T10:41:47Z</time>
      </trkpt>
      <trkpt lat="44.13485" lon="7.23935">
        <ele>1982.1</ele>
        <time>2023-02-05T10:41:48Z</time>
      </trkpt>
      <trkpt lat="44.13486" lon="7.23935">
        <ele>1982.2</ele>
        <time>2023-02-05T10:41:49Z</time>
      </trkpt>
      <trkpt lat="44.13486" lon="7.23935">
        <ele>1982.3</ele>
        <time>2023-02-05T10:41:50Z</time>
      </trkpt>
      <trkpt lat="44.13486" lon="7.23934">
        <ele>1982.4</ele>
        <time>2023-02-05T10:41:51Z</time>
      </trkpt>
      <trkpt lat="44.13486" lon="7.23934">
        <ele>1982.4</ele>
        <time>2023-02-05T10:41:52Z</time>
      </trkpt>
      <trkpt lat="44.13486" lon="7.23934">
        <ele>1982.3</ele>
        <time>2023-02-05T10:41:53Z</time>
      </trkpt>
      <trkpt lat="44.13486" lon="7.23934">
        <ele>1982.3</ele>
        <time>2023-02-05T10:41:54Z</time>
      </trkpt>
      <trkpt lat="44.13487" lon="7.23933">
        <ele>1982.4</ele>
        <time>2023-02-05T10:41:55Z</time>
      </trkpt>
      <trkpt lat="44.13487" lon="7.23933">
        <ele>1982.4</ele>
        <time>2023-02-05T10:41:56Z</time>
      </trkpt>
      <trkpt lat="44.13487" lon="7.23933">
        <ele>1982.3</ele>
        <time>2023-02-05T10:41:57Z</time>
      </trkpt>
      <trkpt lat="44.13487" lon="7.23933">
        <ele>1982.2</ele>
        <time>2023-02-05T10:41:58Z</time>
      </trkpt>
      <trkpt lat="44.13487" lon="7.23933">
        <ele>1982.2</ele>
        <time>2023-02-05T10:41:59Z</time>
      </trkpt>
      <trkpt lat="44.13487" lon="7.23933">
        <ele>1982.2</ele>
        <time>2023-02-05T10:42:00Z</time>
      </trkpt>
      <trkpt lat="44.13487" lon="7.23933">
        <ele>1982.2</ele>
        <time>2023-02-05T10:42:01Z</time>
      </trkpt>
      <trkpt lat="44.13487" lon="7.23933">
        <ele>1982.1</ele>
        <time>2023-02-05T10:42:02Z</time>
      </trkpt>
      <trkpt lat="44.13487" lon="7.23932">
        <ele>1982</ele>
        <time>2023-02-05T10:42:03Z</time>
      </trkpt>
      <trkpt lat="44.13487" lon="7.23932">
        <ele>1982.1</ele>
        <time>2023-02-05T10:42:04Z</time>
      </trkpt>
      <trkpt lat="44.13486" lon="7.23932">
        <ele>1982.3</ele>
        <time>2023-02-05T10:42:05Z</time>
      </trkpt>
      <trkpt lat="44.13486" lon="7.23932">
        <ele>1982.3</ele>
        <time>2023-02-05T10:42:06Z</time>
      </trkpt>
      <trkpt lat="44.13486" lon="7.23932">
        <ele>1982.2</ele>
        <time>2023-02-05T10:42:07Z</time>
      </trkpt>
      <trkpt lat="44.13486" lon="7.23932">
        <ele>1982.2</ele>
        <time>2023-02-05T10:42:08Z</time>
      </trkpt>
      <trkpt lat="44.13486" lon="7.23932">
        <ele>1982.2</ele>
        <time>2023-02-05T10:42:09Z</time>
      </trkpt>
      <trkpt lat="44.13486" lon="7.23932">
        <ele>1982.2</ele>
        <time>2023-02-05T10:42:10Z</time>
      </trkpt>
      <trkpt lat="44.13485" lon="7.23932">
        <ele>1982.2</ele>
        <time>2023-02-05T10:42:11Z</time>
      </trkpt>
      <trkpt lat="44.13485" lon="7.23932">
        <ele>1982.3</ele>
        <time>2023-02-05T10:42:12Z</time>
      </trkpt>
      <trkpt lat="44.13485" lon="7.23931">
        <ele>1982.3</ele>
        <time>2023-02-05T10:42:13Z</time>
      </trkpt>
      <trkpt lat="44.13485" lon="7.23931">
        <ele>1982.3</ele>
        <time>2023-02-05T10:42:14Z</time>
      </trkpt>
      <trkpt lat="44.13484" lon="7.23931">
        <ele>1982.3</ele>
        <time>2023-02-05T10:42:15Z</time>
      </trkpt>
      <trkpt lat="44.13484" lon="7.23931">
        <ele>1982.4</ele>
        <time>2023-02-05T10:42:16Z</time>
      </trkpt>
      <trkpt lat="44.13484" lon="7.23931">
        <ele>1982.4</ele>
        <time>2023-02-05T10:42:17Z</time>
      </trkpt>
      <trkpt lat="44.13485" lon="7.23931">
        <ele>1982.4</ele>
        <time>2023-02-05T10:42:18Z</time>
      </trkpt>
      <trkpt lat="44.13485" lon="7.23931">
        <ele>1982.4</ele>
        <time>2023-02-05T10:42:19Z</time>
      </trkpt>
      <trkpt lat="44.13485" lon="7.23931">
        <ele>1982.4</ele>
        <time>2023-02-05T10:42:20Z</time>
      </trkpt>
      <trkpt lat="44.13484" lon="7.23931">
        <ele>1982.4</ele>
        <time>2023-02-05T10:42:21Z</time>
      </trkpt>
      <trkpt lat="44.13484" lon="7.23931">
        <ele>1982.4</ele>
        <time>2023-02-05T10:42:22Z</time>
      </trkpt>
      <trkpt lat="44.13484" lon="7.23931">
        <ele>1982.4</ele>
        <time>2023-02-05T10:42:23Z</time>
      </trkpt>
      <trkpt lat="44.13484" lon="7.23931">
        <ele>1982.4</ele>
        <time>2023-02-05T10:42:24Z</time>
      </trkpt>
      <trkpt lat="44.13484" lon="7.23931">
        <ele>1982.5</ele>
        <time>2023-02-05T10:42:25Z</time>
      </trkpt>
      <trkpt lat="44.13484" lon="7.23931">
        <ele>1982.5</ele>
        <time>2023-02-05T10:42:26Z</time>
      </trkpt>
      <trkpt lat="44.13484" lon="7.23931">
        <ele>1982.3</ele>
        <time>2023-02-05T10:42:27Z</time>
      </trkpt>
      <trkpt lat="44.13484" lon="7.23931">
        <ele>1982.4</ele>
        <time>2023-02-05T10:42:28Z</time>
      </trkpt>
      <trkpt lat="44.13484" lon="7.23931">
        <ele>1982.5</ele>
        <time>2023-02-05T10:42:29Z</time>
      </trkpt>
      <trkpt lat="44.13484" lon="7.23931">
        <ele>1982.5</ele>
        <time>2023-02-05T10:42:30Z</time>
      </trkpt>
      <trkpt lat="44.13484" lon="7.23931">
        <ele>1982.5</ele>
        <time>2023-02-05T10:42:31Z</time>
      </trkpt>
      <trkpt lat="44.13485" lon="7.23931">
        <ele>1982.5</ele>
        <time>2023-02-05T10:42:32Z</time>
      </trkpt>
      <trkpt lat="44.13484" lon="7.23931">
        <ele>1982.5</ele>
        <time>2023-02-05T10:42:33Z</time>
      </trkpt>
      <trkpt lat="44.13485" lon="7.23931">
        <ele>1982.5</ele>
        <time>2023-02-05T10:42:34Z</time>
      </trkpt>
      <trkpt lat="44.13485" lon="7.23931">
        <ele>1982.6</ele>
        <time>2023-02-05T10:42:35Z</time>
      </trkpt>
      <trkpt lat="44.13485" lon="7.23931">
        <ele>1982.6</ele>
        <time>2023-02-05T10:42:36Z</time>
      </trkpt>
      <trkpt lat="44.13485" lon="7.2393">
        <ele>1982.6</ele>
        <time>2023-02-05T10:42:37Z</time>
      </trkpt>
      <trkpt lat="44.13485" lon="7.2393">
        <ele>1982.6</ele>
        <time>2023-02-05T10:42:38Z</time>
      </trkpt>
      <trkpt lat="44.13486" lon="7.23929">
        <ele>1982.5</ele>
        <time>2023-02-05T10:42:39Z</time>
      </trkpt>
      <trkpt lat="44.13486" lon="7.23929">
        <ele>1982.5</ele>
        <time>2023-02-05T10:42:40Z</time>
      </trkpt>
      <trkpt lat="44.13487" lon="7.23928">
        <ele>1982.5</ele>
        <time>2023-02-05T10:42:41Z</time>
      </trkpt>
      <trkpt lat="44.13487" lon="7.23927">
        <ele>1982.5</ele>
        <time>2023-02-05T10:42:42Z</time>
      </trkpt>
      <trkpt lat="44.13488" lon="7.23927">
        <ele>1982.5</ele>
        <time>2023-02-05T10:42:43Z</time>
      </trkpt>
      <trkpt lat="44.13488" lon="7.23926">
        <ele>1982.6</ele>
        <time>2023-02-05T10:42:44Z</time>
      </trkpt>
      <trkpt lat="44.13488" lon="7.23925">
        <ele>1982.6</ele>
        <time>2023-02-05T10:42:45Z</time>
      </trkpt>
      <trkpt lat="44.13489" lon="7.23924">
        <ele>1982.7</ele>
        <time>2023-02-05T10:42:46Z</time>
      </trkpt>
      <trkpt lat="44.13489" lon="7.23924">
        <ele>1982.8</ele>
        <time>2023-02-05T10:42:47Z</time>
      </trkpt>
      <trkpt lat="44.1349" lon="7.23923">
        <ele>1982.9</ele>
        <time>2023-02-05T10:42:48Z</time>
      </trkpt>
      <trkpt lat="44.1349" lon="7.23922">
        <ele>1983</ele>
        <time>2023-02-05T10:42:49Z</time>
      </trkpt>
      <trkpt lat="44.1349" lon="7.23921">
        <ele>1983.1</ele>
        <time>2023-02-05T10:42:50Z</time>
      </trkpt>
      <trkpt lat="44.13491" lon="7.2392">
        <ele>1983.2</ele>
        <time>2023-02-05T10:42:51Z</time>
      </trkpt>
      <trkpt lat="44.13491" lon="7.23919">
        <ele>1983.3</ele>
        <time>2023-02-05T10:42:52Z</time>
      </trkpt>
      <trkpt lat="44.13492" lon="7.23918">
        <ele>1983.4</ele>
        <time>2023-02-05T10:42:53Z</time>
      </trkpt>
      <trkpt lat="44.13492" lon="7.23917">
        <ele>1983.4</ele>
        <time>2023-02-05T10:42:54Z</time>
      </trkpt>
      <trkpt lat="44.13492" lon="7.23917">
        <ele>1983.5</ele>
        <time>2023-02-05T10:42:55Z</time>
      </trkpt>
      <trkpt lat="44.13492" lon="7.23916">
        <ele>1983.6</ele>
        <time>2023-02-05T10:42:56Z</time>
      </trkpt>
      <trkpt lat="44.13493" lon="7.23914">
        <ele>1983.8</ele>
        <time>2023-02-05T10:42:57Z</time>
      </trkpt>
      <trkpt lat="44.13494" lon="7.23913">
        <ele>1984.1</ele>
        <time>2023-02-05T10:42:58Z</time>
      </trkpt>
      <trkpt lat="44.13494" lon="7.23912">
        <ele>1984.2</ele>
        <time>2023-02-05T10:42:59Z</time>
      </trkpt>
      <trkpt lat="44.13495" lon="7.23911">
        <ele>1984.4</ele>
        <time>2023-02-05T10:43:00Z</time>
      </trkpt>
      <trkpt lat="44.13495" lon="7.23911">
        <ele>1984.5</ele>
        <time>2023-02-05T10:43:01Z</time>
      </trkpt>
      <trkpt lat="44.13496" lon="7.2391">
        <ele>1984.7</ele>
        <time>2023-02-05T10:43:02Z</time>
      </trkpt>
      <trkpt lat="44.13496" lon="7.23909">
        <ele>1984.9</ele>
        <time>2023-02-05T10:43:03Z</time>
      </trkpt>
      <trkpt lat="44.13496" lon="7.23909">
        <ele>1985</ele>
        <time>2023-02-05T10:43:04Z</time>
      </trkpt>
      <trkpt lat="44.13496" lon="7.23908">
        <ele>1985.1</ele>
        <time>2023-02-05T10:43:05Z</time>
      </trkpt>
      <trkpt lat="44.13497" lon="7.23907">
        <ele>1985.2</ele>
        <time>2023-02-05T10:43:06Z</time>
      </trkpt>
      <trkpt lat="44.13497" lon="7.23907">
        <ele>1985.4</ele>
        <time>2023-02-05T10:43:07Z</time>
      </trkpt>
      <trkpt lat="44.13498" lon="7.23907">
        <ele>1985.5</ele>
        <time>2023-02-05T10:43:08Z</time>
      </trkpt>
      <trkpt lat="44.13498" lon="7.23906">
        <ele>1985.6</ele>
        <time>2023-02-05T10:43:09Z</time>
      </trkpt>
      <trkpt lat="44.13499" lon="7.23905">
        <ele>1985.7</ele>
        <time>2023-02-05T10:43:10Z</time>
      </trkpt>
      <trkpt lat="44.13499" lon="7.23905">
        <ele>1985.8</ele>
        <time>2023-02-05T10:43:11Z</time>
      </trkpt>
      <trkpt lat="44.135" lon="7.23904">
        <ele>1985.9</ele>
        <time>2023-02-05T10:43:12Z</time>
      </trkpt>
      <trkpt lat="44.13501" lon="7.23904">
        <ele>1986</ele>
        <time>2023-02-05T10:43:13Z</time>
      </trkpt>
      <trkpt lat="44.13501" lon="7.23903">
        <ele>1986</ele>
        <time>2023-02-05T10:43:14Z</time>
      </trkpt>
      <trkpt lat="44.13502" lon="7.23903">
        <ele>1986.1</ele>
        <time>2023-02-05T10:43:15Z</time>
      </trkpt>
      <trkpt lat="44.13503" lon="7.23902">
        <ele>1986.2</ele>
        <time>2023-02-05T10:43:16Z</time>
      </trkpt>
      <trkpt lat="44.13503" lon="7.23902">
        <ele>1986.3</ele>
        <time>2023-02-05T10:43:17Z</time>
      </trkpt>
      <trkpt lat="44.13504" lon="7.23901">
        <ele>1986.4</ele>
        <time>2023-02-05T10:43:18Z</time>
      </trkpt>
      <trkpt lat="44.13505" lon="7.23901">
        <ele>1986.6</ele>
        <time>2023-02-05T10:43:19Z</time>
      </trkpt>
      <trkpt lat="44.13506" lon="7.239">
        <ele>1986.7</ele>
        <time>2023-02-05T10:43:20Z</time>
      </trkpt>
      <trkpt lat="44.13506" lon="7.23899">
        <ele>1986.8</ele>
        <time>2023-02-05T10:43:21Z</time>
      </trkpt>
      <trkpt lat="44.13507" lon="7.23898">
        <ele>1986.8</ele>
        <time>2023-02-05T10:43:22Z</time>
      </trkpt>
      <trkpt lat="44.13507" lon="7.23897">
        <ele>1986.9</ele>
        <time>2023-02-05T10:43:23Z</time>
      </trkpt>
      <trkpt lat="44.13508" lon="7.23897">
        <ele>1987.1</ele>
        <time>2023-02-05T10:43:24Z</time>
      </trkpt>
      <trkpt lat="44.13508" lon="7.23896">
        <ele>1987.3</ele>
        <time>2023-02-05T10:43:25Z</time>
      </trkpt>
      <trkpt lat="44.13509" lon="7.23895">
        <ele>1987.4</ele>
        <time>2023-02-05T10:43:26Z</time>
      </trkpt>
      <trkpt lat="44.13509" lon="7.23894">
        <ele>1987.5</ele>
        <time>2023-02-05T10:43:27Z</time>
      </trkpt>
      <trkpt lat="44.13509" lon="7.23893">
        <ele>1987.6</ele>
        <time>2023-02-05T10:43:28Z</time>
      </trkpt>
      <trkpt lat="44.1351" lon="7.23892">
        <ele>1987.8</ele>
        <time>2023-02-05T10:43:29Z</time>
      </trkpt>
      <trkpt lat="44.13511" lon="7.23891">
        <ele>1987.8</ele>
        <time>2023-02-05T10:43:30Z</time>
      </trkpt>
      <trkpt lat="44.13511" lon="7.2389">
        <ele>1987.9</ele>
        <time>2023-02-05T10:43:31Z</time>
      </trkpt>
      <trkpt lat="44.13511" lon="7.23889">
        <ele>1988</ele>
        <time>2023-02-05T10:43:32Z</time>
      </trkpt>
      <trkpt lat="44.13511" lon="7.23888">
        <ele>1988.1</ele>
        <time>2023-02-05T10:43:33Z</time>
      </trkpt>
      <trkpt lat="44.13512" lon="7.23887">
        <ele>1988.2</ele>
        <time>2023-02-05T10:43:34Z</time>
      </trkpt>
      <trkpt lat="44.13513" lon="7.23886">
        <ele>1988.2</ele>
        <time>2023-02-05T10:43:35Z</time>
      </trkpt>
      <trkpt lat="44.13513" lon="7.23886">
        <ele>1988.3</ele>
        <time>2023-02-05T10:43:36Z</time>
      </trkpt>
      <trkpt lat="44.13514" lon="7.23885">
        <ele>1988.4</ele>
        <time>2023-02-05T10:43:37Z</time>
      </trkpt>
      <trkpt lat="44.13514" lon="7.23885">
        <ele>1988.5</ele>
        <time>2023-02-05T10:43:38Z</time>
      </trkpt>
      <trkpt lat="44.13515" lon="7.23884">
        <ele>1988.6</ele>
        <time>2023-02-05T10:43:39Z</time>
      </trkpt>
      <trkpt lat="44.13516" lon="7.23883">
        <ele>1988.6</ele>
        <time>2023-02-05T10:43:40Z</time>
      </trkpt>
      <trkpt lat="44.13516" lon="7.23882">
        <ele>1988.7</ele>
        <time>2023-02-05T10:43:41Z</time>
      </trkpt>
      <trkpt lat="44.13517" lon="7.23881">
        <ele>1988.7</ele>
        <time>2023-02-05T10:43:42Z</time>
      </trkpt>
      <trkpt lat="44.13517" lon="7.2388">
        <ele>1988.9</ele>
        <time>2023-02-05T10:43:43Z</time>
      </trkpt>
      <trkpt lat="44.13517" lon="7.2388">
        <ele>1989.1</ele>
        <time>2023-02-05T10:43:44Z</time>
      </trkpt>
      <trkpt lat="44.13517" lon="7.23878">
        <ele>1989.3</ele>
        <time>2023-02-05T10:43:45Z</time>
      </trkpt>
      <trkpt lat="44.13518" lon="7.23877">
        <ele>1989.3</ele>
        <time>2023-02-05T10:43:46Z</time>
      </trkpt>
      <trkpt lat="44.13518" lon="7.23877">
        <ele>1989.3</ele>
        <time>2023-02-05T10:43:47Z</time>
      </trkpt>
      <trkpt lat="44.13518" lon="7.23876">
        <ele>1989.3</ele>
        <time>2023-02-05T10:43:48Z</time>
      </trkpt>
      <trkpt lat="44.13519" lon="7.23874">
        <ele>1989.4</ele>
        <time>2023-02-05T10:43:49Z</time>
      </trkpt>
      <trkpt lat="44.13519" lon="7.23873">
        <ele>1989.5</ele>
        <time>2023-02-05T10:43:50Z</time>
      </trkpt>
      <trkpt lat="44.1352" lon="7.23872">
        <ele>1989.6</ele>
        <time>2023-02-05T10:43:51Z</time>
      </trkpt>
      <trkpt lat="44.1352" lon="7.23871">
        <ele>1989.7</ele>
        <time>2023-02-05T10:43:52Z</time>
      </trkpt>
      <trkpt lat="44.1352" lon="7.2387">
        <ele>1989.7</ele>
        <time>2023-02-05T10:43:53Z</time>
      </trkpt>
      <trkpt lat="44.13521" lon="7.23869">
        <ele>1989.9</ele>
        <time>2023-02-05T10:43:54Z</time>
      </trkpt>
      <trkpt lat="44.13521" lon="7.23868">
        <ele>1990</ele>
        <time>2023-02-05T10:43:55Z</time>
      </trkpt>
      <trkpt lat="44.13521" lon="7.23867">
        <ele>1990.1</ele>
        <time>2023-02-05T10:43:56Z</time>
      </trkpt>
      <trkpt lat="44.13522" lon="7.23866">
        <ele>1990.3</ele>
        <time>2023-02-05T10:43:57Z</time>
      </trkpt>
      <trkpt lat="44.13522" lon="7.23865">
        <ele>1990.3</ele>
        <time>2023-02-05T10:43:58Z</time>
      </trkpt>
      <trkpt lat="44.13523" lon="7.23864">
        <ele>1990.4</ele>
        <time>2023-02-05T10:43:59Z</time>
      </trkpt>
      <trkpt lat="44.13524" lon="7.23863">
        <ele>1990.6</ele>
        <time>2023-02-05T10:44:00Z</time>
      </trkpt>
      <trkpt lat="44.13524" lon="7.23862">
        <ele>1990.7</ele>
        <time>2023-02-05T10:44:01Z</time>
      </trkpt>
      <trkpt lat="44.13525" lon="7.23861">
        <ele>1990.8</ele>
        <time>2023-02-05T10:44:02Z</time>
      </trkpt>
      <trkpt lat="44.13525" lon="7.2386">
        <ele>1991</ele>
        <time>2023-02-05T10:44:03Z</time>
      </trkpt>
      <trkpt lat="44.13526" lon="7.23859">
        <ele>1991.1</ele>
        <time>2023-02-05T10:44:04Z</time>
      </trkpt>
      <trkpt lat="44.13526" lon="7.23858">
        <ele>1991.2</ele>
        <time>2023-02-05T10:44:05Z</time>
      </trkpt>
      <trkpt lat="44.13527" lon="7.23857">
        <ele>1991.3</ele>
        <time>2023-02-05T10:44:06Z</time>
      </trkpt>
      <trkpt lat="44.13527" lon="7.23856">
        <ele>1991.4</ele>
        <time>2023-02-05T10:44:07Z</time>
      </trkpt>
      <trkpt lat="44.13528" lon="7.23856">
        <ele>1991.5</ele>
        <time>2023-02-05T10:44:08Z</time>
      </trkpt>
      <trkpt lat="44.13528" lon="7.23854">
        <ele>1991.5</ele>
        <time>2023-02-05T10:44:09Z</time>
      </trkpt>
      <trkpt lat="44.13529" lon="7.23854">
        <ele>1991.5</ele>
        <time>2023-02-05T10:44:10Z</time>
      </trkpt>
      <trkpt lat="44.13529" lon="7.23853">
        <ele>1991.6</ele>
        <time>2023-02-05T10:44:11Z</time>
      </trkpt>
      <trkpt lat="44.13529" lon="7.23853">
        <ele>1991.7</ele>
        <time>2023-02-05T10:44:12Z</time>
      </trkpt>
      <trkpt lat="44.1353" lon="7.23852">
        <ele>1991.7</ele>
        <time>2023-02-05T10:44:13Z</time>
      </trkpt>
      <trkpt lat="44.1353" lon="7.23851">
        <ele>1991.8</ele>
        <time>2023-02-05T10:44:14Z</time>
      </trkpt>
      <trkpt lat="44.13531" lon="7.2385">
        <ele>1991.8</ele>
        <time>2023-02-05T10:44:15Z</time>
      </trkpt>
      <trkpt lat="44.13531" lon="7.23849">
        <ele>1991.8</ele>
        <time>2023-02-05T10:44:16Z</time>
      </trkpt>
      <trkpt lat="44.13532" lon="7.23848">
        <ele>1992</ele>
        <time>2023-02-05T10:44:17Z</time>
      </trkpt>
      <trkpt lat="44.13532" lon="7.23848">
        <ele>1992.2</ele>
        <time>2023-02-05T10:44:18Z</time>
      </trkpt>
      <trkpt lat="44.13533" lon="7.23847">
        <ele>1992.3</ele>
        <time>2023-02-05T10:44:19Z</time>
      </trkpt>
      <trkpt lat="44.13533" lon="7.23846">
        <ele>1992.5</ele>
        <time>2023-02-05T10:44:20Z</time>
      </trkpt>
      <trkpt lat="44.13534" lon="7.23845">
        <ele>1992.6</ele>
        <time>2023-02-05T10:44:21Z</time>
      </trkpt>
      <trkpt lat="44.13534" lon="7.23845">
        <ele>1992.7</ele>
        <time>2023-02-05T10:44:22Z</time>
      </trkpt>
      <trkpt lat="44.13535" lon="7.23845">
        <ele>1992.7</ele>
        <time>2023-02-05T10:44:23Z</time>
      </trkpt>
      <trkpt lat="44.13535" lon="7.23844">
        <ele>1992.8</ele>
        <time>2023-02-05T10:44:24Z</time>
      </trkpt>
      <trkpt lat="44.13536" lon="7.23844">
        <ele>1992.9</ele>
        <time>2023-02-05T10:44:25Z</time>
      </trkpt>
      <trkpt lat="44.13536" lon="7.23844">
        <ele>1992.9</ele>
        <time>2023-02-05T10:44:26Z</time>
      </trkpt>
      <trkpt lat="44.13537" lon="7.23843">
        <ele>1993</ele>
        <time>2023-02-05T10:44:27Z</time>
      </trkpt>
      <trkpt lat="44.13538" lon="7.23842">
        <ele>1993.1</ele>
        <time>2023-02-05T10:44:28Z</time>
      </trkpt>
      <trkpt lat="44.13538" lon="7.23841">
        <ele>1993.1</ele>
        <time>2023-02-05T10:44:29Z</time>
      </trkpt>
      <trkpt lat="44.13539" lon="7.23841">
        <ele>1993.2</ele>
        <time>2023-02-05T10:44:30Z</time>
      </trkpt>
      <trkpt lat="44.13539" lon="7.2384">
        <ele>1993.2</ele>
        <time>2023-02-05T10:44:31Z</time>
      </trkpt>
      <trkpt lat="44.1354" lon="7.23839">
        <ele>1993.2</ele>
        <time>2023-02-05T10:44:32Z</time>
      </trkpt>
      <trkpt lat="44.1354" lon="7.23837">
        <ele>1993.3</ele>
        <time>2023-02-05T10:44:33Z</time>
      </trkpt>
      <trkpt lat="44.13541" lon="7.23837">
        <ele>1993.4</ele>
        <time>2023-02-05T10:44:34Z</time>
      </trkpt>
      <trkpt lat="44.13541" lon="7.23836">
        <ele>1993.4</ele>
        <time>2023-02-05T10:44:35Z</time>
      </trkpt>
      <trkpt lat="44.13542" lon="7.23835">
        <ele>1993.6</ele>
        <time>2023-02-05T10:44:36Z</time>
      </trkpt>
      <trkpt lat="44.13542" lon="7.23834">
        <ele>1993.6</ele>
        <time>2023-02-05T10:44:37Z</time>
      </trkpt>
      <trkpt lat="44.13543" lon="7.23833">
        <ele>1993.7</ele>
        <time>2023-02-05T10:44:38Z</time>
      </trkpt>
      <trkpt lat="44.13543" lon="7.23833">
        <ele>1993.8</ele>
        <time>2023-02-05T10:44:39Z</time>
      </trkpt>
      <trkpt lat="44.13544" lon="7.23831">
        <ele>1993.9</ele>
        <time>2023-02-05T10:44:40Z</time>
      </trkpt>
      <trkpt lat="44.13544" lon="7.2383">
        <ele>1994</ele>
        <time>2023-02-05T10:44:41Z</time>
      </trkpt>
      <trkpt lat="44.13545" lon="7.23829">
        <ele>1994.1</ele>
        <time>2023-02-05T10:44:42Z</time>
      </trkpt>
      <trkpt lat="44.13545" lon="7.23829">
        <ele>1994.2</ele>
        <time>2023-02-05T10:44:43Z</time>
      </trkpt>
      <trkpt lat="44.13546" lon="7.23828">
        <ele>1994.2</ele>
        <time>2023-02-05T10:44:44Z</time>
      </trkpt>
      <trkpt lat="44.13546" lon="7.23826">
        <ele>1994.3</ele>
        <time>2023-02-05T10:44:45Z</time>
      </trkpt>
      <trkpt lat="44.13547" lon="7.23825">
        <ele>1994.4</ele>
        <time>2023-02-05T10:44:46Z</time>
      </trkpt>
      <trkpt lat="44.13547" lon="7.23824">
        <ele>1994.4</ele>
        <time>2023-02-05T10:44:47Z</time>
      </trkpt>
      <trkpt lat="44.13548" lon="7.23823">
        <ele>1994.5</ele>
        <time>2023-02-05T10:44:48Z</time>
      </trkpt>
      <trkpt lat="44.13548" lon="7.23822">
        <ele>1994.5</ele>
        <time>2023-02-05T10:44:49Z</time>
      </trkpt>
      <trkpt lat="44.13548" lon="7.23821">
        <ele>1994.5</ele>
        <time>2023-02-05T10:44:50Z</time>
      </trkpt>
      <trkpt lat="44.13548" lon="7.2382">
        <ele>1994.6</ele>
        <time>2023-02-05T10:44:51Z</time>
      </trkpt>
      <trkpt lat="44.13548" lon="7.23819">
        <ele>1994.7</ele>
        <time>2023-02-05T10:44:52Z</time>
      </trkpt>
      <trkpt lat="44.13549" lon="7.23818">
        <ele>1994.8</ele>
        <time>2023-02-05T10:44:53Z</time>
      </trkpt>
      <trkpt lat="44.13549" lon="7.23817">
        <ele>1994.8</ele>
        <time>2023-02-05T10:44:54Z</time>
      </trkpt>
      <trkpt lat="44.13549" lon="7.23816">
        <ele>1995</ele>
        <time>2023-02-05T10:44:55Z</time>
      </trkpt>
      <trkpt lat="44.1355" lon="7.23815">
        <ele>1995.2</ele>
        <time>2023-02-05T10:44:56Z</time>
      </trkpt>
      <trkpt lat="44.1355" lon="7.23814">
        <ele>1995.2</ele>
        <time>2023-02-05T10:44:57Z</time>
      </trkpt>
      <trkpt lat="44.13551" lon="7.23813">
        <ele>1995.3</ele>
        <time>2023-02-05T10:44:58Z</time>
      </trkpt>
      <trkpt lat="44.13551" lon="7.23812">
        <ele>1995.3</ele>
        <time>2023-02-05T10:44:59Z</time>
      </trkpt>
      <trkpt lat="44.13551" lon="7.23812">
        <ele>1995.4</ele>
        <time>2023-02-05T10:45:00Z</time>
      </trkpt>
      <trkpt lat="44.13552" lon="7.23811">
        <ele>1995.5</ele>
        <time>2023-02-05T10:45:01Z</time>
      </trkpt>
      <trkpt lat="44.13552" lon="7.2381">
        <ele>1995.6</ele>
        <time>2023-02-05T10:45:02Z</time>
      </trkpt>
      <trkpt lat="44.13552" lon="7.23809">
        <ele>1995.7</ele>
        <time>2023-02-05T10:45:03Z</time>
      </trkpt>
      <trkpt lat="44.13553" lon="7.23808">
        <ele>1995.8</ele>
        <time>2023-02-05T10:45:04Z</time>
      </trkpt>
      <trkpt lat="44.13553" lon="7.23807">
        <ele>1995.8</ele>
        <time>2023-02-05T10:45:05Z</time>
      </trkpt>
      <trkpt lat="44.13554" lon="7.23806">
        <ele>1995.8</ele>
        <time>2023-02-05T10:45:06Z</time>
      </trkpt>
      <trkpt lat="44.13554" lon="7.23806">
        <ele>1996</ele>
        <time>2023-02-05T10:45:07Z</time>
      </trkpt>
      <trkpt lat="44.13554" lon="7.23805">
        <ele>1996.1</ele>
        <time>2023-02-05T10:45:08Z</time>
      </trkpt>
      <trkpt lat="44.13555" lon="7.23804">
        <ele>1996.2</ele>
        <time>2023-02-05T10:45:09Z</time>
      </trkpt>
      <trkpt lat="44.13555" lon="7.23803">
        <ele>1996.2</ele>
        <time>2023-02-05T10:45:10Z</time>
      </trkpt>
      <trkpt lat="44.13555" lon="7.23802">
        <ele>1996.2</ele>
        <time>2023-02-05T10:45:11Z</time>
      </trkpt>
      <trkpt lat="44.13556" lon="7.23801">
        <ele>1996.2</ele>
        <time>2023-02-05T10:45:12Z</time>
      </trkpt>
      <trkpt lat="44.13556" lon="7.238">
        <ele>1996.3</ele>
        <time>2023-02-05T10:45:13Z</time>
      </trkpt>
      <trkpt lat="44.13556" lon="7.23799">
        <ele>1996.4</ele>
        <time>2023-02-05T10:45:14Z</time>
      </trkpt>
      <trkpt lat="44.13556" lon="7.23798">
        <ele>1996.5</ele>
        <time>2023-02-05T10:45:15Z</time>
      </trkpt>
      <trkpt lat="44.13556" lon="7.23797">
        <ele>1996.6</ele>
        <time>2023-02-05T10:45:16Z</time>
      </trkpt>
      <trkpt lat="44.13556" lon="7.23796">
        <ele>1996.7</ele>
        <time>2023-02-05T10:45:17Z</time>
      </trkpt>
      <trkpt lat="44.13557" lon="7.23794">
        <ele>1997.1</ele>
        <time>2023-02-05T10:45:18Z</time>
      </trkpt>
      <trkpt lat="44.13557" lon="7.23793">
        <ele>1997.2</ele>
        <time>2023-02-05T10:45:19Z</time>
      </trkpt>
      <trkpt lat="44.13557" lon="7.23792">
        <ele>1997.3</ele>
        <time>2023-02-05T10:45:20Z</time>
      </trkpt>
      <trkpt lat="44.13558" lon="7.2379">
        <ele>1997.3</ele>
        <time>2023-02-05T10:45:21Z</time>
      </trkpt>
      <trkpt lat="44.13558" lon="7.23789">
        <ele>1997.4</ele>
        <time>2023-02-05T10:45:22Z</time>
      </trkpt>
      <trkpt lat="44.13558" lon="7.23788">
        <ele>1997.5</ele>
        <time>2023-02-05T10:45:23Z</time>
      </trkpt>
      <trkpt lat="44.13558" lon="7.23787">
        <ele>1997.7</ele>
        <time>2023-02-05T10:45:24Z</time>
      </trkpt>
      <trkpt lat="44.13558" lon="7.23786">
        <ele>1997.7</ele>
        <time>2023-02-05T10:45:25Z</time>
      </trkpt>
      <trkpt lat="44.13559" lon="7.23784">
        <ele>1997.7</ele>
        <time>2023-02-05T10:45:26Z</time>
      </trkpt>
      <trkpt lat="44.13559" lon="7.23783">
        <ele>1997.9</ele>
        <time>2023-02-05T10:45:27Z</time>
      </trkpt>
      <trkpt lat="44.13559" lon="7.23782">
        <ele>1998</ele>
        <time>2023-02-05T10:45:28Z</time>
      </trkpt>
      <trkpt lat="44.1356" lon="7.23781">
        <ele>1998.1</ele>
        <time>2023-02-05T10:45:29Z</time>
      </trkpt>
      <trkpt lat="44.1356" lon="7.2378">
        <ele>1998.3</ele>
        <time>2023-02-05T10:45:30Z</time>
      </trkpt>
      <trkpt lat="44.13561" lon="7.23778">
        <ele>1998.5</ele>
        <time>2023-02-05T10:45:31Z</time>
      </trkpt>
      <trkpt lat="44.13561" lon="7.23777">
        <ele>1998.6</ele>
        <time>2023-02-05T10:45:32Z</time>
      </trkpt>
      <trkpt lat="44.13561" lon="7.23776">
        <ele>1998.8</ele>
        <time>2023-02-05T10:45:33Z</time>
      </trkpt>
      <trkpt lat="44.13561" lon="7.23775">
        <ele>1999</ele>
        <time>2023-02-05T10:45:34Z</time>
      </trkpt>
      <trkpt lat="44.13561" lon="7.23774">
        <ele>1999.2</ele>
        <time>2023-02-05T10:45:35Z</time>
      </trkpt>
      <trkpt lat="44.13562" lon="7.23773">
        <ele>1999.3</ele>
        <time>2023-02-05T10:45:36Z</time>
      </trkpt>
      <trkpt lat="44.13562" lon="7.23772">
        <ele>1999.4</ele>
        <time>2023-02-05T10:45:37Z</time>
      </trkpt>
      <trkpt lat="44.13562" lon="7.2377">
        <ele>1999.4</ele>
        <time>2023-02-05T10:45:38Z</time>
      </trkpt>
      <trkpt lat="44.13562" lon="7.23769">
        <ele>1999.6</ele>
        <time>2023-02-05T10:45:39Z</time>
      </trkpt>
      <trkpt lat="44.13563" lon="7.23768">
        <ele>1999.7</ele>
        <time>2023-02-05T10:45:40Z</time>
      </trkpt>
      <trkpt lat="44.13563" lon="7.23767">
        <ele>1999.8</ele>
        <time>2023-02-05T10:45:41Z</time>
      </trkpt>
      <trkpt lat="44.13563" lon="7.23766">
        <ele>1999.8</ele>
        <time>2023-02-05T10:45:42Z</time>
      </trkpt>
      <trkpt lat="44.13564" lon="7.23765">
        <ele>1999.9</ele>
        <time>2023-02-05T10:45:43Z</time>
      </trkpt>
      <trkpt lat="44.13564" lon="7.23764">
        <ele>2000</ele>
        <time>2023-02-05T10:45:44Z</time>
      </trkpt>
      <trkpt lat="44.13564" lon="7.23763">
        <ele>2000.1</ele>
        <time>2023-02-05T10:45:45Z</time>
      </trkpt>
      <trkpt lat="44.13564" lon="7.23762">
        <ele>2000.2</ele>
        <time>2023-02-05T10:45:46Z</time>
      </trkpt>
      <trkpt lat="44.13565" lon="7.23761">
        <ele>2000.2</ele>
        <time>2023-02-05T10:45:47Z</time>
      </trkpt>
      <trkpt lat="44.13565" lon="7.2376">
        <ele>2000.3</ele>
        <time>2023-02-05T10:45:48Z</time>
      </trkpt>
      <trkpt lat="44.13566" lon="7.23758">
        <ele>2000.4</ele>
        <time>2023-02-05T10:45:49Z</time>
      </trkpt>
      <trkpt lat="44.13566" lon="7.23757">
        <ele>2000.5</ele>
        <time>2023-02-05T10:45:50Z</time>
      </trkpt>
      <trkpt lat="44.13566" lon="7.23756">
        <ele>2000.6</ele>
        <time>2023-02-05T10:45:51Z</time>
      </trkpt>
      <trkpt lat="44.13566" lon="7.23755">
        <ele>2000.7</ele>
        <time>2023-02-05T10:45:52Z</time>
      </trkpt>
      <trkpt lat="44.13567" lon="7.23753">
        <ele>2000.8</ele>
        <time>2023-02-05T10:45:53Z</time>
      </trkpt>
      <trkpt lat="44.13568" lon="7.23753">
        <ele>2000.9</ele>
        <time>2023-02-05T10:45:54Z</time>
      </trkpt>
      <trkpt lat="44.13568" lon="7.23752">
        <ele>2000.9</ele>
        <time>2023-02-05T10:45:55Z</time>
      </trkpt>
      <trkpt lat="44.13568" lon="7.23751">
        <ele>2000.9</ele>
        <time>2023-02-05T10:45:56Z</time>
      </trkpt>
      <trkpt lat="44.13569" lon="7.2375">
        <ele>2001</ele>
        <time>2023-02-05T10:45:57Z</time>
      </trkpt>
      <trkpt lat="44.13569" lon="7.23749">
        <ele>2001.1</ele>
        <time>2023-02-05T10:45:58Z</time>
      </trkpt>
      <trkpt lat="44.13569" lon="7.23748">
        <ele>2001.3</ele>
        <time>2023-02-05T10:45:59Z</time>
      </trkpt>
      <trkpt lat="44.13569" lon="7.23746">
        <ele>2001.3</ele>
        <time>2023-02-05T10:46:00Z</time>
      </trkpt>
      <trkpt lat="44.1357" lon="7.23744">
        <ele>2001.5</ele>
        <time>2023-02-05T10:46:01Z</time>
      </trkpt>
      <trkpt lat="44.1357" lon="7.23743">
        <ele>2001.6</ele>
        <time>2023-02-05T10:46:02Z</time>
      </trkpt>
      <trkpt lat="44.13571" lon="7.23741">
        <ele>2001.8</ele>
        <time>2023-02-05T10:46:03Z</time>
      </trkpt>
      <trkpt lat="44.13571" lon="7.2374">
        <ele>2001.9</ele>
        <time>2023-02-05T10:46:04Z</time>
      </trkpt>
      <trkpt lat="44.13571" lon="7.23739">
        <ele>2002.1</ele>
        <time>2023-02-05T10:46:05Z</time>
      </trkpt>
      <trkpt lat="44.1357" lon="7.23738">
        <ele>2002.2</ele>
        <time>2023-02-05T10:46:06Z</time>
      </trkpt>
      <trkpt lat="44.13571" lon="7.23737">
        <ele>2002.3</ele>
        <time>2023-02-05T10:46:07Z</time>
      </trkpt>
      <trkpt lat="44.13571" lon="7.23736">
        <ele>2002.4</ele>
        <time>2023-02-05T10:46:08Z</time>
      </trkpt>
      <trkpt lat="44.13571" lon="7.23735">
        <ele>2002.6</ele>
        <time>2023-02-05T10:46:09Z</time>
      </trkpt>
      <trkpt lat="44.13571" lon="7.23734">
        <ele>2002.7</ele>
        <time>2023-02-05T10:46:10Z</time>
      </trkpt>
      <trkpt lat="44.13572" lon="7.23733">
        <ele>2002.7</ele>
        <time>2023-02-05T10:46:11Z</time>
      </trkpt>
      <trkpt lat="44.13572" lon="7.23732">
        <ele>2002.8</ele>
        <time>2023-02-05T10:46:12Z</time>
      </trkpt>
      <trkpt lat="44.13572" lon="7.23731">
        <ele>2002.9</ele>
        <time>2023-02-05T10:46:13Z</time>
      </trkpt>
      <trkpt lat="44.13573" lon="7.23731">
        <ele>2003.1</ele>
        <time>2023-02-05T10:46:14Z</time>
      </trkpt>
      <trkpt lat="44.13573" lon="7.2373">
        <ele>2003.1</ele>
        <time>2023-02-05T10:46:15Z</time>
      </trkpt>
      <trkpt lat="44.13573" lon="7.23729">
        <ele>2003.3</ele>
        <time>2023-02-05T10:46:16Z</time>
      </trkpt>
      <trkpt lat="44.13574" lon="7.23728">
        <ele>2003.4</ele>
        <time>2023-02-05T10:46:17Z</time>
      </trkpt>
      <trkpt lat="44.13575" lon="7.23727">
        <ele>2003.5</ele>
        <time>2023-02-05T10:46:18Z</time>
      </trkpt>
      <trkpt lat="44.13575" lon="7.23726">
        <ele>2003.6</ele>
        <time>2023-02-05T10:46:19Z</time>
      </trkpt>
      <trkpt lat="44.13575" lon="7.23725">
        <ele>2003.7</ele>
        <time>2023-02-05T10:46:20Z</time>
      </trkpt>
      <trkpt lat="44.13575" lon="7.23724">
        <ele>2003.8</ele>
        <time>2023-02-05T10:46:21Z</time>
      </trkpt>
      <trkpt lat="44.13576" lon="7.23723">
        <ele>2003.9</ele>
        <time>2023-02-05T10:46:22Z</time>
      </trkpt>
      <trkpt lat="44.13576" lon="7.23721">
        <ele>2003.9</ele>
        <time>2023-02-05T10:46:23Z</time>
      </trkpt>
      <trkpt lat="44.13576" lon="7.2372">
        <ele>2004</ele>
        <time>2023-02-05T10:46:24Z</time>
      </trkpt>
      <trkpt lat="44.13576" lon="7.23719">
        <ele>2004</ele>
        <time>2023-02-05T10:46:25Z</time>
      </trkpt>
      <trkpt lat="44.13576" lon="7.23719">
        <ele>2004.1</ele>
        <time>2023-02-05T10:46:26Z</time>
      </trkpt>
      <trkpt lat="44.13576" lon="7.23718">
        <ele>2004.1</ele>
        <time>2023-02-05T10:46:27Z</time>
      </trkpt>
      <trkpt lat="44.13577" lon="7.23717">
        <ele>2004.1</ele>
        <time>2023-02-05T10:46:28Z</time>
      </trkpt>
      <trkpt lat="44.13577" lon="7.23716">
        <ele>2004.1</ele>
        <time>2023-02-05T10:46:29Z</time>
      </trkpt>
      <trkpt lat="44.13577" lon="7.23714">
        <ele>2004.2</ele>
        <time>2023-02-05T10:46:30Z</time>
      </trkpt>
      <trkpt lat="44.13578" lon="7.23713">
        <ele>2004.3</ele>
        <time>2023-02-05T10:46:31Z</time>
      </trkpt>
      <trkpt lat="44.13578" lon="7.23712">
        <ele>2004.4</ele>
        <time>2023-02-05T10:46:32Z</time>
      </trkpt>
      <trkpt lat="44.13578" lon="7.23711">
        <ele>2004.5</ele>
        <time>2023-02-05T10:46:33Z</time>
      </trkpt>
      <trkpt lat="44.13578" lon="7.2371">
        <ele>2004.7</ele>
        <time>2023-02-05T10:46:34Z</time>
      </trkpt>
      <trkpt lat="44.13578" lon="7.23709">
        <ele>2004.8</ele>
        <time>2023-02-05T10:46:35Z</time>
      </trkpt>
      <trkpt lat="44.13579" lon="7.23708">
        <ele>2004.8</ele>
        <time>2023-02-05T10:46:36Z</time>
      </trkpt>
      <trkpt lat="44.13579" lon="7.23707">
        <ele>2004.8</ele>
        <time>2023-02-05T10:46:37Z</time>
      </trkpt>
      <trkpt lat="44.1358" lon="7.23705">
        <ele>2004.7</ele>
        <time>2023-02-05T10:46:38Z</time>
      </trkpt>
      <trkpt lat="44.1358" lon="7.23704">
        <ele>2004.7</ele>
        <time>2023-02-05T10:46:39Z</time>
      </trkpt>
      <trkpt lat="44.13581" lon="7.23703">
        <ele>2004.8</ele>
        <time>2023-02-05T10:46:40Z</time>
      </trkpt>
      <trkpt lat="44.13582" lon="7.23702">
        <ele>2004.8</ele>
        <time>2023-02-05T10:46:41Z</time>
      </trkpt>
      <trkpt lat="44.13582" lon="7.23701">
        <ele>2004.8</ele>
        <time>2023-02-05T10:46:42Z</time>
      </trkpt>
      <trkpt lat="44.13581" lon="7.237">
        <ele>2004.9</ele>
        <time>2023-02-05T10:46:43Z</time>
      </trkpt>
      <trkpt lat="44.13582" lon="7.23699">
        <ele>2005.1</ele>
        <time>2023-02-05T10:46:44Z</time>
      </trkpt>
      <trkpt lat="44.13582" lon="7.23698">
        <ele>2005.2</ele>
        <time>2023-02-05T10:46:45Z</time>
      </trkpt>
      <trkpt lat="44.13583" lon="7.23697">
        <ele>2005.3</ele>
        <time>2023-02-05T10:46:46Z</time>
      </trkpt>
      <trkpt lat="44.13584" lon="7.23696">
        <ele>2005.5</ele>
        <time>2023-02-05T10:46:47Z</time>
      </trkpt>
      <trkpt lat="44.13584" lon="7.23695">
        <ele>2005.6</ele>
        <time>2023-02-05T10:46:48Z</time>
      </trkpt>
      <trkpt lat="44.13585" lon="7.23695">
        <ele>2005.7</ele>
        <time>2023-02-05T10:46:49Z</time>
      </trkpt>
      <trkpt lat="44.13585" lon="7.23693">
        <ele>2005.8</ele>
        <time>2023-02-05T10:46:50Z</time>
      </trkpt>
      <trkpt lat="44.13586" lon="7.23692">
        <ele>2005.9</ele>
        <time>2023-02-05T10:46:51Z</time>
      </trkpt>
      <trkpt lat="44.13586" lon="7.2369">
        <ele>2006.3</ele>
        <time>2023-02-05T10:46:52Z</time>
      </trkpt>
      <trkpt lat="44.13587" lon="7.23689">
        <ele>2006.4</ele>
        <time>2023-02-05T10:46:53Z</time>
      </trkpt>
      <trkpt lat="44.13587" lon="7.23689">
        <ele>2006.6</ele>
        <time>2023-02-05T10:46:54Z</time>
      </trkpt>
      <trkpt lat="44.13587" lon="7.23688">
        <ele>2006.8</ele>
        <time>2023-02-05T10:46:55Z</time>
      </trkpt>
      <trkpt lat="44.13588" lon="7.23686">
        <ele>2007</ele>
        <time>2023-02-05T10:46:56Z</time>
      </trkpt>
      <trkpt lat="44.13588" lon="7.23685">
        <ele>2007.1</ele>
        <time>2023-02-05T10:46:57Z</time>
      </trkpt>
      <trkpt lat="44.13588" lon="7.23684">
        <ele>2007.1</ele>
        <time>2023-02-05T10:46:58Z</time>
      </trkpt>
      <trkpt lat="44.13589" lon="7.23682">
        <ele>2007.2</ele>
        <time>2023-02-05T10:46:59Z</time>
      </trkpt>
      <trkpt lat="44.1359" lon="7.23681">
        <ele>2007.3</ele>
        <time>2023-02-05T10:47:00Z</time>
      </trkpt>
      <trkpt lat="44.1359" lon="7.2368">
        <ele>2007.3</ele>
        <time>2023-02-05T10:47:01Z</time>
      </trkpt>
      <trkpt lat="44.13591" lon="7.23678">
        <ele>2007.3</ele>
        <time>2023-02-05T10:47:02Z</time>
      </trkpt>
      <trkpt lat="44.13591" lon="7.23677">
        <ele>2007.4</ele>
        <time>2023-02-05T10:47:03Z</time>
      </trkpt>
      <trkpt lat="44.13592" lon="7.23676">
        <ele>2007.4</ele>
        <time>2023-02-05T10:47:04Z</time>
      </trkpt>
      <trkpt lat="44.13592" lon="7.23674">
        <ele>2007.5</ele>
        <time>2023-02-05T10:47:05Z</time>
      </trkpt>
      <trkpt lat="44.13593" lon="7.23673">
        <ele>2007.5</ele>
        <time>2023-02-05T10:47:06Z</time>
      </trkpt>
      <trkpt lat="44.13593" lon="7.23672">
        <ele>2007.6</ele>
        <time>2023-02-05T10:47:07Z</time>
      </trkpt>
      <trkpt lat="44.13594" lon="7.23671">
        <ele>2007.7</ele>
        <time>2023-02-05T10:47:08Z</time>
      </trkpt>
      <trkpt lat="44.13594" lon="7.23669">
        <ele>2007.8</ele>
        <time>2023-02-05T10:47:09Z</time>
      </trkpt>
      <trkpt lat="44.13594" lon="7.23668">
        <ele>2007.9</ele>
        <time>2023-02-05T10:47:10Z</time>
      </trkpt>
      <trkpt lat="44.13595" lon="7.23667">
        <ele>2008</ele>
        <time>2023-02-05T10:47:11Z</time>
      </trkpt>
      <trkpt lat="44.13595" lon="7.23666">
        <ele>2008.2</ele>
        <time>2023-02-05T10:47:12Z</time>
      </trkpt>
      <trkpt lat="44.13595" lon="7.23664">
        <ele>2008.3</ele>
        <time>2023-02-05T10:47:13Z</time>
      </trkpt>
      <trkpt lat="44.13595" lon="7.23663">
        <ele>2008.5</ele>
        <time>2023-02-05T10:47:14Z</time>
      </trkpt>
      <trkpt lat="44.13596" lon="7.23662">
        <ele>2008.4</ele>
        <time>2023-02-05T10:47:15Z</time>
      </trkpt>
      <trkpt lat="44.13596" lon="7.23661">
        <ele>2008.4</ele>
        <time>2023-02-05T10:47:16Z</time>
      </trkpt>
      <trkpt lat="44.13597" lon="7.2366">
        <ele>2008.4</ele>
        <time>2023-02-05T10:47:17Z</time>
      </trkpt>
      <trkpt lat="44.13597" lon="7.23659">
        <ele>2008.4</ele>
        <time>2023-02-05T10:47:18Z</time>
      </trkpt>
      <trkpt lat="44.13598" lon="7.23657">
        <ele>2008.4</ele>
        <time>2023-02-05T10:47:19Z</time>
      </trkpt>
      <trkpt lat="44.13598" lon="7.23656">
        <ele>2008.4</ele>
        <time>2023-02-05T10:47:20Z</time>
      </trkpt>
      <trkpt lat="44.13598" lon="7.23656">
        <ele>2008.5</ele>
        <time>2023-02-05T10:47:21Z</time>
      </trkpt>
      <trkpt lat="44.13599" lon="7.23655">
        <ele>2008.5</ele>
        <time>2023-02-05T10:47:22Z</time>
      </trkpt>
      <trkpt lat="44.13599" lon="7.23654">
        <ele>2008.6</ele>
        <time>2023-02-05T10:47:23Z</time>
      </trkpt>
      <trkpt lat="44.136" lon="7.23653">
        <ele>2008.7</ele>
        <time>2023-02-05T10:47:24Z</time>
      </trkpt>
      <trkpt lat="44.136" lon="7.23653">
        <ele>2008.8</ele>
        <time>2023-02-05T10:47:25Z</time>
      </trkpt>
      <trkpt lat="44.13601" lon="7.23652">
        <ele>2008.9</ele>
        <time>2023-02-05T10:47:26Z</time>
      </trkpt>
      <trkpt lat="44.13601" lon="7.23651">
        <ele>2009</ele>
        <time>2023-02-05T10:47:27Z</time>
      </trkpt>
      <trkpt lat="44.13601" lon="7.2365">
        <ele>2009.1</ele>
        <time>2023-02-05T10:47:28Z</time>
      </trkpt>
      <trkpt lat="44.13601" lon="7.2365">
        <ele>2009.3</ele>
        <time>2023-02-05T10:47:29Z</time>
      </trkpt>
      <trkpt lat="44.13602" lon="7.23648">
        <ele>2009.5</ele>
        <time>2023-02-05T10:47:30Z</time>
      </trkpt>
      <trkpt lat="44.13602" lon="7.23648">
        <ele>2009.6</ele>
        <time>2023-02-05T10:47:31Z</time>
      </trkpt>
      <trkpt lat="44.13603" lon="7.23647">
        <ele>2009.7</ele>
        <time>2023-02-05T10:47:32Z</time>
      </trkpt>
      <trkpt lat="44.13603" lon="7.23646">
        <ele>2009.8</ele>
        <time>2023-02-05T10:47:33Z</time>
      </trkpt>
      <trkpt lat="44.13604" lon="7.23645">
        <ele>2009.8</ele>
        <time>2023-02-05T10:47:34Z</time>
      </trkpt>
      <trkpt lat="44.13604" lon="7.23644">
        <ele>2009.9</ele>
        <time>2023-02-05T10:47:35Z</time>
      </trkpt>
      <trkpt lat="44.13604" lon="7.23643">
        <ele>2009.9</ele>
        <time>2023-02-05T10:47:36Z</time>
      </trkpt>
      <trkpt lat="44.13605" lon="7.23642">
        <ele>2010.1</ele>
        <time>2023-02-05T10:47:37Z</time>
      </trkpt>
      <trkpt lat="44.13605" lon="7.23641">
        <ele>2010.2</ele>
        <time>2023-02-05T10:47:38Z</time>
      </trkpt>
      <trkpt lat="44.13605" lon="7.23639">
        <ele>2010.3</ele>
        <time>2023-02-05T10:47:39Z</time>
      </trkpt>
      <trkpt lat="44.13606" lon="7.23638">
        <ele>2010.4</ele>
        <time>2023-02-05T10:47:40Z</time>
      </trkpt>
      <trkpt lat="44.13606" lon="7.23637">
        <ele>2010.4</ele>
        <time>2023-02-05T10:47:41Z</time>
      </trkpt>
      <trkpt lat="44.13607" lon="7.23636">
        <ele>2010.5</ele>
        <time>2023-02-05T10:47:42Z</time>
      </trkpt>
      <trkpt lat="44.13607" lon="7.23634">
        <ele>2010.6</ele>
        <time>2023-02-05T10:47:43Z</time>
      </trkpt>
      <trkpt lat="44.13608" lon="7.23633">
        <ele>2010.7</ele>
        <time>2023-02-05T10:47:44Z</time>
      </trkpt>
      <trkpt lat="44.13608" lon="7.23631">
        <ele>2010.7</ele>
        <time>2023-02-05T10:47:45Z</time>
      </trkpt>
      <trkpt lat="44.13608" lon="7.2363">
        <ele>2010.7</ele>
        <time>2023-02-05T10:47:46Z</time>
      </trkpt>
      <trkpt lat="44.13608" lon="7.23629">
        <ele>2010.8</ele>
        <time>2023-02-05T10:47:47Z</time>
      </trkpt>
      <trkpt lat="44.13609" lon="7.23629">
        <ele>2010.9</ele>
        <time>2023-02-05T10:47:48Z</time>
      </trkpt>
      <trkpt lat="44.13609" lon="7.23628">
        <ele>2010.9</ele>
        <time>2023-02-05T10:47:49Z</time>
      </trkpt>
      <trkpt lat="44.1361" lon="7.23627">
        <ele>2011</ele>
        <time>2023-02-05T10:47:50Z</time>
      </trkpt>
      <trkpt lat="44.13611" lon="7.23626">
        <ele>2011.1</ele>
        <time>2023-02-05T10:47:51Z</time>
      </trkpt>
      <trkpt lat="44.13611" lon="7.23625">
        <ele>2011.2</ele>
        <time>2023-02-05T10:47:52Z</time>
      </trkpt>
      <trkpt lat="44.13611" lon="7.23624">
        <ele>2011.2</ele>
        <time>2023-02-05T10:47:53Z</time>
      </trkpt>
      <trkpt lat="44.13611" lon="7.23623">
        <ele>2011.4</ele>
        <time>2023-02-05T10:47:54Z</time>
      </trkpt>
      <trkpt lat="44.13611" lon="7.23621">
        <ele>2011.5</ele>
        <time>2023-02-05T10:47:55Z</time>
      </trkpt>
      <trkpt lat="44.13611" lon="7.2362">
        <ele>2011.6</ele>
        <time>2023-02-05T10:47:56Z</time>
      </trkpt>
      <trkpt lat="44.13612" lon="7.23619">
        <ele>2011.8</ele>
        <time>2023-02-05T10:47:57Z</time>
      </trkpt>
      <trkpt lat="44.13612" lon="7.23617">
        <ele>2011.9</ele>
        <time>2023-02-05T10:47:58Z</time>
      </trkpt>
      <trkpt lat="44.13612" lon="7.23616">
        <ele>2012</ele>
        <time>2023-02-05T10:47:59Z</time>
      </trkpt>
      <trkpt lat="44.13613" lon="7.23615">
        <ele>2012.1</ele>
        <time>2023-02-05T10:48:00Z</time>
      </trkpt>
      <trkpt lat="44.13613" lon="7.23614">
        <ele>2012.1</ele>
        <time>2023-02-05T10:48:01Z</time>
      </trkpt>
      <trkpt lat="44.13614" lon="7.23613">
        <ele>2012.2</ele>
        <time>2023-02-05T10:48:02Z</time>
      </trkpt>
      <trkpt lat="44.13614" lon="7.23613">
        <ele>2012.2</ele>
        <time>2023-02-05T10:48:03Z</time>
      </trkpt>
      <trkpt lat="44.13615" lon="7.23613">
        <ele>2012.3</ele>
        <time>2023-02-05T10:48:04Z</time>
      </trkpt>
      <trkpt lat="44.13615" lon="7.23612">
        <ele>2012.3</ele>
        <time>2023-02-05T10:48:05Z</time>
      </trkpt>
      <trkpt lat="44.13616" lon="7.23612">
        <ele>2012.4</ele>
        <time>2023-02-05T10:48:06Z</time>
      </trkpt>
      <trkpt lat="44.13616" lon="7.23611">
        <ele>2012.4</ele>
        <time>2023-02-05T10:48:07Z</time>
      </trkpt>
      <trkpt lat="44.13617" lon="7.23611">
        <ele>2012.5</ele>
        <time>2023-02-05T10:48:08Z</time>
      </trkpt>
      <trkpt lat="44.13617" lon="7.2361">
        <ele>2012.6</ele>
        <time>2023-02-05T10:48:09Z</time>
      </trkpt>
      <trkpt lat="44.13618" lon="7.23609">
        <ele>2012.7</ele>
        <time>2023-02-05T10:48:10Z</time>
      </trkpt>
      <trkpt lat="44.13618" lon="7.23609">
        <ele>2012.8</ele>
        <time>2023-02-05T10:48:11Z</time>
      </trkpt>
      <trkpt lat="44.13618" lon="7.23608">
        <ele>2013</ele>
        <time>2023-02-05T10:48:12Z</time>
      </trkpt>
      <trkpt lat="44.13619" lon="7.23607">
        <ele>2013.2</ele>
        <time>2023-02-05T10:48:13Z</time>
      </trkpt>
      <trkpt lat="44.1362" lon="7.23606">
        <ele>2013.4</ele>
        <time>2023-02-05T10:48:14Z</time>
      </trkpt>
      <trkpt lat="44.13621" lon="7.23606">
        <ele>2013.6</ele>
        <time>2023-02-05T10:48:15Z</time>
      </trkpt>
      <trkpt lat="44.13621" lon="7.23605">
        <ele>2013.8</ele>
        <time>2023-02-05T10:48:16Z</time>
      </trkpt>
      <trkpt lat="44.13622" lon="7.23604">
        <ele>2013.9</ele>
        <time>2023-02-05T10:48:17Z</time>
      </trkpt>
      <trkpt lat="44.13622" lon="7.23603">
        <ele>2014.1</ele>
        <time>2023-02-05T10:48:18Z</time>
      </trkpt>
      <trkpt lat="44.13623" lon="7.23602">
        <ele>2014.2</ele>
        <time>2023-02-05T10:48:19Z</time>
      </trkpt>
      <trkpt lat="44.13623" lon="7.23601">
        <ele>2014.4</ele>
        <time>2023-02-05T10:48:20Z</time>
      </trkpt>
      <trkpt lat="44.13623" lon="7.236">
        <ele>2014.5</ele>
        <time>2023-02-05T10:48:21Z</time>
      </trkpt>
      <trkpt lat="44.13623" lon="7.23599">
        <ele>2014.6</ele>
        <time>2023-02-05T10:48:22Z</time>
      </trkpt>
      <trkpt lat="44.13623" lon="7.23598">
        <ele>2014.7</ele>
        <time>2023-02-05T10:48:23Z</time>
      </trkpt>
      <trkpt lat="44.13623" lon="7.23597">
        <ele>2014.8</ele>
        <time>2023-02-05T10:48:24Z</time>
      </trkpt>
      <trkpt lat="44.13624" lon="7.23597">
        <ele>2014.9</ele>
        <time>2023-02-05T10:48:25Z</time>
      </trkpt>
      <trkpt lat="44.13624" lon="7.23596">
        <ele>2015</ele>
        <time>2023-02-05T10:48:26Z</time>
      </trkpt>
      <trkpt lat="44.13625" lon="7.23595">
        <ele>2015.1</ele>
        <time>2023-02-05T10:48:27Z</time>
      </trkpt>
      <trkpt lat="44.13625" lon="7.23594">
        <ele>2015.2</ele>
        <time>2023-02-05T10:48:28Z</time>
      </trkpt>
      <trkpt lat="44.13626" lon="7.23593">
        <ele>2015.4</ele>
        <time>2023-02-05T10:48:29Z</time>
      </trkpt>
      <trkpt lat="44.13626" lon="7.23593">
        <ele>2015.5</ele>
        <time>2023-02-05T10:48:30Z</time>
      </trkpt>
      <trkpt lat="44.13627" lon="7.23592">
        <ele>2015.7</ele>
        <time>2023-02-05T10:48:31Z</time>
      </trkpt>
      <trkpt lat="44.13628" lon="7.23591">
        <ele>2015.7</ele>
        <time>2023-02-05T10:48:32Z</time>
      </trkpt>
      <trkpt lat="44.13629" lon="7.2359">
        <ele>2015.8</ele>
        <time>2023-02-05T10:48:33Z</time>
      </trkpt>
      <trkpt lat="44.13629" lon="7.23589">
        <ele>2015.9</ele>
        <time>2023-02-05T10:48:34Z</time>
      </trkpt>
      <trkpt lat="44.1363" lon="7.23589">
        <ele>2016</ele>
        <time>2023-02-05T10:48:35Z</time>
      </trkpt>
      <trkpt lat="44.1363" lon="7.23588">
        <ele>2016.1</ele>
        <time>2023-02-05T10:48:36Z</time>
      </trkpt>
      <trkpt lat="44.1363" lon="7.23588">
        <ele>2016.2</ele>
        <time>2023-02-05T10:48:37Z</time>
      </trkpt>
      <trkpt lat="44.1363" lon="7.23588">
        <ele>2016.3</ele>
        <time>2023-02-05T10:48:38Z</time>
      </trkpt>
      <trkpt lat="44.1363" lon="7.23587">
        <ele>2016.6</ele>
        <time>2023-02-05T10:48:39Z</time>
      </trkpt>
      <trkpt lat="44.1363" lon="7.23587">
        <ele>2016.8</ele>
        <time>2023-02-05T10:48:40Z</time>
      </trkpt>
      <trkpt lat="44.1363" lon="7.23586">
        <ele>2017</ele>
        <time>2023-02-05T10:48:41Z</time>
      </trkpt>
      <trkpt lat="44.13631" lon="7.23585">
        <ele>2017.1</ele>
        <time>2023-02-05T10:48:42Z</time>
      </trkpt>
      <trkpt lat="44.13632" lon="7.23585">
        <ele>2017.2</ele>
        <time>2023-02-05T10:48:43Z</time>
      </trkpt>
      <trkpt lat="44.13632" lon="7.23584">
        <ele>2017.3</ele>
        <time>2023-02-05T10:48:44Z</time>
      </trkpt>
      <trkpt lat="44.13632" lon="7.23583">
        <ele>2017.3</ele>
        <time>2023-02-05T10:48:45Z</time>
      </trkpt>
      <trkpt lat="44.13633" lon="7.23582">
        <ele>2017.4</ele>
        <time>2023-02-05T10:48:46Z</time>
      </trkpt>
      <trkpt lat="44.13634" lon="7.23583">
        <ele>2017.6</ele>
        <time>2023-02-05T10:48:47Z</time>
      </trkpt>
      <trkpt lat="44.13634" lon="7.23583">
        <ele>2017.7</ele>
        <time>2023-02-05T10:48:48Z</time>
      </trkpt>
      <trkpt lat="44.13634" lon="7.23582">
        <ele>2017.7</ele>
        <time>2023-02-05T10:48:49Z</time>
      </trkpt>
      <trkpt lat="44.13635" lon="7.23581">
        <ele>2017.9</ele>
        <time>2023-02-05T10:48:50Z</time>
      </trkpt>
      <trkpt lat="44.13635" lon="7.23581">
        <ele>2018</ele>
        <time>2023-02-05T10:48:51Z</time>
      </trkpt>
      <trkpt lat="44.13635" lon="7.2358">
        <ele>2018.1</ele>
        <time>2023-02-05T10:48:52Z</time>
      </trkpt>
      <trkpt lat="44.13635" lon="7.23579">
        <ele>2018.1</ele>
        <time>2023-02-05T10:48:53Z</time>
      </trkpt>
      <trkpt lat="44.13635" lon="7.23578">
        <ele>2018.2</ele>
        <time>2023-02-05T10:48:54Z</time>
      </trkpt>
      <trkpt lat="44.13636" lon="7.23577">
        <ele>2018.3</ele>
        <time>2023-02-05T10:48:55Z</time>
      </trkpt>
      <trkpt lat="44.13636" lon="7.23577">
        <ele>2018.5</ele>
        <time>2023-02-05T10:48:56Z</time>
      </trkpt>
      <trkpt lat="44.13637" lon="7.23575">
        <ele>2018.6</ele>
        <time>2023-02-05T10:48:57Z</time>
      </trkpt>
      <trkpt lat="44.13637" lon="7.23575">
        <ele>2018.7</ele>
        <time>2023-02-05T10:48:58Z</time>
      </trkpt>
      <trkpt lat="44.13639" lon="7.23574">
        <ele>2018.8</ele>
        <time>2023-02-05T10:48:59Z</time>
      </trkpt>
      <trkpt lat="44.1364" lon="7.23573">
        <ele>2018.9</ele>
        <time>2023-02-05T10:49:00Z</time>
      </trkpt>
      <trkpt lat="44.13641" lon="7.23573">
        <ele>2019</ele>
        <time>2023-02-05T10:49:01Z</time>
      </trkpt>
      <trkpt lat="44.13642" lon="7.23572">
        <ele>2019.1</ele>
        <time>2023-02-05T10:49:02Z</time>
      </trkpt>
      <trkpt lat="44.13643" lon="7.23572">
        <ele>2019.1</ele>
        <time>2023-02-05T10:49:03Z</time>
      </trkpt>
      <trkpt lat="44.13644" lon="7.23571">
        <ele>2019.1</ele>
        <time>2023-02-05T10:49:04Z</time>
      </trkpt>
      <trkpt lat="44.13645" lon="7.2357">
        <ele>2019.1</ele>
        <time>2023-02-05T10:49:05Z</time>
      </trkpt>
      <trkpt lat="44.13646" lon="7.2357">
        <ele>2019.2</ele>
        <time>2023-02-05T10:49:06Z</time>
      </trkpt>
      <trkpt lat="44.13645" lon="7.23569">
        <ele>2019.2</ele>
        <time>2023-02-05T10:49:07Z</time>
      </trkpt>
      <trkpt lat="44.13646" lon="7.23569">
        <ele>2019.4</ele>
        <time>2023-02-05T10:49:08Z</time>
      </trkpt>
      <trkpt lat="44.13646" lon="7.23568">
        <ele>2019.5</ele>
        <time>2023-02-05T10:49:09Z</time>
      </trkpt>
      <trkpt lat="44.13647" lon="7.23567">
        <ele>2019.6</ele>
        <time>2023-02-05T10:49:10Z</time>
      </trkpt>
      <trkpt lat="44.13648" lon="7.23566">
        <ele>2019.7</ele>
        <time>2023-02-05T10:49:11Z</time>
      </trkpt>
      <trkpt lat="44.13648" lon="7.23566">
        <ele>2019.7</ele>
        <time>2023-02-05T10:49:12Z</time>
      </trkpt>
      <trkpt lat="44.13649" lon="7.23565">
        <ele>2019.8</ele>
        <time>2023-02-05T10:49:13Z</time>
      </trkpt>
      <trkpt lat="44.13651" lon="7.23564">
        <ele>2019.9</ele>
        <time>2023-02-05T10:49:14Z</time>
      </trkpt>
      <trkpt lat="44.13651" lon="7.23564">
        <ele>2020</ele>
        <time>2023-02-05T10:49:15Z</time>
      </trkpt>
      <trkpt lat="44.13652" lon="7.23563">
        <ele>2020.1</ele>
        <time>2023-02-05T10:49:16Z</time>
      </trkpt>
      <trkpt lat="44.13653" lon="7.23562">
        <ele>2020.2</ele>
        <time>2023-02-05T10:49:17Z</time>
      </trkpt>
      <trkpt lat="44.13654" lon="7.2356">
        <ele>2020.3</ele>
        <time>2023-02-05T10:49:18Z</time>
      </trkpt>
      <trkpt lat="44.13654" lon="7.23559">
        <ele>2020.4</ele>
        <time>2023-02-05T10:49:19Z</time>
      </trkpt>
      <trkpt lat="44.13655" lon="7.23558">
        <ele>2020.4</ele>
        <time>2023-02-05T10:49:20Z</time>
      </trkpt>
      <trkpt lat="44.13655" lon="7.23556">
        <ele>2020.5</ele>
        <time>2023-02-05T10:49:21Z</time>
      </trkpt>
      <trkpt lat="44.13657" lon="7.23556">
        <ele>2020.5</ele>
        <time>2023-02-05T10:49:22Z</time>
      </trkpt>
      <trkpt lat="44.13658" lon="7.23555">
        <ele>2020.7</ele>
        <time>2023-02-05T10:49:23Z</time>
      </trkpt>
      <trkpt lat="44.13658" lon="7.23553">
        <ele>2020.9</ele>
        <time>2023-02-05T10:49:24Z</time>
      </trkpt>
      <trkpt lat="44.13659" lon="7.23552">
        <ele>2021</ele>
        <time>2023-02-05T10:49:25Z</time>
      </trkpt>
      <trkpt lat="44.13659" lon="7.23551">
        <ele>2021.2</ele>
        <time>2023-02-05T10:49:26Z</time>
      </trkpt>
      <trkpt lat="44.1366" lon="7.2355">
        <ele>2021.3</ele>
        <time>2023-02-05T10:49:27Z</time>
      </trkpt>
      <trkpt lat="44.1366" lon="7.23549">
        <ele>2021.3</ele>
        <time>2023-02-05T10:49:28Z</time>
      </trkpt>
      <trkpt lat="44.1366" lon="7.23548">
        <ele>2021.3</ele>
        <time>2023-02-05T10:49:29Z</time>
      </trkpt>
      <trkpt lat="44.13661" lon="7.23547">
        <ele>2021.4</ele>
        <time>2023-02-05T10:49:30Z</time>
      </trkpt>
      <trkpt lat="44.13661" lon="7.23546">
        <ele>2021.5</ele>
        <time>2023-02-05T10:49:31Z</time>
      </trkpt>
      <trkpt lat="44.13661" lon="7.23545">
        <ele>2021.7</ele>
        <time>2023-02-05T10:49:32Z</time>
      </trkpt>
      <trkpt lat="44.13661" lon="7.23544">
        <ele>2021.8</ele>
        <time>2023-02-05T10:49:33Z</time>
      </trkpt>
      <trkpt lat="44.13662" lon="7.23543">
        <ele>2022</ele>
        <time>2023-02-05T10:49:34Z</time>
      </trkpt>
      <trkpt lat="44.13663" lon="7.23542">
        <ele>2022</ele>
        <time>2023-02-05T10:49:35Z</time>
      </trkpt>
      <trkpt lat="44.13663" lon="7.23541">
        <ele>2021.9</ele>
        <time>2023-02-05T10:49:36Z</time>
      </trkpt>
      <trkpt lat="44.13663" lon="7.2354">
        <ele>2021.9</ele>
        <time>2023-02-05T10:49:37Z</time>
      </trkpt>
      <trkpt lat="44.13664" lon="7.23539">
        <ele>2021.9</ele>
        <time>2023-02-05T10:49:38Z</time>
      </trkpt>
      <trkpt lat="44.13664" lon="7.23539">
        <ele>2021.9</ele>
        <time>2023-02-05T10:49:39Z</time>
      </trkpt>
      <trkpt lat="44.13665" lon="7.23538">
        <ele>2021.9</ele>
        <time>2023-02-05T10:49:40Z</time>
      </trkpt>
      <trkpt lat="44.13665" lon="7.23537">
        <ele>2021.9</ele>
        <time>2023-02-05T10:49:41Z</time>
      </trkpt>
      <trkpt lat="44.13666" lon="7.23536">
        <ele>2021.9</ele>
        <time>2023-02-05T10:49:42Z</time>
      </trkpt>
      <trkpt lat="44.13667" lon="7.23536">
        <ele>2022</ele>
        <time>2023-02-05T10:49:43Z</time>
      </trkpt>
      <trkpt lat="44.13667" lon="7.23534">
        <ele>2022</ele>
        <time>2023-02-05T10:49:44Z</time>
      </trkpt>
      <trkpt lat="44.13668" lon="7.23535">
        <ele>2022.1</ele>
        <time>2023-02-05T10:49:45Z</time>
      </trkpt>
      <trkpt lat="44.13668" lon="7.23534">
        <ele>2022.1</ele>
        <time>2023-02-05T10:49:46Z</time>
      </trkpt>
      <trkpt lat="44.13669" lon="7.23533">
        <ele>2022.1</ele>
        <time>2023-02-05T10:49:47Z</time>
      </trkpt>
      <trkpt lat="44.13669" lon="7.23532">
        <ele>2022.3</ele>
        <time>2023-02-05T10:49:48Z</time>
      </trkpt>
      <trkpt lat="44.1367" lon="7.23531">
        <ele>2022.3</ele>
        <time>2023-02-05T10:49:49Z</time>
      </trkpt>
      <trkpt lat="44.1367" lon="7.2353">
        <ele>2022.3</ele>
        <time>2023-02-05T10:49:50Z</time>
      </trkpt>
      <trkpt lat="44.13671" lon="7.23529">
        <ele>2022.3</ele>
        <time>2023-02-05T10:49:51Z</time>
      </trkpt>
      <trkpt lat="44.13671" lon="7.23528">
        <ele>2022.3</ele>
        <time>2023-02-05T10:49:52Z</time>
      </trkpt>
      <trkpt lat="44.13671" lon="7.23527">
        <ele>2022.5</ele>
        <time>2023-02-05T10:49:53Z</time>
      </trkpt>
      <trkpt lat="44.1367" lon="7.23525">
        <ele>2022.6</ele>
        <time>2023-02-05T10:49:54Z</time>
      </trkpt>
      <trkpt lat="44.13671" lon="7.23524">
        <ele>2022.6</ele>
        <time>2023-02-05T10:49:55Z</time>
      </trkpt>
      <trkpt lat="44.13671" lon="7.23523">
        <ele>2022.7</ele>
        <time>2023-02-05T10:49:56Z</time>
      </trkpt>
      <trkpt lat="44.13671" lon="7.23523">
        <ele>2022.7</ele>
        <time>2023-02-05T10:49:57Z</time>
      </trkpt>
      <trkpt lat="44.13671" lon="7.23523">
        <ele>2022.7</ele>
        <time>2023-02-05T10:49:58Z</time>
      </trkpt>
      <trkpt lat="44.13671" lon="7.23522">
        <ele>2022.8</ele>
        <time>2023-02-05T10:49:59Z</time>
      </trkpt>
      <trkpt lat="44.13671" lon="7.23522">
        <ele>2022.7</ele>
        <time>2023-02-05T10:50:00Z</time>
      </trkpt>
      <trkpt lat="44.13671" lon="7.23521">
        <ele>2022.7</ele>
        <time>2023-02-05T10:50:01Z</time>
      </trkpt>
      <trkpt lat="44.13671" lon="7.23521">
        <ele>2022.7</ele>
        <time>2023-02-05T10:50:02Z</time>
      </trkpt>
      <trkpt lat="44.13671" lon="7.23521">
        <ele>2022.7</ele>
        <time>2023-02-05T10:50:03Z</time>
      </trkpt>
      <trkpt lat="44.1367" lon="7.23521">
        <ele>2022.7</ele>
        <time>2023-02-05T10:50:04Z</time>
      </trkpt>
      <trkpt lat="44.1367" lon="7.2352">
        <ele>2022.8</ele>
        <time>2023-02-05T10:50:05Z</time>
      </trkpt>
      <trkpt lat="44.13669" lon="7.23519">
        <ele>2022.8</ele>
        <time>2023-02-05T10:50:06Z</time>
      </trkpt>
      <trkpt lat="44.13668" lon="7.23519">
        <ele>2022.8</ele>
        <time>2023-02-05T10:50:07Z</time>
      </trkpt>
      <trkpt lat="44.13668" lon="7.23518">
        <ele>2022.7</ele>
        <time>2023-02-05T10:50:08Z</time>
      </trkpt>
      <trkpt lat="44.13668" lon="7.23518">
        <ele>2022.8</ele>
        <time>2023-02-05T10:50:09Z</time>
      </trkpt>
      <trkpt lat="44.13667" lon="7.23518">
        <ele>2022.7</ele>
        <time>2023-02-05T10:50:10Z</time>
      </trkpt>
      <trkpt lat="44.13667" lon="7.23518">
        <ele>2022.7</ele>
        <time>2023-02-05T10:50:11Z</time>
      </trkpt>
      <trkpt lat="44.13667" lon="7.23518">
        <ele>2022.7</ele>
        <time>2023-02-05T10:50:12Z</time>
      </trkpt>
      <trkpt lat="44.13668" lon="7.23517">
        <ele>2022.6</ele>
        <time>2023-02-05T10:50:13Z</time>
      </trkpt>
      <trkpt lat="44.13668" lon="7.23517">
        <ele>2022.6</ele>
        <time>2023-02-05T10:50:14Z</time>
      </trkpt>
      <trkpt lat="44.13668" lon="7.23517">
        <ele>2022.5</ele>
        <time>2023-02-05T10:50:15Z</time>
      </trkpt>
      <trkpt lat="44.13668" lon="7.23517">
        <ele>2022.5</ele>
        <time>2023-02-05T10:50:16Z</time>
      </trkpt>
      <trkpt lat="44.13668" lon="7.23517">
        <ele>2022.4</ele>
        <time>2023-02-05T10:50:17Z</time>
      </trkpt>
      <trkpt lat="44.13667" lon="7.23517">
        <ele>2022.4</ele>
        <time>2023-02-05T10:50:18Z</time>
      </trkpt>
      <trkpt lat="44.13667" lon="7.23517">
        <ele>2022.4</ele>
        <time>2023-02-05T10:50:19Z</time>
      </trkpt>
      <trkpt lat="44.13667" lon="7.23516">
        <ele>2022.4</ele>
        <time>2023-02-05T10:50:20Z</time>
      </trkpt>
      <trkpt lat="44.13666" lon="7.23516">
        <ele>2022.5</ele>
        <time>2023-02-05T10:50:21Z</time>
      </trkpt>
      <trkpt lat="44.13666" lon="7.23516">
        <ele>2022.6</ele>
        <time>2023-02-05T10:50:22Z</time>
      </trkpt>
      <trkpt lat="44.13665" lon="7.23515">
        <ele>2022.6</ele>
        <time>2023-02-05T10:50:23Z</time>
      </trkpt>
      <trkpt lat="44.13665" lon="7.23515">
        <ele>2022.6</ele>
        <time>2023-02-05T10:50:24Z</time>
      </trkpt>
      <trkpt lat="44.13664" lon="7.23514">
        <ele>2022.6</ele>
        <time>2023-02-05T10:50:25Z</time>
      </trkpt>
      <trkpt lat="44.13664" lon="7.23514">
        <ele>2022.5</ele>
        <time>2023-02-05T10:50:26Z</time>
      </trkpt>
      <trkpt lat="44.13664" lon="7.23514">
        <ele>2022.5</ele>
        <time>2023-02-05T10:50:27Z</time>
      </trkpt>
      <trkpt lat="44.13664" lon="7.23514">
        <ele>2022.4</ele>
        <time>2023-02-05T10:50:28Z</time>
      </trkpt>
      <trkpt lat="44.13664" lon="7.23513">
        <ele>2022.4</ele>
        <time>2023-02-05T10:50:29Z</time>
      </trkpt>
      <trkpt lat="44.13664" lon="7.23513">
        <ele>2022.5</ele>
        <time>2023-02-05T10:50:30Z</time>
      </trkpt>
      <trkpt lat="44.13664" lon="7.23513">
        <ele>2022.5</ele>
        <time>2023-02-05T10:50:31Z</time>
      </trkpt>
      <trkpt lat="44.13664" lon="7.23512">
        <ele>2022.6</ele>
        <time>2023-02-05T10:50:32Z</time>
      </trkpt>
      <trkpt lat="44.13664" lon="7.23511">
        <ele>2022.7</ele>
        <time>2023-02-05T10:50:33Z</time>
      </trkpt>
      <trkpt lat="44.13664" lon="7.2351">
        <ele>2022.7</ele>
        <time>2023-02-05T10:50:34Z</time>
      </trkpt>
      <trkpt lat="44.13663" lon="7.23509">
        <ele>2022.8</ele>
        <time>2023-02-05T10:50:35Z</time>
      </trkpt>
      <trkpt lat="44.13662" lon="7.23509">
        <ele>2022.8</ele>
        <time>2023-02-05T10:50:36Z</time>
      </trkpt>
      <trkpt lat="44.13662" lon="7.23509">
        <ele>2022.8</ele>
        <time>2023-02-05T10:50:37Z</time>
      </trkpt>
      <trkpt lat="44.13662" lon="7.23509">
        <ele>2022.8</ele>
        <time>2023-02-05T10:50:38Z</time>
      </trkpt>
      <trkpt lat="44.13662" lon="7.23509">
        <ele>2022.8</ele>
        <time>2023-02-05T10:50:39Z</time>
      </trkpt>
      <trkpt lat="44.13662" lon="7.23509">
        <ele>2022.9</ele>
        <time>2023-02-05T10:50:40Z</time>
      </trkpt>
      <trkpt lat="44.13662" lon="7.23509">
        <ele>2022.9</ele>
        <time>2023-02-05T10:50:41Z</time>
      </trkpt>
      <trkpt lat="44.13661" lon="7.23509">
        <ele>2022.9</ele>
        <time>2023-02-05T10:50:42Z</time>
      </trkpt>
      <trkpt lat="44.13661" lon="7.23509">
        <ele>2022.9</ele>
        <time>2023-02-05T10:50:43Z</time>
      </trkpt>
      <trkpt lat="44.13661" lon="7.23509">
        <ele>2023</ele>
        <time>2023-02-05T10:50:44Z</time>
      </trkpt>
      <trkpt lat="44.13661" lon="7.23509">
        <ele>2022.9</ele>
        <time>2023-02-05T10:50:45Z</time>
      </trkpt>
      <trkpt lat="44.13661" lon="7.23509">
        <ele>2023</ele>
        <time>2023-02-05T10:50:46Z</time>
      </trkpt>
      <trkpt lat="44.13661" lon="7.23509">
        <ele>2023</ele>
        <time>2023-02-05T10:50:47Z</time>
      </trkpt>
      <trkpt lat="44.13661" lon="7.23509">
        <ele>2023.1</ele>
        <time>2023-02-05T10:50:48Z</time>
      </trkpt>
      <trkpt lat="44.13661" lon="7.23509">
        <ele>2023.1</ele>
        <time>2023-02-05T10:50:49Z</time>
      </trkpt>
      <trkpt lat="44.1366" lon="7.23509">
        <ele>2023.1</ele>
        <time>2023-02-05T10:50:50Z</time>
      </trkpt>
      <trkpt lat="44.1366" lon="7.23509">
        <ele>2023.1</ele>
        <time>2023-02-05T10:50:51Z</time>
      </trkpt>
      <trkpt lat="44.1366" lon="7.23509">
        <ele>2023.1</ele>
        <time>2023-02-05T10:50:52Z</time>
      </trkpt>
      <trkpt lat="44.1366" lon="7.23509">
        <ele>2023.1</ele>
        <time>2023-02-05T10:50:53Z</time>
      </trkpt>
      <trkpt lat="44.1366" lon="7.23509">
        <ele>2023.2</ele>
        <time>2023-02-05T10:50:54Z</time>
      </trkpt>
      <trkpt lat="44.1366" lon="7.23509">
        <ele>2023.1</ele>
        <time>2023-02-05T10:50:55Z</time>
      </trkpt>
      <trkpt lat="44.1366" lon="7.23509">
        <ele>2023.1</ele>
        <time>2023-02-05T10:50:56Z</time>
      </trkpt>
      <trkpt lat="44.1366" lon="7.23509">
        <ele>2023.1</ele>
        <time>2023-02-05T10:50:57Z</time>
      </trkpt>
      <trkpt lat="44.13659" lon="7.23509">
        <ele>2023</ele>
        <time>2023-02-05T10:50:58Z</time>
      </trkpt>
      <trkpt lat="44.13659" lon="7.23509">
        <ele>2023</ele>
        <time>2023-02-05T10:50:59Z</time>
      </trkpt>
      <trkpt lat="44.13659" lon="7.23509">
        <ele>2023</ele>
        <time>2023-02-05T10:51:00Z</time>
      </trkpt>
      <trkpt lat="44.13659" lon="7.23508">
        <ele>2023</ele>
        <time>2023-02-05T10:51:01Z</time>
      </trkpt>
      <trkpt lat="44.13659" lon="7.23508">
        <ele>2023</ele>
        <time>2023-02-05T10:51:02Z</time>
      </trkpt>
      <trkpt lat="44.13659" lon="7.23508">
        <ele>2023</ele>
        <time>2023-02-05T10:51:03Z</time>
      </trkpt>
      <trkpt lat="44.13659" lon="7.23509">
        <ele>2023</ele>
        <time>2023-02-05T10:51:04Z</time>
      </trkpt>
      <trkpt lat="44.13659" lon="7.23509">
        <ele>2023</ele>
        <time>2023-02-05T10:51:05Z</time>
      </trkpt>
      <trkpt lat="44.13659" lon="7.23509">
        <ele>2023</ele>
        <time>2023-02-05T10:51:06Z</time>
      </trkpt>
      <trkpt lat="44.13659" lon="7.23509">
        <ele>2023</ele>
        <time>2023-02-05T10:51:07Z</time>
      </trkpt>
      <trkpt lat="44.13658" lon="7.23509">
        <ele>2023</ele>
        <time>2023-02-05T10:51:08Z</time>
      </trkpt>
      <trkpt lat="44.13658" lon="7.23509">
        <ele>2023</ele>
        <time>2023-02-05T10:51:09Z</time>
      </trkpt>
      <trkpt lat="44.13658" lon="7.23509">
        <ele>2023</ele>
        <time>2023-02-05T10:51:10Z</time>
      </trkpt>
      <trkpt lat="44.13658" lon="7.23509">
        <ele>2023</ele>
        <time>2023-02-05T10:51:11Z</time>
      </trkpt>
      <trkpt lat="44.13658" lon="7.23509">
        <ele>2023</ele>
        <time>2023-02-05T10:51:12Z</time>
      </trkpt>
      <trkpt lat="44.13658" lon="7.23509">
        <ele>2023</ele>
        <time>2023-02-05T10:51:13Z</time>
      </trkpt>
      <trkpt lat="44.13658" lon="7.23509">
        <ele>2023.1</ele>
        <time>2023-02-05T10:51:14Z</time>
      </trkpt>
      <trkpt lat="44.13658" lon="7.23509">
        <ele>2023.1</ele>
        <time>2023-02-05T10:51:15Z</time>
      </trkpt>
      <trkpt lat="44.13658" lon="7.23509">
        <ele>2023.1</ele>
        <time>2023-02-05T10:51:16Z</time>
      </trkpt>
      <trkpt lat="44.13658" lon="7.23509">
        <ele>2023.1</ele>
        <time>2023-02-05T10:51:17Z</time>
      </trkpt>
      <trkpt lat="44.13658" lon="7.23509">
        <ele>2023.1</ele>
        <time>2023-02-05T10:51:18Z</time>
      </trkpt>
      <trkpt lat="44.13658" lon="7.23509">
        <ele>2023</ele>
        <time>2023-02-05T10:51:19Z</time>
      </trkpt>
      <trkpt lat="44.13657" lon="7.23509">
        <ele>2023</ele>
        <time>2023-02-05T10:51:20Z</time>
      </trkpt>
      <trkpt lat="44.13657" lon="7.23509">
        <ele>2022.9</ele>
        <time>2023-02-05T10:51:21Z</time>
      </trkpt>
      <trkpt lat="44.13657" lon="7.23509">
        <ele>2022.9</ele>
        <time>2023-02-05T10:51:22Z</time>
      </trkpt>
      <trkpt lat="44.13657" lon="7.23509">
        <ele>2023.1</ele>
        <time>2023-02-05T10:51:23Z</time>
      </trkpt>
      <trkpt lat="44.13657" lon="7.23509">
        <ele>2023.1</ele>
        <time>2023-02-05T10:51:24Z</time>
      </trkpt>
      <trkpt lat="44.13657" lon="7.2351">
        <ele>2022.9</ele>
        <time>2023-02-05T10:51:25Z</time>
      </trkpt>
      <trkpt lat="44.13657" lon="7.23511">
        <ele>2023</ele>
        <time>2023-02-05T10:51:26Z</time>
      </trkpt>
      <trkpt lat="44.13657" lon="7.23512">
        <ele>2023</ele>
        <time>2023-02-05T10:51:27Z</time>
      </trkpt>
      <trkpt lat="44.13657" lon="7.23513">
        <ele>2022.9</ele>
        <time>2023-02-05T10:51:28Z</time>
      </trkpt>
      <trkpt lat="44.13657" lon="7.23514">
        <ele>2022.8</ele>
        <time>2023-02-05T10:51:29Z</time>
      </trkpt>
      <trkpt lat="44.13657" lon="7.23514">
        <ele>2022.8</ele>
        <time>2023-02-05T10:51:30Z</time>
      </trkpt>
      <trkpt lat="44.13657" lon="7.23514">
        <ele>2022.9</ele>
        <time>2023-02-05T10:51:31Z</time>
      </trkpt>
      <trkpt lat="44.13657" lon="7.23514">
        <ele>2022.9</ele>
        <time>2023-02-05T10:51:32Z</time>
      </trkpt>
      <trkpt lat="44.13657" lon="7.23514">
        <ele>2022.8</ele>
        <time>2023-02-05T10:51:33Z</time>
      </trkpt>
      <trkpt lat="44.13657" lon="7.23514">
        <ele>2022.8</ele>
        <time>2023-02-05T10:51:34Z</time>
      </trkpt>
      <trkpt lat="44.13657" lon="7.23514">
        <ele>2022.8</ele>
        <time>2023-02-05T10:51:35Z</time>
      </trkpt>
      <trkpt lat="44.13657" lon="7.23514">
        <ele>2022.8</ele>
        <time>2023-02-05T10:51:36Z</time>
      </trkpt>
      <trkpt lat="44.13657" lon="7.23514">
        <ele>2022.7</ele>
        <time>2023-02-05T10:51:37Z</time>
      </trkpt>
      <trkpt lat="44.13657" lon="7.23514">
        <ele>2022.7</ele>
        <time>2023-02-05T10:51:38Z</time>
      </trkpt>
      <trkpt lat="44.13657" lon="7.23514">
        <ele>2022.7</ele>
        <time>2023-02-05T10:51:39Z</time>
      </trkpt>
      <trkpt lat="44.13657" lon="7.23514">
        <ele>2022.8</ele>
        <time>2023-02-05T10:51:40Z</time>
      </trkpt>
      <trkpt lat="44.13657" lon="7.23514">
        <ele>2022.8</ele>
        <time>2023-02-05T10:51:41Z</time>
      </trkpt>
      <trkpt lat="44.13657" lon="7.23514">
        <ele>2022.8</ele>
        <time>2023-02-05T10:51:42Z</time>
      </trkpt>
      <trkpt lat="44.13657" lon="7.23514">
        <ele>2022.7</ele>
        <time>2023-02-05T10:51:43Z</time>
      </trkpt>
      <trkpt lat="44.13657" lon="7.23514">
        <ele>2022.6</ele>
        <time>2023-02-05T10:51:44Z</time>
      </trkpt>
      <trkpt lat="44.13657" lon="7.23514">
        <ele>2022.7</ele>
        <time>2023-02-05T10:51:45Z</time>
      </trkpt>
      <trkpt lat="44.13657" lon="7.23515">
        <ele>2022.7</ele>
        <time>2023-02-05T10:51:46Z</time>
      </trkpt>
      <trkpt lat="44.13657" lon="7.23515">
        <ele>2022.7</ele>
        <time>2023-02-05T10:51:47Z</time>
      </trkpt>
      <trkpt lat="44.13657" lon="7.23515">
        <ele>2022.7</ele>
        <time>2023-02-05T10:51:48Z</time>
      </trkpt>
      <trkpt lat="44.13657" lon="7.23515">
        <ele>2022.6</ele>
        <time>2023-02-05T10:51:49Z</time>
      </trkpt>
      <trkpt lat="44.13657" lon="7.23515">
        <ele>2022.6</ele>
        <time>2023-02-05T10:51:50Z</time>
      </trkpt>
      <trkpt lat="44.13657" lon="7.23515">
        <ele>2022.7</ele>
        <time>2023-02-05T10:51:51Z</time>
      </trkpt>
      <trkpt lat="44.13657" lon="7.23516">
        <ele>2022.7</ele>
        <time>2023-02-05T10:51:52Z</time>
      </trkpt>
      <trkpt lat="44.13656" lon="7.23516">
        <ele>2022.7</ele>
        <time>2023-02-05T10:51:53Z</time>
      </trkpt>
      <trkpt lat="44.13656" lon="7.23516">
        <ele>2022.8</ele>
        <time>2023-02-05T10:51:54Z</time>
      </trkpt>
      <trkpt lat="44.13656" lon="7.23517">
        <ele>2022.7</ele>
        <time>2023-02-05T10:51:55Z</time>
      </trkpt>
      <trkpt lat="44.13656" lon="7.23517">
        <ele>2022.7</ele>
        <time>2023-02-05T10:51:56Z</time>
      </trkpt>
      <trkpt lat="44.13656" lon="7.23517">
        <ele>2022.7</ele>
        <time>2023-02-05T10:51:57Z</time>
      </trkpt>
      <trkpt lat="44.13656" lon="7.23517">
        <ele>2022.7</ele>
        <time>2023-02-05T10:51:58Z</time>
      </trkpt>
      <trkpt lat="44.13656" lon="7.23518">
        <ele>2022.7</ele>
        <time>2023-02-05T10:51:59Z</time>
      </trkpt>
      <trkpt lat="44.13655" lon="7.23518">
        <ele>2022.7</ele>
        <time>2023-02-05T10:52:00Z</time>
      </trkpt>
      <trkpt lat="44.13655" lon="7.23518">
        <ele>2022.7</ele>
        <time>2023-02-05T10:52:01Z</time>
      </trkpt>
      <trkpt lat="44.13655" lon="7.23518">
        <ele>2022.6</ele>
        <time>2023-02-05T10:52:02Z</time>
      </trkpt>
      <trkpt lat="44.13655" lon="7.23518">
        <ele>2022.5</ele>
        <time>2023-02-05T10:52:03Z</time>
      </trkpt>
      <trkpt lat="44.13654" lon="7.23518">
        <ele>2022.5</ele>
        <time>2023-02-05T10:52:04Z</time>
      </trkpt>
      <trkpt lat="44.13654" lon="7.23519">
        <ele>2022.5</ele>
        <time>2023-02-05T10:52:05Z</time>
      </trkpt>
      <trkpt lat="44.13654" lon="7.23519">
        <ele>2022.5</ele>
        <time>2023-02-05T10:52:06Z</time>
      </trkpt>
      <trkpt lat="44.13653" lon="7.2352">
        <ele>2022.5</ele>
        <time>2023-02-05T10:52:07Z</time>
      </trkpt>
      <trkpt lat="44.13653" lon="7.2352">
        <ele>2022.5</ele>
        <time>2023-02-05T10:52:08Z</time>
      </trkpt>
      <trkpt lat="44.13653" lon="7.2352">
        <ele>2022.4</ele>
        <time>2023-02-05T10:52:09Z</time>
      </trkpt>
      <trkpt lat="44.13652" lon="7.2352">
        <ele>2022.4</ele>
        <time>2023-02-05T10:52:10Z</time>
      </trkpt>
      <trkpt lat="44.13652" lon="7.2352">
        <ele>2022.4</ele>
        <time>2023-02-05T10:52:11Z</time>
      </trkpt>
      <trkpt lat="44.13652" lon="7.2352">
        <ele>2022.4</ele>
        <time>2023-02-05T10:52:12Z</time>
      </trkpt>
      <trkpt lat="44.13652" lon="7.23521">
        <ele>2022.5</ele>
        <time>2023-02-05T10:52:13Z</time>
      </trkpt>
      <trkpt lat="44.13652" lon="7.23521">
        <ele>2022.5</ele>
        <time>2023-02-05T10:52:14Z</time>
      </trkpt>
      <trkpt lat="44.13652" lon="7.23521">
        <ele>2022.5</ele>
        <time>2023-02-05T10:52:15Z</time>
      </trkpt>
      <trkpt lat="44.13652" lon="7.23521">
        <ele>2022.5</ele>
        <time>2023-02-05T10:52:16Z</time>
      </trkpt>
      <trkpt lat="44.13652" lon="7.23521">
        <ele>2022.5</ele>
        <time>2023-02-05T10:52:17Z</time>
      </trkpt>
      <trkpt lat="44.13652" lon="7.23521">
        <ele>2022.6</ele>
        <time>2023-02-05T10:52:18Z</time>
      </trkpt>
      <trkpt lat="44.13652" lon="7.23521">
        <ele>2022.5</ele>
        <time>2023-02-05T10:52:19Z</time>
      </trkpt>
      <trkpt lat="44.13652" lon="7.23522">
        <ele>2022.5</ele>
        <time>2023-02-05T10:52:20Z</time>
      </trkpt>
      <trkpt lat="44.13652" lon="7.23522">
        <ele>2022.4</ele>
        <time>2023-02-05T10:52:21Z</time>
      </trkpt>
      <trkpt lat="44.13652" lon="7.23522">
        <ele>2022.4</ele>
        <time>2023-02-05T10:52:22Z</time>
      </trkpt>
      <trkpt lat="44.13652" lon="7.23522">
        <ele>2022.4</ele>
        <time>2023-02-05T10:52:23Z</time>
      </trkpt>
      <trkpt lat="44.13652" lon="7.23522">
        <ele>2022.4</ele>
        <time>2023-02-05T10:52:24Z</time>
      </trkpt>
      <trkpt lat="44.13652" lon="7.23522">
        <ele>2022.4</ele>
        <time>2023-02-05T10:52:25Z</time>
      </trkpt>
      <trkpt lat="44.13652" lon="7.23522">
        <ele>2022.5</ele>
        <time>2023-02-05T10:52:26Z</time>
      </trkpt>
      <trkpt lat="44.13651" lon="7.23523">
        <ele>2022.4</ele>
        <time>2023-02-05T10:52:27Z</time>
      </trkpt>
      <trkpt lat="44.13651" lon="7.23523">
        <ele>2022.4</ele>
        <time>2023-02-05T10:52:28Z</time>
      </trkpt>
      <trkpt lat="44.13652" lon="7.23523">
        <ele>2022.5</ele>
        <time>2023-02-05T10:52:29Z</time>
      </trkpt>
      <trkpt lat="44.13652" lon="7.23523">
        <ele>2022.5</ele>
        <time>2023-02-05T10:52:30Z</time>
      </trkpt>
      <trkpt lat="44.13652" lon="7.23523">
        <ele>2022.4</ele>
        <time>2023-02-05T10:52:31Z</time>
      </trkpt>
      <trkpt lat="44.13651" lon="7.23523">
        <ele>2022.4</ele>
        <time>2023-02-05T10:52:32Z</time>
      </trkpt>
      <trkpt lat="44.13651" lon="7.23523">
        <ele>2022.4</ele>
        <time>2023-02-05T10:52:33Z</time>
      </trkpt>
      <trkpt lat="44.13651" lon="7.23524">
        <ele>2022.4</ele>
        <time>2023-02-05T10:52:34Z</time>
      </trkpt>
      <trkpt lat="44.13651" lon="7.23524">
        <ele>2022.4</ele>
        <time>2023-02-05T10:52:35Z</time>
      </trkpt>
      <trkpt lat="44.13651" lon="7.23524">
        <ele>2022.4</ele>
        <time>2023-02-05T10:52:36Z</time>
      </trkpt>
      <trkpt lat="44.13651" lon="7.23524">
        <ele>2022.4</ele>
        <time>2023-02-05T10:52:37Z</time>
      </trkpt>
      <trkpt lat="44.13652" lon="7.23524">
        <ele>2022.4</ele>
        <time>2023-02-05T10:52:38Z</time>
      </trkpt>
      <trkpt lat="44.13652" lon="7.23523">
        <ele>2022.3</ele>
        <time>2023-02-05T10:52:39Z</time>
      </trkpt>
      <trkpt lat="44.13652" lon="7.23523">
        <ele>2022.4</ele>
        <time>2023-02-05T10:52:40Z</time>
      </trkpt>
      <trkpt lat="44.13652" lon="7.23523">
        <ele>2022.4</ele>
        <time>2023-02-05T10:52:41Z</time>
      </trkpt>
      <trkpt lat="44.13653" lon="7.23523">
        <ele>2022.4</ele>
        <time>2023-02-05T10:52:42Z</time>
      </trkpt>
      <trkpt lat="44.13653" lon="7.23522">
        <ele>2022.2</ele>
        <time>2023-02-05T10:52:43Z</time>
      </trkpt>
      <trkpt lat="44.13653" lon="7.23522">
        <ele>2022.2</ele>
        <time>2023-02-05T10:52:44Z</time>
      </trkpt>
      <trkpt lat="44.13653" lon="7.23522">
        <ele>2022.2</ele>
        <time>2023-02-05T10:52:45Z</time>
      </trkpt>
      <trkpt lat="44.13654" lon="7.23522">
        <ele>2022.2</ele>
        <time>2023-02-05T10:52:46Z</time>
      </trkpt>
      <trkpt lat="44.13654" lon="7.23521">
        <ele>2022.2</ele>
        <time>2023-02-05T10:52:47Z</time>
      </trkpt>
      <trkpt lat="44.13654" lon="7.23521">
        <ele>2022.3</ele>
        <time>2023-02-05T10:52:48Z</time>
      </trkpt>
      <trkpt lat="44.13654" lon="7.23521">
        <ele>2022.4</ele>
        <time>2023-02-05T10:52:49Z</time>
      </trkpt>
      <trkpt lat="44.13654" lon="7.23522">
        <ele>2022.4</ele>
        <time>2023-02-05T10:52:50Z</time>
      </trkpt>
      <trkpt lat="44.13654" lon="7.23521">
        <ele>2022.4</ele>
        <time>2023-02-05T10:52:51Z</time>
      </trkpt>
      <trkpt lat="44.13654" lon="7.23522">
        <ele>2022.4</ele>
        <time>2023-02-05T10:52:52Z</time>
      </trkpt>
      <trkpt lat="44.13654" lon="7.23522">
        <ele>2022.3</ele>
        <time>2023-02-05T10:52:53Z</time>
      </trkpt>
      <trkpt lat="44.13654" lon="7.23522">
        <ele>2022.2</ele>
        <time>2023-02-05T10:52:54Z</time>
      </trkpt>
      <trkpt lat="44.13654" lon="7.23522">
        <ele>2022.2</ele>
        <time>2023-02-05T10:52:55Z</time>
      </trkpt>
      <trkpt lat="44.13654" lon="7.23522">
        <ele>2022.2</ele>
        <time>2023-02-05T10:52:56Z</time>
      </trkpt>
      <trkpt lat="44.13654" lon="7.23522">
        <ele>2022.2</ele>
        <time>2023-02-05T10:52:57Z</time>
      </trkpt>
      <trkpt lat="44.13654" lon="7.23522">
        <ele>2022.3</ele>
        <time>2023-02-05T10:52:58Z</time>
      </trkpt>
      <trkpt lat="44.13654" lon="7.23523">
        <ele>2022.3</ele>
        <time>2023-02-05T10:52:59Z</time>
      </trkpt>
      <trkpt lat="44.13654" lon="7.23523">
        <ele>2022.2</ele>
        <time>2023-02-05T10:53:00Z</time>
      </trkpt>
      <trkpt lat="44.13654" lon="7.23523">
        <ele>2022.2</ele>
        <time>2023-02-05T10:53:01Z</time>
      </trkpt>
      <trkpt lat="44.13654" lon="7.23523">
        <ele>2022.2</ele>
        <time>2023-02-05T10:53:02Z</time>
      </trkpt>
      <trkpt lat="44.13654" lon="7.23523">
        <ele>2022.3</ele>
        <time>2023-02-05T10:53:03Z</time>
      </trkpt>
      <trkpt lat="44.13654" lon="7.23523">
        <ele>2022.3</ele>
        <time>2023-02-05T10:53:04Z</time>
      </trkpt>
      <trkpt lat="44.13654" lon="7.23523">
        <ele>2022.4</ele>
        <time>2023-02-05T10:53:05Z</time>
      </trkpt>
      <trkpt lat="44.13654" lon="7.23524">
        <ele>2022.4</ele>
        <time>2023-02-05T10:53:06Z</time>
      </trkpt>
      <trkpt lat="44.13654" lon="7.23524">
        <ele>2022.4</ele>
        <time>2023-02-05T10:53:07Z</time>
      </trkpt>
      <trkpt lat="44.13654" lon="7.23524">
        <ele>2022.4</ele>
        <time>2023-02-05T10:53:08Z</time>
      </trkpt>
      <trkpt lat="44.13654" lon="7.23524">
        <ele>2022.4</ele>
        <time>2023-02-05T10:53:09Z</time>
      </trkpt>
      <trkpt lat="44.13653" lon="7.23524">
        <ele>2022.4</ele>
        <time>2023-02-05T10:53:10Z</time>
      </trkpt>
      <trkpt lat="44.13653" lon="7.23525">
        <ele>2022.5</ele>
        <time>2023-02-05T10:53:11Z</time>
      </trkpt>
      <trkpt lat="44.13653" lon="7.23525">
        <ele>2022.7</ele>
        <time>2023-02-05T10:53:12Z</time>
      </trkpt>
      <trkpt lat="44.13653" lon="7.23525">
        <ele>2022.7</ele>
        <time>2023-02-05T10:53:13Z</time>
      </trkpt>
      <trkpt lat="44.13653" lon="7.23525">
        <ele>2022.7</ele>
        <time>2023-02-05T10:53:14Z</time>
      </trkpt>
      <trkpt lat="44.13653" lon="7.23525">
        <ele>2022.7</ele>
        <time>2023-02-05T10:53:15Z</time>
      </trkpt>
      <trkpt lat="44.13653" lon="7.23525">
        <ele>2022.6</ele>
        <time>2023-02-05T10:53:16Z</time>
      </trkpt>
      <trkpt lat="44.13653" lon="7.23525">
        <ele>2022.7</ele>
        <time>2023-02-05T10:53:17Z</time>
      </trkpt>
      <trkpt lat="44.13653" lon="7.23525">
        <ele>2022.7</ele>
        <time>2023-02-05T10:53:18Z</time>
      </trkpt>
      <trkpt lat="44.13653" lon="7.23525">
        <ele>2022.7</ele>
        <time>2023-02-05T10:53:19Z</time>
      </trkpt>
      <trkpt lat="44.13653" lon="7.23525">
        <ele>2022.5</ele>
        <time>2023-02-05T10:53:20Z</time>
      </trkpt>
      <trkpt lat="44.13653" lon="7.23525">
        <ele>2022.3</ele>
        <time>2023-02-05T10:53:21Z</time>
      </trkpt>
      <trkpt lat="44.13653" lon="7.23525">
        <ele>2022.3</ele>
        <time>2023-02-05T10:53:22Z</time>
      </trkpt>
      <trkpt lat="44.13653" lon="7.23525">
        <ele>2022.2</ele>
        <time>2023-02-05T10:53:23Z</time>
      </trkpt>
      <trkpt lat="44.13654" lon="7.23525">
        <ele>2022.1</ele>
        <time>2023-02-05T10:53:24Z</time>
      </trkpt>
      <trkpt lat="44.13654" lon="7.23525">
        <ele>2022.1</ele>
        <time>2023-02-05T10:53:25Z</time>
      </trkpt>
      <trkpt lat="44.13654" lon="7.23524">
        <ele>2022.1</ele>
        <time>2023-02-05T10:53:26Z</time>
      </trkpt>
      <trkpt lat="44.13654" lon="7.23524">
        <ele>2022.1</ele>
        <time>2023-02-05T10:53:27Z</time>
      </trkpt>
      <trkpt lat="44.13654" lon="7.23524">
        <ele>2022.1</ele>
        <time>2023-02-05T10:53:28Z</time>
      </trkpt>
      <trkpt lat="44.13654" lon="7.23524">
        <ele>2022</ele>
        <time>2023-02-05T10:53:29Z</time>
      </trkpt>
      <trkpt lat="44.13654" lon="7.23524">
        <ele>2021.9</ele>
        <time>2023-02-05T10:53:30Z</time>
      </trkpt>
      <trkpt lat="44.13655" lon="7.23524">
        <ele>2021.9</ele>
        <time>2023-02-05T10:53:31Z</time>
      </trkpt>
      <trkpt lat="44.13654" lon="7.23524">
        <ele>2022.1</ele>
        <time>2023-02-05T10:53:32Z</time>
      </trkpt>
      <trkpt lat="44.13654" lon="7.23524">
        <ele>2022.1</ele>
        <time>2023-02-05T10:53:33Z</time>
      </trkpt>
      <trkpt lat="44.13655" lon="7.23524">
        <ele>2022.3</ele>
        <time>2023-02-05T10:53:34Z</time>
      </trkpt>
      <trkpt lat="44.13655" lon="7.23523">
        <ele>2022.2</ele>
        <time>2023-02-05T10:53:35Z</time>
      </trkpt>
      <trkpt lat="44.13656" lon="7.23523">
        <ele>2022.3</ele>
        <time>2023-02-05T10:53:36Z</time>
      </trkpt>
      <trkpt lat="44.13656" lon="7.23523">
        <ele>2022.3</ele>
        <time>2023-02-05T10:53:37Z</time>
      </trkpt>
      <trkpt lat="44.13656" lon="7.23522">
        <ele>2022.3</ele>
        <time>2023-02-05T10:53:38Z</time>
      </trkpt>
      <trkpt lat="44.13656" lon="7.23522">
        <ele>2022.4</ele>
        <time>2023-02-05T10:53:39Z</time>
      </trkpt>
      <trkpt lat="44.13656" lon="7.23521">
        <ele>2022.4</ele>
        <time>2023-02-05T10:53:40Z</time>
      </trkpt>
      <trkpt lat="44.13656" lon="7.23521">
        <ele>2022.4</ele>
        <time>2023-02-05T10:53:41Z</time>
      </trkpt>
      <trkpt lat="44.13656" lon="7.23521">
        <ele>2022.4</ele>
        <time>2023-02-05T10:53:42Z</time>
      </trkpt>
      <trkpt lat="44.13657" lon="7.23521">
        <ele>2022.3</ele>
        <time>2023-02-05T10:53:43Z</time>
      </trkpt>
      <trkpt lat="44.13657" lon="7.2352">
        <ele>2022.3</ele>
        <time>2023-02-05T10:53:44Z</time>
      </trkpt>
      <trkpt lat="44.13657" lon="7.2352">
        <ele>2022.4</ele>
        <time>2023-02-05T10:53:45Z</time>
      </trkpt>
      <trkpt lat="44.13657" lon="7.23521">
        <ele>2022.4</ele>
        <time>2023-02-05T10:53:46Z</time>
      </trkpt>
      <trkpt lat="44.13657" lon="7.23521">
        <ele>2022.4</ele>
        <time>2023-02-05T10:53:47Z</time>
      </trkpt>
      <trkpt lat="44.13658" lon="7.2352">
        <ele>2022.5</ele>
        <time>2023-02-05T10:53:48Z</time>
      </trkpt>
      <trkpt lat="44.13658" lon="7.2352">
        <ele>2022.5</ele>
        <time>2023-02-05T10:53:49Z</time>
      </trkpt>
      <trkpt lat="44.13658" lon="7.2352">
        <ele>2022.5</ele>
        <time>2023-02-05T10:53:50Z</time>
      </trkpt>
      <trkpt lat="44.13658" lon="7.2352">
        <ele>2022.4</ele>
        <time>2023-02-05T10:53:51Z</time>
      </trkpt>
      <trkpt lat="44.13658" lon="7.2352">
        <ele>2022.4</ele>
        <time>2023-02-05T10:53:52Z</time>
      </trkpt>
      <trkpt lat="44.13658" lon="7.2352">
        <ele>2022.5</ele>
        <time>2023-02-05T10:53:53Z</time>
      </trkpt>
      <trkpt lat="44.13658" lon="7.2352">
        <ele>2022.5</ele>
        <time>2023-02-05T10:53:54Z</time>
      </trkpt>
      <trkpt lat="44.13658" lon="7.2352">
        <ele>2022.6</ele>
        <time>2023-02-05T10:53:55Z</time>
      </trkpt>
      <trkpt lat="44.13658" lon="7.2352">
        <ele>2022.6</ele>
        <time>2023-02-05T10:53:56Z</time>
      </trkpt>
      <trkpt lat="44.13659" lon="7.2352">
        <ele>2022.7</ele>
        <time>2023-02-05T10:53:57Z</time>
      </trkpt>
      <trkpt lat="44.13659" lon="7.23519">
        <ele>2022.6</ele>
        <time>2023-02-05T10:53:58Z</time>
      </trkpt>
      <trkpt lat="44.13659" lon="7.23519">
        <ele>2022.6</ele>
        <time>2023-02-05T10:53:59Z</time>
      </trkpt>
      <trkpt lat="44.13659" lon="7.23519">
        <ele>2022.6</ele>
        <time>2023-02-05T10:54:00Z</time>
      </trkpt>
      <trkpt lat="44.13659" lon="7.23519">
        <ele>2022.6</ele>
        <time>2023-02-05T10:54:01Z</time>
      </trkpt>
      <trkpt lat="44.13659" lon="7.23519">
        <ele>2022.5</ele>
        <time>2023-02-05T10:54:02Z</time>
      </trkpt>
      <trkpt lat="44.13659" lon="7.23519">
        <ele>2022.5</ele>
        <time>2023-02-05T10:54:03Z</time>
      </trkpt>
      <trkpt lat="44.13659" lon="7.23519">
        <ele>2022.5</ele>
        <time>2023-02-05T10:54:04Z</time>
      </trkpt>
      <trkpt lat="44.13659" lon="7.23519">
        <ele>2022.6</ele>
        <time>2023-02-05T10:54:05Z</time>
      </trkpt>
      <trkpt lat="44.13659" lon="7.23519">
        <ele>2022.6</ele>
        <time>2023-02-05T10:54:06Z</time>
      </trkpt>
      <trkpt lat="44.13659" lon="7.23518">
        <ele>2022.6</ele>
        <time>2023-02-05T10:54:07Z</time>
      </trkpt>
      <trkpt lat="44.13659" lon="7.23519">
        <ele>2022.6</ele>
        <time>2023-02-05T10:54:08Z</time>
      </trkpt>
      <trkpt lat="44.1366" lon="7.23519">
        <ele>2022.6</ele>
        <time>2023-02-05T10:54:09Z</time>
      </trkpt>
      <trkpt lat="44.1366" lon="7.23519">
        <ele>2022.5</ele>
        <time>2023-02-05T10:54:10Z</time>
      </trkpt>
      <trkpt lat="44.13659" lon="7.23519">
        <ele>2022.5</ele>
        <time>2023-02-05T10:54:11Z</time>
      </trkpt>
      <trkpt lat="44.13659" lon="7.23519">
        <ele>2022.6</ele>
        <time>2023-02-05T10:54:12Z</time>
      </trkpt>
      <trkpt lat="44.1366" lon="7.23519">
        <ele>2022.6</ele>
        <time>2023-02-05T10:54:13Z</time>
      </trkpt>
      <trkpt lat="44.13659" lon="7.23519">
        <ele>2022.5</ele>
        <time>2023-02-05T10:54:14Z</time>
      </trkpt>
      <trkpt lat="44.13659" lon="7.23519">
        <ele>2022.4</ele>
        <time>2023-02-05T10:54:15Z</time>
      </trkpt>
      <trkpt lat="44.13659" lon="7.23519">
        <ele>2022.5</ele>
        <time>2023-02-05T10:54:16Z</time>
      </trkpt>
      <trkpt lat="44.13659" lon="7.23519">
        <ele>2022.4</ele>
        <time>2023-02-05T10:54:17Z</time>
      </trkpt>
      <trkpt lat="44.13659" lon="7.23519">
        <ele>2022.4</ele>
        <time>2023-02-05T10:54:18Z</time>
      </trkpt>
      <trkpt lat="44.13659" lon="7.23519">
        <ele>2022.3</ele>
        <time>2023-02-05T10:54:19Z</time>
      </trkpt>
      <trkpt lat="44.13659" lon="7.23518">
        <ele>2021.5</ele>
        <time>2023-02-05T10:54:20Z</time>
      </trkpt>
      <trkpt lat="44.13659" lon="7.23518">
        <ele>2021.6</ele>
        <time>2023-02-05T10:54:21Z</time>
      </trkpt>
      <trkpt lat="44.13659" lon="7.23518">
        <ele>2021.7</ele>
        <time>2023-02-05T10:54:22Z</time>
      </trkpt>
      <trkpt lat="44.13658" lon="7.23517">
        <ele>2021.9</ele>
        <time>2023-02-05T10:54:23Z</time>
      </trkpt>
      <trkpt lat="44.13658" lon="7.23517">
        <ele>2022.2</ele>
        <time>2023-02-05T10:54:24Z</time>
      </trkpt>
      <trkpt lat="44.13658" lon="7.23517">
        <ele>2022.4</ele>
        <time>2023-02-05T10:54:25Z</time>
      </trkpt>
      <trkpt lat="44.13658" lon="7.23517">
        <ele>2022.5</ele>
        <time>2023-02-05T10:54:26Z</time>
      </trkpt>
      <trkpt lat="44.13658" lon="7.23517">
        <ele>2022.5</ele>
        <time>2023-02-05T10:54:27Z</time>
      </trkpt>
      <trkpt lat="44.13658" lon="7.23517">
        <ele>2022.5</ele>
        <time>2023-02-05T10:54:28Z</time>
      </trkpt>
      <trkpt lat="44.13658" lon="7.23517">
        <ele>2022.6</ele>
        <time>2023-02-05T10:54:29Z</time>
      </trkpt>
      <trkpt lat="44.13658" lon="7.23517">
        <ele>2022.6</ele>
        <time>2023-02-05T10:54:30Z</time>
      </trkpt>
      <trkpt lat="44.13658" lon="7.23517">
        <ele>2022.6</ele>
        <time>2023-02-05T10:54:31Z</time>
      </trkpt>
      <trkpt lat="44.13658" lon="7.23517">
        <ele>2022.6</ele>
        <time>2023-02-05T10:54:32Z</time>
      </trkpt>
      <trkpt lat="44.13658" lon="7.23518">
        <ele>2022.7</ele>
        <time>2023-02-05T10:54:33Z</time>
      </trkpt>
      <trkpt lat="44.13658" lon="7.23518">
        <ele>2022.9</ele>
        <time>2023-02-05T10:54:34Z</time>
      </trkpt>
      <trkpt lat="44.13658" lon="7.23519">
        <ele>2023</ele>
        <time>2023-02-05T10:54:35Z</time>
      </trkpt>
      <trkpt lat="44.13658" lon="7.23519">
        <ele>2023</ele>
        <time>2023-02-05T10:54:36Z</time>
      </trkpt>
      <trkpt lat="44.13658" lon="7.23519">
        <ele>2023</ele>
        <time>2023-02-05T10:54:37Z</time>
      </trkpt>
      <trkpt lat="44.13658" lon="7.2352">
        <ele>2023</ele>
        <time>2023-02-05T10:54:38Z</time>
      </trkpt>
      <trkpt lat="44.13658" lon="7.2352">
        <ele>2023.1</ele>
        <time>2023-02-05T10:54:39Z</time>
      </trkpt>
      <trkpt lat="44.13658" lon="7.2352">
        <ele>2023.1</ele>
        <time>2023-02-05T10:54:40Z</time>
      </trkpt>
      <trkpt lat="44.13658" lon="7.2352">
        <ele>2023</ele>
        <time>2023-02-05T10:54:41Z</time>
      </trkpt>
      <trkpt lat="44.13658" lon="7.2352">
        <ele>2022.9</ele>
        <time>2023-02-05T10:54:42Z</time>
      </trkpt>
      <trkpt lat="44.13658" lon="7.2352">
        <ele>2022.9</ele>
        <time>2023-02-05T10:54:43Z</time>
      </trkpt>
      <trkpt lat="44.13658" lon="7.2352">
        <ele>2022.9</ele>
        <time>2023-02-05T10:54:44Z</time>
      </trkpt>
      <trkpt lat="44.13658" lon="7.2352">
        <ele>2022.9</ele>
        <time>2023-02-05T10:54:45Z</time>
      </trkpt>
      <trkpt lat="44.13658" lon="7.2352">
        <ele>2022.9</ele>
        <time>2023-02-05T10:54:46Z</time>
      </trkpt>
      <trkpt lat="44.13658" lon="7.2352">
        <ele>2023</ele>
        <time>2023-02-05T10:54:47Z</time>
      </trkpt>
      <trkpt lat="44.13657" lon="7.23521">
        <ele>2023</ele>
        <time>2023-02-05T10:54:48Z</time>
      </trkpt>
      <trkpt lat="44.13657" lon="7.23521">
        <ele>2023</ele>
        <time>2023-02-05T10:54:49Z</time>
      </trkpt>
      <trkpt lat="44.13657" lon="7.23521">
        <ele>2023.1</ele>
        <time>2023-02-05T10:54:50Z</time>
      </trkpt>
      <trkpt lat="44.13657" lon="7.23521">
        <ele>2023.1</ele>
        <time>2023-02-05T10:54:51Z</time>
      </trkpt>
      <trkpt lat="44.13657" lon="7.23522">
        <ele>2023</ele>
        <time>2023-02-05T10:54:52Z</time>
      </trkpt>
      <trkpt lat="44.13657" lon="7.23522">
        <ele>2023</ele>
        <time>2023-02-05T10:54:53Z</time>
      </trkpt>
      <trkpt lat="44.13657" lon="7.23522">
        <ele>2023</ele>
        <time>2023-02-05T10:54:54Z</time>
      </trkpt>
      <trkpt lat="44.13657" lon="7.23523">
        <ele>2023</ele>
        <time>2023-02-05T10:54:55Z</time>
      </trkpt>
      <trkpt lat="44.13656" lon="7.23523">
        <ele>2023</ele>
        <time>2023-02-05T10:54:56Z</time>
      </trkpt>
      <trkpt lat="44.13656" lon="7.23524">
        <ele>2023</ele>
        <time>2023-02-05T10:54:57Z</time>
      </trkpt>
      <trkpt lat="44.13657" lon="7.23524">
        <ele>2023</ele>
        <time>2023-02-05T10:54:58Z</time>
      </trkpt>
      <trkpt lat="44.13656" lon="7.23524">
        <ele>2023</ele>
        <time>2023-02-05T10:54:59Z</time>
      </trkpt>
      <trkpt lat="44.13657" lon="7.23523">
        <ele>2023</ele>
        <time>2023-02-05T10:55:00Z</time>
      </trkpt>
      <trkpt lat="44.13657" lon="7.23521">
        <ele>2023</ele>
        <time>2023-02-05T10:55:01Z</time>
      </trkpt>
      <trkpt lat="44.13657" lon="7.23521">
        <ele>2023</ele>
        <time>2023-02-05T10:55:02Z</time>
      </trkpt>
      <trkpt lat="44.13657" lon="7.2352">
        <ele>2023.2</ele>
        <time>2023-02-05T10:55:03Z</time>
      </trkpt>
      <trkpt lat="44.13657" lon="7.23519">
        <ele>2023.2</ele>
        <time>2023-02-05T10:55:04Z</time>
      </trkpt>
      <trkpt lat="44.13657" lon="7.23518">
        <ele>2023.2</ele>
        <time>2023-02-05T10:55:05Z</time>
      </trkpt>
      <trkpt lat="44.13657" lon="7.23517">
        <ele>2023.2</ele>
        <time>2023-02-05T10:55:06Z</time>
      </trkpt>
      <trkpt lat="44.13658" lon="7.23516">
        <ele>2023.2</ele>
        <time>2023-02-05T10:55:07Z</time>
      </trkpt>
      <trkpt lat="44.13658" lon="7.23515">
        <ele>2023.3</ele>
        <time>2023-02-05T10:55:08Z</time>
      </trkpt>
      <trkpt lat="44.13659" lon="7.23515">
        <ele>2023.4</ele>
        <time>2023-02-05T10:55:09Z</time>
      </trkpt>
      <trkpt lat="44.13659" lon="7.23514">
        <ele>2023.6</ele>
        <time>2023-02-05T10:55:10Z</time>
      </trkpt>
      <trkpt lat="44.13659" lon="7.23514">
        <ele>2023.7</ele>
        <time>2023-02-05T10:55:11Z</time>
      </trkpt>
      <trkpt lat="44.1366" lon="7.23513">
        <ele>2023.9</ele>
        <time>2023-02-05T10:55:12Z</time>
      </trkpt>
      <trkpt lat="44.1366" lon="7.23512">
        <ele>2024</ele>
        <time>2023-02-05T10:55:13Z</time>
      </trkpt>
      <trkpt lat="44.1366" lon="7.23512">
        <ele>2024.2</ele>
        <time>2023-02-05T10:55:14Z</time>
      </trkpt>
      <trkpt lat="44.13659" lon="7.23512">
        <ele>2024.3</ele>
        <time>2023-02-05T10:55:15Z</time>
      </trkpt>
      <trkpt lat="44.13659" lon="7.23512">
        <ele>2024.5</ele>
        <time>2023-02-05T10:55:16Z</time>
      </trkpt>
      <trkpt lat="44.13659" lon="7.23512">
        <ele>2024.6</ele>
        <time>2023-02-05T10:55:17Z</time>
      </trkpt>
      <trkpt lat="44.1366" lon="7.23512">
        <ele>2024.7</ele>
        <time>2023-02-05T10:55:18Z</time>
      </trkpt>
      <trkpt lat="44.13659" lon="7.23511">
        <ele>2024.8</ele>
        <time>2023-02-05T10:55:19Z</time>
      </trkpt>
      <trkpt lat="44.1366" lon="7.2351">
        <ele>2024.9</ele>
        <time>2023-02-05T10:55:20Z</time>
      </trkpt>
      <trkpt lat="44.1366" lon="7.2351">
        <ele>2024.9</ele>
        <time>2023-02-05T10:55:21Z</time>
      </trkpt>
      <trkpt lat="44.1366" lon="7.23508">
        <ele>2025</ele>
        <time>2023-02-05T10:55:22Z</time>
      </trkpt>
      <trkpt lat="44.1366" lon="7.23507">
        <ele>2025.2</ele>
        <time>2023-02-05T10:55:23Z</time>
      </trkpt>
      <trkpt lat="44.13659" lon="7.23506">
        <ele>2025.3</ele>
        <time>2023-02-05T10:55:24Z</time>
      </trkpt>
      <trkpt lat="44.13659" lon="7.23505">
        <ele>2025.5</ele>
        <time>2023-02-05T10:55:25Z</time>
      </trkpt>
      <trkpt lat="44.13659" lon="7.23504">
        <ele>2025.6</ele>
        <time>2023-02-05T10:55:26Z</time>
      </trkpt>
      <trkpt lat="44.13659" lon="7.23503">
        <ele>2025.7</ele>
        <time>2023-02-05T10:55:27Z</time>
      </trkpt>
      <trkpt lat="44.13658" lon="7.23502">
        <ele>2025.8</ele>
        <time>2023-02-05T10:55:28Z</time>
      </trkpt>
      <trkpt lat="44.13658" lon="7.23501">
        <ele>2026</ele>
        <time>2023-02-05T10:55:29Z</time>
      </trkpt>
      <trkpt lat="44.13658" lon="7.235">
        <ele>2026.2</ele>
        <time>2023-02-05T10:55:30Z</time>
      </trkpt>
      <trkpt lat="44.13658" lon="7.23499">
        <ele>2026.2</ele>
        <time>2023-02-05T10:55:31Z</time>
      </trkpt>
      <trkpt lat="44.13658" lon="7.23498">
        <ele>2026.3</ele>
        <time>2023-02-05T10:55:32Z</time>
      </trkpt>
      <trkpt lat="44.13658" lon="7.23497">
        <ele>2026.4</ele>
        <time>2023-02-05T10:55:33Z</time>
      </trkpt>
      <trkpt lat="44.13657" lon="7.23496">
        <ele>2026.5</ele>
        <time>2023-02-05T10:55:34Z</time>
      </trkpt>
      <trkpt lat="44.13657" lon="7.23494">
        <ele>2026.8</ele>
        <time>2023-02-05T10:55:35Z</time>
      </trkpt>
      <trkpt lat="44.13656" lon="7.23493">
        <ele>2027</ele>
        <time>2023-02-05T10:55:36Z</time>
      </trkpt>
      <trkpt lat="44.13656" lon="7.23492">
        <ele>2027.2</ele>
        <time>2023-02-05T10:55:37Z</time>
      </trkpt>
      <trkpt lat="44.13655" lon="7.23491">
        <ele>2027.4</ele>
        <time>2023-02-05T10:55:38Z</time>
      </trkpt>
      <trkpt lat="44.13655" lon="7.2349">
        <ele>2027.6</ele>
        <time>2023-02-05T10:55:39Z</time>
      </trkpt>
      <trkpt lat="44.13654" lon="7.23489">
        <ele>2027.7</ele>
        <time>2023-02-05T10:55:40Z</time>
      </trkpt>
      <trkpt lat="44.13653" lon="7.23488">
        <ele>2027.8</ele>
        <time>2023-02-05T10:55:41Z</time>
      </trkpt>
      <trkpt lat="44.13653" lon="7.23487">
        <ele>2027.9</ele>
        <time>2023-02-05T10:55:42Z</time>
      </trkpt>
      <trkpt lat="44.13653" lon="7.23486">
        <ele>2028</ele>
        <time>2023-02-05T10:55:43Z</time>
      </trkpt>
      <trkpt lat="44.13652" lon="7.23485">
        <ele>2028.2</ele>
        <time>2023-02-05T10:55:44Z</time>
      </trkpt>
      <trkpt lat="44.13652" lon="7.23484">
        <ele>2028.4</ele>
        <time>2023-02-05T10:55:45Z</time>
      </trkpt>
      <trkpt lat="44.13652" lon="7.23483">
        <ele>2028.5</ele>
        <time>2023-02-05T10:55:46Z</time>
      </trkpt>
      <trkpt lat="44.13651" lon="7.23482">
        <ele>2028.6</ele>
        <time>2023-02-05T10:55:47Z</time>
      </trkpt>
      <trkpt lat="44.13651" lon="7.23481">
        <ele>2028.6</ele>
        <time>2023-02-05T10:55:48Z</time>
      </trkpt>
      <trkpt lat="44.13651" lon="7.2348">
        <ele>2028.7</ele>
        <time>2023-02-05T10:55:49Z</time>
      </trkpt>
      <trkpt lat="44.13652" lon="7.2348">
        <ele>2028.8</ele>
        <time>2023-02-05T10:55:50Z</time>
      </trkpt>
      <trkpt lat="44.13652" lon="7.23479">
        <ele>2028.8</ele>
        <time>2023-02-05T10:55:51Z</time>
      </trkpt>
      <trkpt lat="44.13652" lon="7.23478">
        <ele>2028.8</ele>
        <time>2023-02-05T10:55:52Z</time>
      </trkpt>
      <trkpt lat="44.13651" lon="7.23477">
        <ele>2028.9</ele>
        <time>2023-02-05T10:55:53Z</time>
      </trkpt>
      <trkpt lat="44.13651" lon="7.23476">
        <ele>2028.9</ele>
        <time>2023-02-05T10:55:54Z</time>
      </trkpt>
      <trkpt lat="44.13651" lon="7.23475">
        <ele>2029</ele>
        <time>2023-02-05T10:55:55Z</time>
      </trkpt>
      <trkpt lat="44.1365" lon="7.23475">
        <ele>2029.2</ele>
        <time>2023-02-05T10:55:56Z</time>
      </trkpt>
      <trkpt lat="44.13649" lon="7.23474">
        <ele>2029.4</ele>
        <time>2023-02-05T10:55:57Z</time>
      </trkpt>
      <trkpt lat="44.13649" lon="7.23473">
        <ele>2029.5</ele>
        <time>2023-02-05T10:55:58Z</time>
      </trkpt>
      <trkpt lat="44.13649" lon="7.23473">
        <ele>2029.6</ele>
        <time>2023-02-05T10:55:59Z</time>
      </trkpt>
      <trkpt lat="44.13649" lon="7.23472">
        <ele>2029.7</ele>
        <time>2023-02-05T10:56:00Z</time>
      </trkpt>
      <trkpt lat="44.13649" lon="7.23472">
        <ele>2029.8</ele>
        <time>2023-02-05T10:56:01Z</time>
      </trkpt>
      <trkpt lat="44.1365" lon="7.23471">
        <ele>2029.8</ele>
        <time>2023-02-05T10:56:02Z</time>
      </trkpt>
      <trkpt lat="44.1365" lon="7.2347">
        <ele>2030</ele>
        <time>2023-02-05T10:56:03Z</time>
      </trkpt>
      <trkpt lat="44.13649" lon="7.23469">
        <ele>2030.2</ele>
        <time>2023-02-05T10:56:04Z</time>
      </trkpt>
      <trkpt lat="44.13649" lon="7.23469">
        <ele>2030.4</ele>
        <time>2023-02-05T10:56:05Z</time>
      </trkpt>
      <trkpt lat="44.13649" lon="7.23468">
        <ele>2030.6</ele>
        <time>2023-02-05T10:56:06Z</time>
      </trkpt>
      <trkpt lat="44.13649" lon="7.23468">
        <ele>2030.7</ele>
        <time>2023-02-05T10:56:07Z</time>
      </trkpt>
      <trkpt lat="44.13648" lon="7.23467">
        <ele>2030.8</ele>
        <time>2023-02-05T10:56:08Z</time>
      </trkpt>
      <trkpt lat="44.13648" lon="7.23466">
        <ele>2030.9</ele>
        <time>2023-02-05T10:56:09Z</time>
      </trkpt>
      <trkpt lat="44.13647" lon="7.23466">
        <ele>2031</ele>
        <time>2023-02-05T10:56:10Z</time>
      </trkpt>
      <trkpt lat="44.13647" lon="7.23466">
        <ele>2031.1</ele>
        <time>2023-02-05T10:56:11Z</time>
      </trkpt>
      <trkpt lat="44.13646" lon="7.23466">
        <ele>2031.2</ele>
        <time>2023-02-05T10:56:12Z</time>
      </trkpt>
      <trkpt lat="44.13645" lon="7.23466">
        <ele>2031.3</ele>
        <time>2023-02-05T10:56:13Z</time>
      </trkpt>
      <trkpt lat="44.13645" lon="7.23465">
        <ele>2031.4</ele>
        <time>2023-02-05T10:56:14Z</time>
      </trkpt>
      <trkpt lat="44.13644" lon="7.23464">
        <ele>2031.5</ele>
        <time>2023-02-05T10:56:15Z</time>
      </trkpt>
      <trkpt lat="44.13643" lon="7.23464">
        <ele>2031.6</ele>
        <time>2023-02-05T10:56:16Z</time>
      </trkpt>
      <trkpt lat="44.13644" lon="7.23463">
        <ele>2031.7</ele>
        <time>2023-02-05T10:56:17Z</time>
      </trkpt>
      <trkpt lat="44.13644" lon="7.23462">
        <ele>2031.9</ele>
        <time>2023-02-05T10:56:18Z</time>
      </trkpt>
      <trkpt lat="44.13644" lon="7.23462">
        <ele>2032</ele>
        <time>2023-02-05T10:56:19Z</time>
      </trkpt>
      <trkpt lat="44.13643" lon="7.23461">
        <ele>2032.2</ele>
        <time>2023-02-05T10:56:20Z</time>
      </trkpt>
      <trkpt lat="44.13643" lon="7.23461">
        <ele>2032.4</ele>
        <time>2023-02-05T10:56:21Z</time>
      </trkpt>
      <trkpt lat="44.13643" lon="7.2346">
        <ele>2032.5</ele>
        <time>2023-02-05T10:56:22Z</time>
      </trkpt>
      <trkpt lat="44.13643" lon="7.23459">
        <ele>2032.6</ele>
        <time>2023-02-05T10:56:23Z</time>
      </trkpt>
      <trkpt lat="44.13643" lon="7.23458">
        <ele>2032.7</ele>
        <time>2023-02-05T10:56:24Z</time>
      </trkpt>
      <trkpt lat="44.13643" lon="7.23457">
        <ele>2032.7</ele>
        <time>2023-02-05T10:56:25Z</time>
      </trkpt>
      <trkpt lat="44.13643" lon="7.23457">
        <ele>2032.8</ele>
        <time>2023-02-05T10:56:26Z</time>
      </trkpt>
      <trkpt lat="44.13643" lon="7.23456">
        <ele>2032.9</ele>
        <time>2023-02-05T10:56:27Z</time>
      </trkpt>
      <trkpt lat="44.13643" lon="7.23455">
        <ele>2033</ele>
        <time>2023-02-05T10:56:28Z</time>
      </trkpt>
      <trkpt lat="44.13643" lon="7.23455">
        <ele>2033.2</ele>
        <time>2023-02-05T10:56:29Z</time>
      </trkpt>
      <trkpt lat="44.13643" lon="7.23454">
        <ele>2033.3</ele>
        <time>2023-02-05T10:56:30Z</time>
      </trkpt>
      <trkpt lat="44.13643" lon="7.23453">
        <ele>2033.4</ele>
        <time>2023-02-05T10:56:31Z</time>
      </trkpt>
      <trkpt lat="44.13643" lon="7.23453">
        <ele>2033.6</ele>
        <time>2023-02-05T10:56:32Z</time>
      </trkpt>
      <trkpt lat="44.13644" lon="7.23452">
        <ele>2033.8</ele>
        <time>2023-02-05T10:56:33Z</time>
      </trkpt>
      <trkpt lat="44.13644" lon="7.23451">
        <ele>2033.9</ele>
        <time>2023-02-05T10:56:34Z</time>
      </trkpt>
      <trkpt lat="44.13644" lon="7.23449">
        <ele>2034.1</ele>
        <time>2023-02-05T10:56:35Z</time>
      </trkpt>
      <trkpt lat="44.13644" lon="7.23448">
        <ele>2034.1</ele>
        <time>2023-02-05T10:56:36Z</time>
      </trkpt>
      <trkpt lat="44.13644" lon="7.23447">
        <ele>2034.3</ele>
        <time>2023-02-05T10:56:37Z</time>
      </trkpt>
      <trkpt lat="44.13644" lon="7.23445">
        <ele>2034.5</ele>
        <time>2023-02-05T10:56:38Z</time>
      </trkpt>
      <trkpt lat="44.13644" lon="7.23445">
        <ele>2034.6</ele>
        <time>2023-02-05T10:56:39Z</time>
      </trkpt>
      <trkpt lat="44.13644" lon="7.23444">
        <ele>2034.7</ele>
        <time>2023-02-05T10:56:40Z</time>
      </trkpt>
      <trkpt lat="44.13644" lon="7.23443">
        <ele>2034.8</ele>
        <time>2023-02-05T10:56:41Z</time>
      </trkpt>
      <trkpt lat="44.13644" lon="7.23442">
        <ele>2035.1</ele>
        <time>2023-02-05T10:56:42Z</time>
      </trkpt>
      <trkpt lat="44.13645" lon="7.23442">
        <ele>2035.3</ele>
        <time>2023-02-05T10:56:43Z</time>
      </trkpt>
      <trkpt lat="44.13645" lon="7.23442">
        <ele>2035.5</ele>
        <time>2023-02-05T10:56:44Z</time>
      </trkpt>
      <trkpt lat="44.13644" lon="7.23441">
        <ele>2035.7</ele>
        <time>2023-02-05T10:56:45Z</time>
      </trkpt>
      <trkpt lat="44.13644" lon="7.23441">
        <ele>2035.9</ele>
        <time>2023-02-05T10:56:46Z</time>
      </trkpt>
      <trkpt lat="44.13645" lon="7.2344">
        <ele>2036.1</ele>
        <time>2023-02-05T10:56:47Z</time>
      </trkpt>
      <trkpt lat="44.13645" lon="7.23439">
        <ele>2036.3</ele>
        <time>2023-02-05T10:56:48Z</time>
      </trkpt>
      <trkpt lat="44.13645" lon="7.23439">
        <ele>2036.4</ele>
        <time>2023-02-05T10:56:49Z</time>
      </trkpt>
      <trkpt lat="44.13645" lon="7.23439">
        <ele>2036.5</ele>
        <time>2023-02-05T10:56:50Z</time>
      </trkpt>
      <trkpt lat="44.13645" lon="7.23438">
        <ele>2036.6</ele>
        <time>2023-02-05T10:56:51Z</time>
      </trkpt>
      <trkpt lat="44.13645" lon="7.23438">
        <ele>2036.8</ele>
        <time>2023-02-05T10:56:52Z</time>
      </trkpt>
      <trkpt lat="44.13645" lon="7.23437">
        <ele>2036.9</ele>
        <time>2023-02-05T10:56:53Z</time>
      </trkpt>
      <trkpt lat="44.13645" lon="7.23437">
        <ele>2037.1</ele>
        <time>2023-02-05T10:56:54Z</time>
      </trkpt>
      <trkpt lat="44.13645" lon="7.23436">
        <ele>2037.2</ele>
        <time>2023-02-05T10:56:55Z</time>
      </trkpt>
      <trkpt lat="44.13645" lon="7.23436">
        <ele>2037.4</ele>
        <time>2023-02-05T10:56:56Z</time>
      </trkpt>
      <trkpt lat="44.13645" lon="7.23435">
        <ele>2037.6</ele>
        <time>2023-02-05T10:56:57Z</time>
      </trkpt>
      <trkpt lat="44.13645" lon="7.23434">
        <ele>2037.8</ele>
        <time>2023-02-05T10:56:58Z</time>
      </trkpt>
      <trkpt lat="44.13646" lon="7.23433">
        <ele>2037.9</ele>
        <time>2023-02-05T10:56:59Z</time>
      </trkpt>
      <trkpt lat="44.13646" lon="7.23431">
        <ele>2038</ele>
        <time>2023-02-05T10:57:00Z</time>
      </trkpt>
      <trkpt lat="44.13646" lon="7.23431">
        <ele>2038.1</ele>
        <time>2023-02-05T10:57:01Z</time>
      </trkpt>
      <trkpt lat="44.13646" lon="7.2343">
        <ele>2038.1</ele>
        <time>2023-02-05T10:57:02Z</time>
      </trkpt>
      <trkpt lat="44.13646" lon="7.23429">
        <ele>2038.3</ele>
        <time>2023-02-05T10:57:03Z</time>
      </trkpt>
      <trkpt lat="44.13647" lon="7.23428">
        <ele>2038.5</ele>
        <time>2023-02-05T10:57:04Z</time>
      </trkpt>
      <trkpt lat="44.13647" lon="7.23428">
        <ele>2038.6</ele>
        <time>2023-02-05T10:57:05Z</time>
      </trkpt>
      <trkpt lat="44.13647" lon="7.23428">
        <ele>2038.7</ele>
        <time>2023-02-05T10:57:06Z</time>
      </trkpt>
      <trkpt lat="44.13647" lon="7.23428">
        <ele>2038.8</ele>
        <time>2023-02-05T10:57:07Z</time>
      </trkpt>
      <trkpt lat="44.13647" lon="7.23429">
        <ele>2038.8</ele>
        <time>2023-02-05T10:57:08Z</time>
      </trkpt>
      <trkpt lat="44.13647" lon="7.23428">
        <ele>2038.9</ele>
        <time>2023-02-05T10:57:09Z</time>
      </trkpt>
      <trkpt lat="44.13647" lon="7.23428">
        <ele>2038.9</ele>
        <time>2023-02-05T10:57:10Z</time>
      </trkpt>
      <trkpt lat="44.13647" lon="7.23427">
        <ele>2039</ele>
        <time>2023-02-05T10:57:11Z</time>
      </trkpt>
      <trkpt lat="44.13647" lon="7.23427">
        <ele>2039</ele>
        <time>2023-02-05T10:57:12Z</time>
      </trkpt>
      <trkpt lat="44.13647" lon="7.23427">
        <ele>2039.1</ele>
        <time>2023-02-05T10:57:13Z</time>
      </trkpt>
      <trkpt lat="44.13647" lon="7.23427">
        <ele>2039.1</ele>
        <time>2023-02-05T10:57:14Z</time>
      </trkpt>
      <trkpt lat="44.13647" lon="7.23427">
        <ele>2039.2</ele>
        <time>2023-02-05T10:57:15Z</time>
      </trkpt>
      <trkpt lat="44.13648" lon="7.23427">
        <ele>2039.2</ele>
        <time>2023-02-05T10:57:16Z</time>
      </trkpt>
      <trkpt lat="44.13648" lon="7.23427">
        <ele>2039.3</ele>
        <time>2023-02-05T10:57:17Z</time>
      </trkpt>
      <trkpt lat="44.13648" lon="7.23427">
        <ele>2039.3</ele>
        <time>2023-02-05T10:57:18Z</time>
      </trkpt>
      <trkpt lat="44.13648" lon="7.23427">
        <ele>2039.3</ele>
        <time>2023-02-05T10:57:19Z</time>
      </trkpt>
      <trkpt lat="44.13648" lon="7.23427">
        <ele>2039.2</ele>
        <time>2023-02-05T10:57:20Z</time>
      </trkpt>
      <trkpt lat="44.13648" lon="7.23426">
        <ele>2039.2</ele>
        <time>2023-02-05T10:57:21Z</time>
      </trkpt>
      <trkpt lat="44.13648" lon="7.23425">
        <ele>2039.2</ele>
        <time>2023-02-05T10:57:22Z</time>
      </trkpt>
      <trkpt lat="44.13648" lon="7.23424">
        <ele>2039.2</ele>
        <time>2023-02-05T10:57:23Z</time>
      </trkpt>
      <trkpt lat="44.13648" lon="7.23423">
        <ele>2039.2</ele>
        <time>2023-02-05T10:57:24Z</time>
      </trkpt>
      <trkpt lat="44.13648" lon="7.23421">
        <ele>2039.2</ele>
        <time>2023-02-05T10:57:25Z</time>
      </trkpt>
      <trkpt lat="44.13649" lon="7.2342">
        <ele>2039.2</ele>
        <time>2023-02-05T10:57:26Z</time>
      </trkpt>
      <trkpt lat="44.13649" lon="7.23419">
        <ele>2039.2</ele>
        <time>2023-02-05T10:57:27Z</time>
      </trkpt>
      <trkpt lat="44.13649" lon="7.23417">
        <ele>2039.2</ele>
        <time>2023-02-05T10:57:28Z</time>
      </trkpt>
      <trkpt lat="44.1365" lon="7.23416">
        <ele>2039.3</ele>
        <time>2023-02-05T10:57:29Z</time>
      </trkpt>
      <trkpt lat="44.1365" lon="7.23415">
        <ele>2039.5</ele>
        <time>2023-02-05T10:57:30Z</time>
      </trkpt>
      <trkpt lat="44.1365" lon="7.23414">
        <ele>2039.6</ele>
        <time>2023-02-05T10:57:31Z</time>
      </trkpt>
      <trkpt lat="44.1365" lon="7.23413">
        <ele>2039.8</ele>
        <time>2023-02-05T10:57:32Z</time>
      </trkpt>
      <trkpt lat="44.13651" lon="7.23412">
        <ele>2039.7</ele>
        <time>2023-02-05T10:57:33Z</time>
      </trkpt>
      <trkpt lat="44.13651" lon="7.23411">
        <ele>2040</ele>
        <time>2023-02-05T10:57:34Z</time>
      </trkpt>
      <trkpt lat="44.13651" lon="7.23409">
        <ele>2039.9</ele>
        <time>2023-02-05T10:57:35Z</time>
      </trkpt>
      <trkpt lat="44.13651" lon="7.23408">
        <ele>2040</ele>
        <time>2023-02-05T10:57:36Z</time>
      </trkpt>
      <trkpt lat="44.13652" lon="7.23406">
        <ele>2040.2</ele>
        <time>2023-02-05T10:57:37Z</time>
      </trkpt>
      <trkpt lat="44.13652" lon="7.23405">
        <ele>2040.2</ele>
        <time>2023-02-05T10:57:38Z</time>
      </trkpt>
      <trkpt lat="44.13652" lon="7.23403">
        <ele>2040.4</ele>
        <time>2023-02-05T10:57:39Z</time>
      </trkpt>
      <trkpt lat="44.13652" lon="7.23403">
        <ele>2040.5</ele>
        <time>2023-02-05T10:57:40Z</time>
      </trkpt>
      <trkpt lat="44.13652" lon="7.23401">
        <ele>2040.6</ele>
        <time>2023-02-05T10:57:41Z</time>
      </trkpt>
      <trkpt lat="44.13652" lon="7.234">
        <ele>2040.6</ele>
        <time>2023-02-05T10:57:42Z</time>
      </trkpt>
      <trkpt lat="44.13652" lon="7.234">
        <ele>2040.6</ele>
        <time>2023-02-05T10:57:43Z</time>
      </trkpt>
      <trkpt lat="44.13652" lon="7.23399">
        <ele>2040.6</ele>
        <time>2023-02-05T10:57:44Z</time>
      </trkpt>
      <trkpt lat="44.13652" lon="7.23397">
        <ele>2040.6</ele>
        <time>2023-02-05T10:57:45Z</time>
      </trkpt>
      <trkpt lat="44.13652" lon="7.23397">
        <ele>2040.8</ele>
        <time>2023-02-05T10:57:46Z</time>
      </trkpt>
      <trkpt lat="44.13652" lon="7.23396">
        <ele>2041</ele>
        <time>2023-02-05T10:57:47Z</time>
      </trkpt>
      <trkpt lat="44.13652" lon="7.23396">
        <ele>2041.1</ele>
        <time>2023-02-05T10:57:48Z</time>
      </trkpt>
      <trkpt lat="44.13652" lon="7.23395">
        <ele>2041.1</ele>
        <time>2023-02-05T10:57:49Z</time>
      </trkpt>
      <trkpt lat="44.13653" lon="7.23394">
        <ele>2041.3</ele>
        <time>2023-02-05T10:57:50Z</time>
      </trkpt>
      <trkpt lat="44.13653" lon="7.23392">
        <ele>2041.4</ele>
        <time>2023-02-05T10:57:51Z</time>
      </trkpt>
      <trkpt lat="44.13653" lon="7.23391">
        <ele>2041.5</ele>
        <time>2023-02-05T10:57:52Z</time>
      </trkpt>
      <trkpt lat="44.13654" lon="7.2339">
        <ele>2041.6</ele>
        <time>2023-02-05T10:57:53Z</time>
      </trkpt>
      <trkpt lat="44.13654" lon="7.2339">
        <ele>2041.6</ele>
        <time>2023-02-05T10:57:54Z</time>
      </trkpt>
      <trkpt lat="44.13654" lon="7.23389">
        <ele>2041.7</ele>
        <time>2023-02-05T10:57:55Z</time>
      </trkpt>
      <trkpt lat="44.13654" lon="7.23388">
        <ele>2041.7</ele>
        <time>2023-02-05T10:57:56Z</time>
      </trkpt>
      <trkpt lat="44.13654" lon="7.23387">
        <ele>2041.7</ele>
        <time>2023-02-05T10:57:57Z</time>
      </trkpt>
      <trkpt lat="44.13654" lon="7.23386">
        <ele>2041.7</ele>
        <time>2023-02-05T10:57:58Z</time>
      </trkpt>
      <trkpt lat="44.13654" lon="7.23385">
        <ele>2041.8</ele>
        <time>2023-02-05T10:57:59Z</time>
      </trkpt>
      <trkpt lat="44.13654" lon="7.23383">
        <ele>2041.8</ele>
        <time>2023-02-05T10:58:00Z</time>
      </trkpt>
      <trkpt lat="44.13654" lon="7.23382">
        <ele>2041.8</ele>
        <time>2023-02-05T10:58:01Z</time>
      </trkpt>
      <trkpt lat="44.13654" lon="7.23381">
        <ele>2041.8</ele>
        <time>2023-02-05T10:58:02Z</time>
      </trkpt>
      <trkpt lat="44.13654" lon="7.2338">
        <ele>2041.9</ele>
        <time>2023-02-05T10:58:03Z</time>
      </trkpt>
      <trkpt lat="44.13654" lon="7.23379">
        <ele>2042</ele>
        <time>2023-02-05T10:58:04Z</time>
      </trkpt>
      <trkpt lat="44.13654" lon="7.23379">
        <ele>2042.3</ele>
        <time>2023-02-05T10:58:05Z</time>
      </trkpt>
      <trkpt lat="44.13655" lon="7.23379">
        <ele>2042.6</ele>
        <time>2023-02-05T10:58:06Z</time>
      </trkpt>
      <trkpt lat="44.13655" lon="7.23378">
        <ele>2042.8</ele>
        <time>2023-02-05T10:58:07Z</time>
      </trkpt>
      <trkpt lat="44.13656" lon="7.23378">
        <ele>2043</ele>
        <time>2023-02-05T10:58:08Z</time>
      </trkpt>
      <trkpt lat="44.13656" lon="7.23377">
        <ele>2043.1</ele>
        <time>2023-02-05T10:58:09Z</time>
      </trkpt>
      <trkpt lat="44.13657" lon="7.23377">
        <ele>2043.3</ele>
        <time>2023-02-05T10:58:10Z</time>
      </trkpt>
      <trkpt lat="44.13657" lon="7.23376">
        <ele>2043.5</ele>
        <time>2023-02-05T10:58:11Z</time>
      </trkpt>
      <trkpt lat="44.13657" lon="7.23376">
        <ele>2043.6</ele>
        <time>2023-02-05T10:58:12Z</time>
      </trkpt>
      <trkpt lat="44.13658" lon="7.23375">
        <ele>2043.7</ele>
        <time>2023-02-05T10:58:13Z</time>
      </trkpt>
      <trkpt lat="44.13658" lon="7.23375">
        <ele>2043.8</ele>
        <time>2023-02-05T10:58:14Z</time>
      </trkpt>
      <trkpt lat="44.13659" lon="7.23374">
        <ele>2044</ele>
        <time>2023-02-05T10:58:15Z</time>
      </trkpt>
      <trkpt lat="44.13659" lon="7.23373">
        <ele>2044.2</ele>
        <time>2023-02-05T10:58:16Z</time>
      </trkpt>
      <trkpt lat="44.13659" lon="7.23373">
        <ele>2044.4</ele>
        <time>2023-02-05T10:58:17Z</time>
      </trkpt>
      <trkpt lat="44.13659" lon="7.23371">
        <ele>2044.5</ele>
        <time>2023-02-05T10:58:18Z</time>
      </trkpt>
      <trkpt lat="44.13659" lon="7.2337">
        <ele>2044.8</ele>
        <time>2023-02-05T10:58:19Z</time>
      </trkpt>
      <trkpt lat="44.13659" lon="7.23368">
        <ele>2045</ele>
        <time>2023-02-05T10:58:20Z</time>
      </trkpt>
      <trkpt lat="44.1366" lon="7.23367">
        <ele>2045.2</ele>
        <time>2023-02-05T10:58:21Z</time>
      </trkpt>
      <trkpt lat="44.1366" lon="7.23366">
        <ele>2045.3</ele>
        <time>2023-02-05T10:58:22Z</time>
      </trkpt>
      <trkpt lat="44.13661" lon="7.23364">
        <ele>2045.4</ele>
        <time>2023-02-05T10:58:23Z</time>
      </trkpt>
      <trkpt lat="44.13661" lon="7.23363">
        <ele>2045.4</ele>
        <time>2023-02-05T10:58:24Z</time>
      </trkpt>
      <trkpt lat="44.13662" lon="7.23362">
        <ele>2045.5</ele>
        <time>2023-02-05T10:58:25Z</time>
      </trkpt>
      <trkpt lat="44.13662" lon="7.23362">
        <ele>2045.6</ele>
        <time>2023-02-05T10:58:26Z</time>
      </trkpt>
      <trkpt lat="44.13662" lon="7.23361">
        <ele>2045.7</ele>
        <time>2023-02-05T10:58:27Z</time>
      </trkpt>
      <trkpt lat="44.13663" lon="7.23361">
        <ele>2045.8</ele>
        <time>2023-02-05T10:58:28Z</time>
      </trkpt>
      <trkpt lat="44.13663" lon="7.2336">
        <ele>2046</ele>
        <time>2023-02-05T10:58:29Z</time>
      </trkpt>
      <trkpt lat="44.13662" lon="7.2336">
        <ele>2046.2</ele>
        <time>2023-02-05T10:58:30Z</time>
      </trkpt>
      <trkpt lat="44.13662" lon="7.2336">
        <ele>2046.2</ele>
        <time>2023-02-05T10:58:31Z</time>
      </trkpt>
      <trkpt lat="44.13661" lon="7.2336">
        <ele>2046.3</ele>
        <time>2023-02-05T10:58:32Z</time>
      </trkpt>
      <trkpt lat="44.13661" lon="7.2336">
        <ele>2046.3</ele>
        <time>2023-02-05T10:58:33Z</time>
      </trkpt>
      <trkpt lat="44.13662" lon="7.23359">
        <ele>2046.4</ele>
        <time>2023-02-05T10:58:34Z</time>
      </trkpt>
      <trkpt lat="44.13662" lon="7.23358">
        <ele>2046.5</ele>
        <time>2023-02-05T10:58:35Z</time>
      </trkpt>
      <trkpt lat="44.13663" lon="7.23358">
        <ele>2046.6</ele>
        <time>2023-02-05T10:58:36Z</time>
      </trkpt>
      <trkpt lat="44.13663" lon="7.23358">
        <ele>2046.6</ele>
        <time>2023-02-05T10:58:37Z</time>
      </trkpt>
      <trkpt lat="44.13663" lon="7.23358">
        <ele>2046.6</ele>
        <time>2023-02-05T10:58:38Z</time>
      </trkpt>
      <trkpt lat="44.13664" lon="7.23358">
        <ele>2046.6</ele>
        <time>2023-02-05T10:58:39Z</time>
      </trkpt>
      <trkpt lat="44.13664" lon="7.23357">
        <ele>2046.6</ele>
        <time>2023-02-05T10:58:40Z</time>
      </trkpt>
      <trkpt lat="44.13664" lon="7.23357">
        <ele>2046.6</ele>
        <time>2023-02-05T10:58:41Z</time>
      </trkpt>
      <trkpt lat="44.13663" lon="7.23356">
        <ele>2046.6</ele>
        <time>2023-02-05T10:58:42Z</time>
      </trkpt>
      <trkpt lat="44.13664" lon="7.23355">
        <ele>2046.7</ele>
        <time>2023-02-05T10:58:43Z</time>
      </trkpt>
      <trkpt lat="44.13664" lon="7.23355">
        <ele>2046.7</ele>
        <time>2023-02-05T10:58:44Z</time>
      </trkpt>
      <trkpt lat="44.13663" lon="7.23355">
        <ele>2046.8</ele>
        <time>2023-02-05T10:58:45Z</time>
      </trkpt>
      <trkpt lat="44.13663" lon="7.23355">
        <ele>2046.8</ele>
        <time>2023-02-05T10:58:46Z</time>
      </trkpt>
      <trkpt lat="44.13663" lon="7.23355">
        <ele>2046.7</ele>
        <time>2023-02-05T10:58:47Z</time>
      </trkpt>
      <trkpt lat="44.13664" lon="7.23354">
        <ele>2046.7</ele>
        <time>2023-02-05T10:58:48Z</time>
      </trkpt>
      <trkpt lat="44.13664" lon="7.23354">
        <ele>2046.7</ele>
        <time>2023-02-05T10:58:49Z</time>
      </trkpt>
      <trkpt lat="44.13664" lon="7.23354">
        <ele>2046.6</ele>
        <time>2023-02-05T10:58:50Z</time>
      </trkpt>
      <trkpt lat="44.13664" lon="7.23353">
        <ele>2046.7</ele>
        <time>2023-02-05T10:58:51Z</time>
      </trkpt>
      <trkpt lat="44.13664" lon="7.23353">
        <ele>2046.8</ele>
        <time>2023-02-05T10:58:52Z</time>
      </trkpt>
      <trkpt lat="44.13664" lon="7.23353">
        <ele>2046.8</ele>
        <time>2023-02-05T10:58:53Z</time>
      </trkpt>
      <trkpt lat="44.13664" lon="7.23353">
        <ele>2046.7</ele>
        <time>2023-02-05T10:58:54Z</time>
      </trkpt>
      <trkpt lat="44.13663" lon="7.23353">
        <ele>2046.6</ele>
        <time>2023-02-05T10:58:55Z</time>
      </trkpt>
      <trkpt lat="44.13664" lon="7.23353">
        <ele>2046.6</ele>
        <time>2023-02-05T10:58:56Z</time>
      </trkpt>
      <trkpt lat="44.13664" lon="7.23353">
        <ele>2046.6</ele>
        <time>2023-02-05T10:58:57Z</time>
      </trkpt>
      <trkpt lat="44.13664" lon="7.23353">
        <ele>2046.6</ele>
        <time>2023-02-05T10:58:58Z</time>
      </trkpt>
      <trkpt lat="44.13664" lon="7.23352">
        <ele>2046.6</ele>
        <time>2023-02-05T10:58:59Z</time>
      </trkpt>
      <trkpt lat="44.13665" lon="7.23352">
        <ele>2046.6</ele>
        <time>2023-02-05T10:59:00Z</time>
      </trkpt>
      <trkpt lat="44.13665" lon="7.23352">
        <ele>2046.6</ele>
        <time>2023-02-05T10:59:01Z</time>
      </trkpt>
      <trkpt lat="44.13665" lon="7.23352">
        <ele>2046.6</ele>
        <time>2023-02-05T10:59:02Z</time>
      </trkpt>
      <trkpt lat="44.13665" lon="7.23352">
        <ele>2046.7</ele>
        <time>2023-02-05T10:59:03Z</time>
      </trkpt>
      <trkpt lat="44.13665" lon="7.23352">
        <ele>2046.7</ele>
        <time>2023-02-05T10:59:04Z</time>
      </trkpt>
      <trkpt lat="44.13665" lon="7.23352">
        <ele>2046.8</ele>
        <time>2023-02-05T10:59:05Z</time>
      </trkpt>
      <trkpt lat="44.13665" lon="7.23352">
        <ele>2046.7</ele>
        <time>2023-02-05T10:59:06Z</time>
      </trkpt>
      <trkpt lat="44.13665" lon="7.23352">
        <ele>2046.7</ele>
        <time>2023-02-05T10:59:07Z</time>
      </trkpt>
      <trkpt lat="44.13665" lon="7.23352">
        <ele>2046.7</ele>
        <time>2023-02-05T10:59:08Z</time>
      </trkpt>
      <trkpt lat="44.13665" lon="7.23352">
        <ele>2046.7</ele>
        <time>2023-02-05T10:59:09Z</time>
      </trkpt>
      <trkpt lat="44.13665" lon="7.23352">
        <ele>2046.7</ele>
        <time>2023-02-05T10:59:10Z</time>
      </trkpt>
      <trkpt lat="44.13665" lon="7.23352">
        <ele>2046.7</ele>
        <time>2023-02-05T10:59:11Z</time>
      </trkpt>
      <trkpt lat="44.13665" lon="7.23352">
        <ele>2046.6</ele>
        <time>2023-02-05T10:59:12Z</time>
      </trkpt>
      <trkpt lat="44.13666" lon="7.23352">
        <ele>2046.7</ele>
        <time>2023-02-05T10:59:13Z</time>
      </trkpt>
      <trkpt lat="44.13665" lon="7.23352">
        <ele>2046.7</ele>
        <time>2023-02-05T10:59:14Z</time>
      </trkpt>
      <trkpt lat="44.13665" lon="7.23352">
        <ele>2046.8</ele>
        <time>2023-02-05T10:59:15Z</time>
      </trkpt>
      <trkpt lat="44.13665" lon="7.23352">
        <ele>2046.8</ele>
        <time>2023-02-05T10:59:16Z</time>
      </trkpt>
      <trkpt lat="44.13665" lon="7.23352">
        <ele>2047</ele>
        <time>2023-02-05T10:59:17Z</time>
      </trkpt>
      <trkpt lat="44.13665" lon="7.23352">
        <ele>2046.9</ele>
        <time>2023-02-05T10:59:18Z</time>
      </trkpt>
      <trkpt lat="44.13665" lon="7.23352">
        <ele>2047</ele>
        <time>2023-02-05T10:59:19Z</time>
      </trkpt>
      <trkpt lat="44.13665" lon="7.23352">
        <ele>2047.1</ele>
        <time>2023-02-05T10:59:20Z</time>
      </trkpt>
      <trkpt lat="44.13665" lon="7.23352">
        <ele>2047.1</ele>
        <time>2023-02-05T10:59:21Z</time>
      </trkpt>
      <trkpt lat="44.13665" lon="7.23352">
        <ele>2047.1</ele>
        <time>2023-02-05T10:59:22Z</time>
      </trkpt>
      <trkpt lat="44.13665" lon="7.23352">
        <ele>2047.1</ele>
        <time>2023-02-05T10:59:23Z</time>
      </trkpt>
      <trkpt lat="44.13665" lon="7.23351">
        <ele>2047.1</ele>
        <time>2023-02-05T10:59:24Z</time>
      </trkpt>
      <trkpt lat="44.13665" lon="7.23351">
        <ele>2047.2</ele>
        <time>2023-02-05T10:59:25Z</time>
      </trkpt>
      <trkpt lat="44.13665" lon="7.23351">
        <ele>2047.2</ele>
        <time>2023-02-05T10:59:26Z</time>
      </trkpt>
      <trkpt lat="44.13666" lon="7.23351">
        <ele>2047.2</ele>
        <time>2023-02-05T10:59:27Z</time>
      </trkpt>
      <trkpt lat="44.13666" lon="7.2335">
        <ele>2047.2</ele>
        <time>2023-02-05T10:59:28Z</time>
      </trkpt>
      <trkpt lat="44.13666" lon="7.2335">
        <ele>2047.2</ele>
        <time>2023-02-05T10:59:29Z</time>
      </trkpt>
      <trkpt lat="44.13666" lon="7.2335">
        <ele>2047.2</ele>
        <time>2023-02-05T10:59:30Z</time>
      </trkpt>
      <trkpt lat="44.13666" lon="7.2335">
        <ele>2047.3</ele>
        <time>2023-02-05T10:59:31Z</time>
      </trkpt>
      <trkpt lat="44.13666" lon="7.23349">
        <ele>2047.3</ele>
        <time>2023-02-05T10:59:32Z</time>
      </trkpt>
      <trkpt lat="44.13666" lon="7.23349">
        <ele>2047.3</ele>
        <time>2023-02-05T10:59:33Z</time>
      </trkpt>
      <trkpt lat="44.13666" lon="7.23349">
        <ele>2047.3</ele>
        <time>2023-02-05T10:59:34Z</time>
      </trkpt>
      <trkpt lat="44.13666" lon="7.23348">
        <ele>2047.4</ele>
        <time>2023-02-05T10:59:35Z</time>
      </trkpt>
      <trkpt lat="44.13666" lon="7.23349">
        <ele>2047.4</ele>
        <time>2023-02-05T10:59:36Z</time>
      </trkpt>
      <trkpt lat="44.13666" lon="7.23348">
        <ele>2047.5</ele>
        <time>2023-02-05T10:59:37Z</time>
      </trkpt>
      <trkpt lat="44.13667" lon="7.23347">
        <ele>2047.4</ele>
        <time>2023-02-05T10:59:38Z</time>
      </trkpt>
      <trkpt lat="44.13667" lon="7.23347">
        <ele>2047.4</ele>
        <time>2023-02-05T10:59:39Z</time>
      </trkpt>
      <trkpt lat="44.13667" lon="7.23347">
        <ele>2047.4</ele>
        <time>2023-02-05T10:59:40Z</time>
      </trkpt>
      <trkpt lat="44.13667" lon="7.23346">
        <ele>2047.3</ele>
        <time>2023-02-05T10:59:41Z</time>
      </trkpt>
      <trkpt lat="44.13667" lon="7.23346">
        <ele>2047.3</ele>
        <time>2023-02-05T10:59:42Z</time>
      </trkpt>
      <trkpt lat="44.13668" lon="7.23346">
        <ele>2047.3</ele>
        <time>2023-02-05T10:59:43Z</time>
      </trkpt>
      <trkpt lat="44.13668" lon="7.23345">
        <ele>2047.3</ele>
        <time>2023-02-05T10:59:44Z</time>
      </trkpt>
      <trkpt lat="44.13668" lon="7.23345">
        <ele>2047.3</ele>
        <time>2023-02-05T10:59:45Z</time>
      </trkpt>
      <trkpt lat="44.13668" lon="7.23345">
        <ele>2047.3</ele>
        <time>2023-02-05T10:59:46Z</time>
      </trkpt>
      <trkpt lat="44.13668" lon="7.23345">
        <ele>2047.3</ele>
        <time>2023-02-05T10:59:47Z</time>
      </trkpt>
      <trkpt lat="44.13668" lon="7.23345">
        <ele>2047.3</ele>
        <time>2023-02-05T10:59:48Z</time>
      </trkpt>
      <trkpt lat="44.13668" lon="7.23345">
        <ele>2047.3</ele>
        <time>2023-02-05T10:59:49Z</time>
      </trkpt>
      <trkpt lat="44.13668" lon="7.23345">
        <ele>2047.2</ele>
        <time>2023-02-05T10:59:50Z</time>
      </trkpt>
      <trkpt lat="44.13668" lon="7.23346">
        <ele>2047.1</ele>
        <time>2023-02-05T10:59:51Z</time>
      </trkpt>
      <trkpt lat="44.13667" lon="7.23346">
        <ele>2047.1</ele>
        <time>2023-02-05T10:59:52Z</time>
      </trkpt>
      <trkpt lat="44.13667" lon="7.23346">
        <ele>2047.1</ele>
        <time>2023-02-05T10:59:53Z</time>
      </trkpt>
      <trkpt lat="44.13667" lon="7.23346">
        <ele>2047.1</ele>
        <time>2023-02-05T10:59:54Z</time>
      </trkpt>
      <trkpt lat="44.13667" lon="7.23346">
        <ele>2047.1</ele>
        <time>2023-02-05T10:59:55Z</time>
      </trkpt>
      <trkpt lat="44.13667" lon="7.23347">
        <ele>2047.3</ele>
        <time>2023-02-05T10:59:56Z</time>
      </trkpt>
      <trkpt lat="44.13666" lon="7.23347">
        <ele>2047.2</ele>
        <time>2023-02-05T10:59:57Z</time>
      </trkpt>
      <trkpt lat="44.13666" lon="7.23348">
        <ele>2047.2</ele>
        <time>2023-02-05T10:59:58Z</time>
      </trkpt>
      <trkpt lat="44.13666" lon="7.23348">
        <ele>2047.3</ele>
        <time>2023-02-05T10:59:59Z</time>
      </trkpt>
      <trkpt lat="44.13666" lon="7.23348">
        <ele>2047.2</ele>
        <time>2023-02-05T11:00:00Z</time>
      </trkpt>
      <trkpt lat="44.13666" lon="7.23348">
        <ele>2047.2</ele>
        <time>2023-02-05T11:00:01Z</time>
      </trkpt>
      <trkpt lat="44.13666" lon="7.23348">
        <ele>2047.2</ele>
        <time>2023-02-05T11:00:02Z</time>
      </trkpt>
      <trkpt lat="44.13666" lon="7.23348">
        <ele>2047.2</ele>
        <time>2023-02-05T11:00:03Z</time>
      </trkpt>
      <trkpt lat="44.13666" lon="7.23348">
        <ele>2047.3</ele>
        <time>2023-02-05T11:00:04Z</time>
      </trkpt>
      <trkpt lat="44.13666" lon="7.23348">
        <ele>2047.3</ele>
        <time>2023-02-05T11:00:05Z</time>
      </trkpt>
      <trkpt lat="44.13666" lon="7.23348">
        <ele>2047.2</ele>
        <time>2023-02-05T11:00:06Z</time>
      </trkpt>
      <trkpt lat="44.13666" lon="7.23347">
        <ele>2047.2</ele>
        <time>2023-02-05T11:00:07Z</time>
      </trkpt>
      <trkpt lat="44.13666" lon="7.23348">
        <ele>2047.1</ele>
        <time>2023-02-05T11:00:08Z</time>
      </trkpt>
      <trkpt lat="44.13666" lon="7.23347">
        <ele>2047.1</ele>
        <time>2023-02-05T11:00:09Z</time>
      </trkpt>
      <trkpt lat="44.13666" lon="7.23347">
        <ele>2047.1</ele>
        <time>2023-02-05T11:00:10Z</time>
      </trkpt>
      <trkpt lat="44.13666" lon="7.23347">
        <ele>2047.1</ele>
        <time>2023-02-05T11:00:11Z</time>
      </trkpt>
      <trkpt lat="44.13666" lon="7.23346">
        <ele>2047.2</ele>
        <time>2023-02-05T11:00:12Z</time>
      </trkpt>
      <trkpt lat="44.13667" lon="7.23346">
        <ele>2047.2</ele>
        <time>2023-02-05T11:00:13Z</time>
      </trkpt>
      <trkpt lat="44.13667" lon="7.23345">
        <ele>2047.2</ele>
        <time>2023-02-05T11:00:14Z</time>
      </trkpt>
      <trkpt lat="44.13667" lon="7.23345">
        <ele>2047.2</ele>
        <time>2023-02-05T11:00:15Z</time>
      </trkpt>
      <trkpt lat="44.13668" lon="7.23345">
        <ele>2047.3</ele>
        <time>2023-02-05T11:00:16Z</time>
      </trkpt>
      <trkpt lat="44.13668" lon="7.23344">
        <ele>2047.3</ele>
        <time>2023-02-05T11:00:17Z</time>
      </trkpt>
      <trkpt lat="44.13668" lon="7.23344">
        <ele>2047.3</ele>
        <time>2023-02-05T11:00:18Z</time>
      </trkpt>
      <trkpt lat="44.13668" lon="7.23344">
        <ele>2047.3</ele>
        <time>2023-02-05T11:00:19Z</time>
      </trkpt>
      <trkpt lat="44.13668" lon="7.23344">
        <ele>2047.3</ele>
        <time>2023-02-05T11:00:20Z</time>
      </trkpt>
      <trkpt lat="44.13668" lon="7.23344">
        <ele>2047.3</ele>
        <time>2023-02-05T11:00:21Z</time>
      </trkpt>
      <trkpt lat="44.13668" lon="7.23344">
        <ele>2047.3</ele>
        <time>2023-02-05T11:00:22Z</time>
      </trkpt>
      <trkpt lat="44.13668" lon="7.23344">
        <ele>2047.3</ele>
        <time>2023-02-05T11:00:23Z</time>
      </trkpt>
      <trkpt lat="44.13668" lon="7.23344">
        <ele>2047.3</ele>
        <time>2023-02-05T11:00:24Z</time>
      </trkpt>
      <trkpt lat="44.13668" lon="7.23344">
        <ele>2047.3</ele>
        <time>2023-02-05T11:00:25Z</time>
      </trkpt>
      <trkpt lat="44.13668" lon="7.23344">
        <ele>2047.3</ele>
        <time>2023-02-05T11:00:26Z</time>
      </trkpt>
      <trkpt lat="44.13668" lon="7.23343">
        <ele>2047.4</ele>
        <time>2023-02-05T11:00:27Z</time>
      </trkpt>
      <trkpt lat="44.13668" lon="7.23343">
        <ele>2047.5</ele>
        <time>2023-02-05T11:00:28Z</time>
      </trkpt>
      <trkpt lat="44.13668" lon="7.23342">
        <ele>2047.5</ele>
        <time>2023-02-05T11:00:29Z</time>
      </trkpt>
      <trkpt lat="44.13667" lon="7.23342">
        <ele>2047.4</ele>
        <time>2023-02-05T11:00:30Z</time>
      </trkpt>
      <trkpt lat="44.13668" lon="7.23342">
        <ele>2047.5</ele>
        <time>2023-02-05T11:00:31Z</time>
      </trkpt>
      <trkpt lat="44.13668" lon="7.23342">
        <ele>2047.5</ele>
        <time>2023-02-05T11:00:32Z</time>
      </trkpt>
      <trkpt lat="44.13668" lon="7.23342">
        <ele>2047.5</ele>
        <time>2023-02-05T11:00:33Z</time>
      </trkpt>
      <trkpt lat="44.13667" lon="7.23342">
        <ele>2047.5</ele>
        <time>2023-02-05T11:00:34Z</time>
      </trkpt>
      <trkpt lat="44.13667" lon="7.23342">
        <ele>2047.5</ele>
        <time>2023-02-05T11:00:35Z</time>
      </trkpt>
      <trkpt lat="44.13667" lon="7.23342">
        <ele>2047.5</ele>
        <time>2023-02-05T11:00:36Z</time>
      </trkpt>
      <trkpt lat="44.13667" lon="7.23342">
        <ele>2047.4</ele>
        <time>2023-02-05T11:00:37Z</time>
      </trkpt>
      <trkpt lat="44.13667" lon="7.23342">
        <ele>2047.3</ele>
        <time>2023-02-05T11:00:38Z</time>
      </trkpt>
      <trkpt lat="44.13667" lon="7.23341">
        <ele>2047.3</ele>
        <time>2023-02-05T11:00:39Z</time>
      </trkpt>
      <trkpt lat="44.13668" lon="7.23341">
        <ele>2047.4</ele>
        <time>2023-02-05T11:00:40Z</time>
      </trkpt>
      <trkpt lat="44.13668" lon="7.23341">
        <ele>2047.5</ele>
        <time>2023-02-05T11:00:41Z</time>
      </trkpt>
      <trkpt lat="44.13668" lon="7.23341">
        <ele>2047.5</ele>
        <time>2023-02-05T11:00:42Z</time>
      </trkpt>
      <trkpt lat="44.13667" lon="7.23341">
        <ele>2047.5</ele>
        <time>2023-02-05T11:00:43Z</time>
      </trkpt>
      <trkpt lat="44.13667" lon="7.23341">
        <ele>2047.6</ele>
        <time>2023-02-05T11:00:44Z</time>
      </trkpt>
      <trkpt lat="44.13667" lon="7.23341">
        <ele>2047.6</ele>
        <time>2023-02-05T11:00:45Z</time>
      </trkpt>
      <trkpt lat="44.13667" lon="7.23342">
        <ele>2047.4</ele>
        <time>2023-02-05T11:00:46Z</time>
      </trkpt>
      <trkpt lat="44.13667" lon="7.23342">
        <ele>2047.3</ele>
        <time>2023-02-05T11:00:47Z</time>
      </trkpt>
      <trkpt lat="44.13668" lon="7.23343">
        <ele>2047.3</ele>
        <time>2023-02-05T11:00:48Z</time>
      </trkpt>
      <trkpt lat="44.13668" lon="7.23343">
        <ele>2047.5</ele>
        <time>2023-02-05T11:00:49Z</time>
      </trkpt>
      <trkpt lat="44.13668" lon="7.23343">
        <ele>2047.6</ele>
        <time>2023-02-05T11:00:50Z</time>
      </trkpt>
      <trkpt lat="44.13667" lon="7.23343">
        <ele>2047.6</ele>
        <time>2023-02-05T11:00:51Z</time>
      </trkpt>
      <trkpt lat="44.13667" lon="7.23343">
        <ele>2047.7</ele>
        <time>2023-02-05T11:00:52Z</time>
      </trkpt>
      <trkpt lat="44.13667" lon="7.23343">
        <ele>2047.7</ele>
        <time>2023-02-05T11:00:53Z</time>
      </trkpt>
      <trkpt lat="44.13667" lon="7.23343">
        <ele>2047.7</ele>
        <time>2023-02-05T11:00:54Z</time>
      </trkpt>
      <trkpt lat="44.13668" lon="7.23342">
        <ele>2047.7</ele>
        <time>2023-02-05T11:00:55Z</time>
      </trkpt>
      <trkpt lat="44.13668" lon="7.23342">
        <ele>2047.8</ele>
        <time>2023-02-05T11:00:56Z</time>
      </trkpt>
      <trkpt lat="44.13668" lon="7.23342">
        <ele>2047.8</ele>
        <time>2023-02-05T11:00:57Z</time>
      </trkpt>
      <trkpt lat="44.13668" lon="7.23342">
        <ele>2047.8</ele>
        <time>2023-02-05T11:00:58Z</time>
      </trkpt>
      <trkpt lat="44.13668" lon="7.23342">
        <ele>2047.8</ele>
        <time>2023-02-05T11:00:59Z</time>
      </trkpt>
      <trkpt lat="44.13668" lon="7.23342">
        <ele>2047.8</ele>
        <time>2023-02-05T11:01:00Z</time>
      </trkpt>
      <trkpt lat="44.13668" lon="7.23341">
        <ele>2047.8</ele>
        <time>2023-02-05T11:01:01Z</time>
      </trkpt>
      <trkpt lat="44.13668" lon="7.23341">
        <ele>2047.8</ele>
        <time>2023-02-05T11:01:02Z</time>
      </trkpt>
      <trkpt lat="44.13668" lon="7.23341">
        <ele>2047.8</ele>
        <time>2023-02-05T11:01:03Z</time>
      </trkpt>
      <trkpt lat="44.13668" lon="7.23341">
        <ele>2047.8</ele>
        <time>2023-02-05T11:01:04Z</time>
      </trkpt>
      <trkpt lat="44.13668" lon="7.2334">
        <ele>2047.8</ele>
        <time>2023-02-05T11:01:05Z</time>
      </trkpt>
      <trkpt lat="44.13668" lon="7.2334">
        <ele>2047.9</ele>
        <time>2023-02-05T11:01:06Z</time>
      </trkpt>
      <trkpt lat="44.13668" lon="7.2334">
        <ele>2047.9</ele>
        <time>2023-02-05T11:01:07Z</time>
      </trkpt>
      <trkpt lat="44.13669" lon="7.2334">
        <ele>2048</ele>
        <time>2023-02-05T11:01:08Z</time>
      </trkpt>
      <trkpt lat="44.13669" lon="7.2334">
        <ele>2047.9</ele>
        <time>2023-02-05T11:01:09Z</time>
      </trkpt>
      <trkpt lat="44.13669" lon="7.23339">
        <ele>2047.9</ele>
        <time>2023-02-05T11:01:10Z</time>
      </trkpt>
      <trkpt lat="44.13669" lon="7.23339">
        <ele>2047.9</ele>
        <time>2023-02-05T11:01:11Z</time>
      </trkpt>
      <trkpt lat="44.13669" lon="7.23339">
        <ele>2048</ele>
        <time>2023-02-05T11:01:12Z</time>
      </trkpt>
      <trkpt lat="44.13669" lon="7.2334">
        <ele>2048</ele>
        <time>2023-02-05T11:01:13Z</time>
      </trkpt>
      <trkpt lat="44.13669" lon="7.2334">
        <ele>2048.1</ele>
        <time>2023-02-05T11:01:14Z</time>
      </trkpt>
      <trkpt lat="44.13669" lon="7.2334">
        <ele>2048.1</ele>
        <time>2023-02-05T11:01:15Z</time>
      </trkpt>
      <trkpt lat="44.13669" lon="7.2334">
        <ele>2048.1</ele>
        <time>2023-02-05T11:01:16Z</time>
      </trkpt>
      <trkpt lat="44.13669" lon="7.2334">
        <ele>2048.1</ele>
        <time>2023-02-05T11:01:17Z</time>
      </trkpt>
      <trkpt lat="44.13669" lon="7.2334">
        <ele>2048.1</ele>
        <time>2023-02-05T11:01:18Z</time>
      </trkpt>
      <trkpt lat="44.13669" lon="7.23341">
        <ele>2048</ele>
        <time>2023-02-05T11:01:19Z</time>
      </trkpt>
      <trkpt lat="44.13669" lon="7.23341">
        <ele>2048</ele>
        <time>2023-02-05T11:01:20Z</time>
      </trkpt>
      <trkpt lat="44.13669" lon="7.23341">
        <ele>2048.1</ele>
        <time>2023-02-05T11:01:21Z</time>
      </trkpt>
      <trkpt lat="44.13669" lon="7.2334">
        <ele>2048.2</ele>
        <time>2023-02-05T11:01:22Z</time>
      </trkpt>
      <trkpt lat="44.13669" lon="7.2334">
        <ele>2048.2</ele>
        <time>2023-02-05T11:01:23Z</time>
      </trkpt>
      <trkpt lat="44.13669" lon="7.23339">
        <ele>2048.2</ele>
        <time>2023-02-05T11:01:24Z</time>
      </trkpt>
      <trkpt lat="44.13669" lon="7.23339">
        <ele>2048.1</ele>
        <time>2023-02-05T11:01:25Z</time>
      </trkpt>
      <trkpt lat="44.13669" lon="7.23339">
        <ele>2048.1</ele>
        <time>2023-02-05T11:01:26Z</time>
      </trkpt>
      <trkpt lat="44.13669" lon="7.23339">
        <ele>2048.1</ele>
        <time>2023-02-05T11:01:27Z</time>
      </trkpt>
      <trkpt lat="44.13669" lon="7.23338">
        <ele>2048</ele>
        <time>2023-02-05T11:01:28Z</time>
      </trkpt>
      <trkpt lat="44.13669" lon="7.23338">
        <ele>2048.1</ele>
        <time>2023-02-05T11:01:29Z</time>
      </trkpt>
      <trkpt lat="44.13669" lon="7.23338">
        <ele>2048.1</ele>
        <time>2023-02-05T11:01:30Z</time>
      </trkpt>
      <trkpt lat="44.13669" lon="7.23338">
        <ele>2048.1</ele>
        <time>2023-02-05T11:01:31Z</time>
      </trkpt>
      <trkpt lat="44.13669" lon="7.23338">
        <ele>2048.1</ele>
        <time>2023-02-05T11:01:32Z</time>
      </trkpt>
      <trkpt lat="44.13669" lon="7.23338">
        <ele>2048.1</ele>
        <time>2023-02-05T11:01:33Z</time>
      </trkpt>
      <trkpt lat="44.13669" lon="7.23338">
        <ele>2048</ele>
        <time>2023-02-05T11:01:34Z</time>
      </trkpt>
      <trkpt lat="44.13669" lon="7.23337">
        <ele>2048</ele>
        <time>2023-02-05T11:01:35Z</time>
      </trkpt>
      <trkpt lat="44.13669" lon="7.23337">
        <ele>2048</ele>
        <time>2023-02-05T11:01:36Z</time>
      </trkpt>
      <trkpt lat="44.13669" lon="7.23337">
        <ele>2048</ele>
        <time>2023-02-05T11:01:37Z</time>
      </trkpt>
      <trkpt lat="44.13669" lon="7.23337">
        <ele>2048</ele>
        <time>2023-02-05T11:01:38Z</time>
      </trkpt>
      <trkpt lat="44.13669" lon="7.23337">
        <ele>2048</ele>
        <time>2023-02-05T11:01:39Z</time>
      </trkpt>
      <trkpt lat="44.13669" lon="7.23337">
        <ele>2048</ele>
        <time>2023-02-05T11:01:40Z</time>
      </trkpt>
      <trkpt lat="44.13669" lon="7.23337">
        <ele>2048</ele>
        <time>2023-02-05T11:01:41Z</time>
      </trkpt>
      <trkpt lat="44.13669" lon="7.23336">
        <ele>2047.9</ele>
        <time>2023-02-05T11:01:42Z</time>
      </trkpt>
      <trkpt lat="44.13669" lon="7.23336">
        <ele>2047.9</ele>
        <time>2023-02-05T11:01:43Z</time>
      </trkpt>
      <trkpt lat="44.13669" lon="7.23336">
        <ele>2048.1</ele>
        <time>2023-02-05T11:01:44Z</time>
      </trkpt>
      <trkpt lat="44.13669" lon="7.23336">
        <ele>2048.2</ele>
        <time>2023-02-05T11:01:45Z</time>
      </trkpt>
      <trkpt lat="44.13669" lon="7.23336">
        <ele>2048.2</ele>
        <time>2023-02-05T11:01:46Z</time>
      </trkpt>
      <trkpt lat="44.13669" lon="7.23335">
        <ele>2048.2</ele>
        <time>2023-02-05T11:01:47Z</time>
      </trkpt>
      <trkpt lat="44.13669" lon="7.23335">
        <ele>2048.2</ele>
        <time>2023-02-05T11:01:48Z</time>
      </trkpt>
      <trkpt lat="44.13669" lon="7.23335">
        <ele>2048.3</ele>
        <time>2023-02-05T11:01:49Z</time>
      </trkpt>
      <trkpt lat="44.13669" lon="7.23335">
        <ele>2048.3</ele>
        <time>2023-02-05T11:01:50Z</time>
      </trkpt>
      <trkpt lat="44.13669" lon="7.23334">
        <ele>2048.3</ele>
        <time>2023-02-05T11:01:51Z</time>
      </trkpt>
      <trkpt lat="44.1367" lon="7.23334">
        <ele>2048.2</ele>
        <time>2023-02-05T11:01:52Z</time>
      </trkpt>
      <trkpt lat="44.1367" lon="7.23335">
        <ele>2048.1</ele>
        <time>2023-02-05T11:01:53Z</time>
      </trkpt>
      <trkpt lat="44.13669" lon="7.23335">
        <ele>2048</ele>
        <time>2023-02-05T11:01:54Z</time>
      </trkpt>
      <trkpt lat="44.13669" lon="7.23334">
        <ele>2048</ele>
        <time>2023-02-05T11:01:55Z</time>
      </trkpt>
      <trkpt lat="44.13669" lon="7.23334">
        <ele>2048</ele>
        <time>2023-02-05T11:01:56Z</time>
      </trkpt>
      <trkpt lat="44.13669" lon="7.23335">
        <ele>2048</ele>
        <time>2023-02-05T11:01:57Z</time>
      </trkpt>
      <trkpt lat="44.13669" lon="7.23334">
        <ele>2047.9</ele>
        <time>2023-02-05T11:01:58Z</time>
      </trkpt>
      <trkpt lat="44.13669" lon="7.23334">
        <ele>2047.9</ele>
        <time>2023-02-05T11:01:59Z</time>
      </trkpt>
      <trkpt lat="44.13669" lon="7.23334">
        <ele>2047.9</ele>
        <time>2023-02-05T11:02:00Z</time>
      </trkpt>
      <trkpt lat="44.13669" lon="7.23334">
        <ele>2047.9</ele>
        <time>2023-02-05T11:02:01Z</time>
      </trkpt>
      <trkpt lat="44.13669" lon="7.23334">
        <ele>2047.9</ele>
        <time>2023-02-05T11:02:02Z</time>
      </trkpt>
      <trkpt lat="44.13669" lon="7.23334">
        <ele>2047.9</ele>
        <time>2023-02-05T11:02:03Z</time>
      </trkpt>
      <trkpt lat="44.13669" lon="7.23335">
        <ele>2047.9</ele>
        <time>2023-02-05T11:02:04Z</time>
      </trkpt>
      <trkpt lat="44.13669" lon="7.23335">
        <ele>2047.9</ele>
        <time>2023-02-05T11:02:05Z</time>
      </trkpt>
      <trkpt lat="44.13669" lon="7.23335">
        <ele>2047.9</ele>
        <time>2023-02-05T11:02:06Z</time>
      </trkpt>
      <trkpt lat="44.13669" lon="7.23335">
        <ele>2047.9</ele>
        <time>2023-02-05T11:02:07Z</time>
      </trkpt>
      <trkpt lat="44.13669" lon="7.23335">
        <ele>2047.9</ele>
        <time>2023-02-05T11:02:08Z</time>
      </trkpt>
      <trkpt lat="44.13669" lon="7.23335">
        <ele>2048</ele>
        <time>2023-02-05T11:02:09Z</time>
      </trkpt>
      <trkpt lat="44.13669" lon="7.23335">
        <ele>2047.9</ele>
        <time>2023-02-05T11:02:10Z</time>
      </trkpt>
      <trkpt lat="44.13669" lon="7.23335">
        <ele>2047.9</ele>
        <time>2023-02-05T11:02:11Z</time>
      </trkpt>
      <trkpt lat="44.13669" lon="7.23335">
        <ele>2047.9</ele>
        <time>2023-02-05T11:02:12Z</time>
      </trkpt>
      <trkpt lat="44.13669" lon="7.23335">
        <ele>2047.8</ele>
        <time>2023-02-05T11:02:13Z</time>
      </trkpt>
      <trkpt lat="44.13669" lon="7.23335">
        <ele>2047.7</ele>
        <time>2023-02-05T11:02:14Z</time>
      </trkpt>
      <trkpt lat="44.13669" lon="7.23335">
        <ele>2047.8</ele>
        <time>2023-02-05T11:02:15Z</time>
      </trkpt>
      <trkpt lat="44.13668" lon="7.23335">
        <ele>2047.8</ele>
        <time>2023-02-05T11:02:16Z</time>
      </trkpt>
      <trkpt lat="44.13668" lon="7.23335">
        <ele>2047.8</ele>
        <time>2023-02-05T11:02:17Z</time>
      </trkpt>
      <trkpt lat="44.13668" lon="7.23335">
        <ele>2047.9</ele>
        <time>2023-02-05T11:02:18Z</time>
      </trkpt>
      <trkpt lat="44.13668" lon="7.23335">
        <ele>2047.9</ele>
        <time>2023-02-05T11:02:19Z</time>
      </trkpt>
      <trkpt lat="44.13668" lon="7.23335">
        <ele>2048</ele>
        <time>2023-02-05T11:02:20Z</time>
      </trkpt>
      <trkpt lat="44.13668" lon="7.23335">
        <ele>2048</ele>
        <time>2023-02-05T11:02:21Z</time>
      </trkpt>
      <trkpt lat="44.13668" lon="7.23335">
        <ele>2048</ele>
        <time>2023-02-05T11:02:22Z</time>
      </trkpt>
      <trkpt lat="44.13668" lon="7.23335">
        <ele>2048</ele>
        <time>2023-02-05T11:02:23Z</time>
      </trkpt>
      <trkpt lat="44.13668" lon="7.23335">
        <ele>2048</ele>
        <time>2023-02-05T11:02:24Z</time>
      </trkpt>
      <trkpt lat="44.13668" lon="7.23335">
        <ele>2047.9</ele>
        <time>2023-02-05T11:02:25Z</time>
      </trkpt>
      <trkpt lat="44.13668" lon="7.23335">
        <ele>2048</ele>
        <time>2023-02-05T11:02:26Z</time>
      </trkpt>
      <trkpt lat="44.13668" lon="7.23335">
        <ele>2048</ele>
        <time>2023-02-05T11:02:27Z</time>
      </trkpt>
      <trkpt lat="44.13668" lon="7.23335">
        <ele>2048</ele>
        <time>2023-02-05T11:02:28Z</time>
      </trkpt>
      <trkpt lat="44.13669" lon="7.23335">
        <ele>2048</ele>
        <time>2023-02-05T11:02:29Z</time>
      </trkpt>
      <trkpt lat="44.13669" lon="7.23335">
        <ele>2048</ele>
        <time>2023-02-05T11:02:30Z</time>
      </trkpt>
      <trkpt lat="44.13669" lon="7.23334">
        <ele>2048</ele>
        <time>2023-02-05T11:02:31Z</time>
      </trkpt>
      <trkpt lat="44.13669" lon="7.23334">
        <ele>2048</ele>
        <time>2023-02-05T11:02:32Z</time>
      </trkpt>
      <trkpt lat="44.13669" lon="7.23334">
        <ele>2048.1</ele>
        <time>2023-02-05T11:02:33Z</time>
      </trkpt>
      <trkpt lat="44.13669" lon="7.23334">
        <ele>2048.1</ele>
        <time>2023-02-05T11:02:34Z</time>
      </trkpt>
      <trkpt lat="44.13669" lon="7.23334">
        <ele>2048</ele>
        <time>2023-02-05T11:02:35Z</time>
      </trkpt>
      <trkpt lat="44.13669" lon="7.23334">
        <ele>2048</ele>
        <time>2023-02-05T11:02:36Z</time>
      </trkpt>
      <trkpt lat="44.13669" lon="7.23334">
        <ele>2047.9</ele>
        <time>2023-02-05T11:02:37Z</time>
      </trkpt>
      <trkpt lat="44.13669" lon="7.23334">
        <ele>2048</ele>
        <time>2023-02-05T11:02:38Z</time>
      </trkpt>
      <trkpt lat="44.13669" lon="7.23334">
        <ele>2048</ele>
        <time>2023-02-05T11:02:39Z</time>
      </trkpt>
      <trkpt lat="44.13669" lon="7.23334">
        <ele>2048</ele>
        <time>2023-02-05T11:02:40Z</time>
      </trkpt>
      <trkpt lat="44.13669" lon="7.23334">
        <ele>2048</ele>
        <time>2023-02-05T11:02:41Z</time>
      </trkpt>
      <trkpt lat="44.13669" lon="7.23334">
        <ele>2048</ele>
        <time>2023-02-05T11:02:42Z</time>
      </trkpt>
      <trkpt lat="44.13669" lon="7.23334">
        <ele>2048.1</ele>
        <time>2023-02-05T11:02:43Z</time>
      </trkpt>
      <trkpt lat="44.13669" lon="7.23334">
        <ele>2048.1</ele>
        <time>2023-02-05T11:02:44Z</time>
      </trkpt>
      <trkpt lat="44.13669" lon="7.23334">
        <ele>2048.2</ele>
        <time>2023-02-05T11:02:45Z</time>
      </trkpt>
      <trkpt lat="44.13669" lon="7.23333">
        <ele>2048.2</ele>
        <time>2023-02-05T11:02:46Z</time>
      </trkpt>
      <trkpt lat="44.13669" lon="7.23333">
        <ele>2048.2</ele>
        <time>2023-02-05T11:02:47Z</time>
      </trkpt>
      <trkpt lat="44.1367" lon="7.23333">
        <ele>2048.2</ele>
        <time>2023-02-05T11:02:48Z</time>
      </trkpt>
      <trkpt lat="44.1367" lon="7.23333">
        <ele>2048.1</ele>
        <time>2023-02-05T11:02:49Z</time>
      </trkpt>
      <trkpt lat="44.1367" lon="7.23333">
        <ele>2048.2</ele>
        <time>2023-02-05T11:02:50Z</time>
      </trkpt>
      <trkpt lat="44.1367" lon="7.23333">
        <ele>2048.1</ele>
        <time>2023-02-05T11:02:51Z</time>
      </trkpt>
      <trkpt lat="44.1367" lon="7.23333">
        <ele>2048.1</ele>
        <time>2023-02-05T11:02:52Z</time>
      </trkpt>
      <trkpt lat="44.1367" lon="7.23333">
        <ele>2048.1</ele>
        <time>2023-02-05T11:02:53Z</time>
      </trkpt>
      <trkpt lat="44.1367" lon="7.23333">
        <ele>2048.1</ele>
        <time>2023-02-05T11:02:54Z</time>
      </trkpt>
      <trkpt lat="44.1367" lon="7.23333">
        <ele>2048.2</ele>
        <time>2023-02-05T11:02:55Z</time>
      </trkpt>
      <trkpt lat="44.1367" lon="7.23333">
        <ele>2048.2</ele>
        <time>2023-02-05T11:02:56Z</time>
      </trkpt>
      <trkpt lat="44.1367" lon="7.23333">
        <ele>2048.3</ele>
        <time>2023-02-05T11:02:57Z</time>
      </trkpt>
      <trkpt lat="44.1367" lon="7.23333">
        <ele>2048.3</ele>
        <time>2023-02-05T11:02:58Z</time>
      </trkpt>
      <trkpt lat="44.1367" lon="7.23333">
        <ele>2048.4</ele>
        <time>2023-02-05T11:02:59Z</time>
      </trkpt>
      <trkpt lat="44.13669" lon="7.23333">
        <ele>2048.4</ele>
        <time>2023-02-05T11:03:00Z</time>
      </trkpt>
      <trkpt lat="44.13669" lon="7.23333">
        <ele>2048.4</ele>
        <time>2023-02-05T11:03:01Z</time>
      </trkpt>
      <trkpt lat="44.13669" lon="7.23333">
        <ele>2048.4</ele>
        <time>2023-02-05T11:03:02Z</time>
      </trkpt>
      <trkpt lat="44.13669" lon="7.23333">
        <ele>2048.3</ele>
        <time>2023-02-05T11:03:03Z</time>
      </trkpt>
      <trkpt lat="44.13669" lon="7.23334">
        <ele>2048.3</ele>
        <time>2023-02-05T11:03:04Z</time>
      </trkpt>
      <trkpt lat="44.13669" lon="7.23334">
        <ele>2048.3</ele>
        <time>2023-02-05T11:03:05Z</time>
      </trkpt>
      <trkpt lat="44.13669" lon="7.23334">
        <ele>2048.3</ele>
        <time>2023-02-05T11:03:06Z</time>
      </trkpt>
      <trkpt lat="44.13669" lon="7.23334">
        <ele>2048.3</ele>
        <time>2023-02-05T11:03:07Z</time>
      </trkpt>
      <trkpt lat="44.13669" lon="7.23334">
        <ele>2048.4</ele>
        <time>2023-02-05T11:03:08Z</time>
      </trkpt>
      <trkpt lat="44.13669" lon="7.23334">
        <ele>2048.4</ele>
        <time>2023-02-05T11:03:09Z</time>
      </trkpt>
      <trkpt lat="44.13669" lon="7.23335">
        <ele>2048.4</ele>
        <time>2023-02-05T11:03:10Z</time>
      </trkpt>
      <trkpt lat="44.13669" lon="7.23335">
        <ele>2048.3</ele>
        <time>2023-02-05T11:03:11Z</time>
      </trkpt>
      <trkpt lat="44.13669" lon="7.23335">
        <ele>2048.3</ele>
        <time>2023-02-05T11:03:12Z</time>
      </trkpt>
      <trkpt lat="44.13669" lon="7.23335">
        <ele>2048.3</ele>
        <time>2023-02-05T11:03:13Z</time>
      </trkpt>
      <trkpt lat="44.13669" lon="7.23335">
        <ele>2048.4</ele>
        <time>2023-02-05T11:03:14Z</time>
      </trkpt>
      <trkpt lat="44.13669" lon="7.23335">
        <ele>2048.4</ele>
        <time>2023-02-05T11:03:15Z</time>
      </trkpt>
      <trkpt lat="44.13669" lon="7.23335">
        <ele>2048.3</ele>
        <time>2023-02-05T11:03:16Z</time>
      </trkpt>
      <trkpt lat="44.13669" lon="7.23335">
        <ele>2048.2</ele>
        <time>2023-02-05T11:03:17Z</time>
      </trkpt>
      <trkpt lat="44.13669" lon="7.23335">
        <ele>2048.1</ele>
        <time>2023-02-05T11:03:18Z</time>
      </trkpt>
      <trkpt lat="44.13669" lon="7.23335">
        <ele>2048.1</ele>
        <time>2023-02-05T11:03:19Z</time>
      </trkpt>
      <trkpt lat="44.13669" lon="7.23335">
        <ele>2048</ele>
        <time>2023-02-05T11:03:20Z</time>
      </trkpt>
      <trkpt lat="44.13669" lon="7.23335">
        <ele>2048</ele>
        <time>2023-02-05T11:03:21Z</time>
      </trkpt>
      <trkpt lat="44.13669" lon="7.23335">
        <ele>2047.9</ele>
        <time>2023-02-05T11:03:22Z</time>
      </trkpt>
      <trkpt lat="44.13669" lon="7.23336">
        <ele>2047.9</ele>
        <time>2023-02-05T11:03:23Z</time>
      </trkpt>
      <trkpt lat="44.13669" lon="7.23336">
        <ele>2047.9</ele>
        <time>2023-02-05T11:03:24Z</time>
      </trkpt>
      <trkpt lat="44.13669" lon="7.23336">
        <ele>2047.9</ele>
        <time>2023-02-05T11:03:25Z</time>
      </trkpt>
      <trkpt lat="44.13669" lon="7.23336">
        <ele>2047.9</ele>
        <time>2023-02-05T11:03:26Z</time>
      </trkpt>
      <trkpt lat="44.13669" lon="7.23337">
        <ele>2047.9</ele>
        <time>2023-02-05T11:03:27Z</time>
      </trkpt>
      <trkpt lat="44.13669" lon="7.23337">
        <ele>2047.9</ele>
        <time>2023-02-05T11:03:28Z</time>
      </trkpt>
      <trkpt lat="44.13669" lon="7.23337">
        <ele>2047.9</ele>
        <time>2023-02-05T11:03:29Z</time>
      </trkpt>
      <trkpt lat="44.13669" lon="7.23337">
        <ele>2047.9</ele>
        <time>2023-02-05T11:03:30Z</time>
      </trkpt>
      <trkpt lat="44.13669" lon="7.23337">
        <ele>2047.9</ele>
        <time>2023-02-05T11:03:31Z</time>
      </trkpt>
      <trkpt lat="44.13668" lon="7.23337">
        <ele>2048</ele>
        <time>2023-02-05T11:03:32Z</time>
      </trkpt>
      <trkpt lat="44.13668" lon="7.23337">
        <ele>2048</ele>
        <time>2023-02-05T11:03:33Z</time>
      </trkpt>
      <trkpt lat="44.13668" lon="7.23337">
        <ele>2047.9</ele>
        <time>2023-02-05T11:03:34Z</time>
      </trkpt>
      <trkpt lat="44.13668" lon="7.23337">
        <ele>2047.8</ele>
        <time>2023-02-05T11:03:35Z</time>
      </trkpt>
      <trkpt lat="44.13668" lon="7.23337">
        <ele>2047.8</ele>
        <time>2023-02-05T11:03:36Z</time>
      </trkpt>
      <trkpt lat="44.13668" lon="7.23336">
        <ele>2047.8</ele>
        <time>2023-02-05T11:03:37Z</time>
      </trkpt>
      <trkpt lat="44.13668" lon="7.23336">
        <ele>2047.8</ele>
        <time>2023-02-05T11:03:38Z</time>
      </trkpt>
      <trkpt lat="44.13669" lon="7.23336">
        <ele>2047.8</ele>
        <time>2023-02-05T11:03:39Z</time>
      </trkpt>
      <trkpt lat="44.13669" lon="7.23336">
        <ele>2047.8</ele>
        <time>2023-02-05T11:03:40Z</time>
      </trkpt>
      <trkpt lat="44.13669" lon="7.23336">
        <ele>2047.8</ele>
        <time>2023-02-05T11:03:41Z</time>
      </trkpt>
      <trkpt lat="44.13669" lon="7.23336">
        <ele>2047.8</ele>
        <time>2023-02-05T11:03:42Z</time>
      </trkpt>
      <trkpt lat="44.13669" lon="7.23336">
        <ele>2047.8</ele>
        <time>2023-02-05T11:03:43Z</time>
      </trkpt>
      <trkpt lat="44.13669" lon="7.23335">
        <ele>2047.8</ele>
        <time>2023-02-05T11:03:44Z</time>
      </trkpt>
      <trkpt lat="44.13669" lon="7.23335">
        <ele>2047.8</ele>
        <time>2023-02-05T11:03:45Z</time>
      </trkpt>
      <trkpt lat="44.13669" lon="7.23335">
        <ele>2047.7</ele>
        <time>2023-02-05T11:03:46Z</time>
      </trkpt>
      <trkpt lat="44.13669" lon="7.23334">
        <ele>2047.7</ele>
        <time>2023-02-05T11:03:47Z</time>
      </trkpt>
      <trkpt lat="44.13669" lon="7.23334">
        <ele>2047.7</ele>
        <time>2023-02-05T11:03:48Z</time>
      </trkpt>
      <trkpt lat="44.1367" lon="7.23334">
        <ele>2047.8</ele>
        <time>2023-02-05T11:03:49Z</time>
      </trkpt>
      <trkpt lat="44.1367" lon="7.23334">
        <ele>2048</ele>
        <time>2023-02-05T11:03:50Z</time>
      </trkpt>
      <trkpt lat="44.1367" lon="7.23334">
        <ele>2048.1</ele>
        <time>2023-02-05T11:03:51Z</time>
      </trkpt>
      <trkpt lat="44.1367" lon="7.23334">
        <ele>2048.2</ele>
        <time>2023-02-05T11:03:52Z</time>
      </trkpt>
      <trkpt lat="44.1367" lon="7.23333">
        <ele>2048.3</ele>
        <time>2023-02-05T11:03:53Z</time>
      </trkpt>
      <trkpt lat="44.1367" lon="7.23333">
        <ele>2048.3</ele>
        <time>2023-02-05T11:03:54Z</time>
      </trkpt>
      <trkpt lat="44.1367" lon="7.23333">
        <ele>2048.3</ele>
        <time>2023-02-05T11:03:55Z</time>
      </trkpt>
      <trkpt lat="44.1367" lon="7.23333">
        <ele>2048.4</ele>
        <time>2023-02-05T11:03:56Z</time>
      </trkpt>
      <trkpt lat="44.1367" lon="7.23333">
        <ele>2048.4</ele>
        <time>2023-02-05T11:03:57Z</time>
      </trkpt>
      <trkpt lat="44.1367" lon="7.23332">
        <ele>2048.4</ele>
        <time>2023-02-05T11:03:58Z</time>
      </trkpt>
      <trkpt lat="44.1367" lon="7.23332">
        <ele>2048.4</ele>
        <time>2023-02-05T11:03:59Z</time>
      </trkpt>
      <trkpt lat="44.1367" lon="7.23332">
        <ele>2048.5</ele>
        <time>2023-02-05T11:04:00Z</time>
      </trkpt>
      <trkpt lat="44.1367" lon="7.23333">
        <ele>2048.5</ele>
        <time>2023-02-05T11:04:01Z</time>
      </trkpt>
      <trkpt lat="44.13669" lon="7.23333">
        <ele>2048.4</ele>
        <time>2023-02-05T11:04:02Z</time>
      </trkpt>
      <trkpt lat="44.13669" lon="7.23333">
        <ele>2048.4</ele>
        <time>2023-02-05T11:04:03Z</time>
      </trkpt>
      <trkpt lat="44.13669" lon="7.23333">
        <ele>2048.4</ele>
        <time>2023-02-05T11:04:04Z</time>
      </trkpt>
      <trkpt lat="44.13669" lon="7.23334">
        <ele>2048.5</ele>
        <time>2023-02-05T11:04:05Z</time>
      </trkpt>
      <trkpt lat="44.13669" lon="7.23334">
        <ele>2048.5</ele>
        <time>2023-02-05T11:04:06Z</time>
      </trkpt>
      <trkpt lat="44.13669" lon="7.23334">
        <ele>2048.6</ele>
        <time>2023-02-05T11:04:07Z</time>
      </trkpt>
      <trkpt lat="44.13669" lon="7.23334">
        <ele>2048.6</ele>
        <time>2023-02-05T11:04:08Z</time>
      </trkpt>
      <trkpt lat="44.1367" lon="7.23333">
        <ele>2048.4</ele>
        <time>2023-02-05T11:04:09Z</time>
      </trkpt>
      <trkpt lat="44.1367" lon="7.23333">
        <ele>2048.4</ele>
        <time>2023-02-05T11:04:10Z</time>
      </trkpt>
      <trkpt lat="44.1367" lon="7.23332">
        <ele>2048.4</ele>
        <time>2023-02-05T11:04:11Z</time>
      </trkpt>
      <trkpt lat="44.1367" lon="7.23332">
        <ele>2048.4</ele>
        <time>2023-02-05T11:04:12Z</time>
      </trkpt>
      <trkpt lat="44.1367" lon="7.23332">
        <ele>2048.4</ele>
        <time>2023-02-05T11:04:13Z</time>
      </trkpt>
      <trkpt lat="44.1367" lon="7.23332">
        <ele>2048.4</ele>
        <time>2023-02-05T11:04:14Z</time>
      </trkpt>
      <trkpt lat="44.1367" lon="7.23332">
        <ele>2048.4</ele>
        <time>2023-02-05T11:04:15Z</time>
      </trkpt>
      <trkpt lat="44.1367" lon="7.23332">
        <ele>2048.4</ele>
        <time>2023-02-05T11:04:16Z</time>
      </trkpt>
      <trkpt lat="44.13669" lon="7.23332">
        <ele>2048.5</ele>
        <time>2023-02-05T11:04:17Z</time>
      </trkpt>
      <trkpt lat="44.1367" lon="7.23332">
        <ele>2048.5</ele>
        <time>2023-02-05T11:04:18Z</time>
      </trkpt>
      <trkpt lat="44.1367" lon="7.23332">
        <ele>2048.6</ele>
        <time>2023-02-05T11:04:19Z</time>
      </trkpt>
      <trkpt lat="44.1367" lon="7.23332">
        <ele>2048.6</ele>
        <time>2023-02-05T11:04:20Z</time>
      </trkpt>
      <trkpt lat="44.1367" lon="7.23332">
        <ele>2048.6</ele>
        <time>2023-02-05T11:04:21Z</time>
      </trkpt>
      <trkpt lat="44.1367" lon="7.23331">
        <ele>2048.6</ele>
        <time>2023-02-05T11:04:22Z</time>
      </trkpt>
      <trkpt lat="44.1367" lon="7.23331">
        <ele>2048.5</ele>
        <time>2023-02-05T11:04:23Z</time>
      </trkpt>
      <trkpt lat="44.1367" lon="7.23331">
        <ele>2048.5</ele>
        <time>2023-02-05T11:04:24Z</time>
      </trkpt>
      <trkpt lat="44.1367" lon="7.23331">
        <ele>2048.5</ele>
        <time>2023-02-05T11:04:25Z</time>
      </trkpt>
      <trkpt lat="44.1367" lon="7.23331">
        <ele>2048.6</ele>
        <time>2023-02-05T11:04:26Z</time>
      </trkpt>
      <trkpt lat="44.1367" lon="7.23331">
        <ele>2048.7</ele>
        <time>2023-02-05T11:04:27Z</time>
      </trkpt>
      <trkpt lat="44.1367" lon="7.23331">
        <ele>2048.7</ele>
        <time>2023-02-05T11:04:28Z</time>
      </trkpt>
      <trkpt lat="44.1367" lon="7.23331">
        <ele>2048.7</ele>
        <time>2023-02-05T11:04:29Z</time>
      </trkpt>
      <trkpt lat="44.1367" lon="7.2333">
        <ele>2048.7</ele>
        <time>2023-02-05T11:04:30Z</time>
      </trkpt>
      <trkpt lat="44.1367" lon="7.2333">
        <ele>2048.7</ele>
        <time>2023-02-05T11:04:31Z</time>
      </trkpt>
      <trkpt lat="44.1367" lon="7.2333">
        <ele>2048.7</ele>
        <time>2023-02-05T11:04:32Z</time>
      </trkpt>
      <trkpt lat="44.1367" lon="7.2333">
        <ele>2048.7</ele>
        <time>2023-02-05T11:04:33Z</time>
      </trkpt>
      <trkpt lat="44.1367" lon="7.2333">
        <ele>2048.7</ele>
        <time>2023-02-05T11:04:34Z</time>
      </trkpt>
      <trkpt lat="44.1367" lon="7.2333">
        <ele>2048.6</ele>
        <time>2023-02-05T11:04:35Z</time>
      </trkpt>
      <trkpt lat="44.1367" lon="7.2333">
        <ele>2048.6</ele>
        <time>2023-02-05T11:04:36Z</time>
      </trkpt>
      <trkpt lat="44.1367" lon="7.2333">
        <ele>2048.6</ele>
        <time>2023-02-05T11:04:37Z</time>
      </trkpt>
      <trkpt lat="44.1367" lon="7.2333">
        <ele>2048.8</ele>
        <time>2023-02-05T11:04:38Z</time>
      </trkpt>
      <trkpt lat="44.1367" lon="7.2333">
        <ele>2048.9</ele>
        <time>2023-02-05T11:04:39Z</time>
      </trkpt>
      <trkpt lat="44.1367" lon="7.23331">
        <ele>2048.9</ele>
        <time>2023-02-05T11:04:40Z</time>
      </trkpt>
      <trkpt lat="44.1367" lon="7.23331">
        <ele>2048.9</ele>
        <time>2023-02-05T11:04:41Z</time>
      </trkpt>
      <trkpt lat="44.1367" lon="7.23331">
        <ele>2048.8</ele>
        <time>2023-02-05T11:04:42Z</time>
      </trkpt>
      <trkpt lat="44.1367" lon="7.23331">
        <ele>2048.8</ele>
        <time>2023-02-05T11:04:43Z</time>
      </trkpt>
      <trkpt lat="44.1367" lon="7.23331">
        <ele>2048.8</ele>
        <time>2023-02-05T11:04:44Z</time>
      </trkpt>
      <trkpt lat="44.1367" lon="7.23332">
        <ele>2048.8</ele>
        <time>2023-02-05T11:04:45Z</time>
      </trkpt>
      <trkpt lat="44.13669" lon="7.23332">
        <ele>2048.8</ele>
        <time>2023-02-05T11:04:46Z</time>
      </trkpt>
      <trkpt lat="44.13669" lon="7.23332">
        <ele>2048.7</ele>
        <time>2023-02-05T11:04:47Z</time>
      </trkpt>
      <trkpt lat="44.13669" lon="7.23332">
        <ele>2048.7</ele>
        <time>2023-02-05T11:04:48Z</time>
      </trkpt>
      <trkpt lat="44.13669" lon="7.23332">
        <ele>2048.6</ele>
        <time>2023-02-05T11:04:49Z</time>
      </trkpt>
      <trkpt lat="44.13669" lon="7.23332">
        <ele>2048.6</ele>
        <time>2023-02-05T11:04:50Z</time>
      </trkpt>
      <trkpt lat="44.13669" lon="7.23333">
        <ele>2048.6</ele>
        <time>2023-02-05T11:04:51Z</time>
      </trkpt>
      <trkpt lat="44.13669" lon="7.23333">
        <ele>2048.6</ele>
        <time>2023-02-05T11:04:52Z</time>
      </trkpt>
      <trkpt lat="44.13669" lon="7.23333">
        <ele>2048.6</ele>
        <time>2023-02-05T11:04:53Z</time>
      </trkpt>
      <trkpt lat="44.13669" lon="7.23333">
        <ele>2048.6</ele>
        <time>2023-02-05T11:04:54Z</time>
      </trkpt>
      <trkpt lat="44.13669" lon="7.23333">
        <ele>2048.6</ele>
        <time>2023-02-05T11:04:55Z</time>
      </trkpt>
      <trkpt lat="44.13669" lon="7.23333">
        <ele>2048.7</ele>
        <time>2023-02-05T11:04:56Z</time>
      </trkpt>
      <trkpt lat="44.13669" lon="7.23333">
        <ele>2048.7</ele>
        <time>2023-02-05T11:04:57Z</time>
      </trkpt>
      <trkpt lat="44.13669" lon="7.23333">
        <ele>2048.7</ele>
        <time>2023-02-05T11:04:58Z</time>
      </trkpt>
      <trkpt lat="44.13669" lon="7.23333">
        <ele>2048.7</ele>
        <time>2023-02-05T11:04:59Z</time>
      </trkpt>
      <trkpt lat="44.13669" lon="7.23333">
        <ele>2048.6</ele>
        <time>2023-02-05T11:05:00Z</time>
      </trkpt>
      <trkpt lat="44.13669" lon="7.23333">
        <ele>2048.5</ele>
        <time>2023-02-05T11:05:01Z</time>
      </trkpt>
      <trkpt lat="44.13669" lon="7.23333">
        <ele>2048.5</ele>
        <time>2023-02-05T11:05:02Z</time>
      </trkpt>
      <trkpt lat="44.13669" lon="7.23333">
        <ele>2048.4</ele>
        <time>2023-02-05T11:05:03Z</time>
      </trkpt>
      <trkpt lat="44.13669" lon="7.23333">
        <ele>2048.4</ele>
        <time>2023-02-05T11:05:04Z</time>
      </trkpt>
      <trkpt lat="44.13669" lon="7.23333">
        <ele>2048.4</ele>
        <time>2023-02-05T11:05:05Z</time>
      </trkpt>
      <trkpt lat="44.13669" lon="7.23333">
        <ele>2048.4</ele>
        <time>2023-02-05T11:05:06Z</time>
      </trkpt>
      <trkpt lat="44.13669" lon="7.23333">
        <ele>2048.5</ele>
        <time>2023-02-05T11:05:07Z</time>
      </trkpt>
      <trkpt lat="44.13669" lon="7.23334">
        <ele>2048.5</ele>
        <time>2023-02-05T11:05:08Z</time>
      </trkpt>
      <trkpt lat="44.13669" lon="7.23334">
        <ele>2048.5</ele>
        <time>2023-02-05T11:05:09Z</time>
      </trkpt>
      <trkpt lat="44.13668" lon="7.23334">
        <ele>2048.5</ele>
        <time>2023-02-05T11:05:10Z</time>
      </trkpt>
      <trkpt lat="44.13668" lon="7.23334">
        <ele>2048.5</ele>
        <time>2023-02-05T11:05:11Z</time>
      </trkpt>
      <trkpt lat="44.13668" lon="7.23334">
        <ele>2048.4</ele>
        <time>2023-02-05T11:05:12Z</time>
      </trkpt>
      <trkpt lat="44.13668" lon="7.23334">
        <ele>2048.3</ele>
        <time>2023-02-05T11:05:13Z</time>
      </trkpt>
      <trkpt lat="44.13668" lon="7.23334">
        <ele>2048.2</ele>
        <time>2023-02-05T11:05:14Z</time>
      </trkpt>
      <trkpt lat="44.13668" lon="7.23334">
        <ele>2048.1</ele>
        <time>2023-02-05T11:05:15Z</time>
      </trkpt>
      <trkpt lat="44.13668" lon="7.23334">
        <ele>2048.1</ele>
        <time>2023-02-05T11:05:16Z</time>
      </trkpt>
      <trkpt lat="44.13668" lon="7.23334">
        <ele>2048.1</ele>
        <time>2023-02-05T11:05:17Z</time>
      </trkpt>
      <trkpt lat="44.13668" lon="7.23334">
        <ele>2048.1</ele>
        <time>2023-02-05T11:05:18Z</time>
      </trkpt>
      <trkpt lat="44.13668" lon="7.23334">
        <ele>2048.1</ele>
        <time>2023-02-05T11:05:19Z</time>
      </trkpt>
      <trkpt lat="44.13669" lon="7.23334">
        <ele>2048.1</ele>
        <time>2023-02-05T11:05:20Z</time>
      </trkpt>
      <trkpt lat="44.1367" lon="7.23334">
        <ele>2048.2</ele>
        <time>2023-02-05T11:05:21Z</time>
      </trkpt>
      <trkpt lat="44.13669" lon="7.23334">
        <ele>2048.2</ele>
        <time>2023-02-05T11:05:22Z</time>
      </trkpt>
      <trkpt lat="44.1367" lon="7.23334">
        <ele>2048.2</ele>
        <time>2023-02-05T11:05:23Z</time>
      </trkpt>
      <trkpt lat="44.13671" lon="7.23334">
        <ele>2048.3</ele>
        <time>2023-02-05T11:05:24Z</time>
      </trkpt>
      <trkpt lat="44.13671" lon="7.23334">
        <ele>2048.3</ele>
        <time>2023-02-05T11:05:25Z</time>
      </trkpt>
      <trkpt lat="44.13672" lon="7.23334">
        <ele>2048.4</ele>
        <time>2023-02-05T11:05:26Z</time>
      </trkpt>
      <trkpt lat="44.13673" lon="7.23335">
        <ele>2048.4</ele>
        <time>2023-02-05T11:05:27Z</time>
      </trkpt>
      <trkpt lat="44.13673" lon="7.23335">
        <ele>2048.5</ele>
        <time>2023-02-05T11:05:28Z</time>
      </trkpt>
      <trkpt lat="44.13674" lon="7.23335">
        <ele>2048.5</ele>
        <time>2023-02-05T11:05:29Z</time>
      </trkpt>
      <trkpt lat="44.13675" lon="7.23335">
        <ele>2048.6</ele>
        <time>2023-02-05T11:05:30Z</time>
      </trkpt>
      <trkpt lat="44.13676" lon="7.23335">
        <ele>2048.6</ele>
        <time>2023-02-05T11:05:31Z</time>
      </trkpt>
      <trkpt lat="44.13677" lon="7.23335">
        <ele>2048.6</ele>
        <time>2023-02-05T11:05:32Z</time>
      </trkpt>
      <trkpt lat="44.13678" lon="7.23335">
        <ele>2048.7</ele>
        <time>2023-02-05T11:05:33Z</time>
      </trkpt>
      <trkpt lat="44.13679" lon="7.23335">
        <ele>2048.8</ele>
        <time>2023-02-05T11:05:34Z</time>
      </trkpt>
      <trkpt lat="44.1368" lon="7.23335">
        <ele>2048.9</ele>
        <time>2023-02-05T11:05:35Z</time>
      </trkpt>
      <trkpt lat="44.13681" lon="7.23335">
        <ele>2048.9</ele>
        <time>2023-02-05T11:05:36Z</time>
      </trkpt>
      <trkpt lat="44.13682" lon="7.23335">
        <ele>2048.9</ele>
        <time>2023-02-05T11:05:37Z</time>
      </trkpt>
      <trkpt lat="44.13682" lon="7.23335">
        <ele>2049</ele>
        <time>2023-02-05T11:05:38Z</time>
      </trkpt>
      <trkpt lat="44.13683" lon="7.23334">
        <ele>2049.1</ele>
        <time>2023-02-05T11:05:39Z</time>
      </trkpt>
      <trkpt lat="44.13683" lon="7.23333">
        <ele>2049.1</ele>
        <time>2023-02-05T11:05:40Z</time>
      </trkpt>
      <trkpt lat="44.13683" lon="7.23332">
        <ele>2049.1</ele>
        <time>2023-02-05T11:05:41Z</time>
      </trkpt>
      <trkpt lat="44.13683" lon="7.23332">
        <ele>2049.1</ele>
        <time>2023-02-05T11:05:42Z</time>
      </trkpt>
      <trkpt lat="44.13684" lon="7.23331">
        <ele>2049.1</ele>
        <time>2023-02-05T11:05:43Z</time>
      </trkpt>
      <trkpt lat="44.13684" lon="7.23331">
        <ele>2049</ele>
        <time>2023-02-05T11:05:44Z</time>
      </trkpt>
      <trkpt lat="44.13684" lon="7.23331">
        <ele>2049</ele>
        <time>2023-02-05T11:05:45Z</time>
      </trkpt>
      <trkpt lat="44.13685" lon="7.23331">
        <ele>2048.9</ele>
        <time>2023-02-05T11:05:46Z</time>
      </trkpt>
      <trkpt lat="44.13686" lon="7.23332">
        <ele>2048.9</ele>
        <time>2023-02-05T11:05:47Z</time>
      </trkpt>
      <trkpt lat="44.13686" lon="7.23332">
        <ele>2048.8</ele>
        <time>2023-02-05T11:05:48Z</time>
      </trkpt>
      <trkpt lat="44.13686" lon="7.23333">
        <ele>2048.9</ele>
        <time>2023-02-05T11:05:49Z</time>
      </trkpt>
      <trkpt lat="44.13687" lon="7.23333">
        <ele>2049</ele>
        <time>2023-02-05T11:05:50Z</time>
      </trkpt>
      <trkpt lat="44.13688" lon="7.23333">
        <ele>2049.2</ele>
        <time>2023-02-05T11:05:51Z</time>
      </trkpt>
      <trkpt lat="44.13689" lon="7.23334">
        <ele>2049.2</ele>
        <time>2023-02-05T11:05:52Z</time>
      </trkpt>
      <trkpt lat="44.1369" lon="7.23335">
        <ele>2049.3</ele>
        <time>2023-02-05T11:05:53Z</time>
      </trkpt>
      <trkpt lat="44.1369" lon="7.23335">
        <ele>2049.4</ele>
        <time>2023-02-05T11:05:54Z</time>
      </trkpt>
      <trkpt lat="44.13691" lon="7.23335">
        <ele>2049.3</ele>
        <time>2023-02-05T11:05:55Z</time>
      </trkpt>
      <trkpt lat="44.13691" lon="7.23336">
        <ele>2049.4</ele>
        <time>2023-02-05T11:05:56Z</time>
      </trkpt>
      <trkpt lat="44.13692" lon="7.23336">
        <ele>2049.5</ele>
        <time>2023-02-05T11:05:57Z</time>
      </trkpt>
      <trkpt lat="44.13693" lon="7.23337">
        <ele>2049.6</ele>
        <time>2023-02-05T11:05:58Z</time>
      </trkpt>
      <trkpt lat="44.13694" lon="7.23337">
        <ele>2049.7</ele>
        <time>2023-02-05T11:05:59Z</time>
      </trkpt>
      <trkpt lat="44.13695" lon="7.23337">
        <ele>2049.7</ele>
        <time>2023-02-05T11:06:00Z</time>
      </trkpt>
      <trkpt lat="44.13695" lon="7.23338">
        <ele>2049.8</ele>
        <time>2023-02-05T11:06:01Z</time>
      </trkpt>
      <trkpt lat="44.13696" lon="7.23338">
        <ele>2049.8</ele>
        <time>2023-02-05T11:06:02Z</time>
      </trkpt>
      <trkpt lat="44.13697" lon="7.23339">
        <ele>2049.9</ele>
        <time>2023-02-05T11:06:03Z</time>
      </trkpt>
      <trkpt lat="44.13698" lon="7.2334">
        <ele>2050</ele>
        <time>2023-02-05T11:06:04Z</time>
      </trkpt>
      <trkpt lat="44.13699" lon="7.23341">
        <ele>2050</ele>
        <time>2023-02-05T11:06:05Z</time>
      </trkpt>
      <trkpt lat="44.13699" lon="7.23341">
        <ele>2050</ele>
        <time>2023-02-05T11:06:06Z</time>
      </trkpt>
      <trkpt lat="44.137" lon="7.23341">
        <ele>2050</ele>
        <time>2023-02-05T11:06:07Z</time>
      </trkpt>
      <trkpt lat="44.137" lon="7.23342">
        <ele>2050.1</ele>
        <time>2023-02-05T11:06:08Z</time>
      </trkpt>
      <trkpt lat="44.13701" lon="7.23343">
        <ele>2050.1</ele>
        <time>2023-02-05T11:06:09Z</time>
      </trkpt>
      <trkpt lat="44.13702" lon="7.23343">
        <ele>2050.2</ele>
        <time>2023-02-05T11:06:10Z</time>
      </trkpt>
      <trkpt lat="44.13702" lon="7.23343">
        <ele>2050.2</ele>
        <time>2023-02-05T11:06:11Z</time>
      </trkpt>
      <trkpt lat="44.13703" lon="7.23344">
        <ele>2050.2</ele>
        <time>2023-02-05T11:06:12Z</time>
      </trkpt>
      <trkpt lat="44.13704" lon="7.23344">
        <ele>2050.2</ele>
        <time>2023-02-05T11:06:13Z</time>
      </trkpt>
      <trkpt lat="44.13705" lon="7.23344">
        <ele>2050.3</ele>
        <time>2023-02-05T11:06:14Z</time>
      </trkpt>
      <trkpt lat="44.13706" lon="7.23345">
        <ele>2050.3</ele>
        <time>2023-02-05T11:06:15Z</time>
      </trkpt>
      <trkpt lat="44.13706" lon="7.23345">
        <ele>2050.3</ele>
        <time>2023-02-05T11:06:16Z</time>
      </trkpt>
      <trkpt lat="44.13707" lon="7.23346">
        <ele>2050.3</ele>
        <time>2023-02-05T11:06:17Z</time>
      </trkpt>
      <trkpt lat="44.13708" lon="7.23346">
        <ele>2050.3</ele>
        <time>2023-02-05T11:06:18Z</time>
      </trkpt>
      <trkpt lat="44.13709" lon="7.23347">
        <ele>2050.4</ele>
        <time>2023-02-05T11:06:19Z</time>
      </trkpt>
      <trkpt lat="44.13709" lon="7.23347">
        <ele>2050.3</ele>
        <time>2023-02-05T11:06:20Z</time>
      </trkpt>
      <trkpt lat="44.1371" lon="7.23348">
        <ele>2050.4</ele>
        <time>2023-02-05T11:06:21Z</time>
      </trkpt>
      <trkpt lat="44.13711" lon="7.23348">
        <ele>2050.5</ele>
        <time>2023-02-05T11:06:22Z</time>
      </trkpt>
      <trkpt lat="44.13711" lon="7.23348">
        <ele>2050.5</ele>
        <time>2023-02-05T11:06:23Z</time>
      </trkpt>
      <trkpt lat="44.13712" lon="7.23348">
        <ele>2050.6</ele>
        <time>2023-02-05T11:06:24Z</time>
      </trkpt>
      <trkpt lat="44.13713" lon="7.23348">
        <ele>2050.6</ele>
        <time>2023-02-05T11:06:25Z</time>
      </trkpt>
      <trkpt lat="44.13714" lon="7.23348">
        <ele>2050.7</ele>
        <time>2023-02-05T11:06:26Z</time>
      </trkpt>
      <trkpt lat="44.13714" lon="7.23349">
        <ele>2050.8</ele>
        <time>2023-02-05T11:06:27Z</time>
      </trkpt>
      <trkpt lat="44.13715" lon="7.2335">
        <ele>2050.7</ele>
        <time>2023-02-05T11:06:28Z</time>
      </trkpt>
      <trkpt lat="44.13716" lon="7.23349">
        <ele>2050.7</ele>
        <time>2023-02-05T11:06:29Z</time>
      </trkpt>
      <trkpt lat="44.13716" lon="7.2335">
        <ele>2050.7</ele>
        <time>2023-02-05T11:06:30Z</time>
      </trkpt>
      <trkpt lat="44.13717" lon="7.2335">
        <ele>2050.7</ele>
        <time>2023-02-05T11:06:31Z</time>
      </trkpt>
      <trkpt lat="44.13717" lon="7.23351">
        <ele>2050.9</ele>
        <time>2023-02-05T11:06:32Z</time>
      </trkpt>
      <trkpt lat="44.13718" lon="7.23352">
        <ele>2051</ele>
        <time>2023-02-05T11:06:33Z</time>
      </trkpt>
      <trkpt lat="44.13719" lon="7.23352">
        <ele>2051.1</ele>
        <time>2023-02-05T11:06:34Z</time>
      </trkpt>
      <trkpt lat="44.13719" lon="7.23353">
        <ele>2051.2</ele>
        <time>2023-02-05T11:06:35Z</time>
      </trkpt>
      <trkpt lat="44.1372" lon="7.23353">
        <ele>2051.2</ele>
        <time>2023-02-05T11:06:36Z</time>
      </trkpt>
      <trkpt lat="44.13721" lon="7.23354">
        <ele>2051.3</ele>
        <time>2023-02-05T11:06:37Z</time>
      </trkpt>
      <trkpt lat="44.13721" lon="7.23354">
        <ele>2051.4</ele>
        <time>2023-02-05T11:06:38Z</time>
      </trkpt>
      <trkpt lat="44.13722" lon="7.23355">
        <ele>2051.4</ele>
        <time>2023-02-05T11:06:39Z</time>
      </trkpt>
      <trkpt lat="44.13722" lon="7.23356">
        <ele>2051.6</ele>
        <time>2023-02-05T11:06:40Z</time>
      </trkpt>
      <trkpt lat="44.13723" lon="7.23357">
        <ele>2051.5</ele>
        <time>2023-02-05T11:06:41Z</time>
      </trkpt>
      <trkpt lat="44.13724" lon="7.23357">
        <ele>2051.6</ele>
        <time>2023-02-05T11:06:42Z</time>
      </trkpt>
      <trkpt lat="44.13724" lon="7.23358">
        <ele>2051.8</ele>
        <time>2023-02-05T11:06:43Z</time>
      </trkpt>
      <trkpt lat="44.13725" lon="7.23359">
        <ele>2051.9</ele>
        <time>2023-02-05T11:06:44Z</time>
      </trkpt>
      <trkpt lat="44.13726" lon="7.23359">
        <ele>2052</ele>
        <time>2023-02-05T11:06:45Z</time>
      </trkpt>
      <trkpt lat="44.13726" lon="7.23359">
        <ele>2052.1</ele>
        <time>2023-02-05T11:06:46Z</time>
      </trkpt>
      <trkpt lat="44.13727" lon="7.2336">
        <ele>2052.3</ele>
        <time>2023-02-05T11:06:47Z</time>
      </trkpt>
      <trkpt lat="44.13727" lon="7.23361">
        <ele>2052.4</ele>
        <time>2023-02-05T11:06:48Z</time>
      </trkpt>
      <trkpt lat="44.13728" lon="7.23361">
        <ele>2052.5</ele>
        <time>2023-02-05T11:06:49Z</time>
      </trkpt>
      <trkpt lat="44.13729" lon="7.23362">
        <ele>2052.6</ele>
        <time>2023-02-05T11:06:50Z</time>
      </trkpt>
      <trkpt lat="44.13729" lon="7.23364">
        <ele>2052.6</ele>
        <time>2023-02-05T11:06:51Z</time>
      </trkpt>
      <trkpt lat="44.1373" lon="7.23364">
        <ele>2052.7</ele>
        <time>2023-02-05T11:06:52Z</time>
      </trkpt>
      <trkpt lat="44.1373" lon="7.23365">
        <ele>2052.7</ele>
        <time>2023-02-05T11:06:53Z</time>
      </trkpt>
      <trkpt lat="44.13731" lon="7.23366">
        <ele>2052.8</ele>
        <time>2023-02-05T11:06:54Z</time>
      </trkpt>
      <trkpt lat="44.13731" lon="7.23367">
        <ele>2053</ele>
        <time>2023-02-05T11:06:55Z</time>
      </trkpt>
      <trkpt lat="44.13732" lon="7.23368">
        <ele>2053.1</ele>
        <time>2023-02-05T11:06:56Z</time>
      </trkpt>
      <trkpt lat="44.13732" lon="7.23369">
        <ele>2053.3</ele>
        <time>2023-02-05T11:06:57Z</time>
      </trkpt>
      <trkpt lat="44.13733" lon="7.2337">
        <ele>2053.4</ele>
        <time>2023-02-05T11:06:58Z</time>
      </trkpt>
      <trkpt lat="44.13733" lon="7.23371">
        <ele>2053.4</ele>
        <time>2023-02-05T11:06:59Z</time>
      </trkpt>
      <trkpt lat="44.13733" lon="7.23373">
        <ele>2053.5</ele>
        <time>2023-02-05T11:07:00Z</time>
      </trkpt>
      <trkpt lat="44.13734" lon="7.23373">
        <ele>2053.6</ele>
        <time>2023-02-05T11:07:01Z</time>
      </trkpt>
      <trkpt lat="44.13734" lon="7.23374">
        <ele>2053.5</ele>
        <time>2023-02-05T11:07:02Z</time>
      </trkpt>
      <trkpt lat="44.13735" lon="7.23375">
        <ele>2053.6</ele>
        <time>2023-02-05T11:07:03Z</time>
      </trkpt>
      <trkpt lat="44.13735" lon="7.23376">
        <ele>2053.8</ele>
        <time>2023-02-05T11:07:04Z</time>
      </trkpt>
      <trkpt lat="44.13735" lon="7.23377">
        <ele>2053.9</ele>
        <time>2023-02-05T11:07:05Z</time>
      </trkpt>
      <trkpt lat="44.13735" lon="7.23378">
        <ele>2054</ele>
        <time>2023-02-05T11:07:06Z</time>
      </trkpt>
      <trkpt lat="44.13735" lon="7.23379">
        <ele>2054.1</ele>
        <time>2023-02-05T11:07:07Z</time>
      </trkpt>
      <trkpt lat="44.13735" lon="7.23381">
        <ele>2054.2</ele>
        <time>2023-02-05T11:07:08Z</time>
      </trkpt>
      <trkpt lat="44.13735" lon="7.23382">
        <ele>2054.3</ele>
        <time>2023-02-05T11:07:09Z</time>
      </trkpt>
      <trkpt lat="44.13735" lon="7.23383">
        <ele>2054.4</ele>
        <time>2023-02-05T11:07:10Z</time>
      </trkpt>
      <trkpt lat="44.13734" lon="7.23384">
        <ele>2054.5</ele>
        <time>2023-02-05T11:07:11Z</time>
      </trkpt>
      <trkpt lat="44.13734" lon="7.23385">
        <ele>2054.7</ele>
        <time>2023-02-05T11:07:12Z</time>
      </trkpt>
      <trkpt lat="44.13734" lon="7.23386">
        <ele>2054.8</ele>
        <time>2023-02-05T11:07:13Z</time>
      </trkpt>
      <trkpt lat="44.13734" lon="7.23387">
        <ele>2055</ele>
        <time>2023-02-05T11:07:14Z</time>
      </trkpt>
      <trkpt lat="44.13734" lon="7.23387">
        <ele>2055.1</ele>
        <time>2023-02-05T11:07:15Z</time>
      </trkpt>
      <trkpt lat="44.13734" lon="7.23388">
        <ele>2055.2</ele>
        <time>2023-02-05T11:07:16Z</time>
      </trkpt>
      <trkpt lat="44.13733" lon="7.23389">
        <ele>2055.3</ele>
        <time>2023-02-05T11:07:17Z</time>
      </trkpt>
      <trkpt lat="44.13733" lon="7.2339">
        <ele>2055.4</ele>
        <time>2023-02-05T11:07:18Z</time>
      </trkpt>
      <trkpt lat="44.13733" lon="7.23392">
        <ele>2055.7</ele>
        <time>2023-02-05T11:07:19Z</time>
      </trkpt>
      <trkpt lat="44.13733" lon="7.23392">
        <ele>2055.9</ele>
        <time>2023-02-05T11:07:20Z</time>
      </trkpt>
      <trkpt lat="44.13732" lon="7.23394">
        <ele>2056.1</ele>
        <time>2023-02-05T11:07:21Z</time>
      </trkpt>
      <trkpt lat="44.13732" lon="7.23395">
        <ele>2056</ele>
        <time>2023-02-05T11:07:22Z</time>
      </trkpt>
      <trkpt lat="44.13731" lon="7.23396">
        <ele>2056.1</ele>
        <time>2023-02-05T11:07:23Z</time>
      </trkpt>
      <trkpt lat="44.13732" lon="7.23397">
        <ele>2056.1</ele>
        <time>2023-02-05T11:07:24Z</time>
      </trkpt>
      <trkpt lat="44.13731" lon="7.23398">
        <ele>2056.2</ele>
        <time>2023-02-05T11:07:25Z</time>
      </trkpt>
      <trkpt lat="44.13731" lon="7.23398">
        <ele>2056.3</ele>
        <time>2023-02-05T11:07:26Z</time>
      </trkpt>
      <trkpt lat="44.1373" lon="7.23399">
        <ele>2056.4</ele>
        <time>2023-02-05T11:07:27Z</time>
      </trkpt>
      <trkpt lat="44.1373" lon="7.234">
        <ele>2056.4</ele>
        <time>2023-02-05T11:07:28Z</time>
      </trkpt>
      <trkpt lat="44.1373" lon="7.234">
        <ele>2056.4</ele>
        <time>2023-02-05T11:07:29Z</time>
      </trkpt>
      <trkpt lat="44.1373" lon="7.23401">
        <ele>2056.5</ele>
        <time>2023-02-05T11:07:30Z</time>
      </trkpt>
      <trkpt lat="44.1373" lon="7.23402">
        <ele>2056.6</ele>
        <time>2023-02-05T11:07:31Z</time>
      </trkpt>
      <trkpt lat="44.13731" lon="7.23403">
        <ele>2056.8</ele>
        <time>2023-02-05T11:07:32Z</time>
      </trkpt>
      <trkpt lat="44.1373" lon="7.23404">
        <ele>2057</ele>
        <time>2023-02-05T11:07:33Z</time>
      </trkpt>
      <trkpt lat="44.1373" lon="7.23404">
        <ele>2057.1</ele>
        <time>2023-02-05T11:07:34Z</time>
      </trkpt>
      <trkpt lat="44.13729" lon="7.23405">
        <ele>2057.2</ele>
        <time>2023-02-05T11:07:35Z</time>
      </trkpt>
      <trkpt lat="44.1373" lon="7.23405">
        <ele>2057.2</ele>
        <time>2023-02-05T11:07:36Z</time>
      </trkpt>
      <trkpt lat="44.1373" lon="7.23406">
        <ele>2057.2</ele>
        <time>2023-02-05T11:07:37Z</time>
      </trkpt>
      <trkpt lat="44.1373" lon="7.23406">
        <ele>2057.3</ele>
        <time>2023-02-05T11:07:38Z</time>
      </trkpt>
      <trkpt lat="44.13731" lon="7.23408">
        <ele>2057.4</ele>
        <time>2023-02-05T11:07:39Z</time>
      </trkpt>
      <trkpt lat="44.13731" lon="7.23408">
        <ele>2057.6</ele>
        <time>2023-02-05T11:07:40Z</time>
      </trkpt>
      <trkpt lat="44.13731" lon="7.23409">
        <ele>2057.7</ele>
        <time>2023-02-05T11:07:41Z</time>
      </trkpt>
      <trkpt lat="44.13731" lon="7.2341">
        <ele>2057.8</ele>
        <time>2023-02-05T11:07:42Z</time>
      </trkpt>
      <trkpt lat="44.13731" lon="7.2341">
        <ele>2057.9</ele>
        <time>2023-02-05T11:07:43Z</time>
      </trkpt>
      <trkpt lat="44.13731" lon="7.23411">
        <ele>2057.9</ele>
        <time>2023-02-05T11:07:44Z</time>
      </trkpt>
      <trkpt lat="44.13732" lon="7.23412">
        <ele>2058</ele>
        <time>2023-02-05T11:07:45Z</time>
      </trkpt>
      <trkpt lat="44.13733" lon="7.23412">
        <ele>2058</ele>
        <time>2023-02-05T11:07:46Z</time>
      </trkpt>
      <trkpt lat="44.13733" lon="7.23413">
        <ele>2058</ele>
        <time>2023-02-05T11:07:47Z</time>
      </trkpt>
      <trkpt lat="44.13733" lon="7.23414">
        <ele>2058</ele>
        <time>2023-02-05T11:07:48Z</time>
      </trkpt>
      <trkpt lat="44.13733" lon="7.23415">
        <ele>2057.9</ele>
        <time>2023-02-05T11:07:49Z</time>
      </trkpt>
      <trkpt lat="44.13734" lon="7.23416">
        <ele>2057.9</ele>
        <time>2023-02-05T11:07:50Z</time>
      </trkpt>
      <trkpt lat="44.13734" lon="7.23417">
        <ele>2058</ele>
        <time>2023-02-05T11:07:51Z</time>
      </trkpt>
      <trkpt lat="44.13735" lon="7.23417">
        <ele>2058.1</ele>
        <time>2023-02-05T11:07:52Z</time>
      </trkpt>
      <trkpt lat="44.13735" lon="7.23418">
        <ele>2058.3</ele>
        <time>2023-02-05T11:07:53Z</time>
      </trkpt>
      <trkpt lat="44.13735" lon="7.23419">
        <ele>2058.4</ele>
        <time>2023-02-05T11:07:54Z</time>
      </trkpt>
      <trkpt lat="44.13735" lon="7.23421">
        <ele>2058.5</ele>
        <time>2023-02-05T11:07:55Z</time>
      </trkpt>
      <trkpt lat="44.13736" lon="7.23422">
        <ele>2058.5</ele>
        <time>2023-02-05T11:07:56Z</time>
      </trkpt>
      <trkpt lat="44.13736" lon="7.23423">
        <ele>2058.6</ele>
        <time>2023-02-05T11:07:57Z</time>
      </trkpt>
      <trkpt lat="44.13737" lon="7.23423">
        <ele>2058.7</ele>
        <time>2023-02-05T11:07:58Z</time>
      </trkpt>
      <trkpt lat="44.13738" lon="7.23425">
        <ele>2058.6</ele>
        <time>2023-02-05T11:07:59Z</time>
      </trkpt>
      <trkpt lat="44.13738" lon="7.23426">
        <ele>2058.8</ele>
        <time>2023-02-05T11:08:00Z</time>
      </trkpt>
      <trkpt lat="44.13739" lon="7.23427">
        <ele>2058.9</ele>
        <time>2023-02-05T11:08:01Z</time>
      </trkpt>
      <trkpt lat="44.13739" lon="7.23428">
        <ele>2059.1</ele>
        <time>2023-02-05T11:08:02Z</time>
      </trkpt>
      <trkpt lat="44.1374" lon="7.23429">
        <ele>2059.2</ele>
        <time>2023-02-05T11:08:03Z</time>
      </trkpt>
      <trkpt lat="44.1374" lon="7.2343">
        <ele>2059.3</ele>
        <time>2023-02-05T11:08:04Z</time>
      </trkpt>
      <trkpt lat="44.1374" lon="7.23432">
        <ele>2059.3</ele>
        <time>2023-02-05T11:08:05Z</time>
      </trkpt>
      <trkpt lat="44.13741" lon="7.23432">
        <ele>2059.4</ele>
        <time>2023-02-05T11:08:06Z</time>
      </trkpt>
      <trkpt lat="44.13741" lon="7.23433">
        <ele>2059.5</ele>
        <time>2023-02-05T11:08:07Z</time>
      </trkpt>
      <trkpt lat="44.13742" lon="7.23434">
        <ele>2059.6</ele>
        <time>2023-02-05T11:08:08Z</time>
      </trkpt>
      <trkpt lat="44.13742" lon="7.23435">
        <ele>2059.8</ele>
        <time>2023-02-05T11:08:09Z</time>
      </trkpt>
      <trkpt lat="44.13742" lon="7.23436">
        <ele>2059.9</ele>
        <time>2023-02-05T11:08:10Z</time>
      </trkpt>
      <trkpt lat="44.13742" lon="7.23436">
        <ele>2059.8</ele>
        <time>2023-02-05T11:08:11Z</time>
      </trkpt>
      <trkpt lat="44.13742" lon="7.23437">
        <ele>2059.8</ele>
        <time>2023-02-05T11:08:12Z</time>
      </trkpt>
      <trkpt lat="44.13742" lon="7.23438">
        <ele>2059.8</ele>
        <time>2023-02-05T11:08:13Z</time>
      </trkpt>
      <trkpt lat="44.13743" lon="7.23439">
        <ele>2060</ele>
        <time>2023-02-05T11:08:14Z</time>
      </trkpt>
      <trkpt lat="44.13743" lon="7.2344">
        <ele>2060.1</ele>
        <time>2023-02-05T11:08:15Z</time>
      </trkpt>
      <trkpt lat="44.13743" lon="7.23441">
        <ele>2060</ele>
        <time>2023-02-05T11:08:16Z</time>
      </trkpt>
      <trkpt lat="44.13744" lon="7.23442">
        <ele>2060.1</ele>
        <time>2023-02-05T11:08:17Z</time>
      </trkpt>
      <trkpt lat="44.13744" lon="7.23443">
        <ele>2060.2</ele>
        <time>2023-02-05T11:08:18Z</time>
      </trkpt>
      <trkpt lat="44.13744" lon="7.23444">
        <ele>2060.2</ele>
        <time>2023-02-05T11:08:19Z</time>
      </trkpt>
      <trkpt lat="44.13744" lon="7.23444">
        <ele>2060.3</ele>
        <time>2023-02-05T11:08:20Z</time>
      </trkpt>
      <trkpt lat="44.13745" lon="7.23445">
        <ele>2060.3</ele>
        <time>2023-02-05T11:08:21Z</time>
      </trkpt>
      <trkpt lat="44.13745" lon="7.23447">
        <ele>2060.5</ele>
        <time>2023-02-05T11:08:22Z</time>
      </trkpt>
      <trkpt lat="44.13745" lon="7.23448">
        <ele>2060.6</ele>
        <time>2023-02-05T11:08:23Z</time>
      </trkpt>
      <trkpt lat="44.13745" lon="7.23449">
        <ele>2060.5</ele>
        <time>2023-02-05T11:08:24Z</time>
      </trkpt>
      <trkpt lat="44.13746" lon="7.2345">
        <ele>2060.6</ele>
        <time>2023-02-05T11:08:25Z</time>
      </trkpt>
      <trkpt lat="44.13746" lon="7.23451">
        <ele>2060.5</ele>
        <time>2023-02-05T11:08:26Z</time>
      </trkpt>
      <trkpt lat="44.13747" lon="7.23453">
        <ele>2060.6</ele>
        <time>2023-02-05T11:08:27Z</time>
      </trkpt>
      <trkpt lat="44.13747" lon="7.23454">
        <ele>2060.8</ele>
        <time>2023-02-05T11:08:28Z</time>
      </trkpt>
      <trkpt lat="44.13747" lon="7.23455">
        <ele>2060.9</ele>
        <time>2023-02-05T11:08:29Z</time>
      </trkpt>
      <trkpt lat="44.13747" lon="7.23455">
        <ele>2061</ele>
        <time>2023-02-05T11:08:30Z</time>
      </trkpt>
      <trkpt lat="44.13748" lon="7.23456">
        <ele>2061</ele>
        <time>2023-02-05T11:08:31Z</time>
      </trkpt>
      <trkpt lat="44.13748" lon="7.23457">
        <ele>2061</ele>
        <time>2023-02-05T11:08:32Z</time>
      </trkpt>
      <trkpt lat="44.13748" lon="7.23458">
        <ele>2060.9</ele>
        <time>2023-02-05T11:08:33Z</time>
      </trkpt>
      <trkpt lat="44.13749" lon="7.23458">
        <ele>2060.9</ele>
        <time>2023-02-05T11:08:34Z</time>
      </trkpt>
      <trkpt lat="44.13749" lon="7.23458">
        <ele>2061</ele>
        <time>2023-02-05T11:08:35Z</time>
      </trkpt>
      <trkpt lat="44.13749" lon="7.23458">
        <ele>2061</ele>
        <time>2023-02-05T11:08:36Z</time>
      </trkpt>
      <trkpt lat="44.1375" lon="7.23458">
        <ele>2061.1</ele>
        <time>2023-02-05T11:08:37Z</time>
      </trkpt>
      <trkpt lat="44.1375" lon="7.23458">
        <ele>2061.1</ele>
        <time>2023-02-05T11:08:38Z</time>
      </trkpt>
      <trkpt lat="44.13751" lon="7.23459">
        <ele>2061.1</ele>
        <time>2023-02-05T11:08:39Z</time>
      </trkpt>
      <trkpt lat="44.13751" lon="7.23459">
        <ele>2061.2</ele>
        <time>2023-02-05T11:08:40Z</time>
      </trkpt>
      <trkpt lat="44.13752" lon="7.2346">
        <ele>2061.2</ele>
        <time>2023-02-05T11:08:41Z</time>
      </trkpt>
      <trkpt lat="44.13752" lon="7.23461">
        <ele>2061.3</ele>
        <time>2023-02-05T11:08:42Z</time>
      </trkpt>
      <trkpt lat="44.13752" lon="7.23462">
        <ele>2061.3</ele>
        <time>2023-02-05T11:08:43Z</time>
      </trkpt>
      <trkpt lat="44.13753" lon="7.23463">
        <ele>2061.4</ele>
        <time>2023-02-05T11:08:44Z</time>
      </trkpt>
      <trkpt lat="44.13753" lon="7.23464">
        <ele>2061.5</ele>
        <time>2023-02-05T11:08:45Z</time>
      </trkpt>
      <trkpt lat="44.13753" lon="7.23465">
        <ele>2061.7</ele>
        <time>2023-02-05T11:08:46Z</time>
      </trkpt>
      <trkpt lat="44.13754" lon="7.23466">
        <ele>2061.8</ele>
        <time>2023-02-05T11:08:47Z</time>
      </trkpt>
      <trkpt lat="44.13754" lon="7.23467">
        <ele>2061.9</ele>
        <time>2023-02-05T11:08:48Z</time>
      </trkpt>
      <trkpt lat="44.13754" lon="7.23468">
        <ele>2062</ele>
        <time>2023-02-05T11:08:49Z</time>
      </trkpt>
      <trkpt lat="44.13754" lon="7.23469">
        <ele>2062</ele>
        <time>2023-02-05T11:08:50Z</time>
      </trkpt>
      <trkpt lat="44.13754" lon="7.2347">
        <ele>2062</ele>
        <time>2023-02-05T11:08:51Z</time>
      </trkpt>
      <trkpt lat="44.13754" lon="7.2347">
        <ele>2062.1</ele>
        <time>2023-02-05T11:08:52Z</time>
      </trkpt>
      <trkpt lat="44.13755" lon="7.23471">
        <ele>2062.3</ele>
        <time>2023-02-05T11:08:53Z</time>
      </trkpt>
      <trkpt lat="44.13755" lon="7.23472">
        <ele>2062.4</ele>
        <time>2023-02-05T11:08:54Z</time>
      </trkpt>
      <trkpt lat="44.13755" lon="7.23473">
        <ele>2062.6</ele>
        <time>2023-02-05T11:08:55Z</time>
      </trkpt>
      <trkpt lat="44.13755" lon="7.23474">
        <ele>2062.6</ele>
        <time>2023-02-05T11:08:56Z</time>
      </trkpt>
      <trkpt lat="44.13755" lon="7.23474">
        <ele>2062.7</ele>
        <time>2023-02-05T11:08:57Z</time>
      </trkpt>
      <trkpt lat="44.13756" lon="7.23476">
        <ele>2062.7</ele>
        <time>2023-02-05T11:08:58Z</time>
      </trkpt>
      <trkpt lat="44.13756" lon="7.23476">
        <ele>2062.8</ele>
        <time>2023-02-05T11:08:59Z</time>
      </trkpt>
      <trkpt lat="44.13755" lon="7.23477">
        <ele>2062.9</ele>
        <time>2023-02-05T11:09:00Z</time>
      </trkpt>
      <trkpt lat="44.13756" lon="7.23478">
        <ele>2063</ele>
        <time>2023-02-05T11:09:01Z</time>
      </trkpt>
      <trkpt lat="44.13756" lon="7.23478">
        <ele>2063.1</ele>
        <time>2023-02-05T11:09:02Z</time>
      </trkpt>
      <trkpt lat="44.13756" lon="7.23479">
        <ele>2063.2</ele>
        <time>2023-02-05T11:09:03Z</time>
      </trkpt>
      <trkpt lat="44.13756" lon="7.2348">
        <ele>2063.4</ele>
        <time>2023-02-05T11:09:04Z</time>
      </trkpt>
      <trkpt lat="44.13756" lon="7.23481">
        <ele>2063.5</ele>
        <time>2023-02-05T11:09:05Z</time>
      </trkpt>
      <trkpt lat="44.13755" lon="7.23482">
        <ele>2063.6</ele>
        <time>2023-02-05T11:09:06Z</time>
      </trkpt>
      <trkpt lat="44.13755" lon="7.23482">
        <ele>2063.7</ele>
        <time>2023-02-05T11:09:07Z</time>
      </trkpt>
      <trkpt lat="44.13755" lon="7.23483">
        <ele>2063.7</ele>
        <time>2023-02-05T11:09:08Z</time>
      </trkpt>
      <trkpt lat="44.13755" lon="7.23485">
        <ele>2063.8</ele>
        <time>2023-02-05T11:09:09Z</time>
      </trkpt>
      <trkpt lat="44.13755" lon="7.23485">
        <ele>2063.7</ele>
        <time>2023-02-05T11:09:10Z</time>
      </trkpt>
      <trkpt lat="44.13755" lon="7.23487">
        <ele>2063.7</ele>
        <time>2023-02-05T11:09:11Z</time>
      </trkpt>
      <trkpt lat="44.13755" lon="7.23488">
        <ele>2063.6</ele>
        <time>2023-02-05T11:09:12Z</time>
      </trkpt>
      <trkpt lat="44.13755" lon="7.23489">
        <ele>2063.8</ele>
        <time>2023-02-05T11:09:13Z</time>
      </trkpt>
      <trkpt lat="44.13754" lon="7.2349">
        <ele>2063.9</ele>
        <time>2023-02-05T11:09:14Z</time>
      </trkpt>
      <trkpt lat="44.13754" lon="7.23491">
        <ele>2064</ele>
        <time>2023-02-05T11:09:15Z</time>
      </trkpt>
      <trkpt lat="44.13754" lon="7.23492">
        <ele>2064.1</ele>
        <time>2023-02-05T11:09:16Z</time>
      </trkpt>
      <trkpt lat="44.13754" lon="7.23494">
        <ele>2064.2</ele>
        <time>2023-02-05T11:09:17Z</time>
      </trkpt>
      <trkpt lat="44.13754" lon="7.23495">
        <ele>2064.3</ele>
        <time>2023-02-05T11:09:18Z</time>
      </trkpt>
      <trkpt lat="44.13754" lon="7.23496">
        <ele>2064.4</ele>
        <time>2023-02-05T11:09:19Z</time>
      </trkpt>
      <trkpt lat="44.13755" lon="7.23497">
        <ele>2064.4</ele>
        <time>2023-02-05T11:09:20Z</time>
      </trkpt>
      <trkpt lat="44.13755" lon="7.23498">
        <ele>2064.6</ele>
        <time>2023-02-05T11:09:21Z</time>
      </trkpt>
      <trkpt lat="44.13754" lon="7.23499">
        <ele>2064.5</ele>
        <time>2023-02-05T11:09:22Z</time>
      </trkpt>
      <trkpt lat="44.13754" lon="7.235">
        <ele>2064.7</ele>
        <time>2023-02-05T11:09:23Z</time>
      </trkpt>
      <trkpt lat="44.13754" lon="7.23501">
        <ele>2064.8</ele>
        <time>2023-02-05T11:09:24Z</time>
      </trkpt>
      <trkpt lat="44.13754" lon="7.23502">
        <ele>2064.8</ele>
        <time>2023-02-05T11:09:25Z</time>
      </trkpt>
      <trkpt lat="44.13754" lon="7.23503">
        <ele>2064.9</ele>
        <time>2023-02-05T11:09:26Z</time>
      </trkpt>
      <trkpt lat="44.13754" lon="7.23504">
        <ele>2064.9</ele>
        <time>2023-02-05T11:09:27Z</time>
      </trkpt>
      <trkpt lat="44.13753" lon="7.23505">
        <ele>2065</ele>
        <time>2023-02-05T11:09:28Z</time>
      </trkpt>
      <trkpt lat="44.13754" lon="7.23506">
        <ele>2065</ele>
        <time>2023-02-05T11:09:29Z</time>
      </trkpt>
      <trkpt lat="44.13754" lon="7.23507">
        <ele>2065.2</ele>
        <time>2023-02-05T11:09:30Z</time>
      </trkpt>
      <trkpt lat="44.13754" lon="7.23509">
        <ele>2065.3</ele>
        <time>2023-02-05T11:09:31Z</time>
      </trkpt>
      <trkpt lat="44.13753" lon="7.2351">
        <ele>2065.4</ele>
        <time>2023-02-05T11:09:32Z</time>
      </trkpt>
      <trkpt lat="44.13753" lon="7.23511">
        <ele>2065.5</ele>
        <time>2023-02-05T11:09:33Z</time>
      </trkpt>
      <trkpt lat="44.13754" lon="7.23512">
        <ele>2065.5</ele>
        <time>2023-02-05T11:09:34Z</time>
      </trkpt>
      <trkpt lat="44.13754" lon="7.23514">
        <ele>2065.7</ele>
        <time>2023-02-05T11:09:35Z</time>
      </trkpt>
      <trkpt lat="44.13754" lon="7.23515">
        <ele>2066</ele>
        <time>2023-02-05T11:09:36Z</time>
      </trkpt>
      <trkpt lat="44.13754" lon="7.23516">
        <ele>2066.1</ele>
        <time>2023-02-05T11:09:37Z</time>
      </trkpt>
      <trkpt lat="44.13753" lon="7.23517">
        <ele>2066.3</ele>
        <time>2023-02-05T11:09:38Z</time>
      </trkpt>
      <trkpt lat="44.13753" lon="7.23518">
        <ele>2066.4</ele>
        <time>2023-02-05T11:09:39Z</time>
      </trkpt>
      <trkpt lat="44.13753" lon="7.23519">
        <ele>2066.5</ele>
        <time>2023-02-05T11:09:40Z</time>
      </trkpt>
      <trkpt lat="44.13753" lon="7.23521">
        <ele>2066.6</ele>
        <time>2023-02-05T11:09:41Z</time>
      </trkpt>
      <trkpt lat="44.13753" lon="7.23521">
        <ele>2066.7</ele>
        <time>2023-02-05T11:09:42Z</time>
      </trkpt>
      <trkpt lat="44.13753" lon="7.23522">
        <ele>2066.8</ele>
        <time>2023-02-05T11:09:43Z</time>
      </trkpt>
      <trkpt lat="44.13753" lon="7.23524">
        <ele>2066.8</ele>
        <time>2023-02-05T11:09:44Z</time>
      </trkpt>
      <trkpt lat="44.13753" lon="7.23526">
        <ele>2066.9</ele>
        <time>2023-02-05T11:09:45Z</time>
      </trkpt>
      <trkpt lat="44.13752" lon="7.23527">
        <ele>2066.9</ele>
        <time>2023-02-05T11:09:46Z</time>
      </trkpt>
      <trkpt lat="44.13753" lon="7.23528">
        <ele>2067</ele>
        <time>2023-02-05T11:09:47Z</time>
      </trkpt>
      <trkpt lat="44.13753" lon="7.23529">
        <ele>2067</ele>
        <time>2023-02-05T11:09:48Z</time>
      </trkpt>
      <trkpt lat="44.13753" lon="7.23531">
        <ele>2067.2</ele>
        <time>2023-02-05T11:09:49Z</time>
      </trkpt>
      <trkpt lat="44.13752" lon="7.23532">
        <ele>2067.3</ele>
        <time>2023-02-05T11:09:50Z</time>
      </trkpt>
      <trkpt lat="44.13753" lon="7.23533">
        <ele>2067.3</ele>
        <time>2023-02-05T11:09:51Z</time>
      </trkpt>
      <trkpt lat="44.13752" lon="7.23534">
        <ele>2067.4</ele>
        <time>2023-02-05T11:09:52Z</time>
      </trkpt>
      <trkpt lat="44.13752" lon="7.23535">
        <ele>2067.5</ele>
        <time>2023-02-05T11:09:53Z</time>
      </trkpt>
      <trkpt lat="44.13752" lon="7.23536">
        <ele>2067.7</ele>
        <time>2023-02-05T11:09:54Z</time>
      </trkpt>
      <trkpt lat="44.13752" lon="7.23537">
        <ele>2067.7</ele>
        <time>2023-02-05T11:09:55Z</time>
      </trkpt>
      <trkpt lat="44.13753" lon="7.23538">
        <ele>2067.8</ele>
        <time>2023-02-05T11:09:56Z</time>
      </trkpt>
      <trkpt lat="44.13753" lon="7.23539">
        <ele>2067.8</ele>
        <time>2023-02-05T11:09:57Z</time>
      </trkpt>
      <trkpt lat="44.13753" lon="7.2354">
        <ele>2067.9</ele>
        <time>2023-02-05T11:09:58Z</time>
      </trkpt>
      <trkpt lat="44.13753" lon="7.23541">
        <ele>2067.9</ele>
        <time>2023-02-05T11:09:59Z</time>
      </trkpt>
      <trkpt lat="44.13754" lon="7.23542">
        <ele>2068</ele>
        <time>2023-02-05T11:10:00Z</time>
      </trkpt>
      <trkpt lat="44.13754" lon="7.23543">
        <ele>2068.1</ele>
        <time>2023-02-05T11:10:01Z</time>
      </trkpt>
      <trkpt lat="44.13754" lon="7.23543">
        <ele>2068.1</ele>
        <time>2023-02-05T11:10:02Z</time>
      </trkpt>
      <trkpt lat="44.13754" lon="7.23544">
        <ele>2068.2</ele>
        <time>2023-02-05T11:10:03Z</time>
      </trkpt>
      <trkpt lat="44.13755" lon="7.23545">
        <ele>2068.2</ele>
        <time>2023-02-05T11:10:04Z</time>
      </trkpt>
      <trkpt lat="44.13755" lon="7.23546">
        <ele>2068.2</ele>
        <time>2023-02-05T11:10:05Z</time>
      </trkpt>
      <trkpt lat="44.13755" lon="7.23546">
        <ele>2068.2</ele>
        <time>2023-02-05T11:10:06Z</time>
      </trkpt>
      <trkpt lat="44.13755" lon="7.23547">
        <ele>2068.3</ele>
        <time>2023-02-05T11:10:07Z</time>
      </trkpt>
      <trkpt lat="44.13755" lon="7.23547">
        <ele>2068.3</ele>
        <time>2023-02-05T11:10:08Z</time>
      </trkpt>
      <trkpt lat="44.13755" lon="7.23547">
        <ele>2068.4</ele>
        <time>2023-02-05T11:10:09Z</time>
      </trkpt>
      <trkpt lat="44.13755" lon="7.23547">
        <ele>2068.4</ele>
        <time>2023-02-05T11:10:10Z</time>
      </trkpt>
      <trkpt lat="44.13755" lon="7.23548">
        <ele>2068.4</ele>
        <time>2023-02-05T11:10:11Z</time>
      </trkpt>
      <trkpt lat="44.13756" lon="7.23549">
        <ele>2068.4</ele>
        <time>2023-02-05T11:10:12Z</time>
      </trkpt>
      <trkpt lat="44.13756" lon="7.23549">
        <ele>2068.6</ele>
        <time>2023-02-05T11:10:13Z</time>
      </trkpt>
      <trkpt lat="44.13756" lon="7.2355">
        <ele>2068.7</ele>
        <time>2023-02-05T11:10:14Z</time>
      </trkpt>
      <trkpt lat="44.13757" lon="7.2355">
        <ele>2068.7</ele>
        <time>2023-02-05T11:10:15Z</time>
      </trkpt>
      <trkpt lat="44.13757" lon="7.23551">
        <ele>2068.8</ele>
        <time>2023-02-05T11:10:16Z</time>
      </trkpt>
      <trkpt lat="44.13757" lon="7.23552">
        <ele>2068.8</ele>
        <time>2023-02-05T11:10:17Z</time>
      </trkpt>
      <trkpt lat="44.13758" lon="7.23552">
        <ele>2068.9</ele>
        <time>2023-02-05T11:10:18Z</time>
      </trkpt>
      <trkpt lat="44.13758" lon="7.23553">
        <ele>2068.9</ele>
        <time>2023-02-05T11:10:19Z</time>
      </trkpt>
      <trkpt lat="44.13758" lon="7.23553">
        <ele>2068.9</ele>
        <time>2023-02-05T11:10:20Z</time>
      </trkpt>
      <trkpt lat="44.13758" lon="7.23554">
        <ele>2069</ele>
        <time>2023-02-05T11:10:21Z</time>
      </trkpt>
      <trkpt lat="44.13759" lon="7.23554">
        <ele>2069.2</ele>
        <time>2023-02-05T11:10:22Z</time>
      </trkpt>
      <trkpt lat="44.13759" lon="7.23555">
        <ele>2069.2</ele>
        <time>2023-02-05T11:10:23Z</time>
      </trkpt>
      <trkpt lat="44.13759" lon="7.23555">
        <ele>2069.2</ele>
        <time>2023-02-05T11:10:24Z</time>
      </trkpt>
      <trkpt lat="44.13759" lon="7.23556">
        <ele>2069.3</ele>
        <time>2023-02-05T11:10:25Z</time>
      </trkpt>
      <trkpt lat="44.1376" lon="7.23556">
        <ele>2069.3</ele>
        <time>2023-02-05T11:10:26Z</time>
      </trkpt>
      <trkpt lat="44.1376" lon="7.23557">
        <ele>2069.4</ele>
        <time>2023-02-05T11:10:27Z</time>
      </trkpt>
      <trkpt lat="44.1376" lon="7.23557">
        <ele>2069.4</ele>
        <time>2023-02-05T11:10:28Z</time>
      </trkpt>
      <trkpt lat="44.13761" lon="7.23558">
        <ele>2069.4</ele>
        <time>2023-02-05T11:10:29Z</time>
      </trkpt>
      <trkpt lat="44.13761" lon="7.23558">
        <ele>2069.4</ele>
        <time>2023-02-05T11:10:30Z</time>
      </trkpt>
      <trkpt lat="44.13761" lon="7.23558">
        <ele>2069.3</ele>
        <time>2023-02-05T11:10:31Z</time>
      </trkpt>
      <trkpt lat="44.13762" lon="7.23558">
        <ele>2069.4</ele>
        <time>2023-02-05T11:10:32Z</time>
      </trkpt>
      <trkpt lat="44.13762" lon="7.23558">
        <ele>2069.4</ele>
        <time>2023-02-05T11:10:33Z</time>
      </trkpt>
      <trkpt lat="44.13762" lon="7.23558">
        <ele>2069.5</ele>
        <time>2023-02-05T11:10:34Z</time>
      </trkpt>
      <trkpt lat="44.13762" lon="7.23559">
        <ele>2069.5</ele>
        <time>2023-02-05T11:10:35Z</time>
      </trkpt>
      <trkpt lat="44.13761" lon="7.23559">
        <ele>2069.5</ele>
        <time>2023-02-05T11:10:36Z</time>
      </trkpt>
      <trkpt lat="44.13761" lon="7.2356">
        <ele>2069.5</ele>
        <time>2023-02-05T11:10:37Z</time>
      </trkpt>
      <trkpt lat="44.13761" lon="7.2356">
        <ele>2069.5</ele>
        <time>2023-02-05T11:10:38Z</time>
      </trkpt>
      <trkpt lat="44.13762" lon="7.2356">
        <ele>2069.5</ele>
        <time>2023-02-05T11:10:39Z</time>
      </trkpt>
      <trkpt lat="44.13762" lon="7.2356">
        <ele>2069.5</ele>
        <time>2023-02-05T11:10:40Z</time>
      </trkpt>
      <trkpt lat="44.13762" lon="7.2356">
        <ele>2069.5</ele>
        <time>2023-02-05T11:10:41Z</time>
      </trkpt>
      <trkpt lat="44.13762" lon="7.2356">
        <ele>2069.4</ele>
        <time>2023-02-05T11:10:42Z</time>
      </trkpt>
      <trkpt lat="44.13762" lon="7.23561">
        <ele>2069.4</ele>
        <time>2023-02-05T11:10:43Z</time>
      </trkpt>
      <trkpt lat="44.13762" lon="7.23561">
        <ele>2069.4</ele>
        <time>2023-02-05T11:10:44Z</time>
      </trkpt>
      <trkpt lat="44.13762" lon="7.23561">
        <ele>2069.5</ele>
        <time>2023-02-05T11:10:45Z</time>
      </trkpt>
      <trkpt lat="44.13762" lon="7.23562">
        <ele>2069.5</ele>
        <time>2023-02-05T11:10:46Z</time>
      </trkpt>
      <trkpt lat="44.13762" lon="7.23562">
        <ele>2069.5</ele>
        <time>2023-02-05T11:10:47Z</time>
      </trkpt>
      <trkpt lat="44.13763" lon="7.23562">
        <ele>2069.5</ele>
        <time>2023-02-05T11:10:48Z</time>
      </trkpt>
      <trkpt lat="44.13763" lon="7.23562">
        <ele>2069.6</ele>
        <time>2023-02-05T11:10:49Z</time>
      </trkpt>
      <trkpt lat="44.13764" lon="7.23562">
        <ele>2069.6</ele>
        <time>2023-02-05T11:10:50Z</time>
      </trkpt>
      <trkpt lat="44.13764" lon="7.23562">
        <ele>2069.6</ele>
        <time>2023-02-05T11:10:51Z</time>
      </trkpt>
      <trkpt lat="44.13765" lon="7.23562">
        <ele>2069.7</ele>
        <time>2023-02-05T11:10:52Z</time>
      </trkpt>
      <trkpt lat="44.13765" lon="7.23562">
        <ele>2069.7</ele>
        <time>2023-02-05T11:10:53Z</time>
      </trkpt>
      <trkpt lat="44.13765" lon="7.23562">
        <ele>2069.6</ele>
        <time>2023-02-05T11:10:54Z</time>
      </trkpt>
      <trkpt lat="44.13765" lon="7.23562">
        <ele>2069.6</ele>
        <time>2023-02-05T11:10:55Z</time>
      </trkpt>
      <trkpt lat="44.13765" lon="7.23562">
        <ele>2069.7</ele>
        <time>2023-02-05T11:10:56Z</time>
      </trkpt>
      <trkpt lat="44.13765" lon="7.23562">
        <ele>2069.8</ele>
        <time>2023-02-05T11:10:57Z</time>
      </trkpt>
      <trkpt lat="44.13765" lon="7.23562">
        <ele>2069.9</ele>
        <time>2023-02-05T11:10:58Z</time>
      </trkpt>
      <trkpt lat="44.13765" lon="7.23562">
        <ele>2069.8</ele>
        <time>2023-02-05T11:10:59Z</time>
      </trkpt>
      <trkpt lat="44.13765" lon="7.23563">
        <ele>2069.8</ele>
        <time>2023-02-05T11:11:00Z</time>
      </trkpt>
      <trkpt lat="44.13765" lon="7.23563">
        <ele>2069.8</ele>
        <time>2023-02-05T11:11:01Z</time>
      </trkpt>
      <trkpt lat="44.13765" lon="7.23563">
        <ele>2069.8</ele>
        <time>2023-02-05T11:11:02Z</time>
      </trkpt>
      <trkpt lat="44.13766" lon="7.23563">
        <ele>2069.8</ele>
        <time>2023-02-05T11:11:03Z</time>
      </trkpt>
      <trkpt lat="44.13765" lon="7.23564">
        <ele>2069.8</ele>
        <time>2023-02-05T11:11:04Z</time>
      </trkpt>
      <trkpt lat="44.13765" lon="7.23564">
        <ele>2069.8</ele>
        <time>2023-02-05T11:11:05Z</time>
      </trkpt>
      <trkpt lat="44.13765" lon="7.23564">
        <ele>2069.8</ele>
        <time>2023-02-05T11:11:06Z</time>
      </trkpt>
      <trkpt lat="44.13765" lon="7.23564">
        <ele>2069.8</ele>
        <time>2023-02-05T11:11:07Z</time>
      </trkpt>
      <trkpt lat="44.13765" lon="7.23564">
        <ele>2069.7</ele>
        <time>2023-02-05T11:11:08Z</time>
      </trkpt>
      <trkpt lat="44.13765" lon="7.23564">
        <ele>2069.7</ele>
        <time>2023-02-05T11:11:09Z</time>
      </trkpt>
      <trkpt lat="44.13765" lon="7.23564">
        <ele>2069.7</ele>
        <time>2023-02-05T11:11:10Z</time>
      </trkpt>
      <trkpt lat="44.13765" lon="7.23564">
        <ele>2069.6</ele>
        <time>2023-02-05T11:11:11Z</time>
      </trkpt>
      <trkpt lat="44.13765" lon="7.23564">
        <ele>2069.7</ele>
        <time>2023-02-05T11:11:12Z</time>
      </trkpt>
      <trkpt lat="44.13765" lon="7.23565">
        <ele>2069.7</ele>
        <time>2023-02-05T11:11:13Z</time>
      </trkpt>
      <trkpt lat="44.13765" lon="7.23564">
        <ele>2069.7</ele>
        <time>2023-02-05T11:11:14Z</time>
      </trkpt>
      <trkpt lat="44.13766" lon="7.23565">
        <ele>2069.7</ele>
        <time>2023-02-05T11:11:15Z</time>
      </trkpt>
      <trkpt lat="44.13766" lon="7.23565">
        <ele>2069.7</ele>
        <time>2023-02-05T11:11:16Z</time>
      </trkpt>
      <trkpt lat="44.13766" lon="7.23565">
        <ele>2069.8</ele>
        <time>2023-02-05T11:11:17Z</time>
      </trkpt>
      <trkpt lat="44.13766" lon="7.23564">
        <ele>2069.8</ele>
        <time>2023-02-05T11:11:18Z</time>
      </trkpt>
      <trkpt lat="44.13766" lon="7.23564">
        <ele>2069.9</ele>
        <time>2023-02-05T11:11:19Z</time>
      </trkpt>
      <trkpt lat="44.13766" lon="7.23564">
        <ele>2069.8</ele>
        <time>2023-02-05T11:11:20Z</time>
      </trkpt>
      <trkpt lat="44.13766" lon="7.23564">
        <ele>2069.8</ele>
        <time>2023-02-05T11:11:21Z</time>
      </trkpt>
      <trkpt lat="44.13766" lon="7.23564">
        <ele>2069.7</ele>
        <time>2023-02-05T11:11:22Z</time>
      </trkpt>
      <trkpt lat="44.13766" lon="7.23564">
        <ele>2069.6</ele>
        <time>2023-02-05T11:11:23Z</time>
      </trkpt>
      <trkpt lat="44.13766" lon="7.23564">
        <ele>2069.6</ele>
        <time>2023-02-05T11:11:24Z</time>
      </trkpt>
      <trkpt lat="44.13765" lon="7.23565">
        <ele>2069.6</ele>
        <time>2023-02-05T11:11:25Z</time>
      </trkpt>
      <trkpt lat="44.13765" lon="7.23565">
        <ele>2069.6</ele>
        <time>2023-02-05T11:11:26Z</time>
      </trkpt>
      <trkpt lat="44.13765" lon="7.23565">
        <ele>2069.6</ele>
        <time>2023-02-05T11:11:27Z</time>
      </trkpt>
      <trkpt lat="44.13765" lon="7.23565">
        <ele>2069.7</ele>
        <time>2023-02-05T11:11:28Z</time>
      </trkpt>
      <trkpt lat="44.13765" lon="7.23565">
        <ele>2069.7</ele>
        <time>2023-02-05T11:11:29Z</time>
      </trkpt>
      <trkpt lat="44.13765" lon="7.23565">
        <ele>2069.7</ele>
        <time>2023-02-05T11:11:30Z</time>
      </trkpt>
      <trkpt lat="44.13765" lon="7.23565">
        <ele>2069.8</ele>
        <time>2023-02-05T11:11:31Z</time>
      </trkpt>
      <trkpt lat="44.13765" lon="7.23565">
        <ele>2069.9</ele>
        <time>2023-02-05T11:11:32Z</time>
      </trkpt>
      <trkpt lat="44.13765" lon="7.23565">
        <ele>2069.9</ele>
        <time>2023-02-05T11:11:33Z</time>
      </trkpt>
      <trkpt lat="44.13765" lon="7.23565">
        <ele>2069.8</ele>
        <time>2023-02-05T11:11:34Z</time>
      </trkpt>
      <trkpt lat="44.13764" lon="7.23566">
        <ele>2069.8</ele>
        <time>2023-02-05T11:11:35Z</time>
      </trkpt>
      <trkpt lat="44.13764" lon="7.23566">
        <ele>2069.8</ele>
        <time>2023-02-05T11:11:36Z</time>
      </trkpt>
      <trkpt lat="44.13764" lon="7.23566">
        <ele>2069.8</ele>
        <time>2023-02-05T11:11:37Z</time>
      </trkpt>
      <trkpt lat="44.13764" lon="7.23566">
        <ele>2069.7</ele>
        <time>2023-02-05T11:11:38Z</time>
      </trkpt>
      <trkpt lat="44.13764" lon="7.23566">
        <ele>2069.7</ele>
        <time>2023-02-05T11:11:39Z</time>
      </trkpt>
      <trkpt lat="44.13764" lon="7.23566">
        <ele>2069.8</ele>
        <time>2023-02-05T11:11:40Z</time>
      </trkpt>
      <trkpt lat="44.13764" lon="7.23566">
        <ele>2069.8</ele>
        <time>2023-02-05T11:11:41Z</time>
      </trkpt>
      <trkpt lat="44.13764" lon="7.23566">
        <ele>2069.8</ele>
        <time>2023-02-05T11:11:42Z</time>
      </trkpt>
      <trkpt lat="44.13763" lon="7.23567">
        <ele>2069.9</ele>
        <time>2023-02-05T11:11:43Z</time>
      </trkpt>
      <trkpt lat="44.13763" lon="7.23567">
        <ele>2069.9</ele>
        <time>2023-02-05T11:11:44Z</time>
      </trkpt>
      <trkpt lat="44.13763" lon="7.23567">
        <ele>2069.9</ele>
        <time>2023-02-05T11:11:45Z</time>
      </trkpt>
      <trkpt lat="44.13763" lon="7.23567">
        <ele>2069.9</ele>
        <time>2023-02-05T11:11:46Z</time>
      </trkpt>
      <trkpt lat="44.13763" lon="7.23567">
        <ele>2069.8</ele>
        <time>2023-02-05T11:11:47Z</time>
      </trkpt>
      <trkpt lat="44.13763" lon="7.23567">
        <ele>2069.8</ele>
        <time>2023-02-05T11:11:48Z</time>
      </trkpt>
      <trkpt lat="44.13763" lon="7.23567">
        <ele>2069.8</ele>
        <time>2023-02-05T11:11:49Z</time>
      </trkpt>
      <trkpt lat="44.13763" lon="7.23567">
        <ele>2069.8</ele>
        <time>2023-02-05T11:11:50Z</time>
      </trkpt>
      <trkpt lat="44.13763" lon="7.23567">
        <ele>2069.9</ele>
        <time>2023-02-05T11:11:51Z</time>
      </trkpt>
      <trkpt lat="44.13763" lon="7.23567">
        <ele>2069.9</ele>
        <time>2023-02-05T11:11:52Z</time>
      </trkpt>
      <trkpt lat="44.13763" lon="7.23567">
        <ele>2069.9</ele>
        <time>2023-02-05T11:11:53Z</time>
      </trkpt>
      <trkpt lat="44.13763" lon="7.23567">
        <ele>2069.9</ele>
        <time>2023-02-05T11:11:54Z</time>
      </trkpt>
      <trkpt lat="44.13763" lon="7.23567">
        <ele>2069.9</ele>
        <time>2023-02-05T11:11:55Z</time>
      </trkpt>
      <trkpt lat="44.13763" lon="7.23568">
        <ele>2070</ele>
        <time>2023-02-05T11:11:56Z</time>
      </trkpt>
      <trkpt lat="44.13763" lon="7.23568">
        <ele>2070.1</ele>
        <time>2023-02-05T11:11:57Z</time>
      </trkpt>
      <trkpt lat="44.13763" lon="7.23568">
        <ele>2070</ele>
        <time>2023-02-05T11:11:58Z</time>
      </trkpt>
      <trkpt lat="44.13763" lon="7.23568">
        <ele>2070.1</ele>
        <time>2023-02-05T11:11:59Z</time>
      </trkpt>
      <trkpt lat="44.13763" lon="7.23568">
        <ele>2070.2</ele>
        <time>2023-02-05T11:12:00Z</time>
      </trkpt>
      <trkpt lat="44.13763" lon="7.23568">
        <ele>2070.2</ele>
        <time>2023-02-05T11:12:01Z</time>
      </trkpt>
      <trkpt lat="44.13763" lon="7.23568">
        <ele>2070.3</ele>
        <time>2023-02-05T11:12:02Z</time>
      </trkpt>
      <trkpt lat="44.13763" lon="7.23568">
        <ele>2070.3</ele>
        <time>2023-02-05T11:12:03Z</time>
      </trkpt>
      <trkpt lat="44.13763" lon="7.23568">
        <ele>2070.2</ele>
        <time>2023-02-05T11:12:04Z</time>
      </trkpt>
      <trkpt lat="44.13763" lon="7.23568">
        <ele>2070.1</ele>
        <time>2023-02-05T11:12:05Z</time>
      </trkpt>
      <trkpt lat="44.13763" lon="7.23567">
        <ele>2070</ele>
        <time>2023-02-05T11:12:06Z</time>
      </trkpt>
      <trkpt lat="44.13763" lon="7.23568">
        <ele>2069.9</ele>
        <time>2023-02-05T11:12:07Z</time>
      </trkpt>
      <trkpt lat="44.13762" lon="7.23568">
        <ele>2069.9</ele>
        <time>2023-02-05T11:12:08Z</time>
      </trkpt>
      <trkpt lat="44.13762" lon="7.23568">
        <ele>2069.9</ele>
        <time>2023-02-05T11:12:09Z</time>
      </trkpt>
      <trkpt lat="44.13762" lon="7.23568">
        <ele>2069.9</ele>
        <time>2023-02-05T11:12:10Z</time>
      </trkpt>
      <trkpt lat="44.13762" lon="7.23568">
        <ele>2069.9</ele>
        <time>2023-02-05T11:12:11Z</time>
      </trkpt>
      <trkpt lat="44.13762" lon="7.23568">
        <ele>2070</ele>
        <time>2023-02-05T11:12:12Z</time>
      </trkpt>
      <trkpt lat="44.13762" lon="7.23568">
        <ele>2070</ele>
        <time>2023-02-05T11:12:13Z</time>
      </trkpt>
      <trkpt lat="44.13762" lon="7.23568">
        <ele>2070</ele>
        <time>2023-02-05T11:12:14Z</time>
      </trkpt>
      <trkpt lat="44.13762" lon="7.23568">
        <ele>2070.1</ele>
        <time>2023-02-05T11:12:15Z</time>
      </trkpt>
      <trkpt lat="44.13762" lon="7.23568">
        <ele>2070.1</ele>
        <time>2023-02-05T11:12:16Z</time>
      </trkpt>
      <trkpt lat="44.13761" lon="7.23568">
        <ele>2070.1</ele>
        <time>2023-02-05T11:12:17Z</time>
      </trkpt>
      <trkpt lat="44.13761" lon="7.23568">
        <ele>2070.1</ele>
        <time>2023-02-05T11:12:18Z</time>
      </trkpt>
      <trkpt lat="44.13761" lon="7.23568">
        <ele>2070.1</ele>
        <time>2023-02-05T11:12:19Z</time>
      </trkpt>
      <trkpt lat="44.13761" lon="7.23568">
        <ele>2070.1</ele>
        <time>2023-02-05T11:12:20Z</time>
      </trkpt>
      <trkpt lat="44.13761" lon="7.23569">
        <ele>2070.1</ele>
        <time>2023-02-05T11:12:21Z</time>
      </trkpt>
      <trkpt lat="44.13761" lon="7.23569">
        <ele>2070.1</ele>
        <time>2023-02-05T11:12:22Z</time>
      </trkpt>
      <trkpt lat="44.13762" lon="7.23569">
        <ele>2070.1</ele>
        <time>2023-02-05T11:12:23Z</time>
      </trkpt>
      <trkpt lat="44.13762" lon="7.2357">
        <ele>2070</ele>
        <time>2023-02-05T11:12:24Z</time>
      </trkpt>
      <trkpt lat="44.13762" lon="7.2357">
        <ele>2070</ele>
        <time>2023-02-05T11:12:25Z</time>
      </trkpt>
      <trkpt lat="44.13762" lon="7.2357">
        <ele>2069.9</ele>
        <time>2023-02-05T11:12:26Z</time>
      </trkpt>
      <trkpt lat="44.13763" lon="7.2357">
        <ele>2069.9</ele>
        <time>2023-02-05T11:12:27Z</time>
      </trkpt>
      <trkpt lat="44.13763" lon="7.23571">
        <ele>2070</ele>
        <time>2023-02-05T11:12:28Z</time>
      </trkpt>
      <trkpt lat="44.13763" lon="7.23571">
        <ele>2070.1</ele>
        <time>2023-02-05T11:12:29Z</time>
      </trkpt>
      <trkpt lat="44.13763" lon="7.23571">
        <ele>2070.1</ele>
        <time>2023-02-05T11:12:30Z</time>
      </trkpt>
      <trkpt lat="44.13763" lon="7.23571">
        <ele>2070.1</ele>
        <time>2023-02-05T11:12:31Z</time>
      </trkpt>
      <trkpt lat="44.13762" lon="7.23571">
        <ele>2070</ele>
        <time>2023-02-05T11:12:32Z</time>
      </trkpt>
      <trkpt lat="44.13762" lon="7.23571">
        <ele>2070</ele>
        <time>2023-02-05T11:12:33Z</time>
      </trkpt>
      <trkpt lat="44.13762" lon="7.23571">
        <ele>2070.1</ele>
        <time>2023-02-05T11:12:34Z</time>
      </trkpt>
      <trkpt lat="44.13762" lon="7.23572">
        <ele>2070.1</ele>
        <time>2023-02-05T11:12:35Z</time>
      </trkpt>
      <trkpt lat="44.13762" lon="7.23572">
        <ele>2070.1</ele>
        <time>2023-02-05T11:12:36Z</time>
      </trkpt>
      <trkpt lat="44.13761" lon="7.23572">
        <ele>2070.2</ele>
        <time>2023-02-05T11:12:37Z</time>
      </trkpt>
      <trkpt lat="44.13761" lon="7.23572">
        <ele>2070.1</ele>
        <time>2023-02-05T11:12:38Z</time>
      </trkpt>
      <trkpt lat="44.13761" lon="7.23572">
        <ele>2070.1</ele>
        <time>2023-02-05T11:12:39Z</time>
      </trkpt>
      <trkpt lat="44.13761" lon="7.23573">
        <ele>2070.1</ele>
        <time>2023-02-05T11:12:40Z</time>
      </trkpt>
      <trkpt lat="44.13762" lon="7.23573">
        <ele>2070</ele>
        <time>2023-02-05T11:12:41Z</time>
      </trkpt>
      <trkpt lat="44.13762" lon="7.23572">
        <ele>2070.1</ele>
        <time>2023-02-05T11:12:42Z</time>
      </trkpt>
      <trkpt lat="44.13763" lon="7.23572">
        <ele>2070.1</ele>
        <time>2023-02-05T11:12:43Z</time>
      </trkpt>
      <trkpt lat="44.13763" lon="7.23572">
        <ele>2070.1</ele>
        <time>2023-02-05T11:12:44Z</time>
      </trkpt>
      <trkpt lat="44.13763" lon="7.23572">
        <ele>2069.9</ele>
        <time>2023-02-05T11:12:45Z</time>
      </trkpt>
      <trkpt lat="44.13763" lon="7.23573">
        <ele>2069.9</ele>
        <time>2023-02-05T11:12:46Z</time>
      </trkpt>
      <trkpt lat="44.13764" lon="7.23573">
        <ele>2069.9</ele>
        <time>2023-02-05T11:12:47Z</time>
      </trkpt>
      <trkpt lat="44.13764" lon="7.23573">
        <ele>2069.9</ele>
        <time>2023-02-05T11:12:48Z</time>
      </trkpt>
      <trkpt lat="44.13764" lon="7.23574">
        <ele>2069.9</ele>
        <time>2023-02-05T11:12:49Z</time>
      </trkpt>
      <trkpt lat="44.13765" lon="7.23574">
        <ele>2069.7</ele>
        <time>2023-02-05T11:12:50Z</time>
      </trkpt>
      <trkpt lat="44.13765" lon="7.23574">
        <ele>2069.8</ele>
        <time>2023-02-05T11:12:51Z</time>
      </trkpt>
      <trkpt lat="44.13765" lon="7.23574">
        <ele>2069.8</ele>
        <time>2023-02-05T11:12:52Z</time>
      </trkpt>
      <trkpt lat="44.13765" lon="7.23574">
        <ele>2069.8</ele>
        <time>2023-02-05T11:12:53Z</time>
      </trkpt>
      <trkpt lat="44.13765" lon="7.23574">
        <ele>2069.8</ele>
        <time>2023-02-05T11:12:54Z</time>
      </trkpt>
      <trkpt lat="44.13765" lon="7.23574">
        <ele>2069.9</ele>
        <time>2023-02-05T11:12:55Z</time>
      </trkpt>
      <trkpt lat="44.13765" lon="7.23574">
        <ele>2069.9</ele>
        <time>2023-02-05T11:12:56Z</time>
      </trkpt>
      <trkpt lat="44.13765" lon="7.23573">
        <ele>2070</ele>
        <time>2023-02-05T11:12:57Z</time>
      </trkpt>
      <trkpt lat="44.13766" lon="7.23573">
        <ele>2070</ele>
        <time>2023-02-05T11:12:58Z</time>
      </trkpt>
      <trkpt lat="44.13766" lon="7.23573">
        <ele>2070.1</ele>
        <time>2023-02-05T11:12:59Z</time>
      </trkpt>
      <trkpt lat="44.13766" lon="7.23573">
        <ele>2070.2</ele>
        <time>2023-02-05T11:13:00Z</time>
      </trkpt>
      <trkpt lat="44.13766" lon="7.23573">
        <ele>2070.2</ele>
        <time>2023-02-05T11:13:01Z</time>
      </trkpt>
      <trkpt lat="44.13766" lon="7.23574">
        <ele>2070.2</ele>
        <time>2023-02-05T11:13:02Z</time>
      </trkpt>
      <trkpt lat="44.13767" lon="7.23574">
        <ele>2070.2</ele>
        <time>2023-02-05T11:13:03Z</time>
      </trkpt>
      <trkpt lat="44.13767" lon="7.23574">
        <ele>2070.2</ele>
        <time>2023-02-05T11:13:04Z</time>
      </trkpt>
      <trkpt lat="44.13768" lon="7.23575">
        <ele>2070.2</ele>
        <time>2023-02-05T11:13:05Z</time>
      </trkpt>
      <trkpt lat="44.13768" lon="7.23576">
        <ele>2070.2</ele>
        <time>2023-02-05T11:13:06Z</time>
      </trkpt>
      <trkpt lat="44.13769" lon="7.23576">
        <ele>2070.1</ele>
        <time>2023-02-05T11:13:07Z</time>
      </trkpt>
      <trkpt lat="44.13769" lon="7.23576">
        <ele>2070.1</ele>
        <time>2023-02-05T11:13:08Z</time>
      </trkpt>
      <trkpt lat="44.1377" lon="7.23576">
        <ele>2070.1</ele>
        <time>2023-02-05T11:13:09Z</time>
      </trkpt>
      <trkpt lat="44.13771" lon="7.23576">
        <ele>2070.1</ele>
        <time>2023-02-05T11:13:10Z</time>
      </trkpt>
      <trkpt lat="44.13771" lon="7.23576">
        <ele>2070</ele>
        <time>2023-02-05T11:13:11Z</time>
      </trkpt>
      <trkpt lat="44.13772" lon="7.23576">
        <ele>2070</ele>
        <time>2023-02-05T11:13:12Z</time>
      </trkpt>
      <trkpt lat="44.13772" lon="7.23576">
        <ele>2069.9</ele>
        <time>2023-02-05T11:13:13Z</time>
      </trkpt>
      <trkpt lat="44.13772" lon="7.23576">
        <ele>2069.8</ele>
        <time>2023-02-05T11:13:14Z</time>
      </trkpt>
      <trkpt lat="44.13772" lon="7.23576">
        <ele>2069.8</ele>
        <time>2023-02-05T11:13:15Z</time>
      </trkpt>
      <trkpt lat="44.13772" lon="7.23576">
        <ele>2069.8</ele>
        <time>2023-02-05T11:13:16Z</time>
      </trkpt>
      <trkpt lat="44.13772" lon="7.23576">
        <ele>2069.8</ele>
        <time>2023-02-05T11:13:17Z</time>
      </trkpt>
      <trkpt lat="44.13772" lon="7.23576">
        <ele>2069.8</ele>
        <time>2023-02-05T11:13:18Z</time>
      </trkpt>
      <trkpt lat="44.13772" lon="7.23576">
        <ele>2069.8</ele>
        <time>2023-02-05T11:13:19Z</time>
      </trkpt>
      <trkpt lat="44.13772" lon="7.23576">
        <ele>2069.8</ele>
        <time>2023-02-05T11:13:20Z</time>
      </trkpt>
      <trkpt lat="44.13772" lon="7.23576">
        <ele>2069.8</ele>
        <time>2023-02-05T11:13:21Z</time>
      </trkpt>
      <trkpt lat="44.13773" lon="7.23576">
        <ele>2069.7</ele>
        <time>2023-02-05T11:13:22Z</time>
      </trkpt>
      <trkpt lat="44.13773" lon="7.23577">
        <ele>2069.7</ele>
        <time>2023-02-05T11:13:23Z</time>
      </trkpt>
      <trkpt lat="44.13773" lon="7.23577">
        <ele>2069.7</ele>
        <time>2023-02-05T11:13:24Z</time>
      </trkpt>
      <trkpt lat="44.13774" lon="7.23578">
        <ele>2069.7</ele>
        <time>2023-02-05T11:13:25Z</time>
      </trkpt>
      <trkpt lat="44.13775" lon="7.23578">
        <ele>2069.6</ele>
        <time>2023-02-05T11:13:26Z</time>
      </trkpt>
      <trkpt lat="44.13775" lon="7.23578">
        <ele>2069.6</ele>
        <time>2023-02-05T11:13:27Z</time>
      </trkpt>
      <trkpt lat="44.13775" lon="7.23578">
        <ele>2069.5</ele>
        <time>2023-02-05T11:13:28Z</time>
      </trkpt>
      <trkpt lat="44.13776" lon="7.23577">
        <ele>2069.5</ele>
        <time>2023-02-05T11:13:29Z</time>
      </trkpt>
      <trkpt lat="44.13776" lon="7.23577">
        <ele>2069.6</ele>
        <time>2023-02-05T11:13:30Z</time>
      </trkpt>
      <trkpt lat="44.13776" lon="7.23577">
        <ele>2069.4</ele>
        <time>2023-02-05T11:13:31Z</time>
      </trkpt>
      <trkpt lat="44.13776" lon="7.23577">
        <ele>2069.3</ele>
        <time>2023-02-05T11:13:32Z</time>
      </trkpt>
      <trkpt lat="44.13776" lon="7.23577">
        <ele>2069.2</ele>
        <time>2023-02-05T11:13:33Z</time>
      </trkpt>
      <trkpt lat="44.13776" lon="7.23577">
        <ele>2069.1</ele>
        <time>2023-02-05T11:13:34Z</time>
      </trkpt>
      <trkpt lat="44.13776" lon="7.23577">
        <ele>2069</ele>
        <time>2023-02-05T11:13:35Z</time>
      </trkpt>
      <trkpt lat="44.13777" lon="7.23577">
        <ele>2068.9</ele>
        <time>2023-02-05T11:13:36Z</time>
      </trkpt>
      <trkpt lat="44.13777" lon="7.23577">
        <ele>2068.9</ele>
        <time>2023-02-05T11:13:37Z</time>
      </trkpt>
      <trkpt lat="44.13777" lon="7.23577">
        <ele>2068.8</ele>
        <time>2023-02-05T11:13:38Z</time>
      </trkpt>
      <trkpt lat="44.13777" lon="7.23578">
        <ele>2068.8</ele>
        <time>2023-02-05T11:13:39Z</time>
      </trkpt>
      <trkpt lat="44.13777" lon="7.23578">
        <ele>2068.8</ele>
        <time>2023-02-05T11:13:40Z</time>
      </trkpt>
      <trkpt lat="44.13778" lon="7.23578">
        <ele>2068.7</ele>
        <time>2023-02-05T11:13:41Z</time>
      </trkpt>
      <trkpt lat="44.13778" lon="7.23578">
        <ele>2068.9</ele>
        <time>2023-02-05T11:13:42Z</time>
      </trkpt>
      <trkpt lat="44.13778" lon="7.23578">
        <ele>2069</ele>
        <time>2023-02-05T11:13:43Z</time>
      </trkpt>
      <trkpt lat="44.13778" lon="7.23578">
        <ele>2069</ele>
        <time>2023-02-05T11:13:44Z</time>
      </trkpt>
      <trkpt lat="44.13778" lon="7.23579">
        <ele>2069</ele>
        <time>2023-02-05T11:13:45Z</time>
      </trkpt>
      <trkpt lat="44.13778" lon="7.23579">
        <ele>2069</ele>
        <time>2023-02-05T11:13:46Z</time>
      </trkpt>
      <trkpt lat="44.13778" lon="7.2358">
        <ele>2069.2</ele>
        <time>2023-02-05T11:13:47Z</time>
      </trkpt>
      <trkpt lat="44.13778" lon="7.2358">
        <ele>2069.3</ele>
        <time>2023-02-05T11:13:48Z</time>
      </trkpt>
      <trkpt lat="44.13778" lon="7.2358">
        <ele>2069.2</ele>
        <time>2023-02-05T11:13:49Z</time>
      </trkpt>
      <trkpt lat="44.13778" lon="7.2358">
        <ele>2069.2</ele>
        <time>2023-02-05T11:13:50Z</time>
      </trkpt>
      <trkpt lat="44.13778" lon="7.2358">
        <ele>2069.1</ele>
        <time>2023-02-05T11:13:51Z</time>
      </trkpt>
      <trkpt lat="44.13778" lon="7.2358">
        <ele>2069.1</ele>
        <time>2023-02-05T11:13:52Z</time>
      </trkpt>
      <trkpt lat="44.13778" lon="7.2358">
        <ele>2069.1</ele>
        <time>2023-02-05T11:13:53Z</time>
      </trkpt>
      <trkpt lat="44.13778" lon="7.2358">
        <ele>2069.1</ele>
        <time>2023-02-05T11:13:54Z</time>
      </trkpt>
      <trkpt lat="44.13778" lon="7.2358">
        <ele>2069</ele>
        <time>2023-02-05T11:13:55Z</time>
      </trkpt>
      <trkpt lat="44.13778" lon="7.2358">
        <ele>2069.1</ele>
        <time>2023-02-05T11:13:56Z</time>
      </trkpt>
      <trkpt lat="44.13779" lon="7.2358">
        <ele>2069.1</ele>
        <time>2023-02-05T11:13:57Z</time>
      </trkpt>
      <trkpt lat="44.13779" lon="7.2358">
        <ele>2069.2</ele>
        <time>2023-02-05T11:13:58Z</time>
      </trkpt>
      <trkpt lat="44.13779" lon="7.2358">
        <ele>2069.1</ele>
        <time>2023-02-05T11:13:59Z</time>
      </trkpt>
      <trkpt lat="44.1378" lon="7.2358">
        <ele>2069.1</ele>
        <time>2023-02-05T11:14:00Z</time>
      </trkpt>
      <trkpt lat="44.1378" lon="7.2358">
        <ele>2069.1</ele>
        <time>2023-02-05T11:14:01Z</time>
      </trkpt>
      <trkpt lat="44.1378" lon="7.2358">
        <ele>2069.2</ele>
        <time>2023-02-05T11:14:02Z</time>
      </trkpt>
      <trkpt lat="44.13781" lon="7.23581">
        <ele>2069.3</ele>
        <time>2023-02-05T11:14:03Z</time>
      </trkpt>
      <trkpt lat="44.13781" lon="7.23582">
        <ele>2069.3</ele>
        <time>2023-02-05T11:14:04Z</time>
      </trkpt>
      <trkpt lat="44.13781" lon="7.23582">
        <ele>2069.3</ele>
        <time>2023-02-05T11:14:05Z</time>
      </trkpt>
      <trkpt lat="44.13781" lon="7.23582">
        <ele>2069.3</ele>
        <time>2023-02-05T11:14:06Z</time>
      </trkpt>
      <trkpt lat="44.13781" lon="7.23582">
        <ele>2069.2</ele>
        <time>2023-02-05T11:14:07Z</time>
      </trkpt>
      <trkpt lat="44.13781" lon="7.23582">
        <ele>2069.2</ele>
        <time>2023-02-05T11:14:08Z</time>
      </trkpt>
      <trkpt lat="44.13781" lon="7.23582">
        <ele>2069.2</ele>
        <time>2023-02-05T11:14:09Z</time>
      </trkpt>
      <trkpt lat="44.13781" lon="7.23582">
        <ele>2069.2</ele>
        <time>2023-02-05T11:14:10Z</time>
      </trkpt>
      <trkpt lat="44.13781" lon="7.23582">
        <ele>2069.2</ele>
        <time>2023-02-05T11:14:11Z</time>
      </trkpt>
      <trkpt lat="44.13781" lon="7.23582">
        <ele>2069.1</ele>
        <time>2023-02-05T11:14:12Z</time>
      </trkpt>
      <trkpt lat="44.13781" lon="7.23582">
        <ele>2069.2</ele>
        <time>2023-02-05T11:14:13Z</time>
      </trkpt>
      <trkpt lat="44.13781" lon="7.23582">
        <ele>2069.2</ele>
        <time>2023-02-05T11:14:14Z</time>
      </trkpt>
      <trkpt lat="44.13781" lon="7.23582">
        <ele>2069.2</ele>
        <time>2023-02-05T11:14:15Z</time>
      </trkpt>
      <trkpt lat="44.13782" lon="7.23583">
        <ele>2069.2</ele>
        <time>2023-02-05T11:14:16Z</time>
      </trkpt>
      <trkpt lat="44.13782" lon="7.23583">
        <ele>2069.2</ele>
        <time>2023-02-05T11:14:17Z</time>
      </trkpt>
      <trkpt lat="44.13782" lon="7.23583">
        <ele>2069.2</ele>
        <time>2023-02-05T11:14:18Z</time>
      </trkpt>
      <trkpt lat="44.13782" lon="7.23583">
        <ele>2069.2</ele>
        <time>2023-02-05T11:14:19Z</time>
      </trkpt>
      <trkpt lat="44.13782" lon="7.23583">
        <ele>2069.2</ele>
        <time>2023-02-05T11:14:20Z</time>
      </trkpt>
      <trkpt lat="44.13782" lon="7.23583">
        <ele>2069.2</ele>
        <time>2023-02-05T11:14:21Z</time>
      </trkpt>
      <trkpt lat="44.13781" lon="7.23582">
        <ele>2069.2</ele>
        <time>2023-02-05T11:14:22Z</time>
      </trkpt>
      <trkpt lat="44.13781" lon="7.23583">
        <ele>2069.1</ele>
        <time>2023-02-05T11:14:23Z</time>
      </trkpt>
      <trkpt lat="44.13781" lon="7.23583">
        <ele>2069.1</ele>
        <time>2023-02-05T11:14:24Z</time>
      </trkpt>
      <trkpt lat="44.13781" lon="7.23583">
        <ele>2069.2</ele>
        <time>2023-02-05T11:14:25Z</time>
      </trkpt>
      <trkpt lat="44.13781" lon="7.23583">
        <ele>2069.3</ele>
        <time>2023-02-05T11:14:26Z</time>
      </trkpt>
      <trkpt lat="44.13781" lon="7.23584">
        <ele>2069.4</ele>
        <time>2023-02-05T11:14:27Z</time>
      </trkpt>
      <trkpt lat="44.1378" lon="7.23584">
        <ele>2069.4</ele>
        <time>2023-02-05T11:14:28Z</time>
      </trkpt>
      <trkpt lat="44.1378" lon="7.23584">
        <ele>2069.3</ele>
        <time>2023-02-05T11:14:29Z</time>
      </trkpt>
      <trkpt lat="44.1378" lon="7.23584">
        <ele>2069.2</ele>
        <time>2023-02-05T11:14:30Z</time>
      </trkpt>
      <trkpt lat="44.1378" lon="7.23584">
        <ele>2069.2</ele>
        <time>2023-02-05T11:14:31Z</time>
      </trkpt>
      <trkpt lat="44.1378" lon="7.23584">
        <ele>2069.2</ele>
        <time>2023-02-05T11:14:32Z</time>
      </trkpt>
      <trkpt lat="44.1378" lon="7.23584">
        <ele>2069.3</ele>
        <time>2023-02-05T11:14:33Z</time>
      </trkpt>
      <trkpt lat="44.1378" lon="7.23584">
        <ele>2069.4</ele>
        <time>2023-02-05T11:14:34Z</time>
      </trkpt>
      <trkpt lat="44.1378" lon="7.23585">
        <ele>2069.4</ele>
        <time>2023-02-05T11:14:35Z</time>
      </trkpt>
      <trkpt lat="44.1378" lon="7.23585">
        <ele>2069.4</ele>
        <time>2023-02-05T11:14:36Z</time>
      </trkpt>
      <trkpt lat="44.13779" lon="7.23585">
        <ele>2069.4</ele>
        <time>2023-02-05T11:14:37Z</time>
      </trkpt>
      <trkpt lat="44.13779" lon="7.23585">
        <ele>2069.5</ele>
        <time>2023-02-05T11:14:38Z</time>
      </trkpt>
      <trkpt lat="44.13779" lon="7.23585">
        <ele>2069.3</ele>
        <time>2023-02-05T11:14:39Z</time>
      </trkpt>
      <trkpt lat="44.13779" lon="7.23585">
        <ele>2069.2</ele>
        <time>2023-02-05T11:14:40Z</time>
      </trkpt>
      <trkpt lat="44.13779" lon="7.23585">
        <ele>2069.2</ele>
        <time>2023-02-05T11:14:41Z</time>
      </trkpt>
      <trkpt lat="44.13779" lon="7.23585">
        <ele>2069.1</ele>
        <time>2023-02-05T11:14:42Z</time>
      </trkpt>
      <trkpt lat="44.13779" lon="7.23585">
        <ele>2069</ele>
        <time>2023-02-05T11:14:43Z</time>
      </trkpt>
      <trkpt lat="44.13779" lon="7.23585">
        <ele>2069</ele>
        <time>2023-02-05T11:14:44Z</time>
      </trkpt>
      <trkpt lat="44.13779" lon="7.23585">
        <ele>2069</ele>
        <time>2023-02-05T11:14:45Z</time>
      </trkpt>
      <trkpt lat="44.13779" lon="7.23585">
        <ele>2068.9</ele>
        <time>2023-02-05T11:14:46Z</time>
      </trkpt>
      <trkpt lat="44.13779" lon="7.23585">
        <ele>2068.9</ele>
        <time>2023-02-05T11:14:47Z</time>
      </trkpt>
      <trkpt lat="44.1378" lon="7.23585">
        <ele>2068.8</ele>
        <time>2023-02-05T11:14:48Z</time>
      </trkpt>
      <trkpt lat="44.1378" lon="7.23585">
        <ele>2068.8</ele>
        <time>2023-02-05T11:14:49Z</time>
      </trkpt>
      <trkpt lat="44.1378" lon="7.23585">
        <ele>2068.9</ele>
        <time>2023-02-05T11:14:50Z</time>
      </trkpt>
      <trkpt lat="44.1378" lon="7.23585">
        <ele>2068.9</ele>
        <time>2023-02-05T11:14:51Z</time>
      </trkpt>
      <trkpt lat="44.1378" lon="7.23584">
        <ele>2068.9</ele>
        <time>2023-02-05T11:14:52Z</time>
      </trkpt>
      <trkpt lat="44.1378" lon="7.23583">
        <ele>2069</ele>
        <time>2023-02-05T11:14:53Z</time>
      </trkpt>
      <trkpt lat="44.1378" lon="7.23583">
        <ele>2069</ele>
        <time>2023-02-05T11:14:54Z</time>
      </trkpt>
      <trkpt lat="44.13781" lon="7.23583">
        <ele>2069</ele>
        <time>2023-02-05T11:14:55Z</time>
      </trkpt>
      <trkpt lat="44.13781" lon="7.23583">
        <ele>2069</ele>
        <time>2023-02-05T11:14:56Z</time>
      </trkpt>
      <trkpt lat="44.13781" lon="7.23583">
        <ele>2069</ele>
        <time>2023-02-05T11:14:57Z</time>
      </trkpt>
      <trkpt lat="44.13781" lon="7.23582">
        <ele>2069</ele>
        <time>2023-02-05T11:14:58Z</time>
      </trkpt>
      <trkpt lat="44.1378" lon="7.23582">
        <ele>2069</ele>
        <time>2023-02-05T11:14:59Z</time>
      </trkpt>
      <trkpt lat="44.1378" lon="7.23582">
        <ele>2069</ele>
        <time>2023-02-05T11:15:00Z</time>
      </trkpt>
      <trkpt lat="44.13781" lon="7.23582">
        <ele>2069</ele>
        <time>2023-02-05T11:15:01Z</time>
      </trkpt>
      <trkpt lat="44.13781" lon="7.23582">
        <ele>2069</ele>
        <time>2023-02-05T11:15:02Z</time>
      </trkpt>
      <trkpt lat="44.13781" lon="7.23582">
        <ele>2069</ele>
        <time>2023-02-05T11:15:03Z</time>
      </trkpt>
      <trkpt lat="44.13781" lon="7.23582">
        <ele>2069.1</ele>
        <time>2023-02-05T11:15:04Z</time>
      </trkpt>
      <trkpt lat="44.13781" lon="7.23582">
        <ele>2069.1</ele>
        <time>2023-02-05T11:15:05Z</time>
      </trkpt>
      <trkpt lat="44.13781" lon="7.23582">
        <ele>2069</ele>
        <time>2023-02-05T11:15:06Z</time>
      </trkpt>
      <trkpt lat="44.13781" lon="7.23581">
        <ele>2069</ele>
        <time>2023-02-05T11:15:07Z</time>
      </trkpt>
      <trkpt lat="44.13781" lon="7.23581">
        <ele>2069</ele>
        <time>2023-02-05T11:15:08Z</time>
      </trkpt>
      <trkpt lat="44.13782" lon="7.23581">
        <ele>2069</ele>
        <time>2023-02-05T11:15:09Z</time>
      </trkpt>
      <trkpt lat="44.13782" lon="7.2358">
        <ele>2069</ele>
        <time>2023-02-05T11:15:10Z</time>
      </trkpt>
      <trkpt lat="44.13782" lon="7.2358">
        <ele>2069</ele>
        <time>2023-02-05T11:15:11Z</time>
      </trkpt>
      <trkpt lat="44.13782" lon="7.2358">
        <ele>2069</ele>
        <time>2023-02-05T11:15:12Z</time>
      </trkpt>
      <trkpt lat="44.13782" lon="7.23579">
        <ele>2069.1</ele>
        <time>2023-02-05T11:15:13Z</time>
      </trkpt>
      <trkpt lat="44.13782" lon="7.23579">
        <ele>2069.1</ele>
        <time>2023-02-05T11:15:14Z</time>
      </trkpt>
      <trkpt lat="44.13782" lon="7.23579">
        <ele>2069.1</ele>
        <time>2023-02-05T11:15:15Z</time>
      </trkpt>
      <trkpt lat="44.13783" lon="7.23579">
        <ele>2069.1</ele>
        <time>2023-02-05T11:15:16Z</time>
      </trkpt>
      <trkpt lat="44.13783" lon="7.23579">
        <ele>2069.2</ele>
        <time>2023-02-05T11:15:17Z</time>
      </trkpt>
      <trkpt lat="44.13783" lon="7.23578">
        <ele>2069.3</ele>
        <time>2023-02-05T11:15:18Z</time>
      </trkpt>
      <trkpt lat="44.13783" lon="7.23578">
        <ele>2069.3</ele>
        <time>2023-02-05T11:15:19Z</time>
      </trkpt>
      <trkpt lat="44.13783" lon="7.23578">
        <ele>2069.3</ele>
        <time>2023-02-05T11:15:20Z</time>
      </trkpt>
      <trkpt lat="44.13784" lon="7.23578">
        <ele>2069.3</ele>
        <time>2023-02-05T11:15:21Z</time>
      </trkpt>
      <trkpt lat="44.13784" lon="7.23578">
        <ele>2069.3</ele>
        <time>2023-02-05T11:15:22Z</time>
      </trkpt>
      <trkpt lat="44.13784" lon="7.23577">
        <ele>2069.3</ele>
        <time>2023-02-05T11:15:23Z</time>
      </trkpt>
      <trkpt lat="44.13784" lon="7.23577">
        <ele>2069.3</ele>
        <time>2023-02-05T11:15:24Z</time>
      </trkpt>
      <trkpt lat="44.13784" lon="7.23577">
        <ele>2069.2</ele>
        <time>2023-02-05T11:15:25Z</time>
      </trkpt>
      <trkpt lat="44.13784" lon="7.23577">
        <ele>2069.2</ele>
        <time>2023-02-05T11:15:26Z</time>
      </trkpt>
      <trkpt lat="44.13784" lon="7.23576">
        <ele>2069.2</ele>
        <time>2023-02-05T11:15:27Z</time>
      </trkpt>
      <trkpt lat="44.13784" lon="7.23576">
        <ele>2069.2</ele>
        <time>2023-02-05T11:15:28Z</time>
      </trkpt>
      <trkpt lat="44.13783" lon="7.23575">
        <ele>2069.2</ele>
        <time>2023-02-05T11:15:29Z</time>
      </trkpt>
      <trkpt lat="44.13782" lon="7.23574">
        <ele>2069.2</ele>
        <time>2023-02-05T11:15:30Z</time>
      </trkpt>
      <trkpt lat="44.13782" lon="7.23573">
        <ele>2069.2</ele>
        <time>2023-02-05T11:15:31Z</time>
      </trkpt>
      <trkpt lat="44.13781" lon="7.23573">
        <ele>2069.2</ele>
        <time>2023-02-05T11:15:32Z</time>
      </trkpt>
      <trkpt lat="44.13781" lon="7.23573">
        <ele>2069.2</ele>
        <time>2023-02-05T11:15:33Z</time>
      </trkpt>
      <trkpt lat="44.13781" lon="7.23573">
        <ele>2069.2</ele>
        <time>2023-02-05T11:15:34Z</time>
      </trkpt>
      <trkpt lat="44.13781" lon="7.23573">
        <ele>2069.2</ele>
        <time>2023-02-05T11:15:35Z</time>
      </trkpt>
      <trkpt lat="44.13781" lon="7.23573">
        <ele>2069.2</ele>
        <time>2023-02-05T11:15:36Z</time>
      </trkpt>
      <trkpt lat="44.13781" lon="7.23572">
        <ele>2069.3</ele>
        <time>2023-02-05T11:15:37Z</time>
      </trkpt>
      <trkpt lat="44.13781" lon="7.23572">
        <ele>2069.4</ele>
        <time>2023-02-05T11:15:38Z</time>
      </trkpt>
      <trkpt lat="44.13781" lon="7.23572">
        <ele>2069.4</ele>
        <time>2023-02-05T11:15:39Z</time>
      </trkpt>
      <trkpt lat="44.13781" lon="7.23571">
        <ele>2069.5</ele>
        <time>2023-02-05T11:15:40Z</time>
      </trkpt>
      <trkpt lat="44.13781" lon="7.23571">
        <ele>2069.6</ele>
        <time>2023-02-05T11:15:41Z</time>
      </trkpt>
      <trkpt lat="44.1378" lon="7.2357">
        <ele>2069.7</ele>
        <time>2023-02-05T11:15:42Z</time>
      </trkpt>
      <trkpt lat="44.1378" lon="7.23569">
        <ele>2069.8</ele>
        <time>2023-02-05T11:15:43Z</time>
      </trkpt>
      <trkpt lat="44.1378" lon="7.23569">
        <ele>2069.8</ele>
        <time>2023-02-05T11:15:44Z</time>
      </trkpt>
      <trkpt lat="44.13779" lon="7.23569">
        <ele>2069.9</ele>
        <time>2023-02-05T11:15:45Z</time>
      </trkpt>
      <trkpt lat="44.13778" lon="7.23568">
        <ele>2069.9</ele>
        <time>2023-02-05T11:15:46Z</time>
      </trkpt>
      <trkpt lat="44.13777" lon="7.23567">
        <ele>2070</ele>
        <time>2023-02-05T11:15:47Z</time>
      </trkpt>
      <trkpt lat="44.13777" lon="7.23567">
        <ele>2069.9</ele>
        <time>2023-02-05T11:15:48Z</time>
      </trkpt>
      <trkpt lat="44.13776" lon="7.23567">
        <ele>2069.9</ele>
        <time>2023-02-05T11:15:49Z</time>
      </trkpt>
      <trkpt lat="44.13776" lon="7.23566">
        <ele>2069.9</ele>
        <time>2023-02-05T11:15:50Z</time>
      </trkpt>
      <trkpt lat="44.13775" lon="7.23566">
        <ele>2070.1</ele>
        <time>2023-02-05T11:15:51Z</time>
      </trkpt>
      <trkpt lat="44.13775" lon="7.23565">
        <ele>2070.2</ele>
        <time>2023-02-05T11:15:52Z</time>
      </trkpt>
      <trkpt lat="44.13774" lon="7.23565">
        <ele>2070.4</ele>
        <time>2023-02-05T11:15:53Z</time>
      </trkpt>
      <trkpt lat="44.13774" lon="7.23564">
        <ele>2070.4</ele>
        <time>2023-02-05T11:15:54Z</time>
      </trkpt>
      <trkpt lat="44.13773" lon="7.23563">
        <ele>2070.6</ele>
        <time>2023-02-05T11:15:55Z</time>
      </trkpt>
      <trkpt lat="44.13773" lon="7.23562">
        <ele>2070.6</ele>
        <time>2023-02-05T11:15:56Z</time>
      </trkpt>
      <trkpt lat="44.13772" lon="7.23561">
        <ele>2070.7</ele>
        <time>2023-02-05T11:15:57Z</time>
      </trkpt>
      <trkpt lat="44.13771" lon="7.23561">
        <ele>2070.8</ele>
        <time>2023-02-05T11:15:58Z</time>
      </trkpt>
      <trkpt lat="44.13771" lon="7.2356">
        <ele>2070.8</ele>
        <time>2023-02-05T11:15:59Z</time>
      </trkpt>
      <trkpt lat="44.1377" lon="7.2356">
        <ele>2070.9</ele>
        <time>2023-02-05T11:16:00Z</time>
      </trkpt>
      <trkpt lat="44.13769" lon="7.23559">
        <ele>2070.9</ele>
        <time>2023-02-05T11:16:01Z</time>
      </trkpt>
      <trkpt lat="44.13769" lon="7.23559">
        <ele>2070.8</ele>
        <time>2023-02-05T11:16:02Z</time>
      </trkpt>
      <trkpt lat="44.13768" lon="7.23558">
        <ele>2070.8</ele>
        <time>2023-02-05T11:16:03Z</time>
      </trkpt>
      <trkpt lat="44.13767" lon="7.23557">
        <ele>2070.8</ele>
        <time>2023-02-05T11:16:04Z</time>
      </trkpt>
      <trkpt lat="44.13767" lon="7.23557">
        <ele>2070.7</ele>
        <time>2023-02-05T11:16:05Z</time>
      </trkpt>
      <trkpt lat="44.13766" lon="7.23556">
        <ele>2070.6</ele>
        <time>2023-02-05T11:16:06Z</time>
      </trkpt>
      <trkpt lat="44.13765" lon="7.23555">
        <ele>2070.5</ele>
        <time>2023-02-05T11:16:07Z</time>
      </trkpt>
      <trkpt lat="44.13764" lon="7.23554">
        <ele>2070.5</ele>
        <time>2023-02-05T11:16:08Z</time>
      </trkpt>
      <trkpt lat="44.13764" lon="7.23554">
        <ele>2070.4</ele>
        <time>2023-02-05T11:16:09Z</time>
      </trkpt>
      <trkpt lat="44.13763" lon="7.23553">
        <ele>2070.5</ele>
        <time>2023-02-05T11:16:10Z</time>
      </trkpt>
      <trkpt lat="44.13762" lon="7.23552">
        <ele>2070.5</ele>
        <time>2023-02-05T11:16:11Z</time>
      </trkpt>
      <trkpt lat="44.13762" lon="7.23551">
        <ele>2070.4</ele>
        <time>2023-02-05T11:16:12Z</time>
      </trkpt>
      <trkpt lat="44.13761" lon="7.2355">
        <ele>2070</ele>
        <time>2023-02-05T11:16:13Z</time>
      </trkpt>
      <trkpt lat="44.13761" lon="7.23549">
        <ele>2070</ele>
        <time>2023-02-05T11:16:14Z</time>
      </trkpt>
      <trkpt lat="44.1376" lon="7.23548">
        <ele>2070</ele>
        <time>2023-02-05T11:16:15Z</time>
      </trkpt>
      <trkpt lat="44.13759" lon="7.23547">
        <ele>2070</ele>
        <time>2023-02-05T11:16:16Z</time>
      </trkpt>
      <trkpt lat="44.13759" lon="7.23546">
        <ele>2070</ele>
        <time>2023-02-05T11:16:17Z</time>
      </trkpt>
      <trkpt lat="44.13758" lon="7.23545">
        <ele>2070</ele>
        <time>2023-02-05T11:16:18Z</time>
      </trkpt>
      <trkpt lat="44.13758" lon="7.23545">
        <ele>2070</ele>
        <time>2023-02-05T11:16:19Z</time>
      </trkpt>
      <trkpt lat="44.13757" lon="7.23543">
        <ele>2069.9</ele>
        <time>2023-02-05T11:16:20Z</time>
      </trkpt>
      <trkpt lat="44.13757" lon="7.23543">
        <ele>2069.7</ele>
        <time>2023-02-05T11:16:21Z</time>
      </trkpt>
      <trkpt lat="44.13756" lon="7.23542">
        <ele>2069.7</ele>
        <time>2023-02-05T11:16:22Z</time>
      </trkpt>
      <trkpt lat="44.13756" lon="7.23541">
        <ele>2069.6</ele>
        <time>2023-02-05T11:16:23Z</time>
      </trkpt>
      <trkpt lat="44.13755" lon="7.2354">
        <ele>2069.6</ele>
        <time>2023-02-05T11:16:24Z</time>
      </trkpt>
      <trkpt lat="44.13755" lon="7.23538">
        <ele>2069.6</ele>
        <time>2023-02-05T11:16:25Z</time>
      </trkpt>
      <trkpt lat="44.13756" lon="7.23537">
        <ele>2069.6</ele>
        <time>2023-02-05T11:16:26Z</time>
      </trkpt>
      <trkpt lat="44.13756" lon="7.23536">
        <ele>2069.6</ele>
        <time>2023-02-05T11:16:27Z</time>
      </trkpt>
      <trkpt lat="44.13756" lon="7.23535">
        <ele>2069.5</ele>
        <time>2023-02-05T11:16:28Z</time>
      </trkpt>
      <trkpt lat="44.13756" lon="7.23534">
        <ele>2069.4</ele>
        <time>2023-02-05T11:16:29Z</time>
      </trkpt>
      <trkpt lat="44.13756" lon="7.23533">
        <ele>2069.4</ele>
        <time>2023-02-05T11:16:30Z</time>
      </trkpt>
      <trkpt lat="44.13757" lon="7.23532">
        <ele>2069.3</ele>
        <time>2023-02-05T11:16:31Z</time>
      </trkpt>
      <trkpt lat="44.13757" lon="7.23531">
        <ele>2069.3</ele>
        <time>2023-02-05T11:16:32Z</time>
      </trkpt>
      <trkpt lat="44.13758" lon="7.23529">
        <ele>2069.1</ele>
        <time>2023-02-05T11:16:33Z</time>
      </trkpt>
      <trkpt lat="44.13758" lon="7.23528">
        <ele>2068.9</ele>
        <time>2023-02-05T11:16:34Z</time>
      </trkpt>
      <trkpt lat="44.13758" lon="7.23527">
        <ele>2068.9</ele>
        <time>2023-02-05T11:16:35Z</time>
      </trkpt>
      <trkpt lat="44.13758" lon="7.23526">
        <ele>2068.8</ele>
        <time>2023-02-05T11:16:36Z</time>
      </trkpt>
      <trkpt lat="44.13758" lon="7.23524">
        <ele>2068.7</ele>
        <time>2023-02-05T11:16:37Z</time>
      </trkpt>
      <trkpt lat="44.13758" lon="7.23523">
        <ele>2068.6</ele>
        <time>2023-02-05T11:16:38Z</time>
      </trkpt>
      <trkpt lat="44.13758" lon="7.23522">
        <ele>2068.6</ele>
        <time>2023-02-05T11:16:39Z</time>
      </trkpt>
      <trkpt lat="44.13759" lon="7.23521">
        <ele>2068.5</ele>
        <time>2023-02-05T11:16:40Z</time>
      </trkpt>
      <trkpt lat="44.13759" lon="7.2352">
        <ele>2068.4</ele>
        <time>2023-02-05T11:16:41Z</time>
      </trkpt>
      <trkpt lat="44.13759" lon="7.23519">
        <ele>2068.2</ele>
        <time>2023-02-05T11:16:42Z</time>
      </trkpt>
      <trkpt lat="44.13759" lon="7.23518">
        <ele>2068</ele>
        <time>2023-02-05T11:16:43Z</time>
      </trkpt>
      <trkpt lat="44.13759" lon="7.23517">
        <ele>2067.9</ele>
        <time>2023-02-05T11:16:44Z</time>
      </trkpt>
      <trkpt lat="44.13759" lon="7.23516">
        <ele>2067.7</ele>
        <time>2023-02-05T11:16:45Z</time>
      </trkpt>
      <trkpt lat="44.13758" lon="7.23515">
        <ele>2067.5</ele>
        <time>2023-02-05T11:16:46Z</time>
      </trkpt>
      <trkpt lat="44.13758" lon="7.23513">
        <ele>2067.2</ele>
        <time>2023-02-05T11:16:47Z</time>
      </trkpt>
      <trkpt lat="44.13758" lon="7.23512">
        <ele>2067.2</ele>
        <time>2023-02-05T11:16:48Z</time>
      </trkpt>
      <trkpt lat="44.13758" lon="7.23511">
        <ele>2067.1</ele>
        <time>2023-02-05T11:16:49Z</time>
      </trkpt>
      <trkpt lat="44.13758" lon="7.2351">
        <ele>2067</ele>
        <time>2023-02-05T11:16:50Z</time>
      </trkpt>
      <trkpt lat="44.13758" lon="7.23509">
        <ele>2067</ele>
        <time>2023-02-05T11:16:51Z</time>
      </trkpt>
      <trkpt lat="44.13758" lon="7.23508">
        <ele>2067</ele>
        <time>2023-02-05T11:16:52Z</time>
      </trkpt>
      <trkpt lat="44.13758" lon="7.23507">
        <ele>2066.9</ele>
        <time>2023-02-05T11:16:53Z</time>
      </trkpt>
      <trkpt lat="44.13758" lon="7.23506">
        <ele>2066.8</ele>
        <time>2023-02-05T11:16:54Z</time>
      </trkpt>
      <trkpt lat="44.13758" lon="7.23504">
        <ele>2066.9</ele>
        <time>2023-02-05T11:16:55Z</time>
      </trkpt>
      <trkpt lat="44.13759" lon="7.23503">
        <ele>2066.7</ele>
        <time>2023-02-05T11:16:56Z</time>
      </trkpt>
      <trkpt lat="44.13758" lon="7.23502">
        <ele>2066.6</ele>
        <time>2023-02-05T11:16:57Z</time>
      </trkpt>
      <trkpt lat="44.13758" lon="7.23501">
        <ele>2066.5</ele>
        <time>2023-02-05T11:16:58Z</time>
      </trkpt>
      <trkpt lat="44.13758" lon="7.235">
        <ele>2066.3</ele>
        <time>2023-02-05T11:16:59Z</time>
      </trkpt>
      <trkpt lat="44.13758" lon="7.23499">
        <ele>2066.3</ele>
        <time>2023-02-05T11:17:00Z</time>
      </trkpt>
      <trkpt lat="44.13758" lon="7.23498">
        <ele>2066.1</ele>
        <time>2023-02-05T11:17:01Z</time>
      </trkpt>
      <trkpt lat="44.13757" lon="7.23498">
        <ele>2066.1</ele>
        <time>2023-02-05T11:17:02Z</time>
      </trkpt>
      <trkpt lat="44.13758" lon="7.23497">
        <ele>2065.9</ele>
        <time>2023-02-05T11:17:03Z</time>
      </trkpt>
      <trkpt lat="44.13758" lon="7.23496">
        <ele>2065.9</ele>
        <time>2023-02-05T11:17:04Z</time>
      </trkpt>
      <trkpt lat="44.13758" lon="7.23495">
        <ele>2065.8</ele>
        <time>2023-02-05T11:17:05Z</time>
      </trkpt>
      <trkpt lat="44.13758" lon="7.23493">
        <ele>2065.8</ele>
        <time>2023-02-05T11:17:06Z</time>
      </trkpt>
      <trkpt lat="44.13758" lon="7.23492">
        <ele>2065.7</ele>
        <time>2023-02-05T11:17:07Z</time>
      </trkpt>
      <trkpt lat="44.13757" lon="7.23491">
        <ele>2065.6</ele>
        <time>2023-02-05T11:17:08Z</time>
      </trkpt>
      <trkpt lat="44.13757" lon="7.2349">
        <ele>2065.5</ele>
        <time>2023-02-05T11:17:09Z</time>
      </trkpt>
      <trkpt lat="44.13757" lon="7.23489">
        <ele>2065.5</ele>
        <time>2023-02-05T11:17:10Z</time>
      </trkpt>
      <trkpt lat="44.13757" lon="7.23487">
        <ele>2065.3</ele>
        <time>2023-02-05T11:17:11Z</time>
      </trkpt>
      <trkpt lat="44.13757" lon="7.23486">
        <ele>2065.2</ele>
        <time>2023-02-05T11:17:12Z</time>
      </trkpt>
      <trkpt lat="44.13756" lon="7.23485">
        <ele>2065.1</ele>
        <time>2023-02-05T11:17:13Z</time>
      </trkpt>
      <trkpt lat="44.13757" lon="7.23484">
        <ele>2064.9</ele>
        <time>2023-02-05T11:17:14Z</time>
      </trkpt>
      <trkpt lat="44.13757" lon="7.23483">
        <ele>2064.8</ele>
        <time>2023-02-05T11:17:15Z</time>
      </trkpt>
      <trkpt lat="44.13756" lon="7.23483">
        <ele>2064.8</ele>
        <time>2023-02-05T11:17:16Z</time>
      </trkpt>
      <trkpt lat="44.13756" lon="7.23482">
        <ele>2064.7</ele>
        <time>2023-02-05T11:17:17Z</time>
      </trkpt>
      <trkpt lat="44.13756" lon="7.2348">
        <ele>2064.6</ele>
        <time>2023-02-05T11:17:18Z</time>
      </trkpt>
      <trkpt lat="44.13756" lon="7.23479">
        <ele>2064.5</ele>
        <time>2023-02-05T11:17:19Z</time>
      </trkpt>
      <trkpt lat="44.13756" lon="7.23478">
        <ele>2064.4</ele>
        <time>2023-02-05T11:17:20Z</time>
      </trkpt>
      <trkpt lat="44.13755" lon="7.23477">
        <ele>2064.3</ele>
        <time>2023-02-05T11:17:21Z</time>
      </trkpt>
      <trkpt lat="44.13755" lon="7.23476">
        <ele>2064.2</ele>
        <time>2023-02-05T11:17:22Z</time>
      </trkpt>
      <trkpt lat="44.13755" lon="7.23476">
        <ele>2064.2</ele>
        <time>2023-02-05T11:17:23Z</time>
      </trkpt>
      <trkpt lat="44.13755" lon="7.23475">
        <ele>2064.2</ele>
        <time>2023-02-05T11:17:24Z</time>
      </trkpt>
      <trkpt lat="44.13755" lon="7.23474">
        <ele>2064.2</ele>
        <time>2023-02-05T11:17:25Z</time>
      </trkpt>
      <trkpt lat="44.13756" lon="7.23473">
        <ele>2064.1</ele>
        <time>2023-02-05T11:17:26Z</time>
      </trkpt>
      <trkpt lat="44.13755" lon="7.23473">
        <ele>2064</ele>
        <time>2023-02-05T11:17:27Z</time>
      </trkpt>
      <trkpt lat="44.13756" lon="7.23473">
        <ele>2064</ele>
        <time>2023-02-05T11:17:28Z</time>
      </trkpt>
      <trkpt lat="44.13756" lon="7.23472">
        <ele>2063.9</ele>
        <time>2023-02-05T11:17:29Z</time>
      </trkpt>
      <trkpt lat="44.13756" lon="7.23471">
        <ele>2063.7</ele>
        <time>2023-02-05T11:17:30Z</time>
      </trkpt>
      <trkpt lat="44.13756" lon="7.23471">
        <ele>2063.6</ele>
        <time>2023-02-05T11:17:31Z</time>
      </trkpt>
      <trkpt lat="44.13756" lon="7.2347">
        <ele>2063.6</ele>
        <time>2023-02-05T11:17:32Z</time>
      </trkpt>
      <trkpt lat="44.13755" lon="7.2347">
        <ele>2063.4</ele>
        <time>2023-02-05T11:17:33Z</time>
      </trkpt>
      <trkpt lat="44.13755" lon="7.2347">
        <ele>2063.3</ele>
        <time>2023-02-05T11:17:34Z</time>
      </trkpt>
      <trkpt lat="44.13755" lon="7.2347">
        <ele>2063.3</ele>
        <time>2023-02-05T11:17:35Z</time>
      </trkpt>
      <trkpt lat="44.13756" lon="7.2347">
        <ele>2063.3</ele>
        <time>2023-02-05T11:17:36Z</time>
      </trkpt>
      <trkpt lat="44.13756" lon="7.2347">
        <ele>2063.3</ele>
        <time>2023-02-05T11:17:37Z</time>
      </trkpt>
      <trkpt lat="44.13756" lon="7.2347">
        <ele>2063.2</ele>
        <time>2023-02-05T11:17:38Z</time>
      </trkpt>
      <trkpt lat="44.13756" lon="7.2347">
        <ele>2063.1</ele>
        <time>2023-02-05T11:17:39Z</time>
      </trkpt>
      <trkpt lat="44.13756" lon="7.2347">
        <ele>2063</ele>
        <time>2023-02-05T11:17:40Z</time>
      </trkpt>
      <trkpt lat="44.13756" lon="7.2347">
        <ele>2063</ele>
        <time>2023-02-05T11:17:41Z</time>
      </trkpt>
      <trkpt lat="44.13756" lon="7.2347">
        <ele>2063</ele>
        <time>2023-02-05T11:17:42Z</time>
      </trkpt>
      <trkpt lat="44.13756" lon="7.2347">
        <ele>2062.8</ele>
        <time>2023-02-05T11:17:43Z</time>
      </trkpt>
      <trkpt lat="44.13755" lon="7.2347">
        <ele>2062.8</ele>
        <time>2023-02-05T11:17:44Z</time>
      </trkpt>
      <trkpt lat="44.13755" lon="7.2347">
        <ele>2062.9</ele>
        <time>2023-02-05T11:17:45Z</time>
      </trkpt>
      <trkpt lat="44.13755" lon="7.2347">
        <ele>2062.9</ele>
        <time>2023-02-05T11:17:46Z</time>
      </trkpt>
      <trkpt lat="44.13755" lon="7.2347">
        <ele>2062.9</ele>
        <time>2023-02-05T11:17:47Z</time>
      </trkpt>
      <trkpt lat="44.13756" lon="7.23471">
        <ele>2063</ele>
        <time>2023-02-05T11:17:48Z</time>
      </trkpt>
      <trkpt lat="44.13756" lon="7.23471">
        <ele>2063</ele>
        <time>2023-02-05T11:17:49Z</time>
      </trkpt>
      <trkpt lat="44.13756" lon="7.23471">
        <ele>2063</ele>
        <time>2023-02-05T11:17:50Z</time>
      </trkpt>
      <trkpt lat="44.13756" lon="7.23472">
        <ele>2063.1</ele>
        <time>2023-02-05T11:17:51Z</time>
      </trkpt>
      <trkpt lat="44.13757" lon="7.23473">
        <ele>2063.1</ele>
        <time>2023-02-05T11:17:52Z</time>
      </trkpt>
      <trkpt lat="44.13757" lon="7.23473">
        <ele>2063.1</ele>
        <time>2023-02-05T11:17:53Z</time>
      </trkpt>
      <trkpt lat="44.13758" lon="7.23473">
        <ele>2063.1</ele>
        <time>2023-02-05T11:17:54Z</time>
      </trkpt>
      <trkpt lat="44.13757" lon="7.23473">
        <ele>2063.2</ele>
        <time>2023-02-05T11:17:55Z</time>
      </trkpt>
      <trkpt lat="44.13757" lon="7.23472">
        <ele>2063.1</ele>
        <time>2023-02-05T11:17:56Z</time>
      </trkpt>
      <trkpt lat="44.13757" lon="7.23472">
        <ele>2063.1</ele>
        <time>2023-02-05T11:17:57Z</time>
      </trkpt>
      <trkpt lat="44.13757" lon="7.23472">
        <ele>2063</ele>
        <time>2023-02-05T11:17:58Z</time>
      </trkpt>
      <trkpt lat="44.13756" lon="7.23473">
        <ele>2063</ele>
        <time>2023-02-05T11:17:59Z</time>
      </trkpt>
      <trkpt lat="44.13756" lon="7.23472">
        <ele>2062.9</ele>
        <time>2023-02-05T11:18:00Z</time>
      </trkpt>
      <trkpt lat="44.13756" lon="7.23472">
        <ele>2062.8</ele>
        <time>2023-02-05T11:18:01Z</time>
      </trkpt>
      <trkpt lat="44.13756" lon="7.23472">
        <ele>2062.7</ele>
        <time>2023-02-05T11:18:02Z</time>
      </trkpt>
      <trkpt lat="44.13756" lon="7.23472">
        <ele>2062.8</ele>
        <time>2023-02-05T11:18:03Z</time>
      </trkpt>
      <trkpt lat="44.13756" lon="7.23471">
        <ele>2062.8</ele>
        <time>2023-02-05T11:18:04Z</time>
      </trkpt>
      <trkpt lat="44.13755" lon="7.23471">
        <ele>2062.9</ele>
        <time>2023-02-05T11:18:05Z</time>
      </trkpt>
      <trkpt lat="44.13755" lon="7.23471">
        <ele>2062.9</ele>
        <time>2023-02-05T11:18:06Z</time>
      </trkpt>
      <trkpt lat="44.13755" lon="7.23471">
        <ele>2063</ele>
        <time>2023-02-05T11:18:07Z</time>
      </trkpt>
      <trkpt lat="44.13754" lon="7.23471">
        <ele>2063</ele>
        <time>2023-02-05T11:18:08Z</time>
      </trkpt>
      <trkpt lat="44.13754" lon="7.23471">
        <ele>2063.2</ele>
        <time>2023-02-05T11:18:09Z</time>
      </trkpt>
      <trkpt lat="44.13754" lon="7.23471">
        <ele>2063.2</ele>
        <time>2023-02-05T11:18:10Z</time>
      </trkpt>
      <trkpt lat="44.13755" lon="7.2347">
        <ele>2063.2</ele>
        <time>2023-02-05T11:18:11Z</time>
      </trkpt>
      <trkpt lat="44.13755" lon="7.2347">
        <ele>2063.2</ele>
        <time>2023-02-05T11:18:12Z</time>
      </trkpt>
      <trkpt lat="44.13755" lon="7.2347">
        <ele>2063.2</ele>
        <time>2023-02-05T11:18:13Z</time>
      </trkpt>
      <trkpt lat="44.13755" lon="7.2347">
        <ele>2063.1</ele>
        <time>2023-02-05T11:18:14Z</time>
      </trkpt>
      <trkpt lat="44.13756" lon="7.2347">
        <ele>2063.1</ele>
        <time>2023-02-05T11:18:15Z</time>
      </trkpt>
      <trkpt lat="44.13756" lon="7.2347">
        <ele>2063.1</ele>
        <time>2023-02-05T11:18:16Z</time>
      </trkpt>
      <trkpt lat="44.13756" lon="7.2347">
        <ele>2063.1</ele>
        <time>2023-02-05T11:18:17Z</time>
      </trkpt>
      <trkpt lat="44.13756" lon="7.2347">
        <ele>2063.1</ele>
        <time>2023-02-05T11:18:18Z</time>
      </trkpt>
      <trkpt lat="44.13756" lon="7.23469">
        <ele>2063.2</ele>
        <time>2023-02-05T11:18:19Z</time>
      </trkpt>
      <trkpt lat="44.13756" lon="7.2347">
        <ele>2063.2</ele>
        <time>2023-02-05T11:18:20Z</time>
      </trkpt>
      <trkpt lat="44.13756" lon="7.23469">
        <ele>2063.2</ele>
        <time>2023-02-05T11:18:21Z</time>
      </trkpt>
      <trkpt lat="44.13756" lon="7.2347">
        <ele>2063.2</ele>
        <time>2023-02-05T11:18:22Z</time>
      </trkpt>
      <trkpt lat="44.13757" lon="7.23469">
        <ele>2063.2</ele>
        <time>2023-02-05T11:18:23Z</time>
      </trkpt>
      <trkpt lat="44.13757" lon="7.23469">
        <ele>2063.3</ele>
        <time>2023-02-05T11:18:24Z</time>
      </trkpt>
      <trkpt lat="44.13757" lon="7.2347">
        <ele>2063.4</ele>
        <time>2023-02-05T11:18:25Z</time>
      </trkpt>
      <trkpt lat="44.13757" lon="7.2347">
        <ele>2063.5</ele>
        <time>2023-02-05T11:18:26Z</time>
      </trkpt>
      <trkpt lat="44.13758" lon="7.2347">
        <ele>2063.4</ele>
        <time>2023-02-05T11:18:27Z</time>
      </trkpt>
      <trkpt lat="44.13758" lon="7.2347">
        <ele>2063.5</ele>
        <time>2023-02-05T11:18:28Z</time>
      </trkpt>
      <trkpt lat="44.13758" lon="7.2347">
        <ele>2063.5</ele>
        <time>2023-02-05T11:18:29Z</time>
      </trkpt>
      <trkpt lat="44.13758" lon="7.2347">
        <ele>2063.5</ele>
        <time>2023-02-05T11:18:30Z</time>
      </trkpt>
      <trkpt lat="44.13758" lon="7.2347">
        <ele>2063.5</ele>
        <time>2023-02-05T11:18:31Z</time>
      </trkpt>
      <trkpt lat="44.13758" lon="7.2347">
        <ele>2063.5</ele>
        <time>2023-02-05T11:18:32Z</time>
      </trkpt>
      <trkpt lat="44.13758" lon="7.2347">
        <ele>2063.6</ele>
        <time>2023-02-05T11:18:33Z</time>
      </trkpt>
      <trkpt lat="44.13758" lon="7.23471">
        <ele>2063.6</ele>
        <time>2023-02-05T11:18:34Z</time>
      </trkpt>
      <trkpt lat="44.13758" lon="7.23471">
        <ele>2063.6</ele>
        <time>2023-02-05T11:18:35Z</time>
      </trkpt>
      <trkpt lat="44.13758" lon="7.23471">
        <ele>2063.6</ele>
        <time>2023-02-05T11:18:36Z</time>
      </trkpt>
      <trkpt lat="44.13758" lon="7.23471">
        <ele>2063.6</ele>
        <time>2023-02-05T11:18:37Z</time>
      </trkpt>
      <trkpt lat="44.13758" lon="7.23472">
        <ele>2063.6</ele>
        <time>2023-02-05T11:18:38Z</time>
      </trkpt>
      <trkpt lat="44.13758" lon="7.23472">
        <ele>2063.6</ele>
        <time>2023-02-05T11:18:39Z</time>
      </trkpt>
      <trkpt lat="44.13758" lon="7.23472">
        <ele>2063.6</ele>
        <time>2023-02-05T11:18:40Z</time>
      </trkpt>
      <trkpt lat="44.13758" lon="7.23473">
        <ele>2063.6</ele>
        <time>2023-02-05T11:18:41Z</time>
      </trkpt>
      <trkpt lat="44.13758" lon="7.23473">
        <ele>2063.6</ele>
        <time>2023-02-05T11:18:42Z</time>
      </trkpt>
      <trkpt lat="44.13758" lon="7.23473">
        <ele>2063.5</ele>
        <time>2023-02-05T11:18:43Z</time>
      </trkpt>
      <trkpt lat="44.13758" lon="7.23472">
        <ele>2063.5</ele>
        <time>2023-02-05T11:18:44Z</time>
      </trkpt>
      <trkpt lat="44.13758" lon="7.23472">
        <ele>2063.5</ele>
        <time>2023-02-05T11:18:45Z</time>
      </trkpt>
      <trkpt lat="44.13758" lon="7.23471">
        <ele>2063.5</ele>
        <time>2023-02-05T11:18:46Z</time>
      </trkpt>
      <trkpt lat="44.13758" lon="7.2347">
        <ele>2063.5</ele>
        <time>2023-02-05T11:18:47Z</time>
      </trkpt>
      <trkpt lat="44.13757" lon="7.23469">
        <ele>2063.5</ele>
        <time>2023-02-05T11:18:48Z</time>
      </trkpt>
      <trkpt lat="44.13757" lon="7.23468">
        <ele>2063.3</ele>
        <time>2023-02-05T11:18:49Z</time>
      </trkpt>
      <trkpt lat="44.13757" lon="7.23467">
        <ele>2063.3</ele>
        <time>2023-02-05T11:18:50Z</time>
      </trkpt>
      <trkpt lat="44.13757" lon="7.23466">
        <ele>2063.2</ele>
        <time>2023-02-05T11:18:51Z</time>
      </trkpt>
      <trkpt lat="44.13757" lon="7.23465">
        <ele>2063.2</ele>
        <time>2023-02-05T11:18:52Z</time>
      </trkpt>
      <trkpt lat="44.13757" lon="7.23465">
        <ele>2063.1</ele>
        <time>2023-02-05T11:18:53Z</time>
      </trkpt>
      <trkpt lat="44.13757" lon="7.23464">
        <ele>2063</ele>
        <time>2023-02-05T11:18:54Z</time>
      </trkpt>
      <trkpt lat="44.13757" lon="7.23462">
        <ele>2062.8</ele>
        <time>2023-02-05T11:18:55Z</time>
      </trkpt>
      <trkpt lat="44.13757" lon="7.23461">
        <ele>2062.7</ele>
        <time>2023-02-05T11:18:56Z</time>
      </trkpt>
      <trkpt lat="44.13757" lon="7.23461">
        <ele>2062.7</ele>
        <time>2023-02-05T11:18:57Z</time>
      </trkpt>
      <trkpt lat="44.13757" lon="7.2346">
        <ele>2062.7</ele>
        <time>2023-02-05T11:18:58Z</time>
      </trkpt>
      <trkpt lat="44.13756" lon="7.2346">
        <ele>2062.6</ele>
        <time>2023-02-05T11:18:59Z</time>
      </trkpt>
      <trkpt lat="44.13756" lon="7.2346">
        <ele>2062.6</ele>
        <time>2023-02-05T11:19:00Z</time>
      </trkpt>
      <trkpt lat="44.13755" lon="7.2346">
        <ele>2062.5</ele>
        <time>2023-02-05T11:19:01Z</time>
      </trkpt>
      <trkpt lat="44.13755" lon="7.2346">
        <ele>2062.5</ele>
        <time>2023-02-05T11:19:02Z</time>
      </trkpt>
      <trkpt lat="44.13754" lon="7.23461">
        <ele>2062.5</ele>
        <time>2023-02-05T11:19:03Z</time>
      </trkpt>
      <trkpt lat="44.13754" lon="7.23461">
        <ele>2062.6</ele>
        <time>2023-02-05T11:19:04Z</time>
      </trkpt>
      <trkpt lat="44.13754" lon="7.23461">
        <ele>2062.7</ele>
        <time>2023-02-05T11:19:05Z</time>
      </trkpt>
      <trkpt lat="44.13754" lon="7.23461">
        <ele>2062.7</ele>
        <time>2023-02-05T11:19:06Z</time>
      </trkpt>
      <trkpt lat="44.13753" lon="7.23461">
        <ele>2062.8</ele>
        <time>2023-02-05T11:19:07Z</time>
      </trkpt>
      <trkpt lat="44.13753" lon="7.23461">
        <ele>2062.8</ele>
        <time>2023-02-05T11:19:08Z</time>
      </trkpt>
      <trkpt lat="44.13753" lon="7.23461">
        <ele>2062.8</ele>
        <time>2023-02-05T11:19:09Z</time>
      </trkpt>
      <trkpt lat="44.13753" lon="7.23461">
        <ele>2062.8</ele>
        <time>2023-02-05T11:19:10Z</time>
      </trkpt>
      <trkpt lat="44.13753" lon="7.23461">
        <ele>2062.9</ele>
        <time>2023-02-05T11:19:11Z</time>
      </trkpt>
      <trkpt lat="44.13752" lon="7.23462">
        <ele>2062.8</ele>
        <time>2023-02-05T11:19:12Z</time>
      </trkpt>
      <trkpt lat="44.13752" lon="7.23462">
        <ele>2062.8</ele>
        <time>2023-02-05T11:19:13Z</time>
      </trkpt>
      <trkpt lat="44.13752" lon="7.23462">
        <ele>2062.8</ele>
        <time>2023-02-05T11:19:14Z</time>
      </trkpt>
      <trkpt lat="44.13752" lon="7.23462">
        <ele>2062.8</ele>
        <time>2023-02-05T11:19:15Z</time>
      </trkpt>
      <trkpt lat="44.13752" lon="7.23462">
        <ele>2062.7</ele>
        <time>2023-02-05T11:19:16Z</time>
      </trkpt>
      <trkpt lat="44.13752" lon="7.23462">
        <ele>2062.7</ele>
        <time>2023-02-05T11:19:17Z</time>
      </trkpt>
      <trkpt lat="44.13752" lon="7.23462">
        <ele>2062.5</ele>
        <time>2023-02-05T11:19:18Z</time>
      </trkpt>
      <trkpt lat="44.13752" lon="7.23462">
        <ele>2062.4</ele>
        <time>2023-02-05T11:19:19Z</time>
      </trkpt>
      <trkpt lat="44.13752" lon="7.23462">
        <ele>2062.4</ele>
        <time>2023-02-05T11:19:20Z</time>
      </trkpt>
      <trkpt lat="44.13752" lon="7.23462">
        <ele>2062.4</ele>
        <time>2023-02-05T11:19:21Z</time>
      </trkpt>
      <trkpt lat="44.13752" lon="7.23462">
        <ele>2062.4</ele>
        <time>2023-02-05T11:19:22Z</time>
      </trkpt>
      <trkpt lat="44.13752" lon="7.23463">
        <ele>2062.4</ele>
        <time>2023-02-05T11:19:23Z</time>
      </trkpt>
      <trkpt lat="44.13752" lon="7.23463">
        <ele>2062.4</ele>
        <time>2023-02-05T11:19:24Z</time>
      </trkpt>
      <trkpt lat="44.13752" lon="7.23463">
        <ele>2062.4</ele>
        <time>2023-02-05T11:19:25Z</time>
      </trkpt>
      <trkpt lat="44.13752" lon="7.23463">
        <ele>2062.5</ele>
        <time>2023-02-05T11:19:26Z</time>
      </trkpt>
      <trkpt lat="44.13752" lon="7.23463">
        <ele>2062.5</ele>
        <time>2023-02-05T11:19:27Z</time>
      </trkpt>
      <trkpt lat="44.13753" lon="7.23463">
        <ele>2062.5</ele>
        <time>2023-02-05T11:19:28Z</time>
      </trkpt>
      <trkpt lat="44.13752" lon="7.23463">
        <ele>2062.6</ele>
        <time>2023-02-05T11:19:29Z</time>
      </trkpt>
      <trkpt lat="44.13752" lon="7.23463">
        <ele>2062.6</ele>
        <time>2023-02-05T11:19:30Z</time>
      </trkpt>
      <trkpt lat="44.13752" lon="7.23463">
        <ele>2062.6</ele>
        <time>2023-02-05T11:19:31Z</time>
      </trkpt>
      <trkpt lat="44.13752" lon="7.23463">
        <ele>2062.7</ele>
        <time>2023-02-05T11:19:32Z</time>
      </trkpt>
      <trkpt lat="44.13752" lon="7.23463">
        <ele>2062.7</ele>
        <time>2023-02-05T11:19:33Z</time>
      </trkpt>
      <trkpt lat="44.13752" lon="7.23463">
        <ele>2062.7</ele>
        <time>2023-02-05T11:19:34Z</time>
      </trkpt>
      <trkpt lat="44.13752" lon="7.23463">
        <ele>2062.7</ele>
        <time>2023-02-05T11:19:35Z</time>
      </trkpt>
      <trkpt lat="44.13752" lon="7.23463">
        <ele>2062.7</ele>
        <time>2023-02-05T11:19:36Z</time>
      </trkpt>
      <trkpt lat="44.13752" lon="7.23463">
        <ele>2062.7</ele>
        <time>2023-02-05T11:19:37Z</time>
      </trkpt>
      <trkpt lat="44.13752" lon="7.23463">
        <ele>2062.7</ele>
        <time>2023-02-05T11:19:38Z</time>
      </trkpt>
      <trkpt lat="44.13751" lon="7.23463">
        <ele>2062.7</ele>
        <time>2023-02-05T11:19:39Z</time>
      </trkpt>
      <trkpt lat="44.13751" lon="7.23463">
        <ele>2062.7</ele>
        <time>2023-02-05T11:19:40Z</time>
      </trkpt>
      <trkpt lat="44.13751" lon="7.23463">
        <ele>2062.7</ele>
        <time>2023-02-05T11:19:41Z</time>
      </trkpt>
      <trkpt lat="44.13751" lon="7.23463">
        <ele>2062.6</ele>
        <time>2023-02-05T11:19:42Z</time>
      </trkpt>
      <trkpt lat="44.13751" lon="7.23463">
        <ele>2062.6</ele>
        <time>2023-02-05T11:19:43Z</time>
      </trkpt>
      <trkpt lat="44.13751" lon="7.23463">
        <ele>2062.7</ele>
        <time>2023-02-05T11:19:44Z</time>
      </trkpt>
      <trkpt lat="44.13751" lon="7.23463">
        <ele>2062.6</ele>
        <time>2023-02-05T11:19:45Z</time>
      </trkpt>
      <trkpt lat="44.13751" lon="7.23463">
        <ele>2062.6</ele>
        <time>2023-02-05T11:19:46Z</time>
      </trkpt>
      <trkpt lat="44.13751" lon="7.23463">
        <ele>2062.6</ele>
        <time>2023-02-05T11:19:47Z</time>
      </trkpt>
      <trkpt lat="44.13751" lon="7.23463">
        <ele>2062.5</ele>
        <time>2023-02-05T11:19:48Z</time>
      </trkpt>
      <trkpt lat="44.13751" lon="7.23463">
        <ele>2062.5</ele>
        <time>2023-02-05T11:19:49Z</time>
      </trkpt>
      <trkpt lat="44.13751" lon="7.23463">
        <ele>2062.5</ele>
        <time>2023-02-05T11:19:50Z</time>
      </trkpt>
      <trkpt lat="44.13751" lon="7.23463">
        <ele>2062.6</ele>
        <time>2023-02-05T11:19:51Z</time>
      </trkpt>
      <trkpt lat="44.13751" lon="7.23463">
        <ele>2062.6</ele>
        <time>2023-02-05T11:19:52Z</time>
      </trkpt>
      <trkpt lat="44.13751" lon="7.23463">
        <ele>2062.6</ele>
        <time>2023-02-05T11:19:53Z</time>
      </trkpt>
      <trkpt lat="44.13751" lon="7.23463">
        <ele>2062.6</ele>
        <time>2023-02-05T11:19:54Z</time>
      </trkpt>
      <trkpt lat="44.13751" lon="7.23463">
        <ele>2062.6</ele>
        <time>2023-02-05T11:19:55Z</time>
      </trkpt>
      <trkpt lat="44.13751" lon="7.23463">
        <ele>2062.6</ele>
        <time>2023-02-05T11:19:56Z</time>
      </trkpt>
      <trkpt lat="44.13751" lon="7.23463">
        <ele>2062.6</ele>
        <time>2023-02-05T11:19:57Z</time>
      </trkpt>
      <trkpt lat="44.13751" lon="7.23463">
        <ele>2062.5</ele>
        <time>2023-02-05T11:19:58Z</time>
      </trkpt>
      <trkpt lat="44.13751" lon="7.23463">
        <ele>2062.5</ele>
        <time>2023-02-05T11:19:59Z</time>
      </trkpt>
      <trkpt lat="44.13751" lon="7.23464">
        <ele>2062.4</ele>
        <time>2023-02-05T11:20:00Z</time>
      </trkpt>
      <trkpt lat="44.13752" lon="7.23464">
        <ele>2062.4</ele>
        <time>2023-02-05T11:20:01Z</time>
      </trkpt>
      <trkpt lat="44.13752" lon="7.23464">
        <ele>2062.3</ele>
        <time>2023-02-05T11:20:02Z</time>
      </trkpt>
      <trkpt lat="44.13751" lon="7.23465">
        <ele>2062.4</ele>
        <time>2023-02-05T11:20:03Z</time>
      </trkpt>
      <trkpt lat="44.13751" lon="7.23465">
        <ele>2062.4</ele>
        <time>2023-02-05T11:20:04Z</time>
      </trkpt>
      <trkpt lat="44.13751" lon="7.23465">
        <ele>2062.4</ele>
        <time>2023-02-05T11:20:05Z</time>
      </trkpt>
      <trkpt lat="44.13751" lon="7.23465">
        <ele>2062.4</ele>
        <time>2023-02-05T11:20:06Z</time>
      </trkpt>
      <trkpt lat="44.13751" lon="7.23465">
        <ele>2062.4</ele>
        <time>2023-02-05T11:20:07Z</time>
      </trkpt>
      <trkpt lat="44.13751" lon="7.23465">
        <ele>2062.4</ele>
        <time>2023-02-05T11:20:08Z</time>
      </trkpt>
      <trkpt lat="44.13752" lon="7.23465">
        <ele>2062.4</ele>
        <time>2023-02-05T11:20:09Z</time>
      </trkpt>
      <trkpt lat="44.13752" lon="7.23465">
        <ele>2062.4</ele>
        <time>2023-02-05T11:20:10Z</time>
      </trkpt>
      <trkpt lat="44.13751" lon="7.23465">
        <ele>2062.4</ele>
        <time>2023-02-05T11:20:11Z</time>
      </trkpt>
      <trkpt lat="44.13751" lon="7.23465">
        <ele>2062.4</ele>
        <time>2023-02-05T11:20:12Z</time>
      </trkpt>
      <trkpt lat="44.13751" lon="7.23466">
        <ele>2062.3</ele>
        <time>2023-02-05T11:20:13Z</time>
      </trkpt>
      <trkpt lat="44.13751" lon="7.23465">
        <ele>2062.4</ele>
        <time>2023-02-05T11:20:14Z</time>
      </trkpt>
      <trkpt lat="44.13751" lon="7.23465">
        <ele>2062.4</ele>
        <time>2023-02-05T11:20:15Z</time>
      </trkpt>
      <trkpt lat="44.13751" lon="7.23465">
        <ele>2062.3</ele>
        <time>2023-02-05T11:20:16Z</time>
      </trkpt>
      <trkpt lat="44.13751" lon="7.23465">
        <ele>2062.4</ele>
        <time>2023-02-05T11:20:17Z</time>
      </trkpt>
      <trkpt lat="44.13751" lon="7.23464">
        <ele>2062.5</ele>
        <time>2023-02-05T11:20:18Z</time>
      </trkpt>
      <trkpt lat="44.13752" lon="7.23463">
        <ele>2062.6</ele>
        <time>2023-02-05T11:20:19Z</time>
      </trkpt>
      <trkpt lat="44.13752" lon="7.23463">
        <ele>2062.6</ele>
        <time>2023-02-05T11:20:20Z</time>
      </trkpt>
      <trkpt lat="44.13752" lon="7.23463">
        <ele>2062.7</ele>
        <time>2023-02-05T11:20:21Z</time>
      </trkpt>
      <trkpt lat="44.13751" lon="7.23463">
        <ele>2062.8</ele>
        <time>2023-02-05T11:20:22Z</time>
      </trkpt>
      <trkpt lat="44.13752" lon="7.23463">
        <ele>2063</ele>
        <time>2023-02-05T11:20:23Z</time>
      </trkpt>
      <trkpt lat="44.13752" lon="7.23463">
        <ele>2063.1</ele>
        <time>2023-02-05T11:20:24Z</time>
      </trkpt>
      <trkpt lat="44.13753" lon="7.23463">
        <ele>2063.2</ele>
        <time>2023-02-05T11:20:25Z</time>
      </trkpt>
      <trkpt lat="44.13753" lon="7.23462">
        <ele>2063.3</ele>
        <time>2023-02-05T11:20:26Z</time>
      </trkpt>
      <trkpt lat="44.13753" lon="7.23462">
        <ele>2063.4</ele>
        <time>2023-02-05T11:20:27Z</time>
      </trkpt>
      <trkpt lat="44.13754" lon="7.23461">
        <ele>2063.4</ele>
        <time>2023-02-05T11:20:28Z</time>
      </trkpt>
      <trkpt lat="44.13754" lon="7.23461">
        <ele>2063.4</ele>
        <time>2023-02-05T11:20:29Z</time>
      </trkpt>
      <trkpt lat="44.13754" lon="7.2346">
        <ele>2063.5</ele>
        <time>2023-02-05T11:20:30Z</time>
      </trkpt>
      <trkpt lat="44.13754" lon="7.2346">
        <ele>2063.5</ele>
        <time>2023-02-05T11:20:31Z</time>
      </trkpt>
      <trkpt lat="44.13755" lon="7.23459">
        <ele>2063.5</ele>
        <time>2023-02-05T11:20:32Z</time>
      </trkpt>
      <trkpt lat="44.13755" lon="7.23459">
        <ele>2063.5</ele>
        <time>2023-02-05T11:20:33Z</time>
      </trkpt>
      <trkpt lat="44.13755" lon="7.23459">
        <ele>2063.6</ele>
        <time>2023-02-05T11:20:34Z</time>
      </trkpt>
      <trkpt lat="44.13755" lon="7.23458">
        <ele>2063.7</ele>
        <time>2023-02-05T11:20:35Z</time>
      </trkpt>
      <trkpt lat="44.13755" lon="7.23458">
        <ele>2063.6</ele>
        <time>2023-02-05T11:20:36Z</time>
      </trkpt>
      <trkpt lat="44.13755" lon="7.23458">
        <ele>2063.5</ele>
        <time>2023-02-05T11:20:37Z</time>
      </trkpt>
      <trkpt lat="44.13755" lon="7.23458">
        <ele>2063.5</ele>
        <time>2023-02-05T11:20:38Z</time>
      </trkpt>
      <trkpt lat="44.13755" lon="7.23457">
        <ele>2063.4</ele>
        <time>2023-02-05T11:20:39Z</time>
      </trkpt>
      <trkpt lat="44.13756" lon="7.23457">
        <ele>2063.4</ele>
        <time>2023-02-05T11:20:40Z</time>
      </trkpt>
      <trkpt lat="44.13756" lon="7.23457">
        <ele>2063.4</ele>
        <time>2023-02-05T11:20:41Z</time>
      </trkpt>
      <trkpt lat="44.13756" lon="7.23457">
        <ele>2063.4</ele>
        <time>2023-02-05T11:20:42Z</time>
      </trkpt>
      <trkpt lat="44.13756" lon="7.23457">
        <ele>2063.4</ele>
        <time>2023-02-05T11:20:43Z</time>
      </trkpt>
      <trkpt lat="44.13756" lon="7.23457">
        <ele>2063.4</ele>
        <time>2023-02-05T11:20:44Z</time>
      </trkpt>
      <trkpt lat="44.13756" lon="7.23457">
        <ele>2063.5</ele>
        <time>2023-02-05T11:20:45Z</time>
      </trkpt>
      <trkpt lat="44.13756" lon="7.23457">
        <ele>2063.6</ele>
        <time>2023-02-05T11:20:46Z</time>
      </trkpt>
      <trkpt lat="44.13756" lon="7.23457">
        <ele>2063.6</ele>
        <time>2023-02-05T11:20:47Z</time>
      </trkpt>
      <trkpt lat="44.13756" lon="7.23456">
        <ele>2063.7</ele>
        <time>2023-02-05T11:20:48Z</time>
      </trkpt>
      <trkpt lat="44.13756" lon="7.23456">
        <ele>2063.7</ele>
        <time>2023-02-05T11:20:49Z</time>
      </trkpt>
      <trkpt lat="44.13756" lon="7.23456">
        <ele>2063.7</ele>
        <time>2023-02-05T11:20:50Z</time>
      </trkpt>
      <trkpt lat="44.13756" lon="7.23456">
        <ele>2063.6</ele>
        <time>2023-02-05T11:20:51Z</time>
      </trkpt>
      <trkpt lat="44.13756" lon="7.23456">
        <ele>2063.6</ele>
        <time>2023-02-05T11:20:52Z</time>
      </trkpt>
      <trkpt lat="44.13756" lon="7.23456">
        <ele>2063.7</ele>
        <time>2023-02-05T11:20:53Z</time>
      </trkpt>
      <trkpt lat="44.13756" lon="7.23456">
        <ele>2063.7</ele>
        <time>2023-02-05T11:20:54Z</time>
      </trkpt>
      <trkpt lat="44.13756" lon="7.23456">
        <ele>2063.7</ele>
        <time>2023-02-05T11:20:55Z</time>
      </trkpt>
      <trkpt lat="44.13756" lon="7.23455">
        <ele>2063.7</ele>
        <time>2023-02-05T11:20:56Z</time>
      </trkpt>
      <trkpt lat="44.13756" lon="7.23455">
        <ele>2063.9</ele>
        <time>2023-02-05T11:20:57Z</time>
      </trkpt>
      <trkpt lat="44.13756" lon="7.23455">
        <ele>2063.9</ele>
        <time>2023-02-05T11:20:58Z</time>
      </trkpt>
      <trkpt lat="44.13756" lon="7.23455">
        <ele>2063.9</ele>
        <time>2023-02-05T11:20:59Z</time>
      </trkpt>
      <trkpt lat="44.13756" lon="7.23455">
        <ele>2064</ele>
        <time>2023-02-05T11:21:00Z</time>
      </trkpt>
      <trkpt lat="44.13756" lon="7.23454">
        <ele>2064</ele>
        <time>2023-02-05T11:21:01Z</time>
      </trkpt>
      <trkpt lat="44.13756" lon="7.23454">
        <ele>2064</ele>
        <time>2023-02-05T11:21:02Z</time>
      </trkpt>
      <trkpt lat="44.13756" lon="7.23455">
        <ele>2064</ele>
        <time>2023-02-05T11:21:03Z</time>
      </trkpt>
      <trkpt lat="44.13757" lon="7.23455">
        <ele>2063.9</ele>
        <time>2023-02-05T11:21:04Z</time>
      </trkpt>
      <trkpt lat="44.13757" lon="7.23455">
        <ele>2063.9</ele>
        <time>2023-02-05T11:21:05Z</time>
      </trkpt>
      <trkpt lat="44.13757" lon="7.23455">
        <ele>2063.9</ele>
        <time>2023-02-05T11:21:06Z</time>
      </trkpt>
      <trkpt lat="44.13757" lon="7.23455">
        <ele>2063.8</ele>
        <time>2023-02-05T11:21:07Z</time>
      </trkpt>
      <trkpt lat="44.13757" lon="7.23455">
        <ele>2063.8</ele>
        <time>2023-02-05T11:21:08Z</time>
      </trkpt>
      <trkpt lat="44.13756" lon="7.23454">
        <ele>2063.9</ele>
        <time>2023-02-05T11:21:09Z</time>
      </trkpt>
      <trkpt lat="44.13756" lon="7.23454">
        <ele>2063.9</ele>
        <time>2023-02-05T11:21:10Z</time>
      </trkpt>
      <trkpt lat="44.13757" lon="7.23454">
        <ele>2063.9</ele>
        <time>2023-02-05T11:21:11Z</time>
      </trkpt>
      <trkpt lat="44.13757" lon="7.23454">
        <ele>2064</ele>
        <time>2023-02-05T11:21:12Z</time>
      </trkpt>
      <trkpt lat="44.13757" lon="7.23454">
        <ele>2064</ele>
        <time>2023-02-05T11:21:13Z</time>
      </trkpt>
      <trkpt lat="44.13757" lon="7.23454">
        <ele>2064.1</ele>
        <time>2023-02-05T11:21:14Z</time>
      </trkpt>
      <trkpt lat="44.13757" lon="7.23454">
        <ele>2064.1</ele>
        <time>2023-02-05T11:21:15Z</time>
      </trkpt>
      <trkpt lat="44.13757" lon="7.23454">
        <ele>2064.1</ele>
        <time>2023-02-05T11:21:16Z</time>
      </trkpt>
      <trkpt lat="44.13757" lon="7.23454">
        <ele>2064.1</ele>
        <time>2023-02-05T11:21:17Z</time>
      </trkpt>
      <trkpt lat="44.13757" lon="7.23454">
        <ele>2064.1</ele>
        <time>2023-02-05T11:21:18Z</time>
      </trkpt>
      <trkpt lat="44.13757" lon="7.23454">
        <ele>2064.1</ele>
        <time>2023-02-05T11:21:19Z</time>
      </trkpt>
      <trkpt lat="44.13757" lon="7.23454">
        <ele>2064.1</ele>
        <time>2023-02-05T11:21:20Z</time>
      </trkpt>
      <trkpt lat="44.13757" lon="7.23454">
        <ele>2064.1</ele>
        <time>2023-02-05T11:21:21Z</time>
      </trkpt>
      <trkpt lat="44.13757" lon="7.23454">
        <ele>2064.1</ele>
        <time>2023-02-05T11:21:22Z</time>
      </trkpt>
      <trkpt lat="44.13757" lon="7.23454">
        <ele>2064.1</ele>
        <time>2023-02-05T11:21:23Z</time>
      </trkpt>
      <trkpt lat="44.13757" lon="7.23454">
        <ele>2064.1</ele>
        <time>2023-02-05T11:21:24Z</time>
      </trkpt>
      <trkpt lat="44.13757" lon="7.23454">
        <ele>2064.1</ele>
        <time>2023-02-05T11:21:25Z</time>
      </trkpt>
      <trkpt lat="44.13757" lon="7.23454">
        <ele>2064</ele>
        <time>2023-02-05T11:21:26Z</time>
      </trkpt>
      <trkpt lat="44.13757" lon="7.23453">
        <ele>2064</ele>
        <time>2023-02-05T11:21:27Z</time>
      </trkpt>
      <trkpt lat="44.13757" lon="7.23453">
        <ele>2064</ele>
        <time>2023-02-05T11:21:28Z</time>
      </trkpt>
      <trkpt lat="44.13758" lon="7.23454">
        <ele>2064</ele>
        <time>2023-02-05T11:21:29Z</time>
      </trkpt>
      <trkpt lat="44.13758" lon="7.23453">
        <ele>2064</ele>
        <time>2023-02-05T11:21:30Z</time>
      </trkpt>
      <trkpt lat="44.13758" lon="7.23453">
        <ele>2064</ele>
        <time>2023-02-05T11:21:31Z</time>
      </trkpt>
      <trkpt lat="44.13757" lon="7.23453">
        <ele>2063.9</ele>
        <time>2023-02-05T11:21:32Z</time>
      </trkpt>
      <trkpt lat="44.13757" lon="7.23453">
        <ele>2063.9</ele>
        <time>2023-02-05T11:21:33Z</time>
      </trkpt>
      <trkpt lat="44.13757" lon="7.23453">
        <ele>2063.8</ele>
        <time>2023-02-05T11:21:34Z</time>
      </trkpt>
      <trkpt lat="44.13757" lon="7.23453">
        <ele>2063.8</ele>
        <time>2023-02-05T11:21:35Z</time>
      </trkpt>
      <trkpt lat="44.13757" lon="7.23453">
        <ele>2063.8</ele>
        <time>2023-02-05T11:21:36Z</time>
      </trkpt>
      <trkpt lat="44.13757" lon="7.23453">
        <ele>2063.8</ele>
        <time>2023-02-05T11:21:37Z</time>
      </trkpt>
      <trkpt lat="44.13757" lon="7.23453">
        <ele>2063.8</ele>
        <time>2023-02-05T11:21:38Z</time>
      </trkpt>
      <trkpt lat="44.13757" lon="7.23453">
        <ele>2063.8</ele>
        <time>2023-02-05T11:21:39Z</time>
      </trkpt>
      <trkpt lat="44.13757" lon="7.23453">
        <ele>2063.7</ele>
        <time>2023-02-05T11:21:40Z</time>
      </trkpt>
      <trkpt lat="44.13757" lon="7.23453">
        <ele>2063.8</ele>
        <time>2023-02-05T11:21:41Z</time>
      </trkpt>
      <trkpt lat="44.13757" lon="7.23453">
        <ele>2063.8</ele>
        <time>2023-02-05T11:21:42Z</time>
      </trkpt>
      <trkpt lat="44.13757" lon="7.23452">
        <ele>2063.8</ele>
        <time>2023-02-05T11:21:43Z</time>
      </trkpt>
      <trkpt lat="44.13757" lon="7.23452">
        <ele>2063.8</ele>
        <time>2023-02-05T11:21:44Z</time>
      </trkpt>
      <trkpt lat="44.13757" lon="7.23452">
        <ele>2063.7</ele>
        <time>2023-02-05T11:21:45Z</time>
      </trkpt>
      <trkpt lat="44.13757" lon="7.23452">
        <ele>2063.7</ele>
        <time>2023-02-05T11:21:46Z</time>
      </trkpt>
      <trkpt lat="44.13757" lon="7.23452">
        <ele>2063.7</ele>
        <time>2023-02-05T11:21:47Z</time>
      </trkpt>
      <trkpt lat="44.13757" lon="7.23452">
        <ele>2063.7</ele>
        <time>2023-02-05T11:21:48Z</time>
      </trkpt>
      <trkpt lat="44.13757" lon="7.23452">
        <ele>2063.8</ele>
        <time>2023-02-05T11:21:49Z</time>
      </trkpt>
      <trkpt lat="44.13758" lon="7.23452">
        <ele>2063.7</ele>
        <time>2023-02-05T11:21:50Z</time>
      </trkpt>
      <trkpt lat="44.13757" lon="7.23452">
        <ele>2063.7</ele>
        <time>2023-02-05T11:21:51Z</time>
      </trkpt>
      <trkpt lat="44.13757" lon="7.23452">
        <ele>2063.7</ele>
        <time>2023-02-05T11:21:52Z</time>
      </trkpt>
      <trkpt lat="44.13757" lon="7.23452">
        <ele>2063.8</ele>
        <time>2023-02-05T11:21:53Z</time>
      </trkpt>
      <trkpt lat="44.13758" lon="7.23453">
        <ele>2063.9</ele>
        <time>2023-02-05T11:21:54Z</time>
      </trkpt>
      <trkpt lat="44.13758" lon="7.23453">
        <ele>2063.9</ele>
        <time>2023-02-05T11:21:55Z</time>
      </trkpt>
      <trkpt lat="44.13758" lon="7.23452">
        <ele>2064.2</ele>
        <time>2023-02-05T11:21:56Z</time>
      </trkpt>
      <trkpt lat="44.13758" lon="7.23452">
        <ele>2064.2</ele>
        <time>2023-02-05T11:21:57Z</time>
      </trkpt>
      <trkpt lat="44.13758" lon="7.23452">
        <ele>2064.2</ele>
        <time>2023-02-05T11:21:58Z</time>
      </trkpt>
      <trkpt lat="44.13758" lon="7.23452">
        <ele>2064.1</ele>
        <time>2023-02-05T11:21:59Z</time>
      </trkpt>
      <trkpt lat="44.13758" lon="7.23453">
        <ele>2064.1</ele>
        <time>2023-02-05T11:22:00Z</time>
      </trkpt>
      <trkpt lat="44.13759" lon="7.23453">
        <ele>2064.2</ele>
        <time>2023-02-05T11:22:01Z</time>
      </trkpt>
      <trkpt lat="44.13759" lon="7.23453">
        <ele>2064</ele>
        <time>2023-02-05T11:22:02Z</time>
      </trkpt>
      <trkpt lat="44.13759" lon="7.23453">
        <ele>2064</ele>
        <time>2023-02-05T11:22:03Z</time>
      </trkpt>
      <trkpt lat="44.13759" lon="7.23453">
        <ele>2064</ele>
        <time>2023-02-05T11:22:04Z</time>
      </trkpt>
      <trkpt lat="44.13759" lon="7.23453">
        <ele>2063.8</ele>
        <time>2023-02-05T11:22:05Z</time>
      </trkpt>
      <trkpt lat="44.13759" lon="7.23453">
        <ele>2063.8</ele>
        <time>2023-02-05T11:22:06Z</time>
      </trkpt>
      <trkpt lat="44.1376" lon="7.23453">
        <ele>2063.8</ele>
        <time>2023-02-05T11:22:07Z</time>
      </trkpt>
      <trkpt lat="44.1376" lon="7.23453">
        <ele>2063.8</ele>
        <time>2023-02-05T11:22:08Z</time>
      </trkpt>
      <trkpt lat="44.1376" lon="7.23453">
        <ele>2063.8</ele>
        <time>2023-02-05T11:22:09Z</time>
      </trkpt>
      <trkpt lat="44.1376" lon="7.23454">
        <ele>2063.8</ele>
        <time>2023-02-05T11:22:10Z</time>
      </trkpt>
      <trkpt lat="44.13761" lon="7.23454">
        <ele>2063.8</ele>
        <time>2023-02-05T11:22:11Z</time>
      </trkpt>
      <trkpt lat="44.13761" lon="7.23454">
        <ele>2063.9</ele>
        <time>2023-02-05T11:22:12Z</time>
      </trkpt>
      <trkpt lat="44.1376" lon="7.23454">
        <ele>2063.8</ele>
        <time>2023-02-05T11:22:13Z</time>
      </trkpt>
      <trkpt lat="44.1376" lon="7.23454">
        <ele>2063.7</ele>
        <time>2023-02-05T11:22:14Z</time>
      </trkpt>
      <trkpt lat="44.1376" lon="7.23454">
        <ele>2063.7</ele>
        <time>2023-02-05T11:22:15Z</time>
      </trkpt>
      <trkpt lat="44.1376" lon="7.23454">
        <ele>2063.7</ele>
        <time>2023-02-05T11:22:16Z</time>
      </trkpt>
      <trkpt lat="44.1376" lon="7.23454">
        <ele>2063.8</ele>
        <time>2023-02-05T11:22:17Z</time>
      </trkpt>
      <trkpt lat="44.1376" lon="7.23454">
        <ele>2063.9</ele>
        <time>2023-02-05T11:22:18Z</time>
      </trkpt>
      <trkpt lat="44.1376" lon="7.23454">
        <ele>2063.9</ele>
        <time>2023-02-05T11:22:19Z</time>
      </trkpt>
      <trkpt lat="44.1376" lon="7.23454">
        <ele>2063.9</ele>
        <time>2023-02-05T11:22:20Z</time>
      </trkpt>
      <trkpt lat="44.1376" lon="7.23454">
        <ele>2063.9</ele>
        <time>2023-02-05T11:22:21Z</time>
      </trkpt>
      <trkpt lat="44.1376" lon="7.23454">
        <ele>2063.9</ele>
        <time>2023-02-05T11:22:22Z</time>
      </trkpt>
      <trkpt lat="44.1376" lon="7.23454">
        <ele>2063.9</ele>
        <time>2023-02-05T11:22:23Z</time>
      </trkpt>
      <trkpt lat="44.1376" lon="7.23454">
        <ele>2063.9</ele>
        <time>2023-02-05T11:22:24Z</time>
      </trkpt>
      <trkpt lat="44.1376" lon="7.23454">
        <ele>2064</ele>
        <time>2023-02-05T11:22:25Z</time>
      </trkpt>
      <trkpt lat="44.1376" lon="7.23454">
        <ele>2064.1</ele>
        <time>2023-02-05T11:22:26Z</time>
      </trkpt>
      <trkpt lat="44.1376" lon="7.23454">
        <ele>2064.2</ele>
        <time>2023-02-05T11:22:27Z</time>
      </trkpt>
      <trkpt lat="44.1376" lon="7.23454">
        <ele>2064.2</ele>
        <time>2023-02-05T11:22:28Z</time>
      </trkpt>
      <trkpt lat="44.1376" lon="7.23454">
        <ele>2064.1</ele>
        <time>2023-02-05T11:22:29Z</time>
      </trkpt>
      <trkpt lat="44.1376" lon="7.23454">
        <ele>2064.1</ele>
        <time>2023-02-05T11:22:30Z</time>
      </trkpt>
      <trkpt lat="44.13759" lon="7.23455">
        <ele>2064.1</ele>
        <time>2023-02-05T11:22:31Z</time>
      </trkpt>
      <trkpt lat="44.13759" lon="7.23455">
        <ele>2064</ele>
        <time>2023-02-05T11:22:32Z</time>
      </trkpt>
      <trkpt lat="44.13759" lon="7.23454">
        <ele>2064</ele>
        <time>2023-02-05T11:22:33Z</time>
      </trkpt>
      <trkpt lat="44.13759" lon="7.23454">
        <ele>2063.9</ele>
        <time>2023-02-05T11:22:34Z</time>
      </trkpt>
      <trkpt lat="44.13759" lon="7.23454">
        <ele>2063.9</ele>
        <time>2023-02-05T11:22:35Z</time>
      </trkpt>
      <trkpt lat="44.13759" lon="7.23455">
        <ele>2063.9</ele>
        <time>2023-02-05T11:22:36Z</time>
      </trkpt>
      <trkpt lat="44.13759" lon="7.23455">
        <ele>2063.8</ele>
        <time>2023-02-05T11:22:37Z</time>
      </trkpt>
      <trkpt lat="44.13759" lon="7.23455">
        <ele>2063.9</ele>
        <time>2023-02-05T11:22:38Z</time>
      </trkpt>
      <trkpt lat="44.13759" lon="7.23455">
        <ele>2064</ele>
        <time>2023-02-05T11:22:39Z</time>
      </trkpt>
      <trkpt lat="44.13759" lon="7.23455">
        <ele>2064</ele>
        <time>2023-02-05T11:22:40Z</time>
      </trkpt>
      <trkpt lat="44.13759" lon="7.23455">
        <ele>2064</ele>
        <time>2023-02-05T11:22:41Z</time>
      </trkpt>
      <trkpt lat="44.13758" lon="7.23455">
        <ele>2064</ele>
        <time>2023-02-05T11:22:42Z</time>
      </trkpt>
      <trkpt lat="44.13758" lon="7.23455">
        <ele>2064</ele>
        <time>2023-02-05T11:22:43Z</time>
      </trkpt>
      <trkpt lat="44.13758" lon="7.23454">
        <ele>2064</ele>
        <time>2023-02-05T11:22:44Z</time>
      </trkpt>
      <trkpt lat="44.13758" lon="7.23455">
        <ele>2064</ele>
        <time>2023-02-05T11:22:45Z</time>
      </trkpt>
      <trkpt lat="44.13758" lon="7.23455">
        <ele>2063.8</ele>
        <time>2023-02-05T11:22:46Z</time>
      </trkpt>
      <trkpt lat="44.13757" lon="7.23455">
        <ele>2063.7</ele>
        <time>2023-02-05T11:22:47Z</time>
      </trkpt>
      <trkpt lat="44.13757" lon="7.23454">
        <ele>2063.7</ele>
        <time>2023-02-05T11:22:48Z</time>
      </trkpt>
      <trkpt lat="44.13757" lon="7.23454">
        <ele>2063.7</ele>
        <time>2023-02-05T11:22:49Z</time>
      </trkpt>
      <trkpt lat="44.13757" lon="7.23454">
        <ele>2063.6</ele>
        <time>2023-02-05T11:22:50Z</time>
      </trkpt>
      <trkpt lat="44.13757" lon="7.23454">
        <ele>2063.6</ele>
        <time>2023-02-05T11:22:51Z</time>
      </trkpt>
      <trkpt lat="44.13757" lon="7.23455">
        <ele>2063.6</ele>
        <time>2023-02-05T11:22:52Z</time>
      </trkpt>
      <trkpt lat="44.13756" lon="7.23454">
        <ele>2063.6</ele>
        <time>2023-02-05T11:22:53Z</time>
      </trkpt>
      <trkpt lat="44.13756" lon="7.23454">
        <ele>2063.7</ele>
        <time>2023-02-05T11:22:54Z</time>
      </trkpt>
      <trkpt lat="44.13756" lon="7.23454">
        <ele>2063.7</ele>
        <time>2023-02-05T11:22:55Z</time>
      </trkpt>
      <trkpt lat="44.13756" lon="7.23455">
        <ele>2063.8</ele>
        <time>2023-02-05T11:22:56Z</time>
      </trkpt>
      <trkpt lat="44.13756" lon="7.23455">
        <ele>2063.8</ele>
        <time>2023-02-05T11:22:57Z</time>
      </trkpt>
      <trkpt lat="44.13756" lon="7.23454">
        <ele>2063.9</ele>
        <time>2023-02-05T11:22:58Z</time>
      </trkpt>
      <trkpt lat="44.13756" lon="7.23454">
        <ele>2063.9</ele>
        <time>2023-02-05T11:22:59Z</time>
      </trkpt>
      <trkpt lat="44.13756" lon="7.23454">
        <ele>2064</ele>
        <time>2023-02-05T11:23:00Z</time>
      </trkpt>
      <trkpt lat="44.13755" lon="7.23454">
        <ele>2064.1</ele>
        <time>2023-02-05T11:23:01Z</time>
      </trkpt>
      <trkpt lat="44.13755" lon="7.23454">
        <ele>2064.1</ele>
        <time>2023-02-05T11:23:02Z</time>
      </trkpt>
      <trkpt lat="44.13755" lon="7.23454">
        <ele>2064.1</ele>
        <time>2023-02-05T11:23:03Z</time>
      </trkpt>
      <trkpt lat="44.13755" lon="7.23454">
        <ele>2064.1</ele>
        <time>2023-02-05T11:23:04Z</time>
      </trkpt>
      <trkpt lat="44.13755" lon="7.23454">
        <ele>2064</ele>
        <time>2023-02-05T11:23:05Z</time>
      </trkpt>
      <trkpt lat="44.13755" lon="7.23454">
        <ele>2064.1</ele>
        <time>2023-02-05T11:23:06Z</time>
      </trkpt>
      <trkpt lat="44.13755" lon="7.23454">
        <ele>2064.1</ele>
        <time>2023-02-05T11:23:07Z</time>
      </trkpt>
      <trkpt lat="44.13755" lon="7.23454">
        <ele>2064.2</ele>
        <time>2023-02-05T11:23:08Z</time>
      </trkpt>
      <trkpt lat="44.13755" lon="7.23453">
        <ele>2064.2</ele>
        <time>2023-02-05T11:23:09Z</time>
      </trkpt>
      <trkpt lat="44.13755" lon="7.23453">
        <ele>2064.2</ele>
        <time>2023-02-05T11:23:10Z</time>
      </trkpt>
      <trkpt lat="44.13755" lon="7.23453">
        <ele>2064.2</ele>
        <time>2023-02-05T11:23:11Z</time>
      </trkpt>
      <trkpt lat="44.13755" lon="7.23453">
        <ele>2064.1</ele>
        <time>2023-02-05T11:23:12Z</time>
      </trkpt>
      <trkpt lat="44.13755" lon="7.23453">
        <ele>2064.1</ele>
        <time>2023-02-05T11:23:13Z</time>
      </trkpt>
      <trkpt lat="44.13755" lon="7.23453">
        <ele>2064.1</ele>
        <time>2023-02-05T11:23:14Z</time>
      </trkpt>
      <trkpt lat="44.13755" lon="7.23454">
        <ele>2064</ele>
        <time>2023-02-05T11:23:15Z</time>
      </trkpt>
      <trkpt lat="44.13755" lon="7.23453">
        <ele>2064</ele>
        <time>2023-02-05T11:23:16Z</time>
      </trkpt>
      <trkpt lat="44.13755" lon="7.23453">
        <ele>2064</ele>
        <time>2023-02-05T11:23:17Z</time>
      </trkpt>
      <trkpt lat="44.13755" lon="7.23453">
        <ele>2064</ele>
        <time>2023-02-05T11:23:18Z</time>
      </trkpt>
      <trkpt lat="44.13755" lon="7.23453">
        <ele>2064.2</ele>
        <time>2023-02-05T11:23:19Z</time>
      </trkpt>
      <trkpt lat="44.13755" lon="7.23453">
        <ele>2064.3</ele>
        <time>2023-02-05T11:23:20Z</time>
      </trkpt>
      <trkpt lat="44.13755" lon="7.23453">
        <ele>2064.3</ele>
        <time>2023-02-05T11:23:21Z</time>
      </trkpt>
      <trkpt lat="44.13756" lon="7.23452">
        <ele>2064.3</ele>
        <time>2023-02-05T11:23:22Z</time>
      </trkpt>
      <trkpt lat="44.13756" lon="7.23452">
        <ele>2064.3</ele>
        <time>2023-02-05T11:23:23Z</time>
      </trkpt>
      <trkpt lat="44.13756" lon="7.23452">
        <ele>2064.2</ele>
        <time>2023-02-05T11:23:24Z</time>
      </trkpt>
      <trkpt lat="44.13756" lon="7.23452">
        <ele>2064.1</ele>
        <time>2023-02-05T11:23:25Z</time>
      </trkpt>
      <trkpt lat="44.13756" lon="7.23452">
        <ele>2064.1</ele>
        <time>2023-02-05T11:23:26Z</time>
      </trkpt>
      <trkpt lat="44.13756" lon="7.23453">
        <ele>2064</ele>
        <time>2023-02-05T11:23:27Z</time>
      </trkpt>
      <trkpt lat="44.13756" lon="7.23452">
        <ele>2064.1</ele>
        <time>2023-02-05T11:23:28Z</time>
      </trkpt>
      <trkpt lat="44.13757" lon="7.23452">
        <ele>2064</ele>
        <time>2023-02-05T11:23:29Z</time>
      </trkpt>
      <trkpt lat="44.13756" lon="7.23452">
        <ele>2064</ele>
        <time>2023-02-05T11:23:30Z</time>
      </trkpt>
      <trkpt lat="44.13756" lon="7.23452">
        <ele>2064</ele>
        <time>2023-02-05T11:23:31Z</time>
      </trkpt>
      <trkpt lat="44.13757" lon="7.23452">
        <ele>2064.1</ele>
        <time>2023-02-05T11:23:32Z</time>
      </trkpt>
      <trkpt lat="44.13756" lon="7.23452">
        <ele>2064</ele>
        <time>2023-02-05T11:23:33Z</time>
      </trkpt>
      <trkpt lat="44.13756" lon="7.23452">
        <ele>2064.1</ele>
        <time>2023-02-05T11:23:34Z</time>
      </trkpt>
      <trkpt lat="44.13756" lon="7.23452">
        <ele>2064.1</ele>
        <time>2023-02-05T11:23:35Z</time>
      </trkpt>
      <trkpt lat="44.13756" lon="7.23452">
        <ele>2064.2</ele>
        <time>2023-02-05T11:23:36Z</time>
      </trkpt>
      <trkpt lat="44.13756" lon="7.23452">
        <ele>2064.2</ele>
        <time>2023-02-05T11:23:37Z</time>
      </trkpt>
      <trkpt lat="44.13756" lon="7.23452">
        <ele>2064.2</ele>
        <time>2023-02-05T11:23:38Z</time>
      </trkpt>
      <trkpt lat="44.13756" lon="7.23452">
        <ele>2064.2</ele>
        <time>2023-02-05T11:23:39Z</time>
      </trkpt>
      <trkpt lat="44.13756" lon="7.23452">
        <ele>2064.2</ele>
        <time>2023-02-05T11:23:40Z</time>
      </trkpt>
      <trkpt lat="44.13756" lon="7.23452">
        <ele>2064.3</ele>
        <time>2023-02-05T11:23:41Z</time>
      </trkpt>
      <trkpt lat="44.13756" lon="7.23452">
        <ele>2064.3</ele>
        <time>2023-02-05T11:23:42Z</time>
      </trkpt>
      <trkpt lat="44.13756" lon="7.23452">
        <ele>2064.3</ele>
        <time>2023-02-05T11:23:43Z</time>
      </trkpt>
      <trkpt lat="44.13757" lon="7.23452">
        <ele>2064.3</ele>
        <time>2023-02-05T11:23:44Z</time>
      </trkpt>
      <trkpt lat="44.13757" lon="7.23452">
        <ele>2064.3</ele>
        <time>2023-02-05T11:23:45Z</time>
      </trkpt>
      <trkpt lat="44.13757" lon="7.23452">
        <ele>2064.3</ele>
        <time>2023-02-05T11:23:46Z</time>
      </trkpt>
      <trkpt lat="44.13757" lon="7.23452">
        <ele>2064.2</ele>
        <time>2023-02-05T11:23:47Z</time>
      </trkpt>
      <trkpt lat="44.13757" lon="7.23453">
        <ele>2064.2</ele>
        <time>2023-02-05T11:23:48Z</time>
      </trkpt>
      <trkpt lat="44.13758" lon="7.23453">
        <ele>2064.2</ele>
        <time>2023-02-05T11:23:49Z</time>
      </trkpt>
      <trkpt lat="44.13758" lon="7.23453">
        <ele>2064.3</ele>
        <time>2023-02-05T11:23:50Z</time>
      </trkpt>
      <trkpt lat="44.13758" lon="7.23453">
        <ele>2064.2</ele>
        <time>2023-02-05T11:23:51Z</time>
      </trkpt>
      <trkpt lat="44.13758" lon="7.23453">
        <ele>2064.3</ele>
        <time>2023-02-05T11:23:52Z</time>
      </trkpt>
      <trkpt lat="44.13759" lon="7.23453">
        <ele>2064.3</ele>
        <time>2023-02-05T11:23:53Z</time>
      </trkpt>
      <trkpt lat="44.13759" lon="7.23453">
        <ele>2064.4</ele>
        <time>2023-02-05T11:23:54Z</time>
      </trkpt>
      <trkpt lat="44.13759" lon="7.23453">
        <ele>2064.2</ele>
        <time>2023-02-05T11:23:55Z</time>
      </trkpt>
      <trkpt lat="44.1376" lon="7.23453">
        <ele>2064.2</ele>
        <time>2023-02-05T11:23:56Z</time>
      </trkpt>
      <trkpt lat="44.1376" lon="7.23453">
        <ele>2064.3</ele>
        <time>2023-02-05T11:23:57Z</time>
      </trkpt>
      <trkpt lat="44.1376" lon="7.23453">
        <ele>2064.2</ele>
        <time>2023-02-05T11:23:58Z</time>
      </trkpt>
      <trkpt lat="44.1376" lon="7.23453">
        <ele>2064.2</ele>
        <time>2023-02-05T11:23:59Z</time>
      </trkpt>
      <trkpt lat="44.1376" lon="7.23453">
        <ele>2064.3</ele>
        <time>2023-02-05T11:24:00Z</time>
      </trkpt>
      <trkpt lat="44.1376" lon="7.23453">
        <ele>2064.3</ele>
        <time>2023-02-05T11:24:01Z</time>
      </trkpt>
      <trkpt lat="44.1376" lon="7.23453">
        <ele>2064.4</ele>
        <time>2023-02-05T11:24:02Z</time>
      </trkpt>
      <trkpt lat="44.1376" lon="7.23452">
        <ele>2064.3</ele>
        <time>2023-02-05T11:24:03Z</time>
      </trkpt>
      <trkpt lat="44.1376" lon="7.23452">
        <ele>2064.3</ele>
        <time>2023-02-05T11:24:04Z</time>
      </trkpt>
      <trkpt lat="44.1376" lon="7.23452">
        <ele>2064.3</ele>
        <time>2023-02-05T11:24:05Z</time>
      </trkpt>
      <trkpt lat="44.1376" lon="7.23452">
        <ele>2064.2</ele>
        <time>2023-02-05T11:24:06Z</time>
      </trkpt>
      <trkpt lat="44.1376" lon="7.23452">
        <ele>2064.1</ele>
        <time>2023-02-05T11:24:07Z</time>
      </trkpt>
      <trkpt lat="44.1376" lon="7.23452">
        <ele>2064</ele>
        <time>2023-02-05T11:24:08Z</time>
      </trkpt>
      <trkpt lat="44.1376" lon="7.23451">
        <ele>2064</ele>
        <time>2023-02-05T11:24:09Z</time>
      </trkpt>
      <trkpt lat="44.1376" lon="7.23451">
        <ele>2064</ele>
        <time>2023-02-05T11:24:10Z</time>
      </trkpt>
      <trkpt lat="44.1376" lon="7.23451">
        <ele>2064</ele>
        <time>2023-02-05T11:24:11Z</time>
      </trkpt>
      <trkpt lat="44.1376" lon="7.23451">
        <ele>2064</ele>
        <time>2023-02-05T11:24:12Z</time>
      </trkpt>
      <trkpt lat="44.1376" lon="7.23451">
        <ele>2064</ele>
        <time>2023-02-05T11:24:13Z</time>
      </trkpt>
      <trkpt lat="44.13761" lon="7.23451">
        <ele>2064</ele>
        <time>2023-02-05T11:24:14Z</time>
      </trkpt>
      <trkpt lat="44.13761" lon="7.23451">
        <ele>2064</ele>
        <time>2023-02-05T11:24:15Z</time>
      </trkpt>
      <trkpt lat="44.1376" lon="7.23451">
        <ele>2064</ele>
        <time>2023-02-05T11:24:16Z</time>
      </trkpt>
      <trkpt lat="44.1376" lon="7.23451">
        <ele>2064</ele>
        <time>2023-02-05T11:24:17Z</time>
      </trkpt>
      <trkpt lat="44.1376" lon="7.23451">
        <ele>2064.1</ele>
        <time>2023-02-05T11:24:18Z</time>
      </trkpt>
      <trkpt lat="44.1376" lon="7.23451">
        <ele>2064.2</ele>
        <time>2023-02-05T11:24:19Z</time>
      </trkpt>
      <trkpt lat="44.1376" lon="7.23451">
        <ele>2064.3</ele>
        <time>2023-02-05T11:24:20Z</time>
      </trkpt>
      <trkpt lat="44.1376" lon="7.23451">
        <ele>2064.3</ele>
        <time>2023-02-05T11:24:21Z</time>
      </trkpt>
      <trkpt lat="44.1376" lon="7.23451">
        <ele>2064.3</ele>
        <time>2023-02-05T11:24:22Z</time>
      </trkpt>
      <trkpt lat="44.1376" lon="7.23451">
        <ele>2064.3</ele>
        <time>2023-02-05T11:24:23Z</time>
      </trkpt>
      <trkpt lat="44.1376" lon="7.23451">
        <ele>2064.3</ele>
        <time>2023-02-05T11:24:24Z</time>
      </trkpt>
      <trkpt lat="44.1376" lon="7.23451">
        <ele>2064.3</ele>
        <time>2023-02-05T11:24:25Z</time>
      </trkpt>
      <trkpt lat="44.1376" lon="7.23451">
        <ele>2064.2</ele>
        <time>2023-02-05T11:24:26Z</time>
      </trkpt>
      <trkpt lat="44.1376" lon="7.23451">
        <ele>2064.1</ele>
        <time>2023-02-05T11:24:27Z</time>
      </trkpt>
      <trkpt lat="44.1376" lon="7.23451">
        <ele>2064.2</ele>
        <time>2023-02-05T11:24:28Z</time>
      </trkpt>
      <trkpt lat="44.1376" lon="7.23452">
        <ele>2064.3</ele>
        <time>2023-02-05T11:24:29Z</time>
      </trkpt>
      <trkpt lat="44.1376" lon="7.23452">
        <ele>2064.4</ele>
        <time>2023-02-05T11:24:30Z</time>
      </trkpt>
      <trkpt lat="44.1376" lon="7.23452">
        <ele>2064.5</ele>
        <time>2023-02-05T11:24:31Z</time>
      </trkpt>
      <trkpt lat="44.1376" lon="7.23453">
        <ele>2064.5</ele>
        <time>2023-02-05T11:24:32Z</time>
      </trkpt>
      <trkpt lat="44.1376" lon="7.23453">
        <ele>2064.5</ele>
        <time>2023-02-05T11:24:33Z</time>
      </trkpt>
      <trkpt lat="44.1376" lon="7.23453">
        <ele>2064.5</ele>
        <time>2023-02-05T11:24:34Z</time>
      </trkpt>
      <trkpt lat="44.1376" lon="7.23453">
        <ele>2064.5</ele>
        <time>2023-02-05T11:24:35Z</time>
      </trkpt>
      <trkpt lat="44.1376" lon="7.23453">
        <ele>2064.5</ele>
        <time>2023-02-05T11:24:36Z</time>
      </trkpt>
      <trkpt lat="44.1376" lon="7.23453">
        <ele>2064.5</ele>
        <time>2023-02-05T11:24:37Z</time>
      </trkpt>
      <trkpt lat="44.1376" lon="7.23453">
        <ele>2064.7</ele>
        <time>2023-02-05T11:24:38Z</time>
      </trkpt>
      <trkpt lat="44.1376" lon="7.23453">
        <ele>2064.8</ele>
        <time>2023-02-05T11:24:39Z</time>
      </trkpt>
      <trkpt lat="44.13761" lon="7.23453">
        <ele>2064.8</ele>
        <time>2023-02-05T11:24:40Z</time>
      </trkpt>
      <trkpt lat="44.13761" lon="7.23453">
        <ele>2064.8</ele>
        <time>2023-02-05T11:24:41Z</time>
      </trkpt>
      <trkpt lat="44.1376" lon="7.23453">
        <ele>2064.8</ele>
        <time>2023-02-05T11:24:42Z</time>
      </trkpt>
      <trkpt lat="44.1376" lon="7.23453">
        <ele>2064.8</ele>
        <time>2023-02-05T11:24:43Z</time>
      </trkpt>
      <trkpt lat="44.1376" lon="7.23453">
        <ele>2064.8</ele>
        <time>2023-02-05T11:24:44Z</time>
      </trkpt>
      <trkpt lat="44.1376" lon="7.23453">
        <ele>2064.7</ele>
        <time>2023-02-05T11:24:45Z</time>
      </trkpt>
      <trkpt lat="44.1376" lon="7.23453">
        <ele>2064.6</ele>
        <time>2023-02-05T11:24:46Z</time>
      </trkpt>
      <trkpt lat="44.1376" lon="7.23453">
        <ele>2064.6</ele>
        <time>2023-02-05T11:24:47Z</time>
      </trkpt>
      <trkpt lat="44.1376" lon="7.23453">
        <ele>2064.5</ele>
        <time>2023-02-05T11:24:48Z</time>
      </trkpt>
      <trkpt lat="44.1376" lon="7.23453">
        <ele>2064.6</ele>
        <time>2023-02-05T11:24:49Z</time>
      </trkpt>
      <trkpt lat="44.1376" lon="7.23452">
        <ele>2064.5</ele>
        <time>2023-02-05T11:24:50Z</time>
      </trkpt>
      <trkpt lat="44.1376" lon="7.23452">
        <ele>2064.4</ele>
        <time>2023-02-05T11:24:51Z</time>
      </trkpt>
      <trkpt lat="44.13759" lon="7.23452">
        <ele>2064.5</ele>
        <time>2023-02-05T11:24:52Z</time>
      </trkpt>
      <trkpt lat="44.13759" lon="7.23452">
        <ele>2064.5</ele>
        <time>2023-02-05T11:24:53Z</time>
      </trkpt>
      <trkpt lat="44.13759" lon="7.23452">
        <ele>2064.6</ele>
        <time>2023-02-05T11:24:54Z</time>
      </trkpt>
      <trkpt lat="44.13759" lon="7.23452">
        <ele>2064.6</ele>
        <time>2023-02-05T11:24:55Z</time>
      </trkpt>
      <trkpt lat="44.13759" lon="7.23452">
        <ele>2064.5</ele>
        <time>2023-02-05T11:24:56Z</time>
      </trkpt>
      <trkpt lat="44.13759" lon="7.23452">
        <ele>2064.5</ele>
        <time>2023-02-05T11:24:57Z</time>
      </trkpt>
      <trkpt lat="44.13759" lon="7.23451">
        <ele>2064.5</ele>
        <time>2023-02-05T11:24:58Z</time>
      </trkpt>
      <trkpt lat="44.13759" lon="7.23451">
        <ele>2064.5</ele>
        <time>2023-02-05T11:24:59Z</time>
      </trkpt>
      <trkpt lat="44.13759" lon="7.23451">
        <ele>2064.6</ele>
        <time>2023-02-05T11:25:00Z</time>
      </trkpt>
      <trkpt lat="44.13759" lon="7.23451">
        <ele>2064.6</ele>
        <time>2023-02-05T11:25:01Z</time>
      </trkpt>
      <trkpt lat="44.1376" lon="7.23451">
        <ele>2064.7</ele>
        <time>2023-02-05T11:25:02Z</time>
      </trkpt>
      <trkpt lat="44.1376" lon="7.23451">
        <ele>2064.7</ele>
        <time>2023-02-05T11:25:03Z</time>
      </trkpt>
      <trkpt lat="44.1376" lon="7.23451">
        <ele>2064.7</ele>
        <time>2023-02-05T11:25:04Z</time>
      </trkpt>
      <trkpt lat="44.1376" lon="7.23451">
        <ele>2064.7</ele>
        <time>2023-02-05T11:25:05Z</time>
      </trkpt>
      <trkpt lat="44.1376" lon="7.23451">
        <ele>2064.7</ele>
        <time>2023-02-05T11:25:06Z</time>
      </trkpt>
      <trkpt lat="44.13759" lon="7.23451">
        <ele>2064.7</ele>
        <time>2023-02-05T11:25:07Z</time>
      </trkpt>
      <trkpt lat="44.13759" lon="7.23451">
        <ele>2064.7</ele>
        <time>2023-02-05T11:25:08Z</time>
      </trkpt>
      <trkpt lat="44.13759" lon="7.23451">
        <ele>2064.7</ele>
        <time>2023-02-05T11:25:09Z</time>
      </trkpt>
      <trkpt lat="44.13759" lon="7.23451">
        <ele>2064.7</ele>
        <time>2023-02-05T11:25:10Z</time>
      </trkpt>
      <trkpt lat="44.13759" lon="7.23451">
        <ele>2064.7</ele>
        <time>2023-02-05T11:25:11Z</time>
      </trkpt>
      <trkpt lat="44.13759" lon="7.23451">
        <ele>2064.7</ele>
        <time>2023-02-05T11:25:12Z</time>
      </trkpt>
      <trkpt lat="44.13759" lon="7.2345">
        <ele>2064.7</ele>
        <time>2023-02-05T11:25:13Z</time>
      </trkpt>
      <trkpt lat="44.13759" lon="7.2345">
        <ele>2064.7</ele>
        <time>2023-02-05T11:25:14Z</time>
      </trkpt>
      <trkpt lat="44.13759" lon="7.2345">
        <ele>2064.7</ele>
        <time>2023-02-05T11:25:15Z</time>
      </trkpt>
      <trkpt lat="44.13759" lon="7.2345">
        <ele>2064.6</ele>
        <time>2023-02-05T11:25:16Z</time>
      </trkpt>
      <trkpt lat="44.13759" lon="7.2345">
        <ele>2064.6</ele>
        <time>2023-02-05T11:25:17Z</time>
      </trkpt>
      <trkpt lat="44.13759" lon="7.23449">
        <ele>2064.7</ele>
        <time>2023-02-05T11:25:18Z</time>
      </trkpt>
      <trkpt lat="44.13759" lon="7.23449">
        <ele>2064.7</ele>
        <time>2023-02-05T11:25:19Z</time>
      </trkpt>
      <trkpt lat="44.13759" lon="7.23449">
        <ele>2064.6</ele>
        <time>2023-02-05T11:25:20Z</time>
      </trkpt>
      <trkpt lat="44.13758" lon="7.23449">
        <ele>2064.6</ele>
        <time>2023-02-05T11:25:21Z</time>
      </trkpt>
      <trkpt lat="44.13758" lon="7.23449">
        <ele>2064.5</ele>
        <time>2023-02-05T11:25:22Z</time>
      </trkpt>
      <trkpt lat="44.13758" lon="7.23449">
        <ele>2064.4</ele>
        <time>2023-02-05T11:25:23Z</time>
      </trkpt>
      <trkpt lat="44.13758" lon="7.23449">
        <ele>2064.4</ele>
        <time>2023-02-05T11:25:24Z</time>
      </trkpt>
      <trkpt lat="44.13758" lon="7.23449">
        <ele>2064.4</ele>
        <time>2023-02-05T11:25:25Z</time>
      </trkpt>
      <trkpt lat="44.13758" lon="7.23449">
        <ele>2064.5</ele>
        <time>2023-02-05T11:25:26Z</time>
      </trkpt>
      <trkpt lat="44.13758" lon="7.23449">
        <ele>2064.5</ele>
        <time>2023-02-05T11:25:27Z</time>
      </trkpt>
      <trkpt lat="44.13758" lon="7.23449">
        <ele>2064.5</ele>
        <time>2023-02-05T11:25:28Z</time>
      </trkpt>
      <trkpt lat="44.13757" lon="7.23449">
        <ele>2064.5</ele>
        <time>2023-02-05T11:25:29Z</time>
      </trkpt>
      <trkpt lat="44.13757" lon="7.23448">
        <ele>2064.5</ele>
        <time>2023-02-05T11:25:30Z</time>
      </trkpt>
      <trkpt lat="44.13757" lon="7.23448">
        <ele>2064.4</ele>
        <time>2023-02-05T11:25:31Z</time>
      </trkpt>
      <trkpt lat="44.13757" lon="7.23448">
        <ele>2064.4</ele>
        <time>2023-02-05T11:25:32Z</time>
      </trkpt>
      <trkpt lat="44.13756" lon="7.23448">
        <ele>2064.4</ele>
        <time>2023-02-05T11:25:33Z</time>
      </trkpt>
      <trkpt lat="44.13756" lon="7.23448">
        <ele>2064.4</ele>
        <time>2023-02-05T11:25:34Z</time>
      </trkpt>
      <trkpt lat="44.13756" lon="7.23449">
        <ele>2064.3</ele>
        <time>2023-02-05T11:25:35Z</time>
      </trkpt>
      <trkpt lat="44.13756" lon="7.23449">
        <ele>2064.3</ele>
        <time>2023-02-05T11:25:36Z</time>
      </trkpt>
      <trkpt lat="44.13756" lon="7.23448">
        <ele>2064.4</ele>
        <time>2023-02-05T11:25:37Z</time>
      </trkpt>
      <trkpt lat="44.13756" lon="7.23448">
        <ele>2064.4</ele>
        <time>2023-02-05T11:25:38Z</time>
      </trkpt>
      <trkpt lat="44.13756" lon="7.23448">
        <ele>2064.4</ele>
        <time>2023-02-05T11:25:39Z</time>
      </trkpt>
      <trkpt lat="44.13756" lon="7.23448">
        <ele>2064.4</ele>
        <time>2023-02-05T11:25:40Z</time>
      </trkpt>
      <trkpt lat="44.13755" lon="7.23448">
        <ele>2064.5</ele>
        <time>2023-02-05T11:25:41Z</time>
      </trkpt>
      <trkpt lat="44.13755" lon="7.23447">
        <ele>2064.5</ele>
        <time>2023-02-05T11:25:42Z</time>
      </trkpt>
      <trkpt lat="44.13754" lon="7.23447">
        <ele>2064.5</ele>
        <time>2023-02-05T11:25:43Z</time>
      </trkpt>
      <trkpt lat="44.13754" lon="7.23447">
        <ele>2064.5</ele>
        <time>2023-02-05T11:25:44Z</time>
      </trkpt>
      <trkpt lat="44.13754" lon="7.23447">
        <ele>2064.6</ele>
        <time>2023-02-05T11:25:45Z</time>
      </trkpt>
      <trkpt lat="44.13754" lon="7.23447">
        <ele>2064.6</ele>
        <time>2023-02-05T11:25:46Z</time>
      </trkpt>
      <trkpt lat="44.13753" lon="7.23447">
        <ele>2064.5</ele>
        <time>2023-02-05T11:25:47Z</time>
      </trkpt>
      <trkpt lat="44.13753" lon="7.23447">
        <ele>2064.5</ele>
        <time>2023-02-05T11:25:48Z</time>
      </trkpt>
      <trkpt lat="44.13753" lon="7.23447">
        <ele>2064.5</ele>
        <time>2023-02-05T11:25:49Z</time>
      </trkpt>
      <trkpt lat="44.13753" lon="7.23447">
        <ele>2064.6</ele>
        <time>2023-02-05T11:25:50Z</time>
      </trkpt>
      <trkpt lat="44.13753" lon="7.23446">
        <ele>2064.6</ele>
        <time>2023-02-05T11:25:51Z</time>
      </trkpt>
      <trkpt lat="44.13753" lon="7.23446">
        <ele>2064.6</ele>
        <time>2023-02-05T11:25:52Z</time>
      </trkpt>
      <trkpt lat="44.13752" lon="7.23446">
        <ele>2064.7</ele>
        <time>2023-02-05T11:25:53Z</time>
      </trkpt>
      <trkpt lat="44.13752" lon="7.23446">
        <ele>2064.7</ele>
        <time>2023-02-05T11:25:54Z</time>
      </trkpt>
      <trkpt lat="44.13752" lon="7.23446">
        <ele>2064.7</ele>
        <time>2023-02-05T11:25:55Z</time>
      </trkpt>
      <trkpt lat="44.13752" lon="7.23446">
        <ele>2064.7</ele>
        <time>2023-02-05T11:25:56Z</time>
      </trkpt>
      <trkpt lat="44.13752" lon="7.23447">
        <ele>2064.6</ele>
        <time>2023-02-05T11:25:57Z</time>
      </trkpt>
      <trkpt lat="44.13752" lon="7.23447">
        <ele>2064.6</ele>
        <time>2023-02-05T11:25:58Z</time>
      </trkpt>
      <trkpt lat="44.13752" lon="7.23447">
        <ele>2064.6</ele>
        <time>2023-02-05T11:25:59Z</time>
      </trkpt>
      <trkpt lat="44.13752" lon="7.23447">
        <ele>2064.7</ele>
        <time>2023-02-05T11:26:00Z</time>
      </trkpt>
      <trkpt lat="44.13752" lon="7.23447">
        <ele>2064.7</ele>
        <time>2023-02-05T11:26:01Z</time>
      </trkpt>
      <trkpt lat="44.13752" lon="7.23447">
        <ele>2064.6</ele>
        <time>2023-02-05T11:26:02Z</time>
      </trkpt>
      <trkpt lat="44.13752" lon="7.23447">
        <ele>2064.7</ele>
        <time>2023-02-05T11:26:03Z</time>
      </trkpt>
      <trkpt lat="44.13752" lon="7.23447">
        <ele>2064.7</ele>
        <time>2023-02-05T11:26:04Z</time>
      </trkpt>
      <trkpt lat="44.13753" lon="7.23447">
        <ele>2064.7</ele>
        <time>2023-02-05T11:26:05Z</time>
      </trkpt>
      <trkpt lat="44.13753" lon="7.23447">
        <ele>2064.7</ele>
        <time>2023-02-05T11:26:06Z</time>
      </trkpt>
      <trkpt lat="44.13753" lon="7.23447">
        <ele>2064.8</ele>
        <time>2023-02-05T11:26:07Z</time>
      </trkpt>
      <trkpt lat="44.13753" lon="7.23447">
        <ele>2064.8</ele>
        <time>2023-02-05T11:26:08Z</time>
      </trkpt>
      <trkpt lat="44.13753" lon="7.23447">
        <ele>2064.8</ele>
        <time>2023-02-05T11:26:09Z</time>
      </trkpt>
      <trkpt lat="44.13753" lon="7.23447">
        <ele>2064.8</ele>
        <time>2023-02-05T11:26:10Z</time>
      </trkpt>
      <trkpt lat="44.13753" lon="7.23448">
        <ele>2064.8</ele>
        <time>2023-02-05T11:26:11Z</time>
      </trkpt>
      <trkpt lat="44.13753" lon="7.23448">
        <ele>2064.8</ele>
        <time>2023-02-05T11:26:12Z</time>
      </trkpt>
      <trkpt lat="44.13754" lon="7.23448">
        <ele>2064.8</ele>
        <time>2023-02-05T11:26:13Z</time>
      </trkpt>
      <trkpt lat="44.13754" lon="7.23448">
        <ele>2064.8</ele>
        <time>2023-02-05T11:26:14Z</time>
      </trkpt>
      <trkpt lat="44.13754" lon="7.23448">
        <ele>2064.9</ele>
        <time>2023-02-05T11:26:15Z</time>
      </trkpt>
      <trkpt lat="44.13754" lon="7.23448">
        <ele>2064.8</ele>
        <time>2023-02-05T11:26:16Z</time>
      </trkpt>
      <trkpt lat="44.13754" lon="7.23448">
        <ele>2064.8</ele>
        <time>2023-02-05T11:26:17Z</time>
      </trkpt>
      <trkpt lat="44.13754" lon="7.23449">
        <ele>2064.8</ele>
        <time>2023-02-05T11:26:18Z</time>
      </trkpt>
      <trkpt lat="44.13754" lon="7.23449">
        <ele>2064.8</ele>
        <time>2023-02-05T11:26:19Z</time>
      </trkpt>
      <trkpt lat="44.13754" lon="7.23449">
        <ele>2064.8</ele>
        <time>2023-02-05T11:26:20Z</time>
      </trkpt>
      <trkpt lat="44.13754" lon="7.23449">
        <ele>2064.7</ele>
        <time>2023-02-05T11:26:21Z</time>
      </trkpt>
      <trkpt lat="44.13754" lon="7.23449">
        <ele>2064.7</ele>
        <time>2023-02-05T11:26:22Z</time>
      </trkpt>
      <trkpt lat="44.13754" lon="7.23448">
        <ele>2064.5</ele>
        <time>2023-02-05T11:26:23Z</time>
      </trkpt>
      <trkpt lat="44.13754" lon="7.23448">
        <ele>2064.4</ele>
        <time>2023-02-05T11:26:24Z</time>
      </trkpt>
      <trkpt lat="44.13754" lon="7.23448">
        <ele>2064.4</ele>
        <time>2023-02-05T11:26:25Z</time>
      </trkpt>
      <trkpt lat="44.13753" lon="7.23448">
        <ele>2064.5</ele>
        <time>2023-02-05T11:26:26Z</time>
      </trkpt>
      <trkpt lat="44.13753" lon="7.23448">
        <ele>2064.5</ele>
        <time>2023-02-05T11:26:27Z</time>
      </trkpt>
      <trkpt lat="44.13753" lon="7.23448">
        <ele>2064.5</ele>
        <time>2023-02-05T11:26:28Z</time>
      </trkpt>
      <trkpt lat="44.13752" lon="7.23447">
        <ele>2064.6</ele>
        <time>2023-02-05T11:26:29Z</time>
      </trkpt>
      <trkpt lat="44.13752" lon="7.23447">
        <ele>2064.6</ele>
        <time>2023-02-05T11:26:30Z</time>
      </trkpt>
      <trkpt lat="44.13752" lon="7.23447">
        <ele>2064.5</ele>
        <time>2023-02-05T11:26:31Z</time>
      </trkpt>
      <trkpt lat="44.13752" lon="7.23447">
        <ele>2064.4</ele>
        <time>2023-02-05T11:26:32Z</time>
      </trkpt>
      <trkpt lat="44.13751" lon="7.23447">
        <ele>2064.4</ele>
        <time>2023-02-05T11:26:33Z</time>
      </trkpt>
      <trkpt lat="44.13751" lon="7.23447">
        <ele>2064.4</ele>
        <time>2023-02-05T11:26:34Z</time>
      </trkpt>
      <trkpt lat="44.13751" lon="7.23447">
        <ele>2064.3</ele>
        <time>2023-02-05T11:26:35Z</time>
      </trkpt>
      <trkpt lat="44.13751" lon="7.23447">
        <ele>2064.4</ele>
        <time>2023-02-05T11:26:36Z</time>
      </trkpt>
      <trkpt lat="44.13751" lon="7.23447">
        <ele>2064.5</ele>
        <time>2023-02-05T11:26:37Z</time>
      </trkpt>
      <trkpt lat="44.13751" lon="7.23446">
        <ele>2064.6</ele>
        <time>2023-02-05T11:26:38Z</time>
      </trkpt>
      <trkpt lat="44.13751" lon="7.23446">
        <ele>2064.7</ele>
        <time>2023-02-05T11:26:39Z</time>
      </trkpt>
      <trkpt lat="44.1375" lon="7.23446">
        <ele>2064.7</ele>
        <time>2023-02-05T11:26:40Z</time>
      </trkpt>
      <trkpt lat="44.1375" lon="7.23446">
        <ele>2064.8</ele>
        <time>2023-02-05T11:26:41Z</time>
      </trkpt>
      <trkpt lat="44.1375" lon="7.23446">
        <ele>2064.8</ele>
        <time>2023-02-05T11:26:42Z</time>
      </trkpt>
      <trkpt lat="44.13749" lon="7.23447">
        <ele>2064.7</ele>
        <time>2023-02-05T11:26:43Z</time>
      </trkpt>
      <trkpt lat="44.13749" lon="7.23447">
        <ele>2064.6</ele>
        <time>2023-02-05T11:26:44Z</time>
      </trkpt>
      <trkpt lat="44.13749" lon="7.23447">
        <ele>2064.5</ele>
        <time>2023-02-05T11:26:45Z</time>
      </trkpt>
      <trkpt lat="44.13749" lon="7.23447">
        <ele>2064.5</ele>
        <time>2023-02-05T11:26:46Z</time>
      </trkpt>
      <trkpt lat="44.13749" lon="7.23447">
        <ele>2064.5</ele>
        <time>2023-02-05T11:26:47Z</time>
      </trkpt>
      <trkpt lat="44.13749" lon="7.23448">
        <ele>2064.5</ele>
        <time>2023-02-05T11:26:48Z</time>
      </trkpt>
      <trkpt lat="44.13749" lon="7.23448">
        <ele>2064.5</ele>
        <time>2023-02-05T11:26:49Z</time>
      </trkpt>
      <trkpt lat="44.13749" lon="7.23448">
        <ele>2064.5</ele>
        <time>2023-02-05T11:26:50Z</time>
      </trkpt>
      <trkpt lat="44.1375" lon="7.23448">
        <ele>2064.6</ele>
        <time>2023-02-05T11:26:51Z</time>
      </trkpt>
      <trkpt lat="44.1375" lon="7.23448">
        <ele>2064.6</ele>
        <time>2023-02-05T11:26:52Z</time>
      </trkpt>
      <trkpt lat="44.1375" lon="7.23448">
        <ele>2064.6</ele>
        <time>2023-02-05T11:26:53Z</time>
      </trkpt>
      <trkpt lat="44.1375" lon="7.23448">
        <ele>2064.6</ele>
        <time>2023-02-05T11:26:54Z</time>
      </trkpt>
      <trkpt lat="44.1375" lon="7.23448">
        <ele>2064.7</ele>
        <time>2023-02-05T11:26:55Z</time>
      </trkpt>
      <trkpt lat="44.1375" lon="7.23448">
        <ele>2064.6</ele>
        <time>2023-02-05T11:26:56Z</time>
      </trkpt>
      <trkpt lat="44.1375" lon="7.23448">
        <ele>2064.5</ele>
        <time>2023-02-05T11:26:57Z</time>
      </trkpt>
      <trkpt lat="44.1375" lon="7.23448">
        <ele>2064.6</ele>
        <time>2023-02-05T11:26:58Z</time>
      </trkpt>
      <trkpt lat="44.1375" lon="7.23448">
        <ele>2064.5</ele>
        <time>2023-02-05T11:26:59Z</time>
      </trkpt>
      <trkpt lat="44.13749" lon="7.23448">
        <ele>2064.6</ele>
        <time>2023-02-05T11:27:00Z</time>
      </trkpt>
      <trkpt lat="44.1375" lon="7.23449">
        <ele>2064.7</ele>
        <time>2023-02-05T11:27:01Z</time>
      </trkpt>
      <trkpt lat="44.1375" lon="7.23449">
        <ele>2064.7</ele>
        <time>2023-02-05T11:27:02Z</time>
      </trkpt>
      <trkpt lat="44.1375" lon="7.23449">
        <ele>2064.7</ele>
        <time>2023-02-05T11:27:03Z</time>
      </trkpt>
      <trkpt lat="44.1375" lon="7.23449">
        <ele>2064.7</ele>
        <time>2023-02-05T11:27:04Z</time>
      </trkpt>
      <trkpt lat="44.1375" lon="7.23449">
        <ele>2064.8</ele>
        <time>2023-02-05T11:27:05Z</time>
      </trkpt>
      <trkpt lat="44.1375" lon="7.2345">
        <ele>2064.8</ele>
        <time>2023-02-05T11:27:06Z</time>
      </trkpt>
      <trkpt lat="44.1375" lon="7.2345">
        <ele>2064.8</ele>
        <time>2023-02-05T11:27:07Z</time>
      </trkpt>
      <trkpt lat="44.13751" lon="7.2345">
        <ele>2064.8</ele>
        <time>2023-02-05T11:27:08Z</time>
      </trkpt>
      <trkpt lat="44.13751" lon="7.2345">
        <ele>2064.7</ele>
        <time>2023-02-05T11:27:09Z</time>
      </trkpt>
      <trkpt lat="44.13751" lon="7.23451">
        <ele>2064.7</ele>
        <time>2023-02-05T11:27:10Z</time>
      </trkpt>
      <trkpt lat="44.13751" lon="7.23451">
        <ele>2064.6</ele>
        <time>2023-02-05T11:27:11Z</time>
      </trkpt>
      <trkpt lat="44.13752" lon="7.23451">
        <ele>2064.7</ele>
        <time>2023-02-05T11:27:12Z</time>
      </trkpt>
      <trkpt lat="44.13752" lon="7.23451">
        <ele>2064.7</ele>
        <time>2023-02-05T11:27:13Z</time>
      </trkpt>
      <trkpt lat="44.13752" lon="7.23451">
        <ele>2064.7</ele>
        <time>2023-02-05T11:27:14Z</time>
      </trkpt>
      <trkpt lat="44.13752" lon="7.23451">
        <ele>2064.7</ele>
        <time>2023-02-05T11:27:15Z</time>
      </trkpt>
      <trkpt lat="44.13752" lon="7.23451">
        <ele>2064.7</ele>
        <time>2023-02-05T11:27:16Z</time>
      </trkpt>
      <trkpt lat="44.13752" lon="7.23452">
        <ele>2064.6</ele>
        <time>2023-02-05T11:27:17Z</time>
      </trkpt>
      <trkpt lat="44.13752" lon="7.23452">
        <ele>2064.6</ele>
        <time>2023-02-05T11:27:18Z</time>
      </trkpt>
      <trkpt lat="44.13752" lon="7.23452">
        <ele>2064.7</ele>
        <time>2023-02-05T11:27:19Z</time>
      </trkpt>
      <trkpt lat="44.13752" lon="7.23452">
        <ele>2064.7</ele>
        <time>2023-02-05T11:27:20Z</time>
      </trkpt>
      <trkpt lat="44.13752" lon="7.23452">
        <ele>2064.6</ele>
        <time>2023-02-05T11:27:21Z</time>
      </trkpt>
      <trkpt lat="44.13752" lon="7.23452">
        <ele>2064.6</ele>
        <time>2023-02-05T11:27:22Z</time>
      </trkpt>
      <trkpt lat="44.13752" lon="7.23451">
        <ele>2064.6</ele>
        <time>2023-02-05T11:27:23Z</time>
      </trkpt>
      <trkpt lat="44.13752" lon="7.23451">
        <ele>2064.6</ele>
        <time>2023-02-05T11:27:24Z</time>
      </trkpt>
      <trkpt lat="44.13752" lon="7.23452">
        <ele>2064.5</ele>
        <time>2023-02-05T11:27:25Z</time>
      </trkpt>
      <trkpt lat="44.13752" lon="7.23452">
        <ele>2064.5</ele>
        <time>2023-02-05T11:27:26Z</time>
      </trkpt>
      <trkpt lat="44.13752" lon="7.23452">
        <ele>2064.4</ele>
        <time>2023-02-05T11:27:27Z</time>
      </trkpt>
      <trkpt lat="44.13752" lon="7.23452">
        <ele>2064.5</ele>
        <time>2023-02-05T11:27:28Z</time>
      </trkpt>
      <trkpt lat="44.13752" lon="7.23452">
        <ele>2064.6</ele>
        <time>2023-02-05T11:27:29Z</time>
      </trkpt>
      <trkpt lat="44.13752" lon="7.23452">
        <ele>2064.6</ele>
        <time>2023-02-05T11:27:30Z</time>
      </trkpt>
      <trkpt lat="44.13752" lon="7.23452">
        <ele>2064.6</ele>
        <time>2023-02-05T11:27:31Z</time>
      </trkpt>
      <trkpt lat="44.13752" lon="7.23452">
        <ele>2064.5</ele>
        <time>2023-02-05T11:27:32Z</time>
      </trkpt>
      <trkpt lat="44.13752" lon="7.23452">
        <ele>2064.4</ele>
        <time>2023-02-05T11:27:33Z</time>
      </trkpt>
      <trkpt lat="44.13752" lon="7.23453">
        <ele>2064.4</ele>
        <time>2023-02-05T11:27:34Z</time>
      </trkpt>
      <trkpt lat="44.13752" lon="7.23453">
        <ele>2064.4</ele>
        <time>2023-02-05T11:27:35Z</time>
      </trkpt>
      <trkpt lat="44.13751" lon="7.23453">
        <ele>2064.4</ele>
        <time>2023-02-05T11:27:36Z</time>
      </trkpt>
      <trkpt lat="44.13751" lon="7.23453">
        <ele>2064.6</ele>
        <time>2023-02-05T11:27:37Z</time>
      </trkpt>
      <trkpt lat="44.13751" lon="7.23453">
        <ele>2064.7</ele>
        <time>2023-02-05T11:27:38Z</time>
      </trkpt>
      <trkpt lat="44.13751" lon="7.23453">
        <ele>2064.7</ele>
        <time>2023-02-05T11:27:39Z</time>
      </trkpt>
      <trkpt lat="44.13751" lon="7.23453">
        <ele>2064.8</ele>
        <time>2023-02-05T11:27:40Z</time>
      </trkpt>
      <trkpt lat="44.13751" lon="7.23453">
        <ele>2064.7</ele>
        <time>2023-02-05T11:27:41Z</time>
      </trkpt>
      <trkpt lat="44.13751" lon="7.23453">
        <ele>2064.8</ele>
        <time>2023-02-05T11:27:42Z</time>
      </trkpt>
      <trkpt lat="44.13751" lon="7.23453">
        <ele>2064.8</ele>
        <time>2023-02-05T11:27:43Z</time>
      </trkpt>
      <trkpt lat="44.13751" lon="7.23453">
        <ele>2064.7</ele>
        <time>2023-02-05T11:27:44Z</time>
      </trkpt>
      <trkpt lat="44.13751" lon="7.23453">
        <ele>2064.7</ele>
        <time>2023-02-05T11:27:45Z</time>
      </trkpt>
      <trkpt lat="44.13751" lon="7.23453">
        <ele>2064.7</ele>
        <time>2023-02-05T11:27:46Z</time>
      </trkpt>
      <trkpt lat="44.13751" lon="7.23453">
        <ele>2064.7</ele>
        <time>2023-02-05T11:27:47Z</time>
      </trkpt>
      <trkpt lat="44.13751" lon="7.23453">
        <ele>2064.8</ele>
        <time>2023-02-05T11:27:48Z</time>
      </trkpt>
      <trkpt lat="44.13751" lon="7.23452">
        <ele>2064.8</ele>
        <time>2023-02-05T11:27:49Z</time>
      </trkpt>
      <trkpt lat="44.13751" lon="7.23452">
        <ele>2064.8</ele>
        <time>2023-02-05T11:27:50Z</time>
      </trkpt>
      <trkpt lat="44.13751" lon="7.23452">
        <ele>2064.8</ele>
        <time>2023-02-05T11:27:51Z</time>
      </trkpt>
      <trkpt lat="44.13751" lon="7.23452">
        <ele>2064.8</ele>
        <time>2023-02-05T11:27:52Z</time>
      </trkpt>
      <trkpt lat="44.13751" lon="7.23452">
        <ele>2064.8</ele>
        <time>2023-02-05T11:27:53Z</time>
      </trkpt>
      <trkpt lat="44.1375" lon="7.23452">
        <ele>2064.9</ele>
        <time>2023-02-05T11:27:54Z</time>
      </trkpt>
      <trkpt lat="44.1375" lon="7.23452">
        <ele>2064.8</ele>
        <time>2023-02-05T11:27:55Z</time>
      </trkpt>
      <trkpt lat="44.1375" lon="7.23452">
        <ele>2064.7</ele>
        <time>2023-02-05T11:27:56Z</time>
      </trkpt>
      <trkpt lat="44.1375" lon="7.23451">
        <ele>2064.7</ele>
        <time>2023-02-05T11:27:57Z</time>
      </trkpt>
      <trkpt lat="44.1375" lon="7.23451">
        <ele>2064.7</ele>
        <time>2023-02-05T11:27:58Z</time>
      </trkpt>
      <trkpt lat="44.13751" lon="7.23451">
        <ele>2064.7</ele>
        <time>2023-02-05T11:27:59Z</time>
      </trkpt>
      <trkpt lat="44.13751" lon="7.23451">
        <ele>2064.8</ele>
        <time>2023-02-05T11:28:00Z</time>
      </trkpt>
      <trkpt lat="44.13751" lon="7.23451">
        <ele>2064.8</ele>
        <time>2023-02-05T11:28:01Z</time>
      </trkpt>
      <trkpt lat="44.1375" lon="7.23451">
        <ele>2064.9</ele>
        <time>2023-02-05T11:28:02Z</time>
      </trkpt>
      <trkpt lat="44.1375" lon="7.23451">
        <ele>2064.9</ele>
        <time>2023-02-05T11:28:03Z</time>
      </trkpt>
      <trkpt lat="44.1375" lon="7.23451">
        <ele>2064.8</ele>
        <time>2023-02-05T11:28:04Z</time>
      </trkpt>
      <trkpt lat="44.1375" lon="7.23451">
        <ele>2064.8</ele>
        <time>2023-02-05T11:28:05Z</time>
      </trkpt>
      <trkpt lat="44.1375" lon="7.23451">
        <ele>2064.8</ele>
        <time>2023-02-05T11:28:06Z</time>
      </trkpt>
      <trkpt lat="44.1375" lon="7.23451">
        <ele>2064.7</ele>
        <time>2023-02-05T11:28:07Z</time>
      </trkpt>
      <trkpt lat="44.13749" lon="7.23451">
        <ele>2064.8</ele>
        <time>2023-02-05T11:28:08Z</time>
      </trkpt>
      <trkpt lat="44.13749" lon="7.23451">
        <ele>2064.8</ele>
        <time>2023-02-05T11:28:09Z</time>
      </trkpt>
      <trkpt lat="44.13748" lon="7.2345">
        <ele>2064.8</ele>
        <time>2023-02-05T11:28:10Z</time>
      </trkpt>
      <trkpt lat="44.13748" lon="7.2345">
        <ele>2064.9</ele>
        <time>2023-02-05T11:28:11Z</time>
      </trkpt>
      <trkpt lat="44.13747" lon="7.2345">
        <ele>2064.9</ele>
        <time>2023-02-05T11:28:12Z</time>
      </trkpt>
      <trkpt lat="44.13747" lon="7.23449">
        <ele>2064.8</ele>
        <time>2023-02-05T11:28:13Z</time>
      </trkpt>
      <trkpt lat="44.13746" lon="7.23449">
        <ele>2064.7</ele>
        <time>2023-02-05T11:28:14Z</time>
      </trkpt>
      <trkpt lat="44.13746" lon="7.23449">
        <ele>2064.6</ele>
        <time>2023-02-05T11:28:15Z</time>
      </trkpt>
      <trkpt lat="44.13746" lon="7.23449">
        <ele>2064.6</ele>
        <time>2023-02-05T11:28:16Z</time>
      </trkpt>
      <trkpt lat="44.13745" lon="7.23448">
        <ele>2064.5</ele>
        <time>2023-02-05T11:28:17Z</time>
      </trkpt>
      <trkpt lat="44.13745" lon="7.23448">
        <ele>2064.4</ele>
        <time>2023-02-05T11:28:18Z</time>
      </trkpt>
      <trkpt lat="44.13745" lon="7.23448">
        <ele>2064.4</ele>
        <time>2023-02-05T11:28:19Z</time>
      </trkpt>
      <trkpt lat="44.13745" lon="7.23448">
        <ele>2064.4</ele>
        <time>2023-02-05T11:28:20Z</time>
      </trkpt>
      <trkpt lat="44.13745" lon="7.23448">
        <ele>2064.4</ele>
        <time>2023-02-05T11:28:21Z</time>
      </trkpt>
      <trkpt lat="44.13744" lon="7.23448">
        <ele>2064.4</ele>
        <time>2023-02-05T11:28:22Z</time>
      </trkpt>
      <trkpt lat="44.13744" lon="7.23448">
        <ele>2064.4</ele>
        <time>2023-02-05T11:28:23Z</time>
      </trkpt>
      <trkpt lat="44.13745" lon="7.23448">
        <ele>2064.4</ele>
        <time>2023-02-05T11:28:24Z</time>
      </trkpt>
      <trkpt lat="44.13745" lon="7.23448">
        <ele>2064.5</ele>
        <time>2023-02-05T11:28:25Z</time>
      </trkpt>
      <trkpt lat="44.13746" lon="7.23448">
        <ele>2064.5</ele>
        <time>2023-02-05T11:28:26Z</time>
      </trkpt>
      <trkpt lat="44.13746" lon="7.23448">
        <ele>2064.5</ele>
        <time>2023-02-05T11:28:27Z</time>
      </trkpt>
      <trkpt lat="44.13746" lon="7.23448">
        <ele>2064.4</ele>
        <time>2023-02-05T11:28:28Z</time>
      </trkpt>
      <trkpt lat="44.13747" lon="7.23448">
        <ele>2064.4</ele>
        <time>2023-02-05T11:28:29Z</time>
      </trkpt>
      <trkpt lat="44.13747" lon="7.23448">
        <ele>2064.4</ele>
        <time>2023-02-05T11:28:30Z</time>
      </trkpt>
      <trkpt lat="44.13748" lon="7.23448">
        <ele>2064.4</ele>
        <time>2023-02-05T11:28:31Z</time>
      </trkpt>
      <trkpt lat="44.13748" lon="7.23448">
        <ele>2064.3</ele>
        <time>2023-02-05T11:28:32Z</time>
      </trkpt>
      <trkpt lat="44.13748" lon="7.23448">
        <ele>2064.3</ele>
        <time>2023-02-05T11:28:33Z</time>
      </trkpt>
      <trkpt lat="44.13748" lon="7.23448">
        <ele>2064.3</ele>
        <time>2023-02-05T11:28:34Z</time>
      </trkpt>
      <trkpt lat="44.13748" lon="7.23448">
        <ele>2064.3</ele>
        <time>2023-02-05T11:28:35Z</time>
      </trkpt>
      <trkpt lat="44.13748" lon="7.23448">
        <ele>2064.3</ele>
        <time>2023-02-05T11:28:36Z</time>
      </trkpt>
      <trkpt lat="44.13748" lon="7.23448">
        <ele>2064.3</ele>
        <time>2023-02-05T11:28:37Z</time>
      </trkpt>
      <trkpt lat="44.13748" lon="7.23447">
        <ele>2064.2</ele>
        <time>2023-02-05T11:28:38Z</time>
      </trkpt>
      <trkpt lat="44.13748" lon="7.23447">
        <ele>2064.3</ele>
        <time>2023-02-05T11:28:39Z</time>
      </trkpt>
      <trkpt lat="44.13748" lon="7.23447">
        <ele>2064.4</ele>
        <time>2023-02-05T11:28:40Z</time>
      </trkpt>
      <trkpt lat="44.13748" lon="7.23447">
        <ele>2064.3</ele>
        <time>2023-02-05T11:28:41Z</time>
      </trkpt>
      <trkpt lat="44.13748" lon="7.23447">
        <ele>2064.3</ele>
        <time>2023-02-05T11:28:42Z</time>
      </trkpt>
      <trkpt lat="44.13749" lon="7.23447">
        <ele>2064.3</ele>
        <time>2023-02-05T11:28:43Z</time>
      </trkpt>
      <trkpt lat="44.13749" lon="7.23447">
        <ele>2064.2</ele>
        <time>2023-02-05T11:28:44Z</time>
      </trkpt>
      <trkpt lat="44.13749" lon="7.23447">
        <ele>2064.3</ele>
        <time>2023-02-05T11:28:45Z</time>
      </trkpt>
      <trkpt lat="44.13749" lon="7.23447">
        <ele>2064.3</ele>
        <time>2023-02-05T11:28:46Z</time>
      </trkpt>
      <trkpt lat="44.13749" lon="7.23447">
        <ele>2064.3</ele>
        <time>2023-02-05T11:28:47Z</time>
      </trkpt>
      <trkpt lat="44.13749" lon="7.23447">
        <ele>2064.3</ele>
        <time>2023-02-05T11:28:48Z</time>
      </trkpt>
      <trkpt lat="44.13749" lon="7.23447">
        <ele>2064.4</ele>
        <time>2023-02-05T11:28:49Z</time>
      </trkpt>
      <trkpt lat="44.1375" lon="7.23447">
        <ele>2064.4</ele>
        <time>2023-02-05T11:28:50Z</time>
      </trkpt>
      <trkpt lat="44.1375" lon="7.23447">
        <ele>2064.5</ele>
        <time>2023-02-05T11:28:51Z</time>
      </trkpt>
      <trkpt lat="44.1375" lon="7.23448">
        <ele>2064.5</ele>
        <time>2023-02-05T11:28:52Z</time>
      </trkpt>
      <trkpt lat="44.1375" lon="7.23448">
        <ele>2064.5</ele>
        <time>2023-02-05T11:28:53Z</time>
      </trkpt>
      <trkpt lat="44.1375" lon="7.23448">
        <ele>2064.5</ele>
        <time>2023-02-05T11:28:54Z</time>
      </trkpt>
      <trkpt lat="44.1375" lon="7.23448">
        <ele>2064.5</ele>
        <time>2023-02-05T11:28:55Z</time>
      </trkpt>
      <trkpt lat="44.1375" lon="7.23448">
        <ele>2064.5</ele>
        <time>2023-02-05T11:28:56Z</time>
      </trkpt>
      <trkpt lat="44.1375" lon="7.23448">
        <ele>2064.5</ele>
        <time>2023-02-05T11:28:57Z</time>
      </trkpt>
      <trkpt lat="44.1375" lon="7.23448">
        <ele>2064.5</ele>
        <time>2023-02-05T11:28:58Z</time>
      </trkpt>
      <trkpt lat="44.1375" lon="7.23448">
        <ele>2064.5</ele>
        <time>2023-02-05T11:28:59Z</time>
      </trkpt>
      <trkpt lat="44.1375" lon="7.23448">
        <ele>2064.5</ele>
        <time>2023-02-05T11:29:00Z</time>
      </trkpt>
      <trkpt lat="44.13751" lon="7.23448">
        <ele>2064.6</ele>
        <time>2023-02-05T11:29:01Z</time>
      </trkpt>
      <trkpt lat="44.13751" lon="7.23448">
        <ele>2064.7</ele>
        <time>2023-02-05T11:29:02Z</time>
      </trkpt>
      <trkpt lat="44.13751" lon="7.23448">
        <ele>2064.8</ele>
        <time>2023-02-05T11:29:03Z</time>
      </trkpt>
      <trkpt lat="44.13751" lon="7.23448">
        <ele>2064.8</ele>
        <time>2023-02-05T11:29:04Z</time>
      </trkpt>
      <trkpt lat="44.13751" lon="7.23448">
        <ele>2064.8</ele>
        <time>2023-02-05T11:29:05Z</time>
      </trkpt>
      <trkpt lat="44.13751" lon="7.23448">
        <ele>2064.8</ele>
        <time>2023-02-05T11:29:06Z</time>
      </trkpt>
      <trkpt lat="44.13751" lon="7.23448">
        <ele>2064.8</ele>
        <time>2023-02-05T11:29:07Z</time>
      </trkpt>
      <trkpt lat="44.13751" lon="7.23449">
        <ele>2064.8</ele>
        <time>2023-02-05T11:29:08Z</time>
      </trkpt>
      <trkpt lat="44.13751" lon="7.23449">
        <ele>2064.8</ele>
        <time>2023-02-05T11:29:09Z</time>
      </trkpt>
      <trkpt lat="44.13751" lon="7.23449">
        <ele>2064.8</ele>
        <time>2023-02-05T11:29:10Z</time>
      </trkpt>
      <trkpt lat="44.13751" lon="7.23449">
        <ele>2064.7</ele>
        <time>2023-02-05T11:29:11Z</time>
      </trkpt>
      <trkpt lat="44.13752" lon="7.23449">
        <ele>2064.7</ele>
        <time>2023-02-05T11:29:12Z</time>
      </trkpt>
      <trkpt lat="44.13752" lon="7.23449">
        <ele>2064.7</ele>
        <time>2023-02-05T11:29:13Z</time>
      </trkpt>
      <trkpt lat="44.13752" lon="7.23449">
        <ele>2064.8</ele>
        <time>2023-02-05T11:29:14Z</time>
      </trkpt>
      <trkpt lat="44.13752" lon="7.23449">
        <ele>2064.8</ele>
        <time>2023-02-05T11:29:15Z</time>
      </trkpt>
      <trkpt lat="44.13752" lon="7.23449">
        <ele>2064.8</ele>
        <time>2023-02-05T11:29:16Z</time>
      </trkpt>
      <trkpt lat="44.13752" lon="7.23449">
        <ele>2064.8</ele>
        <time>2023-02-05T11:29:17Z</time>
      </trkpt>
      <trkpt lat="44.13752" lon="7.23449">
        <ele>2064.9</ele>
        <time>2023-02-05T11:29:18Z</time>
      </trkpt>
      <trkpt lat="44.13752" lon="7.23449">
        <ele>2065</ele>
        <time>2023-02-05T11:29:19Z</time>
      </trkpt>
      <trkpt lat="44.13752" lon="7.23449">
        <ele>2065</ele>
        <time>2023-02-05T11:29:20Z</time>
      </trkpt>
      <trkpt lat="44.13752" lon="7.23449">
        <ele>2065</ele>
        <time>2023-02-05T11:29:21Z</time>
      </trkpt>
      <trkpt lat="44.13752" lon="7.23449">
        <ele>2065</ele>
        <time>2023-02-05T11:29:22Z</time>
      </trkpt>
      <trkpt lat="44.13752" lon="7.23449">
        <ele>2065</ele>
        <time>2023-02-05T11:29:23Z</time>
      </trkpt>
      <trkpt lat="44.13752" lon="7.23449">
        <ele>2064.9</ele>
        <time>2023-02-05T11:29:24Z</time>
      </trkpt>
      <trkpt lat="44.13752" lon="7.23449">
        <ele>2064.9</ele>
        <time>2023-02-05T11:29:25Z</time>
      </trkpt>
      <trkpt lat="44.13751" lon="7.23449">
        <ele>2065</ele>
        <time>2023-02-05T11:29:26Z</time>
      </trkpt>
      <trkpt lat="44.13751" lon="7.23449">
        <ele>2065.1</ele>
        <time>2023-02-05T11:29:27Z</time>
      </trkpt>
      <trkpt lat="44.13751" lon="7.23449">
        <ele>2065.1</ele>
        <time>2023-02-05T11:29:28Z</time>
      </trkpt>
      <trkpt lat="44.13751" lon="7.23448">
        <ele>2065.1</ele>
        <time>2023-02-05T11:29:29Z</time>
      </trkpt>
      <trkpt lat="44.13751" lon="7.23448">
        <ele>2065</ele>
        <time>2023-02-05T11:29:30Z</time>
      </trkpt>
      <trkpt lat="44.13751" lon="7.23448">
        <ele>2064.9</ele>
        <time>2023-02-05T11:29:31Z</time>
      </trkpt>
      <trkpt lat="44.13751" lon="7.23448">
        <ele>2064.9</ele>
        <time>2023-02-05T11:29:32Z</time>
      </trkpt>
      <trkpt lat="44.13751" lon="7.23448">
        <ele>2064.9</ele>
        <time>2023-02-05T11:29:33Z</time>
      </trkpt>
      <trkpt lat="44.13751" lon="7.23448">
        <ele>2064.8</ele>
        <time>2023-02-05T11:29:34Z</time>
      </trkpt>
      <trkpt lat="44.13751" lon="7.23448">
        <ele>2064.8</ele>
        <time>2023-02-05T11:29:35Z</time>
      </trkpt>
      <trkpt lat="44.13751" lon="7.23448">
        <ele>2064.7</ele>
        <time>2023-02-05T11:29:36Z</time>
      </trkpt>
      <trkpt lat="44.13751" lon="7.23448">
        <ele>2064.7</ele>
        <time>2023-02-05T11:29:37Z</time>
      </trkpt>
      <trkpt lat="44.13751" lon="7.23448">
        <ele>2064.7</ele>
        <time>2023-02-05T11:29:38Z</time>
      </trkpt>
      <trkpt lat="44.13751" lon="7.23448">
        <ele>2064.6</ele>
        <time>2023-02-05T11:29:39Z</time>
      </trkpt>
      <trkpt lat="44.13751" lon="7.23448">
        <ele>2064.6</ele>
        <time>2023-02-05T11:29:40Z</time>
      </trkpt>
      <trkpt lat="44.13751" lon="7.23448">
        <ele>2064.7</ele>
        <time>2023-02-05T11:29:41Z</time>
      </trkpt>
      <trkpt lat="44.13752" lon="7.23448">
        <ele>2064.7</ele>
        <time>2023-02-05T11:29:42Z</time>
      </trkpt>
      <trkpt lat="44.13752" lon="7.23447">
        <ele>2064.7</ele>
        <time>2023-02-05T11:29:43Z</time>
      </trkpt>
      <trkpt lat="44.13751" lon="7.23447">
        <ele>2064.7</ele>
        <time>2023-02-05T11:29:44Z</time>
      </trkpt>
      <trkpt lat="44.13751" lon="7.23447">
        <ele>2064.7</ele>
        <time>2023-02-05T11:29:45Z</time>
      </trkpt>
      <trkpt lat="44.13751" lon="7.23447">
        <ele>2064.7</ele>
        <time>2023-02-05T11:29:46Z</time>
      </trkpt>
      <trkpt lat="44.13751" lon="7.23447">
        <ele>2064.7</ele>
        <time>2023-02-05T11:29:47Z</time>
      </trkpt>
      <trkpt lat="44.13751" lon="7.23447">
        <ele>2064.7</ele>
        <time>2023-02-05T11:29:48Z</time>
      </trkpt>
      <trkpt lat="44.13751" lon="7.23447">
        <ele>2064.7</ele>
        <time>2023-02-05T11:29:49Z</time>
      </trkpt>
      <trkpt lat="44.13751" lon="7.23447">
        <ele>2064.7</ele>
        <time>2023-02-05T11:29:50Z</time>
      </trkpt>
      <trkpt lat="44.13751" lon="7.23448">
        <ele>2064.6</ele>
        <time>2023-02-05T11:29:51Z</time>
      </trkpt>
      <trkpt lat="44.13751" lon="7.23448">
        <ele>2064.7</ele>
        <time>2023-02-05T11:29:52Z</time>
      </trkpt>
      <trkpt lat="44.13751" lon="7.23448">
        <ele>2064.7</ele>
        <time>2023-02-05T11:29:53Z</time>
      </trkpt>
      <trkpt lat="44.13751" lon="7.23448">
        <ele>2064.7</ele>
        <time>2023-02-05T11:29:54Z</time>
      </trkpt>
      <trkpt lat="44.13751" lon="7.23448">
        <ele>2064.7</ele>
        <time>2023-02-05T11:29:55Z</time>
      </trkpt>
      <trkpt lat="44.13751" lon="7.23448">
        <ele>2064.7</ele>
        <time>2023-02-05T11:29:56Z</time>
      </trkpt>
      <trkpt lat="44.13751" lon="7.23448">
        <ele>2064.7</ele>
        <time>2023-02-05T11:29:57Z</time>
      </trkpt>
      <trkpt lat="44.13751" lon="7.23448">
        <ele>2064.7</ele>
        <time>2023-02-05T11:29:58Z</time>
      </trkpt>
      <trkpt lat="44.13751" lon="7.23448">
        <ele>2064.6</ele>
        <time>2023-02-05T11:29:59Z</time>
      </trkpt>
      <trkpt lat="44.13751" lon="7.23449">
        <ele>2064.6</ele>
        <time>2023-02-05T11:30:00Z</time>
      </trkpt>
      <trkpt lat="44.13752" lon="7.23449">
        <ele>2064.7</ele>
        <time>2023-02-05T11:30:01Z</time>
      </trkpt>
      <trkpt lat="44.13752" lon="7.23449">
        <ele>2064.6</ele>
        <time>2023-02-05T11:30:02Z</time>
      </trkpt>
      <trkpt lat="44.13752" lon="7.23449">
        <ele>2064.5</ele>
        <time>2023-02-05T11:30:03Z</time>
      </trkpt>
      <trkpt lat="44.13752" lon="7.23449">
        <ele>2064.4</ele>
        <time>2023-02-05T11:30:04Z</time>
      </trkpt>
      <trkpt lat="44.13752" lon="7.23449">
        <ele>2064.3</ele>
        <time>2023-02-05T11:30:05Z</time>
      </trkpt>
      <trkpt lat="44.13752" lon="7.23449">
        <ele>2064.3</ele>
        <time>2023-02-05T11:30:06Z</time>
      </trkpt>
      <trkpt lat="44.13752" lon="7.23449">
        <ele>2064.2</ele>
        <time>2023-02-05T11:30:07Z</time>
      </trkpt>
      <trkpt lat="44.13752" lon="7.2345">
        <ele>2064.1</ele>
        <time>2023-02-05T11:30:08Z</time>
      </trkpt>
      <trkpt lat="44.13752" lon="7.2345">
        <ele>2064.2</ele>
        <time>2023-02-05T11:30:09Z</time>
      </trkpt>
      <trkpt lat="44.13752" lon="7.2345">
        <ele>2064.2</ele>
        <time>2023-02-05T11:30:10Z</time>
      </trkpt>
      <trkpt lat="44.13752" lon="7.2345">
        <ele>2064.2</ele>
        <time>2023-02-05T11:30:11Z</time>
      </trkpt>
      <trkpt lat="44.13752" lon="7.2345">
        <ele>2064.2</ele>
        <time>2023-02-05T11:30:12Z</time>
      </trkpt>
      <trkpt lat="44.13753" lon="7.2345">
        <ele>2064.2</ele>
        <time>2023-02-05T11:30:13Z</time>
      </trkpt>
      <trkpt lat="44.13753" lon="7.2345">
        <ele>2064.2</ele>
        <time>2023-02-05T11:30:14Z</time>
      </trkpt>
      <trkpt lat="44.13753" lon="7.2345">
        <ele>2064.2</ele>
        <time>2023-02-05T11:30:15Z</time>
      </trkpt>
      <trkpt lat="44.13753" lon="7.23451">
        <ele>2064.2</ele>
        <time>2023-02-05T11:30:16Z</time>
      </trkpt>
      <trkpt lat="44.13753" lon="7.23451">
        <ele>2064.2</ele>
        <time>2023-02-05T11:30:17Z</time>
      </trkpt>
      <trkpt lat="44.13753" lon="7.23451">
        <ele>2064.2</ele>
        <time>2023-02-05T11:30:18Z</time>
      </trkpt>
      <trkpt lat="44.13753" lon="7.23451">
        <ele>2064.2</ele>
        <time>2023-02-05T11:30:19Z</time>
      </trkpt>
      <trkpt lat="44.13753" lon="7.23451">
        <ele>2064.3</ele>
        <time>2023-02-05T11:30:20Z</time>
      </trkpt>
      <trkpt lat="44.13753" lon="7.23451">
        <ele>2064.3</ele>
        <time>2023-02-05T11:30:21Z</time>
      </trkpt>
      <trkpt lat="44.13753" lon="7.23451">
        <ele>2064.3</ele>
        <time>2023-02-05T11:30:22Z</time>
      </trkpt>
      <trkpt lat="44.13753" lon="7.23451">
        <ele>2064.2</ele>
        <time>2023-02-05T11:30:23Z</time>
      </trkpt>
      <trkpt lat="44.13753" lon="7.23451">
        <ele>2064.2</ele>
        <time>2023-02-05T11:30:24Z</time>
      </trkpt>
      <trkpt lat="44.13753" lon="7.23451">
        <ele>2064.2</ele>
        <time>2023-02-05T11:30:25Z</time>
      </trkpt>
      <trkpt lat="44.13753" lon="7.23451">
        <ele>2064.3</ele>
        <time>2023-02-05T11:30:26Z</time>
      </trkpt>
      <trkpt lat="44.13753" lon="7.23451">
        <ele>2064.3</ele>
        <time>2023-02-05T11:30:27Z</time>
      </trkpt>
      <trkpt lat="44.13753" lon="7.23451">
        <ele>2064.5</ele>
        <time>2023-02-05T11:30:28Z</time>
      </trkpt>
      <trkpt lat="44.13753" lon="7.23451">
        <ele>2064.5</ele>
        <time>2023-02-05T11:30:29Z</time>
      </trkpt>
      <trkpt lat="44.13753" lon="7.23451">
        <ele>2064.6</ele>
        <time>2023-02-05T11:30:30Z</time>
      </trkpt>
      <trkpt lat="44.13753" lon="7.23451">
        <ele>2064.7</ele>
        <time>2023-02-05T11:30:31Z</time>
      </trkpt>
      <trkpt lat="44.13753" lon="7.23451">
        <ele>2064.7</ele>
        <time>2023-02-05T11:30:32Z</time>
      </trkpt>
      <trkpt lat="44.13753" lon="7.23451">
        <ele>2064.7</ele>
        <time>2023-02-05T11:30:33Z</time>
      </trkpt>
      <trkpt lat="44.13752" lon="7.23451">
        <ele>2064.6</ele>
        <time>2023-02-05T11:30:34Z</time>
      </trkpt>
      <trkpt lat="44.13752" lon="7.23451">
        <ele>2064.6</ele>
        <time>2023-02-05T11:30:35Z</time>
      </trkpt>
      <trkpt lat="44.13752" lon="7.2345">
        <ele>2064.6</ele>
        <time>2023-02-05T11:30:36Z</time>
      </trkpt>
      <trkpt lat="44.13752" lon="7.2345">
        <ele>2064.5</ele>
        <time>2023-02-05T11:30:37Z</time>
      </trkpt>
      <trkpt lat="44.13752" lon="7.2345">
        <ele>2064.5</ele>
        <time>2023-02-05T11:30:38Z</time>
      </trkpt>
      <trkpt lat="44.13752" lon="7.2345">
        <ele>2064.4</ele>
        <time>2023-02-05T11:30:39Z</time>
      </trkpt>
      <trkpt lat="44.13752" lon="7.23449">
        <ele>2064.4</ele>
        <time>2023-02-05T11:30:40Z</time>
      </trkpt>
      <trkpt lat="44.13752" lon="7.23449">
        <ele>2064.4</ele>
        <time>2023-02-05T11:30:41Z</time>
      </trkpt>
      <trkpt lat="44.13752" lon="7.23449">
        <ele>2064.4</ele>
        <time>2023-02-05T11:30:42Z</time>
      </trkpt>
      <trkpt lat="44.13752" lon="7.2345">
        <ele>2064.5</ele>
        <time>2023-02-05T11:30:43Z</time>
      </trkpt>
      <trkpt lat="44.13752" lon="7.2345">
        <ele>2064.5</ele>
        <time>2023-02-05T11:30:44Z</time>
      </trkpt>
      <trkpt lat="44.13752" lon="7.2345">
        <ele>2064.6</ele>
        <time>2023-02-05T11:30:45Z</time>
      </trkpt>
      <trkpt lat="44.13753" lon="7.23451">
        <ele>2064.6</ele>
        <time>2023-02-05T11:30:46Z</time>
      </trkpt>
      <trkpt lat="44.13752" lon="7.2345">
        <ele>2064.6</ele>
        <time>2023-02-05T11:30:47Z</time>
      </trkpt>
      <trkpt lat="44.13753" lon="7.2345">
        <ele>2064.5</ele>
        <time>2023-02-05T11:30:48Z</time>
      </trkpt>
      <trkpt lat="44.13752" lon="7.2345">
        <ele>2064.4</ele>
        <time>2023-02-05T11:30:49Z</time>
      </trkpt>
      <trkpt lat="44.13752" lon="7.2345">
        <ele>2064.4</ele>
        <time>2023-02-05T11:30:50Z</time>
      </trkpt>
      <trkpt lat="44.13753" lon="7.23451">
        <ele>2064.3</ele>
        <time>2023-02-05T11:30:51Z</time>
      </trkpt>
      <trkpt lat="44.13753" lon="7.23451">
        <ele>2064.3</ele>
        <time>2023-02-05T11:30:52Z</time>
      </trkpt>
      <trkpt lat="44.13753" lon="7.23451">
        <ele>2064.3</ele>
        <time>2023-02-05T11:30:53Z</time>
      </trkpt>
      <trkpt lat="44.13753" lon="7.23451">
        <ele>2064.4</ele>
        <time>2023-02-05T11:30:54Z</time>
      </trkpt>
      <trkpt lat="44.13753" lon="7.23451">
        <ele>2064.3</ele>
        <time>2023-02-05T11:30:55Z</time>
      </trkpt>
      <trkpt lat="44.13753" lon="7.23451">
        <ele>2064.2</ele>
        <time>2023-02-05T11:30:56Z</time>
      </trkpt>
      <trkpt lat="44.13753" lon="7.23451">
        <ele>2064.2</ele>
        <time>2023-02-05T11:30:57Z</time>
      </trkpt>
      <trkpt lat="44.13753" lon="7.23451">
        <ele>2064.2</ele>
        <time>2023-02-05T11:30:58Z</time>
      </trkpt>
      <trkpt lat="44.13753" lon="7.23452">
        <ele>2064.3</ele>
        <time>2023-02-05T11:30:59Z</time>
      </trkpt>
      <trkpt lat="44.13753" lon="7.23452">
        <ele>2064.4</ele>
        <time>2023-02-05T11:31:00Z</time>
      </trkpt>
      <trkpt lat="44.13753" lon="7.23452">
        <ele>2064.6</ele>
        <time>2023-02-05T11:31:01Z</time>
      </trkpt>
      <trkpt lat="44.13753" lon="7.23452">
        <ele>2064.7</ele>
        <time>2023-02-05T11:31:02Z</time>
      </trkpt>
      <trkpt lat="44.13753" lon="7.23452">
        <ele>2064.7</ele>
        <time>2023-02-05T11:31:03Z</time>
      </trkpt>
      <trkpt lat="44.13753" lon="7.23452">
        <ele>2064.8</ele>
        <time>2023-02-05T11:31:04Z</time>
      </trkpt>
      <trkpt lat="44.13753" lon="7.23452">
        <ele>2064.8</ele>
        <time>2023-02-05T11:31:05Z</time>
      </trkpt>
      <trkpt lat="44.13753" lon="7.23452">
        <ele>2064.8</ele>
        <time>2023-02-05T11:31:06Z</time>
      </trkpt>
      <trkpt lat="44.13753" lon="7.23452">
        <ele>2064.8</ele>
        <time>2023-02-05T11:31:07Z</time>
      </trkpt>
      <trkpt lat="44.13753" lon="7.23453">
        <ele>2064.7</ele>
        <time>2023-02-05T11:31:08Z</time>
      </trkpt>
      <trkpt lat="44.13753" lon="7.23453">
        <ele>2064.7</ele>
        <time>2023-02-05T11:31:09Z</time>
      </trkpt>
      <trkpt lat="44.13753" lon="7.23453">
        <ele>2064.7</ele>
        <time>2023-02-05T11:31:10Z</time>
      </trkpt>
      <trkpt lat="44.13753" lon="7.23452">
        <ele>2064.7</ele>
        <time>2023-02-05T11:31:11Z</time>
      </trkpt>
      <trkpt lat="44.13753" lon="7.23452">
        <ele>2064.7</ele>
        <time>2023-02-05T11:31:12Z</time>
      </trkpt>
      <trkpt lat="44.13753" lon="7.23452">
        <ele>2064.7</ele>
        <time>2023-02-05T11:31:13Z</time>
      </trkpt>
      <trkpt lat="44.13753" lon="7.23453">
        <ele>2064.6</ele>
        <time>2023-02-05T11:31:14Z</time>
      </trkpt>
      <trkpt lat="44.13753" lon="7.23453">
        <ele>2064.6</ele>
        <time>2023-02-05T11:31:15Z</time>
      </trkpt>
      <trkpt lat="44.13753" lon="7.23453">
        <ele>2064.5</ele>
        <time>2023-02-05T11:31:16Z</time>
      </trkpt>
      <trkpt lat="44.13753" lon="7.23453">
        <ele>2064.4</ele>
        <time>2023-02-05T11:31:17Z</time>
      </trkpt>
      <trkpt lat="44.13753" lon="7.23453">
        <ele>2064.2</ele>
        <time>2023-02-05T11:31:18Z</time>
      </trkpt>
      <trkpt lat="44.13753" lon="7.23453">
        <ele>2064.1</ele>
        <time>2023-02-05T11:31:19Z</time>
      </trkpt>
      <trkpt lat="44.13753" lon="7.23453">
        <ele>2064.1</ele>
        <time>2023-02-05T11:31:20Z</time>
      </trkpt>
      <trkpt lat="44.13753" lon="7.23453">
        <ele>2064.1</ele>
        <time>2023-02-05T11:31:21Z</time>
      </trkpt>
      <trkpt lat="44.13753" lon="7.23453">
        <ele>2064.2</ele>
        <time>2023-02-05T11:31:22Z</time>
      </trkpt>
      <trkpt lat="44.13753" lon="7.23453">
        <ele>2064.2</ele>
        <time>2023-02-05T11:31:23Z</time>
      </trkpt>
      <trkpt lat="44.13753" lon="7.23453">
        <ele>2064.3</ele>
        <time>2023-02-05T11:31:24Z</time>
      </trkpt>
      <trkpt lat="44.13753" lon="7.23453">
        <ele>2064.3</ele>
        <time>2023-02-05T11:31:25Z</time>
      </trkpt>
      <trkpt lat="44.13752" lon="7.23453">
        <ele>2064.4</ele>
        <time>2023-02-05T11:31:26Z</time>
      </trkpt>
      <trkpt lat="44.13753" lon="7.23453">
        <ele>2064.5</ele>
        <time>2023-02-05T11:31:27Z</time>
      </trkpt>
      <trkpt lat="44.13753" lon="7.23453">
        <ele>2064.5</ele>
        <time>2023-02-05T11:31:28Z</time>
      </trkpt>
      <trkpt lat="44.13753" lon="7.23453">
        <ele>2064.5</ele>
        <time>2023-02-05T11:31:29Z</time>
      </trkpt>
      <trkpt lat="44.13752" lon="7.23453">
        <ele>2064.4</ele>
        <time>2023-02-05T11:31:30Z</time>
      </trkpt>
      <trkpt lat="44.13752" lon="7.23453">
        <ele>2064.3</ele>
        <time>2023-02-05T11:31:31Z</time>
      </trkpt>
      <trkpt lat="44.13752" lon="7.23452">
        <ele>2064.3</ele>
        <time>2023-02-05T11:31:32Z</time>
      </trkpt>
      <trkpt lat="44.13752" lon="7.23453">
        <ele>2064.3</ele>
        <time>2023-02-05T11:31:33Z</time>
      </trkpt>
      <trkpt lat="44.13752" lon="7.23452">
        <ele>2064.4</ele>
        <time>2023-02-05T11:31:34Z</time>
      </trkpt>
      <trkpt lat="44.13751" lon="7.23452">
        <ele>2064.5</ele>
        <time>2023-02-05T11:31:35Z</time>
      </trkpt>
      <trkpt lat="44.13751" lon="7.23452">
        <ele>2064.4</ele>
        <time>2023-02-05T11:31:36Z</time>
      </trkpt>
      <trkpt lat="44.1375" lon="7.23452">
        <ele>2064.3</ele>
        <time>2023-02-05T11:31:37Z</time>
      </trkpt>
      <trkpt lat="44.1375" lon="7.23451">
        <ele>2064.4</ele>
        <time>2023-02-05T11:31:38Z</time>
      </trkpt>
      <trkpt lat="44.1375" lon="7.23451">
        <ele>2064.5</ele>
        <time>2023-02-05T11:31:39Z</time>
      </trkpt>
      <trkpt lat="44.1375" lon="7.23451">
        <ele>2064.5</ele>
        <time>2023-02-05T11:31:40Z</time>
      </trkpt>
      <trkpt lat="44.1375" lon="7.23451">
        <ele>2064.5</ele>
        <time>2023-02-05T11:31:41Z</time>
      </trkpt>
      <trkpt lat="44.1375" lon="7.2345">
        <ele>2064.5</ele>
        <time>2023-02-05T11:31:42Z</time>
      </trkpt>
      <trkpt lat="44.13749" lon="7.2345">
        <ele>2064.4</ele>
        <time>2023-02-05T11:31:43Z</time>
      </trkpt>
      <trkpt lat="44.13749" lon="7.2345">
        <ele>2064.4</ele>
        <time>2023-02-05T11:31:44Z</time>
      </trkpt>
      <trkpt lat="44.13749" lon="7.2345">
        <ele>2064.4</ele>
        <time>2023-02-05T11:31:45Z</time>
      </trkpt>
      <trkpt lat="44.13749" lon="7.23449">
        <ele>2064.4</ele>
        <time>2023-02-05T11:31:46Z</time>
      </trkpt>
      <trkpt lat="44.13749" lon="7.23449">
        <ele>2064.4</ele>
        <time>2023-02-05T11:31:47Z</time>
      </trkpt>
      <trkpt lat="44.13749" lon="7.23449">
        <ele>2064.3</ele>
        <time>2023-02-05T11:31:48Z</time>
      </trkpt>
      <trkpt lat="44.13749" lon="7.23449">
        <ele>2064.3</ele>
        <time>2023-02-05T11:31:49Z</time>
      </trkpt>
      <trkpt lat="44.13749" lon="7.23449">
        <ele>2064.3</ele>
        <time>2023-02-05T11:31:50Z</time>
      </trkpt>
      <trkpt lat="44.13749" lon="7.23448">
        <ele>2064.3</ele>
        <time>2023-02-05T11:31:51Z</time>
      </trkpt>
      <trkpt lat="44.13749" lon="7.23448">
        <ele>2064.3</ele>
        <time>2023-02-05T11:31:52Z</time>
      </trkpt>
      <trkpt lat="44.13749" lon="7.23448">
        <ele>2064.3</ele>
        <time>2023-02-05T11:31:53Z</time>
      </trkpt>
      <trkpt lat="44.13749" lon="7.23447">
        <ele>2064.3</ele>
        <time>2023-02-05T11:31:54Z</time>
      </trkpt>
      <trkpt lat="44.1375" lon="7.23447">
        <ele>2064.3</ele>
        <time>2023-02-05T11:31:55Z</time>
      </trkpt>
      <trkpt lat="44.13749" lon="7.23447">
        <ele>2064.3</ele>
        <time>2023-02-05T11:31:56Z</time>
      </trkpt>
      <trkpt lat="44.13749" lon="7.23446">
        <ele>2064.3</ele>
        <time>2023-02-05T11:31:57Z</time>
      </trkpt>
      <trkpt lat="44.13749" lon="7.23446">
        <ele>2064.3</ele>
        <time>2023-02-05T11:31:58Z</time>
      </trkpt>
      <trkpt lat="44.13749" lon="7.23446">
        <ele>2064.3</ele>
        <time>2023-02-05T11:31:59Z</time>
      </trkpt>
      <trkpt lat="44.13749" lon="7.23445">
        <ele>2064.4</ele>
        <time>2023-02-05T11:32:00Z</time>
      </trkpt>
      <trkpt lat="44.13749" lon="7.23445">
        <ele>2064.4</ele>
        <time>2023-02-05T11:32:01Z</time>
      </trkpt>
      <trkpt lat="44.1375" lon="7.23445">
        <ele>2064.4</ele>
        <time>2023-02-05T11:32:02Z</time>
      </trkpt>
      <trkpt lat="44.1375" lon="7.23445">
        <ele>2064.4</ele>
        <time>2023-02-05T11:32:03Z</time>
      </trkpt>
      <trkpt lat="44.13751" lon="7.23445">
        <ele>2064.5</ele>
        <time>2023-02-05T11:32:04Z</time>
      </trkpt>
      <trkpt lat="44.13751" lon="7.23444">
        <ele>2064.6</ele>
        <time>2023-02-05T11:32:05Z</time>
      </trkpt>
      <trkpt lat="44.13751" lon="7.23444">
        <ele>2064.6</ele>
        <time>2023-02-05T11:32:06Z</time>
      </trkpt>
      <trkpt lat="44.13751" lon="7.23444">
        <ele>2064.7</ele>
        <time>2023-02-05T11:32:07Z</time>
      </trkpt>
      <trkpt lat="44.13751" lon="7.23444">
        <ele>2064.7</ele>
        <time>2023-02-05T11:32:08Z</time>
      </trkpt>
      <trkpt lat="44.1375" lon="7.23444">
        <ele>2064.8</ele>
        <time>2023-02-05T11:32:09Z</time>
      </trkpt>
      <trkpt lat="44.1375" lon="7.23444">
        <ele>2064.7</ele>
        <time>2023-02-05T11:32:10Z</time>
      </trkpt>
      <trkpt lat="44.1375" lon="7.23444">
        <ele>2064.7</ele>
        <time>2023-02-05T11:32:11Z</time>
      </trkpt>
      <trkpt lat="44.1375" lon="7.23443">
        <ele>2064.6</ele>
        <time>2023-02-05T11:32:12Z</time>
      </trkpt>
      <trkpt lat="44.1375" lon="7.23443">
        <ele>2064.6</ele>
        <time>2023-02-05T11:32:13Z</time>
      </trkpt>
      <trkpt lat="44.13749" lon="7.23443">
        <ele>2064.6</ele>
        <time>2023-02-05T11:32:14Z</time>
      </trkpt>
      <trkpt lat="44.13748" lon="7.23443">
        <ele>2064.7</ele>
        <time>2023-02-05T11:32:15Z</time>
      </trkpt>
      <trkpt lat="44.13748" lon="7.23443">
        <ele>2064.8</ele>
        <time>2023-02-05T11:32:16Z</time>
      </trkpt>
      <trkpt lat="44.13748" lon="7.23443">
        <ele>2064.7</ele>
        <time>2023-02-05T11:32:17Z</time>
      </trkpt>
      <trkpt lat="44.13748" lon="7.23443">
        <ele>2064.7</ele>
        <time>2023-02-05T11:32:18Z</time>
      </trkpt>
      <trkpt lat="44.13747" lon="7.23443">
        <ele>2064.8</ele>
        <time>2023-02-05T11:32:19Z</time>
      </trkpt>
      <trkpt lat="44.13747" lon="7.23443">
        <ele>2064.8</ele>
        <time>2023-02-05T11:32:20Z</time>
      </trkpt>
      <trkpt lat="44.13747" lon="7.23443">
        <ele>2064.9</ele>
        <time>2023-02-05T11:32:21Z</time>
      </trkpt>
      <trkpt lat="44.13747" lon="7.23443">
        <ele>2064.9</ele>
        <time>2023-02-05T11:32:22Z</time>
      </trkpt>
      <trkpt lat="44.13747" lon="7.23443">
        <ele>2064.8</ele>
        <time>2023-02-05T11:32:23Z</time>
      </trkpt>
      <trkpt lat="44.13748" lon="7.23444">
        <ele>2064.8</ele>
        <time>2023-02-05T11:32:24Z</time>
      </trkpt>
      <trkpt lat="44.13748" lon="7.23444">
        <ele>2064.8</ele>
        <time>2023-02-05T11:32:25Z</time>
      </trkpt>
      <trkpt lat="44.13748" lon="7.23444">
        <ele>2064.7</ele>
        <time>2023-02-05T11:32:26Z</time>
      </trkpt>
      <trkpt lat="44.13749" lon="7.23444">
        <ele>2064.8</ele>
        <time>2023-02-05T11:32:27Z</time>
      </trkpt>
      <trkpt lat="44.13749" lon="7.23444">
        <ele>2064.8</ele>
        <time>2023-02-05T11:32:28Z</time>
      </trkpt>
      <trkpt lat="44.13748" lon="7.23444">
        <ele>2064.8</ele>
        <time>2023-02-05T11:32:29Z</time>
      </trkpt>
      <trkpt lat="44.13748" lon="7.23444">
        <ele>2064.8</ele>
        <time>2023-02-05T11:32:30Z</time>
      </trkpt>
      <trkpt lat="44.13749" lon="7.23444">
        <ele>2064.8</ele>
        <time>2023-02-05T11:32:31Z</time>
      </trkpt>
      <trkpt lat="44.13749" lon="7.23444">
        <ele>2064.8</ele>
        <time>2023-02-05T11:32:32Z</time>
      </trkpt>
      <trkpt lat="44.13748" lon="7.23444">
        <ele>2064.9</ele>
        <time>2023-02-05T11:32:33Z</time>
      </trkpt>
      <trkpt lat="44.13749" lon="7.23444">
        <ele>2065</ele>
        <time>2023-02-05T11:32:34Z</time>
      </trkpt>
      <trkpt lat="44.13749" lon="7.23444">
        <ele>2065</ele>
        <time>2023-02-05T11:32:35Z</time>
      </trkpt>
      <trkpt lat="44.13749" lon="7.23444">
        <ele>2064.9</ele>
        <time>2023-02-05T11:32:36Z</time>
      </trkpt>
      <trkpt lat="44.13749" lon="7.23444">
        <ele>2064.9</ele>
        <time>2023-02-05T11:32:37Z</time>
      </trkpt>
      <trkpt lat="44.13749" lon="7.23444">
        <ele>2064.8</ele>
        <time>2023-02-05T11:32:38Z</time>
      </trkpt>
      <trkpt lat="44.13749" lon="7.23444">
        <ele>2064.8</ele>
        <time>2023-02-05T11:32:39Z</time>
      </trkpt>
      <trkpt lat="44.13749" lon="7.23444">
        <ele>2064.8</ele>
        <time>2023-02-05T11:32:40Z</time>
      </trkpt>
      <trkpt lat="44.13749" lon="7.23444">
        <ele>2064.8</ele>
        <time>2023-02-05T11:32:41Z</time>
      </trkpt>
      <trkpt lat="44.13749" lon="7.23444">
        <ele>2064.8</ele>
        <time>2023-02-05T11:32:42Z</time>
      </trkpt>
      <trkpt lat="44.13749" lon="7.23444">
        <ele>2064.8</ele>
        <time>2023-02-05T11:32:43Z</time>
      </trkpt>
      <trkpt lat="44.13749" lon="7.23444">
        <ele>2064.9</ele>
        <time>2023-02-05T11:32:44Z</time>
      </trkpt>
      <trkpt lat="44.13749" lon="7.23444">
        <ele>2064.8</ele>
        <time>2023-02-05T11:32:45Z</time>
      </trkpt>
      <trkpt lat="44.13749" lon="7.23444">
        <ele>2064.8</ele>
        <time>2023-02-05T11:32:46Z</time>
      </trkpt>
      <trkpt lat="44.1375" lon="7.23444">
        <ele>2064.8</ele>
        <time>2023-02-05T11:32:47Z</time>
      </trkpt>
      <trkpt lat="44.1375" lon="7.23444">
        <ele>2064.7</ele>
        <time>2023-02-05T11:32:48Z</time>
      </trkpt>
      <trkpt lat="44.1375" lon="7.23444">
        <ele>2064.7</ele>
        <time>2023-02-05T11:32:49Z</time>
      </trkpt>
      <trkpt lat="44.1375" lon="7.23444">
        <ele>2064.7</ele>
        <time>2023-02-05T11:32:50Z</time>
      </trkpt>
      <trkpt lat="44.1375" lon="7.23444">
        <ele>2064.7</ele>
        <time>2023-02-05T11:32:51Z</time>
      </trkpt>
      <trkpt lat="44.1375" lon="7.23444">
        <ele>2064.7</ele>
        <time>2023-02-05T11:32:52Z</time>
      </trkpt>
      <trkpt lat="44.1375" lon="7.23444">
        <ele>2064.7</ele>
        <time>2023-02-05T11:32:53Z</time>
      </trkpt>
      <trkpt lat="44.1375" lon="7.23444">
        <ele>2064.7</ele>
        <time>2023-02-05T11:32:54Z</time>
      </trkpt>
      <trkpt lat="44.13751" lon="7.23444">
        <ele>2064.7</ele>
        <time>2023-02-05T11:32:55Z</time>
      </trkpt>
      <trkpt lat="44.13751" lon="7.23444">
        <ele>2064.7</ele>
        <time>2023-02-05T11:32:56Z</time>
      </trkpt>
      <trkpt lat="44.13751" lon="7.23444">
        <ele>2064.8</ele>
        <time>2023-02-05T11:32:57Z</time>
      </trkpt>
      <trkpt lat="44.13751" lon="7.23445">
        <ele>2064.8</ele>
        <time>2023-02-05T11:32:58Z</time>
      </trkpt>
      <trkpt lat="44.13751" lon="7.23445">
        <ele>2064.9</ele>
        <time>2023-02-05T11:32:59Z</time>
      </trkpt>
      <trkpt lat="44.13751" lon="7.23445">
        <ele>2064.9</ele>
        <time>2023-02-05T11:33:00Z</time>
      </trkpt>
      <trkpt lat="44.13751" lon="7.23445">
        <ele>2064.9</ele>
        <time>2023-02-05T11:33:01Z</time>
      </trkpt>
      <trkpt lat="44.13751" lon="7.23445">
        <ele>2064.9</ele>
        <time>2023-02-05T11:33:02Z</time>
      </trkpt>
      <trkpt lat="44.13751" lon="7.23445">
        <ele>2064.9</ele>
        <time>2023-02-05T11:33:03Z</time>
      </trkpt>
      <trkpt lat="44.13751" lon="7.23444">
        <ele>2065</ele>
        <time>2023-02-05T11:33:04Z</time>
      </trkpt>
      <trkpt lat="44.13752" lon="7.23444">
        <ele>2065</ele>
        <time>2023-02-05T11:33:05Z</time>
      </trkpt>
      <trkpt lat="44.13752" lon="7.23445">
        <ele>2065.1</ele>
        <time>2023-02-05T11:33:06Z</time>
      </trkpt>
      <trkpt lat="44.13752" lon="7.23445">
        <ele>2065.1</ele>
        <time>2023-02-05T11:33:07Z</time>
      </trkpt>
      <trkpt lat="44.13752" lon="7.23445">
        <ele>2065.2</ele>
        <time>2023-02-05T11:33:08Z</time>
      </trkpt>
      <trkpt lat="44.13752" lon="7.23445">
        <ele>2065.1</ele>
        <time>2023-02-05T11:33:09Z</time>
      </trkpt>
      <trkpt lat="44.13752" lon="7.23445">
        <ele>2065.1</ele>
        <time>2023-02-05T11:33:10Z</time>
      </trkpt>
      <trkpt lat="44.13752" lon="7.23445">
        <ele>2065</ele>
        <time>2023-02-05T11:33:11Z</time>
      </trkpt>
      <trkpt lat="44.13752" lon="7.23445">
        <ele>2065</ele>
        <time>2023-02-05T11:33:12Z</time>
      </trkpt>
      <trkpt lat="44.13752" lon="7.23445">
        <ele>2065</ele>
        <time>2023-02-05T11:33:13Z</time>
      </trkpt>
      <trkpt lat="44.13752" lon="7.23445">
        <ele>2065</ele>
        <time>2023-02-05T11:33:14Z</time>
      </trkpt>
      <trkpt lat="44.13752" lon="7.23445">
        <ele>2064.9</ele>
        <time>2023-02-05T11:33:15Z</time>
      </trkpt>
      <trkpt lat="44.13752" lon="7.23445">
        <ele>2064.9</ele>
        <time>2023-02-05T11:33:16Z</time>
      </trkpt>
      <trkpt lat="44.13752" lon="7.23445">
        <ele>2064.9</ele>
        <time>2023-02-05T11:33:17Z</time>
      </trkpt>
      <trkpt lat="44.13752" lon="7.23445">
        <ele>2064.8</ele>
        <time>2023-02-05T11:33:18Z</time>
      </trkpt>
      <trkpt lat="44.13752" lon="7.23445">
        <ele>2064.8</ele>
        <time>2023-02-05T11:33:19Z</time>
      </trkpt>
      <trkpt lat="44.13752" lon="7.23445">
        <ele>2064.7</ele>
        <time>2023-02-05T11:33:20Z</time>
      </trkpt>
      <trkpt lat="44.13752" lon="7.23445">
        <ele>2064.7</ele>
        <time>2023-02-05T11:33:21Z</time>
      </trkpt>
      <trkpt lat="44.13752" lon="7.23446">
        <ele>2064.7</ele>
        <time>2023-02-05T11:33:22Z</time>
      </trkpt>
      <trkpt lat="44.13752" lon="7.23445">
        <ele>2064.8</ele>
        <time>2023-02-05T11:33:23Z</time>
      </trkpt>
      <trkpt lat="44.13752" lon="7.23445">
        <ele>2064.9</ele>
        <time>2023-02-05T11:33:24Z</time>
      </trkpt>
      <trkpt lat="44.13752" lon="7.23445">
        <ele>2064.9</ele>
        <time>2023-02-05T11:33:25Z</time>
      </trkpt>
      <trkpt lat="44.13752" lon="7.23445">
        <ele>2065</ele>
        <time>2023-02-05T11:33:26Z</time>
      </trkpt>
      <trkpt lat="44.13753" lon="7.23445">
        <ele>2065</ele>
        <time>2023-02-05T11:33:27Z</time>
      </trkpt>
      <trkpt lat="44.13753" lon="7.23445">
        <ele>2065</ele>
        <time>2023-02-05T11:33:28Z</time>
      </trkpt>
      <trkpt lat="44.13753" lon="7.23445">
        <ele>2065</ele>
        <time>2023-02-05T11:33:29Z</time>
      </trkpt>
      <trkpt lat="44.13753" lon="7.23445">
        <ele>2065</ele>
        <time>2023-02-05T11:33:30Z</time>
      </trkpt>
      <trkpt lat="44.13753" lon="7.23445">
        <ele>2064.9</ele>
        <time>2023-02-05T11:33:31Z</time>
      </trkpt>
      <trkpt lat="44.13753" lon="7.23445">
        <ele>2065</ele>
        <time>2023-02-05T11:33:32Z</time>
      </trkpt>
      <trkpt lat="44.13753" lon="7.23445">
        <ele>2065.1</ele>
        <time>2023-02-05T11:33:33Z</time>
      </trkpt>
      <trkpt lat="44.13753" lon="7.23445">
        <ele>2065.1</ele>
        <time>2023-02-05T11:33:34Z</time>
      </trkpt>
      <trkpt lat="44.13754" lon="7.23445">
        <ele>2065.2</ele>
        <time>2023-02-05T11:33:35Z</time>
      </trkpt>
      <trkpt lat="44.13754" lon="7.23445">
        <ele>2065.3</ele>
        <time>2023-02-05T11:33:36Z</time>
      </trkpt>
      <trkpt lat="44.13754" lon="7.23445">
        <ele>2065.3</ele>
        <time>2023-02-05T11:33:37Z</time>
      </trkpt>
      <trkpt lat="44.13754" lon="7.23446">
        <ele>2065.2</ele>
        <time>2023-02-05T11:33:38Z</time>
      </trkpt>
      <trkpt lat="44.13755" lon="7.23446">
        <ele>2065.2</ele>
        <time>2023-02-05T11:33:39Z</time>
      </trkpt>
      <trkpt lat="44.13755" lon="7.23446">
        <ele>2065.1</ele>
        <time>2023-02-05T11:33:40Z</time>
      </trkpt>
      <trkpt lat="44.13755" lon="7.23446">
        <ele>2065.1</ele>
        <time>2023-02-05T11:33:41Z</time>
      </trkpt>
      <trkpt lat="44.13755" lon="7.23446">
        <ele>2064.9</ele>
        <time>2023-02-05T11:33:42Z</time>
      </trkpt>
      <trkpt lat="44.13755" lon="7.23446">
        <ele>2064.9</ele>
        <time>2023-02-05T11:33:43Z</time>
      </trkpt>
      <trkpt lat="44.13755" lon="7.23446">
        <ele>2064.9</ele>
        <time>2023-02-05T11:33:44Z</time>
      </trkpt>
      <trkpt lat="44.13755" lon="7.23446">
        <ele>2064.8</ele>
        <time>2023-02-05T11:33:45Z</time>
      </trkpt>
      <trkpt lat="44.13755" lon="7.23446">
        <ele>2064.9</ele>
        <time>2023-02-05T11:33:46Z</time>
      </trkpt>
      <trkpt lat="44.13756" lon="7.23446">
        <ele>2065</ele>
        <time>2023-02-05T11:33:47Z</time>
      </trkpt>
      <trkpt lat="44.13756" lon="7.23446">
        <ele>2065.1</ele>
        <time>2023-02-05T11:33:48Z</time>
      </trkpt>
      <trkpt lat="44.13756" lon="7.23446">
        <ele>2065.1</ele>
        <time>2023-02-05T11:33:49Z</time>
      </trkpt>
      <trkpt lat="44.13756" lon="7.23447">
        <ele>2065</ele>
        <time>2023-02-05T11:33:50Z</time>
      </trkpt>
      <trkpt lat="44.13756" lon="7.23447">
        <ele>2065</ele>
        <time>2023-02-05T11:33:51Z</time>
      </trkpt>
      <trkpt lat="44.13756" lon="7.23447">
        <ele>2065</ele>
        <time>2023-02-05T11:33:52Z</time>
      </trkpt>
      <trkpt lat="44.13756" lon="7.23447">
        <ele>2065</ele>
        <time>2023-02-05T11:33:53Z</time>
      </trkpt>
      <trkpt lat="44.13756" lon="7.23447">
        <ele>2065</ele>
        <time>2023-02-05T11:33:54Z</time>
      </trkpt>
      <trkpt lat="44.13756" lon="7.23447">
        <ele>2065</ele>
        <time>2023-02-05T11:33:55Z</time>
      </trkpt>
      <trkpt lat="44.13756" lon="7.23447">
        <ele>2065</ele>
        <time>2023-02-05T11:33:56Z</time>
      </trkpt>
      <trkpt lat="44.13756" lon="7.23447">
        <ele>2065</ele>
        <time>2023-02-05T11:33:57Z</time>
      </trkpt>
      <trkpt lat="44.13756" lon="7.23447">
        <ele>2065</ele>
        <time>2023-02-05T11:33:58Z</time>
      </trkpt>
      <trkpt lat="44.13756" lon="7.23447">
        <ele>2064.9</ele>
        <time>2023-02-05T11:33:59Z</time>
      </trkpt>
      <trkpt lat="44.13756" lon="7.23447">
        <ele>2064.9</ele>
        <time>2023-02-05T11:34:00Z</time>
      </trkpt>
      <trkpt lat="44.13756" lon="7.23447">
        <ele>2064.9</ele>
        <time>2023-02-05T11:34:01Z</time>
      </trkpt>
      <trkpt lat="44.13756" lon="7.23448">
        <ele>2065</ele>
        <time>2023-02-05T11:34:02Z</time>
      </trkpt>
      <trkpt lat="44.13756" lon="7.23447">
        <ele>2065.1</ele>
        <time>2023-02-05T11:34:03Z</time>
      </trkpt>
      <trkpt lat="44.13755" lon="7.23447">
        <ele>2065.1</ele>
        <time>2023-02-05T11:34:04Z</time>
      </trkpt>
      <trkpt lat="44.13755" lon="7.23447">
        <ele>2065.1</ele>
        <time>2023-02-05T11:34:05Z</time>
      </trkpt>
      <trkpt lat="44.13756" lon="7.23447">
        <ele>2065</ele>
        <time>2023-02-05T11:34:06Z</time>
      </trkpt>
      <trkpt lat="44.13756" lon="7.23448">
        <ele>2065.1</ele>
        <time>2023-02-05T11:34:07Z</time>
      </trkpt>
      <trkpt lat="44.13756" lon="7.23448">
        <ele>2065</ele>
        <time>2023-02-05T11:34:08Z</time>
      </trkpt>
      <trkpt lat="44.13756" lon="7.23448">
        <ele>2065.1</ele>
        <time>2023-02-05T11:34:09Z</time>
      </trkpt>
      <trkpt lat="44.13755" lon="7.23447">
        <ele>2065.1</ele>
        <time>2023-02-05T11:34:10Z</time>
      </trkpt>
      <trkpt lat="44.13755" lon="7.23447">
        <ele>2065.1</ele>
        <time>2023-02-05T11:34:11Z</time>
      </trkpt>
      <trkpt lat="44.13755" lon="7.23447">
        <ele>2065.1</ele>
        <time>2023-02-05T11:34:12Z</time>
      </trkpt>
      <trkpt lat="44.13755" lon="7.23447">
        <ele>2065.1</ele>
        <time>2023-02-05T11:34:13Z</time>
      </trkpt>
      <trkpt lat="44.13755" lon="7.23447">
        <ele>2065.1</ele>
        <time>2023-02-05T11:34:14Z</time>
      </trkpt>
      <trkpt lat="44.13755" lon="7.23447">
        <ele>2065</ele>
        <time>2023-02-05T11:34:15Z</time>
      </trkpt>
      <trkpt lat="44.13755" lon="7.23447">
        <ele>2065</ele>
        <time>2023-02-05T11:34:16Z</time>
      </trkpt>
      <trkpt lat="44.13754" lon="7.23447">
        <ele>2065</ele>
        <time>2023-02-05T11:34:17Z</time>
      </trkpt>
      <trkpt lat="44.13754" lon="7.23447">
        <ele>2065</ele>
        <time>2023-02-05T11:34:18Z</time>
      </trkpt>
      <trkpt lat="44.13754" lon="7.23447">
        <ele>2065</ele>
        <time>2023-02-05T11:34:19Z</time>
      </trkpt>
      <trkpt lat="44.13754" lon="7.23447">
        <ele>2065</ele>
        <time>2023-02-05T11:34:20Z</time>
      </trkpt>
      <trkpt lat="44.13754" lon="7.23447">
        <ele>2065</ele>
        <time>2023-02-05T11:34:21Z</time>
      </trkpt>
      <trkpt lat="44.13754" lon="7.23447">
        <ele>2065</ele>
        <time>2023-02-05T11:34:22Z</time>
      </trkpt>
      <trkpt lat="44.13754" lon="7.23448">
        <ele>2065</ele>
        <time>2023-02-05T11:34:23Z</time>
      </trkpt>
      <trkpt lat="44.13754" lon="7.23448">
        <ele>2065</ele>
        <time>2023-02-05T11:34:24Z</time>
      </trkpt>
      <trkpt lat="44.13754" lon="7.23448">
        <ele>2065</ele>
        <time>2023-02-05T11:34:25Z</time>
      </trkpt>
      <trkpt lat="44.13754" lon="7.23448">
        <ele>2064.9</ele>
        <time>2023-02-05T11:34:26Z</time>
      </trkpt>
      <trkpt lat="44.13754" lon="7.23448">
        <ele>2064.8</ele>
        <time>2023-02-05T11:34:27Z</time>
      </trkpt>
      <trkpt lat="44.13754" lon="7.23448">
        <ele>2064.8</ele>
        <time>2023-02-05T11:34:28Z</time>
      </trkpt>
      <trkpt lat="44.13754" lon="7.23449">
        <ele>2064.8</ele>
        <time>2023-02-05T11:34:29Z</time>
      </trkpt>
      <trkpt lat="44.13754" lon="7.23449">
        <ele>2064.9</ele>
        <time>2023-02-05T11:34:30Z</time>
      </trkpt>
      <trkpt lat="44.13754" lon="7.23449">
        <ele>2064.9</ele>
        <time>2023-02-05T11:34:31Z</time>
      </trkpt>
      <trkpt lat="44.13754" lon="7.23449">
        <ele>2065</ele>
        <time>2023-02-05T11:34:32Z</time>
      </trkpt>
      <trkpt lat="44.13754" lon="7.23449">
        <ele>2065</ele>
        <time>2023-02-05T11:34:33Z</time>
      </trkpt>
      <trkpt lat="44.13754" lon="7.23449">
        <ele>2065</ele>
        <time>2023-02-05T11:34:34Z</time>
      </trkpt>
      <trkpt lat="44.13754" lon="7.23449">
        <ele>2065.1</ele>
        <time>2023-02-05T11:34:35Z</time>
      </trkpt>
      <trkpt lat="44.13754" lon="7.2345">
        <ele>2065.2</ele>
        <time>2023-02-05T11:34:36Z</time>
      </trkpt>
      <trkpt lat="44.13754" lon="7.2345">
        <ele>2065.2</ele>
        <time>2023-02-05T11:34:37Z</time>
      </trkpt>
      <trkpt lat="44.13754" lon="7.2345">
        <ele>2065.2</ele>
        <time>2023-02-05T11:34:38Z</time>
      </trkpt>
      <trkpt lat="44.13754" lon="7.2345">
        <ele>2065.2</ele>
        <time>2023-02-05T11:34:39Z</time>
      </trkpt>
      <trkpt lat="44.13754" lon="7.2345">
        <ele>2065.2</ele>
        <time>2023-02-05T11:34:40Z</time>
      </trkpt>
      <trkpt lat="44.13755" lon="7.2345">
        <ele>2065.3</ele>
        <time>2023-02-05T11:34:41Z</time>
      </trkpt>
      <trkpt lat="44.13755" lon="7.23451">
        <ele>2065.3</ele>
        <time>2023-02-05T11:34:42Z</time>
      </trkpt>
      <trkpt lat="44.13755" lon="7.23451">
        <ele>2065.2</ele>
        <time>2023-02-05T11:34:43Z</time>
      </trkpt>
      <trkpt lat="44.13755" lon="7.23451">
        <ele>2065.2</ele>
        <time>2023-02-05T11:34:44Z</time>
      </trkpt>
      <trkpt lat="44.13755" lon="7.23451">
        <ele>2065.2</ele>
        <time>2023-02-05T11:34:45Z</time>
      </trkpt>
      <trkpt lat="44.13756" lon="7.23452">
        <ele>2065.3</ele>
        <time>2023-02-05T11:34:46Z</time>
      </trkpt>
      <trkpt lat="44.13756" lon="7.23452">
        <ele>2065.3</ele>
        <time>2023-02-05T11:34:47Z</time>
      </trkpt>
      <trkpt lat="44.13756" lon="7.23452">
        <ele>2065.2</ele>
        <time>2023-02-05T11:34:48Z</time>
      </trkpt>
      <trkpt lat="44.13756" lon="7.23452">
        <ele>2065.3</ele>
        <time>2023-02-05T11:34:49Z</time>
      </trkpt>
      <trkpt lat="44.13756" lon="7.23452">
        <ele>2065.3</ele>
        <time>2023-02-05T11:34:50Z</time>
      </trkpt>
      <trkpt lat="44.13756" lon="7.23452">
        <ele>2065.3</ele>
        <time>2023-02-05T11:34:51Z</time>
      </trkpt>
      <trkpt lat="44.13756" lon="7.23452">
        <ele>2065.3</ele>
        <time>2023-02-05T11:34:52Z</time>
      </trkpt>
      <trkpt lat="44.13756" lon="7.23452">
        <ele>2065.3</ele>
        <time>2023-02-05T11:34:53Z</time>
      </trkpt>
      <trkpt lat="44.13756" lon="7.23451">
        <ele>2065.3</ele>
        <time>2023-02-05T11:34:54Z</time>
      </trkpt>
      <trkpt lat="44.13756" lon="7.23451">
        <ele>2065.2</ele>
        <time>2023-02-05T11:34:55Z</time>
      </trkpt>
      <trkpt lat="44.13755" lon="7.23451">
        <ele>2065.2</ele>
        <time>2023-02-05T11:34:56Z</time>
      </trkpt>
      <trkpt lat="44.13755" lon="7.23451">
        <ele>2065.2</ele>
        <time>2023-02-05T11:34:57Z</time>
      </trkpt>
      <trkpt lat="44.13756" lon="7.23451">
        <ele>2065.3</ele>
        <time>2023-02-05T11:34:58Z</time>
      </trkpt>
      <trkpt lat="44.13756" lon="7.23451">
        <ele>2065.3</ele>
        <time>2023-02-05T11:34:59Z</time>
      </trkpt>
      <trkpt lat="44.13756" lon="7.23451">
        <ele>2065.3</ele>
        <time>2023-02-05T11:35:00Z</time>
      </trkpt>
      <trkpt lat="44.13756" lon="7.23451">
        <ele>2065.3</ele>
        <time>2023-02-05T11:35:01Z</time>
      </trkpt>
      <trkpt lat="44.13756" lon="7.23451">
        <ele>2065.2</ele>
        <time>2023-02-05T11:35:02Z</time>
      </trkpt>
      <trkpt lat="44.13756" lon="7.23451">
        <ele>2065.1</ele>
        <time>2023-02-05T11:35:03Z</time>
      </trkpt>
      <trkpt lat="44.13756" lon="7.23451">
        <ele>2065.1</ele>
        <time>2023-02-05T11:35:04Z</time>
      </trkpt>
      <trkpt lat="44.13756" lon="7.23452">
        <ele>2065</ele>
        <time>2023-02-05T11:35:05Z</time>
      </trkpt>
      <trkpt lat="44.13756" lon="7.23452">
        <ele>2065</ele>
        <time>2023-02-05T11:35:06Z</time>
      </trkpt>
      <trkpt lat="44.13756" lon="7.23452">
        <ele>2065</ele>
        <time>2023-02-05T11:35:07Z</time>
      </trkpt>
      <trkpt lat="44.13756" lon="7.23452">
        <ele>2065</ele>
        <time>2023-02-05T11:35:08Z</time>
      </trkpt>
      <trkpt lat="44.13756" lon="7.23452">
        <ele>2065</ele>
        <time>2023-02-05T11:35:09Z</time>
      </trkpt>
      <trkpt lat="44.13756" lon="7.23452">
        <ele>2065.1</ele>
        <time>2023-02-05T11:35:10Z</time>
      </trkpt>
      <trkpt lat="44.13756" lon="7.23452">
        <ele>2065.2</ele>
        <time>2023-02-05T11:35:11Z</time>
      </trkpt>
      <trkpt lat="44.13756" lon="7.23452">
        <ele>2065</ele>
        <time>2023-02-05T11:35:12Z</time>
      </trkpt>
      <trkpt lat="44.13756" lon="7.23452">
        <ele>2065.1</ele>
        <time>2023-02-05T11:35:13Z</time>
      </trkpt>
      <trkpt lat="44.13756" lon="7.23452">
        <ele>2065.1</ele>
        <time>2023-02-05T11:35:14Z</time>
      </trkpt>
      <trkpt lat="44.13756" lon="7.23452">
        <ele>2065.1</ele>
        <time>2023-02-05T11:35:15Z</time>
      </trkpt>
      <trkpt lat="44.13756" lon="7.23453">
        <ele>2065.1</ele>
        <time>2023-02-05T11:35:16Z</time>
      </trkpt>
      <trkpt lat="44.13756" lon="7.23452">
        <ele>2065</ele>
        <time>2023-02-05T11:35:17Z</time>
      </trkpt>
      <trkpt lat="44.13756" lon="7.23452">
        <ele>2065.1</ele>
        <time>2023-02-05T11:35:18Z</time>
      </trkpt>
      <trkpt lat="44.13756" lon="7.23452">
        <ele>2065.2</ele>
        <time>2023-02-05T11:35:19Z</time>
      </trkpt>
      <trkpt lat="44.13756" lon="7.23452">
        <ele>2065.3</ele>
        <time>2023-02-05T11:35:20Z</time>
      </trkpt>
      <trkpt lat="44.13757" lon="7.23452">
        <ele>2065.3</ele>
        <time>2023-02-05T11:35:21Z</time>
      </trkpt>
      <trkpt lat="44.13757" lon="7.23452">
        <ele>2065.4</ele>
        <time>2023-02-05T11:35:22Z</time>
      </trkpt>
      <trkpt lat="44.13757" lon="7.23452">
        <ele>2065.4</ele>
        <time>2023-02-05T11:35:23Z</time>
      </trkpt>
      <trkpt lat="44.13757" lon="7.23452">
        <ele>2065.4</ele>
        <time>2023-02-05T11:35:24Z</time>
      </trkpt>
      <trkpt lat="44.13757" lon="7.23452">
        <ele>2065.4</ele>
        <time>2023-02-05T11:35:25Z</time>
      </trkpt>
      <trkpt lat="44.13757" lon="7.23452">
        <ele>2065.4</ele>
        <time>2023-02-05T11:35:26Z</time>
      </trkpt>
      <trkpt lat="44.13757" lon="7.23452">
        <ele>2065.4</ele>
        <time>2023-02-05T11:35:27Z</time>
      </trkpt>
      <trkpt lat="44.13757" lon="7.23451">
        <ele>2065.4</ele>
        <time>2023-02-05T11:35:28Z</time>
      </trkpt>
      <trkpt lat="44.13757" lon="7.23451">
        <ele>2065.4</ele>
        <time>2023-02-05T11:35:29Z</time>
      </trkpt>
      <trkpt lat="44.13757" lon="7.23451">
        <ele>2065.4</ele>
        <time>2023-02-05T11:35:30Z</time>
      </trkpt>
      <trkpt lat="44.13757" lon="7.23451">
        <ele>2065.4</ele>
        <time>2023-02-05T11:35:31Z</time>
      </trkpt>
      <trkpt lat="44.13757" lon="7.23451">
        <ele>2065.3</ele>
        <time>2023-02-05T11:35:32Z</time>
      </trkpt>
      <trkpt lat="44.13757" lon="7.23451">
        <ele>2065.3</ele>
        <time>2023-02-05T11:35:33Z</time>
      </trkpt>
      <trkpt lat="44.13757" lon="7.23451">
        <ele>2065.3</ele>
        <time>2023-02-05T11:35:34Z</time>
      </trkpt>
      <trkpt lat="44.13757" lon="7.2345">
        <ele>2065.2</ele>
        <time>2023-02-05T11:35:35Z</time>
      </trkpt>
      <trkpt lat="44.13757" lon="7.2345">
        <ele>2065.2</ele>
        <time>2023-02-05T11:35:36Z</time>
      </trkpt>
      <trkpt lat="44.13757" lon="7.2345">
        <ele>2065.2</ele>
        <time>2023-02-05T11:35:37Z</time>
      </trkpt>
      <trkpt lat="44.13757" lon="7.2345">
        <ele>2065.1</ele>
        <time>2023-02-05T11:35:38Z</time>
      </trkpt>
      <trkpt lat="44.13758" lon="7.2345">
        <ele>2065.1</ele>
        <time>2023-02-05T11:35:39Z</time>
      </trkpt>
      <trkpt lat="44.13758" lon="7.2345">
        <ele>2065.1</ele>
        <time>2023-02-05T11:35:40Z</time>
      </trkpt>
      <trkpt lat="44.13758" lon="7.2345">
        <ele>2065.1</ele>
        <time>2023-02-05T11:35:41Z</time>
      </trkpt>
      <trkpt lat="44.13758" lon="7.2345">
        <ele>2065.1</ele>
        <time>2023-02-05T11:35:42Z</time>
      </trkpt>
      <trkpt lat="44.13758" lon="7.2345">
        <ele>2065.1</ele>
        <time>2023-02-05T11:35:43Z</time>
      </trkpt>
      <trkpt lat="44.13758" lon="7.2345">
        <ele>2065.2</ele>
        <time>2023-02-05T11:35:44Z</time>
      </trkpt>
      <trkpt lat="44.13758" lon="7.2345">
        <ele>2065.3</ele>
        <time>2023-02-05T11:35:45Z</time>
      </trkpt>
      <trkpt lat="44.13758" lon="7.2345">
        <ele>2065.3</ele>
        <time>2023-02-05T11:35:46Z</time>
      </trkpt>
      <trkpt lat="44.13758" lon="7.2345">
        <ele>2065.2</ele>
        <time>2023-02-05T11:35:47Z</time>
      </trkpt>
      <trkpt lat="44.13758" lon="7.2345">
        <ele>2065.2</ele>
        <time>2023-02-05T11:35:48Z</time>
      </trkpt>
      <trkpt lat="44.13758" lon="7.2345">
        <ele>2065.2</ele>
        <time>2023-02-05T11:35:49Z</time>
      </trkpt>
      <trkpt lat="44.13758" lon="7.2345">
        <ele>2065.2</ele>
        <time>2023-02-05T11:35:50Z</time>
      </trkpt>
      <trkpt lat="44.13758" lon="7.2345">
        <ele>2065.2</ele>
        <time>2023-02-05T11:35:51Z</time>
      </trkpt>
      <trkpt lat="44.13758" lon="7.23451">
        <ele>2065.2</ele>
        <time>2023-02-05T11:35:52Z</time>
      </trkpt>
      <trkpt lat="44.13758" lon="7.23451">
        <ele>2065.2</ele>
        <time>2023-02-05T11:35:53Z</time>
      </trkpt>
      <trkpt lat="44.13758" lon="7.23451">
        <ele>2065.1</ele>
        <time>2023-02-05T11:35:54Z</time>
      </trkpt>
      <trkpt lat="44.13758" lon="7.23451">
        <ele>2065.1</ele>
        <time>2023-02-05T11:35:55Z</time>
      </trkpt>
      <trkpt lat="44.13758" lon="7.23451">
        <ele>2065.1</ele>
        <time>2023-02-05T11:35:56Z</time>
      </trkpt>
      <trkpt lat="44.13758" lon="7.23451">
        <ele>2065</ele>
        <time>2023-02-05T11:35:57Z</time>
      </trkpt>
      <trkpt lat="44.13758" lon="7.23451">
        <ele>2065</ele>
        <time>2023-02-05T11:35:58Z</time>
      </trkpt>
      <trkpt lat="44.13758" lon="7.23451">
        <ele>2065</ele>
        <time>2023-02-05T11:35:59Z</time>
      </trkpt>
      <trkpt lat="44.13758" lon="7.23451">
        <ele>2065.1</ele>
        <time>2023-02-05T11:36:00Z</time>
      </trkpt>
      <trkpt lat="44.13758" lon="7.23451">
        <ele>2065.1</ele>
        <time>2023-02-05T11:36:01Z</time>
      </trkpt>
      <trkpt lat="44.13758" lon="7.23451">
        <ele>2065.1</ele>
        <time>2023-02-05T11:36:02Z</time>
      </trkpt>
      <trkpt lat="44.13758" lon="7.23451">
        <ele>2065.1</ele>
        <time>2023-02-05T11:36:03Z</time>
      </trkpt>
      <trkpt lat="44.13758" lon="7.23451">
        <ele>2065.2</ele>
        <time>2023-02-05T11:36:04Z</time>
      </trkpt>
      <trkpt lat="44.13758" lon="7.23451">
        <ele>2065.2</ele>
        <time>2023-02-05T11:36:05Z</time>
      </trkpt>
      <trkpt lat="44.13758" lon="7.23451">
        <ele>2065.2</ele>
        <time>2023-02-05T11:36:06Z</time>
      </trkpt>
      <trkpt lat="44.13758" lon="7.23451">
        <ele>2065.2</ele>
        <time>2023-02-05T11:36:07Z</time>
      </trkpt>
      <trkpt lat="44.13758" lon="7.23451">
        <ele>2065.3</ele>
        <time>2023-02-05T11:36:08Z</time>
      </trkpt>
      <trkpt lat="44.13758" lon="7.23451">
        <ele>2065.3</ele>
        <time>2023-02-05T11:36:09Z</time>
      </trkpt>
      <trkpt lat="44.13758" lon="7.23451">
        <ele>2065.3</ele>
        <time>2023-02-05T11:36:10Z</time>
      </trkpt>
      <trkpt lat="44.13758" lon="7.23451">
        <ele>2065.3</ele>
        <time>2023-02-05T11:36:11Z</time>
      </trkpt>
      <trkpt lat="44.13758" lon="7.23451">
        <ele>2065.4</ele>
        <time>2023-02-05T11:36:12Z</time>
      </trkpt>
      <trkpt lat="44.13758" lon="7.23451">
        <ele>2065.4</ele>
        <time>2023-02-05T11:36:13Z</time>
      </trkpt>
      <trkpt lat="44.13758" lon="7.2345">
        <ele>2065.3</ele>
        <time>2023-02-05T11:36:14Z</time>
      </trkpt>
      <trkpt lat="44.13758" lon="7.2345">
        <ele>2065.3</ele>
        <time>2023-02-05T11:36:15Z</time>
      </trkpt>
      <trkpt lat="44.13758" lon="7.2345">
        <ele>2065.2</ele>
        <time>2023-02-05T11:36:16Z</time>
      </trkpt>
      <trkpt lat="44.13758" lon="7.2345">
        <ele>2065.2</ele>
        <time>2023-02-05T11:36:17Z</time>
      </trkpt>
      <trkpt lat="44.13758" lon="7.23449">
        <ele>2065.3</ele>
        <time>2023-02-05T11:36:18Z</time>
      </trkpt>
      <trkpt lat="44.13758" lon="7.23449">
        <ele>2065.3</ele>
        <time>2023-02-05T11:36:19Z</time>
      </trkpt>
      <trkpt lat="44.13758" lon="7.23449">
        <ele>2065.2</ele>
        <time>2023-02-05T11:36:20Z</time>
      </trkpt>
      <trkpt lat="44.13758" lon="7.23449">
        <ele>2065.2</ele>
        <time>2023-02-05T11:36:21Z</time>
      </trkpt>
      <trkpt lat="44.13758" lon="7.23449">
        <ele>2065.2</ele>
        <time>2023-02-05T11:36:22Z</time>
      </trkpt>
      <trkpt lat="44.13758" lon="7.23449">
        <ele>2065.3</ele>
        <time>2023-02-05T11:36:23Z</time>
      </trkpt>
      <trkpt lat="44.13758" lon="7.23448">
        <ele>2065.3</ele>
        <time>2023-02-05T11:36:24Z</time>
      </trkpt>
      <trkpt lat="44.13758" lon="7.23448">
        <ele>2065.4</ele>
        <time>2023-02-05T11:36:25Z</time>
      </trkpt>
      <trkpt lat="44.13758" lon="7.23448">
        <ele>2065.4</ele>
        <time>2023-02-05T11:36:26Z</time>
      </trkpt>
      <trkpt lat="44.13758" lon="7.23449">
        <ele>2065.4</ele>
        <time>2023-02-05T11:36:27Z</time>
      </trkpt>
      <trkpt lat="44.13758" lon="7.23448">
        <ele>2065.4</ele>
        <time>2023-02-05T11:36:28Z</time>
      </trkpt>
      <trkpt lat="44.13758" lon="7.23448">
        <ele>2065.3</ele>
        <time>2023-02-05T11:36:29Z</time>
      </trkpt>
      <trkpt lat="44.13758" lon="7.23448">
        <ele>2065.2</ele>
        <time>2023-02-05T11:36:30Z</time>
      </trkpt>
      <trkpt lat="44.13758" lon="7.23448">
        <ele>2065.1</ele>
        <time>2023-02-05T11:36:31Z</time>
      </trkpt>
      <trkpt lat="44.13758" lon="7.23448">
        <ele>2065</ele>
        <time>2023-02-05T11:36:32Z</time>
      </trkpt>
      <trkpt lat="44.13758" lon="7.23448">
        <ele>2064.9</ele>
        <time>2023-02-05T11:36:33Z</time>
      </trkpt>
      <trkpt lat="44.13758" lon="7.23448">
        <ele>2064.9</ele>
        <time>2023-02-05T11:36:34Z</time>
      </trkpt>
      <trkpt lat="44.13757" lon="7.23448">
        <ele>2065</ele>
        <time>2023-02-05T11:36:35Z</time>
      </trkpt>
      <trkpt lat="44.13757" lon="7.23448">
        <ele>2065</ele>
        <time>2023-02-05T11:36:36Z</time>
      </trkpt>
      <trkpt lat="44.13757" lon="7.23448">
        <ele>2065.1</ele>
        <time>2023-02-05T11:36:37Z</time>
      </trkpt>
      <trkpt lat="44.13757" lon="7.23448">
        <ele>2065.1</ele>
        <time>2023-02-05T11:36:38Z</time>
      </trkpt>
      <trkpt lat="44.13757" lon="7.23449">
        <ele>2065.1</ele>
        <time>2023-02-05T11:36:39Z</time>
      </trkpt>
      <trkpt lat="44.13757" lon="7.23449">
        <ele>2065.1</ele>
        <time>2023-02-05T11:36:40Z</time>
      </trkpt>
      <trkpt lat="44.13757" lon="7.23449">
        <ele>2065.1</ele>
        <time>2023-02-05T11:36:41Z</time>
      </trkpt>
      <trkpt lat="44.13756" lon="7.23449">
        <ele>2065.1</ele>
        <time>2023-02-05T11:36:42Z</time>
      </trkpt>
      <trkpt lat="44.13756" lon="7.23449">
        <ele>2065.2</ele>
        <time>2023-02-05T11:36:43Z</time>
      </trkpt>
      <trkpt lat="44.13756" lon="7.23449">
        <ele>2065.2</ele>
        <time>2023-02-05T11:36:44Z</time>
      </trkpt>
      <trkpt lat="44.13755" lon="7.23449">
        <ele>2065.2</ele>
        <time>2023-02-05T11:36:45Z</time>
      </trkpt>
      <trkpt lat="44.13755" lon="7.23449">
        <ele>2065.2</ele>
        <time>2023-02-05T11:36:46Z</time>
      </trkpt>
      <trkpt lat="44.13756" lon="7.2345">
        <ele>2065.2</ele>
        <time>2023-02-05T11:36:47Z</time>
      </trkpt>
      <trkpt lat="44.13755" lon="7.2345">
        <ele>2065.2</ele>
        <time>2023-02-05T11:36:48Z</time>
      </trkpt>
      <trkpt lat="44.13755" lon="7.2345">
        <ele>2065.3</ele>
        <time>2023-02-05T11:36:49Z</time>
      </trkpt>
      <trkpt lat="44.13755" lon="7.2345">
        <ele>2065.3</ele>
        <time>2023-02-05T11:36:50Z</time>
      </trkpt>
      <trkpt lat="44.13755" lon="7.2345">
        <ele>2065.4</ele>
        <time>2023-02-05T11:36:51Z</time>
      </trkpt>
      <trkpt lat="44.13754" lon="7.2345">
        <ele>2065.5</ele>
        <time>2023-02-05T11:36:52Z</time>
      </trkpt>
      <trkpt lat="44.13754" lon="7.23449">
        <ele>2065.5</ele>
        <time>2023-02-05T11:36:53Z</time>
      </trkpt>
      <trkpt lat="44.13754" lon="7.23449">
        <ele>2065.6</ele>
        <time>2023-02-05T11:36:54Z</time>
      </trkpt>
      <trkpt lat="44.13754" lon="7.23449">
        <ele>2065.7</ele>
        <time>2023-02-05T11:36:55Z</time>
      </trkpt>
      <trkpt lat="44.13754" lon="7.23449">
        <ele>2065.8</ele>
        <time>2023-02-05T11:36:56Z</time>
      </trkpt>
      <trkpt lat="44.13754" lon="7.23449">
        <ele>2065.9</ele>
        <time>2023-02-05T11:36:57Z</time>
      </trkpt>
      <trkpt lat="44.13753" lon="7.23449">
        <ele>2065.9</ele>
        <time>2023-02-05T11:36:58Z</time>
      </trkpt>
      <trkpt lat="44.13753" lon="7.23449">
        <ele>2066</ele>
        <time>2023-02-05T11:36:59Z</time>
      </trkpt>
      <trkpt lat="44.13753" lon="7.23448">
        <ele>2065.9</ele>
        <time>2023-02-05T11:37:00Z</time>
      </trkpt>
      <trkpt lat="44.13752" lon="7.23448">
        <ele>2065.9</ele>
        <time>2023-02-05T11:37:01Z</time>
      </trkpt>
      <trkpt lat="44.13752" lon="7.23448">
        <ele>2065.8</ele>
        <time>2023-02-05T11:37:02Z</time>
      </trkpt>
      <trkpt lat="44.13752" lon="7.23448">
        <ele>2065.8</ele>
        <time>2023-02-05T11:37:03Z</time>
      </trkpt>
      <trkpt lat="44.13752" lon="7.23447">
        <ele>2065.8</ele>
        <time>2023-02-05T11:37:04Z</time>
      </trkpt>
      <trkpt lat="44.13752" lon="7.23447">
        <ele>2065.8</ele>
        <time>2023-02-05T11:37:05Z</time>
      </trkpt>
      <trkpt lat="44.13752" lon="7.23447">
        <ele>2065.7</ele>
        <time>2023-02-05T11:37:06Z</time>
      </trkpt>
      <trkpt lat="44.13752" lon="7.23447">
        <ele>2065.7</ele>
        <time>2023-02-05T11:37:07Z</time>
      </trkpt>
      <trkpt lat="44.13752" lon="7.23447">
        <ele>2065.8</ele>
        <time>2023-02-05T11:37:08Z</time>
      </trkpt>
      <trkpt lat="44.13752" lon="7.23446">
        <ele>2065.8</ele>
        <time>2023-02-05T11:37:09Z</time>
      </trkpt>
      <trkpt lat="44.13752" lon="7.23446">
        <ele>2065.7</ele>
        <time>2023-02-05T11:37:10Z</time>
      </trkpt>
      <trkpt lat="44.13752" lon="7.23446">
        <ele>2065.6</ele>
        <time>2023-02-05T11:37:11Z</time>
      </trkpt>
      <trkpt lat="44.13752" lon="7.23446">
        <ele>2065.5</ele>
        <time>2023-02-05T11:37:12Z</time>
      </trkpt>
      <trkpt lat="44.13752" lon="7.23446">
        <ele>2065.5</ele>
        <time>2023-02-05T11:37:13Z</time>
      </trkpt>
      <trkpt lat="44.13752" lon="7.23445">
        <ele>2065.5</ele>
        <time>2023-02-05T11:37:14Z</time>
      </trkpt>
      <trkpt lat="44.13753" lon="7.23445">
        <ele>2065.5</ele>
        <time>2023-02-05T11:37:15Z</time>
      </trkpt>
      <trkpt lat="44.13753" lon="7.23445">
        <ele>2065.6</ele>
        <time>2023-02-05T11:37:16Z</time>
      </trkpt>
      <trkpt lat="44.13753" lon="7.23445">
        <ele>2065.5</ele>
        <time>2023-02-05T11:37:17Z</time>
      </trkpt>
      <trkpt lat="44.13753" lon="7.23445">
        <ele>2065.5</ele>
        <time>2023-02-05T11:37:18Z</time>
      </trkpt>
      <trkpt lat="44.13753" lon="7.23445">
        <ele>2065.5</ele>
        <time>2023-02-05T11:37:19Z</time>
      </trkpt>
      <trkpt lat="44.13753" lon="7.23445">
        <ele>2065.5</ele>
        <time>2023-02-05T11:37:20Z</time>
      </trkpt>
      <trkpt lat="44.13753" lon="7.23445">
        <ele>2065.5</ele>
        <time>2023-02-05T11:37:21Z</time>
      </trkpt>
      <trkpt lat="44.13753" lon="7.23445">
        <ele>2065.5</ele>
        <time>2023-02-05T11:37:22Z</time>
      </trkpt>
      <trkpt lat="44.13753" lon="7.23445">
        <ele>2065.4</ele>
        <time>2023-02-05T11:37:23Z</time>
      </trkpt>
      <trkpt lat="44.13753" lon="7.23445">
        <ele>2065.5</ele>
        <time>2023-02-05T11:37:24Z</time>
      </trkpt>
      <trkpt lat="44.13753" lon="7.23445">
        <ele>2065.5</ele>
        <time>2023-02-05T11:37:25Z</time>
      </trkpt>
      <trkpt lat="44.13754" lon="7.23445">
        <ele>2065.5</ele>
        <time>2023-02-05T11:37:26Z</time>
      </trkpt>
      <trkpt lat="44.13754" lon="7.23445">
        <ele>2065.6</ele>
        <time>2023-02-05T11:37:27Z</time>
      </trkpt>
      <trkpt lat="44.13754" lon="7.23445">
        <ele>2065.6</ele>
        <time>2023-02-05T11:37:28Z</time>
      </trkpt>
      <trkpt lat="44.13754" lon="7.23445">
        <ele>2065.7</ele>
        <time>2023-02-05T11:37:29Z</time>
      </trkpt>
      <trkpt lat="44.13753" lon="7.23445">
        <ele>2065.7</ele>
        <time>2023-02-05T11:37:30Z</time>
      </trkpt>
      <trkpt lat="44.13754" lon="7.23445">
        <ele>2065.7</ele>
        <time>2023-02-05T11:37:31Z</time>
      </trkpt>
      <trkpt lat="44.13754" lon="7.23445">
        <ele>2065.7</ele>
        <time>2023-02-05T11:37:32Z</time>
      </trkpt>
      <trkpt lat="44.13754" lon="7.23445">
        <ele>2065.7</ele>
        <time>2023-02-05T11:37:33Z</time>
      </trkpt>
      <trkpt lat="44.13754" lon="7.23445">
        <ele>2065.7</ele>
        <time>2023-02-05T11:37:34Z</time>
      </trkpt>
      <trkpt lat="44.13754" lon="7.23444">
        <ele>2065.7</ele>
        <time>2023-02-05T11:37:35Z</time>
      </trkpt>
      <trkpt lat="44.13754" lon="7.23444">
        <ele>2065.7</ele>
        <time>2023-02-05T11:37:36Z</time>
      </trkpt>
      <trkpt lat="44.13754" lon="7.23444">
        <ele>2065.7</ele>
        <time>2023-02-05T11:37:37Z</time>
      </trkpt>
      <trkpt lat="44.13755" lon="7.23444">
        <ele>2065.7</ele>
        <time>2023-02-05T11:37:38Z</time>
      </trkpt>
      <trkpt lat="44.13755" lon="7.23444">
        <ele>2065.6</ele>
        <time>2023-02-05T11:37:39Z</time>
      </trkpt>
      <trkpt lat="44.13755" lon="7.23444">
        <ele>2065.6</ele>
        <time>2023-02-05T11:37:40Z</time>
      </trkpt>
      <trkpt lat="44.13755" lon="7.23445">
        <ele>2065.6</ele>
        <time>2023-02-05T11:37:41Z</time>
      </trkpt>
      <trkpt lat="44.13755" lon="7.23445">
        <ele>2065.7</ele>
        <time>2023-02-05T11:37:42Z</time>
      </trkpt>
      <trkpt lat="44.13755" lon="7.23445">
        <ele>2065.8</ele>
        <time>2023-02-05T11:37:43Z</time>
      </trkpt>
      <trkpt lat="44.13755" lon="7.23445">
        <ele>2065.8</ele>
        <time>2023-02-05T11:37:44Z</time>
      </trkpt>
      <trkpt lat="44.13755" lon="7.23446">
        <ele>2065.8</ele>
        <time>2023-02-05T11:37:45Z</time>
      </trkpt>
      <trkpt lat="44.13755" lon="7.23446">
        <ele>2065.7</ele>
        <time>2023-02-05T11:37:46Z</time>
      </trkpt>
      <trkpt lat="44.13754" lon="7.23447">
        <ele>2065.7</ele>
        <time>2023-02-05T11:37:47Z</time>
      </trkpt>
      <trkpt lat="44.13751" lon="7.23449">
        <ele>2065.7</ele>
        <time>2023-02-05T11:37:48Z</time>
      </trkpt>
      <trkpt lat="44.13751" lon="7.23449">
        <ele>2065.7</ele>
        <time>2023-02-05T11:37:49Z</time>
      </trkpt>
      <trkpt lat="44.1375" lon="7.23449">
        <ele>2065.6</ele>
        <time>2023-02-05T11:37:50Z</time>
      </trkpt>
      <trkpt lat="44.1375" lon="7.2345">
        <ele>2065.6</ele>
        <time>2023-02-05T11:37:51Z</time>
      </trkpt>
      <trkpt lat="44.1375" lon="7.2345">
        <ele>2065.6</ele>
        <time>2023-02-05T11:37:52Z</time>
      </trkpt>
      <trkpt lat="44.1375" lon="7.2345">
        <ele>2065.7</ele>
        <time>2023-02-05T11:37:53Z</time>
      </trkpt>
      <trkpt lat="44.1375" lon="7.2345">
        <ele>2065.8</ele>
        <time>2023-02-05T11:37:54Z</time>
      </trkpt>
      <trkpt lat="44.1375" lon="7.2345">
        <ele>2065.9</ele>
        <time>2023-02-05T11:37:55Z</time>
      </trkpt>
      <trkpt lat="44.1375" lon="7.2345">
        <ele>2065.9</ele>
        <time>2023-02-05T11:37:56Z</time>
      </trkpt>
      <trkpt lat="44.1375" lon="7.2345">
        <ele>2065.9</ele>
        <time>2023-02-05T11:37:57Z</time>
      </trkpt>
      <trkpt lat="44.13751" lon="7.2345">
        <ele>2065.8</ele>
        <time>2023-02-05T11:37:58Z</time>
      </trkpt>
      <trkpt lat="44.13751" lon="7.2345">
        <ele>2065.8</ele>
        <time>2023-02-05T11:37:59Z</time>
      </trkpt>
      <trkpt lat="44.13752" lon="7.2345">
        <ele>2065.8</ele>
        <time>2023-02-05T11:38:00Z</time>
      </trkpt>
      <trkpt lat="44.13752" lon="7.2345">
        <ele>2065.8</ele>
        <time>2023-02-05T11:38:01Z</time>
      </trkpt>
      <trkpt lat="44.13752" lon="7.23449">
        <ele>2065.8</ele>
        <time>2023-02-05T11:38:02Z</time>
      </trkpt>
      <trkpt lat="44.13753" lon="7.23449">
        <ele>2065.8</ele>
        <time>2023-02-05T11:38:03Z</time>
      </trkpt>
      <trkpt lat="44.13753" lon="7.23449">
        <ele>2065.8</ele>
        <time>2023-02-05T11:38:04Z</time>
      </trkpt>
      <trkpt lat="44.13754" lon="7.23448">
        <ele>2065.8</ele>
        <time>2023-02-05T11:38:05Z</time>
      </trkpt>
      <trkpt lat="44.13754" lon="7.23448">
        <ele>2065.8</ele>
        <time>2023-02-05T11:38:06Z</time>
      </trkpt>
      <trkpt lat="44.13754" lon="7.23448">
        <ele>2065.8</ele>
        <time>2023-02-05T11:38:07Z</time>
      </trkpt>
      <trkpt lat="44.13754" lon="7.23448">
        <ele>2065.9</ele>
        <time>2023-02-05T11:38:08Z</time>
      </trkpt>
      <trkpt lat="44.13754" lon="7.23448">
        <ele>2065.9</ele>
        <time>2023-02-05T11:38:09Z</time>
      </trkpt>
      <trkpt lat="44.13755" lon="7.23448">
        <ele>2065.9</ele>
        <time>2023-02-05T11:38:10Z</time>
      </trkpt>
      <trkpt lat="44.13755" lon="7.23448">
        <ele>2065.8</ele>
        <time>2023-02-05T11:38:11Z</time>
      </trkpt>
      <trkpt lat="44.13754" lon="7.23448">
        <ele>2065.9</ele>
        <time>2023-02-05T11:38:12Z</time>
      </trkpt>
      <trkpt lat="44.13754" lon="7.23448">
        <ele>2065.9</ele>
        <time>2023-02-05T11:38:13Z</time>
      </trkpt>
      <trkpt lat="44.13754" lon="7.23448">
        <ele>2065.9</ele>
        <time>2023-02-05T11:38:14Z</time>
      </trkpt>
      <trkpt lat="44.13755" lon="7.23448">
        <ele>2065.9</ele>
        <time>2023-02-05T11:38:15Z</time>
      </trkpt>
      <trkpt lat="44.13755" lon="7.23448">
        <ele>2065.8</ele>
        <time>2023-02-05T11:38:16Z</time>
      </trkpt>
      <trkpt lat="44.13755" lon="7.23448">
        <ele>2065.8</ele>
        <time>2023-02-05T11:38:17Z</time>
      </trkpt>
      <trkpt lat="44.13755" lon="7.23448">
        <ele>2065.8</ele>
        <time>2023-02-05T11:38:18Z</time>
      </trkpt>
      <trkpt lat="44.13755" lon="7.23448">
        <ele>2065.8</ele>
        <time>2023-02-05T11:38:19Z</time>
      </trkpt>
      <trkpt lat="44.13755" lon="7.23448">
        <ele>2065.9</ele>
        <time>2023-02-05T11:38:20Z</time>
      </trkpt>
      <trkpt lat="44.13755" lon="7.23448">
        <ele>2065.9</ele>
        <time>2023-02-05T11:38:21Z</time>
      </trkpt>
      <trkpt lat="44.13755" lon="7.23448">
        <ele>2065.8</ele>
        <time>2023-02-05T11:38:22Z</time>
      </trkpt>
      <trkpt lat="44.13755" lon="7.23448">
        <ele>2065.8</ele>
        <time>2023-02-05T11:38:23Z</time>
      </trkpt>
      <trkpt lat="44.13756" lon="7.23448">
        <ele>2065.8</ele>
        <time>2023-02-05T11:38:24Z</time>
      </trkpt>
      <trkpt lat="44.13756" lon="7.23448">
        <ele>2065.8</ele>
        <time>2023-02-05T11:38:25Z</time>
      </trkpt>
      <trkpt lat="44.13756" lon="7.23448">
        <ele>2065.9</ele>
        <time>2023-02-05T11:38:26Z</time>
      </trkpt>
      <trkpt lat="44.13756" lon="7.23448">
        <ele>2065.9</ele>
        <time>2023-02-05T11:38:27Z</time>
      </trkpt>
      <trkpt lat="44.13756" lon="7.23448">
        <ele>2066</ele>
        <time>2023-02-05T11:38:28Z</time>
      </trkpt>
      <trkpt lat="44.13756" lon="7.23448">
        <ele>2066</ele>
        <time>2023-02-05T11:38:29Z</time>
      </trkpt>
      <trkpt lat="44.13756" lon="7.23448">
        <ele>2066.1</ele>
        <time>2023-02-05T11:38:30Z</time>
      </trkpt>
      <trkpt lat="44.13756" lon="7.23448">
        <ele>2066.1</ele>
        <time>2023-02-05T11:38:31Z</time>
      </trkpt>
      <trkpt lat="44.13756" lon="7.23448">
        <ele>2066.1</ele>
        <time>2023-02-05T11:38:32Z</time>
      </trkpt>
      <trkpt lat="44.13756" lon="7.23448">
        <ele>2066.1</ele>
        <time>2023-02-05T11:38:33Z</time>
      </trkpt>
      <trkpt lat="44.13756" lon="7.23448">
        <ele>2066.1</ele>
        <time>2023-02-05T11:38:34Z</time>
      </trkpt>
      <trkpt lat="44.13756" lon="7.23448">
        <ele>2066</ele>
        <time>2023-02-05T11:38:35Z</time>
      </trkpt>
      <trkpt lat="44.13757" lon="7.23448">
        <ele>2066</ele>
        <time>2023-02-05T11:38:36Z</time>
      </trkpt>
      <trkpt lat="44.13757" lon="7.23448">
        <ele>2066</ele>
        <time>2023-02-05T11:38:37Z</time>
      </trkpt>
      <trkpt lat="44.13757" lon="7.23448">
        <ele>2066</ele>
        <time>2023-02-05T11:38:38Z</time>
      </trkpt>
      <trkpt lat="44.13757" lon="7.23449">
        <ele>2065.9</ele>
        <time>2023-02-05T11:38:39Z</time>
      </trkpt>
      <trkpt lat="44.13757" lon="7.23449">
        <ele>2065.9</ele>
        <time>2023-02-05T11:38:40Z</time>
      </trkpt>
      <trkpt lat="44.13757" lon="7.23449">
        <ele>2065.8</ele>
        <time>2023-02-05T11:38:41Z</time>
      </trkpt>
      <trkpt lat="44.13757" lon="7.23449">
        <ele>2065.8</ele>
        <time>2023-02-05T11:38:42Z</time>
      </trkpt>
      <trkpt lat="44.13757" lon="7.23449">
        <ele>2065.7</ele>
        <time>2023-02-05T11:38:43Z</time>
      </trkpt>
      <trkpt lat="44.13757" lon="7.23449">
        <ele>2065.7</ele>
        <time>2023-02-05T11:38:44Z</time>
      </trkpt>
      <trkpt lat="44.13757" lon="7.23449">
        <ele>2065.7</ele>
        <time>2023-02-05T11:38:45Z</time>
      </trkpt>
      <trkpt lat="44.13757" lon="7.23449">
        <ele>2065.7</ele>
        <time>2023-02-05T11:38:46Z</time>
      </trkpt>
      <trkpt lat="44.13757" lon="7.23449">
        <ele>2065.7</ele>
        <time>2023-02-05T11:38:47Z</time>
      </trkpt>
      <trkpt lat="44.13757" lon="7.23449">
        <ele>2065.8</ele>
        <time>2023-02-05T11:38:48Z</time>
      </trkpt>
      <trkpt lat="44.13757" lon="7.23449">
        <ele>2065.8</ele>
        <time>2023-02-05T11:38:49Z</time>
      </trkpt>
      <trkpt lat="44.13757" lon="7.23448">
        <ele>2065.9</ele>
        <time>2023-02-05T11:38:50Z</time>
      </trkpt>
      <trkpt lat="44.13757" lon="7.23448">
        <ele>2065.9</ele>
        <time>2023-02-05T11:38:51Z</time>
      </trkpt>
      <trkpt lat="44.13757" lon="7.23448">
        <ele>2066</ele>
        <time>2023-02-05T11:38:52Z</time>
      </trkpt>
      <trkpt lat="44.13757" lon="7.23448">
        <ele>2065.9</ele>
        <time>2023-02-05T11:38:53Z</time>
      </trkpt>
      <trkpt lat="44.13756" lon="7.23448">
        <ele>2065.8</ele>
        <time>2023-02-05T11:38:54Z</time>
      </trkpt>
      <trkpt lat="44.13756" lon="7.23447">
        <ele>2065.8</ele>
        <time>2023-02-05T11:38:55Z</time>
      </trkpt>
      <trkpt lat="44.13756" lon="7.23447">
        <ele>2065.8</ele>
        <time>2023-02-05T11:38:56Z</time>
      </trkpt>
      <trkpt lat="44.13756" lon="7.23447">
        <ele>2065.8</ele>
        <time>2023-02-05T11:38:57Z</time>
      </trkpt>
      <trkpt lat="44.13756" lon="7.23447">
        <ele>2065.9</ele>
        <time>2023-02-05T11:38:58Z</time>
      </trkpt>
      <trkpt lat="44.13756" lon="7.23447">
        <ele>2065.9</ele>
        <time>2023-02-05T11:38:59Z</time>
      </trkpt>
      <trkpt lat="44.13756" lon="7.23447">
        <ele>2066</ele>
        <time>2023-02-05T11:39:00Z</time>
      </trkpt>
      <trkpt lat="44.13756" lon="7.23447">
        <ele>2066</ele>
        <time>2023-02-05T11:39:01Z</time>
      </trkpt>
      <trkpt lat="44.13756" lon="7.23447">
        <ele>2066</ele>
        <time>2023-02-05T11:39:02Z</time>
      </trkpt>
      <trkpt lat="44.13756" lon="7.23447">
        <ele>2066</ele>
        <time>2023-02-05T11:39:03Z</time>
      </trkpt>
      <trkpt lat="44.13757" lon="7.23448">
        <ele>2066</ele>
        <time>2023-02-05T11:39:04Z</time>
      </trkpt>
      <trkpt lat="44.13757" lon="7.23448">
        <ele>2065.9</ele>
        <time>2023-02-05T11:39:05Z</time>
      </trkpt>
      <trkpt lat="44.13757" lon="7.23448">
        <ele>2065.9</ele>
        <time>2023-02-05T11:39:06Z</time>
      </trkpt>
      <trkpt lat="44.13757" lon="7.23448">
        <ele>2065.9</ele>
        <time>2023-02-05T11:39:07Z</time>
      </trkpt>
      <trkpt lat="44.13757" lon="7.23448">
        <ele>2066</ele>
        <time>2023-02-05T11:39:08Z</time>
      </trkpt>
      <trkpt lat="44.13757" lon="7.23448">
        <ele>2066</ele>
        <time>2023-02-05T11:39:09Z</time>
      </trkpt>
      <trkpt lat="44.13757" lon="7.23448">
        <ele>2066</ele>
        <time>2023-02-05T11:39:10Z</time>
      </trkpt>
      <trkpt lat="44.13757" lon="7.23448">
        <ele>2066</ele>
        <time>2023-02-05T11:39:11Z</time>
      </trkpt>
      <trkpt lat="44.13757" lon="7.23449">
        <ele>2065.9</ele>
        <time>2023-02-05T11:39:12Z</time>
      </trkpt>
      <trkpt lat="44.13757" lon="7.23449">
        <ele>2065.9</ele>
        <time>2023-02-05T11:39:13Z</time>
      </trkpt>
      <trkpt lat="44.13757" lon="7.23449">
        <ele>2065.8</ele>
        <time>2023-02-05T11:39:14Z</time>
      </trkpt>
      <trkpt lat="44.13757" lon="7.23449">
        <ele>2065.8</ele>
        <time>2023-02-05T11:39:15Z</time>
      </trkpt>
      <trkpt lat="44.13757" lon="7.23449">
        <ele>2065.9</ele>
        <time>2023-02-05T11:39:16Z</time>
      </trkpt>
      <trkpt lat="44.13757" lon="7.23449">
        <ele>2065.9</ele>
        <time>2023-02-05T11:39:17Z</time>
      </trkpt>
      <trkpt lat="44.13757" lon="7.23449">
        <ele>2065.9</ele>
        <time>2023-02-05T11:39:18Z</time>
      </trkpt>
      <trkpt lat="44.13757" lon="7.23449">
        <ele>2065.8</ele>
        <time>2023-02-05T11:39:19Z</time>
      </trkpt>
      <trkpt lat="44.13757" lon="7.2345">
        <ele>2065.8</ele>
        <time>2023-02-05T11:39:20Z</time>
      </trkpt>
      <trkpt lat="44.13757" lon="7.2345">
        <ele>2065.7</ele>
        <time>2023-02-05T11:39:21Z</time>
      </trkpt>
      <trkpt lat="44.13757" lon="7.2345">
        <ele>2065.7</ele>
        <time>2023-02-05T11:39:22Z</time>
      </trkpt>
      <trkpt lat="44.13757" lon="7.2345">
        <ele>2065.7</ele>
        <time>2023-02-05T11:39:23Z</time>
      </trkpt>
      <trkpt lat="44.13757" lon="7.2345">
        <ele>2065.8</ele>
        <time>2023-02-05T11:39:24Z</time>
      </trkpt>
      <trkpt lat="44.13757" lon="7.2345">
        <ele>2065.8</ele>
        <time>2023-02-05T11:39:25Z</time>
      </trkpt>
      <trkpt lat="44.13757" lon="7.2345">
        <ele>2065.9</ele>
        <time>2023-02-05T11:39:26Z</time>
      </trkpt>
      <trkpt lat="44.13758" lon="7.2345">
        <ele>2065.9</ele>
        <time>2023-02-05T11:39:27Z</time>
      </trkpt>
      <trkpt lat="44.13758" lon="7.23451">
        <ele>2066</ele>
        <time>2023-02-05T11:39:28Z</time>
      </trkpt>
      <trkpt lat="44.13758" lon="7.23451">
        <ele>2066.1</ele>
        <time>2023-02-05T11:39:29Z</time>
      </trkpt>
      <trkpt lat="44.13758" lon="7.23451">
        <ele>2066.2</ele>
        <time>2023-02-05T11:39:30Z</time>
      </trkpt>
      <trkpt lat="44.13758" lon="7.23451">
        <ele>2066.2</ele>
        <time>2023-02-05T11:39:31Z</time>
      </trkpt>
      <trkpt lat="44.13758" lon="7.23451">
        <ele>2066.2</ele>
        <time>2023-02-05T11:39:32Z</time>
      </trkpt>
      <trkpt lat="44.13758" lon="7.23451">
        <ele>2066.1</ele>
        <time>2023-02-05T11:39:33Z</time>
      </trkpt>
      <trkpt lat="44.13758" lon="7.23451">
        <ele>2066.2</ele>
        <time>2023-02-05T11:39:34Z</time>
      </trkpt>
      <trkpt lat="44.13758" lon="7.2345">
        <ele>2066.3</ele>
        <time>2023-02-05T11:39:35Z</time>
      </trkpt>
      <trkpt lat="44.13758" lon="7.2345">
        <ele>2066.3</ele>
        <time>2023-02-05T11:39:36Z</time>
      </trkpt>
      <trkpt lat="44.13757" lon="7.2345">
        <ele>2066.4</ele>
        <time>2023-02-05T11:39:37Z</time>
      </trkpt>
      <trkpt lat="44.13757" lon="7.2345">
        <ele>2066.4</ele>
        <time>2023-02-05T11:39:38Z</time>
      </trkpt>
      <trkpt lat="44.13758" lon="7.23449">
        <ele>2066.4</ele>
        <time>2023-02-05T11:39:39Z</time>
      </trkpt>
      <trkpt lat="44.13758" lon="7.23449">
        <ele>2066.3</ele>
        <time>2023-02-05T11:39:40Z</time>
      </trkpt>
      <trkpt lat="44.13758" lon="7.23449">
        <ele>2066.3</ele>
        <time>2023-02-05T11:39:41Z</time>
      </trkpt>
      <trkpt lat="44.13759" lon="7.23449">
        <ele>2066.3</ele>
        <time>2023-02-05T11:39:42Z</time>
      </trkpt>
      <trkpt lat="44.13759" lon="7.23449">
        <ele>2066.3</ele>
        <time>2023-02-05T11:39:43Z</time>
      </trkpt>
      <trkpt lat="44.13759" lon="7.23449">
        <ele>2066.2</ele>
        <time>2023-02-05T11:39:44Z</time>
      </trkpt>
      <trkpt lat="44.13759" lon="7.23449">
        <ele>2066.1</ele>
        <time>2023-02-05T11:39:45Z</time>
      </trkpt>
      <trkpt lat="44.1376" lon="7.23449">
        <ele>2066</ele>
        <time>2023-02-05T11:39:46Z</time>
      </trkpt>
      <trkpt lat="44.1376" lon="7.23449">
        <ele>2065.8</ele>
        <time>2023-02-05T11:39:47Z</time>
      </trkpt>
      <trkpt lat="44.1376" lon="7.23449">
        <ele>2065.8</ele>
        <time>2023-02-05T11:39:48Z</time>
      </trkpt>
      <trkpt lat="44.1376" lon="7.23449">
        <ele>2065.8</ele>
        <time>2023-02-05T11:39:49Z</time>
      </trkpt>
      <trkpt lat="44.1376" lon="7.23449">
        <ele>2065.9</ele>
        <time>2023-02-05T11:39:50Z</time>
      </trkpt>
      <trkpt lat="44.1376" lon="7.23449">
        <ele>2065.9</ele>
        <time>2023-02-05T11:39:51Z</time>
      </trkpt>
      <trkpt lat="44.1376" lon="7.23449">
        <ele>2065.9</ele>
        <time>2023-02-05T11:39:52Z</time>
      </trkpt>
      <trkpt lat="44.1376" lon="7.23449">
        <ele>2065.9</ele>
        <time>2023-02-05T11:39:53Z</time>
      </trkpt>
      <trkpt lat="44.1376" lon="7.23449">
        <ele>2066</ele>
        <time>2023-02-05T11:39:54Z</time>
      </trkpt>
      <trkpt lat="44.1376" lon="7.23449">
        <ele>2066.1</ele>
        <time>2023-02-05T11:39:55Z</time>
      </trkpt>
      <trkpt lat="44.1376" lon="7.23449">
        <ele>2066.1</ele>
        <time>2023-02-05T11:39:56Z</time>
      </trkpt>
      <trkpt lat="44.13761" lon="7.23449">
        <ele>2066.2</ele>
        <time>2023-02-05T11:39:57Z</time>
      </trkpt>
      <trkpt lat="44.1376" lon="7.23448">
        <ele>2066.2</ele>
        <time>2023-02-05T11:39:58Z</time>
      </trkpt>
      <trkpt lat="44.1376" lon="7.23449">
        <ele>2066.2</ele>
        <time>2023-02-05T11:39:59Z</time>
      </trkpt>
      <trkpt lat="44.1376" lon="7.23449">
        <ele>2066.2</ele>
        <time>2023-02-05T11:40:00Z</time>
      </trkpt>
      <trkpt lat="44.1376" lon="7.23448">
        <ele>2066.1</ele>
        <time>2023-02-05T11:40:01Z</time>
      </trkpt>
      <trkpt lat="44.1376" lon="7.23449">
        <ele>2066</ele>
        <time>2023-02-05T11:40:02Z</time>
      </trkpt>
      <trkpt lat="44.1376" lon="7.23449">
        <ele>2066</ele>
        <time>2023-02-05T11:40:03Z</time>
      </trkpt>
      <trkpt lat="44.1376" lon="7.23449">
        <ele>2066</ele>
        <time>2023-02-05T11:40:04Z</time>
      </trkpt>
      <trkpt lat="44.13759" lon="7.23449">
        <ele>2066</ele>
        <time>2023-02-05T11:40:05Z</time>
      </trkpt>
      <trkpt lat="44.13759" lon="7.23449">
        <ele>2065.9</ele>
        <time>2023-02-05T11:40:06Z</time>
      </trkpt>
      <trkpt lat="44.1376" lon="7.23449">
        <ele>2065.9</ele>
        <time>2023-02-05T11:40:07Z</time>
      </trkpt>
      <trkpt lat="44.1376" lon="7.23449">
        <ele>2065.8</ele>
        <time>2023-02-05T11:40:08Z</time>
      </trkpt>
      <trkpt lat="44.1376" lon="7.23449">
        <ele>2065.8</ele>
        <time>2023-02-05T11:40:09Z</time>
      </trkpt>
      <trkpt lat="44.1376" lon="7.23449">
        <ele>2065.8</ele>
        <time>2023-02-05T11:40:10Z</time>
      </trkpt>
      <trkpt lat="44.1376" lon="7.23449">
        <ele>2065.8</ele>
        <time>2023-02-05T11:40:11Z</time>
      </trkpt>
      <trkpt lat="44.1376" lon="7.23449">
        <ele>2065.8</ele>
        <time>2023-02-05T11:40:12Z</time>
      </trkpt>
      <trkpt lat="44.1376" lon="7.23449">
        <ele>2065.8</ele>
        <time>2023-02-05T11:40:13Z</time>
      </trkpt>
      <trkpt lat="44.1376" lon="7.23449">
        <ele>2065.8</ele>
        <time>2023-02-05T11:40:14Z</time>
      </trkpt>
      <trkpt lat="44.1376" lon="7.23449">
        <ele>2065.8</ele>
        <time>2023-02-05T11:40:15Z</time>
      </trkpt>
      <trkpt lat="44.1376" lon="7.23449">
        <ele>2065.9</ele>
        <time>2023-02-05T11:40:16Z</time>
      </trkpt>
      <trkpt lat="44.1376" lon="7.23449">
        <ele>2065.9</ele>
        <time>2023-02-05T11:40:17Z</time>
      </trkpt>
      <trkpt lat="44.13761" lon="7.23449">
        <ele>2065.9</ele>
        <time>2023-02-05T11:40:18Z</time>
      </trkpt>
      <trkpt lat="44.13761" lon="7.23449">
        <ele>2065.9</ele>
        <time>2023-02-05T11:40:19Z</time>
      </trkpt>
      <trkpt lat="44.13761" lon="7.23449">
        <ele>2065.9</ele>
        <time>2023-02-05T11:40:20Z</time>
      </trkpt>
      <trkpt lat="44.13761" lon="7.23449">
        <ele>2065.9</ele>
        <time>2023-02-05T11:40:21Z</time>
      </trkpt>
      <trkpt lat="44.13761" lon="7.23449">
        <ele>2065.9</ele>
        <time>2023-02-05T11:40:22Z</time>
      </trkpt>
      <trkpt lat="44.13761" lon="7.23449">
        <ele>2065.9</ele>
        <time>2023-02-05T11:40:23Z</time>
      </trkpt>
      <trkpt lat="44.13761" lon="7.23449">
        <ele>2065.9</ele>
        <time>2023-02-05T11:40:24Z</time>
      </trkpt>
      <trkpt lat="44.13761" lon="7.23449">
        <ele>2065.9</ele>
        <time>2023-02-05T11:40:25Z</time>
      </trkpt>
      <trkpt lat="44.13761" lon="7.23449">
        <ele>2065.9</ele>
        <time>2023-02-05T11:40:26Z</time>
      </trkpt>
      <trkpt lat="44.13761" lon="7.23449">
        <ele>2065.8</ele>
        <time>2023-02-05T11:40:27Z</time>
      </trkpt>
      <trkpt lat="44.13762" lon="7.23449">
        <ele>2065.8</ele>
        <time>2023-02-05T11:40:28Z</time>
      </trkpt>
      <trkpt lat="44.13762" lon="7.23449">
        <ele>2065.8</ele>
        <time>2023-02-05T11:40:29Z</time>
      </trkpt>
      <trkpt lat="44.13762" lon="7.23449">
        <ele>2065.9</ele>
        <time>2023-02-05T11:40:30Z</time>
      </trkpt>
      <trkpt lat="44.13762" lon="7.23449">
        <ele>2065.9</ele>
        <time>2023-02-05T11:40:31Z</time>
      </trkpt>
      <trkpt lat="44.13762" lon="7.23449">
        <ele>2065.9</ele>
        <time>2023-02-05T11:40:32Z</time>
      </trkpt>
      <trkpt lat="44.13763" lon="7.23449">
        <ele>2065.9</ele>
        <time>2023-02-05T11:40:33Z</time>
      </trkpt>
      <trkpt lat="44.13763" lon="7.23448">
        <ele>2065.9</ele>
        <time>2023-02-05T11:40:34Z</time>
      </trkpt>
      <trkpt lat="44.13763" lon="7.23448">
        <ele>2066</ele>
        <time>2023-02-05T11:40:35Z</time>
      </trkpt>
      <trkpt lat="44.13763" lon="7.23449">
        <ele>2066</ele>
        <time>2023-02-05T11:40:36Z</time>
      </trkpt>
      <trkpt lat="44.13763" lon="7.23449">
        <ele>2066</ele>
        <time>2023-02-05T11:40:37Z</time>
      </trkpt>
      <trkpt lat="44.13764" lon="7.23449">
        <ele>2066</ele>
        <time>2023-02-05T11:40:38Z</time>
      </trkpt>
      <trkpt lat="44.13764" lon="7.23449">
        <ele>2066</ele>
        <time>2023-02-05T11:40:39Z</time>
      </trkpt>
      <trkpt lat="44.13764" lon="7.23448">
        <ele>2066.1</ele>
        <time>2023-02-05T11:40:40Z</time>
      </trkpt>
      <trkpt lat="44.13764" lon="7.23448">
        <ele>2066.2</ele>
        <time>2023-02-05T11:40:41Z</time>
      </trkpt>
      <trkpt lat="44.13764" lon="7.23448">
        <ele>2066.1</ele>
        <time>2023-02-05T11:40:42Z</time>
      </trkpt>
      <trkpt lat="44.13764" lon="7.23448">
        <ele>2066.1</ele>
        <time>2023-02-05T11:40:43Z</time>
      </trkpt>
      <trkpt lat="44.13765" lon="7.23448">
        <ele>2066.2</ele>
        <time>2023-02-05T11:40:44Z</time>
      </trkpt>
      <trkpt lat="44.13765" lon="7.23449">
        <ele>2066.2</ele>
        <time>2023-02-05T11:40:45Z</time>
      </trkpt>
      <trkpt lat="44.13764" lon="7.23449">
        <ele>2066.2</ele>
        <time>2023-02-05T11:40:46Z</time>
      </trkpt>
      <trkpt lat="44.13765" lon="7.23449">
        <ele>2066.2</ele>
        <time>2023-02-05T11:40:47Z</time>
      </trkpt>
      <trkpt lat="44.13765" lon="7.23449">
        <ele>2066.1</ele>
        <time>2023-02-05T11:40:48Z</time>
      </trkpt>
      <trkpt lat="44.13765" lon="7.23449">
        <ele>2066</ele>
        <time>2023-02-05T11:40:49Z</time>
      </trkpt>
      <trkpt lat="44.13765" lon="7.23449">
        <ele>2066</ele>
        <time>2023-02-05T11:40:50Z</time>
      </trkpt>
      <trkpt lat="44.13765" lon="7.23449">
        <ele>2065.9</ele>
        <time>2023-02-05T11:40:51Z</time>
      </trkpt>
      <trkpt lat="44.13765" lon="7.23449">
        <ele>2066</ele>
        <time>2023-02-05T11:40:52Z</time>
      </trkpt>
      <trkpt lat="44.13765" lon="7.23449">
        <ele>2066</ele>
        <time>2023-02-05T11:40:53Z</time>
      </trkpt>
      <trkpt lat="44.13765" lon="7.23449">
        <ele>2066</ele>
        <time>2023-02-05T11:40:54Z</time>
      </trkpt>
      <trkpt lat="44.13765" lon="7.23449">
        <ele>2066</ele>
        <time>2023-02-05T11:40:55Z</time>
      </trkpt>
      <trkpt lat="44.13765" lon="7.23449">
        <ele>2065.9</ele>
        <time>2023-02-05T11:40:56Z</time>
      </trkpt>
      <trkpt lat="44.13765" lon="7.23449">
        <ele>2066</ele>
        <time>2023-02-05T11:40:57Z</time>
      </trkpt>
      <trkpt lat="44.13765" lon="7.23449">
        <ele>2066</ele>
        <time>2023-02-05T11:40:58Z</time>
      </trkpt>
      <trkpt lat="44.13765" lon="7.23449">
        <ele>2066.1</ele>
        <time>2023-02-05T11:40:59Z</time>
      </trkpt>
      <trkpt lat="44.13765" lon="7.23449">
        <ele>2066.2</ele>
        <time>2023-02-05T11:41:00Z</time>
      </trkpt>
      <trkpt lat="44.13765" lon="7.23449">
        <ele>2066.3</ele>
        <time>2023-02-05T11:41:01Z</time>
      </trkpt>
      <trkpt lat="44.13765" lon="7.23449">
        <ele>2066.3</ele>
        <time>2023-02-05T11:41:02Z</time>
      </trkpt>
      <trkpt lat="44.13765" lon="7.23449">
        <ele>2066.4</ele>
        <time>2023-02-05T11:41:03Z</time>
      </trkpt>
      <trkpt lat="44.13765" lon="7.23449">
        <ele>2066.4</ele>
        <time>2023-02-05T11:41:04Z</time>
      </trkpt>
      <trkpt lat="44.13765" lon="7.23449">
        <ele>2066.4</ele>
        <time>2023-02-05T11:41:05Z</time>
      </trkpt>
      <trkpt lat="44.13765" lon="7.23449">
        <ele>2066.5</ele>
        <time>2023-02-05T11:41:06Z</time>
      </trkpt>
      <trkpt lat="44.13765" lon="7.23449">
        <ele>2066.5</ele>
        <time>2023-02-05T11:41:07Z</time>
      </trkpt>
      <trkpt lat="44.13765" lon="7.23449">
        <ele>2066.5</ele>
        <time>2023-02-05T11:41:08Z</time>
      </trkpt>
      <trkpt lat="44.13765" lon="7.23449">
        <ele>2066.5</ele>
        <time>2023-02-05T11:41:09Z</time>
      </trkpt>
      <trkpt lat="44.13765" lon="7.23449">
        <ele>2066.6</ele>
        <time>2023-02-05T11:41:10Z</time>
      </trkpt>
      <trkpt lat="44.13764" lon="7.23449">
        <ele>2066.6</ele>
        <time>2023-02-05T11:41:11Z</time>
      </trkpt>
      <trkpt lat="44.13764" lon="7.23449">
        <ele>2066.5</ele>
        <time>2023-02-05T11:41:12Z</time>
      </trkpt>
      <trkpt lat="44.13764" lon="7.23449">
        <ele>2066.5</ele>
        <time>2023-02-05T11:41:13Z</time>
      </trkpt>
      <trkpt lat="44.13764" lon="7.23449">
        <ele>2066.5</ele>
        <time>2023-02-05T11:41:14Z</time>
      </trkpt>
      <trkpt lat="44.13764" lon="7.23449">
        <ele>2066.4</ele>
        <time>2023-02-05T11:41:15Z</time>
      </trkpt>
      <trkpt lat="44.13764" lon="7.23449">
        <ele>2066.3</ele>
        <time>2023-02-05T11:41:16Z</time>
      </trkpt>
      <trkpt lat="44.13764" lon="7.23449">
        <ele>2066.3</ele>
        <time>2023-02-05T11:41:17Z</time>
      </trkpt>
      <trkpt lat="44.13764" lon="7.23449">
        <ele>2066.3</ele>
        <time>2023-02-05T11:41:18Z</time>
      </trkpt>
      <trkpt lat="44.13764" lon="7.23449">
        <ele>2066.3</ele>
        <time>2023-02-05T11:41:19Z</time>
      </trkpt>
      <trkpt lat="44.13764" lon="7.23449">
        <ele>2066.3</ele>
        <time>2023-02-05T11:41:20Z</time>
      </trkpt>
      <trkpt lat="44.13764" lon="7.23449">
        <ele>2066.3</ele>
        <time>2023-02-05T11:41:21Z</time>
      </trkpt>
      <trkpt lat="44.13764" lon="7.23449">
        <ele>2066.3</ele>
        <time>2023-02-05T11:41:22Z</time>
      </trkpt>
      <trkpt lat="44.13764" lon="7.23449">
        <ele>2066.3</ele>
        <time>2023-02-05T11:41:23Z</time>
      </trkpt>
      <trkpt lat="44.13764" lon="7.23449">
        <ele>2066.3</ele>
        <time>2023-02-05T11:41:24Z</time>
      </trkpt>
      <trkpt lat="44.13764" lon="7.23448">
        <ele>2066.2</ele>
        <time>2023-02-05T11:41:25Z</time>
      </trkpt>
      <trkpt lat="44.13764" lon="7.23448">
        <ele>2066.2</ele>
        <time>2023-02-05T11:41:26Z</time>
      </trkpt>
      <trkpt lat="44.13764" lon="7.23448">
        <ele>2066.2</ele>
        <time>2023-02-05T11:41:27Z</time>
      </trkpt>
      <trkpt lat="44.13764" lon="7.23448">
        <ele>2066.2</ele>
        <time>2023-02-05T11:41:28Z</time>
      </trkpt>
      <trkpt lat="44.13764" lon="7.23448">
        <ele>2066.2</ele>
        <time>2023-02-05T11:41:29Z</time>
      </trkpt>
      <trkpt lat="44.13764" lon="7.23448">
        <ele>2066.2</ele>
        <time>2023-02-05T11:41:30Z</time>
      </trkpt>
      <trkpt lat="44.13764" lon="7.23448">
        <ele>2066.2</ele>
        <time>2023-02-05T11:41:31Z</time>
      </trkpt>
      <trkpt lat="44.13764" lon="7.23448">
        <ele>2066.2</ele>
        <time>2023-02-05T11:41:32Z</time>
      </trkpt>
      <trkpt lat="44.13764" lon="7.23448">
        <ele>2066.1</ele>
        <time>2023-02-05T11:41:33Z</time>
      </trkpt>
      <trkpt lat="44.13764" lon="7.23448">
        <ele>2066.1</ele>
        <time>2023-02-05T11:41:34Z</time>
      </trkpt>
      <trkpt lat="44.13763" lon="7.23448">
        <ele>2066.1</ele>
        <time>2023-02-05T11:41:35Z</time>
      </trkpt>
      <trkpt lat="44.13763" lon="7.23448">
        <ele>2066</ele>
        <time>2023-02-05T11:41:36Z</time>
      </trkpt>
      <trkpt lat="44.13763" lon="7.23448">
        <ele>2066</ele>
        <time>2023-02-05T11:41:37Z</time>
      </trkpt>
      <trkpt lat="44.13763" lon="7.23448">
        <ele>2065.9</ele>
        <time>2023-02-05T11:41:38Z</time>
      </trkpt>
      <trkpt lat="44.13763" lon="7.23448">
        <ele>2065.9</ele>
        <time>2023-02-05T11:41:39Z</time>
      </trkpt>
      <trkpt lat="44.13763" lon="7.23448">
        <ele>2065.9</ele>
        <time>2023-02-05T11:41:40Z</time>
      </trkpt>
      <trkpt lat="44.13763" lon="7.23448">
        <ele>2065.9</ele>
        <time>2023-02-05T11:41:41Z</time>
      </trkpt>
      <trkpt lat="44.13763" lon="7.23448">
        <ele>2065.9</ele>
        <time>2023-02-05T11:41:42Z</time>
      </trkpt>
      <trkpt lat="44.13763" lon="7.23448">
        <ele>2065.8</ele>
        <time>2023-02-05T11:41:43Z</time>
      </trkpt>
      <trkpt lat="44.13763" lon="7.23448">
        <ele>2065.8</ele>
        <time>2023-02-05T11:41:44Z</time>
      </trkpt>
      <trkpt lat="44.13762" lon="7.23448">
        <ele>2065.8</ele>
        <time>2023-02-05T11:41:45Z</time>
      </trkpt>
      <trkpt lat="44.13762" lon="7.23448">
        <ele>2065.8</ele>
        <time>2023-02-05T11:41:46Z</time>
      </trkpt>
      <trkpt lat="44.13762" lon="7.23448">
        <ele>2065.8</ele>
        <time>2023-02-05T11:41:47Z</time>
      </trkpt>
      <trkpt lat="44.13762" lon="7.23447">
        <ele>2065.9</ele>
        <time>2023-02-05T11:41:48Z</time>
      </trkpt>
      <trkpt lat="44.13762" lon="7.23447">
        <ele>2065.8</ele>
        <time>2023-02-05T11:41:49Z</time>
      </trkpt>
      <trkpt lat="44.13762" lon="7.23447">
        <ele>2065.8</ele>
        <time>2023-02-05T11:41:50Z</time>
      </trkpt>
      <trkpt lat="44.13762" lon="7.23447">
        <ele>2065.8</ele>
        <time>2023-02-05T11:41:51Z</time>
      </trkpt>
      <trkpt lat="44.13763" lon="7.23447">
        <ele>2065.8</ele>
        <time>2023-02-05T11:41:52Z</time>
      </trkpt>
      <trkpt lat="44.13762" lon="7.23447">
        <ele>2065.8</ele>
        <time>2023-02-05T11:41:53Z</time>
      </trkpt>
      <trkpt lat="44.13763" lon="7.23447">
        <ele>2065.7</ele>
        <time>2023-02-05T11:41:54Z</time>
      </trkpt>
      <trkpt lat="44.13763" lon="7.23447">
        <ele>2065.7</ele>
        <time>2023-02-05T11:41:55Z</time>
      </trkpt>
      <trkpt lat="44.13763" lon="7.23447">
        <ele>2065.6</ele>
        <time>2023-02-05T11:41:56Z</time>
      </trkpt>
      <trkpt lat="44.13763" lon="7.23447">
        <ele>2065.5</ele>
        <time>2023-02-05T11:41:57Z</time>
      </trkpt>
      <trkpt lat="44.13763" lon="7.23447">
        <ele>2065.6</ele>
        <time>2023-02-05T11:41:58Z</time>
      </trkpt>
      <trkpt lat="44.13763" lon="7.23446">
        <ele>2065.5</ele>
        <time>2023-02-05T11:41:59Z</time>
      </trkpt>
      <trkpt lat="44.13764" lon="7.23446">
        <ele>2065.4</ele>
        <time>2023-02-05T11:42:00Z</time>
      </trkpt>
      <trkpt lat="44.13764" lon="7.23446">
        <ele>2065.4</ele>
        <time>2023-02-05T11:42:01Z</time>
      </trkpt>
      <trkpt lat="44.13764" lon="7.23446">
        <ele>2065.5</ele>
        <time>2023-02-05T11:42:02Z</time>
      </trkpt>
      <trkpt lat="44.13765" lon="7.23446">
        <ele>2065.5</ele>
        <time>2023-02-05T11:42:03Z</time>
      </trkpt>
      <trkpt lat="44.13765" lon="7.23446">
        <ele>2065.5</ele>
        <time>2023-02-05T11:42:04Z</time>
      </trkpt>
      <trkpt lat="44.13765" lon="7.23445">
        <ele>2065.6</ele>
        <time>2023-02-05T11:42:05Z</time>
      </trkpt>
      <trkpt lat="44.13765" lon="7.23445">
        <ele>2065.6</ele>
        <time>2023-02-05T11:42:06Z</time>
      </trkpt>
      <trkpt lat="44.13765" lon="7.23445">
        <ele>2065.7</ele>
        <time>2023-02-05T11:42:07Z</time>
      </trkpt>
      <trkpt lat="44.13766" lon="7.23445">
        <ele>2065.8</ele>
        <time>2023-02-05T11:42:08Z</time>
      </trkpt>
      <trkpt lat="44.13766" lon="7.23445">
        <ele>2065.8</ele>
        <time>2023-02-05T11:42:09Z</time>
      </trkpt>
      <trkpt lat="44.13766" lon="7.23444">
        <ele>2065.9</ele>
        <time>2023-02-05T11:42:10Z</time>
      </trkpt>
      <trkpt lat="44.13766" lon="7.23444">
        <ele>2066</ele>
        <time>2023-02-05T11:42:11Z</time>
      </trkpt>
      <trkpt lat="44.13766" lon="7.23444">
        <ele>2066</ele>
        <time>2023-02-05T11:42:12Z</time>
      </trkpt>
      <trkpt lat="44.13766" lon="7.23444">
        <ele>2066</ele>
        <time>2023-02-05T11:42:13Z</time>
      </trkpt>
      <trkpt lat="44.13767" lon="7.23444">
        <ele>2066</ele>
        <time>2023-02-05T11:42:14Z</time>
      </trkpt>
      <trkpt lat="44.13767" lon="7.23444">
        <ele>2066</ele>
        <time>2023-02-05T11:42:15Z</time>
      </trkpt>
      <trkpt lat="44.13767" lon="7.23444">
        <ele>2066</ele>
        <time>2023-02-05T11:42:16Z</time>
      </trkpt>
      <trkpt lat="44.13767" lon="7.23444">
        <ele>2066</ele>
        <time>2023-02-05T11:42:17Z</time>
      </trkpt>
      <trkpt lat="44.13767" lon="7.23444">
        <ele>2066</ele>
        <time>2023-02-05T11:42:18Z</time>
      </trkpt>
      <trkpt lat="44.13767" lon="7.23444">
        <ele>2065.9</ele>
        <time>2023-02-05T11:42:19Z</time>
      </trkpt>
      <trkpt lat="44.13767" lon="7.23443">
        <ele>2066</ele>
        <time>2023-02-05T11:42:20Z</time>
      </trkpt>
      <trkpt lat="44.13767" lon="7.23443">
        <ele>2066</ele>
        <time>2023-02-05T11:42:21Z</time>
      </trkpt>
      <trkpt lat="44.13767" lon="7.23443">
        <ele>2066</ele>
        <time>2023-02-05T11:42:22Z</time>
      </trkpt>
      <trkpt lat="44.13767" lon="7.23443">
        <ele>2066.1</ele>
        <time>2023-02-05T11:42:23Z</time>
      </trkpt>
      <trkpt lat="44.13767" lon="7.23443">
        <ele>2066</ele>
        <time>2023-02-05T11:42:24Z</time>
      </trkpt>
      <trkpt lat="44.13767" lon="7.23443">
        <ele>2066</ele>
        <time>2023-02-05T11:42:25Z</time>
      </trkpt>
      <trkpt lat="44.13767" lon="7.23443">
        <ele>2066</ele>
        <time>2023-02-05T11:42:26Z</time>
      </trkpt>
      <trkpt lat="44.13767" lon="7.23443">
        <ele>2066</ele>
        <time>2023-02-05T11:42:27Z</time>
      </trkpt>
      <trkpt lat="44.13767" lon="7.23443">
        <ele>2066</ele>
        <time>2023-02-05T11:42:28Z</time>
      </trkpt>
      <trkpt lat="44.13768" lon="7.23443">
        <ele>2065.9</ele>
        <time>2023-02-05T11:42:29Z</time>
      </trkpt>
      <trkpt lat="44.13767" lon="7.23443">
        <ele>2065.9</ele>
        <time>2023-02-05T11:42:30Z</time>
      </trkpt>
      <trkpt lat="44.13767" lon="7.23443">
        <ele>2065.9</ele>
        <time>2023-02-05T11:42:31Z</time>
      </trkpt>
      <trkpt lat="44.13767" lon="7.23444">
        <ele>2065.9</ele>
        <time>2023-02-05T11:42:32Z</time>
      </trkpt>
      <trkpt lat="44.13767" lon="7.23444">
        <ele>2065.9</ele>
        <time>2023-02-05T11:42:33Z</time>
      </trkpt>
      <trkpt lat="44.13767" lon="7.23444">
        <ele>2065.9</ele>
        <time>2023-02-05T11:42:34Z</time>
      </trkpt>
      <trkpt lat="44.13767" lon="7.23444">
        <ele>2065.9</ele>
        <time>2023-02-05T11:42:35Z</time>
      </trkpt>
      <trkpt lat="44.13767" lon="7.23444">
        <ele>2066</ele>
        <time>2023-02-05T11:42:36Z</time>
      </trkpt>
      <trkpt lat="44.13767" lon="7.23444">
        <ele>2066</ele>
        <time>2023-02-05T11:42:37Z</time>
      </trkpt>
      <trkpt lat="44.13766" lon="7.23444">
        <ele>2065.9</ele>
        <time>2023-02-05T11:42:38Z</time>
      </trkpt>
      <trkpt lat="44.13766" lon="7.23445">
        <ele>2065.9</ele>
        <time>2023-02-05T11:42:39Z</time>
      </trkpt>
      <trkpt lat="44.13766" lon="7.23445">
        <ele>2065.9</ele>
        <time>2023-02-05T11:42:40Z</time>
      </trkpt>
      <trkpt lat="44.13766" lon="7.23445">
        <ele>2065.8</ele>
        <time>2023-02-05T11:42:41Z</time>
      </trkpt>
      <trkpt lat="44.13766" lon="7.23445">
        <ele>2065.8</ele>
        <time>2023-02-05T11:42:42Z</time>
      </trkpt>
      <trkpt lat="44.13766" lon="7.23445">
        <ele>2065.8</ele>
        <time>2023-02-05T11:42:43Z</time>
      </trkpt>
      <trkpt lat="44.13766" lon="7.23445">
        <ele>2065.8</ele>
        <time>2023-02-05T11:42:44Z</time>
      </trkpt>
      <trkpt lat="44.13766" lon="7.23445">
        <ele>2065.8</ele>
        <time>2023-02-05T11:42:45Z</time>
      </trkpt>
      <trkpt lat="44.13766" lon="7.23445">
        <ele>2065.9</ele>
        <time>2023-02-05T11:42:46Z</time>
      </trkpt>
      <trkpt lat="44.13766" lon="7.23445">
        <ele>2065.9</ele>
        <time>2023-02-05T11:42:47Z</time>
      </trkpt>
      <trkpt lat="44.13766" lon="7.23445">
        <ele>2065.9</ele>
        <time>2023-02-05T11:42:48Z</time>
      </trkpt>
      <trkpt lat="44.13766" lon="7.23445">
        <ele>2066</ele>
        <time>2023-02-05T11:42:49Z</time>
      </trkpt>
      <trkpt lat="44.13766" lon="7.23445">
        <ele>2065.9</ele>
        <time>2023-02-05T11:42:50Z</time>
      </trkpt>
      <trkpt lat="44.13766" lon="7.23445">
        <ele>2065.9</ele>
        <time>2023-02-05T11:42:51Z</time>
      </trkpt>
      <trkpt lat="44.13766" lon="7.23445">
        <ele>2066</ele>
        <time>2023-02-05T11:42:52Z</time>
      </trkpt>
      <trkpt lat="44.13766" lon="7.23445">
        <ele>2066.1</ele>
        <time>2023-02-05T11:42:53Z</time>
      </trkpt>
      <trkpt lat="44.13766" lon="7.23445">
        <ele>2066.1</ele>
        <time>2023-02-05T11:42:54Z</time>
      </trkpt>
      <trkpt lat="44.13767" lon="7.23445">
        <ele>2066.1</ele>
        <time>2023-02-05T11:42:55Z</time>
      </trkpt>
      <trkpt lat="44.13767" lon="7.23445">
        <ele>2066.1</ele>
        <time>2023-02-05T11:42:56Z</time>
      </trkpt>
      <trkpt lat="44.13767" lon="7.23445">
        <ele>2066</ele>
        <time>2023-02-05T11:42:57Z</time>
      </trkpt>
      <trkpt lat="44.13767" lon="7.23445">
        <ele>2066</ele>
        <time>2023-02-05T11:42:58Z</time>
      </trkpt>
      <trkpt lat="44.13767" lon="7.23445">
        <ele>2066</ele>
        <time>2023-02-05T11:42:59Z</time>
      </trkpt>
      <trkpt lat="44.13767" lon="7.23445">
        <ele>2066</ele>
        <time>2023-02-05T11:43:00Z</time>
      </trkpt>
      <trkpt lat="44.13767" lon="7.23445">
        <ele>2066</ele>
        <time>2023-02-05T11:43:01Z</time>
      </trkpt>
      <trkpt lat="44.13767" lon="7.23445">
        <ele>2066.1</ele>
        <time>2023-02-05T11:43:02Z</time>
      </trkpt>
      <trkpt lat="44.13767" lon="7.23445">
        <ele>2066.1</ele>
        <time>2023-02-05T11:43:03Z</time>
      </trkpt>
      <trkpt lat="44.13767" lon="7.23445">
        <ele>2066.1</ele>
        <time>2023-02-05T11:43:04Z</time>
      </trkpt>
      <trkpt lat="44.13767" lon="7.23445">
        <ele>2066.1</ele>
        <time>2023-02-05T11:43:05Z</time>
      </trkpt>
      <trkpt lat="44.13767" lon="7.23445">
        <ele>2066.1</ele>
        <time>2023-02-05T11:43:06Z</time>
      </trkpt>
      <trkpt lat="44.13767" lon="7.23445">
        <ele>2066.1</ele>
        <time>2023-02-05T11:43:07Z</time>
      </trkpt>
      <trkpt lat="44.13767" lon="7.23445">
        <ele>2066.2</ele>
        <time>2023-02-05T11:43:08Z</time>
      </trkpt>
      <trkpt lat="44.13767" lon="7.23445">
        <ele>2066.2</ele>
        <time>2023-02-05T11:43:09Z</time>
      </trkpt>
      <trkpt lat="44.13767" lon="7.23445">
        <ele>2066.1</ele>
        <time>2023-02-05T11:43:10Z</time>
      </trkpt>
      <trkpt lat="44.13767" lon="7.23445">
        <ele>2066.2</ele>
        <time>2023-02-05T11:43:11Z</time>
      </trkpt>
      <trkpt lat="44.13767" lon="7.23445">
        <ele>2066.2</ele>
        <time>2023-02-05T11:43:12Z</time>
      </trkpt>
      <trkpt lat="44.13767" lon="7.23445">
        <ele>2066.2</ele>
        <time>2023-02-05T11:43:13Z</time>
      </trkpt>
      <trkpt lat="44.13768" lon="7.23445">
        <ele>2066.3</ele>
        <time>2023-02-05T11:43:14Z</time>
      </trkpt>
      <trkpt lat="44.13768" lon="7.23445">
        <ele>2066.3</ele>
        <time>2023-02-05T11:43:15Z</time>
      </trkpt>
      <trkpt lat="44.13768" lon="7.23445">
        <ele>2066.3</ele>
        <time>2023-02-05T11:43:16Z</time>
      </trkpt>
      <trkpt lat="44.13768" lon="7.23445">
        <ele>2066.3</ele>
        <time>2023-02-05T11:43:17Z</time>
      </trkpt>
      <trkpt lat="44.13768" lon="7.23445">
        <ele>2066.2</ele>
        <time>2023-02-05T11:43:18Z</time>
      </trkpt>
      <trkpt lat="44.13768" lon="7.23445">
        <ele>2066.1</ele>
        <time>2023-02-05T11:43:19Z</time>
      </trkpt>
      <trkpt lat="44.13768" lon="7.23445">
        <ele>2066</ele>
        <time>2023-02-05T11:43:20Z</time>
      </trkpt>
      <trkpt lat="44.13767" lon="7.23445">
        <ele>2065.9</ele>
        <time>2023-02-05T11:43:21Z</time>
      </trkpt>
      <trkpt lat="44.13767" lon="7.23445">
        <ele>2066</ele>
        <time>2023-02-05T11:43:22Z</time>
      </trkpt>
      <trkpt lat="44.13767" lon="7.23445">
        <ele>2066</ele>
        <time>2023-02-05T11:43:23Z</time>
      </trkpt>
      <trkpt lat="44.13767" lon="7.23445">
        <ele>2066</ele>
        <time>2023-02-05T11:43:24Z</time>
      </trkpt>
      <trkpt lat="44.13767" lon="7.23445">
        <ele>2066</ele>
        <time>2023-02-05T11:43:25Z</time>
      </trkpt>
      <trkpt lat="44.13767" lon="7.23445">
        <ele>2066.1</ele>
        <time>2023-02-05T11:43:26Z</time>
      </trkpt>
      <trkpt lat="44.13767" lon="7.23445">
        <ele>2066.1</ele>
        <time>2023-02-05T11:43:27Z</time>
      </trkpt>
      <trkpt lat="44.13767" lon="7.23445">
        <ele>2066.1</ele>
        <time>2023-02-05T11:43:28Z</time>
      </trkpt>
      <trkpt lat="44.13767" lon="7.23445">
        <ele>2066.1</ele>
        <time>2023-02-05T11:43:29Z</time>
      </trkpt>
      <trkpt lat="44.13767" lon="7.23445">
        <ele>2066.1</ele>
        <time>2023-02-05T11:43:30Z</time>
      </trkpt>
      <trkpt lat="44.13767" lon="7.23445">
        <ele>2066</ele>
        <time>2023-02-05T11:43:31Z</time>
      </trkpt>
      <trkpt lat="44.13767" lon="7.23445">
        <ele>2066</ele>
        <time>2023-02-05T11:43:32Z</time>
      </trkpt>
      <trkpt lat="44.13767" lon="7.23444">
        <ele>2065.9</ele>
        <time>2023-02-05T11:43:33Z</time>
      </trkpt>
      <trkpt lat="44.13767" lon="7.23444">
        <ele>2066</ele>
        <time>2023-02-05T11:43:34Z</time>
      </trkpt>
      <trkpt lat="44.13767" lon="7.23444">
        <ele>2065.9</ele>
        <time>2023-02-05T11:43:35Z</time>
      </trkpt>
      <trkpt lat="44.13767" lon="7.23444">
        <ele>2066</ele>
        <time>2023-02-05T11:43:36Z</time>
      </trkpt>
      <trkpt lat="44.13767" lon="7.23444">
        <ele>2066</ele>
        <time>2023-02-05T11:43:37Z</time>
      </trkpt>
      <trkpt lat="44.13767" lon="7.23444">
        <ele>2066</ele>
        <time>2023-02-05T11:43:38Z</time>
      </trkpt>
      <trkpt lat="44.13767" lon="7.23444">
        <ele>2066</ele>
        <time>2023-02-05T11:43:39Z</time>
      </trkpt>
      <trkpt lat="44.13767" lon="7.23444">
        <ele>2066</ele>
        <time>2023-02-05T11:43:40Z</time>
      </trkpt>
      <trkpt lat="44.13766" lon="7.23444">
        <ele>2066.1</ele>
        <time>2023-02-05T11:43:41Z</time>
      </trkpt>
      <trkpt lat="44.13766" lon="7.23445">
        <ele>2066</ele>
        <time>2023-02-05T11:43:42Z</time>
      </trkpt>
      <trkpt lat="44.13766" lon="7.23445">
        <ele>2066</ele>
        <time>2023-02-05T11:43:43Z</time>
      </trkpt>
      <trkpt lat="44.13766" lon="7.23445">
        <ele>2066.1</ele>
        <time>2023-02-05T11:43:44Z</time>
      </trkpt>
      <trkpt lat="44.13765" lon="7.23445">
        <ele>2066.1</ele>
        <time>2023-02-05T11:43:45Z</time>
      </trkpt>
      <trkpt lat="44.13765" lon="7.23445">
        <ele>2066.1</ele>
        <time>2023-02-05T11:43:46Z</time>
      </trkpt>
      <trkpt lat="44.13765" lon="7.23445">
        <ele>2066.1</ele>
        <time>2023-02-05T11:43:47Z</time>
      </trkpt>
      <trkpt lat="44.13765" lon="7.23445">
        <ele>2066.2</ele>
        <time>2023-02-05T11:43:48Z</time>
      </trkpt>
      <trkpt lat="44.13765" lon="7.23445">
        <ele>2066.2</ele>
        <time>2023-02-05T11:43:49Z</time>
      </trkpt>
      <trkpt lat="44.13765" lon="7.23445">
        <ele>2066.2</ele>
        <time>2023-02-05T11:43:50Z</time>
      </trkpt>
      <trkpt lat="44.13765" lon="7.23445">
        <ele>2066.2</ele>
        <time>2023-02-05T11:43:51Z</time>
      </trkpt>
      <trkpt lat="44.13764" lon="7.23445">
        <ele>2066.2</ele>
        <time>2023-02-05T11:43:52Z</time>
      </trkpt>
      <trkpt lat="44.13764" lon="7.23445">
        <ele>2066.2</ele>
        <time>2023-02-05T11:43:53Z</time>
      </trkpt>
      <trkpt lat="44.13764" lon="7.23445">
        <ele>2066.2</ele>
        <time>2023-02-05T11:43:54Z</time>
      </trkpt>
      <trkpt lat="44.13764" lon="7.23445">
        <ele>2066.3</ele>
        <time>2023-02-05T11:43:55Z</time>
      </trkpt>
      <trkpt lat="44.13764" lon="7.23445">
        <ele>2066.3</ele>
        <time>2023-02-05T11:43:56Z</time>
      </trkpt>
      <trkpt lat="44.13764" lon="7.23445">
        <ele>2066.2</ele>
        <time>2023-02-05T11:43:57Z</time>
      </trkpt>
      <trkpt lat="44.13764" lon="7.23445">
        <ele>2066.1</ele>
        <time>2023-02-05T11:43:58Z</time>
      </trkpt>
      <trkpt lat="44.13764" lon="7.23445">
        <ele>2066.2</ele>
        <time>2023-02-05T11:43:59Z</time>
      </trkpt>
      <trkpt lat="44.13764" lon="7.23445">
        <ele>2066.2</ele>
        <time>2023-02-05T11:44:00Z</time>
      </trkpt>
      <trkpt lat="44.13764" lon="7.23445">
        <ele>2066.1</ele>
        <time>2023-02-05T11:44:01Z</time>
      </trkpt>
      <trkpt lat="44.13765" lon="7.23445">
        <ele>2066.2</ele>
        <time>2023-02-05T11:44:02Z</time>
      </trkpt>
      <trkpt lat="44.13765" lon="7.23445">
        <ele>2066.2</ele>
        <time>2023-02-05T11:44:03Z</time>
      </trkpt>
      <trkpt lat="44.13765" lon="7.23445">
        <ele>2066.3</ele>
        <time>2023-02-05T11:44:04Z</time>
      </trkpt>
      <trkpt lat="44.13765" lon="7.23445">
        <ele>2066.3</ele>
        <time>2023-02-05T11:44:05Z</time>
      </trkpt>
      <trkpt lat="44.13765" lon="7.23446">
        <ele>2066.2</ele>
        <time>2023-02-05T11:44:06Z</time>
      </trkpt>
      <trkpt lat="44.13765" lon="7.23446">
        <ele>2066.1</ele>
        <time>2023-02-05T11:44:07Z</time>
      </trkpt>
      <trkpt lat="44.13765" lon="7.23446">
        <ele>2066.1</ele>
        <time>2023-02-05T11:44:08Z</time>
      </trkpt>
      <trkpt lat="44.13765" lon="7.23446">
        <ele>2066.1</ele>
        <time>2023-02-05T11:44:09Z</time>
      </trkpt>
      <trkpt lat="44.13765" lon="7.23446">
        <ele>2066</ele>
        <time>2023-02-05T11:44:10Z</time>
      </trkpt>
      <trkpt lat="44.13765" lon="7.23446">
        <ele>2066</ele>
        <time>2023-02-05T11:44:11Z</time>
      </trkpt>
      <trkpt lat="44.13765" lon="7.23446">
        <ele>2065.9</ele>
        <time>2023-02-05T11:44:12Z</time>
      </trkpt>
      <trkpt lat="44.13765" lon="7.23446">
        <ele>2065.9</ele>
        <time>2023-02-05T11:44:13Z</time>
      </trkpt>
      <trkpt lat="44.13765" lon="7.23446">
        <ele>2065.9</ele>
        <time>2023-02-05T11:44:14Z</time>
      </trkpt>
      <trkpt lat="44.13765" lon="7.23446">
        <ele>2066</ele>
        <time>2023-02-05T11:44:15Z</time>
      </trkpt>
      <trkpt lat="44.13765" lon="7.23446">
        <ele>2066</ele>
        <time>2023-02-05T11:44:16Z</time>
      </trkpt>
      <trkpt lat="44.13765" lon="7.23446">
        <ele>2066</ele>
        <time>2023-02-05T11:44:17Z</time>
      </trkpt>
      <trkpt lat="44.13765" lon="7.23446">
        <ele>2066</ele>
        <time>2023-02-05T11:44:18Z</time>
      </trkpt>
      <trkpt lat="44.13765" lon="7.23446">
        <ele>2066</ele>
        <time>2023-02-05T11:44:19Z</time>
      </trkpt>
      <trkpt lat="44.13764" lon="7.23446">
        <ele>2066.1</ele>
        <time>2023-02-05T11:44:20Z</time>
      </trkpt>
      <trkpt lat="44.13764" lon="7.23446">
        <ele>2066.2</ele>
        <time>2023-02-05T11:44:21Z</time>
      </trkpt>
      <trkpt lat="44.13764" lon="7.23446">
        <ele>2066.2</ele>
        <time>2023-02-05T11:44:22Z</time>
      </trkpt>
      <trkpt lat="44.13764" lon="7.23446">
        <ele>2066.3</ele>
        <time>2023-02-05T11:44:23Z</time>
      </trkpt>
      <trkpt lat="44.13764" lon="7.23446">
        <ele>2066.3</ele>
        <time>2023-02-05T11:44:24Z</time>
      </trkpt>
      <trkpt lat="44.13764" lon="7.23446">
        <ele>2066.4</ele>
        <time>2023-02-05T11:44:25Z</time>
      </trkpt>
      <trkpt lat="44.13764" lon="7.23446">
        <ele>2066.4</ele>
        <time>2023-02-05T11:44:26Z</time>
      </trkpt>
      <trkpt lat="44.13764" lon="7.23446">
        <ele>2066.4</ele>
        <time>2023-02-05T11:44:27Z</time>
      </trkpt>
      <trkpt lat="44.13763" lon="7.23446">
        <ele>2066.4</ele>
        <time>2023-02-05T11:44:28Z</time>
      </trkpt>
      <trkpt lat="44.13763" lon="7.23446">
        <ele>2066.5</ele>
        <time>2023-02-05T11:44:29Z</time>
      </trkpt>
      <trkpt lat="44.13763" lon="7.23446">
        <ele>2066.4</ele>
        <time>2023-02-05T11:44:30Z</time>
      </trkpt>
      <trkpt lat="44.13763" lon="7.23446">
        <ele>2066.4</ele>
        <time>2023-02-05T11:44:31Z</time>
      </trkpt>
      <trkpt lat="44.13763" lon="7.23446">
        <ele>2066.4</ele>
        <time>2023-02-05T11:44:32Z</time>
      </trkpt>
      <trkpt lat="44.13763" lon="7.23446">
        <ele>2066.4</ele>
        <time>2023-02-05T11:44:33Z</time>
      </trkpt>
      <trkpt lat="44.13763" lon="7.23446">
        <ele>2066.3</ele>
        <time>2023-02-05T11:44:34Z</time>
      </trkpt>
      <trkpt lat="44.13762" lon="7.23446">
        <ele>2066.2</ele>
        <time>2023-02-05T11:44:35Z</time>
      </trkpt>
      <trkpt lat="44.13762" lon="7.23446">
        <ele>2066.3</ele>
        <time>2023-02-05T11:44:36Z</time>
      </trkpt>
      <trkpt lat="44.13762" lon="7.23446">
        <ele>2066.3</ele>
        <time>2023-02-05T11:44:37Z</time>
      </trkpt>
      <trkpt lat="44.13762" lon="7.23446">
        <ele>2066.4</ele>
        <time>2023-02-05T11:44:38Z</time>
      </trkpt>
      <trkpt lat="44.13762" lon="7.23446">
        <ele>2066.3</ele>
        <time>2023-02-05T11:44:39Z</time>
      </trkpt>
      <trkpt lat="44.13762" lon="7.23446">
        <ele>2066.4</ele>
        <time>2023-02-05T11:44:40Z</time>
      </trkpt>
      <trkpt lat="44.13762" lon="7.23447">
        <ele>2066.4</ele>
        <time>2023-02-05T11:44:41Z</time>
      </trkpt>
      <trkpt lat="44.13761" lon="7.23447">
        <ele>2066.5</ele>
        <time>2023-02-05T11:44:42Z</time>
      </trkpt>
      <trkpt lat="44.13761" lon="7.23447">
        <ele>2066.5</ele>
        <time>2023-02-05T11:44:43Z</time>
      </trkpt>
      <trkpt lat="44.13761" lon="7.23447">
        <ele>2066.5</ele>
        <time>2023-02-05T11:44:44Z</time>
      </trkpt>
      <trkpt lat="44.13761" lon="7.23447">
        <ele>2066.5</ele>
        <time>2023-02-05T11:44:45Z</time>
      </trkpt>
      <trkpt lat="44.13761" lon="7.23447">
        <ele>2066.6</ele>
        <time>2023-02-05T11:44:46Z</time>
      </trkpt>
      <trkpt lat="44.13761" lon="7.23447">
        <ele>2066.6</ele>
        <time>2023-02-05T11:44:47Z</time>
      </trkpt>
      <trkpt lat="44.13761" lon="7.23447">
        <ele>2066.7</ele>
        <time>2023-02-05T11:44:48Z</time>
      </trkpt>
      <trkpt lat="44.13761" lon="7.23447">
        <ele>2066.7</ele>
        <time>2023-02-05T11:44:49Z</time>
      </trkpt>
      <trkpt lat="44.1376" lon="7.23448">
        <ele>2066.8</ele>
        <time>2023-02-05T11:44:50Z</time>
      </trkpt>
      <trkpt lat="44.1376" lon="7.23448">
        <ele>2066.8</ele>
        <time>2023-02-05T11:44:51Z</time>
      </trkpt>
      <trkpt lat="44.1376" lon="7.23448">
        <ele>2066.8</ele>
        <time>2023-02-05T11:44:52Z</time>
      </trkpt>
      <trkpt lat="44.1376" lon="7.23448">
        <ele>2066.7</ele>
        <time>2023-02-05T11:44:53Z</time>
      </trkpt>
      <trkpt lat="44.1376" lon="7.23448">
        <ele>2066.7</ele>
        <time>2023-02-05T11:44:54Z</time>
      </trkpt>
      <trkpt lat="44.1376" lon="7.23448">
        <ele>2066.7</ele>
        <time>2023-02-05T11:44:55Z</time>
      </trkpt>
      <trkpt lat="44.1376" lon="7.23448">
        <ele>2066.7</ele>
        <time>2023-02-05T11:44:56Z</time>
      </trkpt>
      <trkpt lat="44.13759" lon="7.23448">
        <ele>2066.6</ele>
        <time>2023-02-05T11:44:57Z</time>
      </trkpt>
      <trkpt lat="44.13759" lon="7.23448">
        <ele>2066.6</ele>
        <time>2023-02-05T11:44:58Z</time>
      </trkpt>
      <trkpt lat="44.13759" lon="7.23448">
        <ele>2066.6</ele>
        <time>2023-02-05T11:44:59Z</time>
      </trkpt>
      <trkpt lat="44.13759" lon="7.23448">
        <ele>2066.6</ele>
        <time>2023-02-05T11:45:00Z</time>
      </trkpt>
      <trkpt lat="44.13759" lon="7.23447">
        <ele>2066.6</ele>
        <time>2023-02-05T11:45:01Z</time>
      </trkpt>
      <trkpt lat="44.13758" lon="7.23447">
        <ele>2066.6</ele>
        <time>2023-02-05T11:45:02Z</time>
      </trkpt>
      <trkpt lat="44.13758" lon="7.23447">
        <ele>2066.5</ele>
        <time>2023-02-05T11:45:03Z</time>
      </trkpt>
      <trkpt lat="44.13758" lon="7.23447">
        <ele>2066.5</ele>
        <time>2023-02-05T11:45:04Z</time>
      </trkpt>
      <trkpt lat="44.13758" lon="7.23447">
        <ele>2066.6</ele>
        <time>2023-02-05T11:45:05Z</time>
      </trkpt>
      <trkpt lat="44.13757" lon="7.23447">
        <ele>2066.6</ele>
        <time>2023-02-05T11:45:06Z</time>
      </trkpt>
      <trkpt lat="44.13757" lon="7.23447">
        <ele>2066.7</ele>
        <time>2023-02-05T11:45:07Z</time>
      </trkpt>
      <trkpt lat="44.13757" lon="7.23447">
        <ele>2066.7</ele>
        <time>2023-02-05T11:45:08Z</time>
      </trkpt>
      <trkpt lat="44.13756" lon="7.23447">
        <ele>2066.8</ele>
        <time>2023-02-05T11:45:09Z</time>
      </trkpt>
      <trkpt lat="44.13756" lon="7.23446">
        <ele>2066.8</ele>
        <time>2023-02-05T11:45:10Z</time>
      </trkpt>
      <trkpt lat="44.13755" lon="7.23446">
        <ele>2066.8</ele>
        <time>2023-02-05T11:45:11Z</time>
      </trkpt>
      <trkpt lat="44.13754" lon="7.23445">
        <ele>2066.8</ele>
        <time>2023-02-05T11:45:12Z</time>
      </trkpt>
      <trkpt lat="44.13753" lon="7.23445">
        <ele>2066.8</ele>
        <time>2023-02-05T11:45:13Z</time>
      </trkpt>
      <trkpt lat="44.13753" lon="7.23444">
        <ele>2066.8</ele>
        <time>2023-02-05T11:45:14Z</time>
      </trkpt>
      <trkpt lat="44.13752" lon="7.23444">
        <ele>2066.8</ele>
        <time>2023-02-05T11:45:15Z</time>
      </trkpt>
      <trkpt lat="44.13752" lon="7.23444">
        <ele>2066.8</ele>
        <time>2023-02-05T11:45:16Z</time>
      </trkpt>
      <trkpt lat="44.13751" lon="7.23443">
        <ele>2066.9</ele>
        <time>2023-02-05T11:45:17Z</time>
      </trkpt>
      <trkpt lat="44.13751" lon="7.23443">
        <ele>2066.9</ele>
        <time>2023-02-05T11:45:18Z</time>
      </trkpt>
      <trkpt lat="44.13751" lon="7.23443">
        <ele>2066.9</ele>
        <time>2023-02-05T11:45:19Z</time>
      </trkpt>
      <trkpt lat="44.13751" lon="7.23443">
        <ele>2066.9</ele>
        <time>2023-02-05T11:45:20Z</time>
      </trkpt>
      <trkpt lat="44.1375" lon="7.23443">
        <ele>2066.9</ele>
        <time>2023-02-05T11:45:21Z</time>
      </trkpt>
      <trkpt lat="44.1375" lon="7.23442">
        <ele>2066.9</ele>
        <time>2023-02-05T11:45:22Z</time>
      </trkpt>
      <trkpt lat="44.1375" lon="7.23442">
        <ele>2066.9</ele>
        <time>2023-02-05T11:45:23Z</time>
      </trkpt>
      <trkpt lat="44.1375" lon="7.23442">
        <ele>2066.8</ele>
        <time>2023-02-05T11:45:24Z</time>
      </trkpt>
      <trkpt lat="44.1375" lon="7.23442">
        <ele>2066.7</ele>
        <time>2023-02-05T11:45:25Z</time>
      </trkpt>
      <trkpt lat="44.1375" lon="7.23442">
        <ele>2066.7</ele>
        <time>2023-02-05T11:45:26Z</time>
      </trkpt>
      <trkpt lat="44.1375" lon="7.23442">
        <ele>2066.7</ele>
        <time>2023-02-05T11:45:27Z</time>
      </trkpt>
      <trkpt lat="44.1375" lon="7.23442">
        <ele>2066.6</ele>
        <time>2023-02-05T11:45:28Z</time>
      </trkpt>
      <trkpt lat="44.1375" lon="7.23442">
        <ele>2066.6</ele>
        <time>2023-02-05T11:45:29Z</time>
      </trkpt>
      <trkpt lat="44.1375" lon="7.23442">
        <ele>2066.6</ele>
        <time>2023-02-05T11:45:30Z</time>
      </trkpt>
      <trkpt lat="44.13749" lon="7.23442">
        <ele>2066.6</ele>
        <time>2023-02-05T11:45:31Z</time>
      </trkpt>
      <trkpt lat="44.13749" lon="7.23442">
        <ele>2066.7</ele>
        <time>2023-02-05T11:45:32Z</time>
      </trkpt>
      <trkpt lat="44.13749" lon="7.23442">
        <ele>2066.7</ele>
        <time>2023-02-05T11:45:33Z</time>
      </trkpt>
      <trkpt lat="44.13749" lon="7.23442">
        <ele>2066.7</ele>
        <time>2023-02-05T11:45:34Z</time>
      </trkpt>
      <trkpt lat="44.13749" lon="7.23441">
        <ele>2066.7</ele>
        <time>2023-02-05T11:45:35Z</time>
      </trkpt>
      <trkpt lat="44.1375" lon="7.23441">
        <ele>2066.7</ele>
        <time>2023-02-05T11:45:36Z</time>
      </trkpt>
      <trkpt lat="44.13751" lon="7.23441">
        <ele>2066.7</ele>
        <time>2023-02-05T11:45:37Z</time>
      </trkpt>
      <trkpt lat="44.13751" lon="7.23442">
        <ele>2067.1</ele>
        <time>2023-02-05T11:45:38Z</time>
      </trkpt>
      <trkpt lat="44.13752" lon="7.23444">
        <ele>2067</ele>
        <time>2023-02-05T11:45:39Z</time>
      </trkpt>
      <trkpt lat="44.13752" lon="7.23444">
        <ele>2067</ele>
        <time>2023-02-05T11:45:40Z</time>
      </trkpt>
      <trkpt lat="44.13752" lon="7.23445">
        <ele>2067</ele>
        <time>2023-02-05T11:45:41Z</time>
      </trkpt>
      <trkpt lat="44.13752" lon="7.23445">
        <ele>2066.8</ele>
        <time>2023-02-05T11:45:42Z</time>
      </trkpt>
      <trkpt lat="44.13752" lon="7.23446">
        <ele>2066.7</ele>
        <time>2023-02-05T11:45:43Z</time>
      </trkpt>
      <trkpt lat="44.13752" lon="7.23446">
        <ele>2066.7</ele>
        <time>2023-02-05T11:45:44Z</time>
      </trkpt>
      <trkpt lat="44.13752" lon="7.23447">
        <ele>2066.6</ele>
        <time>2023-02-05T11:45:45Z</time>
      </trkpt>
      <trkpt lat="44.13752" lon="7.23447">
        <ele>2066.6</ele>
        <time>2023-02-05T11:45:46Z</time>
      </trkpt>
      <trkpt lat="44.13752" lon="7.23447">
        <ele>2066.6</ele>
        <time>2023-02-05T11:45:47Z</time>
      </trkpt>
      <trkpt lat="44.13752" lon="7.23447">
        <ele>2066.6</ele>
        <time>2023-02-05T11:45:48Z</time>
      </trkpt>
      <trkpt lat="44.13752" lon="7.23448">
        <ele>2066.7</ele>
        <time>2023-02-05T11:45:49Z</time>
      </trkpt>
      <trkpt lat="44.13752" lon="7.23448">
        <ele>2066.7</ele>
        <time>2023-02-05T11:45:50Z</time>
      </trkpt>
      <trkpt lat="44.13752" lon="7.23448">
        <ele>2066.6</ele>
        <time>2023-02-05T11:45:51Z</time>
      </trkpt>
      <trkpt lat="44.13752" lon="7.23448">
        <ele>2066.7</ele>
        <time>2023-02-05T11:45:52Z</time>
      </trkpt>
      <trkpt lat="44.13752" lon="7.23448">
        <ele>2066.6</ele>
        <time>2023-02-05T11:45:53Z</time>
      </trkpt>
      <trkpt lat="44.13752" lon="7.23448">
        <ele>2066.6</ele>
        <time>2023-02-05T11:45:54Z</time>
      </trkpt>
      <trkpt lat="44.13752" lon="7.23449">
        <ele>2066.6</ele>
        <time>2023-02-05T11:45:55Z</time>
      </trkpt>
      <trkpt lat="44.13752" lon="7.23449">
        <ele>2066.5</ele>
        <time>2023-02-05T11:45:56Z</time>
      </trkpt>
      <trkpt lat="44.13752" lon="7.23449">
        <ele>2066.5</ele>
        <time>2023-02-05T11:45:57Z</time>
      </trkpt>
      <trkpt lat="44.13753" lon="7.23451">
        <ele>2066.5</ele>
        <time>2023-02-05T11:45:58Z</time>
      </trkpt>
      <trkpt lat="44.13753" lon="7.23451">
        <ele>2066.6</ele>
        <time>2023-02-05T11:45:59Z</time>
      </trkpt>
      <trkpt lat="44.13753" lon="7.23452">
        <ele>2066.7</ele>
        <time>2023-02-05T11:46:00Z</time>
      </trkpt>
      <trkpt lat="44.13753" lon="7.23452">
        <ele>2066.7</ele>
        <time>2023-02-05T11:46:01Z</time>
      </trkpt>
      <trkpt lat="44.13753" lon="7.23452">
        <ele>2066.7</ele>
        <time>2023-02-05T11:46:02Z</time>
      </trkpt>
      <trkpt lat="44.13753" lon="7.23452">
        <ele>2066.7</ele>
        <time>2023-02-05T11:46:03Z</time>
      </trkpt>
      <trkpt lat="44.13754" lon="7.23452">
        <ele>2066.7</ele>
        <time>2023-02-05T11:46:04Z</time>
      </trkpt>
      <trkpt lat="44.13754" lon="7.23452">
        <ele>2066.8</ele>
        <time>2023-02-05T11:46:05Z</time>
      </trkpt>
      <trkpt lat="44.13754" lon="7.23452">
        <ele>2066.8</ele>
        <time>2023-02-05T11:46:06Z</time>
      </trkpt>
      <trkpt lat="44.13755" lon="7.23452">
        <ele>2066.8</ele>
        <time>2023-02-05T11:46:07Z</time>
      </trkpt>
      <trkpt lat="44.13755" lon="7.23452">
        <ele>2066.8</ele>
        <time>2023-02-05T11:46:08Z</time>
      </trkpt>
      <trkpt lat="44.13755" lon="7.23452">
        <ele>2066.7</ele>
        <time>2023-02-05T11:46:09Z</time>
      </trkpt>
      <trkpt lat="44.13755" lon="7.23452">
        <ele>2066.7</ele>
        <time>2023-02-05T11:46:10Z</time>
      </trkpt>
      <trkpt lat="44.13755" lon="7.23452">
        <ele>2066.7</ele>
        <time>2023-02-05T11:46:11Z</time>
      </trkpt>
      <trkpt lat="44.13756" lon="7.23452">
        <ele>2066.7</ele>
        <time>2023-02-05T11:46:12Z</time>
      </trkpt>
      <trkpt lat="44.13756" lon="7.23451">
        <ele>2066.7</ele>
        <time>2023-02-05T11:46:13Z</time>
      </trkpt>
      <trkpt lat="44.13756" lon="7.23451">
        <ele>2066.7</ele>
        <time>2023-02-05T11:46:14Z</time>
      </trkpt>
      <trkpt lat="44.13756" lon="7.23451">
        <ele>2066.8</ele>
        <time>2023-02-05T11:46:15Z</time>
      </trkpt>
      <trkpt lat="44.13756" lon="7.23451">
        <ele>2066.8</ele>
        <time>2023-02-05T11:46:16Z</time>
      </trkpt>
      <trkpt lat="44.13756" lon="7.23451">
        <ele>2066.8</ele>
        <time>2023-02-05T11:46:17Z</time>
      </trkpt>
      <trkpt lat="44.13756" lon="7.23451">
        <ele>2066.8</ele>
        <time>2023-02-05T11:46:18Z</time>
      </trkpt>
      <trkpt lat="44.13756" lon="7.23451">
        <ele>2066.9</ele>
        <time>2023-02-05T11:46:19Z</time>
      </trkpt>
      <trkpt lat="44.13756" lon="7.23452">
        <ele>2066.9</ele>
        <time>2023-02-05T11:46:20Z</time>
      </trkpt>
      <trkpt lat="44.13756" lon="7.23451">
        <ele>2066.9</ele>
        <time>2023-02-05T11:46:21Z</time>
      </trkpt>
      <trkpt lat="44.13756" lon="7.23451">
        <ele>2066.8</ele>
        <time>2023-02-05T11:46:22Z</time>
      </trkpt>
      <trkpt lat="44.13756" lon="7.23452">
        <ele>2066.8</ele>
        <time>2023-02-05T11:46:23Z</time>
      </trkpt>
      <trkpt lat="44.13756" lon="7.23452">
        <ele>2066.7</ele>
        <time>2023-02-05T11:46:24Z</time>
      </trkpt>
      <trkpt lat="44.13756" lon="7.23451">
        <ele>2066.7</ele>
        <time>2023-02-05T11:46:25Z</time>
      </trkpt>
      <trkpt lat="44.13756" lon="7.23451">
        <ele>2066.7</ele>
        <time>2023-02-05T11:46:26Z</time>
      </trkpt>
      <trkpt lat="44.13757" lon="7.23451">
        <ele>2066.6</ele>
        <time>2023-02-05T11:46:27Z</time>
      </trkpt>
      <trkpt lat="44.13757" lon="7.23451">
        <ele>2066.6</ele>
        <time>2023-02-05T11:46:28Z</time>
      </trkpt>
      <trkpt lat="44.13757" lon="7.23451">
        <ele>2066.6</ele>
        <time>2023-02-05T11:46:29Z</time>
      </trkpt>
      <trkpt lat="44.13757" lon="7.23451">
        <ele>2066.6</ele>
        <time>2023-02-05T11:46:30Z</time>
      </trkpt>
      <trkpt lat="44.13757" lon="7.23451">
        <ele>2066.6</ele>
        <time>2023-02-05T11:46:31Z</time>
      </trkpt>
      <trkpt lat="44.13757" lon="7.23451">
        <ele>2066.6</ele>
        <time>2023-02-05T11:46:32Z</time>
      </trkpt>
      <trkpt lat="44.13758" lon="7.23451">
        <ele>2066.6</ele>
        <time>2023-02-05T11:46:33Z</time>
      </trkpt>
      <trkpt lat="44.13758" lon="7.23451">
        <ele>2066.6</ele>
        <time>2023-02-05T11:46:34Z</time>
      </trkpt>
      <trkpt lat="44.13758" lon="7.23451">
        <ele>2066.7</ele>
        <time>2023-02-05T11:46:35Z</time>
      </trkpt>
      <trkpt lat="44.13758" lon="7.23451">
        <ele>2066.7</ele>
        <time>2023-02-05T11:46:36Z</time>
      </trkpt>
      <trkpt lat="44.13758" lon="7.23451">
        <ele>2066.7</ele>
        <time>2023-02-05T11:46:37Z</time>
      </trkpt>
      <trkpt lat="44.13758" lon="7.23451">
        <ele>2066.7</ele>
        <time>2023-02-05T11:46:38Z</time>
      </trkpt>
      <trkpt lat="44.13759" lon="7.23452">
        <ele>2066.8</ele>
        <time>2023-02-05T11:46:39Z</time>
      </trkpt>
      <trkpt lat="44.13759" lon="7.23452">
        <ele>2066.7</ele>
        <time>2023-02-05T11:46:40Z</time>
      </trkpt>
      <trkpt lat="44.13759" lon="7.23452">
        <ele>2066.7</ele>
        <time>2023-02-05T11:46:41Z</time>
      </trkpt>
      <trkpt lat="44.13759" lon="7.23452">
        <ele>2066.7</ele>
        <time>2023-02-05T11:46:42Z</time>
      </trkpt>
      <trkpt lat="44.13759" lon="7.23452">
        <ele>2066.6</ele>
        <time>2023-02-05T11:46:43Z</time>
      </trkpt>
      <trkpt lat="44.13759" lon="7.23452">
        <ele>2066.6</ele>
        <time>2023-02-05T11:46:44Z</time>
      </trkpt>
      <trkpt lat="44.13759" lon="7.23452">
        <ele>2066.6</ele>
        <time>2023-02-05T11:46:45Z</time>
      </trkpt>
      <trkpt lat="44.1376" lon="7.23452">
        <ele>2066.6</ele>
        <time>2023-02-05T11:46:46Z</time>
      </trkpt>
      <trkpt lat="44.1376" lon="7.23452">
        <ele>2066.6</ele>
        <time>2023-02-05T11:46:47Z</time>
      </trkpt>
      <trkpt lat="44.1376" lon="7.23452">
        <ele>2066.6</ele>
        <time>2023-02-05T11:46:48Z</time>
      </trkpt>
      <trkpt lat="44.1376" lon="7.23452">
        <ele>2066.5</ele>
        <time>2023-02-05T11:46:49Z</time>
      </trkpt>
      <trkpt lat="44.1376" lon="7.23452">
        <ele>2066.5</ele>
        <time>2023-02-05T11:46:50Z</time>
      </trkpt>
      <trkpt lat="44.1376" lon="7.23452">
        <ele>2066.5</ele>
        <time>2023-02-05T11:46:51Z</time>
      </trkpt>
      <trkpt lat="44.1376" lon="7.23452">
        <ele>2066.5</ele>
        <time>2023-02-05T11:46:52Z</time>
      </trkpt>
      <trkpt lat="44.1376" lon="7.23452">
        <ele>2066.5</ele>
        <time>2023-02-05T11:46:53Z</time>
      </trkpt>
      <trkpt lat="44.1376" lon="7.23452">
        <ele>2066.5</ele>
        <time>2023-02-05T11:46:54Z</time>
      </trkpt>
      <trkpt lat="44.1376" lon="7.23452">
        <ele>2066.5</ele>
        <time>2023-02-05T11:46:55Z</time>
      </trkpt>
      <trkpt lat="44.13761" lon="7.23452">
        <ele>2066.5</ele>
        <time>2023-02-05T11:46:56Z</time>
      </trkpt>
      <trkpt lat="44.13761" lon="7.23452">
        <ele>2066.5</ele>
        <time>2023-02-05T11:46:57Z</time>
      </trkpt>
      <trkpt lat="44.13761" lon="7.23452">
        <ele>2066.5</ele>
        <time>2023-02-05T11:46:58Z</time>
      </trkpt>
      <trkpt lat="44.13761" lon="7.23452">
        <ele>2066.5</ele>
        <time>2023-02-05T11:46:59Z</time>
      </trkpt>
      <trkpt lat="44.13761" lon="7.23452">
        <ele>2066.5</ele>
        <time>2023-02-05T11:47:00Z</time>
      </trkpt>
      <trkpt lat="44.13761" lon="7.23452">
        <ele>2066.4</ele>
        <time>2023-02-05T11:47:01Z</time>
      </trkpt>
      <trkpt lat="44.13761" lon="7.23452">
        <ele>2066.4</ele>
        <time>2023-02-05T11:47:02Z</time>
      </trkpt>
      <trkpt lat="44.13761" lon="7.23452">
        <ele>2066.3</ele>
        <time>2023-02-05T11:47:03Z</time>
      </trkpt>
      <trkpt lat="44.13761" lon="7.23452">
        <ele>2066.2</ele>
        <time>2023-02-05T11:47:04Z</time>
      </trkpt>
      <trkpt lat="44.13761" lon="7.23452">
        <ele>2066.2</ele>
        <time>2023-02-05T11:47:05Z</time>
      </trkpt>
      <trkpt lat="44.13761" lon="7.23452">
        <ele>2066.2</ele>
        <time>2023-02-05T11:47:06Z</time>
      </trkpt>
      <trkpt lat="44.13761" lon="7.23452">
        <ele>2066.2</ele>
        <time>2023-02-05T11:47:07Z</time>
      </trkpt>
      <trkpt lat="44.13761" lon="7.23452">
        <ele>2066.2</ele>
        <time>2023-02-05T11:47:08Z</time>
      </trkpt>
      <trkpt lat="44.13761" lon="7.23452">
        <ele>2066.2</ele>
        <time>2023-02-05T11:47:09Z</time>
      </trkpt>
      <trkpt lat="44.13761" lon="7.23452">
        <ele>2066.1</ele>
        <time>2023-02-05T11:47:10Z</time>
      </trkpt>
      <trkpt lat="44.13761" lon="7.23452">
        <ele>2066.1</ele>
        <time>2023-02-05T11:47:11Z</time>
      </trkpt>
      <trkpt lat="44.13761" lon="7.23452">
        <ele>2066.1</ele>
        <time>2023-02-05T11:47:12Z</time>
      </trkpt>
      <trkpt lat="44.13761" lon="7.23452">
        <ele>2066.2</ele>
        <time>2023-02-05T11:47:13Z</time>
      </trkpt>
      <trkpt lat="44.13761" lon="7.23452">
        <ele>2066.3</ele>
        <time>2023-02-05T11:47:14Z</time>
      </trkpt>
      <trkpt lat="44.13761" lon="7.23452">
        <ele>2066.3</ele>
        <time>2023-02-05T11:47:15Z</time>
      </trkpt>
      <trkpt lat="44.13761" lon="7.23452">
        <ele>2066.3</ele>
        <time>2023-02-05T11:47:16Z</time>
      </trkpt>
      <trkpt lat="44.13761" lon="7.23452">
        <ele>2066.3</ele>
        <time>2023-02-05T11:47:17Z</time>
      </trkpt>
      <trkpt lat="44.13761" lon="7.23452">
        <ele>2066.3</ele>
        <time>2023-02-05T11:47:18Z</time>
      </trkpt>
      <trkpt lat="44.13761" lon="7.23452">
        <ele>2066.4</ele>
        <time>2023-02-05T11:47:19Z</time>
      </trkpt>
      <trkpt lat="44.13761" lon="7.23452">
        <ele>2066.3</ele>
        <time>2023-02-05T11:47:20Z</time>
      </trkpt>
      <trkpt lat="44.13761" lon="7.23452">
        <ele>2066.4</ele>
        <time>2023-02-05T11:47:21Z</time>
      </trkpt>
      <trkpt lat="44.13761" lon="7.23452">
        <ele>2066.5</ele>
        <time>2023-02-05T11:47:22Z</time>
      </trkpt>
      <trkpt lat="44.13761" lon="7.23452">
        <ele>2066.5</ele>
        <time>2023-02-05T11:47:23Z</time>
      </trkpt>
      <trkpt lat="44.1376" lon="7.23452">
        <ele>2066.4</ele>
        <time>2023-02-05T11:47:24Z</time>
      </trkpt>
      <trkpt lat="44.1376" lon="7.23452">
        <ele>2066.4</ele>
        <time>2023-02-05T11:47:25Z</time>
      </trkpt>
      <trkpt lat="44.1376" lon="7.23452">
        <ele>2066.4</ele>
        <time>2023-02-05T11:47:26Z</time>
      </trkpt>
      <trkpt lat="44.1376" lon="7.23452">
        <ele>2066.3</ele>
        <time>2023-02-05T11:47:27Z</time>
      </trkpt>
      <trkpt lat="44.1376" lon="7.23452">
        <ele>2066.3</ele>
        <time>2023-02-05T11:47:28Z</time>
      </trkpt>
      <trkpt lat="44.1376" lon="7.23452">
        <ele>2066.2</ele>
        <time>2023-02-05T11:47:29Z</time>
      </trkpt>
      <trkpt lat="44.1376" lon="7.23452">
        <ele>2066.2</ele>
        <time>2023-02-05T11:47:30Z</time>
      </trkpt>
      <trkpt lat="44.1376" lon="7.23452">
        <ele>2066.1</ele>
        <time>2023-02-05T11:47:31Z</time>
      </trkpt>
      <trkpt lat="44.1376" lon="7.23452">
        <ele>2066.1</ele>
        <time>2023-02-05T11:47:32Z</time>
      </trkpt>
      <trkpt lat="44.1376" lon="7.23452">
        <ele>2066.1</ele>
        <time>2023-02-05T11:47:33Z</time>
      </trkpt>
      <trkpt lat="44.1376" lon="7.23452">
        <ele>2066.1</ele>
        <time>2023-02-05T11:47:34Z</time>
      </trkpt>
      <trkpt lat="44.1376" lon="7.23452">
        <ele>2066.1</ele>
        <time>2023-02-05T11:47:35Z</time>
      </trkpt>
      <trkpt lat="44.1376" lon="7.23452">
        <ele>2066.1</ele>
        <time>2023-02-05T11:47:36Z</time>
      </trkpt>
      <trkpt lat="44.1376" lon="7.23452">
        <ele>2066.1</ele>
        <time>2023-02-05T11:47:37Z</time>
      </trkpt>
      <trkpt lat="44.1376" lon="7.23452">
        <ele>2066</ele>
        <time>2023-02-05T11:47:38Z</time>
      </trkpt>
      <trkpt lat="44.1376" lon="7.23452">
        <ele>2065.9</ele>
        <time>2023-02-05T11:47:39Z</time>
      </trkpt>
      <trkpt lat="44.1376" lon="7.23452">
        <ele>2065.9</ele>
        <time>2023-02-05T11:47:40Z</time>
      </trkpt>
      <trkpt lat="44.1376" lon="7.23452">
        <ele>2065.9</ele>
        <time>2023-02-05T11:47:41Z</time>
      </trkpt>
      <trkpt lat="44.1376" lon="7.23452">
        <ele>2065.9</ele>
        <time>2023-02-05T11:47:42Z</time>
      </trkpt>
      <trkpt lat="44.1376" lon="7.23452">
        <ele>2065.9</ele>
        <time>2023-02-05T11:47:43Z</time>
      </trkpt>
      <trkpt lat="44.1376" lon="7.23452">
        <ele>2066</ele>
        <time>2023-02-05T11:47:44Z</time>
      </trkpt>
      <trkpt lat="44.1376" lon="7.23452">
        <ele>2066.1</ele>
        <time>2023-02-05T11:47:45Z</time>
      </trkpt>
      <trkpt lat="44.1376" lon="7.23452">
        <ele>2066.1</ele>
        <time>2023-02-05T11:47:46Z</time>
      </trkpt>
      <trkpt lat="44.1376" lon="7.23452">
        <ele>2066.2</ele>
        <time>2023-02-05T11:47:47Z</time>
      </trkpt>
      <trkpt lat="44.1376" lon="7.23452">
        <ele>2066.2</ele>
        <time>2023-02-05T11:47:48Z</time>
      </trkpt>
      <trkpt lat="44.1376" lon="7.23452">
        <ele>2066.2</ele>
        <time>2023-02-05T11:47:49Z</time>
      </trkpt>
      <trkpt lat="44.1376" lon="7.23452">
        <ele>2066.2</ele>
        <time>2023-02-05T11:47:50Z</time>
      </trkpt>
      <trkpt lat="44.1376" lon="7.23452">
        <ele>2066.2</ele>
        <time>2023-02-05T11:47:51Z</time>
      </trkpt>
      <trkpt lat="44.1376" lon="7.23452">
        <ele>2066.1</ele>
        <time>2023-02-05T11:47:52Z</time>
      </trkpt>
      <trkpt lat="44.1376" lon="7.23452">
        <ele>2066.1</ele>
        <time>2023-02-05T11:47:53Z</time>
      </trkpt>
      <trkpt lat="44.13759" lon="7.23452">
        <ele>2066</ele>
        <time>2023-02-05T11:47:54Z</time>
      </trkpt>
      <trkpt lat="44.13759" lon="7.23452">
        <ele>2066</ele>
        <time>2023-02-05T11:47:55Z</time>
      </trkpt>
      <trkpt lat="44.13759" lon="7.23453">
        <ele>2066</ele>
        <time>2023-02-05T11:47:56Z</time>
      </trkpt>
      <trkpt lat="44.13759" lon="7.23453">
        <ele>2066</ele>
        <time>2023-02-05T11:47:57Z</time>
      </trkpt>
      <trkpt lat="44.13759" lon="7.23453">
        <ele>2066</ele>
        <time>2023-02-05T11:47:58Z</time>
      </trkpt>
      <trkpt lat="44.13759" lon="7.23453">
        <ele>2065.9</ele>
        <time>2023-02-05T11:47:59Z</time>
      </trkpt>
      <trkpt lat="44.13759" lon="7.23453">
        <ele>2065.9</ele>
        <time>2023-02-05T11:48:00Z</time>
      </trkpt>
      <trkpt lat="44.13759" lon="7.23453">
        <ele>2066</ele>
        <time>2023-02-05T11:48:01Z</time>
      </trkpt>
      <trkpt lat="44.13759" lon="7.23453">
        <ele>2066</ele>
        <time>2023-02-05T11:48:02Z</time>
      </trkpt>
      <trkpt lat="44.13759" lon="7.23453">
        <ele>2066.1</ele>
        <time>2023-02-05T11:48:03Z</time>
      </trkpt>
      <trkpt lat="44.13759" lon="7.23453">
        <ele>2066.2</ele>
        <time>2023-02-05T11:48:04Z</time>
      </trkpt>
      <trkpt lat="44.13759" lon="7.23453">
        <ele>2066.2</ele>
        <time>2023-02-05T11:48:05Z</time>
      </trkpt>
      <trkpt lat="44.13759" lon="7.23453">
        <ele>2066.2</ele>
        <time>2023-02-05T11:48:06Z</time>
      </trkpt>
      <trkpt lat="44.13759" lon="7.23453">
        <ele>2066.1</ele>
        <time>2023-02-05T11:48:07Z</time>
      </trkpt>
      <trkpt lat="44.13759" lon="7.23453">
        <ele>2066</ele>
        <time>2023-02-05T11:48:08Z</time>
      </trkpt>
      <trkpt lat="44.13759" lon="7.23453">
        <ele>2065.9</ele>
        <time>2023-02-05T11:48:09Z</time>
      </trkpt>
      <trkpt lat="44.13759" lon="7.23454">
        <ele>2065.8</ele>
        <time>2023-02-05T11:48:10Z</time>
      </trkpt>
      <trkpt lat="44.13759" lon="7.23454">
        <ele>2065.9</ele>
        <time>2023-02-05T11:48:11Z</time>
      </trkpt>
      <trkpt lat="44.13759" lon="7.23454">
        <ele>2066</ele>
        <time>2023-02-05T11:48:12Z</time>
      </trkpt>
      <trkpt lat="44.13759" lon="7.23454">
        <ele>2066</ele>
        <time>2023-02-05T11:48:13Z</time>
      </trkpt>
      <trkpt lat="44.13759" lon="7.23454">
        <ele>2066</ele>
        <time>2023-02-05T11:48:14Z</time>
      </trkpt>
      <trkpt lat="44.13759" lon="7.23454">
        <ele>2066</ele>
        <time>2023-02-05T11:48:15Z</time>
      </trkpt>
      <trkpt lat="44.13759" lon="7.23454">
        <ele>2066</ele>
        <time>2023-02-05T11:48:16Z</time>
      </trkpt>
      <trkpt lat="44.13759" lon="7.23454">
        <ele>2066</ele>
        <time>2023-02-05T11:48:17Z</time>
      </trkpt>
      <trkpt lat="44.13759" lon="7.23454">
        <ele>2066</ele>
        <time>2023-02-05T11:48:18Z</time>
      </trkpt>
      <trkpt lat="44.13759" lon="7.23455">
        <ele>2065.9</ele>
        <time>2023-02-05T11:48:19Z</time>
      </trkpt>
      <trkpt lat="44.13759" lon="7.23455">
        <ele>2065.9</ele>
        <time>2023-02-05T11:48:20Z</time>
      </trkpt>
      <trkpt lat="44.1376" lon="7.23455">
        <ele>2065.9</ele>
        <time>2023-02-05T11:48:21Z</time>
      </trkpt>
      <trkpt lat="44.1376" lon="7.23454">
        <ele>2065.9</ele>
        <time>2023-02-05T11:48:22Z</time>
      </trkpt>
      <trkpt lat="44.1376" lon="7.23454">
        <ele>2065.9</ele>
        <time>2023-02-05T11:48:23Z</time>
      </trkpt>
      <trkpt lat="44.1376" lon="7.23454">
        <ele>2066</ele>
        <time>2023-02-05T11:48:24Z</time>
      </trkpt>
      <trkpt lat="44.1376" lon="7.23454">
        <ele>2066</ele>
        <time>2023-02-05T11:48:25Z</time>
      </trkpt>
      <trkpt lat="44.1376" lon="7.23454">
        <ele>2066</ele>
        <time>2023-02-05T11:48:26Z</time>
      </trkpt>
      <trkpt lat="44.13761" lon="7.23454">
        <ele>2065.9</ele>
        <time>2023-02-05T11:48:27Z</time>
      </trkpt>
      <trkpt lat="44.13761" lon="7.23454">
        <ele>2065.8</ele>
        <time>2023-02-05T11:48:28Z</time>
      </trkpt>
      <trkpt lat="44.13761" lon="7.23454">
        <ele>2065.9</ele>
        <time>2023-02-05T11:48:29Z</time>
      </trkpt>
      <trkpt lat="44.13761" lon="7.23454">
        <ele>2065.9</ele>
        <time>2023-02-05T11:48:30Z</time>
      </trkpt>
      <trkpt lat="44.13761" lon="7.23454">
        <ele>2065.9</ele>
        <time>2023-02-05T11:48:31Z</time>
      </trkpt>
      <trkpt lat="44.13761" lon="7.23454">
        <ele>2065.9</ele>
        <time>2023-02-05T11:48:32Z</time>
      </trkpt>
      <trkpt lat="44.13761" lon="7.23453">
        <ele>2065.9</ele>
        <time>2023-02-05T11:48:33Z</time>
      </trkpt>
      <trkpt lat="44.13761" lon="7.23453">
        <ele>2065.9</ele>
        <time>2023-02-05T11:48:34Z</time>
      </trkpt>
      <trkpt lat="44.13761" lon="7.23453">
        <ele>2065.9</ele>
        <time>2023-02-05T11:48:35Z</time>
      </trkpt>
      <trkpt lat="44.13761" lon="7.23453">
        <ele>2065.9</ele>
        <time>2023-02-05T11:48:36Z</time>
      </trkpt>
      <trkpt lat="44.13762" lon="7.23452">
        <ele>2065.9</ele>
        <time>2023-02-05T11:48:37Z</time>
      </trkpt>
      <trkpt lat="44.13762" lon="7.23452">
        <ele>2065.9</ele>
        <time>2023-02-05T11:48:38Z</time>
      </trkpt>
      <trkpt lat="44.13762" lon="7.23453">
        <ele>2065.9</ele>
        <time>2023-02-05T11:48:39Z</time>
      </trkpt>
      <trkpt lat="44.13762" lon="7.23453">
        <ele>2065.9</ele>
        <time>2023-02-05T11:48:40Z</time>
      </trkpt>
      <trkpt lat="44.13762" lon="7.23453">
        <ele>2065.9</ele>
        <time>2023-02-05T11:48:41Z</time>
      </trkpt>
      <trkpt lat="44.13762" lon="7.23453">
        <ele>2065.9</ele>
        <time>2023-02-05T11:48:42Z</time>
      </trkpt>
      <trkpt lat="44.13762" lon="7.23453">
        <ele>2066</ele>
        <time>2023-02-05T11:48:43Z</time>
      </trkpt>
      <trkpt lat="44.13762" lon="7.23453">
        <ele>2066</ele>
        <time>2023-02-05T11:48:44Z</time>
      </trkpt>
      <trkpt lat="44.13762" lon="7.23453">
        <ele>2066.1</ele>
        <time>2023-02-05T11:48:45Z</time>
      </trkpt>
      <trkpt lat="44.13762" lon="7.23453">
        <ele>2066.1</ele>
        <time>2023-02-05T11:48:46Z</time>
      </trkpt>
      <trkpt lat="44.13762" lon="7.23453">
        <ele>2066.1</ele>
        <time>2023-02-05T11:48:47Z</time>
      </trkpt>
      <trkpt lat="44.13762" lon="7.23453">
        <ele>2066.1</ele>
        <time>2023-02-05T11:48:48Z</time>
      </trkpt>
      <trkpt lat="44.13762" lon="7.23453">
        <ele>2066.1</ele>
        <time>2023-02-05T11:48:49Z</time>
      </trkpt>
      <trkpt lat="44.13762" lon="7.23453">
        <ele>2066.2</ele>
        <time>2023-02-05T11:48:50Z</time>
      </trkpt>
      <trkpt lat="44.13762" lon="7.23453">
        <ele>2066.2</ele>
        <time>2023-02-05T11:48:51Z</time>
      </trkpt>
      <trkpt lat="44.13762" lon="7.23453">
        <ele>2066.2</ele>
        <time>2023-02-05T11:48:52Z</time>
      </trkpt>
      <trkpt lat="44.13762" lon="7.23453">
        <ele>2066.3</ele>
        <time>2023-02-05T11:48:53Z</time>
      </trkpt>
      <trkpt lat="44.13762" lon="7.23453">
        <ele>2066.3</ele>
        <time>2023-02-05T11:48:54Z</time>
      </trkpt>
      <trkpt lat="44.13762" lon="7.23453">
        <ele>2066.3</ele>
        <time>2023-02-05T11:48:55Z</time>
      </trkpt>
      <trkpt lat="44.13762" lon="7.23453">
        <ele>2066.3</ele>
        <time>2023-02-05T11:48:56Z</time>
      </trkpt>
      <trkpt lat="44.13762" lon="7.23453">
        <ele>2066.3</ele>
        <time>2023-02-05T11:48:57Z</time>
      </trkpt>
      <trkpt lat="44.13762" lon="7.23453">
        <ele>2066.3</ele>
        <time>2023-02-05T11:48:58Z</time>
      </trkpt>
      <trkpt lat="44.13761" lon="7.23453">
        <ele>2066.3</ele>
        <time>2023-02-05T11:48:59Z</time>
      </trkpt>
      <trkpt lat="44.13761" lon="7.23453">
        <ele>2066.3</ele>
        <time>2023-02-05T11:49:00Z</time>
      </trkpt>
      <trkpt lat="44.13761" lon="7.23453">
        <ele>2066.4</ele>
        <time>2023-02-05T11:49:01Z</time>
      </trkpt>
      <trkpt lat="44.13761" lon="7.23453">
        <ele>2066.4</ele>
        <time>2023-02-05T11:49:02Z</time>
      </trkpt>
      <trkpt lat="44.13761" lon="7.23453">
        <ele>2066.5</ele>
        <time>2023-02-05T11:49:03Z</time>
      </trkpt>
      <trkpt lat="44.13761" lon="7.23453">
        <ele>2066.5</ele>
        <time>2023-02-05T11:49:04Z</time>
      </trkpt>
      <trkpt lat="44.13761" lon="7.23453">
        <ele>2066.5</ele>
        <time>2023-02-05T11:49:05Z</time>
      </trkpt>
      <trkpt lat="44.13762" lon="7.23453">
        <ele>2066.4</ele>
        <time>2023-02-05T11:49:06Z</time>
      </trkpt>
      <trkpt lat="44.13761" lon="7.23453">
        <ele>2066.4</ele>
        <time>2023-02-05T11:49:07Z</time>
      </trkpt>
      <trkpt lat="44.13761" lon="7.23452">
        <ele>2066.4</ele>
        <time>2023-02-05T11:49:08Z</time>
      </trkpt>
      <trkpt lat="44.13761" lon="7.23452">
        <ele>2066.5</ele>
        <time>2023-02-05T11:49:09Z</time>
      </trkpt>
      <trkpt lat="44.13761" lon="7.23453">
        <ele>2066.4</ele>
        <time>2023-02-05T11:49:10Z</time>
      </trkpt>
      <trkpt lat="44.13761" lon="7.23452">
        <ele>2066.5</ele>
        <time>2023-02-05T11:49:11Z</time>
      </trkpt>
      <trkpt lat="44.13761" lon="7.23453">
        <ele>2066.4</ele>
        <time>2023-02-05T11:49:12Z</time>
      </trkpt>
      <trkpt lat="44.13761" lon="7.23453">
        <ele>2066.4</ele>
        <time>2023-02-05T11:49:13Z</time>
      </trkpt>
      <trkpt lat="44.1376" lon="7.23453">
        <ele>2066.2</ele>
        <time>2023-02-05T11:49:14Z</time>
      </trkpt>
      <trkpt lat="44.1376" lon="7.23453">
        <ele>2066.2</ele>
        <time>2023-02-05T11:49:15Z</time>
      </trkpt>
      <trkpt lat="44.1376" lon="7.23453">
        <ele>2066.2</ele>
        <time>2023-02-05T11:49:16Z</time>
      </trkpt>
      <trkpt lat="44.1376" lon="7.23453">
        <ele>2066.2</ele>
        <time>2023-02-05T11:49:17Z</time>
      </trkpt>
      <trkpt lat="44.1376" lon="7.23453">
        <ele>2066.2</ele>
        <time>2023-02-05T11:49:18Z</time>
      </trkpt>
      <trkpt lat="44.1376" lon="7.23453">
        <ele>2066.2</ele>
        <time>2023-02-05T11:49:19Z</time>
      </trkpt>
      <trkpt lat="44.1376" lon="7.23453">
        <ele>2066.1</ele>
        <time>2023-02-05T11:49:20Z</time>
      </trkpt>
      <trkpt lat="44.1376" lon="7.23453">
        <ele>2066.1</ele>
        <time>2023-02-05T11:49:21Z</time>
      </trkpt>
      <trkpt lat="44.13759" lon="7.23453">
        <ele>2066.1</ele>
        <time>2023-02-05T11:49:22Z</time>
      </trkpt>
      <trkpt lat="44.13759" lon="7.23454">
        <ele>2066.1</ele>
        <time>2023-02-05T11:49:23Z</time>
      </trkpt>
      <trkpt lat="44.13759" lon="7.23454">
        <ele>2066.2</ele>
        <time>2023-02-05T11:49:24Z</time>
      </trkpt>
      <trkpt lat="44.13759" lon="7.23454">
        <ele>2066.2</ele>
        <time>2023-02-05T11:49:25Z</time>
      </trkpt>
      <trkpt lat="44.13759" lon="7.23454">
        <ele>2066.2</ele>
        <time>2023-02-05T11:49:26Z</time>
      </trkpt>
      <trkpt lat="44.13759" lon="7.23454">
        <ele>2066.1</ele>
        <time>2023-02-05T11:49:27Z</time>
      </trkpt>
      <trkpt lat="44.13759" lon="7.23454">
        <ele>2066.1</ele>
        <time>2023-02-05T11:49:28Z</time>
      </trkpt>
      <trkpt lat="44.13759" lon="7.23454">
        <ele>2066.1</ele>
        <time>2023-02-05T11:49:29Z</time>
      </trkpt>
      <trkpt lat="44.13759" lon="7.23454">
        <ele>2066.2</ele>
        <time>2023-02-05T11:49:30Z</time>
      </trkpt>
      <trkpt lat="44.13759" lon="7.23454">
        <ele>2066.2</ele>
        <time>2023-02-05T11:49:31Z</time>
      </trkpt>
      <trkpt lat="44.13759" lon="7.23454">
        <ele>2066.2</ele>
        <time>2023-02-05T11:49:32Z</time>
      </trkpt>
      <trkpt lat="44.13759" lon="7.23454">
        <ele>2066.2</ele>
        <time>2023-02-05T11:49:33Z</time>
      </trkpt>
      <trkpt lat="44.13759" lon="7.23454">
        <ele>2066.2</ele>
        <time>2023-02-05T11:49:34Z</time>
      </trkpt>
      <trkpt lat="44.13759" lon="7.23454">
        <ele>2066.2</ele>
        <time>2023-02-05T11:49:35Z</time>
      </trkpt>
      <trkpt lat="44.13758" lon="7.23455">
        <ele>2066.2</ele>
        <time>2023-02-05T11:49:36Z</time>
      </trkpt>
      <trkpt lat="44.13758" lon="7.23455">
        <ele>2066.2</ele>
        <time>2023-02-05T11:49:37Z</time>
      </trkpt>
      <trkpt lat="44.13758" lon="7.23455">
        <ele>2066.2</ele>
        <time>2023-02-05T11:49:38Z</time>
      </trkpt>
      <trkpt lat="44.13758" lon="7.23455">
        <ele>2066.2</ele>
        <time>2023-02-05T11:49:39Z</time>
      </trkpt>
      <trkpt lat="44.13758" lon="7.23455">
        <ele>2066.2</ele>
        <time>2023-02-05T11:49:40Z</time>
      </trkpt>
      <trkpt lat="44.13758" lon="7.23455">
        <ele>2066.2</ele>
        <time>2023-02-05T11:49:41Z</time>
      </trkpt>
      <trkpt lat="44.13758" lon="7.23455">
        <ele>2066.2</ele>
        <time>2023-02-05T11:49:42Z</time>
      </trkpt>
      <trkpt lat="44.13758" lon="7.23455">
        <ele>2066.2</ele>
        <time>2023-02-05T11:49:43Z</time>
      </trkpt>
      <trkpt lat="44.13758" lon="7.23455">
        <ele>2066.2</ele>
        <time>2023-02-05T11:49:44Z</time>
      </trkpt>
      <trkpt lat="44.13757" lon="7.23455">
        <ele>2066.2</ele>
        <time>2023-02-05T11:49:45Z</time>
      </trkpt>
      <trkpt lat="44.13757" lon="7.23455">
        <ele>2066.2</ele>
        <time>2023-02-05T11:49:46Z</time>
      </trkpt>
      <trkpt lat="44.13757" lon="7.23455">
        <ele>2066.2</ele>
        <time>2023-02-05T11:49:47Z</time>
      </trkpt>
      <trkpt lat="44.13757" lon="7.23455">
        <ele>2066.2</ele>
        <time>2023-02-05T11:49:48Z</time>
      </trkpt>
      <trkpt lat="44.13757" lon="7.23455">
        <ele>2066.2</ele>
        <time>2023-02-05T11:49:49Z</time>
      </trkpt>
      <trkpt lat="44.13757" lon="7.23455">
        <ele>2066.2</ele>
        <time>2023-02-05T11:49:50Z</time>
      </trkpt>
      <trkpt lat="44.13757" lon="7.23455">
        <ele>2066.2</ele>
        <time>2023-02-05T11:49:51Z</time>
      </trkpt>
      <trkpt lat="44.13757" lon="7.23455">
        <ele>2066.2</ele>
        <time>2023-02-05T11:49:52Z</time>
      </trkpt>
      <trkpt lat="44.13757" lon="7.23455">
        <ele>2066.3</ele>
        <time>2023-02-05T11:49:53Z</time>
      </trkpt>
      <trkpt lat="44.13757" lon="7.23455">
        <ele>2066.3</ele>
        <time>2023-02-05T11:49:54Z</time>
      </trkpt>
      <trkpt lat="44.13757" lon="7.23455">
        <ele>2066.3</ele>
        <time>2023-02-05T11:49:55Z</time>
      </trkpt>
      <trkpt lat="44.13757" lon="7.23455">
        <ele>2066.2</ele>
        <time>2023-02-05T11:49:56Z</time>
      </trkpt>
      <trkpt lat="44.13757" lon="7.23455">
        <ele>2066.2</ele>
        <time>2023-02-05T11:49:57Z</time>
      </trkpt>
      <trkpt lat="44.13757" lon="7.23455">
        <ele>2066.2</ele>
        <time>2023-02-05T11:49:58Z</time>
      </trkpt>
      <trkpt lat="44.13757" lon="7.23454">
        <ele>2066.2</ele>
        <time>2023-02-05T11:49:59Z</time>
      </trkpt>
      <trkpt lat="44.13757" lon="7.23454">
        <ele>2066.2</ele>
        <time>2023-02-05T11:50:00Z</time>
      </trkpt>
      <trkpt lat="44.13757" lon="7.23454">
        <ele>2066.3</ele>
        <time>2023-02-05T11:50:01Z</time>
      </trkpt>
      <trkpt lat="44.13757" lon="7.23454">
        <ele>2066.3</ele>
        <time>2023-02-05T11:50:02Z</time>
      </trkpt>
      <trkpt lat="44.13757" lon="7.23454">
        <ele>2066.2</ele>
        <time>2023-02-05T11:50:03Z</time>
      </trkpt>
      <trkpt lat="44.13757" lon="7.23454">
        <ele>2066.2</ele>
        <time>2023-02-05T11:50:04Z</time>
      </trkpt>
      <trkpt lat="44.13757" lon="7.23453">
        <ele>2066.3</ele>
        <time>2023-02-05T11:50:05Z</time>
      </trkpt>
      <trkpt lat="44.13757" lon="7.23453">
        <ele>2066.4</ele>
        <time>2023-02-05T11:50:06Z</time>
      </trkpt>
      <trkpt lat="44.13757" lon="7.23453">
        <ele>2066.4</ele>
        <time>2023-02-05T11:50:07Z</time>
      </trkpt>
      <trkpt lat="44.13757" lon="7.23453">
        <ele>2066.4</ele>
        <time>2023-02-05T11:50:08Z</time>
      </trkpt>
      <trkpt lat="44.13757" lon="7.23453">
        <ele>2066.4</ele>
        <time>2023-02-05T11:50:09Z</time>
      </trkpt>
      <trkpt lat="44.13757" lon="7.23453">
        <ele>2066.5</ele>
        <time>2023-02-05T11:50:10Z</time>
      </trkpt>
      <trkpt lat="44.13757" lon="7.23453">
        <ele>2066.5</ele>
        <time>2023-02-05T11:50:11Z</time>
      </trkpt>
      <trkpt lat="44.13757" lon="7.23453">
        <ele>2066.5</ele>
        <time>2023-02-05T11:50:12Z</time>
      </trkpt>
      <trkpt lat="44.13757" lon="7.23453">
        <ele>2066.5</ele>
        <time>2023-02-05T11:50:13Z</time>
      </trkpt>
      <trkpt lat="44.13757" lon="7.23452">
        <ele>2066.5</ele>
        <time>2023-02-05T11:50:14Z</time>
      </trkpt>
      <trkpt lat="44.13757" lon="7.23452">
        <ele>2066.5</ele>
        <time>2023-02-05T11:50:15Z</time>
      </trkpt>
      <trkpt lat="44.13757" lon="7.23452">
        <ele>2066.4</ele>
        <time>2023-02-05T11:50:16Z</time>
      </trkpt>
      <trkpt lat="44.13757" lon="7.23452">
        <ele>2066.4</ele>
        <time>2023-02-05T11:50:17Z</time>
      </trkpt>
      <trkpt lat="44.13757" lon="7.23452">
        <ele>2066.4</ele>
        <time>2023-02-05T11:50:18Z</time>
      </trkpt>
      <trkpt lat="44.13757" lon="7.23452">
        <ele>2066.4</ele>
        <time>2023-02-05T11:50:19Z</time>
      </trkpt>
      <trkpt lat="44.13757" lon="7.23452">
        <ele>2066.4</ele>
        <time>2023-02-05T11:50:20Z</time>
      </trkpt>
      <trkpt lat="44.13757" lon="7.23452">
        <ele>2066.4</ele>
        <time>2023-02-05T11:50:21Z</time>
      </trkpt>
      <trkpt lat="44.13757" lon="7.23453">
        <ele>2066.4</ele>
        <time>2023-02-05T11:50:22Z</time>
      </trkpt>
      <trkpt lat="44.13757" lon="7.23453">
        <ele>2066.4</ele>
        <time>2023-02-05T11:50:23Z</time>
      </trkpt>
      <trkpt lat="44.13757" lon="7.23452">
        <ele>2066.4</ele>
        <time>2023-02-05T11:50:24Z</time>
      </trkpt>
      <trkpt lat="44.13758" lon="7.23452">
        <ele>2066.4</ele>
        <time>2023-02-05T11:50:25Z</time>
      </trkpt>
      <trkpt lat="44.13758" lon="7.23452">
        <ele>2066.4</ele>
        <time>2023-02-05T11:50:26Z</time>
      </trkpt>
      <trkpt lat="44.13758" lon="7.23452">
        <ele>2066.4</ele>
        <time>2023-02-05T11:50:27Z</time>
      </trkpt>
      <trkpt lat="44.13758" lon="7.23452">
        <ele>2066.4</ele>
        <time>2023-02-05T11:50:28Z</time>
      </trkpt>
      <trkpt lat="44.13758" lon="7.23452">
        <ele>2066.5</ele>
        <time>2023-02-05T11:50:29Z</time>
      </trkpt>
      <trkpt lat="44.13758" lon="7.23452">
        <ele>2066.6</ele>
        <time>2023-02-05T11:50:30Z</time>
      </trkpt>
      <trkpt lat="44.13759" lon="7.23452">
        <ele>2066.6</ele>
        <time>2023-02-05T11:50:31Z</time>
      </trkpt>
      <trkpt lat="44.13759" lon="7.23452">
        <ele>2066.6</ele>
        <time>2023-02-05T11:50:32Z</time>
      </trkpt>
      <trkpt lat="44.13759" lon="7.23451">
        <ele>2066.5</ele>
        <time>2023-02-05T11:50:33Z</time>
      </trkpt>
      <trkpt lat="44.13759" lon="7.23451">
        <ele>2066.5</ele>
        <time>2023-02-05T11:50:34Z</time>
      </trkpt>
      <trkpt lat="44.13759" lon="7.23451">
        <ele>2066.5</ele>
        <time>2023-02-05T11:50:35Z</time>
      </trkpt>
      <trkpt lat="44.13759" lon="7.23451">
        <ele>2066.4</ele>
        <time>2023-02-05T11:50:36Z</time>
      </trkpt>
      <trkpt lat="44.13759" lon="7.23451">
        <ele>2066.3</ele>
        <time>2023-02-05T11:50:37Z</time>
      </trkpt>
      <trkpt lat="44.13759" lon="7.23451">
        <ele>2066.3</ele>
        <time>2023-02-05T11:50:38Z</time>
      </trkpt>
      <trkpt lat="44.13759" lon="7.23451">
        <ele>2066.2</ele>
        <time>2023-02-05T11:50:39Z</time>
      </trkpt>
      <trkpt lat="44.1376" lon="7.2345">
        <ele>2066</ele>
        <time>2023-02-05T11:50:40Z</time>
      </trkpt>
      <trkpt lat="44.1376" lon="7.2345">
        <ele>2065.9</ele>
        <time>2023-02-05T11:50:41Z</time>
      </trkpt>
      <trkpt lat="44.1376" lon="7.2345">
        <ele>2065.8</ele>
        <time>2023-02-05T11:50:42Z</time>
      </trkpt>
      <trkpt lat="44.1376" lon="7.2345">
        <ele>2065.7</ele>
        <time>2023-02-05T11:50:43Z</time>
      </trkpt>
      <trkpt lat="44.1376" lon="7.2345">
        <ele>2065.8</ele>
        <time>2023-02-05T11:50:44Z</time>
      </trkpt>
      <trkpt lat="44.13761" lon="7.2345">
        <ele>2065.8</ele>
        <time>2023-02-05T11:50:45Z</time>
      </trkpt>
      <trkpt lat="44.13761" lon="7.2345">
        <ele>2065.8</ele>
        <time>2023-02-05T11:50:46Z</time>
      </trkpt>
      <trkpt lat="44.13761" lon="7.2345">
        <ele>2065.9</ele>
        <time>2023-02-05T11:50:47Z</time>
      </trkpt>
      <trkpt lat="44.13761" lon="7.2345">
        <ele>2065.9</ele>
        <time>2023-02-05T11:50:48Z</time>
      </trkpt>
      <trkpt lat="44.13761" lon="7.2345">
        <ele>2065.9</ele>
        <time>2023-02-05T11:50:49Z</time>
      </trkpt>
      <trkpt lat="44.13761" lon="7.23449">
        <ele>2066</ele>
        <time>2023-02-05T11:50:50Z</time>
      </trkpt>
      <trkpt lat="44.1376" lon="7.23449">
        <ele>2066</ele>
        <time>2023-02-05T11:50:51Z</time>
      </trkpt>
      <trkpt lat="44.1376" lon="7.23449">
        <ele>2066</ele>
        <time>2023-02-05T11:50:52Z</time>
      </trkpt>
      <trkpt lat="44.1376" lon="7.23449">
        <ele>2066</ele>
        <time>2023-02-05T11:50:53Z</time>
      </trkpt>
      <trkpt lat="44.1376" lon="7.23449">
        <ele>2065.9</ele>
        <time>2023-02-05T11:50:54Z</time>
      </trkpt>
      <trkpt lat="44.1376" lon="7.23449">
        <ele>2065.9</ele>
        <time>2023-02-05T11:50:55Z</time>
      </trkpt>
      <trkpt lat="44.1376" lon="7.23449">
        <ele>2065.9</ele>
        <time>2023-02-05T11:50:56Z</time>
      </trkpt>
      <trkpt lat="44.1376" lon="7.23449">
        <ele>2065.9</ele>
        <time>2023-02-05T11:50:57Z</time>
      </trkpt>
      <trkpt lat="44.1376" lon="7.23449">
        <ele>2065.9</ele>
        <time>2023-02-05T11:50:58Z</time>
      </trkpt>
      <trkpt lat="44.13759" lon="7.23449">
        <ele>2065.9</ele>
        <time>2023-02-05T11:50:59Z</time>
      </trkpt>
      <trkpt lat="44.13759" lon="7.23449">
        <ele>2066</ele>
        <time>2023-02-05T11:51:00Z</time>
      </trkpt>
      <trkpt lat="44.13759" lon="7.23449">
        <ele>2066</ele>
        <time>2023-02-05T11:51:01Z</time>
      </trkpt>
      <trkpt lat="44.13759" lon="7.23449">
        <ele>2066</ele>
        <time>2023-02-05T11:51:02Z</time>
      </trkpt>
      <trkpt lat="44.13759" lon="7.23449">
        <ele>2066</ele>
        <time>2023-02-05T11:51:03Z</time>
      </trkpt>
      <trkpt lat="44.13759" lon="7.23449">
        <ele>2066</ele>
        <time>2023-02-05T11:51:04Z</time>
      </trkpt>
      <trkpt lat="44.13759" lon="7.23449">
        <ele>2066</ele>
        <time>2023-02-05T11:51:05Z</time>
      </trkpt>
      <trkpt lat="44.13759" lon="7.23449">
        <ele>2066</ele>
        <time>2023-02-05T11:51:06Z</time>
      </trkpt>
      <trkpt lat="44.13759" lon="7.23449">
        <ele>2066.1</ele>
        <time>2023-02-05T11:51:07Z</time>
      </trkpt>
      <trkpt lat="44.13758" lon="7.23449">
        <ele>2066.1</ele>
        <time>2023-02-05T11:51:08Z</time>
      </trkpt>
      <trkpt lat="44.13758" lon="7.23449">
        <ele>2066.1</ele>
        <time>2023-02-05T11:51:09Z</time>
      </trkpt>
      <trkpt lat="44.13758" lon="7.23449">
        <ele>2066.1</ele>
        <time>2023-02-05T11:51:10Z</time>
      </trkpt>
      <trkpt lat="44.13758" lon="7.23449">
        <ele>2066.1</ele>
        <time>2023-02-05T11:51:11Z</time>
      </trkpt>
      <trkpt lat="44.13758" lon="7.23449">
        <ele>2066.1</ele>
        <time>2023-02-05T11:51:12Z</time>
      </trkpt>
      <trkpt lat="44.13758" lon="7.23449">
        <ele>2066</ele>
        <time>2023-02-05T11:51:13Z</time>
      </trkpt>
      <trkpt lat="44.13758" lon="7.23449">
        <ele>2066</ele>
        <time>2023-02-05T11:51:14Z</time>
      </trkpt>
      <trkpt lat="44.13758" lon="7.23449">
        <ele>2066</ele>
        <time>2023-02-05T11:51:15Z</time>
      </trkpt>
      <trkpt lat="44.13758" lon="7.23449">
        <ele>2066</ele>
        <time>2023-02-05T11:51:16Z</time>
      </trkpt>
      <trkpt lat="44.13758" lon="7.23449">
        <ele>2066</ele>
        <time>2023-02-05T11:51:17Z</time>
      </trkpt>
      <trkpt lat="44.13758" lon="7.23449">
        <ele>2066</ele>
        <time>2023-02-05T11:51:18Z</time>
      </trkpt>
      <trkpt lat="44.13758" lon="7.23449">
        <ele>2065.9</ele>
        <time>2023-02-05T11:51:19Z</time>
      </trkpt>
      <trkpt lat="44.13758" lon="7.23449">
        <ele>2065.9</ele>
        <time>2023-02-05T11:51:20Z</time>
      </trkpt>
      <trkpt lat="44.13758" lon="7.23449">
        <ele>2065.8</ele>
        <time>2023-02-05T11:51:21Z</time>
      </trkpt>
      <trkpt lat="44.13758" lon="7.23449">
        <ele>2065.8</ele>
        <time>2023-02-05T11:51:22Z</time>
      </trkpt>
      <trkpt lat="44.13758" lon="7.23449">
        <ele>2065.8</ele>
        <time>2023-02-05T11:51:23Z</time>
      </trkpt>
      <trkpt lat="44.13758" lon="7.23449">
        <ele>2065.8</ele>
        <time>2023-02-05T11:51:24Z</time>
      </trkpt>
      <trkpt lat="44.13757" lon="7.23449">
        <ele>2065.9</ele>
        <time>2023-02-05T11:51:25Z</time>
      </trkpt>
      <trkpt lat="44.13757" lon="7.23449">
        <ele>2065.9</ele>
        <time>2023-02-05T11:51:26Z</time>
      </trkpt>
      <trkpt lat="44.13757" lon="7.23449">
        <ele>2065.9</ele>
        <time>2023-02-05T11:51:27Z</time>
      </trkpt>
      <trkpt lat="44.13757" lon="7.23449">
        <ele>2065.9</ele>
        <time>2023-02-05T11:51:28Z</time>
      </trkpt>
      <trkpt lat="44.13757" lon="7.23449">
        <ele>2065.8</ele>
        <time>2023-02-05T11:51:29Z</time>
      </trkpt>
      <trkpt lat="44.13757" lon="7.23449">
        <ele>2065.9</ele>
        <time>2023-02-05T11:51:30Z</time>
      </trkpt>
      <trkpt lat="44.13756" lon="7.23449">
        <ele>2065.9</ele>
        <time>2023-02-05T11:51:31Z</time>
      </trkpt>
      <trkpt lat="44.13756" lon="7.23449">
        <ele>2066.1</ele>
        <time>2023-02-05T11:51:32Z</time>
      </trkpt>
      <trkpt lat="44.13756" lon="7.23449">
        <ele>2066</ele>
        <time>2023-02-05T11:51:33Z</time>
      </trkpt>
      <trkpt lat="44.13756" lon="7.23449">
        <ele>2066.1</ele>
        <time>2023-02-05T11:51:34Z</time>
      </trkpt>
      <trkpt lat="44.13756" lon="7.23449">
        <ele>2066</ele>
        <time>2023-02-05T11:51:35Z</time>
      </trkpt>
      <trkpt lat="44.13756" lon="7.23449">
        <ele>2066.1</ele>
        <time>2023-02-05T11:51:36Z</time>
      </trkpt>
      <trkpt lat="44.13756" lon="7.2345">
        <ele>2066.1</ele>
        <time>2023-02-05T11:51:37Z</time>
      </trkpt>
      <trkpt lat="44.13756" lon="7.2345">
        <ele>2066</ele>
        <time>2023-02-05T11:51:38Z</time>
      </trkpt>
      <trkpt lat="44.13756" lon="7.2345">
        <ele>2066</ele>
        <time>2023-02-05T11:51:39Z</time>
      </trkpt>
      <trkpt lat="44.13756" lon="7.2345">
        <ele>2065.9</ele>
        <time>2023-02-05T11:51:40Z</time>
      </trkpt>
      <trkpt lat="44.13756" lon="7.2345">
        <ele>2065.9</ele>
        <time>2023-02-05T11:51:41Z</time>
      </trkpt>
      <trkpt lat="44.13756" lon="7.2345">
        <ele>2065.9</ele>
        <time>2023-02-05T11:51:42Z</time>
      </trkpt>
      <trkpt lat="44.13756" lon="7.2345">
        <ele>2065.8</ele>
        <time>2023-02-05T11:51:43Z</time>
      </trkpt>
      <trkpt lat="44.13756" lon="7.23451">
        <ele>2065.8</ele>
        <time>2023-02-05T11:51:44Z</time>
      </trkpt>
      <trkpt lat="44.13756" lon="7.2345">
        <ele>2065.7</ele>
        <time>2023-02-05T11:51:45Z</time>
      </trkpt>
      <trkpt lat="44.13756" lon="7.2345">
        <ele>2065.7</ele>
        <time>2023-02-05T11:51:46Z</time>
      </trkpt>
      <trkpt lat="44.13756" lon="7.2345">
        <ele>2065.7</ele>
        <time>2023-02-05T11:51:47Z</time>
      </trkpt>
      <trkpt lat="44.13755" lon="7.2345">
        <ele>2065.8</ele>
        <time>2023-02-05T11:51:48Z</time>
      </trkpt>
      <trkpt lat="44.13755" lon="7.23451">
        <ele>2065.8</ele>
        <time>2023-02-05T11:51:49Z</time>
      </trkpt>
      <trkpt lat="44.13755" lon="7.23451">
        <ele>2065.7</ele>
        <time>2023-02-05T11:51:50Z</time>
      </trkpt>
      <trkpt lat="44.13755" lon="7.23451">
        <ele>2065.7</ele>
        <time>2023-02-05T11:51:51Z</time>
      </trkpt>
      <trkpt lat="44.13755" lon="7.23451">
        <ele>2065.7</ele>
        <time>2023-02-05T11:51:52Z</time>
      </trkpt>
      <trkpt lat="44.13755" lon="7.23451">
        <ele>2065.8</ele>
        <time>2023-02-05T11:51:53Z</time>
      </trkpt>
      <trkpt lat="44.13754" lon="7.23452">
        <ele>2065.7</ele>
        <time>2023-02-05T11:51:54Z</time>
      </trkpt>
      <trkpt lat="44.13755" lon="7.23452">
        <ele>2065.6</ele>
        <time>2023-02-05T11:51:55Z</time>
      </trkpt>
      <trkpt lat="44.13755" lon="7.23452">
        <ele>2065.6</ele>
        <time>2023-02-05T11:51:56Z</time>
      </trkpt>
      <trkpt lat="44.13755" lon="7.23453">
        <ele>2065.6</ele>
        <time>2023-02-05T11:51:57Z</time>
      </trkpt>
      <trkpt lat="44.13755" lon="7.23453">
        <ele>2065.5</ele>
        <time>2023-02-05T11:51:58Z</time>
      </trkpt>
      <trkpt lat="44.13755" lon="7.23453">
        <ele>2065.5</ele>
        <time>2023-02-05T11:51:59Z</time>
      </trkpt>
      <trkpt lat="44.13755" lon="7.23454">
        <ele>2065.6</ele>
        <time>2023-02-05T11:52:00Z</time>
      </trkpt>
      <trkpt lat="44.13755" lon="7.23454">
        <ele>2065.6</ele>
        <time>2023-02-05T11:52:01Z</time>
      </trkpt>
      <trkpt lat="44.13755" lon="7.23454">
        <ele>2065.6</ele>
        <time>2023-02-05T11:52:02Z</time>
      </trkpt>
      <trkpt lat="44.13755" lon="7.23455">
        <ele>2065.6</ele>
        <time>2023-02-05T11:52:03Z</time>
      </trkpt>
      <trkpt lat="44.13755" lon="7.23455">
        <ele>2065.6</ele>
        <time>2023-02-05T11:52:04Z</time>
      </trkpt>
      <trkpt lat="44.13755" lon="7.23455">
        <ele>2065.6</ele>
        <time>2023-02-05T11:52:05Z</time>
      </trkpt>
      <trkpt lat="44.13755" lon="7.23456">
        <ele>2065.7</ele>
        <time>2023-02-05T11:52:06Z</time>
      </trkpt>
      <trkpt lat="44.13755" lon="7.23456">
        <ele>2065.7</ele>
        <time>2023-02-05T11:52:07Z</time>
      </trkpt>
      <trkpt lat="44.13755" lon="7.23456">
        <ele>2065.7</ele>
        <time>2023-02-05T11:52:08Z</time>
      </trkpt>
      <trkpt lat="44.13754" lon="7.23456">
        <ele>2065.7</ele>
        <time>2023-02-05T11:52:09Z</time>
      </trkpt>
      <trkpt lat="44.13754" lon="7.23456">
        <ele>2065.8</ele>
        <time>2023-02-05T11:52:10Z</time>
      </trkpt>
      <trkpt lat="44.13754" lon="7.23456">
        <ele>2065.8</ele>
        <time>2023-02-05T11:52:11Z</time>
      </trkpt>
      <trkpt lat="44.13754" lon="7.23456">
        <ele>2065.8</ele>
        <time>2023-02-05T11:52:12Z</time>
      </trkpt>
      <trkpt lat="44.13754" lon="7.23456">
        <ele>2065.8</ele>
        <time>2023-02-05T11:52:13Z</time>
      </trkpt>
      <trkpt lat="44.13753" lon="7.23456">
        <ele>2065.8</ele>
        <time>2023-02-05T11:52:14Z</time>
      </trkpt>
      <trkpt lat="44.13753" lon="7.23455">
        <ele>2065.8</ele>
        <time>2023-02-05T11:52:15Z</time>
      </trkpt>
      <trkpt lat="44.13753" lon="7.23456">
        <ele>2065.8</ele>
        <time>2023-02-05T11:52:16Z</time>
      </trkpt>
      <trkpt lat="44.13754" lon="7.23456">
        <ele>2065.7</ele>
        <time>2023-02-05T11:52:17Z</time>
      </trkpt>
      <trkpt lat="44.13754" lon="7.23456">
        <ele>2065.7</ele>
        <time>2023-02-05T11:52:18Z</time>
      </trkpt>
      <trkpt lat="44.13754" lon="7.23457">
        <ele>2065.7</ele>
        <time>2023-02-05T11:52:19Z</time>
      </trkpt>
      <trkpt lat="44.13754" lon="7.23457">
        <ele>2065.7</ele>
        <time>2023-02-05T11:52:20Z</time>
      </trkpt>
      <trkpt lat="44.13754" lon="7.23457">
        <ele>2065.7</ele>
        <time>2023-02-05T11:52:21Z</time>
      </trkpt>
      <trkpt lat="44.13754" lon="7.23456">
        <ele>2065.8</ele>
        <time>2023-02-05T11:52:22Z</time>
      </trkpt>
      <trkpt lat="44.13754" lon="7.23456">
        <ele>2065.7</ele>
        <time>2023-02-05T11:52:23Z</time>
      </trkpt>
      <trkpt lat="44.13754" lon="7.23456">
        <ele>2065.8</ele>
        <time>2023-02-05T11:52:24Z</time>
      </trkpt>
      <trkpt lat="44.13755" lon="7.23456">
        <ele>2065.8</ele>
        <time>2023-02-05T11:52:25Z</time>
      </trkpt>
      <trkpt lat="44.13755" lon="7.23456">
        <ele>2065.8</ele>
        <time>2023-02-05T11:52:26Z</time>
      </trkpt>
      <trkpt lat="44.13755" lon="7.23456">
        <ele>2065.8</ele>
        <time>2023-02-05T11:52:27Z</time>
      </trkpt>
      <trkpt lat="44.13755" lon="7.23457">
        <ele>2065.9</ele>
        <time>2023-02-05T11:52:28Z</time>
      </trkpt>
      <trkpt lat="44.13756" lon="7.23456">
        <ele>2065.9</ele>
        <time>2023-02-05T11:52:29Z</time>
      </trkpt>
      <trkpt lat="44.13756" lon="7.23456">
        <ele>2065.9</ele>
        <time>2023-02-05T11:52:30Z</time>
      </trkpt>
      <trkpt lat="44.13756" lon="7.23456">
        <ele>2065.8</ele>
        <time>2023-02-05T11:52:31Z</time>
      </trkpt>
      <trkpt lat="44.13756" lon="7.23456">
        <ele>2065.7</ele>
        <time>2023-02-05T11:52:32Z</time>
      </trkpt>
      <trkpt lat="44.13756" lon="7.23455">
        <ele>2065.8</ele>
        <time>2023-02-05T11:52:33Z</time>
      </trkpt>
      <trkpt lat="44.13756" lon="7.23455">
        <ele>2065.8</ele>
        <time>2023-02-05T11:52:34Z</time>
      </trkpt>
      <trkpt lat="44.13757" lon="7.23455">
        <ele>2065.8</ele>
        <time>2023-02-05T11:52:35Z</time>
      </trkpt>
      <trkpt lat="44.13757" lon="7.23454">
        <ele>2065.8</ele>
        <time>2023-02-05T11:52:36Z</time>
      </trkpt>
      <trkpt lat="44.13757" lon="7.23454">
        <ele>2065.7</ele>
        <time>2023-02-05T11:52:37Z</time>
      </trkpt>
      <trkpt lat="44.13758" lon="7.23454">
        <ele>2065.7</ele>
        <time>2023-02-05T11:52:38Z</time>
      </trkpt>
      <trkpt lat="44.13758" lon="7.23453">
        <ele>2065.6</ele>
        <time>2023-02-05T11:52:39Z</time>
      </trkpt>
      <trkpt lat="44.13758" lon="7.23453">
        <ele>2065.6</ele>
        <time>2023-02-05T11:52:40Z</time>
      </trkpt>
      <trkpt lat="44.13758" lon="7.23453">
        <ele>2065.6</ele>
        <time>2023-02-05T11:52:41Z</time>
      </trkpt>
      <trkpt lat="44.13758" lon="7.23453">
        <ele>2065.6</ele>
        <time>2023-02-05T11:52:42Z</time>
      </trkpt>
      <trkpt lat="44.13759" lon="7.23453">
        <ele>2065.6</ele>
        <time>2023-02-05T11:52:43Z</time>
      </trkpt>
      <trkpt lat="44.13759" lon="7.23453">
        <ele>2065.6</ele>
        <time>2023-02-05T11:52:44Z</time>
      </trkpt>
      <trkpt lat="44.13759" lon="7.23452">
        <ele>2065.8</ele>
        <time>2023-02-05T11:52:45Z</time>
      </trkpt>
      <trkpt lat="44.13759" lon="7.23452">
        <ele>2065.8</ele>
        <time>2023-02-05T11:52:46Z</time>
      </trkpt>
      <trkpt lat="44.13759" lon="7.23452">
        <ele>2065.9</ele>
        <time>2023-02-05T11:52:47Z</time>
      </trkpt>
      <trkpt lat="44.13759" lon="7.23452">
        <ele>2066</ele>
        <time>2023-02-05T11:52:48Z</time>
      </trkpt>
      <trkpt lat="44.13759" lon="7.23451">
        <ele>2066</ele>
        <time>2023-02-05T11:52:49Z</time>
      </trkpt>
      <trkpt lat="44.13759" lon="7.23451">
        <ele>2066.1</ele>
        <time>2023-02-05T11:52:50Z</time>
      </trkpt>
      <trkpt lat="44.13759" lon="7.23451">
        <ele>2066</ele>
        <time>2023-02-05T11:52:51Z</time>
      </trkpt>
      <trkpt lat="44.13759" lon="7.2345">
        <ele>2065.9</ele>
        <time>2023-02-05T11:52:52Z</time>
      </trkpt>
      <trkpt lat="44.13759" lon="7.2345">
        <ele>2065.9</ele>
        <time>2023-02-05T11:52:53Z</time>
      </trkpt>
      <trkpt lat="44.13759" lon="7.2345">
        <ele>2065.9</ele>
        <time>2023-02-05T11:52:54Z</time>
      </trkpt>
      <trkpt lat="44.13759" lon="7.23449">
        <ele>2065.9</ele>
        <time>2023-02-05T11:52:55Z</time>
      </trkpt>
      <trkpt lat="44.13759" lon="7.23449">
        <ele>2065.9</ele>
        <time>2023-02-05T11:52:56Z</time>
      </trkpt>
      <trkpt lat="44.13758" lon="7.23448">
        <ele>2065.8</ele>
        <time>2023-02-05T11:52:57Z</time>
      </trkpt>
      <trkpt lat="44.13758" lon="7.23448">
        <ele>2065.8</ele>
        <time>2023-02-05T11:52:58Z</time>
      </trkpt>
      <trkpt lat="44.13758" lon="7.23448">
        <ele>2065.9</ele>
        <time>2023-02-05T11:52:59Z</time>
      </trkpt>
      <trkpt lat="44.13758" lon="7.23447">
        <ele>2065.9</ele>
        <time>2023-02-05T11:53:00Z</time>
      </trkpt>
      <trkpt lat="44.13758" lon="7.23447">
        <ele>2066</ele>
        <time>2023-02-05T11:53:01Z</time>
      </trkpt>
      <trkpt lat="44.13758" lon="7.23446">
        <ele>2066</ele>
        <time>2023-02-05T11:53:02Z</time>
      </trkpt>
      <trkpt lat="44.13757" lon="7.23445">
        <ele>2066.1</ele>
        <time>2023-02-05T11:53:03Z</time>
      </trkpt>
      <trkpt lat="44.13757" lon="7.23445">
        <ele>2065.9</ele>
        <time>2023-02-05T11:53:04Z</time>
      </trkpt>
      <trkpt lat="44.13757" lon="7.23444">
        <ele>2065.9</ele>
        <time>2023-02-05T11:53:05Z</time>
      </trkpt>
      <trkpt lat="44.13757" lon="7.23444">
        <ele>2065.8</ele>
        <time>2023-02-05T11:53:06Z</time>
      </trkpt>
      <trkpt lat="44.13756" lon="7.23443">
        <ele>2065.8</ele>
        <time>2023-02-05T11:53:07Z</time>
      </trkpt>
      <trkpt lat="44.13756" lon="7.23442">
        <ele>2065.8</ele>
        <time>2023-02-05T11:53:08Z</time>
      </trkpt>
      <trkpt lat="44.13756" lon="7.23442">
        <ele>2065.8</ele>
        <time>2023-02-05T11:53:09Z</time>
      </trkpt>
      <trkpt lat="44.13756" lon="7.23441">
        <ele>2065.7</ele>
        <time>2023-02-05T11:53:10Z</time>
      </trkpt>
      <trkpt lat="44.13755" lon="7.23441">
        <ele>2065.6</ele>
        <time>2023-02-05T11:53:11Z</time>
      </trkpt>
      <trkpt lat="44.13755" lon="7.2344">
        <ele>2065.6</ele>
        <time>2023-02-05T11:53:12Z</time>
      </trkpt>
      <trkpt lat="44.13755" lon="7.2344">
        <ele>2065.5</ele>
        <time>2023-02-05T11:53:13Z</time>
      </trkpt>
      <trkpt lat="44.13755" lon="7.23439">
        <ele>2065.4</ele>
        <time>2023-02-05T11:53:14Z</time>
      </trkpt>
      <trkpt lat="44.13755" lon="7.23439">
        <ele>2065.2</ele>
        <time>2023-02-05T11:53:15Z</time>
      </trkpt>
      <trkpt lat="44.13755" lon="7.23439">
        <ele>2065.3</ele>
        <time>2023-02-05T11:53:16Z</time>
      </trkpt>
      <trkpt lat="44.13755" lon="7.23439">
        <ele>2065.3</ele>
        <time>2023-02-05T11:53:17Z</time>
      </trkpt>
      <trkpt lat="44.13755" lon="7.23438">
        <ele>2065.4</ele>
        <time>2023-02-05T11:53:18Z</time>
      </trkpt>
      <trkpt lat="44.13755" lon="7.23438">
        <ele>2065.4</ele>
        <time>2023-02-05T11:53:19Z</time>
      </trkpt>
      <trkpt lat="44.13755" lon="7.23438">
        <ele>2065.4</ele>
        <time>2023-02-05T11:53:20Z</time>
      </trkpt>
      <trkpt lat="44.13755" lon="7.23437">
        <ele>2065.5</ele>
        <time>2023-02-05T11:53:21Z</time>
      </trkpt>
      <trkpt lat="44.13755" lon="7.23438">
        <ele>2065.6</ele>
        <time>2023-02-05T11:53:22Z</time>
      </trkpt>
      <trkpt lat="44.13755" lon="7.23438">
        <ele>2065.7</ele>
        <time>2023-02-05T11:53:23Z</time>
      </trkpt>
      <trkpt lat="44.13755" lon="7.23438">
        <ele>2065.7</ele>
        <time>2023-02-05T11:53:24Z</time>
      </trkpt>
      <trkpt lat="44.13755" lon="7.23438">
        <ele>2065.6</ele>
        <time>2023-02-05T11:53:25Z</time>
      </trkpt>
      <trkpt lat="44.13755" lon="7.23439">
        <ele>2065.8</ele>
        <time>2023-02-05T11:53:26Z</time>
      </trkpt>
      <trkpt lat="44.13755" lon="7.23439">
        <ele>2065.7</ele>
        <time>2023-02-05T11:53:27Z</time>
      </trkpt>
      <trkpt lat="44.13756" lon="7.23439">
        <ele>2065.7</ele>
        <time>2023-02-05T11:53:28Z</time>
      </trkpt>
      <trkpt lat="44.13756" lon="7.23439">
        <ele>2065.7</ele>
        <time>2023-02-05T11:53:29Z</time>
      </trkpt>
      <trkpt lat="44.13756" lon="7.2344">
        <ele>2065.8</ele>
        <time>2023-02-05T11:53:30Z</time>
      </trkpt>
      <trkpt lat="44.13756" lon="7.2344">
        <ele>2065.9</ele>
        <time>2023-02-05T11:53:31Z</time>
      </trkpt>
      <trkpt lat="44.13756" lon="7.2344">
        <ele>2065.9</ele>
        <time>2023-02-05T11:53:32Z</time>
      </trkpt>
      <trkpt lat="44.13756" lon="7.2344">
        <ele>2066</ele>
        <time>2023-02-05T11:53:33Z</time>
      </trkpt>
      <trkpt lat="44.13757" lon="7.2344">
        <ele>2066</ele>
        <time>2023-02-05T11:53:34Z</time>
      </trkpt>
      <trkpt lat="44.13757" lon="7.2344">
        <ele>2066</ele>
        <time>2023-02-05T11:53:35Z</time>
      </trkpt>
      <trkpt lat="44.13757" lon="7.2344">
        <ele>2066</ele>
        <time>2023-02-05T11:53:36Z</time>
      </trkpt>
      <trkpt lat="44.13757" lon="7.23441">
        <ele>2066.1</ele>
        <time>2023-02-05T11:53:37Z</time>
      </trkpt>
      <trkpt lat="44.13757" lon="7.23441">
        <ele>2066.1</ele>
        <time>2023-02-05T11:53:38Z</time>
      </trkpt>
      <trkpt lat="44.13758" lon="7.23441">
        <ele>2066</ele>
        <time>2023-02-05T11:53:39Z</time>
      </trkpt>
      <trkpt lat="44.13758" lon="7.23441">
        <ele>2066</ele>
        <time>2023-02-05T11:53:40Z</time>
      </trkpt>
      <trkpt lat="44.13758" lon="7.23441">
        <ele>2066</ele>
        <time>2023-02-05T11:53:41Z</time>
      </trkpt>
      <trkpt lat="44.13758" lon="7.23441">
        <ele>2066</ele>
        <time>2023-02-05T11:53:42Z</time>
      </trkpt>
      <trkpt lat="44.13758" lon="7.23441">
        <ele>2065.9</ele>
        <time>2023-02-05T11:53:43Z</time>
      </trkpt>
      <trkpt lat="44.13758" lon="7.23441">
        <ele>2065.9</ele>
        <time>2023-02-05T11:53:44Z</time>
      </trkpt>
      <trkpt lat="44.13758" lon="7.23441">
        <ele>2065.8</ele>
        <time>2023-02-05T11:53:45Z</time>
      </trkpt>
      <trkpt lat="44.13758" lon="7.23441">
        <ele>2065.8</ele>
        <time>2023-02-05T11:53:46Z</time>
      </trkpt>
      <trkpt lat="44.13758" lon="7.23441">
        <ele>2065.9</ele>
        <time>2023-02-05T11:53:47Z</time>
      </trkpt>
      <trkpt lat="44.13758" lon="7.23441">
        <ele>2066</ele>
        <time>2023-02-05T11:53:48Z</time>
      </trkpt>
      <trkpt lat="44.13758" lon="7.23441">
        <ele>2066</ele>
        <time>2023-02-05T11:53:49Z</time>
      </trkpt>
      <trkpt lat="44.13758" lon="7.23441">
        <ele>2066</ele>
        <time>2023-02-05T11:53:50Z</time>
      </trkpt>
      <trkpt lat="44.13758" lon="7.23441">
        <ele>2065.9</ele>
        <time>2023-02-05T11:53:51Z</time>
      </trkpt>
      <trkpt lat="44.13758" lon="7.2344">
        <ele>2065.9</ele>
        <time>2023-02-05T11:53:52Z</time>
      </trkpt>
      <trkpt lat="44.13758" lon="7.2344">
        <ele>2065.9</ele>
        <time>2023-02-05T11:53:53Z</time>
      </trkpt>
      <trkpt lat="44.13758" lon="7.2344">
        <ele>2065.8</ele>
        <time>2023-02-05T11:53:54Z</time>
      </trkpt>
      <trkpt lat="44.13758" lon="7.2344">
        <ele>2065.8</ele>
        <time>2023-02-05T11:53:55Z</time>
      </trkpt>
      <trkpt lat="44.13758" lon="7.23441">
        <ele>2065.8</ele>
        <time>2023-02-05T11:53:56Z</time>
      </trkpt>
      <trkpt lat="44.13758" lon="7.23441">
        <ele>2065.8</ele>
        <time>2023-02-05T11:53:57Z</time>
      </trkpt>
      <trkpt lat="44.13758" lon="7.23441">
        <ele>2065.9</ele>
        <time>2023-02-05T11:53:58Z</time>
      </trkpt>
      <trkpt lat="44.13758" lon="7.23441">
        <ele>2066</ele>
        <time>2023-02-05T11:53:59Z</time>
      </trkpt>
      <trkpt lat="44.13758" lon="7.23441">
        <ele>2066.1</ele>
        <time>2023-02-05T11:54:00Z</time>
      </trkpt>
      <trkpt lat="44.13757" lon="7.23441">
        <ele>2066.1</ele>
        <time>2023-02-05T11:54:01Z</time>
      </trkpt>
      <trkpt lat="44.13757" lon="7.23441">
        <ele>2066</ele>
        <time>2023-02-05T11:54:02Z</time>
      </trkpt>
      <trkpt lat="44.13757" lon="7.23441">
        <ele>2065.9</ele>
        <time>2023-02-05T11:54:03Z</time>
      </trkpt>
      <trkpt lat="44.13757" lon="7.23441">
        <ele>2065.9</ele>
        <time>2023-02-05T11:54:04Z</time>
      </trkpt>
      <trkpt lat="44.13757" lon="7.23441">
        <ele>2065.9</ele>
        <time>2023-02-05T11:54:05Z</time>
      </trkpt>
      <trkpt lat="44.13757" lon="7.23441">
        <ele>2065.9</ele>
        <time>2023-02-05T11:54:06Z</time>
      </trkpt>
      <trkpt lat="44.13757" lon="7.23441">
        <ele>2065.8</ele>
        <time>2023-02-05T11:54:07Z</time>
      </trkpt>
      <trkpt lat="44.13757" lon="7.23441">
        <ele>2065.8</ele>
        <time>2023-02-05T11:54:08Z</time>
      </trkpt>
      <trkpt lat="44.13757" lon="7.23441">
        <ele>2065.8</ele>
        <time>2023-02-05T11:54:09Z</time>
      </trkpt>
      <trkpt lat="44.13757" lon="7.23441">
        <ele>2065.6</ele>
        <time>2023-02-05T11:54:10Z</time>
      </trkpt>
      <trkpt lat="44.13758" lon="7.23442">
        <ele>2065.7</ele>
        <time>2023-02-05T11:54:11Z</time>
      </trkpt>
      <trkpt lat="44.13758" lon="7.23442">
        <ele>2065.8</ele>
        <time>2023-02-05T11:54:12Z</time>
      </trkpt>
      <trkpt lat="44.13758" lon="7.23442">
        <ele>2065.8</ele>
        <time>2023-02-05T11:54:13Z</time>
      </trkpt>
      <trkpt lat="44.13758" lon="7.23442">
        <ele>2065.8</ele>
        <time>2023-02-05T11:54:14Z</time>
      </trkpt>
      <trkpt lat="44.13758" lon="7.23441">
        <ele>2065.8</ele>
        <time>2023-02-05T11:54:15Z</time>
      </trkpt>
      <trkpt lat="44.13758" lon="7.23441">
        <ele>2065.9</ele>
        <time>2023-02-05T11:54:16Z</time>
      </trkpt>
      <trkpt lat="44.13758" lon="7.23441">
        <ele>2065.9</ele>
        <time>2023-02-05T11:54:17Z</time>
      </trkpt>
      <trkpt lat="44.13758" lon="7.23441">
        <ele>2065.9</ele>
        <time>2023-02-05T11:54:18Z</time>
      </trkpt>
      <trkpt lat="44.13758" lon="7.23441">
        <ele>2065.9</ele>
        <time>2023-02-05T11:54:19Z</time>
      </trkpt>
      <trkpt lat="44.13758" lon="7.23441">
        <ele>2065.8</ele>
        <time>2023-02-05T11:54:20Z</time>
      </trkpt>
      <trkpt lat="44.13758" lon="7.23441">
        <ele>2065.8</ele>
        <time>2023-02-05T11:54:21Z</time>
      </trkpt>
      <trkpt lat="44.13758" lon="7.23441">
        <ele>2065.8</ele>
        <time>2023-02-05T11:54:22Z</time>
      </trkpt>
      <trkpt lat="44.13758" lon="7.2344">
        <ele>2065.8</ele>
        <time>2023-02-05T11:54:23Z</time>
      </trkpt>
      <trkpt lat="44.13758" lon="7.2344">
        <ele>2065.9</ele>
        <time>2023-02-05T11:54:24Z</time>
      </trkpt>
      <trkpt lat="44.13758" lon="7.2344">
        <ele>2065.9</ele>
        <time>2023-02-05T11:54:25Z</time>
      </trkpt>
      <trkpt lat="44.13758" lon="7.2344">
        <ele>2066</ele>
        <time>2023-02-05T11:54:26Z</time>
      </trkpt>
      <trkpt lat="44.13758" lon="7.2344">
        <ele>2066.1</ele>
        <time>2023-02-05T11:54:27Z</time>
      </trkpt>
      <trkpt lat="44.13758" lon="7.2344">
        <ele>2066.1</ele>
        <time>2023-02-05T11:54:28Z</time>
      </trkpt>
      <trkpt lat="44.13758" lon="7.2344">
        <ele>2066.1</ele>
        <time>2023-02-05T11:54:29Z</time>
      </trkpt>
      <trkpt lat="44.13758" lon="7.2344">
        <ele>2066.1</ele>
        <time>2023-02-05T11:54:30Z</time>
      </trkpt>
      <trkpt lat="44.13758" lon="7.2344">
        <ele>2066.2</ele>
        <time>2023-02-05T11:54:31Z</time>
      </trkpt>
      <trkpt lat="44.13758" lon="7.2344">
        <ele>2066.2</ele>
        <time>2023-02-05T11:54:32Z</time>
      </trkpt>
      <trkpt lat="44.13758" lon="7.2344">
        <ele>2066.1</ele>
        <time>2023-02-05T11:54:33Z</time>
      </trkpt>
      <trkpt lat="44.13758" lon="7.2344">
        <ele>2066</ele>
        <time>2023-02-05T11:54:34Z</time>
      </trkpt>
      <trkpt lat="44.13758" lon="7.2344">
        <ele>2066</ele>
        <time>2023-02-05T11:54:35Z</time>
      </trkpt>
      <trkpt lat="44.13758" lon="7.2344">
        <ele>2066</ele>
        <time>2023-02-05T11:54:36Z</time>
      </trkpt>
      <trkpt lat="44.13757" lon="7.23441">
        <ele>2065.9</ele>
        <time>2023-02-05T11:54:37Z</time>
      </trkpt>
      <trkpt lat="44.13757" lon="7.23441">
        <ele>2066</ele>
        <time>2023-02-05T11:54:38Z</time>
      </trkpt>
      <trkpt lat="44.13757" lon="7.23441">
        <ele>2066</ele>
        <time>2023-02-05T11:54:39Z</time>
      </trkpt>
      <trkpt lat="44.13757" lon="7.23442">
        <ele>2066</ele>
        <time>2023-02-05T11:54:40Z</time>
      </trkpt>
      <trkpt lat="44.13757" lon="7.23442">
        <ele>2066</ele>
        <time>2023-02-05T11:54:41Z</time>
      </trkpt>
      <trkpt lat="44.13757" lon="7.23442">
        <ele>2066</ele>
        <time>2023-02-05T11:54:42Z</time>
      </trkpt>
      <trkpt lat="44.13757" lon="7.23442">
        <ele>2066.1</ele>
        <time>2023-02-05T11:54:43Z</time>
      </trkpt>
      <trkpt lat="44.13757" lon="7.23442">
        <ele>2066.1</ele>
        <time>2023-02-05T11:54:44Z</time>
      </trkpt>
      <trkpt lat="44.13757" lon="7.23442">
        <ele>2066.1</ele>
        <time>2023-02-05T11:54:45Z</time>
      </trkpt>
      <trkpt lat="44.13757" lon="7.23442">
        <ele>2066.1</ele>
        <time>2023-02-05T11:54:46Z</time>
      </trkpt>
      <trkpt lat="44.13757" lon="7.23442">
        <ele>2066</ele>
        <time>2023-02-05T11:54:47Z</time>
      </trkpt>
      <trkpt lat="44.13757" lon="7.23442">
        <ele>2066</ele>
        <time>2023-02-05T11:54:48Z</time>
      </trkpt>
      <trkpt lat="44.13757" lon="7.23442">
        <ele>2066</ele>
        <time>2023-02-05T11:54:49Z</time>
      </trkpt>
      <trkpt lat="44.13757" lon="7.23442">
        <ele>2066.1</ele>
        <time>2023-02-05T11:54:50Z</time>
      </trkpt>
      <trkpt lat="44.13757" lon="7.23442">
        <ele>2066.1</ele>
        <time>2023-02-05T11:54:51Z</time>
      </trkpt>
      <trkpt lat="44.13757" lon="7.23442">
        <ele>2066.1</ele>
        <time>2023-02-05T11:54:52Z</time>
      </trkpt>
      <trkpt lat="44.13757" lon="7.23442">
        <ele>2066.1</ele>
        <time>2023-02-05T11:54:53Z</time>
      </trkpt>
      <trkpt lat="44.13757" lon="7.23442">
        <ele>2066.1</ele>
        <time>2023-02-05T11:54:54Z</time>
      </trkpt>
      <trkpt lat="44.13758" lon="7.23443">
        <ele>2066</ele>
        <time>2023-02-05T11:54:55Z</time>
      </trkpt>
      <trkpt lat="44.13757" lon="7.23442">
        <ele>2066</ele>
        <time>2023-02-05T11:54:56Z</time>
      </trkpt>
      <trkpt lat="44.13757" lon="7.23443">
        <ele>2066.1</ele>
        <time>2023-02-05T11:54:57Z</time>
      </trkpt>
      <trkpt lat="44.13757" lon="7.23443">
        <ele>2066.1</ele>
        <time>2023-02-05T11:54:58Z</time>
      </trkpt>
      <trkpt lat="44.13757" lon="7.23443">
        <ele>2066.1</ele>
        <time>2023-02-05T11:54:59Z</time>
      </trkpt>
      <trkpt lat="44.13758" lon="7.23444">
        <ele>2066.1</ele>
        <time>2023-02-05T11:55:00Z</time>
      </trkpt>
      <trkpt lat="44.13758" lon="7.23444">
        <ele>2066.2</ele>
        <time>2023-02-05T11:55:01Z</time>
      </trkpt>
      <trkpt lat="44.13758" lon="7.23444">
        <ele>2066.3</ele>
        <time>2023-02-05T11:55:02Z</time>
      </trkpt>
      <trkpt lat="44.13758" lon="7.23444">
        <ele>2066.3</ele>
        <time>2023-02-05T11:55:03Z</time>
      </trkpt>
      <trkpt lat="44.13757" lon="7.23444">
        <ele>2066.3</ele>
        <time>2023-02-05T11:55:04Z</time>
      </trkpt>
      <trkpt lat="44.13758" lon="7.23444">
        <ele>2066.4</ele>
        <time>2023-02-05T11:55:05Z</time>
      </trkpt>
      <trkpt lat="44.13757" lon="7.23445">
        <ele>2066.3</ele>
        <time>2023-02-05T11:55:06Z</time>
      </trkpt>
      <trkpt lat="44.13757" lon="7.23445">
        <ele>2066.4</ele>
        <time>2023-02-05T11:55:07Z</time>
      </trkpt>
      <trkpt lat="44.13757" lon="7.23445">
        <ele>2066.4</ele>
        <time>2023-02-05T11:55:08Z</time>
      </trkpt>
      <trkpt lat="44.13757" lon="7.23445">
        <ele>2066.5</ele>
        <time>2023-02-05T11:55:09Z</time>
      </trkpt>
      <trkpt lat="44.13757" lon="7.23445">
        <ele>2066.5</ele>
        <time>2023-02-05T11:55:10Z</time>
      </trkpt>
      <trkpt lat="44.13757" lon="7.23445">
        <ele>2066.5</ele>
        <time>2023-02-05T11:55:11Z</time>
      </trkpt>
      <trkpt lat="44.13757" lon="7.23445">
        <ele>2066.4</ele>
        <time>2023-02-05T11:55:12Z</time>
      </trkpt>
      <trkpt lat="44.13757" lon="7.23446">
        <ele>2066.3</ele>
        <time>2023-02-05T11:55:13Z</time>
      </trkpt>
      <trkpt lat="44.13757" lon="7.23445">
        <ele>2066.4</ele>
        <time>2023-02-05T11:55:14Z</time>
      </trkpt>
      <trkpt lat="44.13758" lon="7.23445">
        <ele>2066.4</ele>
        <time>2023-02-05T11:55:15Z</time>
      </trkpt>
      <trkpt lat="44.13758" lon="7.23445">
        <ele>2066.4</ele>
        <time>2023-02-05T11:55:16Z</time>
      </trkpt>
      <trkpt lat="44.13757" lon="7.23446">
        <ele>2066.4</ele>
        <time>2023-02-05T11:55:17Z</time>
      </trkpt>
      <trkpt lat="44.13757" lon="7.23446">
        <ele>2066.4</ele>
        <time>2023-02-05T11:55:18Z</time>
      </trkpt>
      <trkpt lat="44.13756" lon="7.23446">
        <ele>2066.3</ele>
        <time>2023-02-05T11:55:19Z</time>
      </trkpt>
      <trkpt lat="44.13756" lon="7.23446">
        <ele>2066.3</ele>
        <time>2023-02-05T11:55:20Z</time>
      </trkpt>
      <trkpt lat="44.13757" lon="7.23446">
        <ele>2066.2</ele>
        <time>2023-02-05T11:55:21Z</time>
      </trkpt>
      <trkpt lat="44.13757" lon="7.23446">
        <ele>2066.2</ele>
        <time>2023-02-05T11:55:22Z</time>
      </trkpt>
      <trkpt lat="44.13757" lon="7.23447">
        <ele>2066.2</ele>
        <time>2023-02-05T11:55:23Z</time>
      </trkpt>
      <trkpt lat="44.13757" lon="7.23447">
        <ele>2066.2</ele>
        <time>2023-02-05T11:55:24Z</time>
      </trkpt>
      <trkpt lat="44.13757" lon="7.23447">
        <ele>2066.1</ele>
        <time>2023-02-05T11:55:25Z</time>
      </trkpt>
      <trkpt lat="44.13758" lon="7.23447">
        <ele>2066.2</ele>
        <time>2023-02-05T11:55:26Z</time>
      </trkpt>
      <trkpt lat="44.13757" lon="7.23448">
        <ele>2066.2</ele>
        <time>2023-02-05T11:55:27Z</time>
      </trkpt>
      <trkpt lat="44.13758" lon="7.23448">
        <ele>2066.1</ele>
        <time>2023-02-05T11:55:28Z</time>
      </trkpt>
      <trkpt lat="44.13757" lon="7.23448">
        <ele>2066.1</ele>
        <time>2023-02-05T11:55:29Z</time>
      </trkpt>
      <trkpt lat="44.13757" lon="7.23449">
        <ele>2066.1</ele>
        <time>2023-02-05T11:55:30Z</time>
      </trkpt>
      <trkpt lat="44.13757" lon="7.23449">
        <ele>2066.1</ele>
        <time>2023-02-05T11:55:31Z</time>
      </trkpt>
      <trkpt lat="44.13757" lon="7.23449">
        <ele>2066.2</ele>
        <time>2023-02-05T11:55:32Z</time>
      </trkpt>
      <trkpt lat="44.13756" lon="7.23449">
        <ele>2066.1</ele>
        <time>2023-02-05T11:55:33Z</time>
      </trkpt>
      <trkpt lat="44.13756" lon="7.23449">
        <ele>2066.1</ele>
        <time>2023-02-05T11:55:34Z</time>
      </trkpt>
      <trkpt lat="44.13756" lon="7.2345">
        <ele>2066.1</ele>
        <time>2023-02-05T11:55:35Z</time>
      </trkpt>
      <trkpt lat="44.13755" lon="7.2345">
        <ele>2066.1</ele>
        <time>2023-02-05T11:55:36Z</time>
      </trkpt>
      <trkpt lat="44.13755" lon="7.2345">
        <ele>2066.1</ele>
        <time>2023-02-05T11:55:37Z</time>
      </trkpt>
      <trkpt lat="44.13756" lon="7.2345">
        <ele>2066.1</ele>
        <time>2023-02-05T11:55:38Z</time>
      </trkpt>
      <trkpt lat="44.13755" lon="7.2345">
        <ele>2066.1</ele>
        <time>2023-02-05T11:55:39Z</time>
      </trkpt>
      <trkpt lat="44.13755" lon="7.2345">
        <ele>2066.1</ele>
        <time>2023-02-05T11:55:40Z</time>
      </trkpt>
      <trkpt lat="44.13755" lon="7.2345">
        <ele>2066</ele>
        <time>2023-02-05T11:55:41Z</time>
      </trkpt>
      <trkpt lat="44.13756" lon="7.2345">
        <ele>2066.1</ele>
        <time>2023-02-05T11:55:42Z</time>
      </trkpt>
      <trkpt lat="44.13756" lon="7.23449">
        <ele>2066.1</ele>
        <time>2023-02-05T11:55:43Z</time>
      </trkpt>
      <trkpt lat="44.13756" lon="7.23449">
        <ele>2066.2</ele>
        <time>2023-02-05T11:55:44Z</time>
      </trkpt>
      <trkpt lat="44.13756" lon="7.23449">
        <ele>2066.2</ele>
        <time>2023-02-05T11:55:45Z</time>
      </trkpt>
      <trkpt lat="44.13756" lon="7.23449">
        <ele>2066.2</ele>
        <time>2023-02-05T11:55:46Z</time>
      </trkpt>
      <trkpt lat="44.13756" lon="7.23448">
        <ele>2066.2</ele>
        <time>2023-02-05T11:55:47Z</time>
      </trkpt>
      <trkpt lat="44.13756" lon="7.23448">
        <ele>2066.3</ele>
        <time>2023-02-05T11:55:48Z</time>
      </trkpt>
      <trkpt lat="44.13756" lon="7.23448">
        <ele>2066.3</ele>
        <time>2023-02-05T11:55:49Z</time>
      </trkpt>
      <trkpt lat="44.13756" lon="7.23447">
        <ele>2066.5</ele>
        <time>2023-02-05T11:55:50Z</time>
      </trkpt>
      <trkpt lat="44.13756" lon="7.23447">
        <ele>2066.5</ele>
        <time>2023-02-05T11:55:51Z</time>
      </trkpt>
      <trkpt lat="44.13756" lon="7.23446">
        <ele>2066.5</ele>
        <time>2023-02-05T11:55:52Z</time>
      </trkpt>
      <trkpt lat="44.13756" lon="7.23446">
        <ele>2066.5</ele>
        <time>2023-02-05T11:55:53Z</time>
      </trkpt>
      <trkpt lat="44.13756" lon="7.23446">
        <ele>2066.5</ele>
        <time>2023-02-05T11:55:54Z</time>
      </trkpt>
      <trkpt lat="44.13756" lon="7.23446">
        <ele>2066.5</ele>
        <time>2023-02-05T11:55:55Z</time>
      </trkpt>
      <trkpt lat="44.13756" lon="7.23446">
        <ele>2066.5</ele>
        <time>2023-02-05T11:55:56Z</time>
      </trkpt>
      <trkpt lat="44.13756" lon="7.23446">
        <ele>2066.4</ele>
        <time>2023-02-05T11:55:57Z</time>
      </trkpt>
      <trkpt lat="44.13756" lon="7.23446">
        <ele>2066.4</ele>
        <time>2023-02-05T11:55:58Z</time>
      </trkpt>
      <trkpt lat="44.13756" lon="7.23446">
        <ele>2066.3</ele>
        <time>2023-02-05T11:55:59Z</time>
      </trkpt>
      <trkpt lat="44.13756" lon="7.23446">
        <ele>2066.2</ele>
        <time>2023-02-05T11:56:00Z</time>
      </trkpt>
      <trkpt lat="44.13756" lon="7.23446">
        <ele>2066.1</ele>
        <time>2023-02-05T11:56:01Z</time>
      </trkpt>
      <trkpt lat="44.13756" lon="7.23446">
        <ele>2066.1</ele>
        <time>2023-02-05T11:56:02Z</time>
      </trkpt>
      <trkpt lat="44.13756" lon="7.23446">
        <ele>2066.1</ele>
        <time>2023-02-05T11:56:03Z</time>
      </trkpt>
      <trkpt lat="44.13757" lon="7.23447">
        <ele>2066.1</ele>
        <time>2023-02-05T11:56:04Z</time>
      </trkpt>
      <trkpt lat="44.13757" lon="7.23447">
        <ele>2066.2</ele>
        <time>2023-02-05T11:56:05Z</time>
      </trkpt>
      <trkpt lat="44.13757" lon="7.23447">
        <ele>2066.1</ele>
        <time>2023-02-05T11:56:06Z</time>
      </trkpt>
      <trkpt lat="44.13757" lon="7.23447">
        <ele>2066.1</ele>
        <time>2023-02-05T11:56:07Z</time>
      </trkpt>
      <trkpt lat="44.13757" lon="7.23447">
        <ele>2066.1</ele>
        <time>2023-02-05T11:56:08Z</time>
      </trkpt>
      <trkpt lat="44.13757" lon="7.23448">
        <ele>2066.1</ele>
        <time>2023-02-05T11:56:09Z</time>
      </trkpt>
      <trkpt lat="44.13757" lon="7.23448">
        <ele>2066.2</ele>
        <time>2023-02-05T11:56:10Z</time>
      </trkpt>
      <trkpt lat="44.13757" lon="7.23448">
        <ele>2066.2</ele>
        <time>2023-02-05T11:56:11Z</time>
      </trkpt>
      <trkpt lat="44.13757" lon="7.23448">
        <ele>2066.3</ele>
        <time>2023-02-05T11:56:12Z</time>
      </trkpt>
      <trkpt lat="44.13757" lon="7.23448">
        <ele>2066.2</ele>
        <time>2023-02-05T11:56:13Z</time>
      </trkpt>
      <trkpt lat="44.13757" lon="7.23448">
        <ele>2066.3</ele>
        <time>2023-02-05T11:56:14Z</time>
      </trkpt>
      <trkpt lat="44.13757" lon="7.23448">
        <ele>2066.4</ele>
        <time>2023-02-05T11:56:15Z</time>
      </trkpt>
      <trkpt lat="44.13757" lon="7.23448">
        <ele>2066.4</ele>
        <time>2023-02-05T11:56:16Z</time>
      </trkpt>
      <trkpt lat="44.13757" lon="7.23448">
        <ele>2066.4</ele>
        <time>2023-02-05T11:56:17Z</time>
      </trkpt>
      <trkpt lat="44.13757" lon="7.23449">
        <ele>2066.4</ele>
        <time>2023-02-05T11:56:18Z</time>
      </trkpt>
      <trkpt lat="44.13757" lon="7.23449">
        <ele>2066.4</ele>
        <time>2023-02-05T11:56:19Z</time>
      </trkpt>
      <trkpt lat="44.13757" lon="7.23449">
        <ele>2066.3</ele>
        <time>2023-02-05T11:56:20Z</time>
      </trkpt>
      <trkpt lat="44.13757" lon="7.23449">
        <ele>2066.3</ele>
        <time>2023-02-05T11:56:21Z</time>
      </trkpt>
      <trkpt lat="44.13757" lon="7.23449">
        <ele>2066.3</ele>
        <time>2023-02-05T11:56:22Z</time>
      </trkpt>
      <trkpt lat="44.13757" lon="7.23449">
        <ele>2066.3</ele>
        <time>2023-02-05T11:56:23Z</time>
      </trkpt>
      <trkpt lat="44.13757" lon="7.23449">
        <ele>2066.3</ele>
        <time>2023-02-05T11:56:24Z</time>
      </trkpt>
      <trkpt lat="44.13757" lon="7.23449">
        <ele>2066.4</ele>
        <time>2023-02-05T11:56:25Z</time>
      </trkpt>
      <trkpt lat="44.13757" lon="7.23449">
        <ele>2066.4</ele>
        <time>2023-02-05T11:56:26Z</time>
      </trkpt>
      <trkpt lat="44.13757" lon="7.23449">
        <ele>2066.5</ele>
        <time>2023-02-05T11:56:27Z</time>
      </trkpt>
      <trkpt lat="44.13757" lon="7.23448">
        <ele>2066.5</ele>
        <time>2023-02-05T11:56:28Z</time>
      </trkpt>
      <trkpt lat="44.13757" lon="7.23448">
        <ele>2066.5</ele>
        <time>2023-02-05T11:56:29Z</time>
      </trkpt>
      <trkpt lat="44.13757" lon="7.23448">
        <ele>2066.5</ele>
        <time>2023-02-05T11:56:30Z</time>
      </trkpt>
      <trkpt lat="44.13757" lon="7.23448">
        <ele>2066.5</ele>
        <time>2023-02-05T11:56:31Z</time>
      </trkpt>
      <trkpt lat="44.13757" lon="7.23448">
        <ele>2066.5</ele>
        <time>2023-02-05T11:56:32Z</time>
      </trkpt>
      <trkpt lat="44.13757" lon="7.23448">
        <ele>2066.5</ele>
        <time>2023-02-05T11:56:33Z</time>
      </trkpt>
      <trkpt lat="44.13758" lon="7.23448">
        <ele>2066.4</ele>
        <time>2023-02-05T11:56:34Z</time>
      </trkpt>
      <trkpt lat="44.13758" lon="7.23448">
        <ele>2066.4</ele>
        <time>2023-02-05T11:56:35Z</time>
      </trkpt>
      <trkpt lat="44.13757" lon="7.23447">
        <ele>2066.3</ele>
        <time>2023-02-05T11:56:36Z</time>
      </trkpt>
      <trkpt lat="44.13757" lon="7.23447">
        <ele>2066.3</ele>
        <time>2023-02-05T11:56:37Z</time>
      </trkpt>
      <trkpt lat="44.13757" lon="7.23447">
        <ele>2066.2</ele>
        <time>2023-02-05T11:56:38Z</time>
      </trkpt>
      <trkpt lat="44.13757" lon="7.23447">
        <ele>2066.1</ele>
        <time>2023-02-05T11:56:39Z</time>
      </trkpt>
      <trkpt lat="44.13757" lon="7.23447">
        <ele>2066.1</ele>
        <time>2023-02-05T11:56:40Z</time>
      </trkpt>
      <trkpt lat="44.13757" lon="7.23447">
        <ele>2066.2</ele>
        <time>2023-02-05T11:56:41Z</time>
      </trkpt>
      <trkpt lat="44.13757" lon="7.23447">
        <ele>2066.2</ele>
        <time>2023-02-05T11:56:42Z</time>
      </trkpt>
      <trkpt lat="44.13757" lon="7.23447">
        <ele>2066.1</ele>
        <time>2023-02-05T11:56:43Z</time>
      </trkpt>
      <trkpt lat="44.13757" lon="7.23447">
        <ele>2066.1</ele>
        <time>2023-02-05T11:56:44Z</time>
      </trkpt>
      <trkpt lat="44.13758" lon="7.23447">
        <ele>2066.1</ele>
        <time>2023-02-05T11:56:45Z</time>
      </trkpt>
      <trkpt lat="44.13758" lon="7.23447">
        <ele>2066.1</ele>
        <time>2023-02-05T11:56:46Z</time>
      </trkpt>
      <trkpt lat="44.13759" lon="7.23448">
        <ele>2066.1</ele>
        <time>2023-02-05T11:56:47Z</time>
      </trkpt>
      <trkpt lat="44.13758" lon="7.23448">
        <ele>2066.1</ele>
        <time>2023-02-05T11:56:48Z</time>
      </trkpt>
      <trkpt lat="44.13758" lon="7.23448">
        <ele>2066.2</ele>
        <time>2023-02-05T11:56:49Z</time>
      </trkpt>
      <trkpt lat="44.13758" lon="7.23448">
        <ele>2066.2</ele>
        <time>2023-02-05T11:56:50Z</time>
      </trkpt>
      <trkpt lat="44.13758" lon="7.23448">
        <ele>2066.3</ele>
        <time>2023-02-05T11:56:51Z</time>
      </trkpt>
      <trkpt lat="44.13757" lon="7.23448">
        <ele>2066.3</ele>
        <time>2023-02-05T11:56:52Z</time>
      </trkpt>
      <trkpt lat="44.13758" lon="7.23448">
        <ele>2066.3</ele>
        <time>2023-02-05T11:56:53Z</time>
      </trkpt>
      <trkpt lat="44.13758" lon="7.23448">
        <ele>2066.2</ele>
        <time>2023-02-05T11:56:54Z</time>
      </trkpt>
      <trkpt lat="44.13758" lon="7.23448">
        <ele>2066.2</ele>
        <time>2023-02-05T11:56:55Z</time>
      </trkpt>
      <trkpt lat="44.13758" lon="7.23448">
        <ele>2066.2</ele>
        <time>2023-02-05T11:56:56Z</time>
      </trkpt>
      <trkpt lat="44.13758" lon="7.23448">
        <ele>2066.1</ele>
        <time>2023-02-05T11:56:57Z</time>
      </trkpt>
      <trkpt lat="44.13758" lon="7.23448">
        <ele>2066</ele>
        <time>2023-02-05T11:56:58Z</time>
      </trkpt>
      <trkpt lat="44.13758" lon="7.23448">
        <ele>2066.1</ele>
        <time>2023-02-05T11:56:59Z</time>
      </trkpt>
      <trkpt lat="44.13759" lon="7.23449">
        <ele>2066.2</ele>
        <time>2023-02-05T11:57:00Z</time>
      </trkpt>
      <trkpt lat="44.13759" lon="7.23449">
        <ele>2066.3</ele>
        <time>2023-02-05T11:57:01Z</time>
      </trkpt>
      <trkpt lat="44.13759" lon="7.23449">
        <ele>2066.4</ele>
        <time>2023-02-05T11:57:02Z</time>
      </trkpt>
      <trkpt lat="44.13759" lon="7.23449">
        <ele>2066.4</ele>
        <time>2023-02-05T11:57:03Z</time>
      </trkpt>
      <trkpt lat="44.13759" lon="7.23449">
        <ele>2066.5</ele>
        <time>2023-02-05T11:57:04Z</time>
      </trkpt>
      <trkpt lat="44.1376" lon="7.23449">
        <ele>2066.5</ele>
        <time>2023-02-05T11:57:05Z</time>
      </trkpt>
      <trkpt lat="44.13759" lon="7.23449">
        <ele>2066.5</ele>
        <time>2023-02-05T11:57:06Z</time>
      </trkpt>
      <trkpt lat="44.13759" lon="7.23449">
        <ele>2066.5</ele>
        <time>2023-02-05T11:57:07Z</time>
      </trkpt>
      <trkpt lat="44.1376" lon="7.23449">
        <ele>2066.5</ele>
        <time>2023-02-05T11:57:08Z</time>
      </trkpt>
      <trkpt lat="44.1376" lon="7.23449">
        <ele>2066.5</ele>
        <time>2023-02-05T11:57:09Z</time>
      </trkpt>
      <trkpt lat="44.1376" lon="7.23449">
        <ele>2066.4</ele>
        <time>2023-02-05T11:57:10Z</time>
      </trkpt>
      <trkpt lat="44.13761" lon="7.23448">
        <ele>2066.3</ele>
        <time>2023-02-05T11:57:11Z</time>
      </trkpt>
      <trkpt lat="44.13761" lon="7.23448">
        <ele>2066.3</ele>
        <time>2023-02-05T11:57:12Z</time>
      </trkpt>
      <trkpt lat="44.13761" lon="7.23448">
        <ele>2066.3</ele>
        <time>2023-02-05T11:57:13Z</time>
      </trkpt>
      <trkpt lat="44.13761" lon="7.23448">
        <ele>2066.4</ele>
        <time>2023-02-05T11:57:14Z</time>
      </trkpt>
      <trkpt lat="44.13762" lon="7.23448">
        <ele>2066.3</ele>
        <time>2023-02-05T11:57:15Z</time>
      </trkpt>
      <trkpt lat="44.13762" lon="7.23448">
        <ele>2066.2</ele>
        <time>2023-02-05T11:57:16Z</time>
      </trkpt>
      <trkpt lat="44.13763" lon="7.23448">
        <ele>2066.2</ele>
        <time>2023-02-05T11:57:17Z</time>
      </trkpt>
      <trkpt lat="44.13764" lon="7.23448">
        <ele>2066.1</ele>
        <time>2023-02-05T11:57:18Z</time>
      </trkpt>
      <trkpt lat="44.13764" lon="7.23447">
        <ele>2066.1</ele>
        <time>2023-02-05T11:57:19Z</time>
      </trkpt>
      <trkpt lat="44.13764" lon="7.23447">
        <ele>2066.2</ele>
        <time>2023-02-05T11:57:20Z</time>
      </trkpt>
      <trkpt lat="44.13764" lon="7.23447">
        <ele>2066.2</ele>
        <time>2023-02-05T11:57:21Z</time>
      </trkpt>
      <trkpt lat="44.13764" lon="7.23447">
        <ele>2066.2</ele>
        <time>2023-02-05T11:57:22Z</time>
      </trkpt>
      <trkpt lat="44.13764" lon="7.23447">
        <ele>2066.2</ele>
        <time>2023-02-05T11:57:23Z</time>
      </trkpt>
      <trkpt lat="44.13764" lon="7.23447">
        <ele>2066.2</ele>
        <time>2023-02-05T11:57:24Z</time>
      </trkpt>
      <trkpt lat="44.13764" lon="7.23447">
        <ele>2066.2</ele>
        <time>2023-02-05T11:57:25Z</time>
      </trkpt>
      <trkpt lat="44.13764" lon="7.23447">
        <ele>2066.2</ele>
        <time>2023-02-05T11:57:26Z</time>
      </trkpt>
      <trkpt lat="44.13764" lon="7.23447">
        <ele>2066.2</ele>
        <time>2023-02-05T11:57:27Z</time>
      </trkpt>
      <trkpt lat="44.13764" lon="7.23447">
        <ele>2066.4</ele>
        <time>2023-02-05T11:57:28Z</time>
      </trkpt>
      <trkpt lat="44.13764" lon="7.23447">
        <ele>2066.3</ele>
        <time>2023-02-05T11:57:29Z</time>
      </trkpt>
      <trkpt lat="44.13763" lon="7.23447">
        <ele>2066.3</ele>
        <time>2023-02-05T11:57:30Z</time>
      </trkpt>
      <trkpt lat="44.13763" lon="7.23447">
        <ele>2066.3</ele>
        <time>2023-02-05T11:57:31Z</time>
      </trkpt>
      <trkpt lat="44.13764" lon="7.23446">
        <ele>2066.3</ele>
        <time>2023-02-05T11:57:32Z</time>
      </trkpt>
      <trkpt lat="44.13764" lon="7.23447">
        <ele>2066.3</ele>
        <time>2023-02-05T11:57:33Z</time>
      </trkpt>
      <trkpt lat="44.13764" lon="7.23447">
        <ele>2066.3</ele>
        <time>2023-02-05T11:57:34Z</time>
      </trkpt>
      <trkpt lat="44.13764" lon="7.23447">
        <ele>2066.4</ele>
        <time>2023-02-05T11:57:35Z</time>
      </trkpt>
      <trkpt lat="44.13764" lon="7.23447">
        <ele>2066.4</ele>
        <time>2023-02-05T11:57:36Z</time>
      </trkpt>
      <trkpt lat="44.13764" lon="7.23447">
        <ele>2066.4</ele>
        <time>2023-02-05T11:57:37Z</time>
      </trkpt>
      <trkpt lat="44.13764" lon="7.23447">
        <ele>2066.4</ele>
        <time>2023-02-05T11:57:38Z</time>
      </trkpt>
      <trkpt lat="44.13764" lon="7.23447">
        <ele>2066.3</ele>
        <time>2023-02-05T11:57:39Z</time>
      </trkpt>
      <trkpt lat="44.13764" lon="7.23447">
        <ele>2066.4</ele>
        <time>2023-02-05T11:57:40Z</time>
      </trkpt>
      <trkpt lat="44.13764" lon="7.23447">
        <ele>2066.4</ele>
        <time>2023-02-05T11:57:41Z</time>
      </trkpt>
      <trkpt lat="44.13764" lon="7.23448">
        <ele>2066.4</ele>
        <time>2023-02-05T11:57:42Z</time>
      </trkpt>
      <trkpt lat="44.13764" lon="7.23448">
        <ele>2066.5</ele>
        <time>2023-02-05T11:57:43Z</time>
      </trkpt>
      <trkpt lat="44.13764" lon="7.23448">
        <ele>2066.6</ele>
        <time>2023-02-05T11:57:44Z</time>
      </trkpt>
      <trkpt lat="44.13765" lon="7.23448">
        <ele>2066.5</ele>
        <time>2023-02-05T11:57:45Z</time>
      </trkpt>
      <trkpt lat="44.13765" lon="7.23448">
        <ele>2066.4</ele>
        <time>2023-02-05T11:57:46Z</time>
      </trkpt>
      <trkpt lat="44.13765" lon="7.23448">
        <ele>2066.4</ele>
        <time>2023-02-05T11:57:47Z</time>
      </trkpt>
      <trkpt lat="44.13765" lon="7.23447">
        <ele>2066.4</ele>
        <time>2023-02-05T11:57:48Z</time>
      </trkpt>
      <trkpt lat="44.13766" lon="7.23447">
        <ele>2066.5</ele>
        <time>2023-02-05T11:57:49Z</time>
      </trkpt>
      <trkpt lat="44.13766" lon="7.23447">
        <ele>2066.5</ele>
        <time>2023-02-05T11:57:50Z</time>
      </trkpt>
      <trkpt lat="44.13766" lon="7.23447">
        <ele>2066.5</ele>
        <time>2023-02-05T11:57:51Z</time>
      </trkpt>
      <trkpt lat="44.13767" lon="7.23448">
        <ele>2066.5</ele>
        <time>2023-02-05T11:57:52Z</time>
      </trkpt>
      <trkpt lat="44.13767" lon="7.23447">
        <ele>2066.5</ele>
        <time>2023-02-05T11:57:53Z</time>
      </trkpt>
      <trkpt lat="44.13767" lon="7.23447">
        <ele>2066.5</ele>
        <time>2023-02-05T11:57:54Z</time>
      </trkpt>
      <trkpt lat="44.13767" lon="7.23447">
        <ele>2066.4</ele>
        <time>2023-02-05T11:57:55Z</time>
      </trkpt>
      <trkpt lat="44.13767" lon="7.23448">
        <ele>2066.4</ele>
        <time>2023-02-05T11:57:56Z</time>
      </trkpt>
      <trkpt lat="44.13766" lon="7.23448">
        <ele>2066.4</ele>
        <time>2023-02-05T11:57:57Z</time>
      </trkpt>
      <trkpt lat="44.13765" lon="7.23448">
        <ele>2066.4</ele>
        <time>2023-02-05T11:57:58Z</time>
      </trkpt>
      <trkpt lat="44.13765" lon="7.23448">
        <ele>2066.4</ele>
        <time>2023-02-05T11:57:59Z</time>
      </trkpt>
      <trkpt lat="44.13764" lon="7.23449">
        <ele>2066.4</ele>
        <time>2023-02-05T11:58:00Z</time>
      </trkpt>
      <trkpt lat="44.13763" lon="7.23449">
        <ele>2066.4</ele>
        <time>2023-02-05T11:58:01Z</time>
      </trkpt>
      <trkpt lat="44.13762" lon="7.23449">
        <ele>2066.4</ele>
        <time>2023-02-05T11:58:02Z</time>
      </trkpt>
      <trkpt lat="44.13761" lon="7.23449">
        <ele>2066.4</ele>
        <time>2023-02-05T11:58:03Z</time>
      </trkpt>
      <trkpt lat="44.1376" lon="7.2345">
        <ele>2066.4</ele>
        <time>2023-02-05T11:58:04Z</time>
      </trkpt>
      <trkpt lat="44.13759" lon="7.2345">
        <ele>2066.4</ele>
        <time>2023-02-05T11:58:05Z</time>
      </trkpt>
      <trkpt lat="44.13757" lon="7.2345">
        <ele>2066.4</ele>
        <time>2023-02-05T11:58:06Z</time>
      </trkpt>
      <trkpt lat="44.13756" lon="7.2345">
        <ele>2066.3</ele>
        <time>2023-02-05T11:58:07Z</time>
      </trkpt>
      <trkpt lat="44.13756" lon="7.2345">
        <ele>2066.3</ele>
        <time>2023-02-05T11:58:08Z</time>
      </trkpt>
      <trkpt lat="44.13755" lon="7.2345">
        <ele>2066.2</ele>
        <time>2023-02-05T11:58:09Z</time>
      </trkpt>
      <trkpt lat="44.13755" lon="7.2345">
        <ele>2066.2</ele>
        <time>2023-02-05T11:58:10Z</time>
      </trkpt>
      <trkpt lat="44.13755" lon="7.2345">
        <ele>2066.3</ele>
        <time>2023-02-05T11:58:11Z</time>
      </trkpt>
      <trkpt lat="44.13755" lon="7.2345">
        <ele>2066.3</ele>
        <time>2023-02-05T11:58:12Z</time>
      </trkpt>
      <trkpt lat="44.13756" lon="7.2345">
        <ele>2066.2</ele>
        <time>2023-02-05T11:58:13Z</time>
      </trkpt>
      <trkpt lat="44.13756" lon="7.23449">
        <ele>2066.2</ele>
        <time>2023-02-05T11:58:14Z</time>
      </trkpt>
      <trkpt lat="44.13758" lon="7.23449">
        <ele>2066.2</ele>
        <time>2023-02-05T11:58:15Z</time>
      </trkpt>
      <trkpt lat="44.13757" lon="7.23448">
        <ele>2066.2</ele>
        <time>2023-02-05T11:58:16Z</time>
      </trkpt>
      <trkpt lat="44.13758" lon="7.23448">
        <ele>2066.2</ele>
        <time>2023-02-05T11:58:17Z</time>
      </trkpt>
      <trkpt lat="44.13758" lon="7.23447">
        <ele>2066.2</ele>
        <time>2023-02-05T11:58:18Z</time>
      </trkpt>
      <trkpt lat="44.13759" lon="7.23447">
        <ele>2066.3</ele>
        <time>2023-02-05T11:58:19Z</time>
      </trkpt>
      <trkpt lat="44.1376" lon="7.23447">
        <ele>2066.3</ele>
        <time>2023-02-05T11:58:20Z</time>
      </trkpt>
      <trkpt lat="44.1376" lon="7.23447">
        <ele>2066.4</ele>
        <time>2023-02-05T11:58:21Z</time>
      </trkpt>
      <trkpt lat="44.13761" lon="7.23446">
        <ele>2066.4</ele>
        <time>2023-02-05T11:58:22Z</time>
      </trkpt>
      <trkpt lat="44.13762" lon="7.23446">
        <ele>2066.4</ele>
        <time>2023-02-05T11:58:23Z</time>
      </trkpt>
      <trkpt lat="44.13762" lon="7.23446">
        <ele>2066.4</ele>
        <time>2023-02-05T11:58:24Z</time>
      </trkpt>
      <trkpt lat="44.13762" lon="7.23445">
        <ele>2066.5</ele>
        <time>2023-02-05T11:58:25Z</time>
      </trkpt>
      <trkpt lat="44.13762" lon="7.23445">
        <ele>2066.5</ele>
        <time>2023-02-05T11:58:26Z</time>
      </trkpt>
      <trkpt lat="44.13762" lon="7.23444">
        <ele>2066.5</ele>
        <time>2023-02-05T11:58:27Z</time>
      </trkpt>
      <trkpt lat="44.13762" lon="7.23444">
        <ele>2066.5</ele>
        <time>2023-02-05T11:58:28Z</time>
      </trkpt>
      <trkpt lat="44.13762" lon="7.23444">
        <ele>2066.5</ele>
        <time>2023-02-05T11:58:29Z</time>
      </trkpt>
      <trkpt lat="44.13763" lon="7.23443">
        <ele>2066.5</ele>
        <time>2023-02-05T11:58:30Z</time>
      </trkpt>
      <trkpt lat="44.13762" lon="7.23443">
        <ele>2066.4</ele>
        <time>2023-02-05T11:58:31Z</time>
      </trkpt>
      <trkpt lat="44.13763" lon="7.23443">
        <ele>2066.4</ele>
        <time>2023-02-05T11:58:32Z</time>
      </trkpt>
      <trkpt lat="44.13763" lon="7.23443">
        <ele>2066.4</ele>
        <time>2023-02-05T11:58:33Z</time>
      </trkpt>
      <trkpt lat="44.13763" lon="7.23442">
        <ele>2066.4</ele>
        <time>2023-02-05T11:58:34Z</time>
      </trkpt>
      <trkpt lat="44.13763" lon="7.23442">
        <ele>2066.4</ele>
        <time>2023-02-05T11:58:35Z</time>
      </trkpt>
      <trkpt lat="44.13764" lon="7.23442">
        <ele>2066.4</ele>
        <time>2023-02-05T11:58:36Z</time>
      </trkpt>
      <trkpt lat="44.13764" lon="7.23442">
        <ele>2066.4</ele>
        <time>2023-02-05T11:58:37Z</time>
      </trkpt>
      <trkpt lat="44.13764" lon="7.23442">
        <ele>2066.4</ele>
        <time>2023-02-05T11:58:38Z</time>
      </trkpt>
      <trkpt lat="44.13765" lon="7.23441">
        <ele>2066.4</ele>
        <time>2023-02-05T11:58:39Z</time>
      </trkpt>
      <trkpt lat="44.13765" lon="7.23441">
        <ele>2066.4</ele>
        <time>2023-02-05T11:58:40Z</time>
      </trkpt>
      <trkpt lat="44.13766" lon="7.23441">
        <ele>2066.4</ele>
        <time>2023-02-05T11:58:41Z</time>
      </trkpt>
      <trkpt lat="44.13766" lon="7.2344">
        <ele>2066.4</ele>
        <time>2023-02-05T11:58:42Z</time>
      </trkpt>
      <trkpt lat="44.13766" lon="7.2344">
        <ele>2066.4</ele>
        <time>2023-02-05T11:58:43Z</time>
      </trkpt>
      <trkpt lat="44.13766" lon="7.23439">
        <ele>2066.4</ele>
        <time>2023-02-05T11:58:44Z</time>
      </trkpt>
      <trkpt lat="44.13767" lon="7.23439">
        <ele>2066.4</ele>
        <time>2023-02-05T11:58:45Z</time>
      </trkpt>
      <trkpt lat="44.13767" lon="7.23438">
        <ele>2066.3</ele>
        <time>2023-02-05T11:58:46Z</time>
      </trkpt>
      <trkpt lat="44.13767" lon="7.23438">
        <ele>2066.3</ele>
        <time>2023-02-05T11:58:47Z</time>
      </trkpt>
      <trkpt lat="44.13767" lon="7.23438">
        <ele>2066.3</ele>
        <time>2023-02-05T11:58:48Z</time>
      </trkpt>
      <trkpt lat="44.13766" lon="7.23437">
        <ele>2066.4</ele>
        <time>2023-02-05T11:58:49Z</time>
      </trkpt>
      <trkpt lat="44.13765" lon="7.23437">
        <ele>2066.4</ele>
        <time>2023-02-05T11:58:50Z</time>
      </trkpt>
      <trkpt lat="44.13764" lon="7.23437">
        <ele>2066.3</ele>
        <time>2023-02-05T11:58:51Z</time>
      </trkpt>
      <trkpt lat="44.13763" lon="7.23437">
        <ele>2066.3</ele>
        <time>2023-02-05T11:58:52Z</time>
      </trkpt>
      <trkpt lat="44.13762" lon="7.23436">
        <ele>2066.3</ele>
        <time>2023-02-05T11:58:53Z</time>
      </trkpt>
      <trkpt lat="44.13761" lon="7.23436">
        <ele>2066.2</ele>
        <time>2023-02-05T11:58:54Z</time>
      </trkpt>
      <trkpt lat="44.1376" lon="7.23436">
        <ele>2066.3</ele>
        <time>2023-02-05T11:58:55Z</time>
      </trkpt>
      <trkpt lat="44.13758" lon="7.23436">
        <ele>2066.3</ele>
        <time>2023-02-05T11:58:56Z</time>
      </trkpt>
      <trkpt lat="44.13757" lon="7.23437">
        <ele>2066.3</ele>
        <time>2023-02-05T11:58:57Z</time>
      </trkpt>
      <trkpt lat="44.13756" lon="7.23437">
        <ele>2066.3</ele>
        <time>2023-02-05T11:58:58Z</time>
      </trkpt>
      <trkpt lat="44.13754" lon="7.23437">
        <ele>2066.3</ele>
        <time>2023-02-05T11:58:59Z</time>
      </trkpt>
      <trkpt lat="44.13753" lon="7.23437">
        <ele>2066.3</ele>
        <time>2023-02-05T11:59:00Z</time>
      </trkpt>
      <trkpt lat="44.13752" lon="7.23438">
        <ele>2066.2</ele>
        <time>2023-02-05T11:59:01Z</time>
      </trkpt>
      <trkpt lat="44.13751" lon="7.23438">
        <ele>2066.2</ele>
        <time>2023-02-05T11:59:02Z</time>
      </trkpt>
      <trkpt lat="44.1375" lon="7.23438">
        <ele>2066.2</ele>
        <time>2023-02-05T11:59:03Z</time>
      </trkpt>
      <trkpt lat="44.13749" lon="7.23438">
        <ele>2066.1</ele>
        <time>2023-02-05T11:59:04Z</time>
      </trkpt>
      <trkpt lat="44.13749" lon="7.23438">
        <ele>2066</ele>
        <time>2023-02-05T11:59:05Z</time>
      </trkpt>
      <trkpt lat="44.13748" lon="7.23438">
        <ele>2066</ele>
        <time>2023-02-05T11:59:06Z</time>
      </trkpt>
      <trkpt lat="44.13748" lon="7.23439">
        <ele>2066.1</ele>
        <time>2023-02-05T11:59:07Z</time>
      </trkpt>
      <trkpt lat="44.13749" lon="7.23439">
        <ele>2066.1</ele>
        <time>2023-02-05T11:59:08Z</time>
      </trkpt>
      <trkpt lat="44.13748" lon="7.23439">
        <ele>2066.1</ele>
        <time>2023-02-05T11:59:09Z</time>
      </trkpt>
      <trkpt lat="44.13748" lon="7.23439">
        <ele>2066.1</ele>
        <time>2023-02-05T11:59:10Z</time>
      </trkpt>
      <trkpt lat="44.13748" lon="7.2344">
        <ele>2066.2</ele>
        <time>2023-02-05T11:59:11Z</time>
      </trkpt>
      <trkpt lat="44.13748" lon="7.2344">
        <ele>2066.2</ele>
        <time>2023-02-05T11:59:12Z</time>
      </trkpt>
      <trkpt lat="44.13747" lon="7.2344">
        <ele>2066.2</ele>
        <time>2023-02-05T11:59:13Z</time>
      </trkpt>
      <trkpt lat="44.13747" lon="7.2344">
        <ele>2066.3</ele>
        <time>2023-02-05T11:59:14Z</time>
      </trkpt>
      <trkpt lat="44.13747" lon="7.2344">
        <ele>2066.3</ele>
        <time>2023-02-05T11:59:15Z</time>
      </trkpt>
      <trkpt lat="44.13747" lon="7.2344">
        <ele>2066.3</ele>
        <time>2023-02-05T11:59:16Z</time>
      </trkpt>
      <trkpt lat="44.13747" lon="7.23441">
        <ele>2066.3</ele>
        <time>2023-02-05T11:59:17Z</time>
      </trkpt>
      <trkpt lat="44.13747" lon="7.23441">
        <ele>2066.3</ele>
        <time>2023-02-05T11:59:18Z</time>
      </trkpt>
      <trkpt lat="44.13747" lon="7.23441">
        <ele>2066.4</ele>
        <time>2023-02-05T11:59:19Z</time>
      </trkpt>
      <trkpt lat="44.13747" lon="7.23441">
        <ele>2066.4</ele>
        <time>2023-02-05T11:59:20Z</time>
      </trkpt>
      <trkpt lat="44.13747" lon="7.23441">
        <ele>2066.4</ele>
        <time>2023-02-05T11:59:21Z</time>
      </trkpt>
      <trkpt lat="44.13747" lon="7.23441">
        <ele>2066.4</ele>
        <time>2023-02-05T11:59:22Z</time>
      </trkpt>
      <trkpt lat="44.13747" lon="7.23441">
        <ele>2066.5</ele>
        <time>2023-02-05T11:59:23Z</time>
      </trkpt>
      <trkpt lat="44.13747" lon="7.23442">
        <ele>2066.5</ele>
        <time>2023-02-05T11:59:24Z</time>
      </trkpt>
      <trkpt lat="44.13747" lon="7.23442">
        <ele>2066.4</ele>
        <time>2023-02-05T11:59:25Z</time>
      </trkpt>
      <trkpt lat="44.13747" lon="7.23442">
        <ele>2066.4</ele>
        <time>2023-02-05T11:59:26Z</time>
      </trkpt>
      <trkpt lat="44.13747" lon="7.23442">
        <ele>2066.3</ele>
        <time>2023-02-05T11:59:27Z</time>
      </trkpt>
      <trkpt lat="44.13747" lon="7.23443">
        <ele>2066.4</ele>
        <time>2023-02-05T11:59:28Z</time>
      </trkpt>
      <trkpt lat="44.13747" lon="7.23443">
        <ele>2066.4</ele>
        <time>2023-02-05T11:59:29Z</time>
      </trkpt>
      <trkpt lat="44.13747" lon="7.23443">
        <ele>2066.4</ele>
        <time>2023-02-05T11:59:30Z</time>
      </trkpt>
      <trkpt lat="44.13747" lon="7.23443">
        <ele>2066.4</ele>
        <time>2023-02-05T11:59:31Z</time>
      </trkpt>
      <trkpt lat="44.13747" lon="7.23443">
        <ele>2066.4</ele>
        <time>2023-02-05T11:59:32Z</time>
      </trkpt>
      <trkpt lat="44.13747" lon="7.23443">
        <ele>2066.4</ele>
        <time>2023-02-05T11:59:33Z</time>
      </trkpt>
      <trkpt lat="44.13748" lon="7.23444">
        <ele>2066.3</ele>
        <time>2023-02-05T11:59:34Z</time>
      </trkpt>
      <trkpt lat="44.13748" lon="7.23444">
        <ele>2066.3</ele>
        <time>2023-02-05T11:59:35Z</time>
      </trkpt>
      <trkpt lat="44.13748" lon="7.23444">
        <ele>2066.2</ele>
        <time>2023-02-05T11:59:36Z</time>
      </trkpt>
      <trkpt lat="44.13748" lon="7.23444">
        <ele>2066.3</ele>
        <time>2023-02-05T11:59:37Z</time>
      </trkpt>
      <trkpt lat="44.13748" lon="7.23445">
        <ele>2066.3</ele>
        <time>2023-02-05T11:59:38Z</time>
      </trkpt>
      <trkpt lat="44.13748" lon="7.23445">
        <ele>2066.2</ele>
        <time>2023-02-05T11:59:39Z</time>
      </trkpt>
      <trkpt lat="44.13748" lon="7.23445">
        <ele>2066.3</ele>
        <time>2023-02-05T11:59:40Z</time>
      </trkpt>
      <trkpt lat="44.13748" lon="7.23445">
        <ele>2066.2</ele>
        <time>2023-02-05T11:59:41Z</time>
      </trkpt>
      <trkpt lat="44.13748" lon="7.23445">
        <ele>2066.2</ele>
        <time>2023-02-05T11:59:42Z</time>
      </trkpt>
      <trkpt lat="44.13748" lon="7.23445">
        <ele>2066.2</ele>
        <time>2023-02-05T11:59:43Z</time>
      </trkpt>
      <trkpt lat="44.13748" lon="7.23446">
        <ele>2066.2</ele>
        <time>2023-02-05T11:59:44Z</time>
      </trkpt>
      <trkpt lat="44.13748" lon="7.23446">
        <ele>2066.2</ele>
        <time>2023-02-05T11:59:45Z</time>
      </trkpt>
      <trkpt lat="44.13748" lon="7.23446">
        <ele>2066.2</ele>
        <time>2023-02-05T11:59:46Z</time>
      </trkpt>
      <trkpt lat="44.13749" lon="7.23446">
        <ele>2066.2</ele>
        <time>2023-02-05T11:59:47Z</time>
      </trkpt>
      <trkpt lat="44.13749" lon="7.23447">
        <ele>2066.1</ele>
        <time>2023-02-05T11:59:48Z</time>
      </trkpt>
      <trkpt lat="44.13749" lon="7.23447">
        <ele>2066.1</ele>
        <time>2023-02-05T11:59:49Z</time>
      </trkpt>
      <trkpt lat="44.13749" lon="7.23448">
        <ele>2066.2</ele>
        <time>2023-02-05T11:59:50Z</time>
      </trkpt>
      <trkpt lat="44.13749" lon="7.23448">
        <ele>2066.3</ele>
        <time>2023-02-05T11:59:51Z</time>
      </trkpt>
      <trkpt lat="44.1375" lon="7.23448">
        <ele>2066.4</ele>
        <time>2023-02-05T11:59:52Z</time>
      </trkpt>
      <trkpt lat="44.1375" lon="7.23448">
        <ele>2066.5</ele>
        <time>2023-02-05T11:59:53Z</time>
      </trkpt>
      <trkpt lat="44.1375" lon="7.23449">
        <ele>2066.6</ele>
        <time>2023-02-05T11:59:54Z</time>
      </trkpt>
      <trkpt lat="44.1375" lon="7.23449">
        <ele>2066.6</ele>
        <time>2023-02-05T11:59:55Z</time>
      </trkpt>
      <trkpt lat="44.1375" lon="7.23449">
        <ele>2066.6</ele>
        <time>2023-02-05T11:59:56Z</time>
      </trkpt>
      <trkpt lat="44.13751" lon="7.2345">
        <ele>2066.6</ele>
        <time>2023-02-05T11:59:57Z</time>
      </trkpt>
      <trkpt lat="44.13751" lon="7.2345">
        <ele>2066.6</ele>
        <time>2023-02-05T11:59:58Z</time>
      </trkpt>
      <trkpt lat="44.13751" lon="7.2345">
        <ele>2066.6</ele>
        <time>2023-02-05T11:59:59Z</time>
      </trkpt>
      <trkpt lat="44.13751" lon="7.2345">
        <ele>2066.6</ele>
        <time>2023-02-05T12:00:00Z</time>
      </trkpt>
      <trkpt lat="44.13751" lon="7.23451">
        <ele>2066.6</ele>
        <time>2023-02-05T12:00:01Z</time>
      </trkpt>
      <trkpt lat="44.13751" lon="7.23451">
        <ele>2066.5</ele>
        <time>2023-02-05T12:00:02Z</time>
      </trkpt>
      <trkpt lat="44.13751" lon="7.23451">
        <ele>2066.5</ele>
        <time>2023-02-05T12:00:03Z</time>
      </trkpt>
      <trkpt lat="44.13751" lon="7.23451">
        <ele>2066.5</ele>
        <time>2023-02-05T12:00:04Z</time>
      </trkpt>
      <trkpt lat="44.13752" lon="7.23451">
        <ele>2066.5</ele>
        <time>2023-02-05T12:00:05Z</time>
      </trkpt>
      <trkpt lat="44.13752" lon="7.23451">
        <ele>2066.4</ele>
        <time>2023-02-05T12:00:06Z</time>
      </trkpt>
      <trkpt lat="44.13751" lon="7.23451">
        <ele>2066.4</ele>
        <time>2023-02-05T12:00:07Z</time>
      </trkpt>
      <trkpt lat="44.13752" lon="7.23452">
        <ele>2066.4</ele>
        <time>2023-02-05T12:00:08Z</time>
      </trkpt>
      <trkpt lat="44.13752" lon="7.23452">
        <ele>2066.4</ele>
        <time>2023-02-05T12:00:09Z</time>
      </trkpt>
      <trkpt lat="44.13752" lon="7.23452">
        <ele>2066.4</ele>
        <time>2023-02-05T12:00:10Z</time>
      </trkpt>
      <trkpt lat="44.13752" lon="7.23452">
        <ele>2066.4</ele>
        <time>2023-02-05T12:00:11Z</time>
      </trkpt>
      <trkpt lat="44.13752" lon="7.23452">
        <ele>2066.4</ele>
        <time>2023-02-05T12:00:12Z</time>
      </trkpt>
      <trkpt lat="44.13752" lon="7.23452">
        <ele>2066.4</ele>
        <time>2023-02-05T12:00:13Z</time>
      </trkpt>
      <trkpt lat="44.13752" lon="7.23452">
        <ele>2066.4</ele>
        <time>2023-02-05T12:00:14Z</time>
      </trkpt>
      <trkpt lat="44.13752" lon="7.23452">
        <ele>2066.4</ele>
        <time>2023-02-05T12:00:15Z</time>
      </trkpt>
      <trkpt lat="44.13752" lon="7.23452">
        <ele>2066.4</ele>
        <time>2023-02-05T12:00:16Z</time>
      </trkpt>
      <trkpt lat="44.13752" lon="7.23452">
        <ele>2066.4</ele>
        <time>2023-02-05T12:00:17Z</time>
      </trkpt>
      <trkpt lat="44.13752" lon="7.23453">
        <ele>2066.3</ele>
        <time>2023-02-05T12:00:18Z</time>
      </trkpt>
      <trkpt lat="44.13752" lon="7.23453">
        <ele>2066.3</ele>
        <time>2023-02-05T12:00:19Z</time>
      </trkpt>
      <trkpt lat="44.13753" lon="7.23453">
        <ele>2066.3</ele>
        <time>2023-02-05T12:00:20Z</time>
      </trkpt>
      <trkpt lat="44.13752" lon="7.23453">
        <ele>2066.4</ele>
        <time>2023-02-05T12:00:21Z</time>
      </trkpt>
      <trkpt lat="44.13752" lon="7.23453">
        <ele>2066.4</ele>
        <time>2023-02-05T12:00:22Z</time>
      </trkpt>
      <trkpt lat="44.13752" lon="7.23453">
        <ele>2066.4</ele>
        <time>2023-02-05T12:00:23Z</time>
      </trkpt>
      <trkpt lat="44.13753" lon="7.23453">
        <ele>2066.4</ele>
        <time>2023-02-05T12:00:24Z</time>
      </trkpt>
      <trkpt lat="44.13753" lon="7.23453">
        <ele>2066.4</ele>
        <time>2023-02-05T12:00:25Z</time>
      </trkpt>
      <trkpt lat="44.13752" lon="7.23454">
        <ele>2066.4</ele>
        <time>2023-02-05T12:00:26Z</time>
      </trkpt>
      <trkpt lat="44.13753" lon="7.23454">
        <ele>2066.5</ele>
        <time>2023-02-05T12:00:27Z</time>
      </trkpt>
      <trkpt lat="44.13753" lon="7.23454">
        <ele>2066.5</ele>
        <time>2023-02-05T12:00:28Z</time>
      </trkpt>
      <trkpt lat="44.13753" lon="7.23454">
        <ele>2066.5</ele>
        <time>2023-02-05T12:00:29Z</time>
      </trkpt>
      <trkpt lat="44.13751" lon="7.23454">
        <ele>2066.5</ele>
        <time>2023-02-05T12:00:30Z</time>
      </trkpt>
      <trkpt lat="44.13752" lon="7.23453">
        <ele>2066.4</ele>
        <time>2023-02-05T12:00:31Z</time>
      </trkpt>
      <trkpt lat="44.13752" lon="7.23453">
        <ele>2066.5</ele>
        <time>2023-02-05T12:00:32Z</time>
      </trkpt>
      <trkpt lat="44.13752" lon="7.23452">
        <ele>2066.5</ele>
        <time>2023-02-05T12:00:33Z</time>
      </trkpt>
      <trkpt lat="44.13753" lon="7.23452">
        <ele>2066.5</ele>
        <time>2023-02-05T12:00:34Z</time>
      </trkpt>
      <trkpt lat="44.13753" lon="7.23451">
        <ele>2066.4</ele>
        <time>2023-02-05T12:00:35Z</time>
      </trkpt>
      <trkpt lat="44.13753" lon="7.23451">
        <ele>2066.4</ele>
        <time>2023-02-05T12:00:36Z</time>
      </trkpt>
      <trkpt lat="44.13753" lon="7.23451">
        <ele>2066.5</ele>
        <time>2023-02-05T12:00:37Z</time>
      </trkpt>
      <trkpt lat="44.13753" lon="7.23451">
        <ele>2066.4</ele>
        <time>2023-02-05T12:00:38Z</time>
      </trkpt>
      <trkpt lat="44.13753" lon="7.23451">
        <ele>2066.5</ele>
        <time>2023-02-05T12:00:39Z</time>
      </trkpt>
      <trkpt lat="44.13753" lon="7.2345">
        <ele>2066.5</ele>
        <time>2023-02-05T12:00:40Z</time>
      </trkpt>
      <trkpt lat="44.13753" lon="7.23451">
        <ele>2066.6</ele>
        <time>2023-02-05T12:00:41Z</time>
      </trkpt>
      <trkpt lat="44.13753" lon="7.2345">
        <ele>2066.6</ele>
        <time>2023-02-05T12:00:42Z</time>
      </trkpt>
      <trkpt lat="44.13753" lon="7.2345">
        <ele>2066.6</ele>
        <time>2023-02-05T12:00:43Z</time>
      </trkpt>
      <trkpt lat="44.13753" lon="7.2345">
        <ele>2066.6</ele>
        <time>2023-02-05T12:00:44Z</time>
      </trkpt>
      <trkpt lat="44.13753" lon="7.2345">
        <ele>2066.5</ele>
        <time>2023-02-05T12:00:45Z</time>
      </trkpt>
      <trkpt lat="44.13753" lon="7.2345">
        <ele>2066.5</ele>
        <time>2023-02-05T12:00:46Z</time>
      </trkpt>
      <trkpt lat="44.13753" lon="7.2345">
        <ele>2066.5</ele>
        <time>2023-02-05T12:00:47Z</time>
      </trkpt>
      <trkpt lat="44.13753" lon="7.2345">
        <ele>2066.5</ele>
        <time>2023-02-05T12:00:48Z</time>
      </trkpt>
      <trkpt lat="44.13753" lon="7.2345">
        <ele>2066.5</ele>
        <time>2023-02-05T12:00:49Z</time>
      </trkpt>
      <trkpt lat="44.13753" lon="7.2345">
        <ele>2066.5</ele>
        <time>2023-02-05T12:00:50Z</time>
      </trkpt>
      <trkpt lat="44.13753" lon="7.2345">
        <ele>2066.4</ele>
        <time>2023-02-05T12:00:51Z</time>
      </trkpt>
      <trkpt lat="44.13753" lon="7.2345">
        <ele>2066.4</ele>
        <time>2023-02-05T12:00:52Z</time>
      </trkpt>
      <trkpt lat="44.13753" lon="7.23451">
        <ele>2066.5</ele>
        <time>2023-02-05T12:00:53Z</time>
      </trkpt>
      <trkpt lat="44.13753" lon="7.23451">
        <ele>2066.5</ele>
        <time>2023-02-05T12:00:54Z</time>
      </trkpt>
      <trkpt lat="44.13753" lon="7.23451">
        <ele>2066.5</ele>
        <time>2023-02-05T12:00:55Z</time>
      </trkpt>
      <trkpt lat="44.13753" lon="7.23451">
        <ele>2066.5</ele>
        <time>2023-02-05T12:00:56Z</time>
      </trkpt>
      <trkpt lat="44.13753" lon="7.23451">
        <ele>2066.5</ele>
        <time>2023-02-05T12:00:57Z</time>
      </trkpt>
      <trkpt lat="44.13753" lon="7.23451">
        <ele>2066.5</ele>
        <time>2023-02-05T12:00:58Z</time>
      </trkpt>
      <trkpt lat="44.13753" lon="7.23451">
        <ele>2066.4</ele>
        <time>2023-02-05T12:00:59Z</time>
      </trkpt>
      <trkpt lat="44.13752" lon="7.23451">
        <ele>2066.3</ele>
        <time>2023-02-05T12:01:00Z</time>
      </trkpt>
      <trkpt lat="44.13752" lon="7.23451">
        <ele>2066.3</ele>
        <time>2023-02-05T12:01:01Z</time>
      </trkpt>
      <trkpt lat="44.13753" lon="7.23451">
        <ele>2066.3</ele>
        <time>2023-02-05T12:01:02Z</time>
      </trkpt>
      <trkpt lat="44.13753" lon="7.23451">
        <ele>2066.3</ele>
        <time>2023-02-05T12:01:03Z</time>
      </trkpt>
      <trkpt lat="44.13753" lon="7.23451">
        <ele>2066.3</ele>
        <time>2023-02-05T12:01:04Z</time>
      </trkpt>
      <trkpt lat="44.13753" lon="7.23451">
        <ele>2066.3</ele>
        <time>2023-02-05T12:01:05Z</time>
      </trkpt>
      <trkpt lat="44.13753" lon="7.23451">
        <ele>2066.2</ele>
        <time>2023-02-05T12:01:06Z</time>
      </trkpt>
      <trkpt lat="44.13753" lon="7.23451">
        <ele>2066.2</ele>
        <time>2023-02-05T12:01:07Z</time>
      </trkpt>
      <trkpt lat="44.13753" lon="7.23451">
        <ele>2066.2</ele>
        <time>2023-02-05T12:01:08Z</time>
      </trkpt>
      <trkpt lat="44.13754" lon="7.23451">
        <ele>2066.2</ele>
        <time>2023-02-05T12:01:09Z</time>
      </trkpt>
      <trkpt lat="44.13754" lon="7.23451">
        <ele>2066.2</ele>
        <time>2023-02-05T12:01:10Z</time>
      </trkpt>
      <trkpt lat="44.13754" lon="7.23451">
        <ele>2066.3</ele>
        <time>2023-02-05T12:01:11Z</time>
      </trkpt>
      <trkpt lat="44.13755" lon="7.2345">
        <ele>2066.3</ele>
        <time>2023-02-05T12:01:12Z</time>
      </trkpt>
      <trkpt lat="44.13755" lon="7.2345">
        <ele>2066.4</ele>
        <time>2023-02-05T12:01:13Z</time>
      </trkpt>
      <trkpt lat="44.13755" lon="7.2345">
        <ele>2066.4</ele>
        <time>2023-02-05T12:01:14Z</time>
      </trkpt>
      <trkpt lat="44.13755" lon="7.2345">
        <ele>2066.4</ele>
        <time>2023-02-05T12:01:15Z</time>
      </trkpt>
      <trkpt lat="44.13756" lon="7.2345">
        <ele>2066.4</ele>
        <time>2023-02-05T12:01:16Z</time>
      </trkpt>
      <trkpt lat="44.13756" lon="7.23449">
        <ele>2066.3</ele>
        <time>2023-02-05T12:01:17Z</time>
      </trkpt>
      <trkpt lat="44.13756" lon="7.23449">
        <ele>2066.3</ele>
        <time>2023-02-05T12:01:18Z</time>
      </trkpt>
      <trkpt lat="44.13756" lon="7.23449">
        <ele>2066.3</ele>
        <time>2023-02-05T12:01:19Z</time>
      </trkpt>
      <trkpt lat="44.13756" lon="7.23449">
        <ele>2066.3</ele>
        <time>2023-02-05T12:01:20Z</time>
      </trkpt>
      <trkpt lat="44.13756" lon="7.23449">
        <ele>2066.3</ele>
        <time>2023-02-05T12:01:21Z</time>
      </trkpt>
      <trkpt lat="44.13756" lon="7.23449">
        <ele>2066.4</ele>
        <time>2023-02-05T12:01:22Z</time>
      </trkpt>
      <trkpt lat="44.13756" lon="7.23449">
        <ele>2066.4</ele>
        <time>2023-02-05T12:01:23Z</time>
      </trkpt>
      <trkpt lat="44.13756" lon="7.23449">
        <ele>2066.4</ele>
        <time>2023-02-05T12:01:24Z</time>
      </trkpt>
      <trkpt lat="44.13756" lon="7.23449">
        <ele>2066.4</ele>
        <time>2023-02-05T12:01:25Z</time>
      </trkpt>
      <trkpt lat="44.13756" lon="7.23449">
        <ele>2066.5</ele>
        <time>2023-02-05T12:01:26Z</time>
      </trkpt>
      <trkpt lat="44.13756" lon="7.23449">
        <ele>2066.5</ele>
        <time>2023-02-05T12:01:27Z</time>
      </trkpt>
      <trkpt lat="44.13756" lon="7.23449">
        <ele>2066.5</ele>
        <time>2023-02-05T12:01:28Z</time>
      </trkpt>
      <trkpt lat="44.13756" lon="7.23449">
        <ele>2066.5</ele>
        <time>2023-02-05T12:01:29Z</time>
      </trkpt>
      <trkpt lat="44.13756" lon="7.23449">
        <ele>2066.5</ele>
        <time>2023-02-05T12:01:30Z</time>
      </trkpt>
      <trkpt lat="44.13756" lon="7.2345">
        <ele>2066.6</ele>
        <time>2023-02-05T12:01:31Z</time>
      </trkpt>
      <trkpt lat="44.13755" lon="7.2345">
        <ele>2066.6</ele>
        <time>2023-02-05T12:01:32Z</time>
      </trkpt>
      <trkpt lat="44.13755" lon="7.2345">
        <ele>2066.6</ele>
        <time>2023-02-05T12:01:33Z</time>
      </trkpt>
      <trkpt lat="44.13755" lon="7.2345">
        <ele>2066.6</ele>
        <time>2023-02-05T12:01:34Z</time>
      </trkpt>
      <trkpt lat="44.13754" lon="7.2345">
        <ele>2066.6</ele>
        <time>2023-02-05T12:01:35Z</time>
      </trkpt>
      <trkpt lat="44.13754" lon="7.2345">
        <ele>2066.6</ele>
        <time>2023-02-05T12:01:36Z</time>
      </trkpt>
      <trkpt lat="44.13754" lon="7.2345">
        <ele>2066.7</ele>
        <time>2023-02-05T12:01:37Z</time>
      </trkpt>
      <trkpt lat="44.13754" lon="7.2345">
        <ele>2066.6</ele>
        <time>2023-02-05T12:01:38Z</time>
      </trkpt>
      <trkpt lat="44.13754" lon="7.2345">
        <ele>2066.6</ele>
        <time>2023-02-05T12:01:39Z</time>
      </trkpt>
      <trkpt lat="44.13754" lon="7.2345">
        <ele>2066.6</ele>
        <time>2023-02-05T12:01:40Z</time>
      </trkpt>
      <trkpt lat="44.13753" lon="7.23451">
        <ele>2066.6</ele>
        <time>2023-02-05T12:01:41Z</time>
      </trkpt>
      <trkpt lat="44.13753" lon="7.23451">
        <ele>2066.6</ele>
        <time>2023-02-05T12:01:42Z</time>
      </trkpt>
      <trkpt lat="44.13753" lon="7.2345">
        <ele>2066.7</ele>
        <time>2023-02-05T12:01:43Z</time>
      </trkpt>
      <trkpt lat="44.13753" lon="7.2345">
        <ele>2066.7</ele>
        <time>2023-02-05T12:01:44Z</time>
      </trkpt>
      <trkpt lat="44.13753" lon="7.23451">
        <ele>2066.7</ele>
        <time>2023-02-05T12:01:45Z</time>
      </trkpt>
      <trkpt lat="44.13753" lon="7.2345">
        <ele>2066.7</ele>
        <time>2023-02-05T12:01:46Z</time>
      </trkpt>
      <trkpt lat="44.13753" lon="7.2345">
        <ele>2066.7</ele>
        <time>2023-02-05T12:01:47Z</time>
      </trkpt>
      <trkpt lat="44.13753" lon="7.2345">
        <ele>2066.8</ele>
        <time>2023-02-05T12:01:48Z</time>
      </trkpt>
      <trkpt lat="44.13754" lon="7.23449">
        <ele>2066.8</ele>
        <time>2023-02-05T12:01:49Z</time>
      </trkpt>
      <trkpt lat="44.13755" lon="7.23449">
        <ele>2066.8</ele>
        <time>2023-02-05T12:01:50Z</time>
      </trkpt>
      <trkpt lat="44.13755" lon="7.23449">
        <ele>2066.8</ele>
        <time>2023-02-05T12:01:51Z</time>
      </trkpt>
      <trkpt lat="44.13755" lon="7.23448">
        <ele>2066.8</ele>
        <time>2023-02-05T12:01:52Z</time>
      </trkpt>
      <trkpt lat="44.13756" lon="7.23448">
        <ele>2066.7</ele>
        <time>2023-02-05T12:01:53Z</time>
      </trkpt>
      <trkpt lat="44.13756" lon="7.23448">
        <ele>2066.7</ele>
        <time>2023-02-05T12:01:54Z</time>
      </trkpt>
      <trkpt lat="44.13756" lon="7.23448">
        <ele>2066.5</ele>
        <time>2023-02-05T12:01:55Z</time>
      </trkpt>
      <trkpt lat="44.13756" lon="7.23448">
        <ele>2066.5</ele>
        <time>2023-02-05T12:01:56Z</time>
      </trkpt>
      <trkpt lat="44.13756" lon="7.23448">
        <ele>2066.5</ele>
        <time>2023-02-05T12:01:57Z</time>
      </trkpt>
      <trkpt lat="44.13757" lon="7.23448">
        <ele>2066.4</ele>
        <time>2023-02-05T12:01:58Z</time>
      </trkpt>
      <trkpt lat="44.13757" lon="7.23448">
        <ele>2066.4</ele>
        <time>2023-02-05T12:01:59Z</time>
      </trkpt>
      <trkpt lat="44.13757" lon="7.23448">
        <ele>2066.5</ele>
        <time>2023-02-05T12:02:00Z</time>
      </trkpt>
      <trkpt lat="44.13757" lon="7.23448">
        <ele>2066.4</ele>
        <time>2023-02-05T12:02:01Z</time>
      </trkpt>
      <trkpt lat="44.13757" lon="7.23448">
        <ele>2066.4</ele>
        <time>2023-02-05T12:02:02Z</time>
      </trkpt>
      <trkpt lat="44.13757" lon="7.23448">
        <ele>2066.4</ele>
        <time>2023-02-05T12:02:03Z</time>
      </trkpt>
      <trkpt lat="44.13757" lon="7.23448">
        <ele>2066.4</ele>
        <time>2023-02-05T12:02:04Z</time>
      </trkpt>
      <trkpt lat="44.13758" lon="7.23447">
        <ele>2066.4</ele>
        <time>2023-02-05T12:02:05Z</time>
      </trkpt>
      <trkpt lat="44.13758" lon="7.23447">
        <ele>2066.4</ele>
        <time>2023-02-05T12:02:06Z</time>
      </trkpt>
      <trkpt lat="44.13758" lon="7.23447">
        <ele>2066.3</ele>
        <time>2023-02-05T12:02:07Z</time>
      </trkpt>
      <trkpt lat="44.13758" lon="7.23447">
        <ele>2066.3</ele>
        <time>2023-02-05T12:02:08Z</time>
      </trkpt>
      <trkpt lat="44.13758" lon="7.23447">
        <ele>2066.3</ele>
        <time>2023-02-05T12:02:09Z</time>
      </trkpt>
      <trkpt lat="44.13758" lon="7.23447">
        <ele>2066.3</ele>
        <time>2023-02-05T12:02:10Z</time>
      </trkpt>
      <trkpt lat="44.13758" lon="7.23446">
        <ele>2066.2</ele>
        <time>2023-02-05T12:02:11Z</time>
      </trkpt>
      <trkpt lat="44.13758" lon="7.23446">
        <ele>2066.2</ele>
        <time>2023-02-05T12:02:12Z</time>
      </trkpt>
      <trkpt lat="44.13758" lon="7.23446">
        <ele>2066.2</ele>
        <time>2023-02-05T12:02:13Z</time>
      </trkpt>
      <trkpt lat="44.13758" lon="7.23446">
        <ele>2066.2</ele>
        <time>2023-02-05T12:02:14Z</time>
      </trkpt>
      <trkpt lat="44.13758" lon="7.23446">
        <ele>2066.2</ele>
        <time>2023-02-05T12:02:15Z</time>
      </trkpt>
      <trkpt lat="44.13758" lon="7.23446">
        <ele>2066.3</ele>
        <time>2023-02-05T12:02:16Z</time>
      </trkpt>
      <trkpt lat="44.13758" lon="7.23446">
        <ele>2066.3</ele>
        <time>2023-02-05T12:02:17Z</time>
      </trkpt>
      <trkpt lat="44.13757" lon="7.23445">
        <ele>2066.3</ele>
        <time>2023-02-05T12:02:18Z</time>
      </trkpt>
      <trkpt lat="44.13757" lon="7.23445">
        <ele>2066.3</ele>
        <time>2023-02-05T12:02:19Z</time>
      </trkpt>
      <trkpt lat="44.13757" lon="7.23445">
        <ele>2066.4</ele>
        <time>2023-02-05T12:02:20Z</time>
      </trkpt>
      <trkpt lat="44.13758" lon="7.23445">
        <ele>2066.3</ele>
        <time>2023-02-05T12:02:21Z</time>
      </trkpt>
      <trkpt lat="44.13758" lon="7.23445">
        <ele>2066.2</ele>
        <time>2023-02-05T12:02:22Z</time>
      </trkpt>
      <trkpt lat="44.13758" lon="7.23445">
        <ele>2066.2</ele>
        <time>2023-02-05T12:02:23Z</time>
      </trkpt>
      <trkpt lat="44.13757" lon="7.23445">
        <ele>2066.2</ele>
        <time>2023-02-05T12:02:24Z</time>
      </trkpt>
      <trkpt lat="44.13756" lon="7.23446">
        <ele>2066.2</ele>
        <time>2023-02-05T12:02:25Z</time>
      </trkpt>
      <trkpt lat="44.13756" lon="7.23445">
        <ele>2066.3</ele>
        <time>2023-02-05T12:02:26Z</time>
      </trkpt>
      <trkpt lat="44.13756" lon="7.23444">
        <ele>2066.3</ele>
        <time>2023-02-05T12:02:27Z</time>
      </trkpt>
      <trkpt lat="44.13756" lon="7.23444">
        <ele>2066.3</ele>
        <time>2023-02-05T12:02:28Z</time>
      </trkpt>
      <trkpt lat="44.13757" lon="7.23444">
        <ele>2066.3</ele>
        <time>2023-02-05T12:02:29Z</time>
      </trkpt>
      <trkpt lat="44.13757" lon="7.23444">
        <ele>2066.4</ele>
        <time>2023-02-05T12:02:30Z</time>
      </trkpt>
      <trkpt lat="44.13757" lon="7.23443">
        <ele>2066.4</ele>
        <time>2023-02-05T12:02:31Z</time>
      </trkpt>
      <trkpt lat="44.13757" lon="7.23443">
        <ele>2066.3</ele>
        <time>2023-02-05T12:02:32Z</time>
      </trkpt>
      <trkpt lat="44.13757" lon="7.23443">
        <ele>2066.3</ele>
        <time>2023-02-05T12:02:33Z</time>
      </trkpt>
      <trkpt lat="44.13758" lon="7.23443">
        <ele>2066.2</ele>
        <time>2023-02-05T12:02:34Z</time>
      </trkpt>
      <trkpt lat="44.13758" lon="7.23443">
        <ele>2066.2</ele>
        <time>2023-02-05T12:02:35Z</time>
      </trkpt>
      <trkpt lat="44.13758" lon="7.23443">
        <ele>2066.2</ele>
        <time>2023-02-05T12:02:36Z</time>
      </trkpt>
      <trkpt lat="44.13757" lon="7.23443">
        <ele>2066.1</ele>
        <time>2023-02-05T12:02:37Z</time>
      </trkpt>
      <trkpt lat="44.13757" lon="7.23443">
        <ele>2066.1</ele>
        <time>2023-02-05T12:02:38Z</time>
      </trkpt>
      <trkpt lat="44.13757" lon="7.23443">
        <ele>2066.2</ele>
        <time>2023-02-05T12:02:39Z</time>
      </trkpt>
      <trkpt lat="44.13757" lon="7.23443">
        <ele>2066.2</ele>
        <time>2023-02-05T12:02:40Z</time>
      </trkpt>
      <trkpt lat="44.13757" lon="7.23443">
        <ele>2066.2</ele>
        <time>2023-02-05T12:02:41Z</time>
      </trkpt>
      <trkpt lat="44.13757" lon="7.23443">
        <ele>2066.2</ele>
        <time>2023-02-05T12:02:42Z</time>
      </trkpt>
      <trkpt lat="44.13757" lon="7.23443">
        <ele>2066.1</ele>
        <time>2023-02-05T12:02:43Z</time>
      </trkpt>
      <trkpt lat="44.13757" lon="7.23443">
        <ele>2066.1</ele>
        <time>2023-02-05T12:02:44Z</time>
      </trkpt>
      <trkpt lat="44.13757" lon="7.23443">
        <ele>2066.1</ele>
        <time>2023-02-05T12:02:45Z</time>
      </trkpt>
      <trkpt lat="44.13757" lon="7.23443">
        <ele>2066.1</ele>
        <time>2023-02-05T12:02:46Z</time>
      </trkpt>
      <trkpt lat="44.13757" lon="7.23443">
        <ele>2066.2</ele>
        <time>2023-02-05T12:02:47Z</time>
      </trkpt>
      <trkpt lat="44.13758" lon="7.23443">
        <ele>2066.3</ele>
        <time>2023-02-05T12:02:48Z</time>
      </trkpt>
      <trkpt lat="44.13758" lon="7.23444">
        <ele>2066.4</ele>
        <time>2023-02-05T12:02:49Z</time>
      </trkpt>
      <trkpt lat="44.13758" lon="7.23444">
        <ele>2066.4</ele>
        <time>2023-02-05T12:02:50Z</time>
      </trkpt>
      <trkpt lat="44.13758" lon="7.23444">
        <ele>2066.4</ele>
        <time>2023-02-05T12:02:51Z</time>
      </trkpt>
      <trkpt lat="44.13758" lon="7.23444">
        <ele>2066.4</ele>
        <time>2023-02-05T12:02:52Z</time>
      </trkpt>
      <trkpt lat="44.13758" lon="7.23444">
        <ele>2066.4</ele>
        <time>2023-02-05T12:02:53Z</time>
      </trkpt>
      <trkpt lat="44.13758" lon="7.23444">
        <ele>2066.4</ele>
        <time>2023-02-05T12:02:54Z</time>
      </trkpt>
      <trkpt lat="44.13759" lon="7.23445">
        <ele>2066.4</ele>
        <time>2023-02-05T12:02:55Z</time>
      </trkpt>
      <trkpt lat="44.13759" lon="7.23445">
        <ele>2066.4</ele>
        <time>2023-02-05T12:02:56Z</time>
      </trkpt>
      <trkpt lat="44.13759" lon="7.23445">
        <ele>2066.4</ele>
        <time>2023-02-05T12:02:57Z</time>
      </trkpt>
      <trkpt lat="44.13758" lon="7.23445">
        <ele>2066.4</ele>
        <time>2023-02-05T12:02:58Z</time>
      </trkpt>
      <trkpt lat="44.13758" lon="7.23445">
        <ele>2066.4</ele>
        <time>2023-02-05T12:02:59Z</time>
      </trkpt>
      <trkpt lat="44.13757" lon="7.23445">
        <ele>2066.4</ele>
        <time>2023-02-05T12:03:00Z</time>
      </trkpt>
      <trkpt lat="44.13757" lon="7.23445">
        <ele>2066.4</ele>
        <time>2023-02-05T12:03:01Z</time>
      </trkpt>
      <trkpt lat="44.13757" lon="7.23445">
        <ele>2066.4</ele>
        <time>2023-02-05T12:03:02Z</time>
      </trkpt>
      <trkpt lat="44.13757" lon="7.23446">
        <ele>2066.3</ele>
        <time>2023-02-05T12:03:03Z</time>
      </trkpt>
      <trkpt lat="44.13757" lon="7.23446">
        <ele>2066.4</ele>
        <time>2023-02-05T12:03:04Z</time>
      </trkpt>
      <trkpt lat="44.13757" lon="7.23446">
        <ele>2066.5</ele>
        <time>2023-02-05T12:03:05Z</time>
      </trkpt>
      <trkpt lat="44.13757" lon="7.23446">
        <ele>2066.4</ele>
        <time>2023-02-05T12:03:06Z</time>
      </trkpt>
      <trkpt lat="44.13757" lon="7.23446">
        <ele>2066.4</ele>
        <time>2023-02-05T12:03:07Z</time>
      </trkpt>
      <trkpt lat="44.13756" lon="7.23446">
        <ele>2066.4</ele>
        <time>2023-02-05T12:03:08Z</time>
      </trkpt>
      <trkpt lat="44.13756" lon="7.23446">
        <ele>2066.4</ele>
        <time>2023-02-05T12:03:09Z</time>
      </trkpt>
      <trkpt lat="44.13756" lon="7.23447">
        <ele>2066.4</ele>
        <time>2023-02-05T12:03:10Z</time>
      </trkpt>
      <trkpt lat="44.13756" lon="7.23447">
        <ele>2066.3</ele>
        <time>2023-02-05T12:03:11Z</time>
      </trkpt>
      <trkpt lat="44.13756" lon="7.23447">
        <ele>2066.2</ele>
        <time>2023-02-05T12:03:12Z</time>
      </trkpt>
      <trkpt lat="44.13755" lon="7.23447">
        <ele>2066.2</ele>
        <time>2023-02-05T12:03:13Z</time>
      </trkpt>
      <trkpt lat="44.13753" lon="7.23447">
        <ele>2066.2</ele>
        <time>2023-02-05T12:03:14Z</time>
      </trkpt>
      <trkpt lat="44.13753" lon="7.23447">
        <ele>2066.3</ele>
        <time>2023-02-05T12:03:15Z</time>
      </trkpt>
      <trkpt lat="44.13753" lon="7.23447">
        <ele>2066.3</ele>
        <time>2023-02-05T12:03:16Z</time>
      </trkpt>
      <trkpt lat="44.13752" lon="7.23447">
        <ele>2066.4</ele>
        <time>2023-02-05T12:03:17Z</time>
      </trkpt>
      <trkpt lat="44.13752" lon="7.23447">
        <ele>2066.4</ele>
        <time>2023-02-05T12:03:18Z</time>
      </trkpt>
      <trkpt lat="44.13752" lon="7.23446">
        <ele>2066.4</ele>
        <time>2023-02-05T12:03:19Z</time>
      </trkpt>
      <trkpt lat="44.13752" lon="7.23446">
        <ele>2066.4</ele>
        <time>2023-02-05T12:03:20Z</time>
      </trkpt>
      <trkpt lat="44.13752" lon="7.23447">
        <ele>2066.3</ele>
        <time>2023-02-05T12:03:21Z</time>
      </trkpt>
      <trkpt lat="44.13752" lon="7.23446">
        <ele>2066.3</ele>
        <time>2023-02-05T12:03:22Z</time>
      </trkpt>
      <trkpt lat="44.13752" lon="7.23446">
        <ele>2066.4</ele>
        <time>2023-02-05T12:03:23Z</time>
      </trkpt>
      <trkpt lat="44.13752" lon="7.23446">
        <ele>2066.4</ele>
        <time>2023-02-05T12:03:24Z</time>
      </trkpt>
      <trkpt lat="44.13752" lon="7.23446">
        <ele>2066.4</ele>
        <time>2023-02-05T12:03:25Z</time>
      </trkpt>
      <trkpt lat="44.13752" lon="7.23446">
        <ele>2066.4</ele>
        <time>2023-02-05T12:03:26Z</time>
      </trkpt>
      <trkpt lat="44.13753" lon="7.23446">
        <ele>2066.4</ele>
        <time>2023-02-05T12:03:27Z</time>
      </trkpt>
      <trkpt lat="44.13753" lon="7.23446">
        <ele>2066.4</ele>
        <time>2023-02-05T12:03:28Z</time>
      </trkpt>
      <trkpt lat="44.13754" lon="7.23446">
        <ele>2066.4</ele>
        <time>2023-02-05T12:03:29Z</time>
      </trkpt>
      <trkpt lat="44.13754" lon="7.23446">
        <ele>2066.3</ele>
        <time>2023-02-05T12:03:30Z</time>
      </trkpt>
      <trkpt lat="44.13754" lon="7.23446">
        <ele>2066.5</ele>
        <time>2023-02-05T12:03:31Z</time>
      </trkpt>
      <trkpt lat="44.13754" lon="7.23446">
        <ele>2066.5</ele>
        <time>2023-02-05T12:03:32Z</time>
      </trkpt>
      <trkpt lat="44.13755" lon="7.23446">
        <ele>2066.6</ele>
        <time>2023-02-05T12:03:33Z</time>
      </trkpt>
      <trkpt lat="44.13755" lon="7.23446">
        <ele>2066.6</ele>
        <time>2023-02-05T12:03:34Z</time>
      </trkpt>
      <trkpt lat="44.13755" lon="7.23446">
        <ele>2066.7</ele>
        <time>2023-02-05T12:03:35Z</time>
      </trkpt>
      <trkpt lat="44.13756" lon="7.23446">
        <ele>2066.6</ele>
        <time>2023-02-05T12:03:36Z</time>
      </trkpt>
      <trkpt lat="44.13756" lon="7.23446">
        <ele>2066.6</ele>
        <time>2023-02-05T12:03:37Z</time>
      </trkpt>
      <trkpt lat="44.13756" lon="7.23446">
        <ele>2066.6</ele>
        <time>2023-02-05T12:03:38Z</time>
      </trkpt>
      <trkpt lat="44.13756" lon="7.23446">
        <ele>2066.6</ele>
        <time>2023-02-05T12:03:39Z</time>
      </trkpt>
      <trkpt lat="44.13757" lon="7.23446">
        <ele>2066.5</ele>
        <time>2023-02-05T12:03:40Z</time>
      </trkpt>
      <trkpt lat="44.13758" lon="7.23446">
        <ele>2066.5</ele>
        <time>2023-02-05T12:03:41Z</time>
      </trkpt>
      <trkpt lat="44.13759" lon="7.23446">
        <ele>2066.4</ele>
        <time>2023-02-05T12:03:42Z</time>
      </trkpt>
      <trkpt lat="44.13759" lon="7.23446">
        <ele>2066.4</ele>
        <time>2023-02-05T12:03:43Z</time>
      </trkpt>
      <trkpt lat="44.1376" lon="7.23446">
        <ele>2066.3</ele>
        <time>2023-02-05T12:03:44Z</time>
      </trkpt>
      <trkpt lat="44.13759" lon="7.23446">
        <ele>2066.4</ele>
        <time>2023-02-05T12:03:45Z</time>
      </trkpt>
      <trkpt lat="44.13759" lon="7.23446">
        <ele>2066.4</ele>
        <time>2023-02-05T12:03:46Z</time>
      </trkpt>
      <trkpt lat="44.13759" lon="7.23446">
        <ele>2066.4</ele>
        <time>2023-02-05T12:03:47Z</time>
      </trkpt>
      <trkpt lat="44.13759" lon="7.23446">
        <ele>2066.4</ele>
        <time>2023-02-05T12:03:48Z</time>
      </trkpt>
      <trkpt lat="44.13759" lon="7.23446">
        <ele>2066.5</ele>
        <time>2023-02-05T12:03:49Z</time>
      </trkpt>
      <trkpt lat="44.1376" lon="7.23446">
        <ele>2066.5</ele>
        <time>2023-02-05T12:03:50Z</time>
      </trkpt>
      <trkpt lat="44.13759" lon="7.23446">
        <ele>2066.5</ele>
        <time>2023-02-05T12:03:51Z</time>
      </trkpt>
      <trkpt lat="44.13759" lon="7.23446">
        <ele>2066.5</ele>
        <time>2023-02-05T12:03:52Z</time>
      </trkpt>
      <trkpt lat="44.13759" lon="7.23445">
        <ele>2066.5</ele>
        <time>2023-02-05T12:03:53Z</time>
      </trkpt>
      <trkpt lat="44.13758" lon="7.23445">
        <ele>2066.4</ele>
        <time>2023-02-05T12:03:54Z</time>
      </trkpt>
      <trkpt lat="44.13759" lon="7.23445">
        <ele>2066.4</ele>
        <time>2023-02-05T12:03:55Z</time>
      </trkpt>
      <trkpt lat="44.13758" lon="7.23445">
        <ele>2066.4</ele>
        <time>2023-02-05T12:03:56Z</time>
      </trkpt>
      <trkpt lat="44.13758" lon="7.23446">
        <ele>2066.4</ele>
        <time>2023-02-05T12:03:57Z</time>
      </trkpt>
      <trkpt lat="44.13758" lon="7.23446">
        <ele>2066.4</ele>
        <time>2023-02-05T12:03:58Z</time>
      </trkpt>
      <trkpt lat="44.13758" lon="7.23446">
        <ele>2066.4</ele>
        <time>2023-02-05T12:03:59Z</time>
      </trkpt>
      <trkpt lat="44.13757" lon="7.23445">
        <ele>2066.4</ele>
        <time>2023-02-05T12:04:00Z</time>
      </trkpt>
      <trkpt lat="44.13757" lon="7.23445">
        <ele>2066.4</ele>
        <time>2023-02-05T12:04:01Z</time>
      </trkpt>
      <trkpt lat="44.13757" lon="7.23445">
        <ele>2066.4</ele>
        <time>2023-02-05T12:04:02Z</time>
      </trkpt>
      <trkpt lat="44.13756" lon="7.23445">
        <ele>2066.4</ele>
        <time>2023-02-05T12:04:03Z</time>
      </trkpt>
      <trkpt lat="44.13756" lon="7.23445">
        <ele>2066.3</ele>
        <time>2023-02-05T12:04:04Z</time>
      </trkpt>
      <trkpt lat="44.13756" lon="7.23445">
        <ele>2066.2</ele>
        <time>2023-02-05T12:04:05Z</time>
      </trkpt>
      <trkpt lat="44.13756" lon="7.23445">
        <ele>2066.2</ele>
        <time>2023-02-05T12:04:06Z</time>
      </trkpt>
      <trkpt lat="44.13756" lon="7.23445">
        <ele>2066.2</ele>
        <time>2023-02-05T12:04:07Z</time>
      </trkpt>
      <trkpt lat="44.13756" lon="7.23445">
        <ele>2066.2</ele>
        <time>2023-02-05T12:04:08Z</time>
      </trkpt>
      <trkpt lat="44.13756" lon="7.23445">
        <ele>2066.3</ele>
        <time>2023-02-05T12:04:09Z</time>
      </trkpt>
      <trkpt lat="44.13756" lon="7.23445">
        <ele>2066.3</ele>
        <time>2023-02-05T12:04:10Z</time>
      </trkpt>
      <trkpt lat="44.13756" lon="7.23445">
        <ele>2066.3</ele>
        <time>2023-02-05T12:04:11Z</time>
      </trkpt>
      <trkpt lat="44.13756" lon="7.23445">
        <ele>2066.4</ele>
        <time>2023-02-05T12:04:12Z</time>
      </trkpt>
      <trkpt lat="44.13755" lon="7.23445">
        <ele>2066.4</ele>
        <time>2023-02-05T12:04:13Z</time>
      </trkpt>
      <trkpt lat="44.13755" lon="7.23446">
        <ele>2066.4</ele>
        <time>2023-02-05T12:04:14Z</time>
      </trkpt>
      <trkpt lat="44.13756" lon="7.23446">
        <ele>2066.4</ele>
        <time>2023-02-05T12:04:15Z</time>
      </trkpt>
      <trkpt lat="44.13756" lon="7.23446">
        <ele>2066.4</ele>
        <time>2023-02-05T12:04:16Z</time>
      </trkpt>
      <trkpt lat="44.13756" lon="7.23446">
        <ele>2066.5</ele>
        <time>2023-02-05T12:04:17Z</time>
      </trkpt>
      <trkpt lat="44.13756" lon="7.23446">
        <ele>2066.4</ele>
        <time>2023-02-05T12:04:18Z</time>
      </trkpt>
      <trkpt lat="44.13756" lon="7.23446">
        <ele>2066.4</ele>
        <time>2023-02-05T12:04:19Z</time>
      </trkpt>
      <trkpt lat="44.13756" lon="7.23446">
        <ele>2066.4</ele>
        <time>2023-02-05T12:04:20Z</time>
      </trkpt>
      <trkpt lat="44.13757" lon="7.23446">
        <ele>2066.4</ele>
        <time>2023-02-05T12:04:21Z</time>
      </trkpt>
      <trkpt lat="44.13757" lon="7.23446">
        <ele>2066.4</ele>
        <time>2023-02-05T12:04:22Z</time>
      </trkpt>
      <trkpt lat="44.13758" lon="7.23446">
        <ele>2066.4</ele>
        <time>2023-02-05T12:04:23Z</time>
      </trkpt>
      <trkpt lat="44.13758" lon="7.23446">
        <ele>2066.4</ele>
        <time>2023-02-05T12:04:24Z</time>
      </trkpt>
      <trkpt lat="44.13758" lon="7.23446">
        <ele>2066.4</ele>
        <time>2023-02-05T12:04:25Z</time>
      </trkpt>
      <trkpt lat="44.13759" lon="7.23446">
        <ele>2066.5</ele>
        <time>2023-02-05T12:04:26Z</time>
      </trkpt>
      <trkpt lat="44.13759" lon="7.23446">
        <ele>2066.5</ele>
        <time>2023-02-05T12:04:27Z</time>
      </trkpt>
      <trkpt lat="44.1376" lon="7.23446">
        <ele>2066.5</ele>
        <time>2023-02-05T12:04:28Z</time>
      </trkpt>
      <trkpt lat="44.1376" lon="7.23446">
        <ele>2066.6</ele>
        <time>2023-02-05T12:04:29Z</time>
      </trkpt>
      <trkpt lat="44.1376" lon="7.23446">
        <ele>2066.5</ele>
        <time>2023-02-05T12:04:30Z</time>
      </trkpt>
      <trkpt lat="44.13759" lon="7.23446">
        <ele>2066.5</ele>
        <time>2023-02-05T12:04:31Z</time>
      </trkpt>
      <trkpt lat="44.13761" lon="7.23447">
        <ele>2066.5</ele>
        <time>2023-02-05T12:04:32Z</time>
      </trkpt>
      <trkpt lat="44.13762" lon="7.23447">
        <ele>2066.6</ele>
        <time>2023-02-05T12:04:33Z</time>
      </trkpt>
      <trkpt lat="44.13763" lon="7.23447">
        <ele>2066.5</ele>
        <time>2023-02-05T12:04:34Z</time>
      </trkpt>
      <trkpt lat="44.13763" lon="7.23447">
        <ele>2066.5</ele>
        <time>2023-02-05T12:04:35Z</time>
      </trkpt>
      <trkpt lat="44.13765" lon="7.23448">
        <ele>2066.5</ele>
        <time>2023-02-05T12:04:36Z</time>
      </trkpt>
      <trkpt lat="44.13764" lon="7.23448">
        <ele>2066.5</ele>
        <time>2023-02-05T12:04:37Z</time>
      </trkpt>
      <trkpt lat="44.13765" lon="7.23448">
        <ele>2066.5</ele>
        <time>2023-02-05T12:04:38Z</time>
      </trkpt>
      <trkpt lat="44.13766" lon="7.23448">
        <ele>2066.5</ele>
        <time>2023-02-05T12:04:39Z</time>
      </trkpt>
      <trkpt lat="44.13766" lon="7.23448">
        <ele>2066.5</ele>
        <time>2023-02-05T12:04:40Z</time>
      </trkpt>
      <trkpt lat="44.13766" lon="7.23448">
        <ele>2066.5</ele>
        <time>2023-02-05T12:04:41Z</time>
      </trkpt>
      <trkpt lat="44.13767" lon="7.23449">
        <ele>2066.5</ele>
        <time>2023-02-05T12:04:42Z</time>
      </trkpt>
      <trkpt lat="44.13767" lon="7.23449">
        <ele>2066.4</ele>
        <time>2023-02-05T12:04:43Z</time>
      </trkpt>
      <trkpt lat="44.13767" lon="7.23449">
        <ele>2066.4</ele>
        <time>2023-02-05T12:04:44Z</time>
      </trkpt>
      <trkpt lat="44.13767" lon="7.23449">
        <ele>2066.4</ele>
        <time>2023-02-05T12:04:45Z</time>
      </trkpt>
      <trkpt lat="44.13768" lon="7.2345">
        <ele>2066.3</ele>
        <time>2023-02-05T12:04:46Z</time>
      </trkpt>
      <trkpt lat="44.13768" lon="7.2345">
        <ele>2066.3</ele>
        <time>2023-02-05T12:04:47Z</time>
      </trkpt>
      <trkpt lat="44.13768" lon="7.2345">
        <ele>2066.3</ele>
        <time>2023-02-05T12:04:48Z</time>
      </trkpt>
      <trkpt lat="44.13768" lon="7.2345">
        <ele>2066.2</ele>
        <time>2023-02-05T12:04:49Z</time>
      </trkpt>
      <trkpt lat="44.13768" lon="7.2345">
        <ele>2066.1</ele>
        <time>2023-02-05T12:04:50Z</time>
      </trkpt>
      <trkpt lat="44.13768" lon="7.2345">
        <ele>2066</ele>
        <time>2023-02-05T12:04:51Z</time>
      </trkpt>
      <trkpt lat="44.13768" lon="7.2345">
        <ele>2066</ele>
        <time>2023-02-05T12:04:52Z</time>
      </trkpt>
      <trkpt lat="44.13769" lon="7.23449">
        <ele>2065.9</ele>
        <time>2023-02-05T12:04:53Z</time>
      </trkpt>
      <trkpt lat="44.13769" lon="7.23449">
        <ele>2065.9</ele>
        <time>2023-02-05T12:04:54Z</time>
      </trkpt>
      <trkpt lat="44.13769" lon="7.23449">
        <ele>2065.9</ele>
        <time>2023-02-05T12:04:55Z</time>
      </trkpt>
      <trkpt lat="44.13769" lon="7.23449">
        <ele>2065.9</ele>
        <time>2023-02-05T12:04:56Z</time>
      </trkpt>
      <trkpt lat="44.13769" lon="7.23449">
        <ele>2065.9</ele>
        <time>2023-02-05T12:04:57Z</time>
      </trkpt>
      <trkpt lat="44.13769" lon="7.23449">
        <ele>2065.9</ele>
        <time>2023-02-05T12:04:58Z</time>
      </trkpt>
      <trkpt lat="44.13769" lon="7.23449">
        <ele>2065.8</ele>
        <time>2023-02-05T12:04:59Z</time>
      </trkpt>
      <trkpt lat="44.13768" lon="7.23449">
        <ele>2065.7</ele>
        <time>2023-02-05T12:05:00Z</time>
      </trkpt>
      <trkpt lat="44.13768" lon="7.23449">
        <ele>2065.4</ele>
        <time>2023-02-05T12:05:01Z</time>
      </trkpt>
      <trkpt lat="44.13767" lon="7.2345">
        <ele>2065.3</ele>
        <time>2023-02-05T12:05:02Z</time>
      </trkpt>
      <trkpt lat="44.13767" lon="7.2345">
        <ele>2065.2</ele>
        <time>2023-02-05T12:05:03Z</time>
      </trkpt>
      <trkpt lat="44.13767" lon="7.2345">
        <ele>2065.1</ele>
        <time>2023-02-05T12:05:04Z</time>
      </trkpt>
      <trkpt lat="44.13767" lon="7.2345">
        <ele>2065</ele>
        <time>2023-02-05T12:05:05Z</time>
      </trkpt>
      <trkpt lat="44.13766" lon="7.2345">
        <ele>2065</ele>
        <time>2023-02-05T12:05:06Z</time>
      </trkpt>
      <trkpt lat="44.13766" lon="7.23451">
        <ele>2065.1</ele>
        <time>2023-02-05T12:05:07Z</time>
      </trkpt>
      <trkpt lat="44.13766" lon="7.23452">
        <ele>2065</ele>
        <time>2023-02-05T12:05:08Z</time>
      </trkpt>
      <trkpt lat="44.13766" lon="7.23452">
        <ele>2065.1</ele>
        <time>2023-02-05T12:05:09Z</time>
      </trkpt>
      <trkpt lat="44.13765" lon="7.23452">
        <ele>2065.1</ele>
        <time>2023-02-05T12:05:10Z</time>
      </trkpt>
      <trkpt lat="44.13765" lon="7.23453">
        <ele>2065.2</ele>
        <time>2023-02-05T12:05:11Z</time>
      </trkpt>
      <trkpt lat="44.13765" lon="7.23453">
        <ele>2065.3</ele>
        <time>2023-02-05T12:05:12Z</time>
      </trkpt>
      <trkpt lat="44.13765" lon="7.23454">
        <ele>2065.3</ele>
        <time>2023-02-05T12:05:13Z</time>
      </trkpt>
      <trkpt lat="44.13765" lon="7.23454">
        <ele>2065.4</ele>
        <time>2023-02-05T12:05:14Z</time>
      </trkpt>
      <trkpt lat="44.13765" lon="7.23455">
        <ele>2065.3</ele>
        <time>2023-02-05T12:05:15Z</time>
      </trkpt>
      <trkpt lat="44.13765" lon="7.23455">
        <ele>2065.3</ele>
        <time>2023-02-05T12:05:16Z</time>
      </trkpt>
      <trkpt lat="44.13765" lon="7.23455">
        <ele>2065.3</ele>
        <time>2023-02-05T12:05:17Z</time>
      </trkpt>
      <trkpt lat="44.13764" lon="7.23456">
        <ele>2065.2</ele>
        <time>2023-02-05T12:05:18Z</time>
      </trkpt>
      <trkpt lat="44.13764" lon="7.23456">
        <ele>2065.3</ele>
        <time>2023-02-05T12:05:19Z</time>
      </trkpt>
      <trkpt lat="44.13764" lon="7.23456">
        <ele>2065.3</ele>
        <time>2023-02-05T12:05:20Z</time>
      </trkpt>
      <trkpt lat="44.13764" lon="7.23456">
        <ele>2065.4</ele>
        <time>2023-02-05T12:05:21Z</time>
      </trkpt>
      <trkpt lat="44.13763" lon="7.23457">
        <ele>2065.4</ele>
        <time>2023-02-05T12:05:22Z</time>
      </trkpt>
      <trkpt lat="44.13763" lon="7.23457">
        <ele>2065.4</ele>
        <time>2023-02-05T12:05:23Z</time>
      </trkpt>
      <trkpt lat="44.13763" lon="7.23457">
        <ele>2065.4</ele>
        <time>2023-02-05T12:05:24Z</time>
      </trkpt>
      <trkpt lat="44.13763" lon="7.23458">
        <ele>2065.5</ele>
        <time>2023-02-05T12:05:25Z</time>
      </trkpt>
      <trkpt lat="44.13763" lon="7.23458">
        <ele>2065.5</ele>
        <time>2023-02-05T12:05:26Z</time>
      </trkpt>
      <trkpt lat="44.13763" lon="7.23458">
        <ele>2065.5</ele>
        <time>2023-02-05T12:05:27Z</time>
      </trkpt>
      <trkpt lat="44.13763" lon="7.23458">
        <ele>2065.5</ele>
        <time>2023-02-05T12:05:28Z</time>
      </trkpt>
      <trkpt lat="44.13763" lon="7.23458">
        <ele>2065.5</ele>
        <time>2023-02-05T12:05:29Z</time>
      </trkpt>
      <trkpt lat="44.13763" lon="7.23459">
        <ele>2065.5</ele>
        <time>2023-02-05T12:05:30Z</time>
      </trkpt>
      <trkpt lat="44.13763" lon="7.23459">
        <ele>2065.6</ele>
        <time>2023-02-05T12:05:31Z</time>
      </trkpt>
      <trkpt lat="44.13763" lon="7.23459">
        <ele>2065.6</ele>
        <time>2023-02-05T12:05:32Z</time>
      </trkpt>
      <trkpt lat="44.13763" lon="7.23459">
        <ele>2065.6</ele>
        <time>2023-02-05T12:05:33Z</time>
      </trkpt>
      <trkpt lat="44.13763" lon="7.2346">
        <ele>2065.7</ele>
        <time>2023-02-05T12:05:34Z</time>
      </trkpt>
      <trkpt lat="44.13762" lon="7.2346">
        <ele>2065.6</ele>
        <time>2023-02-05T12:05:35Z</time>
      </trkpt>
      <trkpt lat="44.13762" lon="7.2346">
        <ele>2065.6</ele>
        <time>2023-02-05T12:05:36Z</time>
      </trkpt>
      <trkpt lat="44.13762" lon="7.2346">
        <ele>2065.6</ele>
        <time>2023-02-05T12:05:37Z</time>
      </trkpt>
      <trkpt lat="44.13762" lon="7.23461">
        <ele>2065.6</ele>
        <time>2023-02-05T12:05:38Z</time>
      </trkpt>
      <trkpt lat="44.13762" lon="7.23461">
        <ele>2065.6</ele>
        <time>2023-02-05T12:05:39Z</time>
      </trkpt>
      <trkpt lat="44.13761" lon="7.23461">
        <ele>2065.6</ele>
        <time>2023-02-05T12:05:40Z</time>
      </trkpt>
      <trkpt lat="44.13761" lon="7.23461">
        <ele>2065.5</ele>
        <time>2023-02-05T12:05:41Z</time>
      </trkpt>
      <trkpt lat="44.13761" lon="7.23462">
        <ele>2065.5</ele>
        <time>2023-02-05T12:05:42Z</time>
      </trkpt>
      <trkpt lat="44.13761" lon="7.23462">
        <ele>2065.5</ele>
        <time>2023-02-05T12:05:43Z</time>
      </trkpt>
      <trkpt lat="44.13761" lon="7.23461">
        <ele>2065.5</ele>
        <time>2023-02-05T12:05:44Z</time>
      </trkpt>
      <trkpt lat="44.1376" lon="7.23461">
        <ele>2065.6</ele>
        <time>2023-02-05T12:05:45Z</time>
      </trkpt>
      <trkpt lat="44.13761" lon="7.23461">
        <ele>2065.7</ele>
        <time>2023-02-05T12:05:46Z</time>
      </trkpt>
      <trkpt lat="44.1376" lon="7.2346">
        <ele>2065.8</ele>
        <time>2023-02-05T12:05:47Z</time>
      </trkpt>
      <trkpt lat="44.1376" lon="7.2346">
        <ele>2065.7</ele>
        <time>2023-02-05T12:05:48Z</time>
      </trkpt>
      <trkpt lat="44.1376" lon="7.23461">
        <ele>2065.8</ele>
        <time>2023-02-05T12:05:49Z</time>
      </trkpt>
      <trkpt lat="44.13759" lon="7.23461">
        <ele>2065.8</ele>
        <time>2023-02-05T12:05:50Z</time>
      </trkpt>
      <trkpt lat="44.13759" lon="7.23461">
        <ele>2065.8</ele>
        <time>2023-02-05T12:05:51Z</time>
      </trkpt>
      <trkpt lat="44.13759" lon="7.23461">
        <ele>2065.8</ele>
        <time>2023-02-05T12:05:52Z</time>
      </trkpt>
      <trkpt lat="44.13759" lon="7.23461">
        <ele>2065.8</ele>
        <time>2023-02-05T12:05:53Z</time>
      </trkpt>
      <trkpt lat="44.13759" lon="7.23462">
        <ele>2065.8</ele>
        <time>2023-02-05T12:05:54Z</time>
      </trkpt>
      <trkpt lat="44.1376" lon="7.23462">
        <ele>2065.7</ele>
        <time>2023-02-05T12:05:55Z</time>
      </trkpt>
      <trkpt lat="44.1376" lon="7.23462">
        <ele>2065.7</ele>
        <time>2023-02-05T12:05:56Z</time>
      </trkpt>
      <trkpt lat="44.1376" lon="7.23462">
        <ele>2065.6</ele>
        <time>2023-02-05T12:05:57Z</time>
      </trkpt>
      <trkpt lat="44.1376" lon="7.23462">
        <ele>2065.6</ele>
        <time>2023-02-05T12:05:58Z</time>
      </trkpt>
      <trkpt lat="44.1376" lon="7.23462">
        <ele>2065.6</ele>
        <time>2023-02-05T12:05:59Z</time>
      </trkpt>
      <trkpt lat="44.1376" lon="7.23462">
        <ele>2065.5</ele>
        <time>2023-02-05T12:06:00Z</time>
      </trkpt>
      <trkpt lat="44.1376" lon="7.23462">
        <ele>2065.5</ele>
        <time>2023-02-05T12:06:01Z</time>
      </trkpt>
      <trkpt lat="44.1376" lon="7.23462">
        <ele>2065.4</ele>
        <time>2023-02-05T12:06:02Z</time>
      </trkpt>
      <trkpt lat="44.1376" lon="7.23462">
        <ele>2065.4</ele>
        <time>2023-02-05T12:06:03Z</time>
      </trkpt>
      <trkpt lat="44.1376" lon="7.23462">
        <ele>2065.3</ele>
        <time>2023-02-05T12:06:04Z</time>
      </trkpt>
      <trkpt lat="44.1376" lon="7.23462">
        <ele>2065.2</ele>
        <time>2023-02-05T12:06:05Z</time>
      </trkpt>
      <trkpt lat="44.1376" lon="7.23462">
        <ele>2065.2</ele>
        <time>2023-02-05T12:06:06Z</time>
      </trkpt>
      <trkpt lat="44.1376" lon="7.23463">
        <ele>2065.3</ele>
        <time>2023-02-05T12:06:07Z</time>
      </trkpt>
      <trkpt lat="44.1376" lon="7.23463">
        <ele>2065.3</ele>
        <time>2023-02-05T12:06:08Z</time>
      </trkpt>
      <trkpt lat="44.1376" lon="7.23463">
        <ele>2065.4</ele>
        <time>2023-02-05T12:06:09Z</time>
      </trkpt>
      <trkpt lat="44.1376" lon="7.23462">
        <ele>2065.4</ele>
        <time>2023-02-05T12:06:10Z</time>
      </trkpt>
      <trkpt lat="44.1376" lon="7.23463">
        <ele>2065.4</ele>
        <time>2023-02-05T12:06:11Z</time>
      </trkpt>
      <trkpt lat="44.13759" lon="7.23463">
        <ele>2065.4</ele>
        <time>2023-02-05T12:06:12Z</time>
      </trkpt>
      <trkpt lat="44.13759" lon="7.23463">
        <ele>2065.4</ele>
        <time>2023-02-05T12:06:13Z</time>
      </trkpt>
      <trkpt lat="44.13759" lon="7.23463">
        <ele>2065.4</ele>
        <time>2023-02-05T12:06:14Z</time>
      </trkpt>
      <trkpt lat="44.13759" lon="7.23463">
        <ele>2065.4</ele>
        <time>2023-02-05T12:06:15Z</time>
      </trkpt>
      <trkpt lat="44.13759" lon="7.23464">
        <ele>2065.4</ele>
        <time>2023-02-05T12:06:16Z</time>
      </trkpt>
      <trkpt lat="44.13758" lon="7.23464">
        <ele>2065.4</ele>
        <time>2023-02-05T12:06:17Z</time>
      </trkpt>
      <trkpt lat="44.13758" lon="7.23464">
        <ele>2065.4</ele>
        <time>2023-02-05T12:06:18Z</time>
      </trkpt>
      <trkpt lat="44.13758" lon="7.23464">
        <ele>2065.4</ele>
        <time>2023-02-05T12:06:19Z</time>
      </trkpt>
      <trkpt lat="44.13758" lon="7.23465">
        <ele>2065.4</ele>
        <time>2023-02-05T12:06:20Z</time>
      </trkpt>
      <trkpt lat="44.13757" lon="7.23465">
        <ele>2065.4</ele>
        <time>2023-02-05T12:06:21Z</time>
      </trkpt>
      <trkpt lat="44.13757" lon="7.23465">
        <ele>2065.4</ele>
        <time>2023-02-05T12:06:22Z</time>
      </trkpt>
      <trkpt lat="44.13757" lon="7.23466">
        <ele>2065.4</ele>
        <time>2023-02-05T12:06:23Z</time>
      </trkpt>
      <trkpt lat="44.13757" lon="7.23466">
        <ele>2065.3</ele>
        <time>2023-02-05T12:06:24Z</time>
      </trkpt>
      <trkpt lat="44.13757" lon="7.23466">
        <ele>2065.2</ele>
        <time>2023-02-05T12:06:25Z</time>
      </trkpt>
      <trkpt lat="44.13757" lon="7.23466">
        <ele>2065.1</ele>
        <time>2023-02-05T12:06:26Z</time>
      </trkpt>
      <trkpt lat="44.13757" lon="7.23467">
        <ele>2065</ele>
        <time>2023-02-05T12:06:27Z</time>
      </trkpt>
      <trkpt lat="44.13757" lon="7.23467">
        <ele>2064.9</ele>
        <time>2023-02-05T12:06:28Z</time>
      </trkpt>
      <trkpt lat="44.13757" lon="7.23467">
        <ele>2065</ele>
        <time>2023-02-05T12:06:29Z</time>
      </trkpt>
      <trkpt lat="44.13757" lon="7.23467">
        <ele>2065</ele>
        <time>2023-02-05T12:06:30Z</time>
      </trkpt>
      <trkpt lat="44.13756" lon="7.23468">
        <ele>2065.1</ele>
        <time>2023-02-05T12:06:31Z</time>
      </trkpt>
      <trkpt lat="44.13756" lon="7.23468">
        <ele>2065.2</ele>
        <time>2023-02-05T12:06:32Z</time>
      </trkpt>
      <trkpt lat="44.13756" lon="7.23468">
        <ele>2065.3</ele>
        <time>2023-02-05T12:06:33Z</time>
      </trkpt>
      <trkpt lat="44.13756" lon="7.23469">
        <ele>2065.4</ele>
        <time>2023-02-05T12:06:34Z</time>
      </trkpt>
      <trkpt lat="44.13756" lon="7.23468">
        <ele>2065.4</ele>
        <time>2023-02-05T12:06:35Z</time>
      </trkpt>
      <trkpt lat="44.13756" lon="7.23469">
        <ele>2065.3</ele>
        <time>2023-02-05T12:06:36Z</time>
      </trkpt>
      <trkpt lat="44.13756" lon="7.23469">
        <ele>2065.3</ele>
        <time>2023-02-05T12:06:37Z</time>
      </trkpt>
      <trkpt lat="44.13756" lon="7.23469">
        <ele>2065.3</ele>
        <time>2023-02-05T12:06:38Z</time>
      </trkpt>
      <trkpt lat="44.13756" lon="7.23469">
        <ele>2065.4</ele>
        <time>2023-02-05T12:06:39Z</time>
      </trkpt>
      <trkpt lat="44.13756" lon="7.23469">
        <ele>2065.5</ele>
        <time>2023-02-05T12:06:40Z</time>
      </trkpt>
      <trkpt lat="44.13756" lon="7.23469">
        <ele>2065.5</ele>
        <time>2023-02-05T12:06:41Z</time>
      </trkpt>
      <trkpt lat="44.13756" lon="7.23469">
        <ele>2065.5</ele>
        <time>2023-02-05T12:06:42Z</time>
      </trkpt>
      <trkpt lat="44.13756" lon="7.23469">
        <ele>2065.5</ele>
        <time>2023-02-05T12:06:43Z</time>
      </trkpt>
      <trkpt lat="44.13756" lon="7.23469">
        <ele>2065.5</ele>
        <time>2023-02-05T12:06:44Z</time>
      </trkpt>
      <trkpt lat="44.13756" lon="7.23469">
        <ele>2065.5</ele>
        <time>2023-02-05T12:06:45Z</time>
      </trkpt>
      <trkpt lat="44.13756" lon="7.23469">
        <ele>2065.4</ele>
        <time>2023-02-05T12:06:46Z</time>
      </trkpt>
      <trkpt lat="44.13756" lon="7.23468">
        <ele>2065.4</ele>
        <time>2023-02-05T12:06:47Z</time>
      </trkpt>
      <trkpt lat="44.13756" lon="7.23468">
        <ele>2064.9</ele>
        <time>2023-02-05T12:06:48Z</time>
      </trkpt>
      <trkpt lat="44.13756" lon="7.23468">
        <ele>2064.9</ele>
        <time>2023-02-05T12:06:49Z</time>
      </trkpt>
      <trkpt lat="44.13757" lon="7.23467">
        <ele>2064.9</ele>
        <time>2023-02-05T12:06:50Z</time>
      </trkpt>
      <trkpt lat="44.13757" lon="7.23467">
        <ele>2065</ele>
        <time>2023-02-05T12:06:51Z</time>
      </trkpt>
      <trkpt lat="44.13757" lon="7.23467">
        <ele>2065</ele>
        <time>2023-02-05T12:06:52Z</time>
      </trkpt>
      <trkpt lat="44.13757" lon="7.23466">
        <ele>2065.1</ele>
        <time>2023-02-05T12:06:53Z</time>
      </trkpt>
      <trkpt lat="44.13757" lon="7.23466">
        <ele>2065.1</ele>
        <time>2023-02-05T12:06:54Z</time>
      </trkpt>
      <trkpt lat="44.13756" lon="7.23466">
        <ele>2065.2</ele>
        <time>2023-02-05T12:06:55Z</time>
      </trkpt>
      <trkpt lat="44.13756" lon="7.23466">
        <ele>2065.3</ele>
        <time>2023-02-05T12:06:56Z</time>
      </trkpt>
      <trkpt lat="44.13756" lon="7.23465">
        <ele>2065.3</ele>
        <time>2023-02-05T12:06:57Z</time>
      </trkpt>
      <trkpt lat="44.13756" lon="7.23465">
        <ele>2065.4</ele>
        <time>2023-02-05T12:06:58Z</time>
      </trkpt>
      <trkpt lat="44.13756" lon="7.23465">
        <ele>2065.5</ele>
        <time>2023-02-05T12:06:59Z</time>
      </trkpt>
      <trkpt lat="44.13757" lon="7.23465">
        <ele>2065.6</ele>
        <time>2023-02-05T12:07:00Z</time>
      </trkpt>
      <trkpt lat="44.13757" lon="7.23465">
        <ele>2065.6</ele>
        <time>2023-02-05T12:07:01Z</time>
      </trkpt>
      <trkpt lat="44.13757" lon="7.23464">
        <ele>2065.6</ele>
        <time>2023-02-05T12:07:02Z</time>
      </trkpt>
      <trkpt lat="44.13757" lon="7.23464">
        <ele>2065.6</ele>
        <time>2023-02-05T12:07:03Z</time>
      </trkpt>
      <trkpt lat="44.13757" lon="7.23464">
        <ele>2065.7</ele>
        <time>2023-02-05T12:07:04Z</time>
      </trkpt>
      <trkpt lat="44.13757" lon="7.23464">
        <ele>2065.8</ele>
        <time>2023-02-05T12:07:05Z</time>
      </trkpt>
      <trkpt lat="44.13757" lon="7.23464">
        <ele>2065.7</ele>
        <time>2023-02-05T12:07:06Z</time>
      </trkpt>
      <trkpt lat="44.13757" lon="7.23463">
        <ele>2065.6</ele>
        <time>2023-02-05T12:07:07Z</time>
      </trkpt>
      <trkpt lat="44.13757" lon="7.23463">
        <ele>2065.7</ele>
        <time>2023-02-05T12:07:08Z</time>
      </trkpt>
      <trkpt lat="44.13757" lon="7.23463">
        <ele>2065.8</ele>
        <time>2023-02-05T12:07:09Z</time>
      </trkpt>
      <trkpt lat="44.13757" lon="7.23463">
        <ele>2065.8</ele>
        <time>2023-02-05T12:07:10Z</time>
      </trkpt>
      <trkpt lat="44.13757" lon="7.23462">
        <ele>2065.8</ele>
        <time>2023-02-05T12:07:11Z</time>
      </trkpt>
      <trkpt lat="44.13757" lon="7.23462">
        <ele>2065.8</ele>
        <time>2023-02-05T12:07:12Z</time>
      </trkpt>
      <trkpt lat="44.13757" lon="7.23462">
        <ele>2065.8</ele>
        <time>2023-02-05T12:07:13Z</time>
      </trkpt>
      <trkpt lat="44.13758" lon="7.23462">
        <ele>2065.7</ele>
        <time>2023-02-05T12:07:14Z</time>
      </trkpt>
      <trkpt lat="44.13758" lon="7.23461">
        <ele>2065.6</ele>
        <time>2023-02-05T12:07:15Z</time>
      </trkpt>
      <trkpt lat="44.13758" lon="7.23461">
        <ele>2065.6</ele>
        <time>2023-02-05T12:07:16Z</time>
      </trkpt>
      <trkpt lat="44.13758" lon="7.23461">
        <ele>2065.6</ele>
        <time>2023-02-05T12:07:17Z</time>
      </trkpt>
      <trkpt lat="44.13758" lon="7.23461">
        <ele>2065.7</ele>
        <time>2023-02-05T12:07:18Z</time>
      </trkpt>
      <trkpt lat="44.13758" lon="7.23461">
        <ele>2065.7</ele>
        <time>2023-02-05T12:07:19Z</time>
      </trkpt>
      <trkpt lat="44.13758" lon="7.23461">
        <ele>2065.6</ele>
        <time>2023-02-05T12:07:20Z</time>
      </trkpt>
      <trkpt lat="44.13758" lon="7.2346">
        <ele>2065.5</ele>
        <time>2023-02-05T12:07:21Z</time>
      </trkpt>
      <trkpt lat="44.13758" lon="7.2346">
        <ele>2065.5</ele>
        <time>2023-02-05T12:07:22Z</time>
      </trkpt>
      <trkpt lat="44.13758" lon="7.2346">
        <ele>2065.4</ele>
        <time>2023-02-05T12:07:23Z</time>
      </trkpt>
      <trkpt lat="44.13758" lon="7.2346">
        <ele>2065.4</ele>
        <time>2023-02-05T12:07:24Z</time>
      </trkpt>
      <trkpt lat="44.13758" lon="7.2346">
        <ele>2065.3</ele>
        <time>2023-02-05T12:07:25Z</time>
      </trkpt>
      <trkpt lat="44.13758" lon="7.2346">
        <ele>2065.3</ele>
        <time>2023-02-05T12:07:26Z</time>
      </trkpt>
      <trkpt lat="44.13758" lon="7.2346">
        <ele>2065.3</ele>
        <time>2023-02-05T12:07:27Z</time>
      </trkpt>
      <trkpt lat="44.13758" lon="7.2346">
        <ele>2065.3</ele>
        <time>2023-02-05T12:07:28Z</time>
      </trkpt>
      <trkpt lat="44.13758" lon="7.23461">
        <ele>2065.3</ele>
        <time>2023-02-05T12:07:29Z</time>
      </trkpt>
      <trkpt lat="44.13758" lon="7.2346">
        <ele>2065.3</ele>
        <time>2023-02-05T12:07:30Z</time>
      </trkpt>
      <trkpt lat="44.13758" lon="7.23461">
        <ele>2065.3</ele>
        <time>2023-02-05T12:07:31Z</time>
      </trkpt>
      <trkpt lat="44.13758" lon="7.23461">
        <ele>2064.8</ele>
        <time>2023-02-05T12:07:32Z</time>
      </trkpt>
      <trkpt lat="44.13758" lon="7.23461">
        <ele>2065</ele>
        <time>2023-02-05T12:07:33Z</time>
      </trkpt>
      <trkpt lat="44.13758" lon="7.23461">
        <ele>2065.1</ele>
        <time>2023-02-05T12:07:34Z</time>
      </trkpt>
      <trkpt lat="44.13758" lon="7.23461">
        <ele>2065.1</ele>
        <time>2023-02-05T12:07:35Z</time>
      </trkpt>
      <trkpt lat="44.13758" lon="7.23461">
        <ele>2065.1</ele>
        <time>2023-02-05T12:07:36Z</time>
      </trkpt>
      <trkpt lat="44.13758" lon="7.23461">
        <ele>2065.1</ele>
        <time>2023-02-05T12:07:37Z</time>
      </trkpt>
      <trkpt lat="44.13758" lon="7.23461">
        <ele>2065</ele>
        <time>2023-02-05T12:07:38Z</time>
      </trkpt>
      <trkpt lat="44.13758" lon="7.23461">
        <ele>2065</ele>
        <time>2023-02-05T12:07:39Z</time>
      </trkpt>
      <trkpt lat="44.13758" lon="7.23461">
        <ele>2065</ele>
        <time>2023-02-05T12:07:40Z</time>
      </trkpt>
      <trkpt lat="44.13758" lon="7.23461">
        <ele>2065.1</ele>
        <time>2023-02-05T12:07:41Z</time>
      </trkpt>
      <trkpt lat="44.13758" lon="7.23461">
        <ele>2065.1</ele>
        <time>2023-02-05T12:07:42Z</time>
      </trkpt>
      <trkpt lat="44.13757" lon="7.23461">
        <ele>2065.2</ele>
        <time>2023-02-05T12:07:43Z</time>
      </trkpt>
      <trkpt lat="44.13757" lon="7.23462">
        <ele>2065.2</ele>
        <time>2023-02-05T12:07:44Z</time>
      </trkpt>
      <trkpt lat="44.13757" lon="7.23462">
        <ele>2065.3</ele>
        <time>2023-02-05T12:07:45Z</time>
      </trkpt>
      <trkpt lat="44.13757" lon="7.23462">
        <ele>2065.3</ele>
        <time>2023-02-05T12:07:46Z</time>
      </trkpt>
      <trkpt lat="44.13757" lon="7.23462">
        <ele>2065.3</ele>
        <time>2023-02-05T12:07:47Z</time>
      </trkpt>
      <trkpt lat="44.13756" lon="7.23463">
        <ele>2065.3</ele>
        <time>2023-02-05T12:07:48Z</time>
      </trkpt>
      <trkpt lat="44.13756" lon="7.23463">
        <ele>2065.4</ele>
        <time>2023-02-05T12:07:49Z</time>
      </trkpt>
      <trkpt lat="44.13756" lon="7.23463">
        <ele>2065.4</ele>
        <time>2023-02-05T12:07:50Z</time>
      </trkpt>
      <trkpt lat="44.13756" lon="7.23463">
        <ele>2065.5</ele>
        <time>2023-02-05T12:07:51Z</time>
      </trkpt>
      <trkpt lat="44.13756" lon="7.23463">
        <ele>2065.6</ele>
        <time>2023-02-05T12:07:52Z</time>
      </trkpt>
      <trkpt lat="44.13755" lon="7.23463">
        <ele>2065.5</ele>
        <time>2023-02-05T12:07:53Z</time>
      </trkpt>
      <trkpt lat="44.13755" lon="7.23463">
        <ele>2065</ele>
        <time>2023-02-05T12:07:54Z</time>
      </trkpt>
      <trkpt lat="44.13755" lon="7.23463">
        <ele>2064.9</ele>
        <time>2023-02-05T12:07:55Z</time>
      </trkpt>
      <trkpt lat="44.13755" lon="7.23463">
        <ele>2065.1</ele>
        <time>2023-02-05T12:07:56Z</time>
      </trkpt>
      <trkpt lat="44.13755" lon="7.23463">
        <ele>2065.4</ele>
        <time>2023-02-05T12:07:57Z</time>
      </trkpt>
      <trkpt lat="44.13755" lon="7.23463">
        <ele>2065.6</ele>
        <time>2023-02-05T12:07:58Z</time>
      </trkpt>
      <trkpt lat="44.13755" lon="7.23463">
        <ele>2065.6</ele>
        <time>2023-02-05T12:07:59Z</time>
      </trkpt>
      <trkpt lat="44.13755" lon="7.23463">
        <ele>2065.7</ele>
        <time>2023-02-05T12:08:00Z</time>
      </trkpt>
      <trkpt lat="44.13755" lon="7.23463">
        <ele>2065.7</ele>
        <time>2023-02-05T12:08:01Z</time>
      </trkpt>
      <trkpt lat="44.13755" lon="7.23464">
        <ele>2065.8</ele>
        <time>2023-02-05T12:08:02Z</time>
      </trkpt>
      <trkpt lat="44.13755" lon="7.23464">
        <ele>2065.8</ele>
        <time>2023-02-05T12:08:03Z</time>
      </trkpt>
      <trkpt lat="44.13755" lon="7.23464">
        <ele>2065.9</ele>
        <time>2023-02-05T12:08:04Z</time>
      </trkpt>
      <trkpt lat="44.13755" lon="7.23464">
        <ele>2065.8</ele>
        <time>2023-02-05T12:08:05Z</time>
      </trkpt>
      <trkpt lat="44.13755" lon="7.23464">
        <ele>2065.7</ele>
        <time>2023-02-05T12:08:06Z</time>
      </trkpt>
      <trkpt lat="44.13755" lon="7.23464">
        <ele>2065.7</ele>
        <time>2023-02-05T12:08:07Z</time>
      </trkpt>
      <trkpt lat="44.13756" lon="7.23464">
        <ele>2065.7</ele>
        <time>2023-02-05T12:08:08Z</time>
      </trkpt>
      <trkpt lat="44.13756" lon="7.23464">
        <ele>2065.7</ele>
        <time>2023-02-05T12:08:09Z</time>
      </trkpt>
      <trkpt lat="44.13756" lon="7.23464">
        <ele>2065.6</ele>
        <time>2023-02-05T12:08:10Z</time>
      </trkpt>
      <trkpt lat="44.13756" lon="7.23464">
        <ele>2065.7</ele>
        <time>2023-02-05T12:08:11Z</time>
      </trkpt>
      <trkpt lat="44.13756" lon="7.23464">
        <ele>2065.7</ele>
        <time>2023-02-05T12:08:12Z</time>
      </trkpt>
      <trkpt lat="44.13757" lon="7.23465">
        <ele>2065.7</ele>
        <time>2023-02-05T12:08:13Z</time>
      </trkpt>
      <trkpt lat="44.13757" lon="7.23465">
        <ele>2065.7</ele>
        <time>2023-02-05T12:08:14Z</time>
      </trkpt>
      <trkpt lat="44.13757" lon="7.23465">
        <ele>2065.7</ele>
        <time>2023-02-05T12:08:15Z</time>
      </trkpt>
      <trkpt lat="44.13757" lon="7.23465">
        <ele>2065.6</ele>
        <time>2023-02-05T12:08:16Z</time>
      </trkpt>
      <trkpt lat="44.13757" lon="7.23466">
        <ele>2065.6</ele>
        <time>2023-02-05T12:08:17Z</time>
      </trkpt>
      <trkpt lat="44.13757" lon="7.23466">
        <ele>2065.6</ele>
        <time>2023-02-05T12:08:18Z</time>
      </trkpt>
      <trkpt lat="44.13757" lon="7.23466">
        <ele>2065.4</ele>
        <time>2023-02-05T12:08:19Z</time>
      </trkpt>
      <trkpt lat="44.13757" lon="7.23466">
        <ele>2065.5</ele>
        <time>2023-02-05T12:08:20Z</time>
      </trkpt>
      <trkpt lat="44.13757" lon="7.23466">
        <ele>2065.5</ele>
        <time>2023-02-05T12:08:21Z</time>
      </trkpt>
      <trkpt lat="44.13758" lon="7.23465">
        <ele>2065.7</ele>
        <time>2023-02-05T12:08:22Z</time>
      </trkpt>
      <trkpt lat="44.13758" lon="7.23465">
        <ele>2065.7</ele>
        <time>2023-02-05T12:08:23Z</time>
      </trkpt>
      <trkpt lat="44.13759" lon="7.23465">
        <ele>2066</ele>
        <time>2023-02-05T12:08:24Z</time>
      </trkpt>
      <trkpt lat="44.13759" lon="7.23465">
        <ele>2066.1</ele>
        <time>2023-02-05T12:08:25Z</time>
      </trkpt>
      <trkpt lat="44.13759" lon="7.23465">
        <ele>2066.2</ele>
        <time>2023-02-05T12:08:26Z</time>
      </trkpt>
      <trkpt lat="44.13759" lon="7.23465">
        <ele>2066.2</ele>
        <time>2023-02-05T12:08:27Z</time>
      </trkpt>
      <trkpt lat="44.13759" lon="7.23466">
        <ele>2066.1</ele>
        <time>2023-02-05T12:08:28Z</time>
      </trkpt>
      <trkpt lat="44.1376" lon="7.23466">
        <ele>2066</ele>
        <time>2023-02-05T12:08:29Z</time>
      </trkpt>
      <trkpt lat="44.1376" lon="7.23465">
        <ele>2065.8</ele>
        <time>2023-02-05T12:08:30Z</time>
      </trkpt>
      <trkpt lat="44.1376" lon="7.23465">
        <ele>2065.9</ele>
        <time>2023-02-05T12:08:31Z</time>
      </trkpt>
      <trkpt lat="44.1376" lon="7.23465">
        <ele>2065.9</ele>
        <time>2023-02-05T12:08:32Z</time>
      </trkpt>
      <trkpt lat="44.1376" lon="7.23465">
        <ele>2066</ele>
        <time>2023-02-05T12:08:33Z</time>
      </trkpt>
      <trkpt lat="44.1376" lon="7.23465">
        <ele>2066</ele>
        <time>2023-02-05T12:08:34Z</time>
      </trkpt>
      <trkpt lat="44.1376" lon="7.23465">
        <ele>2066</ele>
        <time>2023-02-05T12:08:35Z</time>
      </trkpt>
      <trkpt lat="44.1376" lon="7.23465">
        <ele>2066.1</ele>
        <time>2023-02-05T12:08:36Z</time>
      </trkpt>
      <trkpt lat="44.1376" lon="7.23465">
        <ele>2066.1</ele>
        <time>2023-02-05T12:08:37Z</time>
      </trkpt>
      <trkpt lat="44.13761" lon="7.23466">
        <ele>2066.1</ele>
        <time>2023-02-05T12:08:38Z</time>
      </trkpt>
      <trkpt lat="44.1376" lon="7.23466">
        <ele>2066.2</ele>
        <time>2023-02-05T12:08:39Z</time>
      </trkpt>
      <trkpt lat="44.1376" lon="7.23467">
        <ele>2066.2</ele>
        <time>2023-02-05T12:08:40Z</time>
      </trkpt>
      <trkpt lat="44.1376" lon="7.23467">
        <ele>2066.3</ele>
        <time>2023-02-05T12:08:41Z</time>
      </trkpt>
      <trkpt lat="44.1376" lon="7.23467">
        <ele>2066.4</ele>
        <time>2023-02-05T12:08:42Z</time>
      </trkpt>
      <trkpt lat="44.13759" lon="7.23468">
        <ele>2066.5</ele>
        <time>2023-02-05T12:08:43Z</time>
      </trkpt>
      <trkpt lat="44.13759" lon="7.23469">
        <ele>2066.5</ele>
        <time>2023-02-05T12:08:44Z</time>
      </trkpt>
      <trkpt lat="44.13759" lon="7.23469">
        <ele>2066.6</ele>
        <time>2023-02-05T12:08:45Z</time>
      </trkpt>
      <trkpt lat="44.13759" lon="7.2347">
        <ele>2066.7</ele>
        <time>2023-02-05T12:08:46Z</time>
      </trkpt>
      <trkpt lat="44.13759" lon="7.2347">
        <ele>2066.8</ele>
        <time>2023-02-05T12:08:47Z</time>
      </trkpt>
      <trkpt lat="44.13759" lon="7.2347">
        <ele>2066.8</ele>
        <time>2023-02-05T12:08:48Z</time>
      </trkpt>
      <trkpt lat="44.13759" lon="7.2347">
        <ele>2066.8</ele>
        <time>2023-02-05T12:08:49Z</time>
      </trkpt>
      <trkpt lat="44.13759" lon="7.2347">
        <ele>2066.8</ele>
        <time>2023-02-05T12:08:50Z</time>
      </trkpt>
      <trkpt lat="44.13759" lon="7.23469">
        <ele>2066.9</ele>
        <time>2023-02-05T12:08:51Z</time>
      </trkpt>
      <trkpt lat="44.13759" lon="7.23469">
        <ele>2066.5</ele>
        <time>2023-02-05T12:08:52Z</time>
      </trkpt>
      <trkpt lat="44.13759" lon="7.23468">
        <ele>2066</ele>
        <time>2023-02-05T12:08:53Z</time>
      </trkpt>
      <trkpt lat="44.1376" lon="7.23467">
        <ele>2065.6</ele>
        <time>2023-02-05T12:08:54Z</time>
      </trkpt>
      <trkpt lat="44.1376" lon="7.23467">
        <ele>2066.1</ele>
        <time>2023-02-05T12:08:55Z</time>
      </trkpt>
      <trkpt lat="44.1376" lon="7.23466">
        <ele>2066.5</ele>
        <time>2023-02-05T12:08:56Z</time>
      </trkpt>
      <trkpt lat="44.1376" lon="7.23465">
        <ele>2066.7</ele>
        <time>2023-02-05T12:08:57Z</time>
      </trkpt>
      <trkpt lat="44.1376" lon="7.23465">
        <ele>2066.9</ele>
        <time>2023-02-05T12:08:58Z</time>
      </trkpt>
      <trkpt lat="44.1376" lon="7.23465">
        <ele>2066.9</ele>
        <time>2023-02-05T12:08:59Z</time>
      </trkpt>
      <trkpt lat="44.1376" lon="7.23465">
        <ele>2067.1</ele>
        <time>2023-02-05T12:09:00Z</time>
      </trkpt>
      <trkpt lat="44.1376" lon="7.23464">
        <ele>2067.1</ele>
        <time>2023-02-05T12:09:01Z</time>
      </trkpt>
      <trkpt lat="44.1376" lon="7.23464">
        <ele>2067</ele>
        <time>2023-02-05T12:09:02Z</time>
      </trkpt>
      <trkpt lat="44.1376" lon="7.23463">
        <ele>2067.2</ele>
        <time>2023-02-05T12:09:03Z</time>
      </trkpt>
      <trkpt lat="44.1376" lon="7.23462">
        <ele>2067.3</ele>
        <time>2023-02-05T12:09:04Z</time>
      </trkpt>
      <trkpt lat="44.1376" lon="7.23462">
        <ele>2067.4</ele>
        <time>2023-02-05T12:09:05Z</time>
      </trkpt>
      <trkpt lat="44.1376" lon="7.23461">
        <ele>2067.4</ele>
        <time>2023-02-05T12:09:06Z</time>
      </trkpt>
      <trkpt lat="44.1376" lon="7.2346">
        <ele>2067.5</ele>
        <time>2023-02-05T12:09:07Z</time>
      </trkpt>
      <trkpt lat="44.1376" lon="7.2346">
        <ele>2067.5</ele>
        <time>2023-02-05T12:09:08Z</time>
      </trkpt>
      <trkpt lat="44.1376" lon="7.2346">
        <ele>2067.4</ele>
        <time>2023-02-05T12:09:09Z</time>
      </trkpt>
      <trkpt lat="44.1376" lon="7.23459">
        <ele>2067.3</ele>
        <time>2023-02-05T12:09:10Z</time>
      </trkpt>
      <trkpt lat="44.1376" lon="7.23459">
        <ele>2067.5</ele>
        <time>2023-02-05T12:09:11Z</time>
      </trkpt>
      <trkpt lat="44.1376" lon="7.23459">
        <ele>2067.5</ele>
        <time>2023-02-05T12:09:12Z</time>
      </trkpt>
      <trkpt lat="44.1376" lon="7.23459">
        <ele>2067.1</ele>
        <time>2023-02-05T12:09:13Z</time>
      </trkpt>
      <trkpt lat="44.1376" lon="7.23458">
        <ele>2067.4</ele>
        <time>2023-02-05T12:09:14Z</time>
      </trkpt>
      <trkpt lat="44.1376" lon="7.23458">
        <ele>2067.3</ele>
        <time>2023-02-05T12:09:15Z</time>
      </trkpt>
      <trkpt lat="44.1376" lon="7.23458">
        <ele>2067.9</ele>
        <time>2023-02-05T12:09:16Z</time>
      </trkpt>
      <trkpt lat="44.1376" lon="7.23457">
        <ele>2068</ele>
        <time>2023-02-05T12:09:17Z</time>
      </trkpt>
      <trkpt lat="44.1376" lon="7.23457">
        <ele>2068</ele>
        <time>2023-02-05T12:09:18Z</time>
      </trkpt>
      <trkpt lat="44.1376" lon="7.23457">
        <ele>2067.9</ele>
        <time>2023-02-05T12:09:19Z</time>
      </trkpt>
      <trkpt lat="44.1376" lon="7.23456">
        <ele>2067.9</ele>
        <time>2023-02-05T12:09:20Z</time>
      </trkpt>
      <trkpt lat="44.1376" lon="7.23456">
        <ele>2067.9</ele>
        <time>2023-02-05T12:09:21Z</time>
      </trkpt>
      <trkpt lat="44.13759" lon="7.23456">
        <ele>2067.4</ele>
        <time>2023-02-05T12:09:22Z</time>
      </trkpt>
      <trkpt lat="44.13759" lon="7.23456">
        <ele>2067.4</ele>
        <time>2023-02-05T12:09:23Z</time>
      </trkpt>
      <trkpt lat="44.13758" lon="7.23455">
        <ele>2067.1</ele>
        <time>2023-02-05T12:09:24Z</time>
      </trkpt>
      <trkpt lat="44.13757" lon="7.23455">
        <ele>2066.7</ele>
        <time>2023-02-05T12:09:25Z</time>
      </trkpt>
      <trkpt lat="44.13757" lon="7.23456">
        <ele>2066.7</ele>
        <time>2023-02-05T12:09:26Z</time>
      </trkpt>
      <trkpt lat="44.13757" lon="7.23456">
        <ele>2066.7</ele>
        <time>2023-02-05T12:09:27Z</time>
      </trkpt>
      <trkpt lat="44.13757" lon="7.23455">
        <ele>2066.7</ele>
        <time>2023-02-05T12:09:28Z</time>
      </trkpt>
      <trkpt lat="44.13757" lon="7.23455">
        <ele>2066.9</ele>
        <time>2023-02-05T12:09:29Z</time>
      </trkpt>
      <trkpt lat="44.13757" lon="7.23455">
        <ele>2066.9</ele>
        <time>2023-02-05T12:09:30Z</time>
      </trkpt>
      <trkpt lat="44.13757" lon="7.23455">
        <ele>2067</ele>
        <time>2023-02-05T12:09:31Z</time>
      </trkpt>
      <trkpt lat="44.13757" lon="7.23454">
        <ele>2067.1</ele>
        <time>2023-02-05T12:09:32Z</time>
      </trkpt>
      <trkpt lat="44.13758" lon="7.23454">
        <ele>2067.2</ele>
        <time>2023-02-05T12:09:33Z</time>
      </trkpt>
      <trkpt lat="44.13758" lon="7.23454">
        <ele>2067.3</ele>
        <time>2023-02-05T12:09:34Z</time>
      </trkpt>
      <trkpt lat="44.13759" lon="7.23453">
        <ele>2067.4</ele>
        <time>2023-02-05T12:09:35Z</time>
      </trkpt>
      <trkpt lat="44.13759" lon="7.23453">
        <ele>2067.3</ele>
        <time>2023-02-05T12:09:36Z</time>
      </trkpt>
      <trkpt lat="44.13759" lon="7.23453">
        <ele>2067.3</ele>
        <time>2023-02-05T12:09:37Z</time>
      </trkpt>
      <trkpt lat="44.1376" lon="7.23453">
        <ele>2067.2</ele>
        <time>2023-02-05T12:09:38Z</time>
      </trkpt>
      <trkpt lat="44.1376" lon="7.23452">
        <ele>2067.1</ele>
        <time>2023-02-05T12:09:39Z</time>
      </trkpt>
      <trkpt lat="44.1376" lon="7.23452">
        <ele>2067.2</ele>
        <time>2023-02-05T12:09:40Z</time>
      </trkpt>
      <trkpt lat="44.13761" lon="7.23452">
        <ele>2067.2</ele>
        <time>2023-02-05T12:09:41Z</time>
      </trkpt>
      <trkpt lat="44.13761" lon="7.23452">
        <ele>2067.5</ele>
        <time>2023-02-05T12:09:42Z</time>
      </trkpt>
      <trkpt lat="44.13761" lon="7.23452">
        <ele>2067.3</ele>
        <time>2023-02-05T12:09:43Z</time>
      </trkpt>
      <trkpt lat="44.13762" lon="7.23452">
        <ele>2067.3</ele>
        <time>2023-02-05T12:09:44Z</time>
      </trkpt>
      <trkpt lat="44.13762" lon="7.23453">
        <ele>2067.3</ele>
        <time>2023-02-05T12:09:45Z</time>
      </trkpt>
      <trkpt lat="44.13762" lon="7.23453">
        <ele>2067.2</ele>
        <time>2023-02-05T12:09:46Z</time>
      </trkpt>
      <trkpt lat="44.13763" lon="7.23453">
        <ele>2067.1</ele>
        <time>2023-02-05T12:09:47Z</time>
      </trkpt>
      <trkpt lat="44.13762" lon="7.23453">
        <ele>2066.9</ele>
        <time>2023-02-05T12:09:48Z</time>
      </trkpt>
      <trkpt lat="44.13762" lon="7.23453">
        <ele>2066.9</ele>
        <time>2023-02-05T12:09:49Z</time>
      </trkpt>
      <trkpt lat="44.13763" lon="7.23453">
        <ele>2067.2</ele>
        <time>2023-02-05T12:09:50Z</time>
      </trkpt>
      <trkpt lat="44.13763" lon="7.23453">
        <ele>2067.3</ele>
        <time>2023-02-05T12:09:51Z</time>
      </trkpt>
      <trkpt lat="44.13763" lon="7.23453">
        <ele>2067.5</ele>
        <time>2023-02-05T12:09:52Z</time>
      </trkpt>
      <trkpt lat="44.13763" lon="7.23453">
        <ele>2067.6</ele>
        <time>2023-02-05T12:09:53Z</time>
      </trkpt>
      <trkpt lat="44.13763" lon="7.23453">
        <ele>2067.7</ele>
        <time>2023-02-05T12:09:54Z</time>
      </trkpt>
      <trkpt lat="44.13763" lon="7.23453">
        <ele>2067.7</ele>
        <time>2023-02-05T12:09:55Z</time>
      </trkpt>
      <trkpt lat="44.13763" lon="7.23454">
        <ele>2067.7</ele>
        <time>2023-02-05T12:09:56Z</time>
      </trkpt>
      <trkpt lat="44.13763" lon="7.23454">
        <ele>2067.1</ele>
        <time>2023-02-05T12:09:57Z</time>
      </trkpt>
      <trkpt lat="44.13763" lon="7.23454">
        <ele>2067.7</ele>
        <time>2023-02-05T12:09:58Z</time>
      </trkpt>
      <trkpt lat="44.13763" lon="7.23454">
        <ele>2067.4</ele>
        <time>2023-02-05T12:09:59Z</time>
      </trkpt>
      <trkpt lat="44.13762" lon="7.23454">
        <ele>2067.4</ele>
        <time>2023-02-05T12:10:00Z</time>
      </trkpt>
      <trkpt lat="44.13762" lon="7.23454">
        <ele>2067.3</ele>
        <time>2023-02-05T12:10:01Z</time>
      </trkpt>
      <trkpt lat="44.13762" lon="7.23453">
        <ele>2067.2</ele>
        <time>2023-02-05T12:10:02Z</time>
      </trkpt>
      <trkpt lat="44.13762" lon="7.23453">
        <ele>2067.1</ele>
        <time>2023-02-05T12:10:03Z</time>
      </trkpt>
      <trkpt lat="44.13763" lon="7.23454">
        <ele>2067.1</ele>
        <time>2023-02-05T12:10:04Z</time>
      </trkpt>
      <trkpt lat="44.13763" lon="7.23454">
        <ele>2066.9</ele>
        <time>2023-02-05T12:10:05Z</time>
      </trkpt>
      <trkpt lat="44.13764" lon="7.23454">
        <ele>2066.8</ele>
        <time>2023-02-05T12:10:06Z</time>
      </trkpt>
      <trkpt lat="44.13764" lon="7.23453">
        <ele>2066.8</ele>
        <time>2023-02-05T12:10:07Z</time>
      </trkpt>
      <trkpt lat="44.13764" lon="7.23453">
        <ele>2067</ele>
        <time>2023-02-05T12:10:08Z</time>
      </trkpt>
      <trkpt lat="44.13765" lon="7.23453">
        <ele>2067.2</ele>
        <time>2023-02-05T12:10:09Z</time>
      </trkpt>
      <trkpt lat="44.13765" lon="7.23453">
        <ele>2067.3</ele>
        <time>2023-02-05T12:10:10Z</time>
      </trkpt>
      <trkpt lat="44.13765" lon="7.23453">
        <ele>2067.8</ele>
        <time>2023-02-05T12:10:11Z</time>
      </trkpt>
      <trkpt lat="44.13766" lon="7.23453">
        <ele>2067.7</ele>
        <time>2023-02-05T12:10:12Z</time>
      </trkpt>
      <trkpt lat="44.13766" lon="7.23453">
        <ele>2067.5</ele>
        <time>2023-02-05T12:10:13Z</time>
      </trkpt>
      <trkpt lat="44.13766" lon="7.23453">
        <ele>2067.1</ele>
        <time>2023-02-05T12:10:14Z</time>
      </trkpt>
      <trkpt lat="44.13767" lon="7.23453">
        <ele>2067</ele>
        <time>2023-02-05T12:10:15Z</time>
      </trkpt>
      <trkpt lat="44.13766" lon="7.23453">
        <ele>2066.8</ele>
        <time>2023-02-05T12:10:16Z</time>
      </trkpt>
      <trkpt lat="44.13766" lon="7.23453">
        <ele>2066.7</ele>
        <time>2023-02-05T12:10:17Z</time>
      </trkpt>
      <trkpt lat="44.13766" lon="7.23452">
        <ele>2066.7</ele>
        <time>2023-02-05T12:10:18Z</time>
      </trkpt>
      <trkpt lat="44.13766" lon="7.23452">
        <ele>2066.7</ele>
        <time>2023-02-05T12:10:19Z</time>
      </trkpt>
      <trkpt lat="44.13766" lon="7.23452">
        <ele>2066.6</ele>
        <time>2023-02-05T12:10:20Z</time>
      </trkpt>
      <trkpt lat="44.13766" lon="7.23452">
        <ele>2066.5</ele>
        <time>2023-02-05T12:10:21Z</time>
      </trkpt>
      <trkpt lat="44.13766" lon="7.23452">
        <ele>2066.4</ele>
        <time>2023-02-05T12:10:22Z</time>
      </trkpt>
      <trkpt lat="44.13765" lon="7.23452">
        <ele>2066.3</ele>
        <time>2023-02-05T12:10:23Z</time>
      </trkpt>
      <trkpt lat="44.13764" lon="7.23452">
        <ele>2066</ele>
        <time>2023-02-05T12:10:24Z</time>
      </trkpt>
      <trkpt lat="44.13764" lon="7.23452">
        <ele>2065.6</ele>
        <time>2023-02-05T12:10:25Z</time>
      </trkpt>
      <trkpt lat="44.13764" lon="7.23452">
        <ele>2065.5</ele>
        <time>2023-02-05T12:10:26Z</time>
      </trkpt>
      <trkpt lat="44.13763" lon="7.23452">
        <ele>2065.6</ele>
        <time>2023-02-05T12:10:27Z</time>
      </trkpt>
      <trkpt lat="44.13763" lon="7.23453">
        <ele>2065.8</ele>
        <time>2023-02-05T12:10:28Z</time>
      </trkpt>
      <trkpt lat="44.13763" lon="7.23453">
        <ele>2065.7</ele>
        <time>2023-02-05T12:10:29Z</time>
      </trkpt>
      <trkpt lat="44.13763" lon="7.23453">
        <ele>2064.7</ele>
        <time>2023-02-05T12:10:30Z</time>
      </trkpt>
      <trkpt lat="44.13763" lon="7.23453">
        <ele>2064.9</ele>
        <time>2023-02-05T12:10:31Z</time>
      </trkpt>
      <trkpt lat="44.13763" lon="7.23454">
        <ele>2065.1</ele>
        <time>2023-02-05T12:10:32Z</time>
      </trkpt>
      <trkpt lat="44.13763" lon="7.23454">
        <ele>2065.3</ele>
        <time>2023-02-05T12:10:33Z</time>
      </trkpt>
      <trkpt lat="44.13763" lon="7.23454">
        <ele>2065.5</ele>
        <time>2023-02-05T12:10:34Z</time>
      </trkpt>
      <trkpt lat="44.13763" lon="7.23454">
        <ele>2065.7</ele>
        <time>2023-02-05T12:10:35Z</time>
      </trkpt>
      <trkpt lat="44.13763" lon="7.23454">
        <ele>2065.8</ele>
        <time>2023-02-05T12:10:36Z</time>
      </trkpt>
      <trkpt lat="44.13763" lon="7.23455">
        <ele>2065.9</ele>
        <time>2023-02-05T12:10:37Z</time>
      </trkpt>
      <trkpt lat="44.13763" lon="7.23455">
        <ele>2066</ele>
        <time>2023-02-05T12:10:38Z</time>
      </trkpt>
      <trkpt lat="44.13763" lon="7.23455">
        <ele>2066</ele>
        <time>2023-02-05T12:10:39Z</time>
      </trkpt>
      <trkpt lat="44.13763" lon="7.23456">
        <ele>2066.1</ele>
        <time>2023-02-05T12:10:40Z</time>
      </trkpt>
      <trkpt lat="44.13762" lon="7.23456">
        <ele>2066.1</ele>
        <time>2023-02-05T12:10:41Z</time>
      </trkpt>
      <trkpt lat="44.13762" lon="7.23456">
        <ele>2066.1</ele>
        <time>2023-02-05T12:10:42Z</time>
      </trkpt>
      <trkpt lat="44.13762" lon="7.23457">
        <ele>2066.1</ele>
        <time>2023-02-05T12:10:43Z</time>
      </trkpt>
      <trkpt lat="44.13762" lon="7.23457">
        <ele>2066</ele>
        <time>2023-02-05T12:10:44Z</time>
      </trkpt>
      <trkpt lat="44.13763" lon="7.23457">
        <ele>2066</ele>
        <time>2023-02-05T12:10:45Z</time>
      </trkpt>
      <trkpt lat="44.13762" lon="7.23457">
        <ele>2065.7</ele>
        <time>2023-02-05T12:10:46Z</time>
      </trkpt>
      <trkpt lat="44.13763" lon="7.23458">
        <ele>2065.2</ele>
        <time>2023-02-05T12:10:47Z</time>
      </trkpt>
      <trkpt lat="44.13762" lon="7.23458">
        <ele>2065.2</ele>
        <time>2023-02-05T12:10:48Z</time>
      </trkpt>
      <trkpt lat="44.13762" lon="7.23458">
        <ele>2065.3</ele>
        <time>2023-02-05T12:10:49Z</time>
      </trkpt>
      <trkpt lat="44.13762" lon="7.23459">
        <ele>2065.5</ele>
        <time>2023-02-05T12:10:50Z</time>
      </trkpt>
      <trkpt lat="44.13762" lon="7.23459">
        <ele>2065.6</ele>
        <time>2023-02-05T12:10:51Z</time>
      </trkpt>
      <trkpt lat="44.13762" lon="7.23459">
        <ele>2065.5</ele>
        <time>2023-02-05T12:10:52Z</time>
      </trkpt>
      <trkpt lat="44.13762" lon="7.23459">
        <ele>2063.1</ele>
        <time>2023-02-05T12:10:53Z</time>
      </trkpt>
      <trkpt lat="44.13762" lon="7.23459">
        <ele>2063.6</ele>
        <time>2023-02-05T12:10:54Z</time>
      </trkpt>
      <trkpt lat="44.13762" lon="7.23458">
        <ele>2063.9</ele>
        <time>2023-02-05T12:10:55Z</time>
      </trkpt>
      <trkpt lat="44.13762" lon="7.23458">
        <ele>2064.2</ele>
        <time>2023-02-05T12:10:56Z</time>
      </trkpt>
      <trkpt lat="44.13762" lon="7.23458">
        <ele>2064.4</ele>
        <time>2023-02-05T12:10:57Z</time>
      </trkpt>
      <trkpt lat="44.13762" lon="7.23458">
        <ele>2064.5</ele>
        <time>2023-02-05T12:10:58Z</time>
      </trkpt>
      <trkpt lat="44.13763" lon="7.23458">
        <ele>2064.6</ele>
        <time>2023-02-05T12:10:59Z</time>
      </trkpt>
      <trkpt lat="44.13763" lon="7.23458">
        <ele>2064.8</ele>
        <time>2023-02-05T12:11:00Z</time>
      </trkpt>
      <trkpt lat="44.13763" lon="7.23458">
        <ele>2065</ele>
        <time>2023-02-05T12:11:01Z</time>
      </trkpt>
      <trkpt lat="44.13762" lon="7.23458">
        <ele>2065.4</ele>
        <time>2023-02-05T12:11:02Z</time>
      </trkpt>
      <trkpt lat="44.13763" lon="7.23458">
        <ele>2065.4</ele>
        <time>2023-02-05T12:11:03Z</time>
      </trkpt>
      <trkpt lat="44.13762" lon="7.23458">
        <ele>2065.2</ele>
        <time>2023-02-05T12:11:04Z</time>
      </trkpt>
      <trkpt lat="44.13762" lon="7.23458">
        <ele>2065.2</ele>
        <time>2023-02-05T12:11:05Z</time>
      </trkpt>
      <trkpt lat="44.13761" lon="7.23458">
        <ele>2065.2</ele>
        <time>2023-02-05T12:11:06Z</time>
      </trkpt>
      <trkpt lat="44.13761" lon="7.23458">
        <ele>2065.3</ele>
        <time>2023-02-05T12:11:07Z</time>
      </trkpt>
      <trkpt lat="44.13761" lon="7.23458">
        <ele>2065.3</ele>
        <time>2023-02-05T12:11:08Z</time>
      </trkpt>
      <trkpt lat="44.13761" lon="7.23458">
        <ele>2065.2</ele>
        <time>2023-02-05T12:11:09Z</time>
      </trkpt>
      <trkpt lat="44.13761" lon="7.23458">
        <ele>2065.3</ele>
        <time>2023-02-05T12:11:10Z</time>
      </trkpt>
      <trkpt lat="44.13761" lon="7.23458">
        <ele>2065.3</ele>
        <time>2023-02-05T12:11:11Z</time>
      </trkpt>
      <trkpt lat="44.13761" lon="7.23458">
        <ele>2065.2</ele>
        <time>2023-02-05T12:11:12Z</time>
      </trkpt>
      <trkpt lat="44.13761" lon="7.23458">
        <ele>2064.8</ele>
        <time>2023-02-05T12:11:13Z</time>
      </trkpt>
      <trkpt lat="44.13761" lon="7.23458">
        <ele>2064.8</ele>
        <time>2023-02-05T12:11:14Z</time>
      </trkpt>
      <trkpt lat="44.13762" lon="7.23458">
        <ele>2064.8</ele>
        <time>2023-02-05T12:11:15Z</time>
      </trkpt>
      <trkpt lat="44.13761" lon="7.23458">
        <ele>2064.8</ele>
        <time>2023-02-05T12:11:16Z</time>
      </trkpt>
      <trkpt lat="44.13762" lon="7.23458">
        <ele>2065</ele>
        <time>2023-02-05T12:11:17Z</time>
      </trkpt>
      <trkpt lat="44.13762" lon="7.23458">
        <ele>2065</ele>
        <time>2023-02-05T12:11:18Z</time>
      </trkpt>
      <trkpt lat="44.13762" lon="7.23458">
        <ele>2065.1</ele>
        <time>2023-02-05T12:11:19Z</time>
      </trkpt>
      <trkpt lat="44.13762" lon="7.23458">
        <ele>2065.1</ele>
        <time>2023-02-05T12:11:20Z</time>
      </trkpt>
      <trkpt lat="44.13762" lon="7.23458">
        <ele>2065.3</ele>
        <time>2023-02-05T12:11:21Z</time>
      </trkpt>
      <trkpt lat="44.13762" lon="7.23458">
        <ele>2065.4</ele>
        <time>2023-02-05T12:11:22Z</time>
      </trkpt>
      <trkpt lat="44.13762" lon="7.23458">
        <ele>2065.1</ele>
        <time>2023-02-05T12:11:23Z</time>
      </trkpt>
      <trkpt lat="44.13762" lon="7.23458">
        <ele>2064.9</ele>
        <time>2023-02-05T12:11:24Z</time>
      </trkpt>
      <trkpt lat="44.13762" lon="7.23458">
        <ele>2065</ele>
        <time>2023-02-05T12:11:25Z</time>
      </trkpt>
      <trkpt lat="44.13762" lon="7.23458">
        <ele>2065</ele>
        <time>2023-02-05T12:11:26Z</time>
      </trkpt>
      <trkpt lat="44.13762" lon="7.23459">
        <ele>2065</ele>
        <time>2023-02-05T12:11:27Z</time>
      </trkpt>
      <trkpt lat="44.13762" lon="7.23459">
        <ele>2065</ele>
        <time>2023-02-05T12:11:28Z</time>
      </trkpt>
      <trkpt lat="44.13762" lon="7.23459">
        <ele>2065.1</ele>
        <time>2023-02-05T12:11:29Z</time>
      </trkpt>
      <trkpt lat="44.13762" lon="7.23459">
        <ele>2065.1</ele>
        <time>2023-02-05T12:11:30Z</time>
      </trkpt>
      <trkpt lat="44.13762" lon="7.23459">
        <ele>2065.1</ele>
        <time>2023-02-05T12:11:31Z</time>
      </trkpt>
      <trkpt lat="44.13762" lon="7.23459">
        <ele>2065.1</ele>
        <time>2023-02-05T12:11:32Z</time>
      </trkpt>
      <trkpt lat="44.13762" lon="7.23459">
        <ele>2065.3</ele>
        <time>2023-02-05T12:11:33Z</time>
      </trkpt>
      <trkpt lat="44.13762" lon="7.23458">
        <ele>2065.5</ele>
        <time>2023-02-05T12:11:34Z</time>
      </trkpt>
      <trkpt lat="44.13762" lon="7.23458">
        <ele>2065.6</ele>
        <time>2023-02-05T12:11:35Z</time>
      </trkpt>
      <trkpt lat="44.13762" lon="7.23458">
        <ele>2065.3</ele>
        <time>2023-02-05T12:11:36Z</time>
      </trkpt>
      <trkpt lat="44.13762" lon="7.23458">
        <ele>2065.5</ele>
        <time>2023-02-05T12:11:37Z</time>
      </trkpt>
      <trkpt lat="44.13762" lon="7.23459">
        <ele>2065.6</ele>
        <time>2023-02-05T12:11:38Z</time>
      </trkpt>
      <trkpt lat="44.13762" lon="7.23459">
        <ele>2065.7</ele>
        <time>2023-02-05T12:11:39Z</time>
      </trkpt>
      <trkpt lat="44.13762" lon="7.23459">
        <ele>2065.6</ele>
        <time>2023-02-05T12:11:40Z</time>
      </trkpt>
      <trkpt lat="44.13762" lon="7.23459">
        <ele>2065.5</ele>
        <time>2023-02-05T12:11:41Z</time>
      </trkpt>
      <trkpt lat="44.13762" lon="7.23459">
        <ele>2065.4</ele>
        <time>2023-02-05T12:11:42Z</time>
      </trkpt>
      <trkpt lat="44.13762" lon="7.23459">
        <ele>2065.3</ele>
        <time>2023-02-05T12:11:43Z</time>
      </trkpt>
      <trkpt lat="44.13762" lon="7.23459">
        <ele>2065.3</ele>
        <time>2023-02-05T12:11:44Z</time>
      </trkpt>
      <trkpt lat="44.13761" lon="7.2346">
        <ele>2065.3</ele>
        <time>2023-02-05T12:11:45Z</time>
      </trkpt>
      <trkpt lat="44.13761" lon="7.2346">
        <ele>2065.4</ele>
        <time>2023-02-05T12:11:46Z</time>
      </trkpt>
      <trkpt lat="44.13761" lon="7.23461">
        <ele>2065.5</ele>
        <time>2023-02-05T12:11:47Z</time>
      </trkpt>
      <trkpt lat="44.13761" lon="7.23461">
        <ele>2065.6</ele>
        <time>2023-02-05T12:11:48Z</time>
      </trkpt>
      <trkpt lat="44.1376" lon="7.23461">
        <ele>2065.6</ele>
        <time>2023-02-05T12:11:49Z</time>
      </trkpt>
      <trkpt lat="44.1376" lon="7.23462">
        <ele>2066</ele>
        <time>2023-02-05T12:11:50Z</time>
      </trkpt>
      <trkpt lat="44.1376" lon="7.23462">
        <ele>2065.8</ele>
        <time>2023-02-05T12:11:51Z</time>
      </trkpt>
      <trkpt lat="44.13759" lon="7.23462">
        <ele>2065.7</ele>
        <time>2023-02-05T12:11:52Z</time>
      </trkpt>
      <trkpt lat="44.13759" lon="7.23463">
        <ele>2065.5</ele>
        <time>2023-02-05T12:11:53Z</time>
      </trkpt>
      <trkpt lat="44.13759" lon="7.23463">
        <ele>2065.4</ele>
        <time>2023-02-05T12:11:54Z</time>
      </trkpt>
      <trkpt lat="44.13758" lon="7.23463">
        <ele>2065.1</ele>
        <time>2023-02-05T12:11:55Z</time>
      </trkpt>
      <trkpt lat="44.13758" lon="7.23464">
        <ele>2065.1</ele>
        <time>2023-02-05T12:11:56Z</time>
      </trkpt>
      <trkpt lat="44.13758" lon="7.23464">
        <ele>2065</ele>
        <time>2023-02-05T12:11:57Z</time>
      </trkpt>
      <trkpt lat="44.13758" lon="7.23464">
        <ele>2065</ele>
        <time>2023-02-05T12:11:58Z</time>
      </trkpt>
      <trkpt lat="44.13758" lon="7.23464">
        <ele>2065.2</ele>
        <time>2023-02-05T12:11:59Z</time>
      </trkpt>
      <trkpt lat="44.13758" lon="7.23464">
        <ele>2065.1</ele>
        <time>2023-02-05T12:12:00Z</time>
      </trkpt>
      <trkpt lat="44.13758" lon="7.23464">
        <ele>2065.1</ele>
        <time>2023-02-05T12:12:01Z</time>
      </trkpt>
      <trkpt lat="44.13758" lon="7.23464">
        <ele>2065.1</ele>
        <time>2023-02-05T12:12:02Z</time>
      </trkpt>
      <trkpt lat="44.13758" lon="7.23464">
        <ele>2065.1</ele>
        <time>2023-02-05T12:12:03Z</time>
      </trkpt>
      <trkpt lat="44.13758" lon="7.23464">
        <ele>2065.2</ele>
        <time>2023-02-05T12:12:04Z</time>
      </trkpt>
      <trkpt lat="44.13759" lon="7.23464">
        <ele>2065.2</ele>
        <time>2023-02-05T12:12:05Z</time>
      </trkpt>
      <trkpt lat="44.13759" lon="7.23464">
        <ele>2065.2</ele>
        <time>2023-02-05T12:12:06Z</time>
      </trkpt>
      <trkpt lat="44.1376" lon="7.23464">
        <ele>2065.1</ele>
        <time>2023-02-05T12:12:07Z</time>
      </trkpt>
      <trkpt lat="44.1376" lon="7.23464">
        <ele>2065.1</ele>
        <time>2023-02-05T12:12:08Z</time>
      </trkpt>
      <trkpt lat="44.1376" lon="7.23464">
        <ele>2065.4</ele>
        <time>2023-02-05T12:12:09Z</time>
      </trkpt>
      <trkpt lat="44.1376" lon="7.23464">
        <ele>2064.7</ele>
        <time>2023-02-05T12:12:10Z</time>
      </trkpt>
      <trkpt lat="44.1376" lon="7.23464">
        <ele>2065.4</ele>
        <time>2023-02-05T12:12:11Z</time>
      </trkpt>
      <trkpt lat="44.1376" lon="7.23464">
        <ele>2065.4</ele>
        <time>2023-02-05T12:12:12Z</time>
      </trkpt>
      <trkpt lat="44.13759" lon="7.23464">
        <ele>2065.4</ele>
        <time>2023-02-05T12:12:13Z</time>
      </trkpt>
      <trkpt lat="44.13759" lon="7.23464">
        <ele>2065.5</ele>
        <time>2023-02-05T12:12:14Z</time>
      </trkpt>
      <trkpt lat="44.13759" lon="7.23464">
        <ele>2065.5</ele>
        <time>2023-02-05T12:12:15Z</time>
      </trkpt>
      <trkpt lat="44.13759" lon="7.23464">
        <ele>2065.6</ele>
        <time>2023-02-05T12:12:16Z</time>
      </trkpt>
      <trkpt lat="44.13759" lon="7.23464">
        <ele>2065.6</ele>
        <time>2023-02-05T12:12:17Z</time>
      </trkpt>
      <trkpt lat="44.13759" lon="7.23464">
        <ele>2065.6</ele>
        <time>2023-02-05T12:12:18Z</time>
      </trkpt>
      <trkpt lat="44.13759" lon="7.23464">
        <ele>2065.7</ele>
        <time>2023-02-05T12:12:19Z</time>
      </trkpt>
      <trkpt lat="44.13759" lon="7.23464">
        <ele>2065.7</ele>
        <time>2023-02-05T12:12:20Z</time>
      </trkpt>
      <trkpt lat="44.13758" lon="7.23464">
        <ele>2065.7</ele>
        <time>2023-02-05T12:12:21Z</time>
      </trkpt>
      <trkpt lat="44.13759" lon="7.23464">
        <ele>2065.5</ele>
        <time>2023-02-05T12:12:22Z</time>
      </trkpt>
      <trkpt lat="44.13758" lon="7.23464">
        <ele>2065.4</ele>
        <time>2023-02-05T12:12:23Z</time>
      </trkpt>
      <trkpt lat="44.13758" lon="7.23465">
        <ele>2065.5</ele>
        <time>2023-02-05T12:12:24Z</time>
      </trkpt>
      <trkpt lat="44.13758" lon="7.23465">
        <ele>2065.4</ele>
        <time>2023-02-05T12:12:25Z</time>
      </trkpt>
      <trkpt lat="44.13758" lon="7.23465">
        <ele>2065.4</ele>
        <time>2023-02-05T12:12:26Z</time>
      </trkpt>
      <trkpt lat="44.13758" lon="7.23465">
        <ele>2065.4</ele>
        <time>2023-02-05T12:12:27Z</time>
      </trkpt>
      <trkpt lat="44.13758" lon="7.23465">
        <ele>2065.4</ele>
        <time>2023-02-05T12:12:28Z</time>
      </trkpt>
      <trkpt lat="44.13759" lon="7.23465">
        <ele>2065.4</ele>
        <time>2023-02-05T12:12:29Z</time>
      </trkpt>
      <trkpt lat="44.13759" lon="7.23465">
        <ele>2065.4</ele>
        <time>2023-02-05T12:12:30Z</time>
      </trkpt>
      <trkpt lat="44.13759" lon="7.23465">
        <ele>2065.4</ele>
        <time>2023-02-05T12:12:31Z</time>
      </trkpt>
      <trkpt lat="44.13759" lon="7.23465">
        <ele>2065.5</ele>
        <time>2023-02-05T12:12:32Z</time>
      </trkpt>
      <trkpt lat="44.13759" lon="7.23465">
        <ele>2065.5</ele>
        <time>2023-02-05T12:12:33Z</time>
      </trkpt>
      <trkpt lat="44.13759" lon="7.23465">
        <ele>2065.5</ele>
        <time>2023-02-05T12:12:34Z</time>
      </trkpt>
      <trkpt lat="44.13759" lon="7.23465">
        <ele>2065.5</ele>
        <time>2023-02-05T12:12:35Z</time>
      </trkpt>
      <trkpt lat="44.13759" lon="7.23465">
        <ele>2065.5</ele>
        <time>2023-02-05T12:12:36Z</time>
      </trkpt>
      <trkpt lat="44.13759" lon="7.23465">
        <ele>2065.5</ele>
        <time>2023-02-05T12:12:37Z</time>
      </trkpt>
      <trkpt lat="44.13759" lon="7.23465">
        <ele>2065.5</ele>
        <time>2023-02-05T12:12:38Z</time>
      </trkpt>
      <trkpt lat="44.13759" lon="7.23466">
        <ele>2065.6</ele>
        <time>2023-02-05T12:12:39Z</time>
      </trkpt>
      <trkpt lat="44.13759" lon="7.23466">
        <ele>2065.6</ele>
        <time>2023-02-05T12:12:40Z</time>
      </trkpt>
      <trkpt lat="44.13758" lon="7.23466">
        <ele>2065.6</ele>
        <time>2023-02-05T12:12:41Z</time>
      </trkpt>
      <trkpt lat="44.13758" lon="7.23466">
        <ele>2065.5</ele>
        <time>2023-02-05T12:12:42Z</time>
      </trkpt>
      <trkpt lat="44.13758" lon="7.23466">
        <ele>2065.5</ele>
        <time>2023-02-05T12:12:43Z</time>
      </trkpt>
      <trkpt lat="44.13758" lon="7.23466">
        <ele>2065.5</ele>
        <time>2023-02-05T12:12:44Z</time>
      </trkpt>
      <trkpt lat="44.13758" lon="7.23466">
        <ele>2065.5</ele>
        <time>2023-02-05T12:12:45Z</time>
      </trkpt>
      <trkpt lat="44.13758" lon="7.23466">
        <ele>2065.6</ele>
        <time>2023-02-05T12:12:46Z</time>
      </trkpt>
      <trkpt lat="44.13757" lon="7.23466">
        <ele>2065.6</ele>
        <time>2023-02-05T12:12:47Z</time>
      </trkpt>
      <trkpt lat="44.13757" lon="7.23466">
        <ele>2065.7</ele>
        <time>2023-02-05T12:12:48Z</time>
      </trkpt>
      <trkpt lat="44.13757" lon="7.23466">
        <ele>2065.7</ele>
        <time>2023-02-05T12:12:49Z</time>
      </trkpt>
      <trkpt lat="44.13758" lon="7.23466">
        <ele>2065.7</ele>
        <time>2023-02-05T12:12:50Z</time>
      </trkpt>
      <trkpt lat="44.13758" lon="7.23466">
        <ele>2065.7</ele>
        <time>2023-02-05T12:12:51Z</time>
      </trkpt>
      <trkpt lat="44.13758" lon="7.23466">
        <ele>2065.8</ele>
        <time>2023-02-05T12:12:52Z</time>
      </trkpt>
      <trkpt lat="44.13758" lon="7.23466">
        <ele>2065.8</ele>
        <time>2023-02-05T12:12:53Z</time>
      </trkpt>
      <trkpt lat="44.13758" lon="7.23466">
        <ele>2065.8</ele>
        <time>2023-02-05T12:12:54Z</time>
      </trkpt>
      <trkpt lat="44.13758" lon="7.23466">
        <ele>2065.9</ele>
        <time>2023-02-05T12:12:55Z</time>
      </trkpt>
      <trkpt lat="44.13758" lon="7.23465">
        <ele>2066.2</ele>
        <time>2023-02-05T12:12:56Z</time>
      </trkpt>
      <trkpt lat="44.13758" lon="7.23465">
        <ele>2066.2</ele>
        <time>2023-02-05T12:12:57Z</time>
      </trkpt>
      <trkpt lat="44.13758" lon="7.23465">
        <ele>2066.1</ele>
        <time>2023-02-05T12:12:58Z</time>
      </trkpt>
      <trkpt lat="44.13758" lon="7.23465">
        <ele>2066.1</ele>
        <time>2023-02-05T12:12:59Z</time>
      </trkpt>
      <trkpt lat="44.13758" lon="7.23465">
        <ele>2066.1</ele>
        <time>2023-02-05T12:13:00Z</time>
      </trkpt>
      <trkpt lat="44.13758" lon="7.23465">
        <ele>2066.2</ele>
        <time>2023-02-05T12:13:01Z</time>
      </trkpt>
      <trkpt lat="44.13758" lon="7.23465">
        <ele>2066</ele>
        <time>2023-02-05T12:13:02Z</time>
      </trkpt>
      <trkpt lat="44.13758" lon="7.23465">
        <ele>2065.5</ele>
        <time>2023-02-05T12:13:03Z</time>
      </trkpt>
      <trkpt lat="44.13758" lon="7.23465">
        <ele>2065.7</ele>
        <time>2023-02-05T12:13:04Z</time>
      </trkpt>
      <trkpt lat="44.13758" lon="7.23465">
        <ele>2065.4</ele>
        <time>2023-02-05T12:13:05Z</time>
      </trkpt>
      <trkpt lat="44.13758" lon="7.23465">
        <ele>2065.2</ele>
        <time>2023-02-05T12:13:06Z</time>
      </trkpt>
      <trkpt lat="44.13758" lon="7.23465">
        <ele>2065.4</ele>
        <time>2023-02-05T12:13:07Z</time>
      </trkpt>
      <trkpt lat="44.13758" lon="7.23465">
        <ele>2065.5</ele>
        <time>2023-02-05T12:13:08Z</time>
      </trkpt>
      <trkpt lat="44.13758" lon="7.23465">
        <ele>2065.5</ele>
        <time>2023-02-05T12:13:09Z</time>
      </trkpt>
      <trkpt lat="44.13758" lon="7.23464">
        <ele>2065.5</ele>
        <time>2023-02-05T12:13:10Z</time>
      </trkpt>
      <trkpt lat="44.13758" lon="7.23464">
        <ele>2065.5</ele>
        <time>2023-02-05T12:13:11Z</time>
      </trkpt>
      <trkpt lat="44.13758" lon="7.23464">
        <ele>2064.6</ele>
        <time>2023-02-05T12:13:12Z</time>
      </trkpt>
      <trkpt lat="44.13759" lon="7.23464">
        <ele>2064.6</ele>
        <time>2023-02-05T12:13:13Z</time>
      </trkpt>
      <trkpt lat="44.13759" lon="7.23464">
        <ele>2064.8</ele>
        <time>2023-02-05T12:13:14Z</time>
      </trkpt>
      <trkpt lat="44.13759" lon="7.23464">
        <ele>2065</ele>
        <time>2023-02-05T12:13:15Z</time>
      </trkpt>
      <trkpt lat="44.13759" lon="7.23463">
        <ele>2065.3</ele>
        <time>2023-02-05T12:13:16Z</time>
      </trkpt>
      <trkpt lat="44.13759" lon="7.23463">
        <ele>2065.4</ele>
        <time>2023-02-05T12:13:17Z</time>
      </trkpt>
      <trkpt lat="44.13759" lon="7.23463">
        <ele>2065.4</ele>
        <time>2023-02-05T12:13:18Z</time>
      </trkpt>
      <trkpt lat="44.13759" lon="7.23463">
        <ele>2065.5</ele>
        <time>2023-02-05T12:13:19Z</time>
      </trkpt>
      <trkpt lat="44.13759" lon="7.23464">
        <ele>2065.6</ele>
        <time>2023-02-05T12:13:20Z</time>
      </trkpt>
      <trkpt lat="44.13759" lon="7.23464">
        <ele>2065.6</ele>
        <time>2023-02-05T12:13:21Z</time>
      </trkpt>
      <trkpt lat="44.13759" lon="7.23464">
        <ele>2065.6</ele>
        <time>2023-02-05T12:13:22Z</time>
      </trkpt>
      <trkpt lat="44.13759" lon="7.23464">
        <ele>2065.5</ele>
        <time>2023-02-05T12:13:23Z</time>
      </trkpt>
      <trkpt lat="44.13759" lon="7.23464">
        <ele>2065.3</ele>
        <time>2023-02-05T12:13:24Z</time>
      </trkpt>
      <trkpt lat="44.13759" lon="7.23464">
        <ele>2065.2</ele>
        <time>2023-02-05T12:13:25Z</time>
      </trkpt>
      <trkpt lat="44.13759" lon="7.23464">
        <ele>2065</ele>
        <time>2023-02-05T12:13:26Z</time>
      </trkpt>
      <trkpt lat="44.13759" lon="7.23464">
        <ele>2065.1</ele>
        <time>2023-02-05T12:13:27Z</time>
      </trkpt>
      <trkpt lat="44.13759" lon="7.23463">
        <ele>2065.1</ele>
        <time>2023-02-05T12:13:28Z</time>
      </trkpt>
      <trkpt lat="44.13759" lon="7.23463">
        <ele>2065.2</ele>
        <time>2023-02-05T12:13:29Z</time>
      </trkpt>
      <trkpt lat="44.13759" lon="7.23463">
        <ele>2065.2</ele>
        <time>2023-02-05T12:13:30Z</time>
      </trkpt>
      <trkpt lat="44.13759" lon="7.23463">
        <ele>2065.4</ele>
        <time>2023-02-05T12:13:31Z</time>
      </trkpt>
      <trkpt lat="44.13759" lon="7.23463">
        <ele>2066</ele>
        <time>2023-02-05T12:13:32Z</time>
      </trkpt>
      <trkpt lat="44.13759" lon="7.23463">
        <ele>2065.9</ele>
        <time>2023-02-05T12:13:33Z</time>
      </trkpt>
      <trkpt lat="44.13759" lon="7.23463">
        <ele>2065.6</ele>
        <time>2023-02-05T12:13:34Z</time>
      </trkpt>
      <trkpt lat="44.13759" lon="7.23463">
        <ele>2065.6</ele>
        <time>2023-02-05T12:13:35Z</time>
      </trkpt>
      <trkpt lat="44.13759" lon="7.23463">
        <ele>2065.6</ele>
        <time>2023-02-05T12:13:36Z</time>
      </trkpt>
      <trkpt lat="44.13759" lon="7.23463">
        <ele>2065.3</ele>
        <time>2023-02-05T12:13:37Z</time>
      </trkpt>
      <trkpt lat="44.13759" lon="7.23463">
        <ele>2065.3</ele>
        <time>2023-02-05T12:13:38Z</time>
      </trkpt>
      <trkpt lat="44.13759" lon="7.23463">
        <ele>2065.4</ele>
        <time>2023-02-05T12:13:39Z</time>
      </trkpt>
      <trkpt lat="44.13759" lon="7.23463">
        <ele>2065.2</ele>
        <time>2023-02-05T12:13:40Z</time>
      </trkpt>
      <trkpt lat="44.13759" lon="7.23463">
        <ele>2065.2</ele>
        <time>2023-02-05T12:13:41Z</time>
      </trkpt>
      <trkpt lat="44.13759" lon="7.23463">
        <ele>2065.3</ele>
        <time>2023-02-05T12:13:42Z</time>
      </trkpt>
      <trkpt lat="44.13759" lon="7.23463">
        <ele>2065.4</ele>
        <time>2023-02-05T12:13:43Z</time>
      </trkpt>
      <trkpt lat="44.13759" lon="7.23463">
        <ele>2065.3</ele>
        <time>2023-02-05T12:13:44Z</time>
      </trkpt>
      <trkpt lat="44.13758" lon="7.23463">
        <ele>2065.3</ele>
        <time>2023-02-05T12:13:45Z</time>
      </trkpt>
      <trkpt lat="44.13758" lon="7.23463">
        <ele>2065.3</ele>
        <time>2023-02-05T12:13:46Z</time>
      </trkpt>
      <trkpt lat="44.13758" lon="7.23463">
        <ele>2065.4</ele>
        <time>2023-02-05T12:13:47Z</time>
      </trkpt>
      <trkpt lat="44.13758" lon="7.23463">
        <ele>2065.4</ele>
        <time>2023-02-05T12:13:48Z</time>
      </trkpt>
      <trkpt lat="44.13758" lon="7.23463">
        <ele>2065.4</ele>
        <time>2023-02-05T12:13:49Z</time>
      </trkpt>
      <trkpt lat="44.13758" lon="7.23463">
        <ele>2065.6</ele>
        <time>2023-02-05T12:13:50Z</time>
      </trkpt>
      <trkpt lat="44.13758" lon="7.23463">
        <ele>2065.6</ele>
        <time>2023-02-05T12:13:51Z</time>
      </trkpt>
      <trkpt lat="44.13758" lon="7.23463">
        <ele>2065.7</ele>
        <time>2023-02-05T12:13:52Z</time>
      </trkpt>
      <trkpt lat="44.13758" lon="7.23463">
        <ele>2065.8</ele>
        <time>2023-02-05T12:13:53Z</time>
      </trkpt>
      <trkpt lat="44.13758" lon="7.23463">
        <ele>2065.7</ele>
        <time>2023-02-05T12:13:54Z</time>
      </trkpt>
      <trkpt lat="44.13758" lon="7.23463">
        <ele>2065.6</ele>
        <time>2023-02-05T12:13:55Z</time>
      </trkpt>
      <trkpt lat="44.13758" lon="7.23463">
        <ele>2064.8</ele>
        <time>2023-02-05T12:13:56Z</time>
      </trkpt>
      <trkpt lat="44.13758" lon="7.23463">
        <ele>2065</ele>
        <time>2023-02-05T12:13:57Z</time>
      </trkpt>
      <trkpt lat="44.13758" lon="7.23463">
        <ele>2065.2</ele>
        <time>2023-02-05T12:13:58Z</time>
      </trkpt>
      <trkpt lat="44.13758" lon="7.23463">
        <ele>2065.4</ele>
        <time>2023-02-05T12:13:59Z</time>
      </trkpt>
      <trkpt lat="44.13757" lon="7.23463">
        <ele>2064.6</ele>
        <time>2023-02-05T12:14:00Z</time>
      </trkpt>
      <trkpt lat="44.13758" lon="7.23463">
        <ele>2065</ele>
        <time>2023-02-05T12:14:01Z</time>
      </trkpt>
      <trkpt lat="44.13758" lon="7.23463">
        <ele>2065.3</ele>
        <time>2023-02-05T12:14:02Z</time>
      </trkpt>
      <trkpt lat="44.13758" lon="7.23463">
        <ele>2065.6</ele>
        <time>2023-02-05T12:14:03Z</time>
      </trkpt>
      <trkpt lat="44.13758" lon="7.23463">
        <ele>2065.7</ele>
        <time>2023-02-05T12:14:04Z</time>
      </trkpt>
      <trkpt lat="44.13758" lon="7.23463">
        <ele>2065.8</ele>
        <time>2023-02-05T12:14:05Z</time>
      </trkpt>
      <trkpt lat="44.13758" lon="7.23462">
        <ele>2065.6</ele>
        <time>2023-02-05T12:14:06Z</time>
      </trkpt>
      <trkpt lat="44.13758" lon="7.23462">
        <ele>2065.5</ele>
        <time>2023-02-05T12:14:07Z</time>
      </trkpt>
      <trkpt lat="44.13758" lon="7.23462">
        <ele>2066</ele>
        <time>2023-02-05T12:14:08Z</time>
      </trkpt>
      <trkpt lat="44.13758" lon="7.23462">
        <ele>2066.1</ele>
        <time>2023-02-05T12:14:09Z</time>
      </trkpt>
      <trkpt lat="44.13759" lon="7.23462">
        <ele>2065.6</ele>
        <time>2023-02-05T12:14:10Z</time>
      </trkpt>
      <trkpt lat="44.13759" lon="7.23462">
        <ele>2065.6</ele>
        <time>2023-02-05T12:14:11Z</time>
      </trkpt>
      <trkpt lat="44.13759" lon="7.23461">
        <ele>2065.3</ele>
        <time>2023-02-05T12:14:12Z</time>
      </trkpt>
      <trkpt lat="44.13759" lon="7.23461">
        <ele>2065.3</ele>
        <time>2023-02-05T12:14:13Z</time>
      </trkpt>
      <trkpt lat="44.1376" lon="7.23461">
        <ele>2065.3</ele>
        <time>2023-02-05T12:14:14Z</time>
      </trkpt>
      <trkpt lat="44.1376" lon="7.23461">
        <ele>2065.4</ele>
        <time>2023-02-05T12:14:15Z</time>
      </trkpt>
      <trkpt lat="44.1376" lon="7.23461">
        <ele>2065.5</ele>
        <time>2023-02-05T12:14:16Z</time>
      </trkpt>
      <trkpt lat="44.1376" lon="7.23462">
        <ele>2064.9</ele>
        <time>2023-02-05T12:14:17Z</time>
      </trkpt>
      <trkpt lat="44.1376" lon="7.23462">
        <ele>2065</ele>
        <time>2023-02-05T12:14:18Z</time>
      </trkpt>
      <trkpt lat="44.1376" lon="7.23462">
        <ele>2065</ele>
        <time>2023-02-05T12:14:19Z</time>
      </trkpt>
      <trkpt lat="44.1376" lon="7.23461">
        <ele>2065.1</ele>
        <time>2023-02-05T12:14:20Z</time>
      </trkpt>
      <trkpt lat="44.13761" lon="7.23461">
        <ele>2065.1</ele>
        <time>2023-02-05T12:14:21Z</time>
      </trkpt>
      <trkpt lat="44.13761" lon="7.23461">
        <ele>2065.3</ele>
        <time>2023-02-05T12:14:22Z</time>
      </trkpt>
      <trkpt lat="44.13762" lon="7.23461">
        <ele>2065.4</ele>
        <time>2023-02-05T12:14:23Z</time>
      </trkpt>
      <trkpt lat="44.13762" lon="7.23461">
        <ele>2065.4</ele>
        <time>2023-02-05T12:14:24Z</time>
      </trkpt>
      <trkpt lat="44.13762" lon="7.23461">
        <ele>2065.5</ele>
        <time>2023-02-05T12:14:25Z</time>
      </trkpt>
      <trkpt lat="44.13763" lon="7.23461">
        <ele>2065.6</ele>
        <time>2023-02-05T12:14:26Z</time>
      </trkpt>
      <trkpt lat="44.13763" lon="7.2346">
        <ele>2065.5</ele>
        <time>2023-02-05T12:14:27Z</time>
      </trkpt>
      <trkpt lat="44.13763" lon="7.2346">
        <ele>2065.5</ele>
        <time>2023-02-05T12:14:28Z</time>
      </trkpt>
      <trkpt lat="44.13763" lon="7.2346">
        <ele>2065.5</ele>
        <time>2023-02-05T12:14:29Z</time>
      </trkpt>
      <trkpt lat="44.13763" lon="7.23461">
        <ele>2065.5</ele>
        <time>2023-02-05T12:14:30Z</time>
      </trkpt>
      <trkpt lat="44.13763" lon="7.2346">
        <ele>2065.5</ele>
        <time>2023-02-05T12:14:31Z</time>
      </trkpt>
      <trkpt lat="44.13763" lon="7.2346">
        <ele>2065.6</ele>
        <time>2023-02-05T12:14:32Z</time>
      </trkpt>
      <trkpt lat="44.13763" lon="7.2346">
        <ele>2065.7</ele>
        <time>2023-02-05T12:14:33Z</time>
      </trkpt>
      <trkpt lat="44.13764" lon="7.2346">
        <ele>2065.8</ele>
        <time>2023-02-05T12:14:34Z</time>
      </trkpt>
      <trkpt lat="44.13764" lon="7.2346">
        <ele>2065.8</ele>
        <time>2023-02-05T12:14:35Z</time>
      </trkpt>
      <trkpt lat="44.13764" lon="7.2346">
        <ele>2065.9</ele>
        <time>2023-02-05T12:14:36Z</time>
      </trkpt>
      <trkpt lat="44.13764" lon="7.2346">
        <ele>2065.7</ele>
        <time>2023-02-05T12:14:37Z</time>
      </trkpt>
      <trkpt lat="44.13764" lon="7.23459">
        <ele>2065.8</ele>
        <time>2023-02-05T12:14:38Z</time>
      </trkpt>
      <trkpt lat="44.13764" lon="7.23459">
        <ele>2065.8</ele>
        <time>2023-02-05T12:14:39Z</time>
      </trkpt>
      <trkpt lat="44.13764" lon="7.23459">
        <ele>2065.8</ele>
        <time>2023-02-05T12:14:40Z</time>
      </trkpt>
      <trkpt lat="44.13764" lon="7.23459">
        <ele>2065.8</ele>
        <time>2023-02-05T12:14:41Z</time>
      </trkpt>
      <trkpt lat="44.13764" lon="7.23459">
        <ele>2065.7</ele>
        <time>2023-02-05T12:14:42Z</time>
      </trkpt>
      <trkpt lat="44.13764" lon="7.23459">
        <ele>2065.6</ele>
        <time>2023-02-05T12:14:43Z</time>
      </trkpt>
      <trkpt lat="44.13764" lon="7.23458">
        <ele>2065.6</ele>
        <time>2023-02-05T12:14:44Z</time>
      </trkpt>
      <trkpt lat="44.13764" lon="7.23458">
        <ele>2065.6</ele>
        <time>2023-02-05T12:14:45Z</time>
      </trkpt>
      <trkpt lat="44.13764" lon="7.23458">
        <ele>2065.4</ele>
        <time>2023-02-05T12:14:46Z</time>
      </trkpt>
      <trkpt lat="44.13764" lon="7.23458">
        <ele>2065.7</ele>
        <time>2023-02-05T12:14:47Z</time>
      </trkpt>
      <trkpt lat="44.13764" lon="7.23458">
        <ele>2065.5</ele>
        <time>2023-02-05T12:14:48Z</time>
      </trkpt>
      <trkpt lat="44.13764" lon="7.23457">
        <ele>2065.6</ele>
        <time>2023-02-05T12:14:49Z</time>
      </trkpt>
      <trkpt lat="44.13764" lon="7.23457">
        <ele>2065.7</ele>
        <time>2023-02-05T12:14:50Z</time>
      </trkpt>
      <trkpt lat="44.13764" lon="7.23458">
        <ele>2065.8</ele>
        <time>2023-02-05T12:14:51Z</time>
      </trkpt>
      <trkpt lat="44.13764" lon="7.23458">
        <ele>2065.8</ele>
        <time>2023-02-05T12:14:52Z</time>
      </trkpt>
      <trkpt lat="44.13764" lon="7.23459">
        <ele>2065.6</ele>
        <time>2023-02-05T12:14:53Z</time>
      </trkpt>
      <trkpt lat="44.13764" lon="7.23459">
        <ele>2065.5</ele>
        <time>2023-02-05T12:14:54Z</time>
      </trkpt>
      <trkpt lat="44.13764" lon="7.2346">
        <ele>2065.6</ele>
        <time>2023-02-05T12:14:55Z</time>
      </trkpt>
      <trkpt lat="44.13764" lon="7.2346">
        <ele>2065.8</ele>
        <time>2023-02-05T12:14:56Z</time>
      </trkpt>
      <trkpt lat="44.13763" lon="7.2346">
        <ele>2065.8</ele>
        <time>2023-02-05T12:14:57Z</time>
      </trkpt>
      <trkpt lat="44.13762" lon="7.2346">
        <ele>2066.2</ele>
        <time>2023-02-05T12:14:58Z</time>
      </trkpt>
      <trkpt lat="44.13762" lon="7.23461">
        <ele>2066.3</ele>
        <time>2023-02-05T12:14:59Z</time>
      </trkpt>
      <trkpt lat="44.13762" lon="7.23461">
        <ele>2066.3</ele>
        <time>2023-02-05T12:15:00Z</time>
      </trkpt>
      <trkpt lat="44.13761" lon="7.23461">
        <ele>2066.3</ele>
        <time>2023-02-05T12:15:01Z</time>
      </trkpt>
      <trkpt lat="44.13761" lon="7.23461">
        <ele>2066.2</ele>
        <time>2023-02-05T12:15:02Z</time>
      </trkpt>
      <trkpt lat="44.1376" lon="7.23461">
        <ele>2066.1</ele>
        <time>2023-02-05T12:15:03Z</time>
      </trkpt>
      <trkpt lat="44.1376" lon="7.23461">
        <ele>2065.9</ele>
        <time>2023-02-05T12:15:04Z</time>
      </trkpt>
      <trkpt lat="44.1376" lon="7.23461">
        <ele>2066.2</ele>
        <time>2023-02-05T12:15:05Z</time>
      </trkpt>
      <trkpt lat="44.13759" lon="7.23461">
        <ele>2066.1</ele>
        <time>2023-02-05T12:15:06Z</time>
      </trkpt>
      <trkpt lat="44.13759" lon="7.23461">
        <ele>2066</ele>
        <time>2023-02-05T12:15:07Z</time>
      </trkpt>
      <trkpt lat="44.13759" lon="7.23461">
        <ele>2065.9</ele>
        <time>2023-02-05T12:15:08Z</time>
      </trkpt>
      <trkpt lat="44.13759" lon="7.23462">
        <ele>2065.9</ele>
        <time>2023-02-05T12:15:09Z</time>
      </trkpt>
      <trkpt lat="44.13758" lon="7.23462">
        <ele>2066</ele>
        <time>2023-02-05T12:15:10Z</time>
      </trkpt>
      <trkpt lat="44.13759" lon="7.23462">
        <ele>2066.1</ele>
        <time>2023-02-05T12:15:11Z</time>
      </trkpt>
      <trkpt lat="44.13759" lon="7.23462">
        <ele>2066.1</ele>
        <time>2023-02-05T12:15:12Z</time>
      </trkpt>
      <trkpt lat="44.13759" lon="7.23462">
        <ele>2066.1</ele>
        <time>2023-02-05T12:15:13Z</time>
      </trkpt>
      <trkpt lat="44.13758" lon="7.23462">
        <ele>2066.1</ele>
        <time>2023-02-05T12:15:14Z</time>
      </trkpt>
      <trkpt lat="44.13758" lon="7.23462">
        <ele>2066.2</ele>
        <time>2023-02-05T12:15:15Z</time>
      </trkpt>
      <trkpt lat="44.13758" lon="7.23462">
        <ele>2066.2</ele>
        <time>2023-02-05T12:15:16Z</time>
      </trkpt>
      <trkpt lat="44.13758" lon="7.23462">
        <ele>2066.2</ele>
        <time>2023-02-05T12:15:17Z</time>
      </trkpt>
      <trkpt lat="44.13758" lon="7.23463">
        <ele>2066.3</ele>
        <time>2023-02-05T12:15:18Z</time>
      </trkpt>
      <trkpt lat="44.13758" lon="7.23463">
        <ele>2066.3</ele>
        <time>2023-02-05T12:15:19Z</time>
      </trkpt>
      <trkpt lat="44.13757" lon="7.23463">
        <ele>2066.4</ele>
        <time>2023-02-05T12:15:20Z</time>
      </trkpt>
      <trkpt lat="44.13757" lon="7.23463">
        <ele>2066.4</ele>
        <time>2023-02-05T12:15:21Z</time>
      </trkpt>
      <trkpt lat="44.13756" lon="7.23463">
        <ele>2066.4</ele>
        <time>2023-02-05T12:15:22Z</time>
      </trkpt>
      <trkpt lat="44.13756" lon="7.23463">
        <ele>2066.4</ele>
        <time>2023-02-05T12:15:23Z</time>
      </trkpt>
      <trkpt lat="44.13756" lon="7.23463">
        <ele>2066.4</ele>
        <time>2023-02-05T12:15:24Z</time>
      </trkpt>
      <trkpt lat="44.13756" lon="7.23463">
        <ele>2066.4</ele>
        <time>2023-02-05T12:15:25Z</time>
      </trkpt>
      <trkpt lat="44.13756" lon="7.23463">
        <ele>2066.5</ele>
        <time>2023-02-05T12:15:26Z</time>
      </trkpt>
      <trkpt lat="44.13756" lon="7.23463">
        <ele>2066.6</ele>
        <time>2023-02-05T12:15:27Z</time>
      </trkpt>
      <trkpt lat="44.13756" lon="7.23463">
        <ele>2066.6</ele>
        <time>2023-02-05T12:15:28Z</time>
      </trkpt>
      <trkpt lat="44.13756" lon="7.23464">
        <ele>2066.6</ele>
        <time>2023-02-05T12:15:29Z</time>
      </trkpt>
      <trkpt lat="44.13756" lon="7.23464">
        <ele>2066.5</ele>
        <time>2023-02-05T12:15:30Z</time>
      </trkpt>
      <trkpt lat="44.13755" lon="7.23464">
        <ele>2066.5</ele>
        <time>2023-02-05T12:15:31Z</time>
      </trkpt>
      <trkpt lat="44.13755" lon="7.23464">
        <ele>2066.6</ele>
        <time>2023-02-05T12:15:32Z</time>
      </trkpt>
      <trkpt lat="44.13755" lon="7.23464">
        <ele>2066.5</ele>
        <time>2023-02-05T12:15:33Z</time>
      </trkpt>
      <trkpt lat="44.13755" lon="7.23464">
        <ele>2066.4</ele>
        <time>2023-02-05T12:15:34Z</time>
      </trkpt>
      <trkpt lat="44.13755" lon="7.23464">
        <ele>2066.6</ele>
        <time>2023-02-05T12:15:35Z</time>
      </trkpt>
      <trkpt lat="44.13755" lon="7.23464">
        <ele>2066.6</ele>
        <time>2023-02-05T12:15:36Z</time>
      </trkpt>
      <trkpt lat="44.13755" lon="7.23464">
        <ele>2066.5</ele>
        <time>2023-02-05T12:15:37Z</time>
      </trkpt>
      <trkpt lat="44.13755" lon="7.23464">
        <ele>2066.6</ele>
        <time>2023-02-05T12:15:38Z</time>
      </trkpt>
      <trkpt lat="44.13755" lon="7.23464">
        <ele>2066.6</ele>
        <time>2023-02-05T12:15:39Z</time>
      </trkpt>
      <trkpt lat="44.13755" lon="7.23464">
        <ele>2066.5</ele>
        <time>2023-02-05T12:15:40Z</time>
      </trkpt>
      <trkpt lat="44.13756" lon="7.23464">
        <ele>2066.5</ele>
        <time>2023-02-05T12:15:41Z</time>
      </trkpt>
      <trkpt lat="44.13756" lon="7.23464">
        <ele>2066.5</ele>
        <time>2023-02-05T12:15:42Z</time>
      </trkpt>
      <trkpt lat="44.13756" lon="7.23465">
        <ele>2066.3</ele>
        <time>2023-02-05T12:15:43Z</time>
      </trkpt>
      <trkpt lat="44.13756" lon="7.23465">
        <ele>2066.2</ele>
        <time>2023-02-05T12:15:44Z</time>
      </trkpt>
      <trkpt lat="44.13756" lon="7.23465">
        <ele>2066.4</ele>
        <time>2023-02-05T12:15:45Z</time>
      </trkpt>
      <trkpt lat="44.13756" lon="7.23465">
        <ele>2066.4</ele>
        <time>2023-02-05T12:15:46Z</time>
      </trkpt>
      <trkpt lat="44.13755" lon="7.23465">
        <ele>2066.5</ele>
        <time>2023-02-05T12:15:47Z</time>
      </trkpt>
      <trkpt lat="44.13755" lon="7.23465">
        <ele>2066.4</ele>
        <time>2023-02-05T12:15:48Z</time>
      </trkpt>
      <trkpt lat="44.13755" lon="7.23465">
        <ele>2066.3</ele>
        <time>2023-02-05T12:15:49Z</time>
      </trkpt>
      <trkpt lat="44.13755" lon="7.23465">
        <ele>2066.3</ele>
        <time>2023-02-05T12:15:50Z</time>
      </trkpt>
      <trkpt lat="44.13755" lon="7.23465">
        <ele>2066.3</ele>
        <time>2023-02-05T12:15:51Z</time>
      </trkpt>
      <trkpt lat="44.13755" lon="7.23465">
        <ele>2066.4</ele>
        <time>2023-02-05T12:15:52Z</time>
      </trkpt>
      <trkpt lat="44.13755" lon="7.23465">
        <ele>2066.4</ele>
        <time>2023-02-05T12:15:53Z</time>
      </trkpt>
      <trkpt lat="44.13755" lon="7.23465">
        <ele>2066.4</ele>
        <time>2023-02-05T12:15:54Z</time>
      </trkpt>
      <trkpt lat="44.13755" lon="7.23465">
        <ele>2066.5</ele>
        <time>2023-02-05T12:15:55Z</time>
      </trkpt>
      <trkpt lat="44.13755" lon="7.23465">
        <ele>2066.5</ele>
        <time>2023-02-05T12:15:56Z</time>
      </trkpt>
      <trkpt lat="44.13755" lon="7.23465">
        <ele>2066.6</ele>
        <time>2023-02-05T12:15:57Z</time>
      </trkpt>
      <trkpt lat="44.13755" lon="7.23464">
        <ele>2066.6</ele>
        <time>2023-02-05T12:15:58Z</time>
      </trkpt>
      <trkpt lat="44.13755" lon="7.23464">
        <ele>2066.6</ele>
        <time>2023-02-05T12:15:59Z</time>
      </trkpt>
      <trkpt lat="44.13755" lon="7.23463">
        <ele>2066.6</ele>
        <time>2023-02-05T12:16:00Z</time>
      </trkpt>
      <trkpt lat="44.13755" lon="7.23463">
        <ele>2066.5</ele>
        <time>2023-02-05T12:16:01Z</time>
      </trkpt>
      <trkpt lat="44.13755" lon="7.23463">
        <ele>2066.5</ele>
        <time>2023-02-05T12:16:02Z</time>
      </trkpt>
      <trkpt lat="44.13755" lon="7.23463">
        <ele>2066.5</ele>
        <time>2023-02-05T12:16:03Z</time>
      </trkpt>
      <trkpt lat="44.13755" lon="7.23463">
        <ele>2066.5</ele>
        <time>2023-02-05T12:16:04Z</time>
      </trkpt>
      <trkpt lat="44.13755" lon="7.23463">
        <ele>2066.5</ele>
        <time>2023-02-05T12:16:05Z</time>
      </trkpt>
      <trkpt lat="44.13755" lon="7.23463">
        <ele>2066.5</ele>
        <time>2023-02-05T12:16:06Z</time>
      </trkpt>
      <trkpt lat="44.13755" lon="7.23462">
        <ele>2066.5</ele>
        <time>2023-02-05T12:16:07Z</time>
      </trkpt>
      <trkpt lat="44.13755" lon="7.23463">
        <ele>2066.5</ele>
        <time>2023-02-05T12:16:08Z</time>
      </trkpt>
      <trkpt lat="44.13755" lon="7.23463">
        <ele>2066.5</ele>
        <time>2023-02-05T12:16:09Z</time>
      </trkpt>
      <trkpt lat="44.13755" lon="7.23463">
        <ele>2066.5</ele>
        <time>2023-02-05T12:16:10Z</time>
      </trkpt>
      <trkpt lat="44.13754" lon="7.23463">
        <ele>2066.5</ele>
        <time>2023-02-05T12:16:11Z</time>
      </trkpt>
      <trkpt lat="44.13754" lon="7.23463">
        <ele>2066.5</ele>
        <time>2023-02-05T12:16:12Z</time>
      </trkpt>
      <trkpt lat="44.13755" lon="7.23463">
        <ele>2066.5</ele>
        <time>2023-02-05T12:16:13Z</time>
      </trkpt>
      <trkpt lat="44.13755" lon="7.23463">
        <ele>2066.5</ele>
        <time>2023-02-05T12:16:14Z</time>
      </trkpt>
      <trkpt lat="44.13754" lon="7.23463">
        <ele>2066.5</ele>
        <time>2023-02-05T12:16:15Z</time>
      </trkpt>
      <trkpt lat="44.13754" lon="7.23463">
        <ele>2066.5</ele>
        <time>2023-02-05T12:16:16Z</time>
      </trkpt>
      <trkpt lat="44.13754" lon="7.23463">
        <ele>2066.5</ele>
        <time>2023-02-05T12:16:17Z</time>
      </trkpt>
      <trkpt lat="44.13754" lon="7.23464">
        <ele>2066.5</ele>
        <time>2023-02-05T12:16:18Z</time>
      </trkpt>
      <trkpt lat="44.13754" lon="7.23464">
        <ele>2066.6</ele>
        <time>2023-02-05T12:16:19Z</time>
      </trkpt>
      <trkpt lat="44.13754" lon="7.23464">
        <ele>2066.6</ele>
        <time>2023-02-05T12:16:20Z</time>
      </trkpt>
      <trkpt lat="44.13754" lon="7.23464">
        <ele>2066.6</ele>
        <time>2023-02-05T12:16:21Z</time>
      </trkpt>
      <trkpt lat="44.13754" lon="7.23464">
        <ele>2066.7</ele>
        <time>2023-02-05T12:16:22Z</time>
      </trkpt>
      <trkpt lat="44.13754" lon="7.23464">
        <ele>2066.7</ele>
        <time>2023-02-05T12:16:23Z</time>
      </trkpt>
      <trkpt lat="44.13754" lon="7.23464">
        <ele>2066.7</ele>
        <time>2023-02-05T12:16:24Z</time>
      </trkpt>
      <trkpt lat="44.13754" lon="7.23464">
        <ele>2066.7</ele>
        <time>2023-02-05T12:16:25Z</time>
      </trkpt>
      <trkpt lat="44.13754" lon="7.23465">
        <ele>2066.7</ele>
        <time>2023-02-05T12:16:26Z</time>
      </trkpt>
      <trkpt lat="44.13754" lon="7.23465">
        <ele>2066.6</ele>
        <time>2023-02-05T12:16:27Z</time>
      </trkpt>
      <trkpt lat="44.13754" lon="7.23465">
        <ele>2066.6</ele>
        <time>2023-02-05T12:16:28Z</time>
      </trkpt>
      <trkpt lat="44.13754" lon="7.23465">
        <ele>2066.6</ele>
        <time>2023-02-05T12:16:29Z</time>
      </trkpt>
      <trkpt lat="44.13754" lon="7.23465">
        <ele>2066.6</ele>
        <time>2023-02-05T12:16:30Z</time>
      </trkpt>
      <trkpt lat="44.13754" lon="7.23464">
        <ele>2066.6</ele>
        <time>2023-02-05T12:16:31Z</time>
      </trkpt>
      <trkpt lat="44.13753" lon="7.23464">
        <ele>2066.6</ele>
        <time>2023-02-05T12:16:32Z</time>
      </trkpt>
      <trkpt lat="44.13754" lon="7.23464">
        <ele>2066.6</ele>
        <time>2023-02-05T12:16:33Z</time>
      </trkpt>
      <trkpt lat="44.13754" lon="7.23464">
        <ele>2066.7</ele>
        <time>2023-02-05T12:16:34Z</time>
      </trkpt>
      <trkpt lat="44.13754" lon="7.23464">
        <ele>2066.7</ele>
        <time>2023-02-05T12:16:35Z</time>
      </trkpt>
      <trkpt lat="44.13754" lon="7.23464">
        <ele>2066.6</ele>
        <time>2023-02-05T12:16:36Z</time>
      </trkpt>
      <trkpt lat="44.13754" lon="7.23464">
        <ele>2066.6</ele>
        <time>2023-02-05T12:16:37Z</time>
      </trkpt>
      <trkpt lat="44.13754" lon="7.23464">
        <ele>2066.6</ele>
        <time>2023-02-05T12:16:38Z</time>
      </trkpt>
      <trkpt lat="44.13754" lon="7.23463">
        <ele>2066.6</ele>
        <time>2023-02-05T12:16:39Z</time>
      </trkpt>
      <trkpt lat="44.13754" lon="7.23463">
        <ele>2066.6</ele>
        <time>2023-02-05T12:16:40Z</time>
      </trkpt>
      <trkpt lat="44.13754" lon="7.23463">
        <ele>2066.5</ele>
        <time>2023-02-05T12:16:41Z</time>
      </trkpt>
      <trkpt lat="44.13754" lon="7.23463">
        <ele>2066.5</ele>
        <time>2023-02-05T12:16:42Z</time>
      </trkpt>
      <trkpt lat="44.13754" lon="7.23463">
        <ele>2066.5</ele>
        <time>2023-02-05T12:16:43Z</time>
      </trkpt>
      <trkpt lat="44.13754" lon="7.23463">
        <ele>2066.6</ele>
        <time>2023-02-05T12:16:44Z</time>
      </trkpt>
      <trkpt lat="44.13754" lon="7.23463">
        <ele>2066.6</ele>
        <time>2023-02-05T12:16:45Z</time>
      </trkpt>
      <trkpt lat="44.13754" lon="7.23463">
        <ele>2066.6</ele>
        <time>2023-02-05T12:16:46Z</time>
      </trkpt>
      <trkpt lat="44.13754" lon="7.23463">
        <ele>2066.6</ele>
        <time>2023-02-05T12:16:47Z</time>
      </trkpt>
      <trkpt lat="44.13754" lon="7.23463">
        <ele>2066.7</ele>
        <time>2023-02-05T12:16:48Z</time>
      </trkpt>
      <trkpt lat="44.13754" lon="7.23463">
        <ele>2066.7</ele>
        <time>2023-02-05T12:16:49Z</time>
      </trkpt>
      <trkpt lat="44.13754" lon="7.23462">
        <ele>2066.7</ele>
        <time>2023-02-05T12:16:50Z</time>
      </trkpt>
      <trkpt lat="44.13754" lon="7.23462">
        <ele>2066.8</ele>
        <time>2023-02-05T12:16:51Z</time>
      </trkpt>
      <trkpt lat="44.13755" lon="7.23462">
        <ele>2066.7</ele>
        <time>2023-02-05T12:16:52Z</time>
      </trkpt>
      <trkpt lat="44.13755" lon="7.23462">
        <ele>2066.7</ele>
        <time>2023-02-05T12:16:53Z</time>
      </trkpt>
      <trkpt lat="44.13755" lon="7.23462">
        <ele>2066.7</ele>
        <time>2023-02-05T12:16:54Z</time>
      </trkpt>
      <trkpt lat="44.13755" lon="7.23461">
        <ele>2066.7</ele>
        <time>2023-02-05T12:16:55Z</time>
      </trkpt>
      <trkpt lat="44.13755" lon="7.23461">
        <ele>2066.7</ele>
        <time>2023-02-05T12:16:56Z</time>
      </trkpt>
      <trkpt lat="44.13755" lon="7.23461">
        <ele>2066.7</ele>
        <time>2023-02-05T12:16:57Z</time>
      </trkpt>
      <trkpt lat="44.13755" lon="7.23461">
        <ele>2066.8</ele>
        <time>2023-02-05T12:16:58Z</time>
      </trkpt>
      <trkpt lat="44.13754" lon="7.23461">
        <ele>2066.7</ele>
        <time>2023-02-05T12:16:59Z</time>
      </trkpt>
      <trkpt lat="44.13754" lon="7.23461">
        <ele>2066.7</ele>
        <time>2023-02-05T12:17:00Z</time>
      </trkpt>
      <trkpt lat="44.13754" lon="7.23461">
        <ele>2066.8</ele>
        <time>2023-02-05T12:17:01Z</time>
      </trkpt>
      <trkpt lat="44.13754" lon="7.23461">
        <ele>2066.8</ele>
        <time>2023-02-05T12:17:02Z</time>
      </trkpt>
      <trkpt lat="44.13754" lon="7.23461">
        <ele>2066.8</ele>
        <time>2023-02-05T12:17:03Z</time>
      </trkpt>
      <trkpt lat="44.13754" lon="7.23461">
        <ele>2066.9</ele>
        <time>2023-02-05T12:17:04Z</time>
      </trkpt>
      <trkpt lat="44.13754" lon="7.23461">
        <ele>2066.9</ele>
        <time>2023-02-05T12:17:05Z</time>
      </trkpt>
      <trkpt lat="44.13754" lon="7.23461">
        <ele>2066.9</ele>
        <time>2023-02-05T12:17:06Z</time>
      </trkpt>
      <trkpt lat="44.13754" lon="7.23461">
        <ele>2066.9</ele>
        <time>2023-02-05T12:17:07Z</time>
      </trkpt>
      <trkpt lat="44.13753" lon="7.2346">
        <ele>2066.8</ele>
        <time>2023-02-05T12:17:08Z</time>
      </trkpt>
      <trkpt lat="44.13753" lon="7.2346">
        <ele>2066.7</ele>
        <time>2023-02-05T12:17:09Z</time>
      </trkpt>
      <trkpt lat="44.13753" lon="7.23459">
        <ele>2066.6</ele>
        <time>2023-02-05T12:17:10Z</time>
      </trkpt>
      <trkpt lat="44.13753" lon="7.23459">
        <ele>2066.6</ele>
        <time>2023-02-05T12:17:11Z</time>
      </trkpt>
      <trkpt lat="44.13753" lon="7.23459">
        <ele>2066.6</ele>
        <time>2023-02-05T12:17:12Z</time>
      </trkpt>
      <trkpt lat="44.13753" lon="7.23459">
        <ele>2066.5</ele>
        <time>2023-02-05T12:17:13Z</time>
      </trkpt>
      <trkpt lat="44.13753" lon="7.23459">
        <ele>2066.7</ele>
        <time>2023-02-05T12:17:14Z</time>
      </trkpt>
      <trkpt lat="44.13753" lon="7.23458">
        <ele>2066.8</ele>
        <time>2023-02-05T12:17:15Z</time>
      </trkpt>
      <trkpt lat="44.13753" lon="7.23458">
        <ele>2066.9</ele>
        <time>2023-02-05T12:17:16Z</time>
      </trkpt>
      <trkpt lat="44.13752" lon="7.23458">
        <ele>2067</ele>
        <time>2023-02-05T12:17:17Z</time>
      </trkpt>
      <trkpt lat="44.13752" lon="7.23458">
        <ele>2067</ele>
        <time>2023-02-05T12:17:18Z</time>
      </trkpt>
      <trkpt lat="44.13752" lon="7.23458">
        <ele>2067.2</ele>
        <time>2023-02-05T12:17:19Z</time>
      </trkpt>
      <trkpt lat="44.13752" lon="7.23458">
        <ele>2067.1</ele>
        <time>2023-02-05T12:17:20Z</time>
      </trkpt>
      <trkpt lat="44.13752" lon="7.23458">
        <ele>2067.1</ele>
        <time>2023-02-05T12:17:21Z</time>
      </trkpt>
      <trkpt lat="44.13752" lon="7.23458">
        <ele>2067.1</ele>
        <time>2023-02-05T12:17:22Z</time>
      </trkpt>
      <trkpt lat="44.13752" lon="7.23458">
        <ele>2067</ele>
        <time>2023-02-05T12:17:23Z</time>
      </trkpt>
      <trkpt lat="44.13752" lon="7.23458">
        <ele>2067</ele>
        <time>2023-02-05T12:17:24Z</time>
      </trkpt>
      <trkpt lat="44.13752" lon="7.23458">
        <ele>2067</ele>
        <time>2023-02-05T12:17:25Z</time>
      </trkpt>
      <trkpt lat="44.13752" lon="7.23457">
        <ele>2066.9</ele>
        <time>2023-02-05T12:17:26Z</time>
      </trkpt>
      <trkpt lat="44.13752" lon="7.23457">
        <ele>2066.9</ele>
        <time>2023-02-05T12:17:27Z</time>
      </trkpt>
      <trkpt lat="44.13752" lon="7.23457">
        <ele>2066.9</ele>
        <time>2023-02-05T12:17:28Z</time>
      </trkpt>
      <trkpt lat="44.13752" lon="7.23457">
        <ele>2066.9</ele>
        <time>2023-02-05T12:17:29Z</time>
      </trkpt>
      <trkpt lat="44.13752" lon="7.23457">
        <ele>2067</ele>
        <time>2023-02-05T12:17:30Z</time>
      </trkpt>
      <trkpt lat="44.13752" lon="7.23457">
        <ele>2067</ele>
        <time>2023-02-05T12:17:31Z</time>
      </trkpt>
      <trkpt lat="44.13752" lon="7.23457">
        <ele>2067</ele>
        <time>2023-02-05T12:17:32Z</time>
      </trkpt>
      <trkpt lat="44.13752" lon="7.23457">
        <ele>2067</ele>
        <time>2023-02-05T12:17:33Z</time>
      </trkpt>
      <trkpt lat="44.13752" lon="7.23457">
        <ele>2067</ele>
        <time>2023-02-05T12:17:34Z</time>
      </trkpt>
      <trkpt lat="44.13752" lon="7.23456">
        <ele>2066.9</ele>
        <time>2023-02-05T12:17:35Z</time>
      </trkpt>
      <trkpt lat="44.13752" lon="7.23456">
        <ele>2066.9</ele>
        <time>2023-02-05T12:17:36Z</time>
      </trkpt>
      <trkpt lat="44.13752" lon="7.23456">
        <ele>2066.9</ele>
        <time>2023-02-05T12:17:37Z</time>
      </trkpt>
      <trkpt lat="44.13752" lon="7.23456">
        <ele>2066.9</ele>
        <time>2023-02-05T12:17:38Z</time>
      </trkpt>
      <trkpt lat="44.13752" lon="7.23456">
        <ele>2066.9</ele>
        <time>2023-02-05T12:17:39Z</time>
      </trkpt>
      <trkpt lat="44.13751" lon="7.23456">
        <ele>2066.9</ele>
        <time>2023-02-05T12:17:40Z</time>
      </trkpt>
      <trkpt lat="44.13751" lon="7.23456">
        <ele>2066.9</ele>
        <time>2023-02-05T12:17:41Z</time>
      </trkpt>
      <trkpt lat="44.13751" lon="7.23456">
        <ele>2066.9</ele>
        <time>2023-02-05T12:17:42Z</time>
      </trkpt>
      <trkpt lat="44.13751" lon="7.23456">
        <ele>2066.9</ele>
        <time>2023-02-05T12:17:43Z</time>
      </trkpt>
      <trkpt lat="44.13751" lon="7.23457">
        <ele>2067</ele>
        <time>2023-02-05T12:17:44Z</time>
      </trkpt>
      <trkpt lat="44.13751" lon="7.23457">
        <ele>2066.9</ele>
        <time>2023-02-05T12:17:45Z</time>
      </trkpt>
      <trkpt lat="44.1375" lon="7.23457">
        <ele>2066.9</ele>
        <time>2023-02-05T12:17:46Z</time>
      </trkpt>
      <trkpt lat="44.1375" lon="7.23457">
        <ele>2066.9</ele>
        <time>2023-02-05T12:17:47Z</time>
      </trkpt>
      <trkpt lat="44.1375" lon="7.23457">
        <ele>2066.9</ele>
        <time>2023-02-05T12:17:48Z</time>
      </trkpt>
      <trkpt lat="44.13751" lon="7.23456">
        <ele>2066.9</ele>
        <time>2023-02-05T12:17:49Z</time>
      </trkpt>
      <trkpt lat="44.13751" lon="7.23456">
        <ele>2066.9</ele>
        <time>2023-02-05T12:17:50Z</time>
      </trkpt>
      <trkpt lat="44.13751" lon="7.23456">
        <ele>2067</ele>
        <time>2023-02-05T12:17:51Z</time>
      </trkpt>
      <trkpt lat="44.13751" lon="7.23456">
        <ele>2067</ele>
        <time>2023-02-05T12:17:52Z</time>
      </trkpt>
      <trkpt lat="44.13751" lon="7.23456">
        <ele>2067</ele>
        <time>2023-02-05T12:17:53Z</time>
      </trkpt>
      <trkpt lat="44.13752" lon="7.23456">
        <ele>2067</ele>
        <time>2023-02-05T12:17:54Z</time>
      </trkpt>
      <trkpt lat="44.13752" lon="7.23456">
        <ele>2066.9</ele>
        <time>2023-02-05T12:17:55Z</time>
      </trkpt>
      <trkpt lat="44.13751" lon="7.23456">
        <ele>2066.9</ele>
        <time>2023-02-05T12:17:56Z</time>
      </trkpt>
      <trkpt lat="44.13751" lon="7.23456">
        <ele>2066.9</ele>
        <time>2023-02-05T12:17:57Z</time>
      </trkpt>
      <trkpt lat="44.13751" lon="7.23455">
        <ele>2067</ele>
        <time>2023-02-05T12:17:58Z</time>
      </trkpt>
      <trkpt lat="44.13752" lon="7.23455">
        <ele>2067</ele>
        <time>2023-02-05T12:17:59Z</time>
      </trkpt>
      <trkpt lat="44.13752" lon="7.23455">
        <ele>2067</ele>
        <time>2023-02-05T12:18:00Z</time>
      </trkpt>
      <trkpt lat="44.13752" lon="7.23455">
        <ele>2066.9</ele>
        <time>2023-02-05T12:18:01Z</time>
      </trkpt>
      <trkpt lat="44.13751" lon="7.23455">
        <ele>2066.9</ele>
        <time>2023-02-05T12:18:02Z</time>
      </trkpt>
      <trkpt lat="44.13751" lon="7.23455">
        <ele>2066.9</ele>
        <time>2023-02-05T12:18:03Z</time>
      </trkpt>
      <trkpt lat="44.13752" lon="7.23455">
        <ele>2067</ele>
        <time>2023-02-05T12:18:04Z</time>
      </trkpt>
      <trkpt lat="44.13752" lon="7.23455">
        <ele>2067.1</ele>
        <time>2023-02-05T12:18:05Z</time>
      </trkpt>
      <trkpt lat="44.13752" lon="7.23455">
        <ele>2067.2</ele>
        <time>2023-02-05T12:18:06Z</time>
      </trkpt>
      <trkpt lat="44.13751" lon="7.23455">
        <ele>2067.1</ele>
        <time>2023-02-05T12:18:07Z</time>
      </trkpt>
      <trkpt lat="44.13751" lon="7.23455">
        <ele>2067.1</ele>
        <time>2023-02-05T12:18:08Z</time>
      </trkpt>
      <trkpt lat="44.13751" lon="7.23455">
        <ele>2067.1</ele>
        <time>2023-02-05T12:18:09Z</time>
      </trkpt>
      <trkpt lat="44.13752" lon="7.23455">
        <ele>2067.1</ele>
        <time>2023-02-05T12:18:10Z</time>
      </trkpt>
      <trkpt lat="44.13752" lon="7.23455">
        <ele>2067.1</ele>
        <time>2023-02-05T12:18:11Z</time>
      </trkpt>
      <trkpt lat="44.13752" lon="7.23455">
        <ele>2067.1</ele>
        <time>2023-02-05T12:18:12Z</time>
      </trkpt>
      <trkpt lat="44.13752" lon="7.23455">
        <ele>2067.2</ele>
        <time>2023-02-05T12:18:13Z</time>
      </trkpt>
      <trkpt lat="44.13752" lon="7.23456">
        <ele>2067.2</ele>
        <time>2023-02-05T12:18:14Z</time>
      </trkpt>
      <trkpt lat="44.13752" lon="7.23456">
        <ele>2067.2</ele>
        <time>2023-02-05T12:18:15Z</time>
      </trkpt>
      <trkpt lat="44.13752" lon="7.23455">
        <ele>2067.3</ele>
        <time>2023-02-05T12:18:16Z</time>
      </trkpt>
      <trkpt lat="44.13752" lon="7.23455">
        <ele>2067.3</ele>
        <time>2023-02-05T12:18:17Z</time>
      </trkpt>
      <trkpt lat="44.13751" lon="7.23455">
        <ele>2067.3</ele>
        <time>2023-02-05T12:18:18Z</time>
      </trkpt>
      <trkpt lat="44.13751" lon="7.23455">
        <ele>2067.3</ele>
        <time>2023-02-05T12:18:19Z</time>
      </trkpt>
      <trkpt lat="44.13751" lon="7.23455">
        <ele>2067.3</ele>
        <time>2023-02-05T12:18:20Z</time>
      </trkpt>
      <trkpt lat="44.13751" lon="7.23455">
        <ele>2067.3</ele>
        <time>2023-02-05T12:18:21Z</time>
      </trkpt>
      <trkpt lat="44.13751" lon="7.23455">
        <ele>2067.3</ele>
        <time>2023-02-05T12:18:22Z</time>
      </trkpt>
      <trkpt lat="44.13751" lon="7.23455">
        <ele>2067.2</ele>
        <time>2023-02-05T12:18:23Z</time>
      </trkpt>
      <trkpt lat="44.13751" lon="7.23455">
        <ele>2067.2</ele>
        <time>2023-02-05T12:18:24Z</time>
      </trkpt>
      <trkpt lat="44.13751" lon="7.23456">
        <ele>2067.5</ele>
        <time>2023-02-05T12:18:25Z</time>
      </trkpt>
      <trkpt lat="44.13751" lon="7.23457">
        <ele>2067.5</ele>
        <time>2023-02-05T12:18:26Z</time>
      </trkpt>
      <trkpt lat="44.13751" lon="7.23458">
        <ele>2067.5</ele>
        <time>2023-02-05T12:18:27Z</time>
      </trkpt>
      <trkpt lat="44.13752" lon="7.23459">
        <ele>2067.5</ele>
        <time>2023-02-05T12:18:28Z</time>
      </trkpt>
      <trkpt lat="44.13752" lon="7.23459">
        <ele>2067.4</ele>
        <time>2023-02-05T12:18:29Z</time>
      </trkpt>
      <trkpt lat="44.13752" lon="7.23459">
        <ele>2067.5</ele>
        <time>2023-02-05T12:18:30Z</time>
      </trkpt>
      <trkpt lat="44.13752" lon="7.23458">
        <ele>2067.5</ele>
        <time>2023-02-05T12:18:31Z</time>
      </trkpt>
      <trkpt lat="44.13752" lon="7.23458">
        <ele>2067.5</ele>
        <time>2023-02-05T12:18:32Z</time>
      </trkpt>
      <trkpt lat="44.13751" lon="7.23458">
        <ele>2067.5</ele>
        <time>2023-02-05T12:18:33Z</time>
      </trkpt>
      <trkpt lat="44.13751" lon="7.23458">
        <ele>2067.5</ele>
        <time>2023-02-05T12:18:34Z</time>
      </trkpt>
      <trkpt lat="44.13751" lon="7.23458">
        <ele>2067.5</ele>
        <time>2023-02-05T12:18:35Z</time>
      </trkpt>
      <trkpt lat="44.1375" lon="7.23457">
        <ele>2067.5</ele>
        <time>2023-02-05T12:18:36Z</time>
      </trkpt>
      <trkpt lat="44.1375" lon="7.23457">
        <ele>2067.6</ele>
        <time>2023-02-05T12:18:37Z</time>
      </trkpt>
      <trkpt lat="44.1375" lon="7.23457">
        <ele>2067.6</ele>
        <time>2023-02-05T12:18:38Z</time>
      </trkpt>
      <trkpt lat="44.1375" lon="7.23457">
        <ele>2067.6</ele>
        <time>2023-02-05T12:18:39Z</time>
      </trkpt>
      <trkpt lat="44.13749" lon="7.23456">
        <ele>2067.5</ele>
        <time>2023-02-05T12:18:40Z</time>
      </trkpt>
      <trkpt lat="44.13749" lon="7.23456">
        <ele>2067.4</ele>
        <time>2023-02-05T12:18:41Z</time>
      </trkpt>
      <trkpt lat="44.13749" lon="7.23456">
        <ele>2067.4</ele>
        <time>2023-02-05T12:18:42Z</time>
      </trkpt>
      <trkpt lat="44.13749" lon="7.23456">
        <ele>2067.4</ele>
        <time>2023-02-05T12:18:43Z</time>
      </trkpt>
      <trkpt lat="44.13748" lon="7.23456">
        <ele>2067.4</ele>
        <time>2023-02-05T12:18:44Z</time>
      </trkpt>
      <trkpt lat="44.13748" lon="7.23456">
        <ele>2067.4</ele>
        <time>2023-02-05T12:18:45Z</time>
      </trkpt>
      <trkpt lat="44.13748" lon="7.23456">
        <ele>2067.4</ele>
        <time>2023-02-05T12:18:46Z</time>
      </trkpt>
      <trkpt lat="44.13748" lon="7.23456">
        <ele>2067.4</ele>
        <time>2023-02-05T12:18:47Z</time>
      </trkpt>
      <trkpt lat="44.13748" lon="7.23456">
        <ele>2067.3</ele>
        <time>2023-02-05T12:18:48Z</time>
      </trkpt>
      <trkpt lat="44.13748" lon="7.23456">
        <ele>2067.2</ele>
        <time>2023-02-05T12:18:49Z</time>
      </trkpt>
      <trkpt lat="44.13748" lon="7.23456">
        <ele>2067.1</ele>
        <time>2023-02-05T12:18:50Z</time>
      </trkpt>
      <trkpt lat="44.13748" lon="7.23456">
        <ele>2067.2</ele>
        <time>2023-02-05T12:18:51Z</time>
      </trkpt>
      <trkpt lat="44.13748" lon="7.23455">
        <ele>2067.2</ele>
        <time>2023-02-05T12:18:52Z</time>
      </trkpt>
      <trkpt lat="44.13748" lon="7.23456">
        <ele>2067.3</ele>
        <time>2023-02-05T12:18:53Z</time>
      </trkpt>
      <trkpt lat="44.13748" lon="7.23456">
        <ele>2067.4</ele>
        <time>2023-02-05T12:18:54Z</time>
      </trkpt>
      <trkpt lat="44.13749" lon="7.23456">
        <ele>2067.4</ele>
        <time>2023-02-05T12:18:55Z</time>
      </trkpt>
      <trkpt lat="44.1375" lon="7.23456">
        <ele>2067.3</ele>
        <time>2023-02-05T12:18:56Z</time>
      </trkpt>
      <trkpt lat="44.1375" lon="7.23457">
        <ele>2067.3</ele>
        <time>2023-02-05T12:18:57Z</time>
      </trkpt>
      <trkpt lat="44.1375" lon="7.23457">
        <ele>2067.3</ele>
        <time>2023-02-05T12:18:58Z</time>
      </trkpt>
      <trkpt lat="44.1375" lon="7.23456">
        <ele>2067.3</ele>
        <time>2023-02-05T12:18:59Z</time>
      </trkpt>
      <trkpt lat="44.1375" lon="7.23456">
        <ele>2067.3</ele>
        <time>2023-02-05T12:19:00Z</time>
      </trkpt>
      <trkpt lat="44.1375" lon="7.23455">
        <ele>2067.3</ele>
        <time>2023-02-05T12:19:01Z</time>
      </trkpt>
      <trkpt lat="44.1375" lon="7.23455">
        <ele>2067.4</ele>
        <time>2023-02-05T12:19:02Z</time>
      </trkpt>
      <trkpt lat="44.1375" lon="7.23455">
        <ele>2067.4</ele>
        <time>2023-02-05T12:19:03Z</time>
      </trkpt>
      <trkpt lat="44.13751" lon="7.23454">
        <ele>2067.4</ele>
        <time>2023-02-05T12:19:04Z</time>
      </trkpt>
      <trkpt lat="44.1375" lon="7.23454">
        <ele>2067.4</ele>
        <time>2023-02-05T12:19:05Z</time>
      </trkpt>
      <trkpt lat="44.1375" lon="7.23454">
        <ele>2067.4</ele>
        <time>2023-02-05T12:19:06Z</time>
      </trkpt>
      <trkpt lat="44.13751" lon="7.23454">
        <ele>2067.4</ele>
        <time>2023-02-05T12:19:07Z</time>
      </trkpt>
      <trkpt lat="44.13752" lon="7.23454">
        <ele>2067.4</ele>
        <time>2023-02-05T12:19:08Z</time>
      </trkpt>
      <trkpt lat="44.13752" lon="7.23454">
        <ele>2067.4</ele>
        <time>2023-02-05T12:19:09Z</time>
      </trkpt>
      <trkpt lat="44.13753" lon="7.23455">
        <ele>2067.4</ele>
        <time>2023-02-05T12:19:10Z</time>
      </trkpt>
      <trkpt lat="44.13754" lon="7.23455">
        <ele>2067.5</ele>
        <time>2023-02-05T12:19:11Z</time>
      </trkpt>
      <trkpt lat="44.13754" lon="7.23455">
        <ele>2067.5</ele>
        <time>2023-02-05T12:19:12Z</time>
      </trkpt>
      <trkpt lat="44.13754" lon="7.23456">
        <ele>2067.5</ele>
        <time>2023-02-05T12:19:13Z</time>
      </trkpt>
      <trkpt lat="44.13755" lon="7.23456">
        <ele>2067.5</ele>
        <time>2023-02-05T12:19:14Z</time>
      </trkpt>
      <trkpt lat="44.13755" lon="7.23456">
        <ele>2067.5</ele>
        <time>2023-02-05T12:19:15Z</time>
      </trkpt>
      <trkpt lat="44.13755" lon="7.23456">
        <ele>2067.4</ele>
        <time>2023-02-05T12:19:16Z</time>
      </trkpt>
      <trkpt lat="44.13755" lon="7.23456">
        <ele>2067.4</ele>
        <time>2023-02-05T12:19:17Z</time>
      </trkpt>
      <trkpt lat="44.13756" lon="7.23456">
        <ele>2067.4</ele>
        <time>2023-02-05T12:19:18Z</time>
      </trkpt>
      <trkpt lat="44.13757" lon="7.23456">
        <ele>2067.5</ele>
        <time>2023-02-05T12:19:19Z</time>
      </trkpt>
      <trkpt lat="44.13757" lon="7.23457">
        <ele>2067.6</ele>
        <time>2023-02-05T12:19:20Z</time>
      </trkpt>
      <trkpt lat="44.13756" lon="7.23457">
        <ele>2067.7</ele>
        <time>2023-02-05T12:19:21Z</time>
      </trkpt>
      <trkpt lat="44.13757" lon="7.23457">
        <ele>2067.8</ele>
        <time>2023-02-05T12:19:22Z</time>
      </trkpt>
      <trkpt lat="44.13757" lon="7.23457">
        <ele>2067.8</ele>
        <time>2023-02-05T12:19:23Z</time>
      </trkpt>
      <trkpt lat="44.13757" lon="7.23457">
        <ele>2067.8</ele>
        <time>2023-02-05T12:19:24Z</time>
      </trkpt>
      <trkpt lat="44.13757" lon="7.23457">
        <ele>2067.7</ele>
        <time>2023-02-05T12:19:25Z</time>
      </trkpt>
      <trkpt lat="44.13757" lon="7.23457">
        <ele>2067.8</ele>
        <time>2023-02-05T12:19:26Z</time>
      </trkpt>
      <trkpt lat="44.13758" lon="7.23458">
        <ele>2067.8</ele>
        <time>2023-02-05T12:19:27Z</time>
      </trkpt>
      <trkpt lat="44.13758" lon="7.23458">
        <ele>2067.8</ele>
        <time>2023-02-05T12:19:28Z</time>
      </trkpt>
      <trkpt lat="44.13758" lon="7.23458">
        <ele>2067.8</ele>
        <time>2023-02-05T12:19:29Z</time>
      </trkpt>
      <trkpt lat="44.13757" lon="7.23457">
        <ele>2067.8</ele>
        <time>2023-02-05T12:19:30Z</time>
      </trkpt>
      <trkpt lat="44.13756" lon="7.23457">
        <ele>2067.8</ele>
        <time>2023-02-05T12:19:31Z</time>
      </trkpt>
      <trkpt lat="44.13756" lon="7.23457">
        <ele>2067.8</ele>
        <time>2023-02-05T12:19:32Z</time>
      </trkpt>
      <trkpt lat="44.13755" lon="7.23458">
        <ele>2067.7</ele>
        <time>2023-02-05T12:19:33Z</time>
      </trkpt>
      <trkpt lat="44.13755" lon="7.23458">
        <ele>2067.7</ele>
        <time>2023-02-05T12:19:34Z</time>
      </trkpt>
      <trkpt lat="44.13755" lon="7.23458">
        <ele>2067.7</ele>
        <time>2023-02-05T12:19:35Z</time>
      </trkpt>
      <trkpt lat="44.13755" lon="7.23459">
        <ele>2067.7</ele>
        <time>2023-02-05T12:19:36Z</time>
      </trkpt>
      <trkpt lat="44.13755" lon="7.23459">
        <ele>2067.7</ele>
        <time>2023-02-05T12:19:37Z</time>
      </trkpt>
      <trkpt lat="44.13754" lon="7.23458">
        <ele>2067.5</ele>
        <time>2023-02-05T12:19:38Z</time>
      </trkpt>
      <trkpt lat="44.13753" lon="7.23456">
        <ele>2067.5</ele>
        <time>2023-02-05T12:19:39Z</time>
      </trkpt>
      <trkpt lat="44.13753" lon="7.23456">
        <ele>2067.5</ele>
        <time>2023-02-05T12:19:40Z</time>
      </trkpt>
      <trkpt lat="44.13752" lon="7.23455">
        <ele>2067.6</ele>
        <time>2023-02-05T12:19:41Z</time>
      </trkpt>
      <trkpt lat="44.13751" lon="7.23455">
        <ele>2067.3</ele>
        <time>2023-02-05T12:19:42Z</time>
      </trkpt>
      <trkpt lat="44.13751" lon="7.23455">
        <ele>2067.2</ele>
        <time>2023-02-05T12:19:43Z</time>
      </trkpt>
      <trkpt lat="44.13752" lon="7.23455">
        <ele>2067.4</ele>
        <time>2023-02-05T12:19:44Z</time>
      </trkpt>
      <trkpt lat="44.13752" lon="7.23455">
        <ele>2067.5</ele>
        <time>2023-02-05T12:19:45Z</time>
      </trkpt>
      <trkpt lat="44.13753" lon="7.23457">
        <ele>2067.5</ele>
        <time>2023-02-05T12:19:46Z</time>
      </trkpt>
      <trkpt lat="44.13753" lon="7.23457">
        <ele>2067.6</ele>
        <time>2023-02-05T12:19:47Z</time>
      </trkpt>
      <trkpt lat="44.13753" lon="7.23458">
        <ele>2067.6</ele>
        <time>2023-02-05T12:19:48Z</time>
      </trkpt>
      <trkpt lat="44.13753" lon="7.23458">
        <ele>2067.6</ele>
        <time>2023-02-05T12:19:49Z</time>
      </trkpt>
      <trkpt lat="44.13754" lon="7.23459">
        <ele>2067.5</ele>
        <time>2023-02-05T12:19:50Z</time>
      </trkpt>
      <trkpt lat="44.13753" lon="7.23459">
        <ele>2067.6</ele>
        <time>2023-02-05T12:19:51Z</time>
      </trkpt>
      <trkpt lat="44.13753" lon="7.23458">
        <ele>2067.6</ele>
        <time>2023-02-05T12:19:52Z</time>
      </trkpt>
      <trkpt lat="44.13753" lon="7.23459">
        <ele>2067.6</ele>
        <time>2023-02-05T12:19:53Z</time>
      </trkpt>
      <trkpt lat="44.13753" lon="7.23459">
        <ele>2067.6</ele>
        <time>2023-02-05T12:19:54Z</time>
      </trkpt>
      <trkpt lat="44.13753" lon="7.23459">
        <ele>2067.6</ele>
        <time>2023-02-05T12:19:55Z</time>
      </trkpt>
      <trkpt lat="44.13753" lon="7.23459">
        <ele>2067.5</ele>
        <time>2023-02-05T12:19:56Z</time>
      </trkpt>
      <trkpt lat="44.13753" lon="7.23459">
        <ele>2067.4</ele>
        <time>2023-02-05T12:19:57Z</time>
      </trkpt>
      <trkpt lat="44.13753" lon="7.23459">
        <ele>2067.4</ele>
        <time>2023-02-05T12:19:58Z</time>
      </trkpt>
      <trkpt lat="44.13753" lon="7.2346">
        <ele>2067.4</ele>
        <time>2023-02-05T12:19:59Z</time>
      </trkpt>
      <trkpt lat="44.13753" lon="7.2346">
        <ele>2067.4</ele>
        <time>2023-02-05T12:20:00Z</time>
      </trkpt>
      <trkpt lat="44.13754" lon="7.23461">
        <ele>2067.4</ele>
        <time>2023-02-05T12:20:01Z</time>
      </trkpt>
      <trkpt lat="44.13754" lon="7.23461">
        <ele>2067.4</ele>
        <time>2023-02-05T12:20:02Z</time>
      </trkpt>
      <trkpt lat="44.13755" lon="7.23462">
        <ele>2067.4</ele>
        <time>2023-02-05T12:20:03Z</time>
      </trkpt>
      <trkpt lat="44.13755" lon="7.23463">
        <ele>2067.4</ele>
        <time>2023-02-05T12:20:04Z</time>
      </trkpt>
      <trkpt lat="44.13756" lon="7.23463">
        <ele>2067.5</ele>
        <time>2023-02-05T12:20:05Z</time>
      </trkpt>
      <trkpt lat="44.13756" lon="7.23464">
        <ele>2067.5</ele>
        <time>2023-02-05T12:20:06Z</time>
      </trkpt>
      <trkpt lat="44.13757" lon="7.23464">
        <ele>2067.5</ele>
        <time>2023-02-05T12:20:07Z</time>
      </trkpt>
      <trkpt lat="44.13757" lon="7.23465">
        <ele>2067.6</ele>
        <time>2023-02-05T12:20:08Z</time>
      </trkpt>
      <trkpt lat="44.13758" lon="7.23466">
        <ele>2067.6</ele>
        <time>2023-02-05T12:20:09Z</time>
      </trkpt>
      <trkpt lat="44.13758" lon="7.23466">
        <ele>2067.6</ele>
        <time>2023-02-05T12:20:10Z</time>
      </trkpt>
      <trkpt lat="44.13758" lon="7.23467">
        <ele>2067.6</ele>
        <time>2023-02-05T12:20:11Z</time>
      </trkpt>
      <trkpt lat="44.13759" lon="7.23467">
        <ele>2067.6</ele>
        <time>2023-02-05T12:20:12Z</time>
      </trkpt>
      <trkpt lat="44.13759" lon="7.23468">
        <ele>2067.5</ele>
        <time>2023-02-05T12:20:13Z</time>
      </trkpt>
      <trkpt lat="44.13759" lon="7.23468">
        <ele>2067.4</ele>
        <time>2023-02-05T12:20:14Z</time>
      </trkpt>
      <trkpt lat="44.13759" lon="7.23469">
        <ele>2067.5</ele>
        <time>2023-02-05T12:20:15Z</time>
      </trkpt>
      <trkpt lat="44.13759" lon="7.23469">
        <ele>2067.5</ele>
        <time>2023-02-05T12:20:16Z</time>
      </trkpt>
      <trkpt lat="44.1376" lon="7.23469">
        <ele>2067.5</ele>
        <time>2023-02-05T12:20:17Z</time>
      </trkpt>
      <trkpt lat="44.1376" lon="7.23469">
        <ele>2067.5</ele>
        <time>2023-02-05T12:20:18Z</time>
      </trkpt>
      <trkpt lat="44.13759" lon="7.23469">
        <ele>2067.6</ele>
        <time>2023-02-05T12:20:19Z</time>
      </trkpt>
      <trkpt lat="44.13758" lon="7.23469">
        <ele>2067.6</ele>
        <time>2023-02-05T12:20:20Z</time>
      </trkpt>
      <trkpt lat="44.13758" lon="7.2347">
        <ele>2067.6</ele>
        <time>2023-02-05T12:20:21Z</time>
      </trkpt>
      <trkpt lat="44.13758" lon="7.2347">
        <ele>2067.6</ele>
        <time>2023-02-05T12:20:22Z</time>
      </trkpt>
      <trkpt lat="44.13758" lon="7.2347">
        <ele>2067.6</ele>
        <time>2023-02-05T12:20:23Z</time>
      </trkpt>
      <trkpt lat="44.13758" lon="7.2347">
        <ele>2067.6</ele>
        <time>2023-02-05T12:20:24Z</time>
      </trkpt>
      <trkpt lat="44.13758" lon="7.23471">
        <ele>2067.6</ele>
        <time>2023-02-05T12:20:25Z</time>
      </trkpt>
      <trkpt lat="44.13758" lon="7.2347">
        <ele>2067.6</ele>
        <time>2023-02-05T12:20:26Z</time>
      </trkpt>
      <trkpt lat="44.13758" lon="7.2347">
        <ele>2067.5</ele>
        <time>2023-02-05T12:20:27Z</time>
      </trkpt>
      <trkpt lat="44.13758" lon="7.2347">
        <ele>2067.5</ele>
        <time>2023-02-05T12:20:28Z</time>
      </trkpt>
      <trkpt lat="44.13758" lon="7.2347">
        <ele>2067.5</ele>
        <time>2023-02-05T12:20:29Z</time>
      </trkpt>
      <trkpt lat="44.13758" lon="7.23471">
        <ele>2067.4</ele>
        <time>2023-02-05T12:20:30Z</time>
      </trkpt>
      <trkpt lat="44.13758" lon="7.23471">
        <ele>2067.5</ele>
        <time>2023-02-05T12:20:31Z</time>
      </trkpt>
      <trkpt lat="44.13758" lon="7.23471">
        <ele>2067.6</ele>
        <time>2023-02-05T12:20:32Z</time>
      </trkpt>
      <trkpt lat="44.13758" lon="7.23471">
        <ele>2067.6</ele>
        <time>2023-02-05T12:20:33Z</time>
      </trkpt>
      <trkpt lat="44.13758" lon="7.23472">
        <ele>2067.6</ele>
        <time>2023-02-05T12:20:34Z</time>
      </trkpt>
      <trkpt lat="44.13758" lon="7.23472">
        <ele>2067.6</ele>
        <time>2023-02-05T12:20:35Z</time>
      </trkpt>
      <trkpt lat="44.13759" lon="7.23472">
        <ele>2067.6</ele>
        <time>2023-02-05T12:20:36Z</time>
      </trkpt>
      <trkpt lat="44.13759" lon="7.23472">
        <ele>2067.5</ele>
        <time>2023-02-05T12:20:37Z</time>
      </trkpt>
      <trkpt lat="44.13759" lon="7.23472">
        <ele>2067.5</ele>
        <time>2023-02-05T12:20:38Z</time>
      </trkpt>
      <trkpt lat="44.13759" lon="7.23472">
        <ele>2067.6</ele>
        <time>2023-02-05T12:20:39Z</time>
      </trkpt>
      <trkpt lat="44.13758" lon="7.23472">
        <ele>2067.5</ele>
        <time>2023-02-05T12:20:40Z</time>
      </trkpt>
      <trkpt lat="44.13758" lon="7.23471">
        <ele>2067.5</ele>
        <time>2023-02-05T12:20:41Z</time>
      </trkpt>
      <trkpt lat="44.13758" lon="7.23471">
        <ele>2067.5</ele>
        <time>2023-02-05T12:20:42Z</time>
      </trkpt>
      <trkpt lat="44.13758" lon="7.23471">
        <ele>2067.5</ele>
        <time>2023-02-05T12:20:43Z</time>
      </trkpt>
      <trkpt lat="44.13758" lon="7.23471">
        <ele>2067.5</ele>
        <time>2023-02-05T12:20:44Z</time>
      </trkpt>
      <trkpt lat="44.13758" lon="7.23471">
        <ele>2067.4</ele>
        <time>2023-02-05T12:20:45Z</time>
      </trkpt>
      <trkpt lat="44.13758" lon="7.23471">
        <ele>2067.4</ele>
        <time>2023-02-05T12:20:46Z</time>
      </trkpt>
      <trkpt lat="44.13758" lon="7.23471">
        <ele>2067.4</ele>
        <time>2023-02-05T12:20:47Z</time>
      </trkpt>
      <trkpt lat="44.13758" lon="7.23471">
        <ele>2067.4</ele>
        <time>2023-02-05T12:20:48Z</time>
      </trkpt>
      <trkpt lat="44.13758" lon="7.23471">
        <ele>2067.5</ele>
        <time>2023-02-05T12:20:49Z</time>
      </trkpt>
      <trkpt lat="44.13758" lon="7.2347">
        <ele>2067.5</ele>
        <time>2023-02-05T12:20:50Z</time>
      </trkpt>
      <trkpt lat="44.13758" lon="7.23468">
        <ele>2067.5</ele>
        <time>2023-02-05T12:20:51Z</time>
      </trkpt>
      <trkpt lat="44.13757" lon="7.23465">
        <ele>2067.6</ele>
        <time>2023-02-05T12:20:52Z</time>
      </trkpt>
      <trkpt lat="44.13757" lon="7.23464">
        <ele>2067.6</ele>
        <time>2023-02-05T12:20:53Z</time>
      </trkpt>
      <trkpt lat="44.13757" lon="7.23463">
        <ele>2067.7</ele>
        <time>2023-02-05T12:20:54Z</time>
      </trkpt>
      <trkpt lat="44.13757" lon="7.23462">
        <ele>2067.7</ele>
        <time>2023-02-05T12:20:55Z</time>
      </trkpt>
      <trkpt lat="44.13757" lon="7.23461">
        <ele>2067.7</ele>
        <time>2023-02-05T12:20:56Z</time>
      </trkpt>
      <trkpt lat="44.13757" lon="7.23461">
        <ele>2067.7</ele>
        <time>2023-02-05T12:20:57Z</time>
      </trkpt>
      <trkpt lat="44.13757" lon="7.2346">
        <ele>2067.8</ele>
        <time>2023-02-05T12:20:58Z</time>
      </trkpt>
      <trkpt lat="44.13756" lon="7.2346">
        <ele>2067.9</ele>
        <time>2023-02-05T12:20:59Z</time>
      </trkpt>
      <trkpt lat="44.13756" lon="7.2346">
        <ele>2067.8</ele>
        <time>2023-02-05T12:21:00Z</time>
      </trkpt>
      <trkpt lat="44.13756" lon="7.2346">
        <ele>2067.8</ele>
        <time>2023-02-05T12:21:01Z</time>
      </trkpt>
      <trkpt lat="44.13756" lon="7.23459">
        <ele>2067.7</ele>
        <time>2023-02-05T12:21:02Z</time>
      </trkpt>
      <trkpt lat="44.13756" lon="7.23459">
        <ele>2067.6</ele>
        <time>2023-02-05T12:21:03Z</time>
      </trkpt>
      <trkpt lat="44.13756" lon="7.23459">
        <ele>2067.6</ele>
        <time>2023-02-05T12:21:04Z</time>
      </trkpt>
      <trkpt lat="44.13756" lon="7.23459">
        <ele>2067.7</ele>
        <time>2023-02-05T12:21:05Z</time>
      </trkpt>
      <trkpt lat="44.13756" lon="7.23459">
        <ele>2067.7</ele>
        <time>2023-02-05T12:21:06Z</time>
      </trkpt>
      <trkpt lat="44.13756" lon="7.23459">
        <ele>2067.7</ele>
        <time>2023-02-05T12:21:07Z</time>
      </trkpt>
      <trkpt lat="44.13756" lon="7.23458">
        <ele>2067.8</ele>
        <time>2023-02-05T12:21:08Z</time>
      </trkpt>
      <trkpt lat="44.13756" lon="7.23458">
        <ele>2067.8</ele>
        <time>2023-02-05T12:21:09Z</time>
      </trkpt>
      <trkpt lat="44.13756" lon="7.23458">
        <ele>2067.9</ele>
        <time>2023-02-05T12:21:10Z</time>
      </trkpt>
      <trkpt lat="44.13755" lon="7.23458">
        <ele>2067.9</ele>
        <time>2023-02-05T12:21:11Z</time>
      </trkpt>
      <trkpt lat="44.13755" lon="7.23458">
        <ele>2067.9</ele>
        <time>2023-02-05T12:21:12Z</time>
      </trkpt>
      <trkpt lat="44.13755" lon="7.23458">
        <ele>2067.9</ele>
        <time>2023-02-05T12:21:13Z</time>
      </trkpt>
      <trkpt lat="44.13755" lon="7.23458">
        <ele>2067.8</ele>
        <time>2023-02-05T12:21:14Z</time>
      </trkpt>
      <trkpt lat="44.13755" lon="7.23458">
        <ele>2067.8</ele>
        <time>2023-02-05T12:21:15Z</time>
      </trkpt>
      <trkpt lat="44.13755" lon="7.23458">
        <ele>2067.8</ele>
        <time>2023-02-05T12:21:16Z</time>
      </trkpt>
      <trkpt lat="44.13756" lon="7.23458">
        <ele>2067.7</ele>
        <time>2023-02-05T12:21:17Z</time>
      </trkpt>
      <trkpt lat="44.13756" lon="7.23457">
        <ele>2067.7</ele>
        <time>2023-02-05T12:21:18Z</time>
      </trkpt>
      <trkpt lat="44.13756" lon="7.23457">
        <ele>2067.7</ele>
        <time>2023-02-05T12:21:19Z</time>
      </trkpt>
      <trkpt lat="44.13756" lon="7.23457">
        <ele>2067.6</ele>
        <time>2023-02-05T12:21:20Z</time>
      </trkpt>
      <trkpt lat="44.13756" lon="7.23457">
        <ele>2067.7</ele>
        <time>2023-02-05T12:21:21Z</time>
      </trkpt>
      <trkpt lat="44.13756" lon="7.23457">
        <ele>2067.7</ele>
        <time>2023-02-05T12:21:22Z</time>
      </trkpt>
      <trkpt lat="44.13756" lon="7.23457">
        <ele>2067.6</ele>
        <time>2023-02-05T12:21:23Z</time>
      </trkpt>
      <trkpt lat="44.13756" lon="7.23457">
        <ele>2067.7</ele>
        <time>2023-02-05T12:21:24Z</time>
      </trkpt>
      <trkpt lat="44.13756" lon="7.23457">
        <ele>2067.8</ele>
        <time>2023-02-05T12:21:25Z</time>
      </trkpt>
      <trkpt lat="44.13755" lon="7.23456">
        <ele>2067.6</ele>
        <time>2023-02-05T12:21:26Z</time>
      </trkpt>
      <trkpt lat="44.13755" lon="7.23456">
        <ele>2067.6</ele>
        <time>2023-02-05T12:21:27Z</time>
      </trkpt>
      <trkpt lat="44.13755" lon="7.23455">
        <ele>2067.6</ele>
        <time>2023-02-05T12:21:28Z</time>
      </trkpt>
      <trkpt lat="44.13754" lon="7.23454">
        <ele>2067.4</ele>
        <time>2023-02-05T12:21:29Z</time>
      </trkpt>
      <trkpt lat="44.13754" lon="7.23454">
        <ele>2067.5</ele>
        <time>2023-02-05T12:21:30Z</time>
      </trkpt>
      <trkpt lat="44.13755" lon="7.23454">
        <ele>2067.5</ele>
        <time>2023-02-05T12:21:31Z</time>
      </trkpt>
      <trkpt lat="44.13754" lon="7.23454">
        <ele>2067.6</ele>
        <time>2023-02-05T12:21:32Z</time>
      </trkpt>
      <trkpt lat="44.13754" lon="7.23453">
        <ele>2067.4</ele>
        <time>2023-02-05T12:21:33Z</time>
      </trkpt>
      <trkpt lat="44.13754" lon="7.23452">
        <ele>2067.3</ele>
        <time>2023-02-05T12:21:34Z</time>
      </trkpt>
      <trkpt lat="44.13753" lon="7.23451">
        <ele>2067.2</ele>
        <time>2023-02-05T12:21:35Z</time>
      </trkpt>
      <trkpt lat="44.13753" lon="7.2345">
        <ele>2067.5</ele>
        <time>2023-02-05T12:21:36Z</time>
      </trkpt>
      <trkpt lat="44.13753" lon="7.2345">
        <ele>2067.4</ele>
        <time>2023-02-05T12:21:37Z</time>
      </trkpt>
      <trkpt lat="44.13752" lon="7.23449">
        <ele>2067.1</ele>
        <time>2023-02-05T12:21:38Z</time>
      </trkpt>
      <trkpt lat="44.13751" lon="7.23448">
        <ele>2067</ele>
        <time>2023-02-05T12:21:39Z</time>
      </trkpt>
      <trkpt lat="44.13751" lon="7.23448">
        <ele>2067.1</ele>
        <time>2023-02-05T12:21:40Z</time>
      </trkpt>
      <trkpt lat="44.1375" lon="7.23447">
        <ele>2067.2</ele>
        <time>2023-02-05T12:21:41Z</time>
      </trkpt>
      <trkpt lat="44.13749" lon="7.23447">
        <ele>2067.3</ele>
        <time>2023-02-05T12:21:42Z</time>
      </trkpt>
      <trkpt lat="44.13747" lon="7.23446">
        <ele>2067.3</ele>
        <time>2023-02-05T12:21:43Z</time>
      </trkpt>
      <trkpt lat="44.13747" lon="7.23445">
        <ele>2067.2</ele>
        <time>2023-02-05T12:21:44Z</time>
      </trkpt>
      <trkpt lat="44.13747" lon="7.23444">
        <ele>2067.2</ele>
        <time>2023-02-05T12:21:45Z</time>
      </trkpt>
      <trkpt lat="44.13746" lon="7.23443">
        <ele>2067.2</ele>
        <time>2023-02-05T12:21:46Z</time>
      </trkpt>
      <trkpt lat="44.13745" lon="7.23443">
        <ele>2067.1</ele>
        <time>2023-02-05T12:21:47Z</time>
      </trkpt>
      <trkpt lat="44.13744" lon="7.23442">
        <ele>2067.1</ele>
        <time>2023-02-05T12:21:48Z</time>
      </trkpt>
      <trkpt lat="44.13744" lon="7.23441">
        <ele>2066.9</ele>
        <time>2023-02-05T12:21:49Z</time>
      </trkpt>
      <trkpt lat="44.13743" lon="7.2344">
        <ele>2067</ele>
        <time>2023-02-05T12:21:50Z</time>
      </trkpt>
      <trkpt lat="44.13743" lon="7.23439">
        <ele>2067</ele>
        <time>2023-02-05T12:21:51Z</time>
      </trkpt>
      <trkpt lat="44.13742" lon="7.23438">
        <ele>2067.1</ele>
        <time>2023-02-05T12:21:52Z</time>
      </trkpt>
      <trkpt lat="44.13742" lon="7.23437">
        <ele>2067.2</ele>
        <time>2023-02-05T12:21:53Z</time>
      </trkpt>
      <trkpt lat="44.13741" lon="7.23436">
        <ele>2067.3</ele>
        <time>2023-02-05T12:21:54Z</time>
      </trkpt>
      <trkpt lat="44.13741" lon="7.23435">
        <ele>2067.2</ele>
        <time>2023-02-05T12:21:55Z</time>
      </trkpt>
      <trkpt lat="44.13741" lon="7.23435">
        <ele>2067.1</ele>
        <time>2023-02-05T12:21:56Z</time>
      </trkpt>
      <trkpt lat="44.1374" lon="7.23434">
        <ele>2067</ele>
        <time>2023-02-05T12:21:57Z</time>
      </trkpt>
      <trkpt lat="44.1374" lon="7.23433">
        <ele>2066.9</ele>
        <time>2023-02-05T12:21:58Z</time>
      </trkpt>
      <trkpt lat="44.1374" lon="7.23432">
        <ele>2066.9</ele>
        <time>2023-02-05T12:21:59Z</time>
      </trkpt>
      <trkpt lat="44.1374" lon="7.23431">
        <ele>2066.8</ele>
        <time>2023-02-05T12:22:00Z</time>
      </trkpt>
      <trkpt lat="44.13739" lon="7.2343">
        <ele>2066.7</ele>
        <time>2023-02-05T12:22:01Z</time>
      </trkpt>
      <trkpt lat="44.13739" lon="7.2343">
        <ele>2066.7</ele>
        <time>2023-02-05T12:22:02Z</time>
      </trkpt>
      <trkpt lat="44.13739" lon="7.23429">
        <ele>2066.5</ele>
        <time>2023-02-05T12:22:03Z</time>
      </trkpt>
      <trkpt lat="44.13739" lon="7.23428">
        <ele>2066.3</ele>
        <time>2023-02-05T12:22:04Z</time>
      </trkpt>
      <trkpt lat="44.13739" lon="7.23427">
        <ele>2066.2</ele>
        <time>2023-02-05T12:22:05Z</time>
      </trkpt>
      <trkpt lat="44.13738" lon="7.23427">
        <ele>2066.2</ele>
        <time>2023-02-05T12:22:06Z</time>
      </trkpt>
      <trkpt lat="44.13738" lon="7.23426">
        <ele>2066.2</ele>
        <time>2023-02-05T12:22:07Z</time>
      </trkpt>
      <trkpt lat="44.13737" lon="7.23425">
        <ele>2066.3</ele>
        <time>2023-02-05T12:22:08Z</time>
      </trkpt>
      <trkpt lat="44.13737" lon="7.23425">
        <ele>2066.2</ele>
        <time>2023-02-05T12:22:09Z</time>
      </trkpt>
      <trkpt lat="44.13737" lon="7.23424">
        <ele>2066.2</ele>
        <time>2023-02-05T12:22:10Z</time>
      </trkpt>
      <trkpt lat="44.13737" lon="7.23423">
        <ele>2066.3</ele>
        <time>2023-02-05T12:22:11Z</time>
      </trkpt>
      <trkpt lat="44.13737" lon="7.23422">
        <ele>2066.2</ele>
        <time>2023-02-05T12:22:12Z</time>
      </trkpt>
      <trkpt lat="44.13736" lon="7.23421">
        <ele>2066.1</ele>
        <time>2023-02-05T12:22:13Z</time>
      </trkpt>
      <trkpt lat="44.13736" lon="7.2342">
        <ele>2066</ele>
        <time>2023-02-05T12:22:14Z</time>
      </trkpt>
      <trkpt lat="44.13735" lon="7.23419">
        <ele>2065.9</ele>
        <time>2023-02-05T12:22:15Z</time>
      </trkpt>
      <trkpt lat="44.13735" lon="7.23418">
        <ele>2065.9</ele>
        <time>2023-02-05T12:22:16Z</time>
      </trkpt>
      <trkpt lat="44.13735" lon="7.23417">
        <ele>2065.6</ele>
        <time>2023-02-05T12:22:17Z</time>
      </trkpt>
      <trkpt lat="44.13736" lon="7.23415">
        <ele>2065.4</ele>
        <time>2023-02-05T12:22:18Z</time>
      </trkpt>
      <trkpt lat="44.13736" lon="7.23414">
        <ele>2064.6</ele>
        <time>2023-02-05T12:22:19Z</time>
      </trkpt>
      <trkpt lat="44.13737" lon="7.23413">
        <ele>2064.6</ele>
        <time>2023-02-05T12:22:20Z</time>
      </trkpt>
      <trkpt lat="44.13737" lon="7.23412">
        <ele>2064.7</ele>
        <time>2023-02-05T12:22:21Z</time>
      </trkpt>
      <trkpt lat="44.13737" lon="7.23411">
        <ele>2064.7</ele>
        <time>2023-02-05T12:22:22Z</time>
      </trkpt>
      <trkpt lat="44.13737" lon="7.23411">
        <ele>2064.7</ele>
        <time>2023-02-05T12:22:23Z</time>
      </trkpt>
      <trkpt lat="44.13736" lon="7.2341">
        <ele>2064.8</ele>
        <time>2023-02-05T12:22:24Z</time>
      </trkpt>
      <trkpt lat="44.13736" lon="7.23409">
        <ele>2064.7</ele>
        <time>2023-02-05T12:22:25Z</time>
      </trkpt>
      <trkpt lat="44.13735" lon="7.23407">
        <ele>2064.5</ele>
        <time>2023-02-05T12:22:26Z</time>
      </trkpt>
      <trkpt lat="44.13735" lon="7.23406">
        <ele>2064.5</ele>
        <time>2023-02-05T12:22:27Z</time>
      </trkpt>
      <trkpt lat="44.13735" lon="7.23405">
        <ele>2064.4</ele>
        <time>2023-02-05T12:22:28Z</time>
      </trkpt>
      <trkpt lat="44.13734" lon="7.23404">
        <ele>2064.5</ele>
        <time>2023-02-05T12:22:29Z</time>
      </trkpt>
      <trkpt lat="44.13734" lon="7.23403">
        <ele>2064.5</ele>
        <time>2023-02-05T12:22:30Z</time>
      </trkpt>
      <trkpt lat="44.13734" lon="7.23401">
        <ele>2064.6</ele>
        <time>2023-02-05T12:22:31Z</time>
      </trkpt>
      <trkpt lat="44.13734" lon="7.234">
        <ele>2064.5</ele>
        <time>2023-02-05T12:22:32Z</time>
      </trkpt>
      <trkpt lat="44.13734" lon="7.234">
        <ele>2064.4</ele>
        <time>2023-02-05T12:22:33Z</time>
      </trkpt>
      <trkpt lat="44.13733" lon="7.23398">
        <ele>2064.3</ele>
        <time>2023-02-05T12:22:34Z</time>
      </trkpt>
      <trkpt lat="44.13733" lon="7.23396">
        <ele>2064.3</ele>
        <time>2023-02-05T12:22:35Z</time>
      </trkpt>
      <trkpt lat="44.13734" lon="7.23395">
        <ele>2064.2</ele>
        <time>2023-02-05T12:22:36Z</time>
      </trkpt>
      <trkpt lat="44.13734" lon="7.23394">
        <ele>2064</ele>
        <time>2023-02-05T12:22:37Z</time>
      </trkpt>
      <trkpt lat="44.13734" lon="7.23393">
        <ele>2064</ele>
        <time>2023-02-05T12:22:38Z</time>
      </trkpt>
      <trkpt lat="44.13734" lon="7.23393">
        <ele>2064</ele>
        <time>2023-02-05T12:22:39Z</time>
      </trkpt>
      <trkpt lat="44.13735" lon="7.23392">
        <ele>2064.2</ele>
        <time>2023-02-05T12:22:40Z</time>
      </trkpt>
      <trkpt lat="44.13735" lon="7.23391">
        <ele>2064.1</ele>
        <time>2023-02-05T12:22:41Z</time>
      </trkpt>
      <trkpt lat="44.13736" lon="7.23391">
        <ele>2064</ele>
        <time>2023-02-05T12:22:42Z</time>
      </trkpt>
      <trkpt lat="44.13736" lon="7.23389">
        <ele>2064</ele>
        <time>2023-02-05T12:22:43Z</time>
      </trkpt>
      <trkpt lat="44.13736" lon="7.23388">
        <ele>2063.9</ele>
        <time>2023-02-05T12:22:44Z</time>
      </trkpt>
      <trkpt lat="44.13737" lon="7.23388">
        <ele>2063.7</ele>
        <time>2023-02-05T12:22:45Z</time>
      </trkpt>
      <trkpt lat="44.13736" lon="7.23386">
        <ele>2063.8</ele>
        <time>2023-02-05T12:22:46Z</time>
      </trkpt>
      <trkpt lat="44.13736" lon="7.23385">
        <ele>2063.8</ele>
        <time>2023-02-05T12:22:47Z</time>
      </trkpt>
      <trkpt lat="44.13738" lon="7.23384">
        <ele>2063.7</ele>
        <time>2023-02-05T12:22:48Z</time>
      </trkpt>
      <trkpt lat="44.13739" lon="7.23384">
        <ele>2063.4</ele>
        <time>2023-02-05T12:22:49Z</time>
      </trkpt>
      <trkpt lat="44.13739" lon="7.23383">
        <ele>2063.3</ele>
        <time>2023-02-05T12:22:50Z</time>
      </trkpt>
      <trkpt lat="44.1374" lon="7.23383">
        <ele>2063.2</ele>
        <time>2023-02-05T12:22:51Z</time>
      </trkpt>
      <trkpt lat="44.1374" lon="7.23382">
        <ele>2062.9</ele>
        <time>2023-02-05T12:22:52Z</time>
      </trkpt>
      <trkpt lat="44.13739" lon="7.2338">
        <ele>2062.7</ele>
        <time>2023-02-05T12:22:53Z</time>
      </trkpt>
      <trkpt lat="44.13739" lon="7.23378">
        <ele>2062.6</ele>
        <time>2023-02-05T12:22:54Z</time>
      </trkpt>
      <trkpt lat="44.13739" lon="7.23377">
        <ele>2062.5</ele>
        <time>2023-02-05T12:22:55Z</time>
      </trkpt>
      <trkpt lat="44.13739" lon="7.23376">
        <ele>2062.3</ele>
        <time>2023-02-05T12:22:56Z</time>
      </trkpt>
      <trkpt lat="44.13739" lon="7.23375">
        <ele>2062.2</ele>
        <time>2023-02-05T12:22:57Z</time>
      </trkpt>
      <trkpt lat="44.13739" lon="7.23375">
        <ele>2062.2</ele>
        <time>2023-02-05T12:22:58Z</time>
      </trkpt>
      <trkpt lat="44.1374" lon="7.23375">
        <ele>2062.1</ele>
        <time>2023-02-05T12:22:59Z</time>
      </trkpt>
      <trkpt lat="44.13738" lon="7.23372">
        <ele>2061.7</ele>
        <time>2023-02-05T12:23:00Z</time>
      </trkpt>
      <trkpt lat="44.13737" lon="7.2337">
        <ele>2061.4</ele>
        <time>2023-02-05T12:23:01Z</time>
      </trkpt>
      <trkpt lat="44.13736" lon="7.23369">
        <ele>2061.2</ele>
        <time>2023-02-05T12:23:02Z</time>
      </trkpt>
      <trkpt lat="44.13737" lon="7.23369">
        <ele>2061.1</ele>
        <time>2023-02-05T12:23:03Z</time>
      </trkpt>
      <trkpt lat="44.13736" lon="7.23368">
        <ele>2061</ele>
        <time>2023-02-05T12:23:04Z</time>
      </trkpt>
      <trkpt lat="44.13736" lon="7.23367">
        <ele>2060.9</ele>
        <time>2023-02-05T12:23:05Z</time>
      </trkpt>
      <trkpt lat="44.13734" lon="7.23365">
        <ele>2060.8</ele>
        <time>2023-02-05T12:23:06Z</time>
      </trkpt>
      <trkpt lat="44.13735" lon="7.23365">
        <ele>2061</ele>
        <time>2023-02-05T12:23:07Z</time>
      </trkpt>
      <trkpt lat="44.13734" lon="7.23364">
        <ele>2060.8</ele>
        <time>2023-02-05T12:23:08Z</time>
      </trkpt>
      <trkpt lat="44.13734" lon="7.23363">
        <ele>2060.7</ele>
        <time>2023-02-05T12:23:09Z</time>
      </trkpt>
      <trkpt lat="44.13733" lon="7.23362">
        <ele>2060.6</ele>
        <time>2023-02-05T12:23:10Z</time>
      </trkpt>
      <trkpt lat="44.13732" lon="7.23361">
        <ele>2060.5</ele>
        <time>2023-02-05T12:23:11Z</time>
      </trkpt>
      <trkpt lat="44.13731" lon="7.2336">
        <ele>2060.3</ele>
        <time>2023-02-05T12:23:12Z</time>
      </trkpt>
      <trkpt lat="44.13731" lon="7.23359">
        <ele>2060.4</ele>
        <time>2023-02-05T12:23:13Z</time>
      </trkpt>
      <trkpt lat="44.13731" lon="7.23358">
        <ele>2060.4</ele>
        <time>2023-02-05T12:23:14Z</time>
      </trkpt>
      <trkpt lat="44.1373" lon="7.23357">
        <ele>2060.3</ele>
        <time>2023-02-05T12:23:15Z</time>
      </trkpt>
      <trkpt lat="44.13731" lon="7.23358">
        <ele>2060.3</ele>
        <time>2023-02-05T12:23:16Z</time>
      </trkpt>
      <trkpt lat="44.1373" lon="7.23357">
        <ele>2060.3</ele>
        <time>2023-02-05T12:23:17Z</time>
      </trkpt>
      <trkpt lat="44.1373" lon="7.23358">
        <ele>2060</ele>
        <time>2023-02-05T12:23:18Z</time>
      </trkpt>
      <trkpt lat="44.13729" lon="7.23358">
        <ele>2060</ele>
        <time>2023-02-05T12:23:19Z</time>
      </trkpt>
      <trkpt lat="44.13728" lon="7.23357">
        <ele>2060</ele>
        <time>2023-02-05T12:23:20Z</time>
      </trkpt>
      <trkpt lat="44.13728" lon="7.23356">
        <ele>2059.9</ele>
        <time>2023-02-05T12:23:21Z</time>
      </trkpt>
      <trkpt lat="44.13728" lon="7.23355">
        <ele>2059.8</ele>
        <time>2023-02-05T12:23:22Z</time>
      </trkpt>
      <trkpt lat="44.13728" lon="7.23355">
        <ele>2059.8</ele>
        <time>2023-02-05T12:23:23Z</time>
      </trkpt>
      <trkpt lat="44.13727" lon="7.23355">
        <ele>2059.7</ele>
        <time>2023-02-05T12:23:24Z</time>
      </trkpt>
      <trkpt lat="44.13727" lon="7.23354">
        <ele>2059.4</ele>
        <time>2023-02-05T12:23:25Z</time>
      </trkpt>
      <trkpt lat="44.13727" lon="7.23353">
        <ele>2059.1</ele>
        <time>2023-02-05T12:23:26Z</time>
      </trkpt>
      <trkpt lat="44.13726" lon="7.23353">
        <ele>2059.2</ele>
        <time>2023-02-05T12:23:27Z</time>
      </trkpt>
      <trkpt lat="44.13726" lon="7.23352">
        <ele>2059.2</ele>
        <time>2023-02-05T12:23:28Z</time>
      </trkpt>
      <trkpt lat="44.13725" lon="7.23352">
        <ele>2059.1</ele>
        <time>2023-02-05T12:23:29Z</time>
      </trkpt>
      <trkpt lat="44.13725" lon="7.23351">
        <ele>2058.9</ele>
        <time>2023-02-05T12:23:30Z</time>
      </trkpt>
      <trkpt lat="44.13725" lon="7.23351">
        <ele>2058.7</ele>
        <time>2023-02-05T12:23:31Z</time>
      </trkpt>
      <trkpt lat="44.13724" lon="7.2335">
        <ele>2058.9</ele>
        <time>2023-02-05T12:23:32Z</time>
      </trkpt>
      <trkpt lat="44.13723" lon="7.2335">
        <ele>2058.8</ele>
        <time>2023-02-05T12:23:33Z</time>
      </trkpt>
      <trkpt lat="44.13723" lon="7.2335">
        <ele>2058.7</ele>
        <time>2023-02-05T12:23:34Z</time>
      </trkpt>
      <trkpt lat="44.13722" lon="7.23349">
        <ele>2058.8</ele>
        <time>2023-02-05T12:23:35Z</time>
      </trkpt>
      <trkpt lat="44.13721" lon="7.23348">
        <ele>2058.8</ele>
        <time>2023-02-05T12:23:36Z</time>
      </trkpt>
      <trkpt lat="44.13721" lon="7.23348">
        <ele>2058.7</ele>
        <time>2023-02-05T12:23:37Z</time>
      </trkpt>
      <trkpt lat="44.1372" lon="7.23347">
        <ele>2058.7</ele>
        <time>2023-02-05T12:23:38Z</time>
      </trkpt>
      <trkpt lat="44.13719" lon="7.23347">
        <ele>2058.6</ele>
        <time>2023-02-05T12:23:39Z</time>
      </trkpt>
      <trkpt lat="44.13718" lon="7.23346">
        <ele>2058.8</ele>
        <time>2023-02-05T12:23:40Z</time>
      </trkpt>
      <trkpt lat="44.13718" lon="7.23346">
        <ele>2058.8</ele>
        <time>2023-02-05T12:23:41Z</time>
      </trkpt>
      <trkpt lat="44.13716" lon="7.23345">
        <ele>2058.6</ele>
        <time>2023-02-05T12:23:42Z</time>
      </trkpt>
      <trkpt lat="44.13716" lon="7.23345">
        <ele>2058.6</ele>
        <time>2023-02-05T12:23:43Z</time>
      </trkpt>
      <trkpt lat="44.13715" lon="7.23345">
        <ele>2059.2</ele>
        <time>2023-02-05T12:23:44Z</time>
      </trkpt>
      <trkpt lat="44.13714" lon="7.23344">
        <ele>2059</ele>
        <time>2023-02-05T12:23:45Z</time>
      </trkpt>
      <trkpt lat="44.13713" lon="7.23343">
        <ele>2058.8</ele>
        <time>2023-02-05T12:23:46Z</time>
      </trkpt>
      <trkpt lat="44.13712" lon="7.23343">
        <ele>2058.8</ele>
        <time>2023-02-05T12:23:47Z</time>
      </trkpt>
      <trkpt lat="44.13711" lon="7.23342">
        <ele>2058.9</ele>
        <time>2023-02-05T12:23:48Z</time>
      </trkpt>
      <trkpt lat="44.13711" lon="7.23342">
        <ele>2058.9</ele>
        <time>2023-02-05T12:23:49Z</time>
      </trkpt>
      <trkpt lat="44.1371" lon="7.23341">
        <ele>2058.9</ele>
        <time>2023-02-05T12:23:50Z</time>
      </trkpt>
      <trkpt lat="44.1371" lon="7.23341">
        <ele>2058.9</ele>
        <time>2023-02-05T12:23:51Z</time>
      </trkpt>
      <trkpt lat="44.13708" lon="7.2334">
        <ele>2058.8</ele>
        <time>2023-02-05T12:23:52Z</time>
      </trkpt>
      <trkpt lat="44.13709" lon="7.2334">
        <ele>2058.8</ele>
        <time>2023-02-05T12:23:53Z</time>
      </trkpt>
      <trkpt lat="44.13708" lon="7.23338">
        <ele>2058.7</ele>
        <time>2023-02-05T12:23:54Z</time>
      </trkpt>
      <trkpt lat="44.13708" lon="7.23338">
        <ele>2058.6</ele>
        <time>2023-02-05T12:23:55Z</time>
      </trkpt>
      <trkpt lat="44.13707" lon="7.23338">
        <ele>2058.5</ele>
        <time>2023-02-05T12:23:56Z</time>
      </trkpt>
      <trkpt lat="44.13708" lon="7.23338">
        <ele>2058.4</ele>
        <time>2023-02-05T12:23:57Z</time>
      </trkpt>
      <trkpt lat="44.13707" lon="7.23338">
        <ele>2058.3</ele>
        <time>2023-02-05T12:23:58Z</time>
      </trkpt>
      <trkpt lat="44.13706" lon="7.23337">
        <ele>2058</ele>
        <time>2023-02-05T12:23:59Z</time>
      </trkpt>
      <trkpt lat="44.13705" lon="7.23338">
        <ele>2057.9</ele>
        <time>2023-02-05T12:24:00Z</time>
      </trkpt>
      <trkpt lat="44.13705" lon="7.23337">
        <ele>2057.7</ele>
        <time>2023-02-05T12:24:01Z</time>
      </trkpt>
      <trkpt lat="44.13704" lon="7.23338">
        <ele>2057.7</ele>
        <time>2023-02-05T12:24:02Z</time>
      </trkpt>
      <trkpt lat="44.13704" lon="7.23337">
        <ele>2057.9</ele>
        <time>2023-02-05T12:24:03Z</time>
      </trkpt>
      <trkpt lat="44.13703" lon="7.23336">
        <ele>2058</ele>
        <time>2023-02-05T12:24:04Z</time>
      </trkpt>
      <trkpt lat="44.13702" lon="7.23336">
        <ele>2057.9</ele>
        <time>2023-02-05T12:24:05Z</time>
      </trkpt>
      <trkpt lat="44.13702" lon="7.23335">
        <ele>2057.9</ele>
        <time>2023-02-05T12:24:06Z</time>
      </trkpt>
      <trkpt lat="44.13701" lon="7.23336">
        <ele>2058.1</ele>
        <time>2023-02-05T12:24:07Z</time>
      </trkpt>
      <trkpt lat="44.13701" lon="7.23335">
        <ele>2058</ele>
        <time>2023-02-05T12:24:08Z</time>
      </trkpt>
      <trkpt lat="44.137" lon="7.23334">
        <ele>2057.9</ele>
        <time>2023-02-05T12:24:09Z</time>
      </trkpt>
      <trkpt lat="44.137" lon="7.23334">
        <ele>2057.9</ele>
        <time>2023-02-05T12:24:10Z</time>
      </trkpt>
      <trkpt lat="44.13699" lon="7.23333">
        <ele>2058.1</ele>
        <time>2023-02-05T12:24:11Z</time>
      </trkpt>
      <trkpt lat="44.13698" lon="7.23333">
        <ele>2057.8</ele>
        <time>2023-02-05T12:24:12Z</time>
      </trkpt>
      <trkpt lat="44.13696" lon="7.23332">
        <ele>2057.6</ele>
        <time>2023-02-05T12:24:13Z</time>
      </trkpt>
      <trkpt lat="44.13695" lon="7.23331">
        <ele>2057.4</ele>
        <time>2023-02-05T12:24:14Z</time>
      </trkpt>
      <trkpt lat="44.13693" lon="7.23331">
        <ele>2057.4</ele>
        <time>2023-02-05T12:24:15Z</time>
      </trkpt>
      <trkpt lat="44.13692" lon="7.23331">
        <ele>2057.7</ele>
        <time>2023-02-05T12:24:16Z</time>
      </trkpt>
      <trkpt lat="44.13691" lon="7.23331">
        <ele>2057.3</ele>
        <time>2023-02-05T12:24:17Z</time>
      </trkpt>
      <trkpt lat="44.1369" lon="7.2333">
        <ele>2057.2</ele>
        <time>2023-02-05T12:24:18Z</time>
      </trkpt>
      <trkpt lat="44.1369" lon="7.2333">
        <ele>2057.2</ele>
        <time>2023-02-05T12:24:19Z</time>
      </trkpt>
      <trkpt lat="44.1369" lon="7.2333">
        <ele>2057.1</ele>
        <time>2023-02-05T12:24:20Z</time>
      </trkpt>
      <trkpt lat="44.13688" lon="7.2333">
        <ele>2057.3</ele>
        <time>2023-02-05T12:24:21Z</time>
      </trkpt>
      <trkpt lat="44.13687" lon="7.23329">
        <ele>2057.2</ele>
        <time>2023-02-05T12:24:22Z</time>
      </trkpt>
      <trkpt lat="44.13686" lon="7.23329">
        <ele>2057.1</ele>
        <time>2023-02-05T12:24:23Z</time>
      </trkpt>
      <trkpt lat="44.13686" lon="7.2333">
        <ele>2057</ele>
        <time>2023-02-05T12:24:24Z</time>
      </trkpt>
      <trkpt lat="44.13685" lon="7.23329">
        <ele>2057.1</ele>
        <time>2023-02-05T12:24:25Z</time>
      </trkpt>
      <trkpt lat="44.13683" lon="7.23329">
        <ele>2057.3</ele>
        <time>2023-02-05T12:24:26Z</time>
      </trkpt>
      <trkpt lat="44.13683" lon="7.23329">
        <ele>2057.1</ele>
        <time>2023-02-05T12:24:27Z</time>
      </trkpt>
      <trkpt lat="44.13681" lon="7.23329">
        <ele>2057.3</ele>
        <time>2023-02-05T12:24:28Z</time>
      </trkpt>
      <trkpt lat="44.1368" lon="7.23329">
        <ele>2056.8</ele>
        <time>2023-02-05T12:24:29Z</time>
      </trkpt>
      <trkpt lat="44.13679" lon="7.23329">
        <ele>2056.4</ele>
        <time>2023-02-05T12:24:30Z</time>
      </trkpt>
      <trkpt lat="44.13679" lon="7.2333">
        <ele>2056.3</ele>
        <time>2023-02-05T12:24:31Z</time>
      </trkpt>
      <trkpt lat="44.13678" lon="7.2333">
        <ele>2056.4</ele>
        <time>2023-02-05T12:24:32Z</time>
      </trkpt>
      <trkpt lat="44.13678" lon="7.2333">
        <ele>2056.4</ele>
        <time>2023-02-05T12:24:33Z</time>
      </trkpt>
      <trkpt lat="44.13677" lon="7.2333">
        <ele>2056.2</ele>
        <time>2023-02-05T12:24:34Z</time>
      </trkpt>
      <trkpt lat="44.13676" lon="7.23331">
        <ele>2056.1</ele>
        <time>2023-02-05T12:24:35Z</time>
      </trkpt>
      <trkpt lat="44.13675" lon="7.23331">
        <ele>2056.2</ele>
        <time>2023-02-05T12:24:36Z</time>
      </trkpt>
      <trkpt lat="44.13675" lon="7.23332">
        <ele>2056.2</ele>
        <time>2023-02-05T12:24:37Z</time>
      </trkpt>
      <trkpt lat="44.13675" lon="7.23332">
        <ele>2056.2</ele>
        <time>2023-02-05T12:24:38Z</time>
      </trkpt>
      <trkpt lat="44.13673" lon="7.23331">
        <ele>2056.2</ele>
        <time>2023-02-05T12:24:39Z</time>
      </trkpt>
      <trkpt lat="44.13673" lon="7.23331">
        <ele>2056.4</ele>
        <time>2023-02-05T12:24:40Z</time>
      </trkpt>
      <trkpt lat="44.13672" lon="7.23331">
        <ele>2056.4</ele>
        <time>2023-02-05T12:24:41Z</time>
      </trkpt>
      <trkpt lat="44.1367" lon="7.23331">
        <ele>2056.3</ele>
        <time>2023-02-05T12:24:42Z</time>
      </trkpt>
      <trkpt lat="44.13669" lon="7.23331">
        <ele>2056.5</ele>
        <time>2023-02-05T12:24:43Z</time>
      </trkpt>
      <trkpt lat="44.13669" lon="7.23332">
        <ele>2056.6</ele>
        <time>2023-02-05T12:24:44Z</time>
      </trkpt>
      <trkpt lat="44.13668" lon="7.23332">
        <ele>2056.7</ele>
        <time>2023-02-05T12:24:45Z</time>
      </trkpt>
      <trkpt lat="44.13668" lon="7.23332">
        <ele>2056.5</ele>
        <time>2023-02-05T12:24:46Z</time>
      </trkpt>
      <trkpt lat="44.13668" lon="7.23332">
        <ele>2056.4</ele>
        <time>2023-02-05T12:24:47Z</time>
      </trkpt>
      <trkpt lat="44.13667" lon="7.23333">
        <ele>2056.4</ele>
        <time>2023-02-05T12:24:48Z</time>
      </trkpt>
      <trkpt lat="44.13667" lon="7.23333">
        <ele>2056.3</ele>
        <time>2023-02-05T12:24:49Z</time>
      </trkpt>
      <trkpt lat="44.13667" lon="7.23334">
        <ele>2056.3</ele>
        <time>2023-02-05T12:24:50Z</time>
      </trkpt>
      <trkpt lat="44.13667" lon="7.23335">
        <ele>2056.3</ele>
        <time>2023-02-05T12:24:51Z</time>
      </trkpt>
      <trkpt lat="44.13667" lon="7.23335">
        <ele>2056.4</ele>
        <time>2023-02-05T12:24:52Z</time>
      </trkpt>
      <trkpt lat="44.13666" lon="7.23336">
        <ele>2056.4</ele>
        <time>2023-02-05T12:24:53Z</time>
      </trkpt>
      <trkpt lat="44.13666" lon="7.23337">
        <ele>2056.5</ele>
        <time>2023-02-05T12:24:54Z</time>
      </trkpt>
      <trkpt lat="44.13665" lon="7.23337">
        <ele>2056.6</ele>
        <time>2023-02-05T12:24:55Z</time>
      </trkpt>
      <trkpt lat="44.13665" lon="7.23338">
        <ele>2056.6</ele>
        <time>2023-02-05T12:24:56Z</time>
      </trkpt>
      <trkpt lat="44.13665" lon="7.23338">
        <ele>2056.5</ele>
        <time>2023-02-05T12:24:57Z</time>
      </trkpt>
      <trkpt lat="44.13665" lon="7.23338">
        <ele>2056.5</ele>
        <time>2023-02-05T12:24:58Z</time>
      </trkpt>
      <trkpt lat="44.13665" lon="7.23338">
        <ele>2056.4</ele>
        <time>2023-02-05T12:24:59Z</time>
      </trkpt>
      <trkpt lat="44.13665" lon="7.23338">
        <ele>2056.5</ele>
        <time>2023-02-05T12:25:00Z</time>
      </trkpt>
      <trkpt lat="44.13665" lon="7.23338">
        <ele>2056.6</ele>
        <time>2023-02-05T12:25:01Z</time>
      </trkpt>
      <trkpt lat="44.13665" lon="7.23338">
        <ele>2056.5</ele>
        <time>2023-02-05T12:25:02Z</time>
      </trkpt>
      <trkpt lat="44.13664" lon="7.23338">
        <ele>2056.4</ele>
        <time>2023-02-05T12:25:03Z</time>
      </trkpt>
      <trkpt lat="44.13664" lon="7.23338">
        <ele>2056.3</ele>
        <time>2023-02-05T12:25:04Z</time>
      </trkpt>
      <trkpt lat="44.13663" lon="7.23337">
        <ele>2056.3</ele>
        <time>2023-02-05T12:25:05Z</time>
      </trkpt>
      <trkpt lat="44.13663" lon="7.23337">
        <ele>2056.3</ele>
        <time>2023-02-05T12:25:06Z</time>
      </trkpt>
      <trkpt lat="44.13663" lon="7.23337">
        <ele>2056.4</ele>
        <time>2023-02-05T12:25:07Z</time>
      </trkpt>
      <trkpt lat="44.13662" lon="7.23337">
        <ele>2056.5</ele>
        <time>2023-02-05T12:25:08Z</time>
      </trkpt>
      <trkpt lat="44.13662" lon="7.23337">
        <ele>2056.6</ele>
        <time>2023-02-05T12:25:09Z</time>
      </trkpt>
      <trkpt lat="44.13661" lon="7.23337">
        <ele>2056.7</ele>
        <time>2023-02-05T12:25:10Z</time>
      </trkpt>
      <trkpt lat="44.13661" lon="7.23336">
        <ele>2056.8</ele>
        <time>2023-02-05T12:25:11Z</time>
      </trkpt>
      <trkpt lat="44.1366" lon="7.23336">
        <ele>2056.8</ele>
        <time>2023-02-05T12:25:12Z</time>
      </trkpt>
      <trkpt lat="44.1366" lon="7.23336">
        <ele>2056.8</ele>
        <time>2023-02-05T12:25:13Z</time>
      </trkpt>
      <trkpt lat="44.13659" lon="7.23336">
        <ele>2056.9</ele>
        <time>2023-02-05T12:25:14Z</time>
      </trkpt>
      <trkpt lat="44.13659" lon="7.23335">
        <ele>2056.9</ele>
        <time>2023-02-05T12:25:15Z</time>
      </trkpt>
      <trkpt lat="44.13658" lon="7.23335">
        <ele>2057</ele>
        <time>2023-02-05T12:25:16Z</time>
      </trkpt>
      <trkpt lat="44.13658" lon="7.23335">
        <ele>2057</ele>
        <time>2023-02-05T12:25:17Z</time>
      </trkpt>
      <trkpt lat="44.13658" lon="7.23335">
        <ele>2057</ele>
        <time>2023-02-05T12:25:18Z</time>
      </trkpt>
      <trkpt lat="44.13657" lon="7.23335">
        <ele>2057</ele>
        <time>2023-02-05T12:25:19Z</time>
      </trkpt>
      <trkpt lat="44.13657" lon="7.23334">
        <ele>2057</ele>
        <time>2023-02-05T12:25:20Z</time>
      </trkpt>
      <trkpt lat="44.13657" lon="7.23334">
        <ele>2057</ele>
        <time>2023-02-05T12:25:21Z</time>
      </trkpt>
      <trkpt lat="44.13657" lon="7.23334">
        <ele>2057</ele>
        <time>2023-02-05T12:25:22Z</time>
      </trkpt>
      <trkpt lat="44.13656" lon="7.23334">
        <ele>2056.9</ele>
        <time>2023-02-05T12:25:23Z</time>
      </trkpt>
      <trkpt lat="44.13656" lon="7.23334">
        <ele>2056.9</ele>
        <time>2023-02-05T12:25:24Z</time>
      </trkpt>
      <trkpt lat="44.13656" lon="7.23333">
        <ele>2056.8</ele>
        <time>2023-02-05T12:25:25Z</time>
      </trkpt>
      <trkpt lat="44.13656" lon="7.23333">
        <ele>2056.7</ele>
        <time>2023-02-05T12:25:26Z</time>
      </trkpt>
      <trkpt lat="44.13655" lon="7.23333">
        <ele>2056.7</ele>
        <time>2023-02-05T12:25:27Z</time>
      </trkpt>
      <trkpt lat="44.13655" lon="7.23333">
        <ele>2056.6</ele>
        <time>2023-02-05T12:25:28Z</time>
      </trkpt>
      <trkpt lat="44.13655" lon="7.23333">
        <ele>2056.6</ele>
        <time>2023-02-05T12:25:29Z</time>
      </trkpt>
      <trkpt lat="44.13655" lon="7.23333">
        <ele>2056.6</ele>
        <time>2023-02-05T12:25:30Z</time>
      </trkpt>
      <trkpt lat="44.13655" lon="7.23333">
        <ele>2056.7</ele>
        <time>2023-02-05T12:25:31Z</time>
      </trkpt>
      <trkpt lat="44.13655" lon="7.23333">
        <ele>2056.6</ele>
        <time>2023-02-05T12:25:32Z</time>
      </trkpt>
      <trkpt lat="44.13655" lon="7.23333">
        <ele>2056.6</ele>
        <time>2023-02-05T12:25:33Z</time>
      </trkpt>
      <trkpt lat="44.13655" lon="7.23333">
        <ele>2056.6</ele>
        <time>2023-02-05T12:25:34Z</time>
      </trkpt>
      <trkpt lat="44.13655" lon="7.23333">
        <ele>2056.7</ele>
        <time>2023-02-05T12:25:35Z</time>
      </trkpt>
      <trkpt lat="44.13655" lon="7.23333">
        <ele>2056.7</ele>
        <time>2023-02-05T12:25:36Z</time>
      </trkpt>
      <trkpt lat="44.13655" lon="7.23333">
        <ele>2056.7</ele>
        <time>2023-02-05T12:25:37Z</time>
      </trkpt>
      <trkpt lat="44.13655" lon="7.23333">
        <ele>2056.7</ele>
        <time>2023-02-05T12:25:38Z</time>
      </trkpt>
      <trkpt lat="44.13655" lon="7.23333">
        <ele>2056.9</ele>
        <time>2023-02-05T12:25:39Z</time>
      </trkpt>
      <trkpt lat="44.13655" lon="7.23333">
        <ele>2056.9</ele>
        <time>2023-02-05T12:25:40Z</time>
      </trkpt>
      <trkpt lat="44.13654" lon="7.23333">
        <ele>2056.8</ele>
        <time>2023-02-05T12:25:41Z</time>
      </trkpt>
      <trkpt lat="44.13654" lon="7.23334">
        <ele>2056.8</ele>
        <time>2023-02-05T12:25:42Z</time>
      </trkpt>
      <trkpt lat="44.13654" lon="7.23334">
        <ele>2056.7</ele>
        <time>2023-02-05T12:25:43Z</time>
      </trkpt>
      <trkpt lat="44.13654" lon="7.23335">
        <ele>2056.8</ele>
        <time>2023-02-05T12:25:44Z</time>
      </trkpt>
      <trkpt lat="44.13654" lon="7.23335">
        <ele>2056.6</ele>
        <time>2023-02-05T12:25:45Z</time>
      </trkpt>
      <trkpt lat="44.13654" lon="7.23335">
        <ele>2056.6</ele>
        <time>2023-02-05T12:25:46Z</time>
      </trkpt>
      <trkpt lat="44.13654" lon="7.23335">
        <ele>2056.7</ele>
        <time>2023-02-05T12:25:47Z</time>
      </trkpt>
      <trkpt lat="44.13653" lon="7.23335">
        <ele>2056.6</ele>
        <time>2023-02-05T12:25:48Z</time>
      </trkpt>
      <trkpt lat="44.13652" lon="7.23335">
        <ele>2056.5</ele>
        <time>2023-02-05T12:25:49Z</time>
      </trkpt>
      <trkpt lat="44.13652" lon="7.23335">
        <ele>2056.4</ele>
        <time>2023-02-05T12:25:50Z</time>
      </trkpt>
      <trkpt lat="44.13652" lon="7.23335">
        <ele>2056.3</ele>
        <time>2023-02-05T12:25:51Z</time>
      </trkpt>
      <trkpt lat="44.13651" lon="7.23335">
        <ele>2056.3</ele>
        <time>2023-02-05T12:25:52Z</time>
      </trkpt>
      <trkpt lat="44.13651" lon="7.23335">
        <ele>2056.3</ele>
        <time>2023-02-05T12:25:53Z</time>
      </trkpt>
      <trkpt lat="44.13651" lon="7.23335">
        <ele>2056.2</ele>
        <time>2023-02-05T12:25:54Z</time>
      </trkpt>
      <trkpt lat="44.1365" lon="7.23335">
        <ele>2056.3</ele>
        <time>2023-02-05T12:25:55Z</time>
      </trkpt>
      <trkpt lat="44.13649" lon="7.23335">
        <ele>2056.3</ele>
        <time>2023-02-05T12:25:56Z</time>
      </trkpt>
      <trkpt lat="44.13649" lon="7.23335">
        <ele>2056.2</ele>
        <time>2023-02-05T12:25:57Z</time>
      </trkpt>
      <trkpt lat="44.13649" lon="7.23335">
        <ele>2056.2</ele>
        <time>2023-02-05T12:25:58Z</time>
      </trkpt>
      <trkpt lat="44.13649" lon="7.23335">
        <ele>2056.2</ele>
        <time>2023-02-05T12:25:59Z</time>
      </trkpt>
      <trkpt lat="44.13649" lon="7.23335">
        <ele>2056.2</ele>
        <time>2023-02-05T12:26:00Z</time>
      </trkpt>
      <trkpt lat="44.13649" lon="7.23335">
        <ele>2056.2</ele>
        <time>2023-02-05T12:26:01Z</time>
      </trkpt>
      <trkpt lat="44.13649" lon="7.23335">
        <ele>2056.2</ele>
        <time>2023-02-05T12:26:02Z</time>
      </trkpt>
      <trkpt lat="44.1365" lon="7.23335">
        <ele>2056.2</ele>
        <time>2023-02-05T12:26:03Z</time>
      </trkpt>
      <trkpt lat="44.1365" lon="7.23335">
        <ele>2056.2</ele>
        <time>2023-02-05T12:26:04Z</time>
      </trkpt>
      <trkpt lat="44.1365" lon="7.23336">
        <ele>2056.2</ele>
        <time>2023-02-05T12:26:05Z</time>
      </trkpt>
      <trkpt lat="44.13651" lon="7.23336">
        <ele>2056.2</ele>
        <time>2023-02-05T12:26:06Z</time>
      </trkpt>
      <trkpt lat="44.13651" lon="7.23336">
        <ele>2056.3</ele>
        <time>2023-02-05T12:26:07Z</time>
      </trkpt>
      <trkpt lat="44.13651" lon="7.23336">
        <ele>2056.3</ele>
        <time>2023-02-05T12:26:08Z</time>
      </trkpt>
      <trkpt lat="44.13651" lon="7.23336">
        <ele>2056.3</ele>
        <time>2023-02-05T12:26:09Z</time>
      </trkpt>
      <trkpt lat="44.13651" lon="7.23336">
        <ele>2056.2</ele>
        <time>2023-02-05T12:26:10Z</time>
      </trkpt>
      <trkpt lat="44.13651" lon="7.23336">
        <ele>2056.3</ele>
        <time>2023-02-05T12:26:11Z</time>
      </trkpt>
      <trkpt lat="44.13651" lon="7.23336">
        <ele>2056.3</ele>
        <time>2023-02-05T12:26:12Z</time>
      </trkpt>
      <trkpt lat="44.13651" lon="7.23336">
        <ele>2056.2</ele>
        <time>2023-02-05T12:26:13Z</time>
      </trkpt>
      <trkpt lat="44.13651" lon="7.23336">
        <ele>2056.2</ele>
        <time>2023-02-05T12:26:14Z</time>
      </trkpt>
      <trkpt lat="44.13651" lon="7.23336">
        <ele>2056.1</ele>
        <time>2023-02-05T12:26:15Z</time>
      </trkpt>
      <trkpt lat="44.13651" lon="7.23336">
        <ele>2056.1</ele>
        <time>2023-02-05T12:26:16Z</time>
      </trkpt>
      <trkpt lat="44.13651" lon="7.23336">
        <ele>2056.1</ele>
        <time>2023-02-05T12:26:17Z</time>
      </trkpt>
      <trkpt lat="44.13652" lon="7.23336">
        <ele>2056.1</ele>
        <time>2023-02-05T12:26:18Z</time>
      </trkpt>
      <trkpt lat="44.13652" lon="7.23336">
        <ele>2056.2</ele>
        <time>2023-02-05T12:26:19Z</time>
      </trkpt>
      <trkpt lat="44.13652" lon="7.23336">
        <ele>2056.2</ele>
        <time>2023-02-05T12:26:20Z</time>
      </trkpt>
      <trkpt lat="44.13652" lon="7.23336">
        <ele>2056.3</ele>
        <time>2023-02-05T12:26:21Z</time>
      </trkpt>
      <trkpt lat="44.13652" lon="7.23337">
        <ele>2056.3</ele>
        <time>2023-02-05T12:26:22Z</time>
      </trkpt>
      <trkpt lat="44.13652" lon="7.23337">
        <ele>2056.3</ele>
        <time>2023-02-05T12:26:23Z</time>
      </trkpt>
      <trkpt lat="44.13652" lon="7.23337">
        <ele>2056.2</ele>
        <time>2023-02-05T12:26:24Z</time>
      </trkpt>
      <trkpt lat="44.13652" lon="7.23337">
        <ele>2056.2</ele>
        <time>2023-02-05T12:26:25Z</time>
      </trkpt>
      <trkpt lat="44.13653" lon="7.23337">
        <ele>2056.2</ele>
        <time>2023-02-05T12:26:26Z</time>
      </trkpt>
      <trkpt lat="44.13653" lon="7.23337">
        <ele>2056.2</ele>
        <time>2023-02-05T12:26:27Z</time>
      </trkpt>
      <trkpt lat="44.13653" lon="7.23337">
        <ele>2056.2</ele>
        <time>2023-02-05T12:26:28Z</time>
      </trkpt>
      <trkpt lat="44.13653" lon="7.23337">
        <ele>2056.2</ele>
        <time>2023-02-05T12:26:29Z</time>
      </trkpt>
      <trkpt lat="44.13653" lon="7.23338">
        <ele>2056.2</ele>
        <time>2023-02-05T12:26:30Z</time>
      </trkpt>
      <trkpt lat="44.13653" lon="7.23338">
        <ele>2056.3</ele>
        <time>2023-02-05T12:26:31Z</time>
      </trkpt>
      <trkpt lat="44.13653" lon="7.23338">
        <ele>2056.3</ele>
        <time>2023-02-05T12:26:32Z</time>
      </trkpt>
      <trkpt lat="44.13653" lon="7.23338">
        <ele>2056.2</ele>
        <time>2023-02-05T12:26:33Z</time>
      </trkpt>
      <trkpt lat="44.13653" lon="7.23338">
        <ele>2056.3</ele>
        <time>2023-02-05T12:26:34Z</time>
      </trkpt>
      <trkpt lat="44.13653" lon="7.23338">
        <ele>2056.3</ele>
        <time>2023-02-05T12:26:35Z</time>
      </trkpt>
      <trkpt lat="44.13653" lon="7.23339">
        <ele>2056.2</ele>
        <time>2023-02-05T12:26:36Z</time>
      </trkpt>
      <trkpt lat="44.13653" lon="7.23339">
        <ele>2056.2</ele>
        <time>2023-02-05T12:26:37Z</time>
      </trkpt>
      <trkpt lat="44.13653" lon="7.23339">
        <ele>2056.1</ele>
        <time>2023-02-05T12:26:38Z</time>
      </trkpt>
      <trkpt lat="44.13653" lon="7.2334">
        <ele>2056.1</ele>
        <time>2023-02-05T12:26:39Z</time>
      </trkpt>
      <trkpt lat="44.13653" lon="7.2334">
        <ele>2056</ele>
        <time>2023-02-05T12:26:40Z</time>
      </trkpt>
      <trkpt lat="44.13654" lon="7.2334">
        <ele>2056</ele>
        <time>2023-02-05T12:26:41Z</time>
      </trkpt>
      <trkpt lat="44.13654" lon="7.2334">
        <ele>2056</ele>
        <time>2023-02-05T12:26:42Z</time>
      </trkpt>
      <trkpt lat="44.13654" lon="7.2334">
        <ele>2055.9</ele>
        <time>2023-02-05T12:26:43Z</time>
      </trkpt>
      <trkpt lat="44.13654" lon="7.23341">
        <ele>2055.8</ele>
        <time>2023-02-05T12:26:44Z</time>
      </trkpt>
      <trkpt lat="44.13654" lon="7.23341">
        <ele>2055.8</ele>
        <time>2023-02-05T12:26:45Z</time>
      </trkpt>
      <trkpt lat="44.13654" lon="7.23341">
        <ele>2055.8</ele>
        <time>2023-02-05T12:26:46Z</time>
      </trkpt>
      <trkpt lat="44.13654" lon="7.23341">
        <ele>2055.8</ele>
        <time>2023-02-05T12:26:47Z</time>
      </trkpt>
      <trkpt lat="44.13654" lon="7.23341">
        <ele>2055.8</ele>
        <time>2023-02-05T12:26:48Z</time>
      </trkpt>
      <trkpt lat="44.13654" lon="7.23342">
        <ele>2055.8</ele>
        <time>2023-02-05T12:26:49Z</time>
      </trkpt>
      <trkpt lat="44.13654" lon="7.23342">
        <ele>2055.7</ele>
        <time>2023-02-05T12:26:50Z</time>
      </trkpt>
      <trkpt lat="44.13654" lon="7.23342">
        <ele>2055.8</ele>
        <time>2023-02-05T12:26:51Z</time>
      </trkpt>
      <trkpt lat="44.13654" lon="7.23342">
        <ele>2055.8</ele>
        <time>2023-02-05T12:26:52Z</time>
      </trkpt>
      <trkpt lat="44.13653" lon="7.23342">
        <ele>2055.9</ele>
        <time>2023-02-05T12:26:53Z</time>
      </trkpt>
      <trkpt lat="44.13653" lon="7.23342">
        <ele>2055.9</ele>
        <time>2023-02-05T12:26:54Z</time>
      </trkpt>
      <trkpt lat="44.13653" lon="7.23342">
        <ele>2055.9</ele>
        <time>2023-02-05T12:26:55Z</time>
      </trkpt>
      <trkpt lat="44.13653" lon="7.23342">
        <ele>2055.9</ele>
        <time>2023-02-05T12:26:56Z</time>
      </trkpt>
      <trkpt lat="44.13653" lon="7.23342">
        <ele>2055.9</ele>
        <time>2023-02-05T12:26:57Z</time>
      </trkpt>
      <trkpt lat="44.13653" lon="7.23341">
        <ele>2055.9</ele>
        <time>2023-02-05T12:26:58Z</time>
      </trkpt>
      <trkpt lat="44.13653" lon="7.23341">
        <ele>2055.9</ele>
        <time>2023-02-05T12:26:59Z</time>
      </trkpt>
      <trkpt lat="44.13652" lon="7.23341">
        <ele>2055.9</ele>
        <time>2023-02-05T12:27:00Z</time>
      </trkpt>
      <trkpt lat="44.13652" lon="7.23341">
        <ele>2055.9</ele>
        <time>2023-02-05T12:27:01Z</time>
      </trkpt>
      <trkpt lat="44.13652" lon="7.23341">
        <ele>2055.9</ele>
        <time>2023-02-05T12:27:02Z</time>
      </trkpt>
      <trkpt lat="44.13652" lon="7.23341">
        <ele>2055.8</ele>
        <time>2023-02-05T12:27:03Z</time>
      </trkpt>
      <trkpt lat="44.13652" lon="7.23341">
        <ele>2055.8</ele>
        <time>2023-02-05T12:27:04Z</time>
      </trkpt>
      <trkpt lat="44.13652" lon="7.23341">
        <ele>2055.8</ele>
        <time>2023-02-05T12:27:05Z</time>
      </trkpt>
      <trkpt lat="44.13652" lon="7.23341">
        <ele>2055.7</ele>
        <time>2023-02-05T12:27:06Z</time>
      </trkpt>
      <trkpt lat="44.13652" lon="7.23341">
        <ele>2055.7</ele>
        <time>2023-02-05T12:27:07Z</time>
      </trkpt>
      <trkpt lat="44.13652" lon="7.23341">
        <ele>2055.6</ele>
        <time>2023-02-05T12:27:08Z</time>
      </trkpt>
      <trkpt lat="44.13652" lon="7.23341">
        <ele>2055.6</ele>
        <time>2023-02-05T12:27:09Z</time>
      </trkpt>
      <trkpt lat="44.13652" lon="7.23341">
        <ele>2055.6</ele>
        <time>2023-02-05T12:27:10Z</time>
      </trkpt>
      <trkpt lat="44.13653" lon="7.23341">
        <ele>2055.6</ele>
        <time>2023-02-05T12:27:11Z</time>
      </trkpt>
      <trkpt lat="44.13653" lon="7.23341">
        <ele>2055.6</ele>
        <time>2023-02-05T12:27:12Z</time>
      </trkpt>
      <trkpt lat="44.13653" lon="7.23342">
        <ele>2055.6</ele>
        <time>2023-02-05T12:27:13Z</time>
      </trkpt>
      <trkpt lat="44.13653" lon="7.23342">
        <ele>2055.6</ele>
        <time>2023-02-05T12:27:14Z</time>
      </trkpt>
      <trkpt lat="44.13654" lon="7.23342">
        <ele>2055.6</ele>
        <time>2023-02-05T12:27:15Z</time>
      </trkpt>
      <trkpt lat="44.13654" lon="7.23342">
        <ele>2055.6</ele>
        <time>2023-02-05T12:27:16Z</time>
      </trkpt>
      <trkpt lat="44.13654" lon="7.23342">
        <ele>2055.6</ele>
        <time>2023-02-05T12:27:17Z</time>
      </trkpt>
      <trkpt lat="44.13655" lon="7.23342">
        <ele>2055.6</ele>
        <time>2023-02-05T12:27:18Z</time>
      </trkpt>
      <trkpt lat="44.13655" lon="7.23342">
        <ele>2055.6</ele>
        <time>2023-02-05T12:27:19Z</time>
      </trkpt>
      <trkpt lat="44.13655" lon="7.23342">
        <ele>2055.5</ele>
        <time>2023-02-05T12:27:20Z</time>
      </trkpt>
      <trkpt lat="44.13655" lon="7.23343">
        <ele>2055.5</ele>
        <time>2023-02-05T12:27:21Z</time>
      </trkpt>
      <trkpt lat="44.13655" lon="7.23342">
        <ele>2055.5</ele>
        <time>2023-02-05T12:27:22Z</time>
      </trkpt>
      <trkpt lat="44.13655" lon="7.23342">
        <ele>2055.4</ele>
        <time>2023-02-05T12:27:23Z</time>
      </trkpt>
      <trkpt lat="44.13655" lon="7.23343">
        <ele>2055.4</ele>
        <time>2023-02-05T12:27:24Z</time>
      </trkpt>
      <trkpt lat="44.13655" lon="7.23343">
        <ele>2055.4</ele>
        <time>2023-02-05T12:27:25Z</time>
      </trkpt>
      <trkpt lat="44.13654" lon="7.23343">
        <ele>2055.6</ele>
        <time>2023-02-05T12:27:26Z</time>
      </trkpt>
      <trkpt lat="44.13655" lon="7.23344">
        <ele>2055.8</ele>
        <time>2023-02-05T12:27:27Z</time>
      </trkpt>
      <trkpt lat="44.13655" lon="7.23344">
        <ele>2055.5</ele>
        <time>2023-02-05T12:27:28Z</time>
      </trkpt>
      <trkpt lat="44.13655" lon="7.23345">
        <ele>2055.6</ele>
        <time>2023-02-05T12:27:29Z</time>
      </trkpt>
      <trkpt lat="44.13655" lon="7.23345">
        <ele>2055.6</ele>
        <time>2023-02-05T12:27:30Z</time>
      </trkpt>
      <trkpt lat="44.13655" lon="7.23345">
        <ele>2055.6</ele>
        <time>2023-02-05T12:27:31Z</time>
      </trkpt>
      <trkpt lat="44.13654" lon="7.23345">
        <ele>2055.6</ele>
        <time>2023-02-05T12:27:32Z</time>
      </trkpt>
      <trkpt lat="44.13654" lon="7.23345">
        <ele>2055.7</ele>
        <time>2023-02-05T12:27:33Z</time>
      </trkpt>
      <trkpt lat="44.13654" lon="7.23345">
        <ele>2055.7</ele>
        <time>2023-02-05T12:27:34Z</time>
      </trkpt>
      <trkpt lat="44.13654" lon="7.23345">
        <ele>2055.8</ele>
        <time>2023-02-05T12:27:35Z</time>
      </trkpt>
      <trkpt lat="44.13654" lon="7.23345">
        <ele>2055.8</ele>
        <time>2023-02-05T12:27:36Z</time>
      </trkpt>
      <trkpt lat="44.13654" lon="7.23345">
        <ele>2055.8</ele>
        <time>2023-02-05T12:27:37Z</time>
      </trkpt>
      <trkpt lat="44.13653" lon="7.23345">
        <ele>2055.8</ele>
        <time>2023-02-05T12:27:38Z</time>
      </trkpt>
      <trkpt lat="44.13653" lon="7.23345">
        <ele>2055.7</ele>
        <time>2023-02-05T12:27:39Z</time>
      </trkpt>
      <trkpt lat="44.13653" lon="7.23345">
        <ele>2055.7</ele>
        <time>2023-02-05T12:27:40Z</time>
      </trkpt>
      <trkpt lat="44.13653" lon="7.23345">
        <ele>2055.7</ele>
        <time>2023-02-05T12:27:41Z</time>
      </trkpt>
      <trkpt lat="44.13653" lon="7.23345">
        <ele>2055.7</ele>
        <time>2023-02-05T12:27:42Z</time>
      </trkpt>
      <trkpt lat="44.13654" lon="7.23346">
        <ele>2055.8</ele>
        <time>2023-02-05T12:27:43Z</time>
      </trkpt>
      <trkpt lat="44.13654" lon="7.23346">
        <ele>2055.8</ele>
        <time>2023-02-05T12:27:44Z</time>
      </trkpt>
      <trkpt lat="44.13654" lon="7.23346">
        <ele>2055.9</ele>
        <time>2023-02-05T12:27:45Z</time>
      </trkpt>
      <trkpt lat="44.13654" lon="7.23346">
        <ele>2055.9</ele>
        <time>2023-02-05T12:27:46Z</time>
      </trkpt>
      <trkpt lat="44.13654" lon="7.23346">
        <ele>2055.9</ele>
        <time>2023-02-05T12:27:47Z</time>
      </trkpt>
      <trkpt lat="44.13653" lon="7.23346">
        <ele>2055.9</ele>
        <time>2023-02-05T12:27:48Z</time>
      </trkpt>
      <trkpt lat="44.13653" lon="7.23346">
        <ele>2056</ele>
        <time>2023-02-05T12:27:49Z</time>
      </trkpt>
      <trkpt lat="44.13653" lon="7.23347">
        <ele>2056.1</ele>
        <time>2023-02-05T12:27:50Z</time>
      </trkpt>
      <trkpt lat="44.13653" lon="7.23347">
        <ele>2056.2</ele>
        <time>2023-02-05T12:27:51Z</time>
      </trkpt>
      <trkpt lat="44.13653" lon="7.23347">
        <ele>2056.2</ele>
        <time>2023-02-05T12:27:52Z</time>
      </trkpt>
      <trkpt lat="44.13653" lon="7.23347">
        <ele>2056.2</ele>
        <time>2023-02-05T12:27:53Z</time>
      </trkpt>
      <trkpt lat="44.13653" lon="7.23347">
        <ele>2056.2</ele>
        <time>2023-02-05T12:27:54Z</time>
      </trkpt>
      <trkpt lat="44.13653" lon="7.23347">
        <ele>2056.1</ele>
        <time>2023-02-05T12:27:55Z</time>
      </trkpt>
      <trkpt lat="44.13653" lon="7.23347">
        <ele>2056</ele>
        <time>2023-02-05T12:27:56Z</time>
      </trkpt>
      <trkpt lat="44.13653" lon="7.23346">
        <ele>2056</ele>
        <time>2023-02-05T12:27:57Z</time>
      </trkpt>
      <trkpt lat="44.13653" lon="7.23346">
        <ele>2056.1</ele>
        <time>2023-02-05T12:27:58Z</time>
      </trkpt>
      <trkpt lat="44.13654" lon="7.23346">
        <ele>2056.1</ele>
        <time>2023-02-05T12:27:59Z</time>
      </trkpt>
      <trkpt lat="44.13653" lon="7.23346">
        <ele>2056</ele>
        <time>2023-02-05T12:28:00Z</time>
      </trkpt>
      <trkpt lat="44.13654" lon="7.23346">
        <ele>2056</ele>
        <time>2023-02-05T12:28:01Z</time>
      </trkpt>
      <trkpt lat="44.13654" lon="7.23346">
        <ele>2056</ele>
        <time>2023-02-05T12:28:02Z</time>
      </trkpt>
      <trkpt lat="44.13654" lon="7.23346">
        <ele>2056</ele>
        <time>2023-02-05T12:28:03Z</time>
      </trkpt>
      <trkpt lat="44.13654" lon="7.23346">
        <ele>2056</ele>
        <time>2023-02-05T12:28:04Z</time>
      </trkpt>
      <trkpt lat="44.13654" lon="7.23346">
        <ele>2055.9</ele>
        <time>2023-02-05T12:28:05Z</time>
      </trkpt>
      <trkpt lat="44.13653" lon="7.23346">
        <ele>2055.8</ele>
        <time>2023-02-05T12:28:06Z</time>
      </trkpt>
      <trkpt lat="44.13653" lon="7.23346">
        <ele>2055.7</ele>
        <time>2023-02-05T12:28:07Z</time>
      </trkpt>
      <trkpt lat="44.13653" lon="7.23346">
        <ele>2055.7</ele>
        <time>2023-02-05T12:28:08Z</time>
      </trkpt>
      <trkpt lat="44.13653" lon="7.23346">
        <ele>2055.7</ele>
        <time>2023-02-05T12:28:09Z</time>
      </trkpt>
      <trkpt lat="44.13653" lon="7.23345">
        <ele>2055.7</ele>
        <time>2023-02-05T12:28:10Z</time>
      </trkpt>
      <trkpt lat="44.13653" lon="7.23345">
        <ele>2055.6</ele>
        <time>2023-02-05T12:28:11Z</time>
      </trkpt>
      <trkpt lat="44.13653" lon="7.23345">
        <ele>2055.6</ele>
        <time>2023-02-05T12:28:12Z</time>
      </trkpt>
      <trkpt lat="44.13653" lon="7.23345">
        <ele>2055.6</ele>
        <time>2023-02-05T12:28:13Z</time>
      </trkpt>
      <trkpt lat="44.13653" lon="7.23345">
        <ele>2055.5</ele>
        <time>2023-02-05T12:28:14Z</time>
      </trkpt>
      <trkpt lat="44.13653" lon="7.23345">
        <ele>2055.5</ele>
        <time>2023-02-05T12:28:15Z</time>
      </trkpt>
      <trkpt lat="44.13652" lon="7.23345">
        <ele>2055.4</ele>
        <time>2023-02-05T12:28:16Z</time>
      </trkpt>
      <trkpt lat="44.13652" lon="7.23344">
        <ele>2055.4</ele>
        <time>2023-02-05T12:28:17Z</time>
      </trkpt>
      <trkpt lat="44.13652" lon="7.23344">
        <ele>2055.4</ele>
        <time>2023-02-05T12:28:18Z</time>
      </trkpt>
      <trkpt lat="44.13653" lon="7.23345">
        <ele>2055.4</ele>
        <time>2023-02-05T12:28:19Z</time>
      </trkpt>
      <trkpt lat="44.13654" lon="7.23345">
        <ele>2055.6</ele>
        <time>2023-02-05T12:28:20Z</time>
      </trkpt>
      <trkpt lat="44.13654" lon="7.23345">
        <ele>2055.7</ele>
        <time>2023-02-05T12:28:21Z</time>
      </trkpt>
      <trkpt lat="44.13654" lon="7.23345">
        <ele>2055.7</ele>
        <time>2023-02-05T12:28:22Z</time>
      </trkpt>
      <trkpt lat="44.13654" lon="7.23345">
        <ele>2055.7</ele>
        <time>2023-02-05T12:28:23Z</time>
      </trkpt>
      <trkpt lat="44.13653" lon="7.23344">
        <ele>2055.8</ele>
        <time>2023-02-05T12:28:24Z</time>
      </trkpt>
      <trkpt lat="44.13652" lon="7.23343">
        <ele>2055.8</ele>
        <time>2023-02-05T12:28:25Z</time>
      </trkpt>
      <trkpt lat="44.13653" lon="7.23344">
        <ele>2055.8</ele>
        <time>2023-02-05T12:28:26Z</time>
      </trkpt>
      <trkpt lat="44.13653" lon="7.23344">
        <ele>2055.8</ele>
        <time>2023-02-05T12:28:27Z</time>
      </trkpt>
      <trkpt lat="44.13653" lon="7.23344">
        <ele>2055.9</ele>
        <time>2023-02-05T12:28:28Z</time>
      </trkpt>
      <trkpt lat="44.13653" lon="7.23344">
        <ele>2055.9</ele>
        <time>2023-02-05T12:28:29Z</time>
      </trkpt>
      <trkpt lat="44.13653" lon="7.23344">
        <ele>2055.9</ele>
        <time>2023-02-05T12:28:30Z</time>
      </trkpt>
      <trkpt lat="44.13654" lon="7.23345">
        <ele>2056</ele>
        <time>2023-02-05T12:28:31Z</time>
      </trkpt>
      <trkpt lat="44.13654" lon="7.23345">
        <ele>2056</ele>
        <time>2023-02-05T12:28:32Z</time>
      </trkpt>
      <trkpt lat="44.13654" lon="7.23346">
        <ele>2056</ele>
        <time>2023-02-05T12:28:33Z</time>
      </trkpt>
      <trkpt lat="44.13655" lon="7.23346">
        <ele>2056</ele>
        <time>2023-02-05T12:28:34Z</time>
      </trkpt>
      <trkpt lat="44.13655" lon="7.23345">
        <ele>2056</ele>
        <time>2023-02-05T12:28:35Z</time>
      </trkpt>
      <trkpt lat="44.13655" lon="7.23346">
        <ele>2056</ele>
        <time>2023-02-05T12:28:36Z</time>
      </trkpt>
      <trkpt lat="44.13655" lon="7.23346">
        <ele>2056</ele>
        <time>2023-02-05T12:28:37Z</time>
      </trkpt>
      <trkpt lat="44.13656" lon="7.23346">
        <ele>2056</ele>
        <time>2023-02-05T12:28:38Z</time>
      </trkpt>
      <trkpt lat="44.13657" lon="7.23347">
        <ele>2056</ele>
        <time>2023-02-05T12:28:39Z</time>
      </trkpt>
      <trkpt lat="44.13657" lon="7.23347">
        <ele>2056</ele>
        <time>2023-02-05T12:28:40Z</time>
      </trkpt>
      <trkpt lat="44.13658" lon="7.23347">
        <ele>2056</ele>
        <time>2023-02-05T12:28:41Z</time>
      </trkpt>
      <trkpt lat="44.13658" lon="7.23347">
        <ele>2056</ele>
        <time>2023-02-05T12:28:42Z</time>
      </trkpt>
      <trkpt lat="44.13657" lon="7.23347">
        <ele>2056.2</ele>
        <time>2023-02-05T12:28:43Z</time>
      </trkpt>
      <trkpt lat="44.13658" lon="7.23347">
        <ele>2056.2</ele>
        <time>2023-02-05T12:28:44Z</time>
      </trkpt>
      <trkpt lat="44.13657" lon="7.23347">
        <ele>2056.2</ele>
        <time>2023-02-05T12:28:45Z</time>
      </trkpt>
      <trkpt lat="44.13657" lon="7.23348">
        <ele>2056.1</ele>
        <time>2023-02-05T12:28:46Z</time>
      </trkpt>
      <trkpt lat="44.13656" lon="7.23348">
        <ele>2056.1</ele>
        <time>2023-02-05T12:28:47Z</time>
      </trkpt>
      <trkpt lat="44.13656" lon="7.23348">
        <ele>2056.1</ele>
        <time>2023-02-05T12:28:48Z</time>
      </trkpt>
      <trkpt lat="44.13656" lon="7.23348">
        <ele>2056.1</ele>
        <time>2023-02-05T12:28:49Z</time>
      </trkpt>
      <trkpt lat="44.13656" lon="7.23348">
        <ele>2056.1</ele>
        <time>2023-02-05T12:28:50Z</time>
      </trkpt>
      <trkpt lat="44.13655" lon="7.23347">
        <ele>2056.1</ele>
        <time>2023-02-05T12:28:51Z</time>
      </trkpt>
      <trkpt lat="44.13655" lon="7.23347">
        <ele>2056</ele>
        <time>2023-02-05T12:28:52Z</time>
      </trkpt>
      <trkpt lat="44.13655" lon="7.23347">
        <ele>2056.1</ele>
        <time>2023-02-05T12:28:53Z</time>
      </trkpt>
      <trkpt lat="44.13656" lon="7.23347">
        <ele>2056.1</ele>
        <time>2023-02-05T12:28:54Z</time>
      </trkpt>
      <trkpt lat="44.13656" lon="7.23347">
        <ele>2055.8</ele>
        <time>2023-02-05T12:28:55Z</time>
      </trkpt>
      <trkpt lat="44.13656" lon="7.23347">
        <ele>2055.8</ele>
        <time>2023-02-05T12:28:56Z</time>
      </trkpt>
      <trkpt lat="44.13656" lon="7.23346">
        <ele>2055.9</ele>
        <time>2023-02-05T12:28:57Z</time>
      </trkpt>
      <trkpt lat="44.13656" lon="7.23344">
        <ele>2055.9</ele>
        <time>2023-02-05T12:28:58Z</time>
      </trkpt>
      <trkpt lat="44.13656" lon="7.23343">
        <ele>2056.1</ele>
        <time>2023-02-05T12:28:59Z</time>
      </trkpt>
      <trkpt lat="44.13655" lon="7.23342">
        <ele>2056.1</ele>
        <time>2023-02-05T12:29:00Z</time>
      </trkpt>
      <trkpt lat="44.13655" lon="7.23341">
        <ele>2056</ele>
        <time>2023-02-05T12:29:01Z</time>
      </trkpt>
      <trkpt lat="44.13655" lon="7.23341">
        <ele>2055.9</ele>
        <time>2023-02-05T12:29:02Z</time>
      </trkpt>
      <trkpt lat="44.13655" lon="7.23342">
        <ele>2055.8</ele>
        <time>2023-02-05T12:29:03Z</time>
      </trkpt>
      <trkpt lat="44.13655" lon="7.23342">
        <ele>2055.8</ele>
        <time>2023-02-05T12:29:04Z</time>
      </trkpt>
      <trkpt lat="44.13655" lon="7.23343">
        <ele>2055.8</ele>
        <time>2023-02-05T12:29:05Z</time>
      </trkpt>
      <trkpt lat="44.13654" lon="7.23343">
        <ele>2055.7</ele>
        <time>2023-02-05T12:29:06Z</time>
      </trkpt>
      <trkpt lat="44.13654" lon="7.23343">
        <ele>2055.7</ele>
        <time>2023-02-05T12:29:07Z</time>
      </trkpt>
      <trkpt lat="44.13654" lon="7.23343">
        <ele>2055.7</ele>
        <time>2023-02-05T12:29:08Z</time>
      </trkpt>
      <trkpt lat="44.13654" lon="7.23343">
        <ele>2055.7</ele>
        <time>2023-02-05T12:29:09Z</time>
      </trkpt>
      <trkpt lat="44.13654" lon="7.23342">
        <ele>2055.6</ele>
        <time>2023-02-05T12:29:10Z</time>
      </trkpt>
      <trkpt lat="44.13654" lon="7.23342">
        <ele>2055.6</ele>
        <time>2023-02-05T12:29:11Z</time>
      </trkpt>
      <trkpt lat="44.13654" lon="7.23341">
        <ele>2055.5</ele>
        <time>2023-02-05T12:29:12Z</time>
      </trkpt>
      <trkpt lat="44.13654" lon="7.23341">
        <ele>2055.5</ele>
        <time>2023-02-05T12:29:13Z</time>
      </trkpt>
      <trkpt lat="44.13653" lon="7.23341">
        <ele>2055.7</ele>
        <time>2023-02-05T12:29:14Z</time>
      </trkpt>
      <trkpt lat="44.13653" lon="7.23341">
        <ele>2055.7</ele>
        <time>2023-02-05T12:29:15Z</time>
      </trkpt>
      <trkpt lat="44.13653" lon="7.23341">
        <ele>2055.8</ele>
        <time>2023-02-05T12:29:16Z</time>
      </trkpt>
      <trkpt lat="44.13653" lon="7.23341">
        <ele>2055.9</ele>
        <time>2023-02-05T12:29:17Z</time>
      </trkpt>
      <trkpt lat="44.13653" lon="7.2334">
        <ele>2055.9</ele>
        <time>2023-02-05T12:29:18Z</time>
      </trkpt>
      <trkpt lat="44.13653" lon="7.2334">
        <ele>2056</ele>
        <time>2023-02-05T12:29:19Z</time>
      </trkpt>
      <trkpt lat="44.13653" lon="7.2334">
        <ele>2056</ele>
        <time>2023-02-05T12:29:20Z</time>
      </trkpt>
      <trkpt lat="44.13653" lon="7.2334">
        <ele>2056</ele>
        <time>2023-02-05T12:29:21Z</time>
      </trkpt>
      <trkpt lat="44.13653" lon="7.2334">
        <ele>2056.1</ele>
        <time>2023-02-05T12:29:22Z</time>
      </trkpt>
      <trkpt lat="44.13653" lon="7.2334">
        <ele>2056.1</ele>
        <time>2023-02-05T12:29:23Z</time>
      </trkpt>
      <trkpt lat="44.13653" lon="7.23339">
        <ele>2056.1</ele>
        <time>2023-02-05T12:29:24Z</time>
      </trkpt>
      <trkpt lat="44.13652" lon="7.23339">
        <ele>2056.1</ele>
        <time>2023-02-05T12:29:25Z</time>
      </trkpt>
      <trkpt lat="44.13652" lon="7.23339">
        <ele>2056.2</ele>
        <time>2023-02-05T12:29:26Z</time>
      </trkpt>
      <trkpt lat="44.13651" lon="7.23339">
        <ele>2056.2</ele>
        <time>2023-02-05T12:29:27Z</time>
      </trkpt>
      <trkpt lat="44.13651" lon="7.23339">
        <ele>2056</ele>
        <time>2023-02-05T12:29:28Z</time>
      </trkpt>
      <trkpt lat="44.1365" lon="7.23339">
        <ele>2056</ele>
        <time>2023-02-05T12:29:29Z</time>
      </trkpt>
      <trkpt lat="44.1365" lon="7.23339">
        <ele>2056</ele>
        <time>2023-02-05T12:29:30Z</time>
      </trkpt>
      <trkpt lat="44.1365" lon="7.23339">
        <ele>2056.1</ele>
        <time>2023-02-05T12:29:31Z</time>
      </trkpt>
      <trkpt lat="44.1365" lon="7.23339">
        <ele>2056.2</ele>
        <time>2023-02-05T12:29:32Z</time>
      </trkpt>
      <trkpt lat="44.13649" lon="7.23339">
        <ele>2056.2</ele>
        <time>2023-02-05T12:29:33Z</time>
      </trkpt>
      <trkpt lat="44.13649" lon="7.23339">
        <ele>2056.3</ele>
        <time>2023-02-05T12:29:34Z</time>
      </trkpt>
      <trkpt lat="44.13649" lon="7.23339">
        <ele>2056.3</ele>
        <time>2023-02-05T12:29:35Z</time>
      </trkpt>
      <trkpt lat="44.13648" lon="7.23339">
        <ele>2056.4</ele>
        <time>2023-02-05T12:29:36Z</time>
      </trkpt>
      <trkpt lat="44.13648" lon="7.23339">
        <ele>2056.4</ele>
        <time>2023-02-05T12:29:37Z</time>
      </trkpt>
      <trkpt lat="44.13648" lon="7.23339">
        <ele>2056.4</ele>
        <time>2023-02-05T12:29:38Z</time>
      </trkpt>
      <trkpt lat="44.13647" lon="7.23339">
        <ele>2056.4</ele>
        <time>2023-02-05T12:29:39Z</time>
      </trkpt>
      <trkpt lat="44.13647" lon="7.23338">
        <ele>2056.3</ele>
        <time>2023-02-05T12:29:40Z</time>
      </trkpt>
      <trkpt lat="44.13647" lon="7.23338">
        <ele>2056.3</ele>
        <time>2023-02-05T12:29:41Z</time>
      </trkpt>
      <trkpt lat="44.13647" lon="7.23339">
        <ele>2056.3</ele>
        <time>2023-02-05T12:29:42Z</time>
      </trkpt>
      <trkpt lat="44.13647" lon="7.23339">
        <ele>2056.3</ele>
        <time>2023-02-05T12:29:43Z</time>
      </trkpt>
      <trkpt lat="44.13647" lon="7.23339">
        <ele>2056.3</ele>
        <time>2023-02-05T12:29:44Z</time>
      </trkpt>
      <trkpt lat="44.13647" lon="7.23338">
        <ele>2056.3</ele>
        <time>2023-02-05T12:29:45Z</time>
      </trkpt>
      <trkpt lat="44.13647" lon="7.23339">
        <ele>2056.3</ele>
        <time>2023-02-05T12:29:46Z</time>
      </trkpt>
      <trkpt lat="44.13648" lon="7.23339">
        <ele>2056.3</ele>
        <time>2023-02-05T12:29:47Z</time>
      </trkpt>
      <trkpt lat="44.13647" lon="7.2334">
        <ele>2056.3</ele>
        <time>2023-02-05T12:29:48Z</time>
      </trkpt>
      <trkpt lat="44.13648" lon="7.23341">
        <ele>2056.3</ele>
        <time>2023-02-05T12:29:49Z</time>
      </trkpt>
      <trkpt lat="44.13647" lon="7.23342">
        <ele>2056</ele>
        <time>2023-02-05T12:29:50Z</time>
      </trkpt>
      <trkpt lat="44.13648" lon="7.23342">
        <ele>2055.8</ele>
        <time>2023-02-05T12:29:51Z</time>
      </trkpt>
      <trkpt lat="44.13646" lon="7.23342">
        <ele>2055.7</ele>
        <time>2023-02-05T12:29:52Z</time>
      </trkpt>
      <trkpt lat="44.13646" lon="7.23342">
        <ele>2055.5</ele>
        <time>2023-02-05T12:29:53Z</time>
      </trkpt>
      <trkpt lat="44.13646" lon="7.23343">
        <ele>2055.4</ele>
        <time>2023-02-05T12:29:54Z</time>
      </trkpt>
      <trkpt lat="44.13645" lon="7.23344">
        <ele>2055.3</ele>
        <time>2023-02-05T12:29:55Z</time>
      </trkpt>
      <trkpt lat="44.13645" lon="7.23344">
        <ele>2055.2</ele>
        <time>2023-02-05T12:29:56Z</time>
      </trkpt>
      <trkpt lat="44.13645" lon="7.23345">
        <ele>2055.1</ele>
        <time>2023-02-05T12:29:57Z</time>
      </trkpt>
      <trkpt lat="44.13646" lon="7.23345">
        <ele>2055</ele>
        <time>2023-02-05T12:29:58Z</time>
      </trkpt>
      <trkpt lat="44.13646" lon="7.23345">
        <ele>2055</ele>
        <time>2023-02-05T12:29:59Z</time>
      </trkpt>
      <trkpt lat="44.13646" lon="7.23345">
        <ele>2054.7</ele>
        <time>2023-02-05T12:30:00Z</time>
      </trkpt>
      <trkpt lat="44.13644" lon="7.23344">
        <ele>2054.5</ele>
        <time>2023-02-05T12:30:01Z</time>
      </trkpt>
      <trkpt lat="44.13645" lon="7.23345">
        <ele>2054.3</ele>
        <time>2023-02-05T12:30:02Z</time>
      </trkpt>
      <trkpt lat="44.13645" lon="7.23345">
        <ele>2054</ele>
        <time>2023-02-05T12:30:03Z</time>
      </trkpt>
      <trkpt lat="44.13645" lon="7.23346">
        <ele>2053.9</ele>
        <time>2023-02-05T12:30:04Z</time>
      </trkpt>
      <trkpt lat="44.13645" lon="7.23347">
        <ele>2053.5</ele>
        <time>2023-02-05T12:30:05Z</time>
      </trkpt>
      <trkpt lat="44.13645" lon="7.23348">
        <ele>2053.2</ele>
        <time>2023-02-05T12:30:06Z</time>
      </trkpt>
      <trkpt lat="44.13644" lon="7.23349">
        <ele>2053</ele>
        <time>2023-02-05T12:30:07Z</time>
      </trkpt>
      <trkpt lat="44.13644" lon="7.2335">
        <ele>2052.8</ele>
        <time>2023-02-05T12:30:08Z</time>
      </trkpt>
      <trkpt lat="44.13644" lon="7.23351">
        <ele>2052.7</ele>
        <time>2023-02-05T12:30:09Z</time>
      </trkpt>
      <trkpt lat="44.13644" lon="7.23351">
        <ele>2052.3</ele>
        <time>2023-02-05T12:30:10Z</time>
      </trkpt>
      <trkpt lat="44.13644" lon="7.23351">
        <ele>2052.2</ele>
        <time>2023-02-05T12:30:11Z</time>
      </trkpt>
      <trkpt lat="44.13643" lon="7.23351">
        <ele>2052.1</ele>
        <time>2023-02-05T12:30:12Z</time>
      </trkpt>
      <trkpt lat="44.13643" lon="7.23351">
        <ele>2052.1</ele>
        <time>2023-02-05T12:30:13Z</time>
      </trkpt>
      <trkpt lat="44.13644" lon="7.23352">
        <ele>2052.1</ele>
        <time>2023-02-05T12:30:14Z</time>
      </trkpt>
      <trkpt lat="44.13644" lon="7.23352">
        <ele>2051.5</ele>
        <time>2023-02-05T12:30:15Z</time>
      </trkpt>
      <trkpt lat="44.13644" lon="7.23353">
        <ele>2051.7</ele>
        <time>2023-02-05T12:30:16Z</time>
      </trkpt>
      <trkpt lat="44.13645" lon="7.23354">
        <ele>2051.8</ele>
        <time>2023-02-05T12:30:17Z</time>
      </trkpt>
      <trkpt lat="44.13647" lon="7.23355">
        <ele>2051.8</ele>
        <time>2023-02-05T12:30:18Z</time>
      </trkpt>
      <trkpt lat="44.13647" lon="7.23355">
        <ele>2051.9</ele>
        <time>2023-02-05T12:30:19Z</time>
      </trkpt>
      <trkpt lat="44.13647" lon="7.23355">
        <ele>2051.7</ele>
        <time>2023-02-05T12:30:20Z</time>
      </trkpt>
      <trkpt lat="44.13646" lon="7.23356">
        <ele>2051.7</ele>
        <time>2023-02-05T12:30:21Z</time>
      </trkpt>
      <trkpt lat="44.13645" lon="7.23356">
        <ele>2051.7</ele>
        <time>2023-02-05T12:30:22Z</time>
      </trkpt>
      <trkpt lat="44.13645" lon="7.23357">
        <ele>2051.7</ele>
        <time>2023-02-05T12:30:23Z</time>
      </trkpt>
      <trkpt lat="44.13645" lon="7.23358">
        <ele>2051.8</ele>
        <time>2023-02-05T12:30:24Z</time>
      </trkpt>
      <trkpt lat="44.13644" lon="7.23359">
        <ele>2051.8</ele>
        <time>2023-02-05T12:30:25Z</time>
      </trkpt>
      <trkpt lat="44.13642" lon="7.23359">
        <ele>2051.8</ele>
        <time>2023-02-05T12:30:26Z</time>
      </trkpt>
      <trkpt lat="44.13641" lon="7.23359">
        <ele>2051.7</ele>
        <time>2023-02-05T12:30:27Z</time>
      </trkpt>
      <trkpt lat="44.13639" lon="7.2336">
        <ele>2051.4</ele>
        <time>2023-02-05T12:30:28Z</time>
      </trkpt>
      <trkpt lat="44.13637" lon="7.2336">
        <ele>2051.6</ele>
        <time>2023-02-05T12:30:29Z</time>
      </trkpt>
      <trkpt lat="44.13636" lon="7.23361">
        <ele>2051.2</ele>
        <time>2023-02-05T12:30:30Z</time>
      </trkpt>
      <trkpt lat="44.13635" lon="7.23362">
        <ele>2051.1</ele>
        <time>2023-02-05T12:30:31Z</time>
      </trkpt>
      <trkpt lat="44.13633" lon="7.23362">
        <ele>2051</ele>
        <time>2023-02-05T12:30:32Z</time>
      </trkpt>
      <trkpt lat="44.13632" lon="7.23363">
        <ele>2051.2</ele>
        <time>2023-02-05T12:30:33Z</time>
      </trkpt>
      <trkpt lat="44.1363" lon="7.23365">
        <ele>2050.9</ele>
        <time>2023-02-05T12:30:34Z</time>
      </trkpt>
      <trkpt lat="44.13628" lon="7.23366">
        <ele>2050.8</ele>
        <time>2023-02-05T12:30:35Z</time>
      </trkpt>
      <trkpt lat="44.13626" lon="7.23366">
        <ele>2050.7</ele>
        <time>2023-02-05T12:30:36Z</time>
      </trkpt>
      <trkpt lat="44.13624" lon="7.23366">
        <ele>2050.7</ele>
        <time>2023-02-05T12:30:37Z</time>
      </trkpt>
      <trkpt lat="44.13623" lon="7.23367">
        <ele>2051</ele>
        <time>2023-02-05T12:30:38Z</time>
      </trkpt>
      <trkpt lat="44.13621" lon="7.23368">
        <ele>2051.2</ele>
        <time>2023-02-05T12:30:39Z</time>
      </trkpt>
      <trkpt lat="44.1362" lon="7.23368">
        <ele>2051.1</ele>
        <time>2023-02-05T12:30:40Z</time>
      </trkpt>
      <trkpt lat="44.13619" lon="7.23369">
        <ele>2051.3</ele>
        <time>2023-02-05T12:30:41Z</time>
      </trkpt>
      <trkpt lat="44.13616" lon="7.23369">
        <ele>2051.1</ele>
        <time>2023-02-05T12:30:42Z</time>
      </trkpt>
      <trkpt lat="44.13615" lon="7.2337">
        <ele>2051</ele>
        <time>2023-02-05T12:30:43Z</time>
      </trkpt>
      <trkpt lat="44.13615" lon="7.23371">
        <ele>2050.9</ele>
        <time>2023-02-05T12:30:44Z</time>
      </trkpt>
      <trkpt lat="44.13612" lon="7.2337">
        <ele>2050.8</ele>
        <time>2023-02-05T12:30:45Z</time>
      </trkpt>
      <trkpt lat="44.13611" lon="7.2337">
        <ele>2050.6</ele>
        <time>2023-02-05T12:30:46Z</time>
      </trkpt>
      <trkpt lat="44.1361" lon="7.23371">
        <ele>2050.3</ele>
        <time>2023-02-05T12:30:47Z</time>
      </trkpt>
      <trkpt lat="44.13609" lon="7.23371">
        <ele>2050.2</ele>
        <time>2023-02-05T12:30:48Z</time>
      </trkpt>
      <trkpt lat="44.13608" lon="7.23371">
        <ele>2050.1</ele>
        <time>2023-02-05T12:30:49Z</time>
      </trkpt>
      <trkpt lat="44.13608" lon="7.23372">
        <ele>2050</ele>
        <time>2023-02-05T12:30:50Z</time>
      </trkpt>
      <trkpt lat="44.13608" lon="7.23374">
        <ele>2049.5</ele>
        <time>2023-02-05T12:30:51Z</time>
      </trkpt>
      <trkpt lat="44.13607" lon="7.23374">
        <ele>2049.5</ele>
        <time>2023-02-05T12:30:52Z</time>
      </trkpt>
      <trkpt lat="44.13606" lon="7.23375">
        <ele>2049.5</ele>
        <time>2023-02-05T12:30:53Z</time>
      </trkpt>
      <trkpt lat="44.13606" lon="7.23375">
        <ele>2049.5</ele>
        <time>2023-02-05T12:30:54Z</time>
      </trkpt>
      <trkpt lat="44.13606" lon="7.23375">
        <ele>2049.4</ele>
        <time>2023-02-05T12:30:55Z</time>
      </trkpt>
      <trkpt lat="44.13607" lon="7.23376">
        <ele>2049.3</ele>
        <time>2023-02-05T12:30:56Z</time>
      </trkpt>
      <trkpt lat="44.13607" lon="7.23376">
        <ele>2049</ele>
        <time>2023-02-05T12:30:57Z</time>
      </trkpt>
      <trkpt lat="44.13607" lon="7.23378">
        <ele>2048.7</ele>
        <time>2023-02-05T12:30:58Z</time>
      </trkpt>
      <trkpt lat="44.13607" lon="7.23378">
        <ele>2048.4</ele>
        <time>2023-02-05T12:30:59Z</time>
      </trkpt>
      <trkpt lat="44.13607" lon="7.23378">
        <ele>2048.3</ele>
        <time>2023-02-05T12:31:00Z</time>
      </trkpt>
      <trkpt lat="44.13609" lon="7.2338">
        <ele>2048.1</ele>
        <time>2023-02-05T12:31:01Z</time>
      </trkpt>
      <trkpt lat="44.13609" lon="7.23381">
        <ele>2048</ele>
        <time>2023-02-05T12:31:02Z</time>
      </trkpt>
      <trkpt lat="44.1361" lon="7.23382">
        <ele>2048.3</ele>
        <time>2023-02-05T12:31:03Z</time>
      </trkpt>
      <trkpt lat="44.13609" lon="7.23382">
        <ele>2048.2</ele>
        <time>2023-02-05T12:31:04Z</time>
      </trkpt>
      <trkpt lat="44.13609" lon="7.23383">
        <ele>2048.1</ele>
        <time>2023-02-05T12:31:05Z</time>
      </trkpt>
      <trkpt lat="44.13609" lon="7.23385">
        <ele>2048</ele>
        <time>2023-02-05T12:31:06Z</time>
      </trkpt>
      <trkpt lat="44.13609" lon="7.23387">
        <ele>2047.9</ele>
        <time>2023-02-05T12:31:07Z</time>
      </trkpt>
      <trkpt lat="44.13608" lon="7.23388">
        <ele>2047.8</ele>
        <time>2023-02-05T12:31:08Z</time>
      </trkpt>
      <trkpt lat="44.13607" lon="7.23388">
        <ele>2047.5</ele>
        <time>2023-02-05T12:31:09Z</time>
      </trkpt>
      <trkpt lat="44.13605" lon="7.23388">
        <ele>2047.3</ele>
        <time>2023-02-05T12:31:10Z</time>
      </trkpt>
      <trkpt lat="44.13604" lon="7.23388">
        <ele>2047.2</ele>
        <time>2023-02-05T12:31:11Z</time>
      </trkpt>
      <trkpt lat="44.13604" lon="7.23389">
        <ele>2047.1</ele>
        <time>2023-02-05T12:31:12Z</time>
      </trkpt>
      <trkpt lat="44.13604" lon="7.23395">
        <ele>2046.6</ele>
        <time>2023-02-05T12:31:13Z</time>
      </trkpt>
      <trkpt lat="44.13603" lon="7.23395">
        <ele>2046.3</ele>
        <time>2023-02-05T12:31:14Z</time>
      </trkpt>
      <trkpt lat="44.13601" lon="7.23396">
        <ele>2046.1</ele>
        <time>2023-02-05T12:31:15Z</time>
      </trkpt>
      <trkpt lat="44.136" lon="7.23397">
        <ele>2046</ele>
        <time>2023-02-05T12:31:16Z</time>
      </trkpt>
      <trkpt lat="44.13599" lon="7.23397">
        <ele>2045.9</ele>
        <time>2023-02-05T12:31:17Z</time>
      </trkpt>
      <trkpt lat="44.13597" lon="7.23397">
        <ele>2045.7</ele>
        <time>2023-02-05T12:31:18Z</time>
      </trkpt>
      <trkpt lat="44.13597" lon="7.23398">
        <ele>2045.7</ele>
        <time>2023-02-05T12:31:19Z</time>
      </trkpt>
      <trkpt lat="44.13595" lon="7.23399">
        <ele>2045.6</ele>
        <time>2023-02-05T12:31:20Z</time>
      </trkpt>
      <trkpt lat="44.13592" lon="7.23399">
        <ele>2045.4</ele>
        <time>2023-02-05T12:31:21Z</time>
      </trkpt>
      <trkpt lat="44.13589" lon="7.23399">
        <ele>2045.3</ele>
        <time>2023-02-05T12:31:22Z</time>
      </trkpt>
      <trkpt lat="44.13587" lon="7.23399">
        <ele>2044.9</ele>
        <time>2023-02-05T12:31:23Z</time>
      </trkpt>
      <trkpt lat="44.13586" lon="7.23399">
        <ele>2044.8</ele>
        <time>2023-02-05T12:31:24Z</time>
      </trkpt>
      <trkpt lat="44.13586" lon="7.234">
        <ele>2044.6</ele>
        <time>2023-02-05T12:31:25Z</time>
      </trkpt>
      <trkpt lat="44.13585" lon="7.234">
        <ele>2044.4</ele>
        <time>2023-02-05T12:31:26Z</time>
      </trkpt>
      <trkpt lat="44.13583" lon="7.23401">
        <ele>2044.2</ele>
        <time>2023-02-05T12:31:27Z</time>
      </trkpt>
      <trkpt lat="44.13579" lon="7.234">
        <ele>2044</ele>
        <time>2023-02-05T12:31:28Z</time>
      </trkpt>
      <trkpt lat="44.13578" lon="7.234">
        <ele>2043.9</ele>
        <time>2023-02-05T12:31:29Z</time>
      </trkpt>
      <trkpt lat="44.13576" lon="7.23399">
        <ele>2043.8</ele>
        <time>2023-02-05T12:31:30Z</time>
      </trkpt>
      <trkpt lat="44.13573" lon="7.23398">
        <ele>2043.7</ele>
        <time>2023-02-05T12:31:31Z</time>
      </trkpt>
      <trkpt lat="44.13573" lon="7.23398">
        <ele>2043.8</ele>
        <time>2023-02-05T12:31:32Z</time>
      </trkpt>
      <trkpt lat="44.13576" lon="7.234">
        <ele>2043.5</ele>
        <time>2023-02-05T12:31:33Z</time>
      </trkpt>
      <trkpt lat="44.13581" lon="7.23403">
        <ele>2043.6</ele>
        <time>2023-02-05T12:31:34Z</time>
      </trkpt>
      <trkpt lat="44.13583" lon="7.23405">
        <ele>2043.5</ele>
        <time>2023-02-05T12:31:35Z</time>
      </trkpt>
      <trkpt lat="44.13585" lon="7.23406">
        <ele>2043.5</ele>
        <time>2023-02-05T12:31:36Z</time>
      </trkpt>
      <trkpt lat="44.13587" lon="7.23408">
        <ele>2043.2</ele>
        <time>2023-02-05T12:31:37Z</time>
      </trkpt>
      <trkpt lat="44.13588" lon="7.23409">
        <ele>2043.3</ele>
        <time>2023-02-05T12:31:38Z</time>
      </trkpt>
      <trkpt lat="44.13589" lon="7.2341">
        <ele>2043.4</ele>
        <time>2023-02-05T12:31:39Z</time>
      </trkpt>
      <trkpt lat="44.13588" lon="7.23409">
        <ele>2044.2</ele>
        <time>2023-02-05T12:31:40Z</time>
      </trkpt>
      <trkpt lat="44.13588" lon="7.23409">
        <ele>2044</ele>
        <time>2023-02-05T12:31:41Z</time>
      </trkpt>
      <trkpt lat="44.13589" lon="7.2341">
        <ele>2043.1</ele>
        <time>2023-02-05T12:31:42Z</time>
      </trkpt>
      <trkpt lat="44.1359" lon="7.23411">
        <ele>2043.2</ele>
        <time>2023-02-05T12:31:43Z</time>
      </trkpt>
      <trkpt lat="44.1359" lon="7.23411">
        <ele>2043.3</ele>
        <time>2023-02-05T12:31:44Z</time>
      </trkpt>
      <trkpt lat="44.1359" lon="7.23411">
        <ele>2043.3</ele>
        <time>2023-02-05T12:31:45Z</time>
      </trkpt>
      <trkpt lat="44.1359" lon="7.23412">
        <ele>2043.3</ele>
        <time>2023-02-05T12:31:46Z</time>
      </trkpt>
      <trkpt lat="44.13591" lon="7.23413">
        <ele>2043.3</ele>
        <time>2023-02-05T12:31:47Z</time>
      </trkpt>
      <trkpt lat="44.13592" lon="7.23413">
        <ele>2043.3</ele>
        <time>2023-02-05T12:31:48Z</time>
      </trkpt>
      <trkpt lat="44.13592" lon="7.23414">
        <ele>2043.2</ele>
        <time>2023-02-05T12:31:49Z</time>
      </trkpt>
      <trkpt lat="44.13593" lon="7.23415">
        <ele>2043.2</ele>
        <time>2023-02-05T12:31:50Z</time>
      </trkpt>
      <trkpt lat="44.13593" lon="7.23415">
        <ele>2043.3</ele>
        <time>2023-02-05T12:31:51Z</time>
      </trkpt>
      <trkpt lat="44.13594" lon="7.23416">
        <ele>2043.3</ele>
        <time>2023-02-05T12:31:52Z</time>
      </trkpt>
      <trkpt lat="44.13595" lon="7.23417">
        <ele>2043.4</ele>
        <time>2023-02-05T12:31:53Z</time>
      </trkpt>
      <trkpt lat="44.13596" lon="7.23418">
        <ele>2043.4</ele>
        <time>2023-02-05T12:31:54Z</time>
      </trkpt>
      <trkpt lat="44.13596" lon="7.23419">
        <ele>2043.3</ele>
        <time>2023-02-05T12:31:55Z</time>
      </trkpt>
      <trkpt lat="44.13597" lon="7.2342">
        <ele>2043.2</ele>
        <time>2023-02-05T12:31:56Z</time>
      </trkpt>
      <trkpt lat="44.13597" lon="7.23422">
        <ele>2043.1</ele>
        <time>2023-02-05T12:31:57Z</time>
      </trkpt>
      <trkpt lat="44.13598" lon="7.23424">
        <ele>2043.1</ele>
        <time>2023-02-05T12:31:58Z</time>
      </trkpt>
      <trkpt lat="44.13599" lon="7.23425">
        <ele>2043</ele>
        <time>2023-02-05T12:31:59Z</time>
      </trkpt>
      <trkpt lat="44.13599" lon="7.23426">
        <ele>2042.8</ele>
        <time>2023-02-05T12:32:00Z</time>
      </trkpt>
      <trkpt lat="44.13601" lon="7.23428">
        <ele>2042.6</ele>
        <time>2023-02-05T12:32:01Z</time>
      </trkpt>
      <trkpt lat="44.136" lon="7.2343">
        <ele>2042.5</ele>
        <time>2023-02-05T12:32:02Z</time>
      </trkpt>
      <trkpt lat="44.13601" lon="7.23431">
        <ele>2042.4</ele>
        <time>2023-02-05T12:32:03Z</time>
      </trkpt>
      <trkpt lat="44.13603" lon="7.23433">
        <ele>2042.3</ele>
        <time>2023-02-05T12:32:04Z</time>
      </trkpt>
      <trkpt lat="44.13603" lon="7.23434">
        <ele>2042.3</ele>
        <time>2023-02-05T12:32:05Z</time>
      </trkpt>
      <trkpt lat="44.13604" lon="7.23436">
        <ele>2042.1</ele>
        <time>2023-02-05T12:32:06Z</time>
      </trkpt>
      <trkpt lat="44.13604" lon="7.23438">
        <ele>2042</ele>
        <time>2023-02-05T12:32:07Z</time>
      </trkpt>
      <trkpt lat="44.13605" lon="7.23439">
        <ele>2042</ele>
        <time>2023-02-05T12:32:08Z</time>
      </trkpt>
      <trkpt lat="44.13607" lon="7.23441">
        <ele>2041.7</ele>
        <time>2023-02-05T12:32:09Z</time>
      </trkpt>
      <trkpt lat="44.13607" lon="7.23443">
        <ele>2041.5</ele>
        <time>2023-02-05T12:32:10Z</time>
      </trkpt>
      <trkpt lat="44.13608" lon="7.23444">
        <ele>2041.2</ele>
        <time>2023-02-05T12:32:11Z</time>
      </trkpt>
      <trkpt lat="44.13608" lon="7.23446">
        <ele>2041.2</ele>
        <time>2023-02-05T12:32:12Z</time>
      </trkpt>
      <trkpt lat="44.1361" lon="7.23447">
        <ele>2041</ele>
        <time>2023-02-05T12:32:13Z</time>
      </trkpt>
      <trkpt lat="44.1361" lon="7.23449">
        <ele>2040.9</ele>
        <time>2023-02-05T12:32:14Z</time>
      </trkpt>
      <trkpt lat="44.13611" lon="7.2345">
        <ele>2040.8</ele>
        <time>2023-02-05T12:32:15Z</time>
      </trkpt>
      <trkpt lat="44.13611" lon="7.23451">
        <ele>2040.6</ele>
        <time>2023-02-05T12:32:16Z</time>
      </trkpt>
      <trkpt lat="44.1361" lon="7.23452">
        <ele>2040.2</ele>
        <time>2023-02-05T12:32:17Z</time>
      </trkpt>
      <trkpt lat="44.13608" lon="7.23452">
        <ele>2040</ele>
        <time>2023-02-05T12:32:18Z</time>
      </trkpt>
      <trkpt lat="44.13605" lon="7.23452">
        <ele>2039.7</ele>
        <time>2023-02-05T12:32:19Z</time>
      </trkpt>
      <trkpt lat="44.13602" lon="7.23452">
        <ele>2039.5</ele>
        <time>2023-02-05T12:32:20Z</time>
      </trkpt>
      <trkpt lat="44.136" lon="7.23452">
        <ele>2039.3</ele>
        <time>2023-02-05T12:32:21Z</time>
      </trkpt>
      <trkpt lat="44.13598" lon="7.23452">
        <ele>2039.1</ele>
        <time>2023-02-05T12:32:22Z</time>
      </trkpt>
      <trkpt lat="44.13596" lon="7.23453">
        <ele>2039.1</ele>
        <time>2023-02-05T12:32:23Z</time>
      </trkpt>
      <trkpt lat="44.13596" lon="7.23454">
        <ele>2038.7</ele>
        <time>2023-02-05T12:32:24Z</time>
      </trkpt>
      <trkpt lat="44.13595" lon="7.23455">
        <ele>2038.4</ele>
        <time>2023-02-05T12:32:25Z</time>
      </trkpt>
      <trkpt lat="44.13593" lon="7.23456">
        <ele>2038.3</ele>
        <time>2023-02-05T12:32:26Z</time>
      </trkpt>
      <trkpt lat="44.13591" lon="7.23456">
        <ele>2038.4</ele>
        <time>2023-02-05T12:32:27Z</time>
      </trkpt>
      <trkpt lat="44.1359" lon="7.23457">
        <ele>2038.3</ele>
        <time>2023-02-05T12:32:28Z</time>
      </trkpt>
      <trkpt lat="44.13589" lon="7.23458">
        <ele>2038.2</ele>
        <time>2023-02-05T12:32:29Z</time>
      </trkpt>
      <trkpt lat="44.13589" lon="7.23458">
        <ele>2038.2</ele>
        <time>2023-02-05T12:32:30Z</time>
      </trkpt>
      <trkpt lat="44.13588" lon="7.2346">
        <ele>2038</ele>
        <time>2023-02-05T12:32:31Z</time>
      </trkpt>
      <trkpt lat="44.13588" lon="7.23461">
        <ele>2037.9</ele>
        <time>2023-02-05T12:32:32Z</time>
      </trkpt>
      <trkpt lat="44.13587" lon="7.23462">
        <ele>2037.8</ele>
        <time>2023-02-05T12:32:33Z</time>
      </trkpt>
      <trkpt lat="44.13588" lon="7.23464">
        <ele>2037.7</ele>
        <time>2023-02-05T12:32:34Z</time>
      </trkpt>
      <trkpt lat="44.13589" lon="7.23466">
        <ele>2037.5</ele>
        <time>2023-02-05T12:32:35Z</time>
      </trkpt>
      <trkpt lat="44.1359" lon="7.23468">
        <ele>2037.4</ele>
        <time>2023-02-05T12:32:36Z</time>
      </trkpt>
      <trkpt lat="44.13592" lon="7.2347">
        <ele>2037.2</ele>
        <time>2023-02-05T12:32:37Z</time>
      </trkpt>
      <trkpt lat="44.13592" lon="7.23471">
        <ele>2037.1</ele>
        <time>2023-02-05T12:32:38Z</time>
      </trkpt>
      <trkpt lat="44.13593" lon="7.23473">
        <ele>2037</ele>
        <time>2023-02-05T12:32:39Z</time>
      </trkpt>
      <trkpt lat="44.13595" lon="7.23475">
        <ele>2037.1</ele>
        <time>2023-02-05T12:32:40Z</time>
      </trkpt>
      <trkpt lat="44.13591" lon="7.23475">
        <ele>2037</ele>
        <time>2023-02-05T12:32:41Z</time>
      </trkpt>
      <trkpt lat="44.13592" lon="7.23477">
        <ele>2036.9</ele>
        <time>2023-02-05T12:32:42Z</time>
      </trkpt>
      <trkpt lat="44.13591" lon="7.23478">
        <ele>2036.6</ele>
        <time>2023-02-05T12:32:43Z</time>
      </trkpt>
      <trkpt lat="44.13591" lon="7.2348">
        <ele>2036.3</ele>
        <time>2023-02-05T12:32:44Z</time>
      </trkpt>
      <trkpt lat="44.1359" lon="7.23481">
        <ele>2036.1</ele>
        <time>2023-02-05T12:32:45Z</time>
      </trkpt>
      <trkpt lat="44.1359" lon="7.23482">
        <ele>2036.1</ele>
        <time>2023-02-05T12:32:46Z</time>
      </trkpt>
      <trkpt lat="44.13591" lon="7.23484">
        <ele>2036.2</ele>
        <time>2023-02-05T12:32:47Z</time>
      </trkpt>
      <trkpt lat="44.13591" lon="7.23485">
        <ele>2036</ele>
        <time>2023-02-05T12:32:48Z</time>
      </trkpt>
      <trkpt lat="44.13591" lon="7.23486">
        <ele>2035.8</ele>
        <time>2023-02-05T12:32:49Z</time>
      </trkpt>
      <trkpt lat="44.13594" lon="7.23488">
        <ele>2035.7</ele>
        <time>2023-02-05T12:32:50Z</time>
      </trkpt>
      <trkpt lat="44.13594" lon="7.23489">
        <ele>2035.5</ele>
        <time>2023-02-05T12:32:51Z</time>
      </trkpt>
      <trkpt lat="44.13594" lon="7.23491">
        <ele>2035.2</ele>
        <time>2023-02-05T12:32:52Z</time>
      </trkpt>
      <trkpt lat="44.13594" lon="7.23492">
        <ele>2034.9</ele>
        <time>2023-02-05T12:32:53Z</time>
      </trkpt>
      <trkpt lat="44.13594" lon="7.23493">
        <ele>2034.7</ele>
        <time>2023-02-05T12:32:54Z</time>
      </trkpt>
      <trkpt lat="44.13594" lon="7.23494">
        <ele>2034.6</ele>
        <time>2023-02-05T12:32:55Z</time>
      </trkpt>
      <trkpt lat="44.13593" lon="7.23496">
        <ele>2034.4</ele>
        <time>2023-02-05T12:32:56Z</time>
      </trkpt>
      <trkpt lat="44.13594" lon="7.23497">
        <ele>2034.1</ele>
        <time>2023-02-05T12:32:57Z</time>
      </trkpt>
      <trkpt lat="44.13595" lon="7.23498">
        <ele>2034.1</ele>
        <time>2023-02-05T12:32:58Z</time>
      </trkpt>
      <trkpt lat="44.13595" lon="7.23498">
        <ele>2034</ele>
        <time>2023-02-05T12:32:59Z</time>
      </trkpt>
      <trkpt lat="44.13596" lon="7.23499">
        <ele>2033.9</ele>
        <time>2023-02-05T12:33:00Z</time>
      </trkpt>
      <trkpt lat="44.13596" lon="7.235">
        <ele>2033.8</ele>
        <time>2023-02-05T12:33:01Z</time>
      </trkpt>
      <trkpt lat="44.13596" lon="7.235">
        <ele>2033.9</ele>
        <time>2023-02-05T12:33:02Z</time>
      </trkpt>
      <trkpt lat="44.136" lon="7.23503">
        <ele>2033.7</ele>
        <time>2023-02-05T12:33:03Z</time>
      </trkpt>
      <trkpt lat="44.136" lon="7.23504">
        <ele>2033.7</ele>
        <time>2023-02-05T12:33:04Z</time>
      </trkpt>
      <trkpt lat="44.136" lon="7.23505">
        <ele>2033.9</ele>
        <time>2023-02-05T12:33:05Z</time>
      </trkpt>
      <trkpt lat="44.136" lon="7.23506">
        <ele>2033.3</ele>
        <time>2023-02-05T12:33:06Z</time>
      </trkpt>
      <trkpt lat="44.136" lon="7.23506">
        <ele>2033.1</ele>
        <time>2023-02-05T12:33:07Z</time>
      </trkpt>
      <trkpt lat="44.13601" lon="7.23507">
        <ele>2033.2</ele>
        <time>2023-02-05T12:33:08Z</time>
      </trkpt>
      <trkpt lat="44.13601" lon="7.23507">
        <ele>2033.2</ele>
        <time>2023-02-05T12:33:09Z</time>
      </trkpt>
      <trkpt lat="44.136" lon="7.23507">
        <ele>2033</ele>
        <time>2023-02-05T12:33:10Z</time>
      </trkpt>
      <trkpt lat="44.13599" lon="7.23507">
        <ele>2032.9</ele>
        <time>2023-02-05T12:33:11Z</time>
      </trkpt>
      <trkpt lat="44.13599" lon="7.23508">
        <ele>2033</ele>
        <time>2023-02-05T12:33:12Z</time>
      </trkpt>
      <trkpt lat="44.136" lon="7.23509">
        <ele>2032.9</ele>
        <time>2023-02-05T12:33:13Z</time>
      </trkpt>
      <trkpt lat="44.13602" lon="7.23511">
        <ele>2032.5</ele>
        <time>2023-02-05T12:33:14Z</time>
      </trkpt>
      <trkpt lat="44.13601" lon="7.23511">
        <ele>2032.3</ele>
        <time>2023-02-05T12:33:15Z</time>
      </trkpt>
      <trkpt lat="44.136" lon="7.23512">
        <ele>2032.4</ele>
        <time>2023-02-05T12:33:16Z</time>
      </trkpt>
      <trkpt lat="44.136" lon="7.23514">
        <ele>2032.4</ele>
        <time>2023-02-05T12:33:17Z</time>
      </trkpt>
      <trkpt lat="44.136" lon="7.23515">
        <ele>2032.4</ele>
        <time>2023-02-05T12:33:18Z</time>
      </trkpt>
      <trkpt lat="44.136" lon="7.23515">
        <ele>2032.3</ele>
        <time>2023-02-05T12:33:19Z</time>
      </trkpt>
      <trkpt lat="44.13601" lon="7.23517">
        <ele>2032.3</ele>
        <time>2023-02-05T12:33:20Z</time>
      </trkpt>
      <trkpt lat="44.13602" lon="7.23518">
        <ele>2032.3</ele>
        <time>2023-02-05T12:33:21Z</time>
      </trkpt>
      <trkpt lat="44.13601" lon="7.23519">
        <ele>2032.4</ele>
        <time>2023-02-05T12:33:22Z</time>
      </trkpt>
      <trkpt lat="44.13601" lon="7.2352">
        <ele>2032.3</ele>
        <time>2023-02-05T12:33:23Z</time>
      </trkpt>
      <trkpt lat="44.136" lon="7.2352">
        <ele>2032.2</ele>
        <time>2023-02-05T12:33:24Z</time>
      </trkpt>
      <trkpt lat="44.136" lon="7.2352">
        <ele>2032.1</ele>
        <time>2023-02-05T12:33:25Z</time>
      </trkpt>
      <trkpt lat="44.13598" lon="7.23521">
        <ele>2032</ele>
        <time>2023-02-05T12:33:26Z</time>
      </trkpt>
      <trkpt lat="44.13597" lon="7.23521">
        <ele>2031.9</ele>
        <time>2023-02-05T12:33:27Z</time>
      </trkpt>
      <trkpt lat="44.13598" lon="7.23522">
        <ele>2031.8</ele>
        <time>2023-02-05T12:33:28Z</time>
      </trkpt>
      <trkpt lat="44.13598" lon="7.23525">
        <ele>2031.7</ele>
        <time>2023-02-05T12:33:29Z</time>
      </trkpt>
      <trkpt lat="44.13598" lon="7.23527">
        <ele>2031.3</ele>
        <time>2023-02-05T12:33:30Z</time>
      </trkpt>
      <trkpt lat="44.13597" lon="7.23528">
        <ele>2031</ele>
        <time>2023-02-05T12:33:31Z</time>
      </trkpt>
      <trkpt lat="44.13595" lon="7.23528">
        <ele>2030.9</ele>
        <time>2023-02-05T12:33:32Z</time>
      </trkpt>
      <trkpt lat="44.13596" lon="7.2353">
        <ele>2030.7</ele>
        <time>2023-02-05T12:33:33Z</time>
      </trkpt>
      <trkpt lat="44.13597" lon="7.23531">
        <ele>2030.7</ele>
        <time>2023-02-05T12:33:34Z</time>
      </trkpt>
      <trkpt lat="44.13597" lon="7.23531">
        <ele>2030.6</ele>
        <time>2023-02-05T12:33:35Z</time>
      </trkpt>
      <trkpt lat="44.13595" lon="7.23531">
        <ele>2030.7</ele>
        <time>2023-02-05T12:33:36Z</time>
      </trkpt>
      <trkpt lat="44.13596" lon="7.23533">
        <ele>2030.4</ele>
        <time>2023-02-05T12:33:37Z</time>
      </trkpt>
      <trkpt lat="44.13592" lon="7.23532">
        <ele>2030.2</ele>
        <time>2023-02-05T12:33:38Z</time>
      </trkpt>
      <trkpt lat="44.13587" lon="7.23531">
        <ele>2030</ele>
        <time>2023-02-05T12:33:39Z</time>
      </trkpt>
      <trkpt lat="44.13583" lon="7.23531">
        <ele>2029.9</ele>
        <time>2023-02-05T12:33:40Z</time>
      </trkpt>
      <trkpt lat="44.1358" lon="7.2353">
        <ele>2029.6</ele>
        <time>2023-02-05T12:33:41Z</time>
      </trkpt>
      <trkpt lat="44.13578" lon="7.23531">
        <ele>2029.4</ele>
        <time>2023-02-05T12:33:42Z</time>
      </trkpt>
      <trkpt lat="44.13576" lon="7.23531">
        <ele>2029.3</ele>
        <time>2023-02-05T12:33:43Z</time>
      </trkpt>
      <trkpt lat="44.13574" lon="7.23531">
        <ele>2029.2</ele>
        <time>2023-02-05T12:33:44Z</time>
      </trkpt>
      <trkpt lat="44.13572" lon="7.23531">
        <ele>2029.1</ele>
        <time>2023-02-05T12:33:45Z</time>
      </trkpt>
      <trkpt lat="44.13573" lon="7.23533">
        <ele>2029.1</ele>
        <time>2023-02-05T12:33:46Z</time>
      </trkpt>
      <trkpt lat="44.13576" lon="7.23534">
        <ele>2029</ele>
        <time>2023-02-05T12:33:47Z</time>
      </trkpt>
      <trkpt lat="44.13576" lon="7.23535">
        <ele>2029</ele>
        <time>2023-02-05T12:33:48Z</time>
      </trkpt>
      <trkpt lat="44.13577" lon="7.23535">
        <ele>2028.9</ele>
        <time>2023-02-05T12:33:49Z</time>
      </trkpt>
      <trkpt lat="44.13577" lon="7.23535">
        <ele>2029</ele>
        <time>2023-02-05T12:33:50Z</time>
      </trkpt>
      <trkpt lat="44.13577" lon="7.23536">
        <ele>2029.1</ele>
        <time>2023-02-05T12:33:51Z</time>
      </trkpt>
      <trkpt lat="44.13578" lon="7.23539">
        <ele>2029.2</ele>
        <time>2023-02-05T12:33:52Z</time>
      </trkpt>
      <trkpt lat="44.13579" lon="7.23541">
        <ele>2029.1</ele>
        <time>2023-02-05T12:33:53Z</time>
      </trkpt>
      <trkpt lat="44.13579" lon="7.23542">
        <ele>2029.1</ele>
        <time>2023-02-05T12:33:54Z</time>
      </trkpt>
      <trkpt lat="44.13578" lon="7.23543">
        <ele>2029</ele>
        <time>2023-02-05T12:33:55Z</time>
      </trkpt>
      <trkpt lat="44.13577" lon="7.23544">
        <ele>2029</ele>
        <time>2023-02-05T12:33:56Z</time>
      </trkpt>
      <trkpt lat="44.13576" lon="7.23544">
        <ele>2028.8</ele>
        <time>2023-02-05T12:33:57Z</time>
      </trkpt>
      <trkpt lat="44.13576" lon="7.23546">
        <ele>2028.3</ele>
        <time>2023-02-05T12:33:58Z</time>
      </trkpt>
      <trkpt lat="44.13574" lon="7.23547">
        <ele>2028.2</ele>
        <time>2023-02-05T12:33:59Z</time>
      </trkpt>
      <trkpt lat="44.13572" lon="7.23547">
        <ele>2028</ele>
        <time>2023-02-05T12:34:00Z</time>
      </trkpt>
      <trkpt lat="44.13572" lon="7.23549">
        <ele>2027.9</ele>
        <time>2023-02-05T12:34:01Z</time>
      </trkpt>
      <trkpt lat="44.13571" lon="7.2355">
        <ele>2027.2</ele>
        <time>2023-02-05T12:34:02Z</time>
      </trkpt>
      <trkpt lat="44.13572" lon="7.23553">
        <ele>2027.1</ele>
        <time>2023-02-05T12:34:03Z</time>
      </trkpt>
      <trkpt lat="44.13573" lon="7.23554">
        <ele>2027</ele>
        <time>2023-02-05T12:34:04Z</time>
      </trkpt>
      <trkpt lat="44.13573" lon="7.23556">
        <ele>2026.9</ele>
        <time>2023-02-05T12:34:05Z</time>
      </trkpt>
      <trkpt lat="44.13573" lon="7.23557">
        <ele>2027.2</ele>
        <time>2023-02-05T12:34:06Z</time>
      </trkpt>
      <trkpt lat="44.13573" lon="7.23558">
        <ele>2027</ele>
        <time>2023-02-05T12:34:07Z</time>
      </trkpt>
      <trkpt lat="44.13572" lon="7.23558">
        <ele>2027</ele>
        <time>2023-02-05T12:34:08Z</time>
      </trkpt>
      <trkpt lat="44.13576" lon="7.23561">
        <ele>2027</ele>
        <time>2023-02-05T12:34:09Z</time>
      </trkpt>
      <trkpt lat="44.1358" lon="7.23563">
        <ele>2027</ele>
        <time>2023-02-05T12:34:10Z</time>
      </trkpt>
      <trkpt lat="44.13583" lon="7.23564">
        <ele>2026.9</ele>
        <time>2023-02-05T12:34:11Z</time>
      </trkpt>
      <trkpt lat="44.13585" lon="7.23565">
        <ele>2026.9</ele>
        <time>2023-02-05T12:34:12Z</time>
      </trkpt>
      <trkpt lat="44.13587" lon="7.23567">
        <ele>2026.9</ele>
        <time>2023-02-05T12:34:13Z</time>
      </trkpt>
      <trkpt lat="44.13588" lon="7.23568">
        <ele>2026.9</ele>
        <time>2023-02-05T12:34:14Z</time>
      </trkpt>
      <trkpt lat="44.13588" lon="7.23568">
        <ele>2026.8</ele>
        <time>2023-02-05T12:34:15Z</time>
      </trkpt>
      <trkpt lat="44.13588" lon="7.23569">
        <ele>2026.8</ele>
        <time>2023-02-05T12:34:16Z</time>
      </trkpt>
      <trkpt lat="44.13589" lon="7.23569">
        <ele>2026.7</ele>
        <time>2023-02-05T12:34:17Z</time>
      </trkpt>
      <trkpt lat="44.13589" lon="7.23569">
        <ele>2026.7</ele>
        <time>2023-02-05T12:34:18Z</time>
      </trkpt>
      <trkpt lat="44.13589" lon="7.23569">
        <ele>2026.6</ele>
        <time>2023-02-05T12:34:19Z</time>
      </trkpt>
      <trkpt lat="44.13589" lon="7.23569">
        <ele>2026.6</ele>
        <time>2023-02-05T12:34:20Z</time>
      </trkpt>
      <trkpt lat="44.13589" lon="7.2357">
        <ele>2026.5</ele>
        <time>2023-02-05T12:34:21Z</time>
      </trkpt>
      <trkpt lat="44.1359" lon="7.23571">
        <ele>2026.5</ele>
        <time>2023-02-05T12:34:22Z</time>
      </trkpt>
      <trkpt lat="44.13592" lon="7.23572">
        <ele>2026.5</ele>
        <time>2023-02-05T12:34:23Z</time>
      </trkpt>
      <trkpt lat="44.13592" lon="7.23573">
        <ele>2026.5</ele>
        <time>2023-02-05T12:34:24Z</time>
      </trkpt>
      <trkpt lat="44.13592" lon="7.23573">
        <ele>2026.5</ele>
        <time>2023-02-05T12:34:25Z</time>
      </trkpt>
      <trkpt lat="44.13593" lon="7.23574">
        <ele>2026.5</ele>
        <time>2023-02-05T12:34:26Z</time>
      </trkpt>
      <trkpt lat="44.13593" lon="7.23574">
        <ele>2026.5</ele>
        <time>2023-02-05T12:34:27Z</time>
      </trkpt>
      <trkpt lat="44.13593" lon="7.23574">
        <ele>2026.6</ele>
        <time>2023-02-05T12:34:28Z</time>
      </trkpt>
      <trkpt lat="44.13594" lon="7.23575">
        <ele>2026.7</ele>
        <time>2023-02-05T12:34:29Z</time>
      </trkpt>
      <trkpt lat="44.13595" lon="7.23575">
        <ele>2026.7</ele>
        <time>2023-02-05T12:34:30Z</time>
      </trkpt>
      <trkpt lat="44.13595" lon="7.23575">
        <ele>2026.8</ele>
        <time>2023-02-05T12:34:31Z</time>
      </trkpt>
      <trkpt lat="44.13594" lon="7.23575">
        <ele>2026.7</ele>
        <time>2023-02-05T12:34:32Z</time>
      </trkpt>
      <trkpt lat="44.13593" lon="7.23575">
        <ele>2026.7</ele>
        <time>2023-02-05T12:34:33Z</time>
      </trkpt>
      <trkpt lat="44.13593" lon="7.23575">
        <ele>2026.6</ele>
        <time>2023-02-05T12:34:34Z</time>
      </trkpt>
      <trkpt lat="44.13592" lon="7.23576">
        <ele>2026.6</ele>
        <time>2023-02-05T12:34:35Z</time>
      </trkpt>
      <trkpt lat="44.13592" lon="7.23576">
        <ele>2026.6</ele>
        <time>2023-02-05T12:34:36Z</time>
      </trkpt>
      <trkpt lat="44.13592" lon="7.23577">
        <ele>2026.6</ele>
        <time>2023-02-05T12:34:37Z</time>
      </trkpt>
      <trkpt lat="44.13591" lon="7.23578">
        <ele>2026.2</ele>
        <time>2023-02-05T12:34:38Z</time>
      </trkpt>
      <trkpt lat="44.13591" lon="7.2358">
        <ele>2026.2</ele>
        <time>2023-02-05T12:34:39Z</time>
      </trkpt>
      <trkpt lat="44.13592" lon="7.23581">
        <ele>2026.1</ele>
        <time>2023-02-05T12:34:40Z</time>
      </trkpt>
      <trkpt lat="44.13592" lon="7.23582">
        <ele>2026</ele>
        <time>2023-02-05T12:34:41Z</time>
      </trkpt>
      <trkpt lat="44.13592" lon="7.23583">
        <ele>2026</ele>
        <time>2023-02-05T12:34:42Z</time>
      </trkpt>
      <trkpt lat="44.13592" lon="7.23583">
        <ele>2026</ele>
        <time>2023-02-05T12:34:43Z</time>
      </trkpt>
      <trkpt lat="44.13592" lon="7.23584">
        <ele>2025.9</ele>
        <time>2023-02-05T12:34:44Z</time>
      </trkpt>
      <trkpt lat="44.13592" lon="7.23585">
        <ele>2025.9</ele>
        <time>2023-02-05T12:34:45Z</time>
      </trkpt>
      <trkpt lat="44.13593" lon="7.23586">
        <ele>2025.9</ele>
        <time>2023-02-05T12:34:46Z</time>
      </trkpt>
      <trkpt lat="44.13591" lon="7.23586">
        <ele>2025.9</ele>
        <time>2023-02-05T12:34:47Z</time>
      </trkpt>
      <trkpt lat="44.1359" lon="7.23587">
        <ele>2025.8</ele>
        <time>2023-02-05T12:34:48Z</time>
      </trkpt>
      <trkpt lat="44.13589" lon="7.23588">
        <ele>2025.6</ele>
        <time>2023-02-05T12:34:49Z</time>
      </trkpt>
      <trkpt lat="44.13588" lon="7.23588">
        <ele>2025.6</ele>
        <time>2023-02-05T12:34:50Z</time>
      </trkpt>
      <trkpt lat="44.13588" lon="7.2359">
        <ele>2025.6</ele>
        <time>2023-02-05T12:34:51Z</time>
      </trkpt>
      <trkpt lat="44.13588" lon="7.23591">
        <ele>2025.3</ele>
        <time>2023-02-05T12:34:52Z</time>
      </trkpt>
      <trkpt lat="44.13587" lon="7.23592">
        <ele>2025.1</ele>
        <time>2023-02-05T12:34:53Z</time>
      </trkpt>
      <trkpt lat="44.13586" lon="7.23593">
        <ele>2024.7</ele>
        <time>2023-02-05T12:34:54Z</time>
      </trkpt>
      <trkpt lat="44.13586" lon="7.23595">
        <ele>2024.4</ele>
        <time>2023-02-05T12:34:55Z</time>
      </trkpt>
      <trkpt lat="44.13587" lon="7.23597">
        <ele>2024.1</ele>
        <time>2023-02-05T12:34:56Z</time>
      </trkpt>
      <trkpt lat="44.13587" lon="7.23598">
        <ele>2023.8</ele>
        <time>2023-02-05T12:34:57Z</time>
      </trkpt>
      <trkpt lat="44.13589" lon="7.23599">
        <ele>2023.6</ele>
        <time>2023-02-05T12:34:58Z</time>
      </trkpt>
      <trkpt lat="44.13589" lon="7.236">
        <ele>2023.5</ele>
        <time>2023-02-05T12:34:59Z</time>
      </trkpt>
      <trkpt lat="44.13589" lon="7.23601">
        <ele>2023.2</ele>
        <time>2023-02-05T12:35:00Z</time>
      </trkpt>
      <trkpt lat="44.1359" lon="7.23602">
        <ele>2023</ele>
        <time>2023-02-05T12:35:01Z</time>
      </trkpt>
      <trkpt lat="44.1359" lon="7.23603">
        <ele>2023</ele>
        <time>2023-02-05T12:35:02Z</time>
      </trkpt>
      <trkpt lat="44.1359" lon="7.23604">
        <ele>2022.9</ele>
        <time>2023-02-05T12:35:03Z</time>
      </trkpt>
      <trkpt lat="44.13591" lon="7.23606">
        <ele>2022.9</ele>
        <time>2023-02-05T12:35:04Z</time>
      </trkpt>
      <trkpt lat="44.13591" lon="7.23608">
        <ele>2022.7</ele>
        <time>2023-02-05T12:35:05Z</time>
      </trkpt>
      <trkpt lat="44.1359" lon="7.23608">
        <ele>2022.2</ele>
        <time>2023-02-05T12:35:06Z</time>
      </trkpt>
      <trkpt lat="44.1359" lon="7.23609">
        <ele>2022.1</ele>
        <time>2023-02-05T12:35:07Z</time>
      </trkpt>
      <trkpt lat="44.1359" lon="7.23611">
        <ele>2021.9</ele>
        <time>2023-02-05T12:35:08Z</time>
      </trkpt>
      <trkpt lat="44.1359" lon="7.23611">
        <ele>2021.7</ele>
        <time>2023-02-05T12:35:09Z</time>
      </trkpt>
      <trkpt lat="44.1359" lon="7.23611">
        <ele>2021.5</ele>
        <time>2023-02-05T12:35:10Z</time>
      </trkpt>
      <trkpt lat="44.13591" lon="7.23612">
        <ele>2021.5</ele>
        <time>2023-02-05T12:35:11Z</time>
      </trkpt>
      <trkpt lat="44.13592" lon="7.23613">
        <ele>2021.5</ele>
        <time>2023-02-05T12:35:12Z</time>
      </trkpt>
      <trkpt lat="44.13591" lon="7.23613">
        <ele>2021.5</ele>
        <time>2023-02-05T12:35:13Z</time>
      </trkpt>
      <trkpt lat="44.1359" lon="7.23613">
        <ele>2021.4</ele>
        <time>2023-02-05T12:35:14Z</time>
      </trkpt>
      <trkpt lat="44.13589" lon="7.23613">
        <ele>2021.3</ele>
        <time>2023-02-05T12:35:15Z</time>
      </trkpt>
      <trkpt lat="44.13588" lon="7.23613">
        <ele>2021.2</ele>
        <time>2023-02-05T12:35:16Z</time>
      </trkpt>
      <trkpt lat="44.13587" lon="7.23612">
        <ele>2021.1</ele>
        <time>2023-02-05T12:35:17Z</time>
      </trkpt>
      <trkpt lat="44.13586" lon="7.23612">
        <ele>2020.6</ele>
        <time>2023-02-05T12:35:18Z</time>
      </trkpt>
      <trkpt lat="44.13586" lon="7.23612">
        <ele>2020.2</ele>
        <time>2023-02-05T12:35:19Z</time>
      </trkpt>
      <trkpt lat="44.13584" lon="7.23611">
        <ele>2019.3</ele>
        <time>2023-02-05T12:35:20Z</time>
      </trkpt>
      <trkpt lat="44.13583" lon="7.23612">
        <ele>2019.3</ele>
        <time>2023-02-05T12:35:21Z</time>
      </trkpt>
      <trkpt lat="44.13583" lon="7.23613">
        <ele>2019.2</ele>
        <time>2023-02-05T12:35:22Z</time>
      </trkpt>
      <trkpt lat="44.13582" lon="7.23612">
        <ele>2019</ele>
        <time>2023-02-05T12:35:23Z</time>
      </trkpt>
      <trkpt lat="44.13583" lon="7.23614">
        <ele>2018.9</ele>
        <time>2023-02-05T12:35:24Z</time>
      </trkpt>
      <trkpt lat="44.13583" lon="7.23615">
        <ele>2019.5</ele>
        <time>2023-02-05T12:35:25Z</time>
      </trkpt>
      <trkpt lat="44.13583" lon="7.23615">
        <ele>2019.8</ele>
        <time>2023-02-05T12:35:26Z</time>
      </trkpt>
      <trkpt lat="44.13582" lon="7.23615">
        <ele>2020.1</ele>
        <time>2023-02-05T12:35:27Z</time>
      </trkpt>
      <trkpt lat="44.13582" lon="7.23616">
        <ele>2020.3</ele>
        <time>2023-02-05T12:35:28Z</time>
      </trkpt>
      <trkpt lat="44.13584" lon="7.23618">
        <ele>2020</ele>
        <time>2023-02-05T12:35:29Z</time>
      </trkpt>
      <trkpt lat="44.13587" lon="7.23621">
        <ele>2019.9</ele>
        <time>2023-02-05T12:35:30Z</time>
      </trkpt>
      <trkpt lat="44.13589" lon="7.23623">
        <ele>2019.8</ele>
        <time>2023-02-05T12:35:31Z</time>
      </trkpt>
      <trkpt lat="44.13591" lon="7.23627">
        <ele>2020.1</ele>
        <time>2023-02-05T12:35:32Z</time>
      </trkpt>
      <trkpt lat="44.13595" lon="7.23631">
        <ele>2020.4</ele>
        <time>2023-02-05T12:35:33Z</time>
      </trkpt>
      <trkpt lat="44.13593" lon="7.23631">
        <ele>2020.7</ele>
        <time>2023-02-05T12:35:34Z</time>
      </trkpt>
      <trkpt lat="44.13594" lon="7.23633">
        <ele>2020.5</ele>
        <time>2023-02-05T12:35:35Z</time>
      </trkpt>
      <trkpt lat="44.13593" lon="7.23633">
        <ele>2020.5</ele>
        <time>2023-02-05T12:35:36Z</time>
      </trkpt>
      <trkpt lat="44.13591" lon="7.23632">
        <ele>2020.6</ele>
        <time>2023-02-05T12:35:37Z</time>
      </trkpt>
      <trkpt lat="44.13589" lon="7.23632">
        <ele>2020.5</ele>
        <time>2023-02-05T12:35:38Z</time>
      </trkpt>
      <trkpt lat="44.13587" lon="7.23631">
        <ele>2018.2</ele>
        <time>2023-02-05T12:35:39Z</time>
      </trkpt>
      <trkpt lat="44.13585" lon="7.23631">
        <ele>2018</ele>
        <time>2023-02-05T12:35:40Z</time>
      </trkpt>
      <trkpt lat="44.13584" lon="7.23631">
        <ele>2017.8</ele>
        <time>2023-02-05T12:35:41Z</time>
      </trkpt>
      <trkpt lat="44.13584" lon="7.23633">
        <ele>2018.9</ele>
        <time>2023-02-05T12:35:42Z</time>
      </trkpt>
      <trkpt lat="44.13583" lon="7.23634">
        <ele>2019.5</ele>
        <time>2023-02-05T12:35:43Z</time>
      </trkpt>
      <trkpt lat="44.13582" lon="7.23634">
        <ele>2020</ele>
        <time>2023-02-05T12:35:44Z</time>
      </trkpt>
      <trkpt lat="44.13582" lon="7.23635">
        <ele>2019.8</ele>
        <time>2023-02-05T12:35:45Z</time>
      </trkpt>
      <trkpt lat="44.13581" lon="7.23636">
        <ele>2019.6</ele>
        <time>2023-02-05T12:35:46Z</time>
      </trkpt>
      <trkpt lat="44.13581" lon="7.23637">
        <ele>2019.7</ele>
        <time>2023-02-05T12:35:47Z</time>
      </trkpt>
      <trkpt lat="44.1358" lon="7.23637">
        <ele>2019.8</ele>
        <time>2023-02-05T12:35:48Z</time>
      </trkpt>
      <trkpt lat="44.13579" lon="7.23638">
        <ele>2019.9</ele>
        <time>2023-02-05T12:35:49Z</time>
      </trkpt>
      <trkpt lat="44.13579" lon="7.23638">
        <ele>2020</ele>
        <time>2023-02-05T12:35:50Z</time>
      </trkpt>
      <trkpt lat="44.13579" lon="7.23639">
        <ele>2019.5</ele>
        <time>2023-02-05T12:35:51Z</time>
      </trkpt>
      <trkpt lat="44.13578" lon="7.2364">
        <ele>2019.3</ele>
        <time>2023-02-05T12:35:52Z</time>
      </trkpt>
      <trkpt lat="44.13577" lon="7.23641">
        <ele>2019.4</ele>
        <time>2023-02-05T12:35:53Z</time>
      </trkpt>
      <trkpt lat="44.13577" lon="7.23641">
        <ele>2019.4</ele>
        <time>2023-02-05T12:35:54Z</time>
      </trkpt>
      <trkpt lat="44.13576" lon="7.23642">
        <ele>2019.4</ele>
        <time>2023-02-05T12:35:55Z</time>
      </trkpt>
      <trkpt lat="44.13581" lon="7.23645">
        <ele>2018.8</ele>
        <time>2023-02-05T12:35:56Z</time>
      </trkpt>
      <trkpt lat="44.13582" lon="7.23649">
        <ele>2018.8</ele>
        <time>2023-02-05T12:35:57Z</time>
      </trkpt>
      <trkpt lat="44.13581" lon="7.23651">
        <ele>2018.9</ele>
        <time>2023-02-05T12:35:58Z</time>
      </trkpt>
      <trkpt lat="44.1358" lon="7.23652">
        <ele>2018.9</ele>
        <time>2023-02-05T12:35:59Z</time>
      </trkpt>
      <trkpt lat="44.1358" lon="7.23654">
        <ele>2018.7</ele>
        <time>2023-02-05T12:36:00Z</time>
      </trkpt>
      <trkpt lat="44.13577" lon="7.23655">
        <ele>2018.8</ele>
        <time>2023-02-05T12:36:01Z</time>
      </trkpt>
      <trkpt lat="44.13575" lon="7.23656">
        <ele>2019</ele>
        <time>2023-02-05T12:36:02Z</time>
      </trkpt>
      <trkpt lat="44.13574" lon="7.23656">
        <ele>2019</ele>
        <time>2023-02-05T12:36:03Z</time>
      </trkpt>
      <trkpt lat="44.13573" lon="7.23658">
        <ele>2018.9</ele>
        <time>2023-02-05T12:36:04Z</time>
      </trkpt>
      <trkpt lat="44.13571" lon="7.23658">
        <ele>2018.1</ele>
        <time>2023-02-05T12:36:05Z</time>
      </trkpt>
      <trkpt lat="44.13569" lon="7.23659">
        <ele>2018.2</ele>
        <time>2023-02-05T12:36:06Z</time>
      </trkpt>
      <trkpt lat="44.13568" lon="7.2366">
        <ele>2018.2</ele>
        <time>2023-02-05T12:36:07Z</time>
      </trkpt>
      <trkpt lat="44.13565" lon="7.2366">
        <ele>2018.3</ele>
        <time>2023-02-05T12:36:08Z</time>
      </trkpt>
      <trkpt lat="44.13564" lon="7.2366">
        <ele>2018.4</ele>
        <time>2023-02-05T12:36:09Z</time>
      </trkpt>
      <trkpt lat="44.13563" lon="7.23661">
        <ele>2018.6</ele>
        <time>2023-02-05T12:36:10Z</time>
      </trkpt>
      <trkpt lat="44.13561" lon="7.23661">
        <ele>2018.6</ele>
        <time>2023-02-05T12:36:11Z</time>
      </trkpt>
      <trkpt lat="44.1356" lon="7.23662">
        <ele>2018.5</ele>
        <time>2023-02-05T12:36:12Z</time>
      </trkpt>
      <trkpt lat="44.13559" lon="7.23662">
        <ele>2018.4</ele>
        <time>2023-02-05T12:36:13Z</time>
      </trkpt>
      <trkpt lat="44.13556" lon="7.23663">
        <ele>2018.3</ele>
        <time>2023-02-05T12:36:14Z</time>
      </trkpt>
      <trkpt lat="44.13555" lon="7.23663">
        <ele>2017.9</ele>
        <time>2023-02-05T12:36:15Z</time>
      </trkpt>
      <trkpt lat="44.13555" lon="7.23664">
        <ele>2018.2</ele>
        <time>2023-02-05T12:36:16Z</time>
      </trkpt>
      <trkpt lat="44.13553" lon="7.23665">
        <ele>2018.2</ele>
        <time>2023-02-05T12:36:17Z</time>
      </trkpt>
      <trkpt lat="44.13552" lon="7.23665">
        <ele>2018.2</ele>
        <time>2023-02-05T12:36:18Z</time>
      </trkpt>
      <trkpt lat="44.1355" lon="7.23666">
        <ele>2018.1</ele>
        <time>2023-02-05T12:36:19Z</time>
      </trkpt>
      <trkpt lat="44.13548" lon="7.23666">
        <ele>2017.8</ele>
        <time>2023-02-05T12:36:20Z</time>
      </trkpt>
      <trkpt lat="44.13548" lon="7.23667">
        <ele>2017.7</ele>
        <time>2023-02-05T12:36:21Z</time>
      </trkpt>
      <trkpt lat="44.13548" lon="7.23669">
        <ele>2017.4</ele>
        <time>2023-02-05T12:36:22Z</time>
      </trkpt>
      <trkpt lat="44.13547" lon="7.2367">
        <ele>2017</ele>
        <time>2023-02-05T12:36:23Z</time>
      </trkpt>
      <trkpt lat="44.13544" lon="7.2367">
        <ele>2017</ele>
        <time>2023-02-05T12:36:24Z</time>
      </trkpt>
      <trkpt lat="44.13542" lon="7.23671">
        <ele>2017</ele>
        <time>2023-02-05T12:36:25Z</time>
      </trkpt>
      <trkpt lat="44.13541" lon="7.23672">
        <ele>2017.2</ele>
        <time>2023-02-05T12:36:26Z</time>
      </trkpt>
      <trkpt lat="44.13542" lon="7.23673">
        <ele>2017.2</ele>
        <time>2023-02-05T12:36:27Z</time>
      </trkpt>
      <trkpt lat="44.13543" lon="7.23676">
        <ele>2017.1</ele>
        <time>2023-02-05T12:36:28Z</time>
      </trkpt>
      <trkpt lat="44.13543" lon="7.23677">
        <ele>2016.9</ele>
        <time>2023-02-05T12:36:29Z</time>
      </trkpt>
      <trkpt lat="44.13541" lon="7.23678">
        <ele>2017</ele>
        <time>2023-02-05T12:36:30Z</time>
      </trkpt>
      <trkpt lat="44.13541" lon="7.2368">
        <ele>2017.4</ele>
        <time>2023-02-05T12:36:31Z</time>
      </trkpt>
      <trkpt lat="44.1354" lon="7.23681">
        <ele>2017.2</ele>
        <time>2023-02-05T12:36:32Z</time>
      </trkpt>
      <trkpt lat="44.13539" lon="7.23682">
        <ele>2016.9</ele>
        <time>2023-02-05T12:36:33Z</time>
      </trkpt>
      <trkpt lat="44.13539" lon="7.23683">
        <ele>2017</ele>
        <time>2023-02-05T12:36:34Z</time>
      </trkpt>
      <trkpt lat="44.13539" lon="7.23684">
        <ele>2016</ele>
        <time>2023-02-05T12:36:35Z</time>
      </trkpt>
      <trkpt lat="44.13537" lon="7.23685">
        <ele>2016.1</ele>
        <time>2023-02-05T12:36:36Z</time>
      </trkpt>
      <trkpt lat="44.13535" lon="7.23686">
        <ele>2015.9</ele>
        <time>2023-02-05T12:36:37Z</time>
      </trkpt>
      <trkpt lat="44.13532" lon="7.23686">
        <ele>2015.6</ele>
        <time>2023-02-05T12:36:38Z</time>
      </trkpt>
      <trkpt lat="44.13531" lon="7.23686">
        <ele>2015.4</ele>
        <time>2023-02-05T12:36:39Z</time>
      </trkpt>
      <trkpt lat="44.13532" lon="7.23688">
        <ele>2015.3</ele>
        <time>2023-02-05T12:36:40Z</time>
      </trkpt>
      <trkpt lat="44.1353" lon="7.23689">
        <ele>2015.3</ele>
        <time>2023-02-05T12:36:41Z</time>
      </trkpt>
      <trkpt lat="44.13531" lon="7.2369">
        <ele>2015.7</ele>
        <time>2023-02-05T12:36:42Z</time>
      </trkpt>
      <trkpt lat="44.13529" lon="7.23691">
        <ele>2015.9</ele>
        <time>2023-02-05T12:36:43Z</time>
      </trkpt>
      <trkpt lat="44.13528" lon="7.23692">
        <ele>2015.6</ele>
        <time>2023-02-05T12:36:44Z</time>
      </trkpt>
      <trkpt lat="44.13528" lon="7.23693">
        <ele>2015.7</ele>
        <time>2023-02-05T12:36:45Z</time>
      </trkpt>
      <trkpt lat="44.13528" lon="7.23694">
        <ele>2015.5</ele>
        <time>2023-02-05T12:36:46Z</time>
      </trkpt>
      <trkpt lat="44.13527" lon="7.23695">
        <ele>2015.5</ele>
        <time>2023-02-05T12:36:47Z</time>
      </trkpt>
      <trkpt lat="44.13525" lon="7.23695">
        <ele>2015.2</ele>
        <time>2023-02-05T12:36:48Z</time>
      </trkpt>
      <trkpt lat="44.13524" lon="7.23696">
        <ele>2015.2</ele>
        <time>2023-02-05T12:36:49Z</time>
      </trkpt>
      <trkpt lat="44.13523" lon="7.23697">
        <ele>2015.1</ele>
        <time>2023-02-05T12:36:50Z</time>
      </trkpt>
      <trkpt lat="44.13524" lon="7.23698">
        <ele>2015</ele>
        <time>2023-02-05T12:36:51Z</time>
      </trkpt>
      <trkpt lat="44.13524" lon="7.237">
        <ele>2014.5</ele>
        <time>2023-02-05T12:36:52Z</time>
      </trkpt>
      <trkpt lat="44.13523" lon="7.237">
        <ele>2014.1</ele>
        <time>2023-02-05T12:36:53Z</time>
      </trkpt>
      <trkpt lat="44.13521" lon="7.23701">
        <ele>2013.8</ele>
        <time>2023-02-05T12:36:54Z</time>
      </trkpt>
      <trkpt lat="44.13522" lon="7.23702">
        <ele>2013.9</ele>
        <time>2023-02-05T12:36:55Z</time>
      </trkpt>
      <trkpt lat="44.13522" lon="7.23703">
        <ele>2013.9</ele>
        <time>2023-02-05T12:36:56Z</time>
      </trkpt>
      <trkpt lat="44.13522" lon="7.23705">
        <ele>2013.9</ele>
        <time>2023-02-05T12:36:57Z</time>
      </trkpt>
      <trkpt lat="44.13522" lon="7.23706">
        <ele>2014.2</ele>
        <time>2023-02-05T12:36:58Z</time>
      </trkpt>
      <trkpt lat="44.13521" lon="7.23706">
        <ele>2014.5</ele>
        <time>2023-02-05T12:36:59Z</time>
      </trkpt>
      <trkpt lat="44.1352" lon="7.23707">
        <ele>2014.3</ele>
        <time>2023-02-05T12:37:00Z</time>
      </trkpt>
      <trkpt lat="44.1352" lon="7.23709">
        <ele>2014.1</ele>
        <time>2023-02-05T12:37:01Z</time>
      </trkpt>
      <trkpt lat="44.13519" lon="7.2371">
        <ele>2013.9</ele>
        <time>2023-02-05T12:37:02Z</time>
      </trkpt>
      <trkpt lat="44.13519" lon="7.23711">
        <ele>2013.5</ele>
        <time>2023-02-05T12:37:03Z</time>
      </trkpt>
      <trkpt lat="44.13518" lon="7.23712">
        <ele>2013.3</ele>
        <time>2023-02-05T12:37:04Z</time>
      </trkpt>
      <trkpt lat="44.13517" lon="7.23712">
        <ele>2013.2</ele>
        <time>2023-02-05T12:37:05Z</time>
      </trkpt>
      <trkpt lat="44.13515" lon="7.23713">
        <ele>2013.1</ele>
        <time>2023-02-05T12:37:06Z</time>
      </trkpt>
      <trkpt lat="44.13515" lon="7.23715">
        <ele>2013.4</ele>
        <time>2023-02-05T12:37:07Z</time>
      </trkpt>
      <trkpt lat="44.13516" lon="7.23716">
        <ele>2013.3</ele>
        <time>2023-02-05T12:37:08Z</time>
      </trkpt>
      <trkpt lat="44.13516" lon="7.23717">
        <ele>2013.1</ele>
        <time>2023-02-05T12:37:09Z</time>
      </trkpt>
      <trkpt lat="44.13515" lon="7.23717">
        <ele>2012.8</ele>
        <time>2023-02-05T12:37:10Z</time>
      </trkpt>
      <trkpt lat="44.13515" lon="7.23719">
        <ele>2013</ele>
        <time>2023-02-05T12:37:11Z</time>
      </trkpt>
      <trkpt lat="44.13515" lon="7.2372">
        <ele>2012.9</ele>
        <time>2023-02-05T12:37:12Z</time>
      </trkpt>
      <trkpt lat="44.13515" lon="7.23721">
        <ele>2012.9</ele>
        <time>2023-02-05T12:37:13Z</time>
      </trkpt>
      <trkpt lat="44.13516" lon="7.23723">
        <ele>2013</ele>
        <time>2023-02-05T12:37:14Z</time>
      </trkpt>
      <trkpt lat="44.13514" lon="7.23724">
        <ele>2013.1</ele>
        <time>2023-02-05T12:37:15Z</time>
      </trkpt>
      <trkpt lat="44.13515" lon="7.23727">
        <ele>2012.9</ele>
        <time>2023-02-05T12:37:16Z</time>
      </trkpt>
      <trkpt lat="44.13512" lon="7.23728">
        <ele>2011.8</ele>
        <time>2023-02-05T12:37:17Z</time>
      </trkpt>
      <trkpt lat="44.13512" lon="7.2373">
        <ele>2012</ele>
        <time>2023-02-05T12:37:18Z</time>
      </trkpt>
      <trkpt lat="44.13512" lon="7.23731">
        <ele>2012</ele>
        <time>2023-02-05T12:37:19Z</time>
      </trkpt>
      <trkpt lat="44.13512" lon="7.23733">
        <ele>2012.3</ele>
        <time>2023-02-05T12:37:20Z</time>
      </trkpt>
      <trkpt lat="44.13512" lon="7.23734">
        <ele>2012.3</ele>
        <time>2023-02-05T12:37:21Z</time>
      </trkpt>
      <trkpt lat="44.13511" lon="7.23736">
        <ele>2012.3</ele>
        <time>2023-02-05T12:37:22Z</time>
      </trkpt>
      <trkpt lat="44.13511" lon="7.23738">
        <ele>2012.5</ele>
        <time>2023-02-05T12:37:23Z</time>
      </trkpt>
      <trkpt lat="44.13511" lon="7.2374">
        <ele>2012.3</ele>
        <time>2023-02-05T12:37:24Z</time>
      </trkpt>
      <trkpt lat="44.1351" lon="7.2374">
        <ele>2012.2</ele>
        <time>2023-02-05T12:37:25Z</time>
      </trkpt>
      <trkpt lat="44.13509" lon="7.23742">
        <ele>2012.1</ele>
        <time>2023-02-05T12:37:26Z</time>
      </trkpt>
      <trkpt lat="44.13509" lon="7.23744">
        <ele>2012</ele>
        <time>2023-02-05T12:37:27Z</time>
      </trkpt>
      <trkpt lat="44.13509" lon="7.23745">
        <ele>2012</ele>
        <time>2023-02-05T12:37:28Z</time>
      </trkpt>
      <trkpt lat="44.1351" lon="7.23747">
        <ele>2011.8</ele>
        <time>2023-02-05T12:37:29Z</time>
      </trkpt>
      <trkpt lat="44.1351" lon="7.23749">
        <ele>2011.9</ele>
        <time>2023-02-05T12:37:30Z</time>
      </trkpt>
      <trkpt lat="44.1351" lon="7.2375">
        <ele>2011.7</ele>
        <time>2023-02-05T12:37:31Z</time>
      </trkpt>
      <trkpt lat="44.13509" lon="7.23751">
        <ele>2011.5</ele>
        <time>2023-02-05T12:37:32Z</time>
      </trkpt>
      <trkpt lat="44.13511" lon="7.23753">
        <ele>2011.3</ele>
        <time>2023-02-05T12:37:33Z</time>
      </trkpt>
      <trkpt lat="44.13512" lon="7.23755">
        <ele>2011.1</ele>
        <time>2023-02-05T12:37:34Z</time>
      </trkpt>
      <trkpt lat="44.1351" lon="7.23755">
        <ele>2010.9</ele>
        <time>2023-02-05T12:37:35Z</time>
      </trkpt>
      <trkpt lat="44.13508" lon="7.23755">
        <ele>2010.6</ele>
        <time>2023-02-05T12:37:36Z</time>
      </trkpt>
      <trkpt lat="44.13508" lon="7.23756">
        <ele>2009.7</ele>
        <time>2023-02-05T12:37:37Z</time>
      </trkpt>
      <trkpt lat="44.13508" lon="7.23757">
        <ele>2009.5</ele>
        <time>2023-02-05T12:37:38Z</time>
      </trkpt>
      <trkpt lat="44.13506" lon="7.23758">
        <ele>2009.7</ele>
        <time>2023-02-05T12:37:39Z</time>
      </trkpt>
      <trkpt lat="44.13506" lon="7.23759">
        <ele>2009.3</ele>
        <time>2023-02-05T12:37:40Z</time>
      </trkpt>
      <trkpt lat="44.13504" lon="7.2376">
        <ele>2009.6</ele>
        <time>2023-02-05T12:37:41Z</time>
      </trkpt>
      <trkpt lat="44.13504" lon="7.23762">
        <ele>2009.7</ele>
        <time>2023-02-05T12:37:42Z</time>
      </trkpt>
      <trkpt lat="44.13503" lon="7.23764">
        <ele>2009.5</ele>
        <time>2023-02-05T12:37:43Z</time>
      </trkpt>
      <trkpt lat="44.13504" lon="7.23765">
        <ele>2009.4</ele>
        <time>2023-02-05T12:37:44Z</time>
      </trkpt>
      <trkpt lat="44.13504" lon="7.23767">
        <ele>2009.1</ele>
        <time>2023-02-05T12:37:45Z</time>
      </trkpt>
      <trkpt lat="44.13503" lon="7.23767">
        <ele>2008.8</ele>
        <time>2023-02-05T12:37:46Z</time>
      </trkpt>
      <trkpt lat="44.13502" lon="7.23768">
        <ele>2008.6</ele>
        <time>2023-02-05T12:37:47Z</time>
      </trkpt>
      <trkpt lat="44.13502" lon="7.23769">
        <ele>2008.3</ele>
        <time>2023-02-05T12:37:48Z</time>
      </trkpt>
      <trkpt lat="44.13501" lon="7.2377">
        <ele>2008</ele>
        <time>2023-02-05T12:37:49Z</time>
      </trkpt>
      <trkpt lat="44.13501" lon="7.23771">
        <ele>2007.8</ele>
        <time>2023-02-05T12:37:50Z</time>
      </trkpt>
      <trkpt lat="44.135" lon="7.23772">
        <ele>2007.5</ele>
        <time>2023-02-05T12:37:51Z</time>
      </trkpt>
      <trkpt lat="44.135" lon="7.23774">
        <ele>2007.5</ele>
        <time>2023-02-05T12:37:52Z</time>
      </trkpt>
      <trkpt lat="44.13499" lon="7.23774">
        <ele>2007.5</ele>
        <time>2023-02-05T12:37:53Z</time>
      </trkpt>
      <trkpt lat="44.13499" lon="7.23775">
        <ele>2007.2</ele>
        <time>2023-02-05T12:37:54Z</time>
      </trkpt>
      <trkpt lat="44.13498" lon="7.23776">
        <ele>2007.2</ele>
        <time>2023-02-05T12:37:55Z</time>
      </trkpt>
      <trkpt lat="44.13498" lon="7.23777">
        <ele>2007</ele>
        <time>2023-02-05T12:37:56Z</time>
      </trkpt>
      <trkpt lat="44.13497" lon="7.23778">
        <ele>2007.2</ele>
        <time>2023-02-05T12:37:57Z</time>
      </trkpt>
      <trkpt lat="44.13497" lon="7.2378">
        <ele>2007.1</ele>
        <time>2023-02-05T12:37:58Z</time>
      </trkpt>
      <trkpt lat="44.13497" lon="7.23781">
        <ele>2006.7</ele>
        <time>2023-02-05T12:37:59Z</time>
      </trkpt>
      <trkpt lat="44.13499" lon="7.23783">
        <ele>2006.4</ele>
        <time>2023-02-05T12:38:00Z</time>
      </trkpt>
      <trkpt lat="44.13498" lon="7.23785">
        <ele>2006.4</ele>
        <time>2023-02-05T12:38:01Z</time>
      </trkpt>
      <trkpt lat="44.13497" lon="7.23786">
        <ele>2006.5</ele>
        <time>2023-02-05T12:38:02Z</time>
      </trkpt>
      <trkpt lat="44.13496" lon="7.23787">
        <ele>2006.5</ele>
        <time>2023-02-05T12:38:03Z</time>
      </trkpt>
      <trkpt lat="44.13496" lon="7.23789">
        <ele>2006.5</ele>
        <time>2023-02-05T12:38:04Z</time>
      </trkpt>
      <trkpt lat="44.13496" lon="7.23791">
        <ele>2006.4</ele>
        <time>2023-02-05T12:38:05Z</time>
      </trkpt>
      <trkpt lat="44.13496" lon="7.23793">
        <ele>2004.5</ele>
        <time>2023-02-05T12:38:06Z</time>
      </trkpt>
      <trkpt lat="44.13497" lon="7.23795">
        <ele>2004.4</ele>
        <time>2023-02-05T12:38:07Z</time>
      </trkpt>
      <trkpt lat="44.135" lon="7.23797">
        <ele>2004.4</ele>
        <time>2023-02-05T12:38:08Z</time>
      </trkpt>
      <trkpt lat="44.135" lon="7.23798">
        <ele>2004.7</ele>
        <time>2023-02-05T12:38:09Z</time>
      </trkpt>
      <trkpt lat="44.135" lon="7.238">
        <ele>2005.1</ele>
        <time>2023-02-05T12:38:10Z</time>
      </trkpt>
      <trkpt lat="44.13501" lon="7.23802">
        <ele>2005.2</ele>
        <time>2023-02-05T12:38:11Z</time>
      </trkpt>
      <trkpt lat="44.135" lon="7.23803">
        <ele>2005.2</ele>
        <time>2023-02-05T12:38:12Z</time>
      </trkpt>
      <trkpt lat="44.13499" lon="7.23804">
        <ele>2005.7</ele>
        <time>2023-02-05T12:38:13Z</time>
      </trkpt>
      <trkpt lat="44.13499" lon="7.23806">
        <ele>2005.5</ele>
        <time>2023-02-05T12:38:14Z</time>
      </trkpt>
      <trkpt lat="44.13499" lon="7.23807">
        <ele>2005.3</ele>
        <time>2023-02-05T12:38:15Z</time>
      </trkpt>
      <trkpt lat="44.13498" lon="7.23808">
        <ele>2005.2</ele>
        <time>2023-02-05T12:38:16Z</time>
      </trkpt>
      <trkpt lat="44.13496" lon="7.23809">
        <ele>2005.1</ele>
        <time>2023-02-05T12:38:17Z</time>
      </trkpt>
      <trkpt lat="44.13498" lon="7.23811">
        <ele>2005.2</ele>
        <time>2023-02-05T12:38:18Z</time>
      </trkpt>
      <trkpt lat="44.13497" lon="7.23813">
        <ele>2005.5</ele>
        <time>2023-02-05T12:38:19Z</time>
      </trkpt>
      <trkpt lat="44.13503" lon="7.23818">
        <ele>2005.3</ele>
        <time>2023-02-05T12:38:20Z</time>
      </trkpt>
      <trkpt lat="44.1351" lon="7.23822">
        <ele>2005.9</ele>
        <time>2023-02-05T12:38:21Z</time>
      </trkpt>
      <trkpt lat="44.13515" lon="7.23827">
        <ele>2004.9</ele>
        <time>2023-02-05T12:38:22Z</time>
      </trkpt>
      <trkpt lat="44.1352" lon="7.23831">
        <ele>2004.6</ele>
        <time>2023-02-05T12:38:23Z</time>
      </trkpt>
      <trkpt lat="44.13526" lon="7.23834">
        <ele>2004.7</ele>
        <time>2023-02-05T12:38:24Z</time>
      </trkpt>
      <trkpt lat="44.13527" lon="7.23835">
        <ele>2004.7</ele>
        <time>2023-02-05T12:38:25Z</time>
      </trkpt>
      <trkpt lat="44.13526" lon="7.23835">
        <ele>2004.6</ele>
        <time>2023-02-05T12:38:26Z</time>
      </trkpt>
      <trkpt lat="44.13526" lon="7.23836">
        <ele>2004.5</ele>
        <time>2023-02-05T12:38:27Z</time>
      </trkpt>
      <trkpt lat="44.13525" lon="7.23836">
        <ele>2004.5</ele>
        <time>2023-02-05T12:38:28Z</time>
      </trkpt>
      <trkpt lat="44.13523" lon="7.23836">
        <ele>2004.4</ele>
        <time>2023-02-05T12:38:29Z</time>
      </trkpt>
      <trkpt lat="44.13521" lon="7.23836">
        <ele>2004.7</ele>
        <time>2023-02-05T12:38:30Z</time>
      </trkpt>
      <trkpt lat="44.13517" lon="7.23836">
        <ele>2004.6</ele>
        <time>2023-02-05T12:38:31Z</time>
      </trkpt>
      <trkpt lat="44.13516" lon="7.23836">
        <ele>2004.3</ele>
        <time>2023-02-05T12:38:32Z</time>
      </trkpt>
      <trkpt lat="44.13514" lon="7.23836">
        <ele>2004.4</ele>
        <time>2023-02-05T12:38:33Z</time>
      </trkpt>
      <trkpt lat="44.13513" lon="7.23837">
        <ele>2004.2</ele>
        <time>2023-02-05T12:38:34Z</time>
      </trkpt>
      <trkpt lat="44.13513" lon="7.23838">
        <ele>2003.7</ele>
        <time>2023-02-05T12:38:35Z</time>
      </trkpt>
      <trkpt lat="44.13514" lon="7.2384">
        <ele>2003.6</ele>
        <time>2023-02-05T12:38:36Z</time>
      </trkpt>
      <trkpt lat="44.13513" lon="7.23841">
        <ele>2003.9</ele>
        <time>2023-02-05T12:38:37Z</time>
      </trkpt>
      <trkpt lat="44.13512" lon="7.23841">
        <ele>2003.4</ele>
        <time>2023-02-05T12:38:38Z</time>
      </trkpt>
      <trkpt lat="44.13512" lon="7.23842">
        <ele>2003.6</ele>
        <time>2023-02-05T12:38:39Z</time>
      </trkpt>
      <trkpt lat="44.13512" lon="7.23843">
        <ele>2003.6</ele>
        <time>2023-02-05T12:38:40Z</time>
      </trkpt>
      <trkpt lat="44.1351" lon="7.23844">
        <ele>2003.7</ele>
        <time>2023-02-05T12:38:41Z</time>
      </trkpt>
      <trkpt lat="44.1351" lon="7.23845">
        <ele>2003.6</ele>
        <time>2023-02-05T12:38:42Z</time>
      </trkpt>
      <trkpt lat="44.13508" lon="7.23845">
        <ele>2003.6</ele>
        <time>2023-02-05T12:38:43Z</time>
      </trkpt>
      <trkpt lat="44.13507" lon="7.23846">
        <ele>2003.8</ele>
        <time>2023-02-05T12:38:44Z</time>
      </trkpt>
      <trkpt lat="44.13506" lon="7.23846">
        <ele>2003.8</ele>
        <time>2023-02-05T12:38:45Z</time>
      </trkpt>
      <trkpt lat="44.13505" lon="7.23847">
        <ele>2003.5</ele>
        <time>2023-02-05T12:38:46Z</time>
      </trkpt>
      <trkpt lat="44.13501" lon="7.23845">
        <ele>2003.6</ele>
        <time>2023-02-05T12:38:47Z</time>
      </trkpt>
      <trkpt lat="44.13501" lon="7.23846">
        <ele>2003.4</ele>
        <time>2023-02-05T12:38:48Z</time>
      </trkpt>
      <trkpt lat="44.13501" lon="7.23848">
        <ele>2003.2</ele>
        <time>2023-02-05T12:38:49Z</time>
      </trkpt>
      <trkpt lat="44.13499" lon="7.23849">
        <ele>2003.6</ele>
        <time>2023-02-05T12:38:50Z</time>
      </trkpt>
      <trkpt lat="44.13499" lon="7.23849">
        <ele>2003.2</ele>
        <time>2023-02-05T12:38:51Z</time>
      </trkpt>
      <trkpt lat="44.13499" lon="7.23851">
        <ele>2003</ele>
        <time>2023-02-05T12:38:52Z</time>
      </trkpt>
      <trkpt lat="44.13498" lon="7.23852">
        <ele>2002.6</ele>
        <time>2023-02-05T12:38:53Z</time>
      </trkpt>
      <trkpt lat="44.13497" lon="7.23854">
        <ele>2002.7</ele>
        <time>2023-02-05T12:38:54Z</time>
      </trkpt>
      <trkpt lat="44.13496" lon="7.23855">
        <ele>2002.8</ele>
        <time>2023-02-05T12:38:55Z</time>
      </trkpt>
      <trkpt lat="44.13495" lon="7.23856">
        <ele>2002.5</ele>
        <time>2023-02-05T12:38:56Z</time>
      </trkpt>
      <trkpt lat="44.13494" lon="7.23858">
        <ele>2002.4</ele>
        <time>2023-02-05T12:38:57Z</time>
      </trkpt>
      <trkpt lat="44.13493" lon="7.23858">
        <ele>2002.3</ele>
        <time>2023-02-05T12:38:58Z</time>
      </trkpt>
      <trkpt lat="44.13491" lon="7.23859">
        <ele>2002.2</ele>
        <time>2023-02-05T12:38:59Z</time>
      </trkpt>
      <trkpt lat="44.13489" lon="7.2386">
        <ele>2001.9</ele>
        <time>2023-02-05T12:39:00Z</time>
      </trkpt>
      <trkpt lat="44.13487" lon="7.2386">
        <ele>2001.8</ele>
        <time>2023-02-05T12:39:01Z</time>
      </trkpt>
      <trkpt lat="44.13486" lon="7.23861">
        <ele>2001.3</ele>
        <time>2023-02-05T12:39:02Z</time>
      </trkpt>
      <trkpt lat="44.13485" lon="7.23861">
        <ele>2001</ele>
        <time>2023-02-05T12:39:03Z</time>
      </trkpt>
      <trkpt lat="44.13486" lon="7.23863">
        <ele>2000.8</ele>
        <time>2023-02-05T12:39:04Z</time>
      </trkpt>
      <trkpt lat="44.13485" lon="7.23864">
        <ele>2000.8</ele>
        <time>2023-02-05T12:39:05Z</time>
      </trkpt>
      <trkpt lat="44.13484" lon="7.23865">
        <ele>2000.8</ele>
        <time>2023-02-05T12:39:06Z</time>
      </trkpt>
      <trkpt lat="44.13484" lon="7.23866">
        <ele>2000.8</ele>
        <time>2023-02-05T12:39:07Z</time>
      </trkpt>
      <trkpt lat="44.13483" lon="7.23867">
        <ele>2000.6</ele>
        <time>2023-02-05T12:39:08Z</time>
      </trkpt>
      <trkpt lat="44.13482" lon="7.23868">
        <ele>2000.4</ele>
        <time>2023-02-05T12:39:09Z</time>
      </trkpt>
      <trkpt lat="44.13481" lon="7.23869">
        <ele>2000.5</ele>
        <time>2023-02-05T12:39:10Z</time>
      </trkpt>
      <trkpt lat="44.1348" lon="7.2387">
        <ele>2000.5</ele>
        <time>2023-02-05T12:39:11Z</time>
      </trkpt>
      <trkpt lat="44.1348" lon="7.23872">
        <ele>2000.5</ele>
        <time>2023-02-05T12:39:12Z</time>
      </trkpt>
      <trkpt lat="44.1348" lon="7.23872">
        <ele>2000.3</ele>
        <time>2023-02-05T12:39:13Z</time>
      </trkpt>
      <trkpt lat="44.13478" lon="7.23873">
        <ele>2000.2</ele>
        <time>2023-02-05T12:39:14Z</time>
      </trkpt>
      <trkpt lat="44.13479" lon="7.23874">
        <ele>1999.7</ele>
        <time>2023-02-05T12:39:15Z</time>
      </trkpt>
      <trkpt lat="44.13478" lon="7.23874">
        <ele>1999.5</ele>
        <time>2023-02-05T12:39:16Z</time>
      </trkpt>
      <trkpt lat="44.13479" lon="7.23876">
        <ele>1999</ele>
        <time>2023-02-05T12:39:17Z</time>
      </trkpt>
      <trkpt lat="44.13479" lon="7.23878">
        <ele>1999.2</ele>
        <time>2023-02-05T12:39:18Z</time>
      </trkpt>
      <trkpt lat="44.13478" lon="7.23877">
        <ele>1999.1</ele>
        <time>2023-02-05T12:39:19Z</time>
      </trkpt>
      <trkpt lat="44.13477" lon="7.23878">
        <ele>1999.4</ele>
        <time>2023-02-05T12:39:20Z</time>
      </trkpt>
      <trkpt lat="44.13477" lon="7.23879">
        <ele>1999.6</ele>
        <time>2023-02-05T12:39:21Z</time>
      </trkpt>
      <trkpt lat="44.13476" lon="7.23881">
        <ele>1999.1</ele>
        <time>2023-02-05T12:39:22Z</time>
      </trkpt>
      <trkpt lat="44.13475" lon="7.23881">
        <ele>1998.8</ele>
        <time>2023-02-05T12:39:23Z</time>
      </trkpt>
      <trkpt lat="44.13474" lon="7.23882">
        <ele>1998.6</ele>
        <time>2023-02-05T12:39:24Z</time>
      </trkpt>
      <trkpt lat="44.13472" lon="7.23883">
        <ele>1998.3</ele>
        <time>2023-02-05T12:39:25Z</time>
      </trkpt>
      <trkpt lat="44.1347" lon="7.23883">
        <ele>1998.2</ele>
        <time>2023-02-05T12:39:26Z</time>
      </trkpt>
      <trkpt lat="44.13471" lon="7.23885">
        <ele>1998.1</ele>
        <time>2023-02-05T12:39:27Z</time>
      </trkpt>
      <trkpt lat="44.13469" lon="7.23885">
        <ele>1997.8</ele>
        <time>2023-02-05T12:39:28Z</time>
      </trkpt>
      <trkpt lat="44.13468" lon="7.23886">
        <ele>1997.5</ele>
        <time>2023-02-05T12:39:29Z</time>
      </trkpt>
      <trkpt lat="44.13466" lon="7.23886">
        <ele>1997.5</ele>
        <time>2023-02-05T12:39:30Z</time>
      </trkpt>
      <trkpt lat="44.13464" lon="7.23886">
        <ele>1997.1</ele>
        <time>2023-02-05T12:39:31Z</time>
      </trkpt>
      <trkpt lat="44.13465" lon="7.23888">
        <ele>1996.7</ele>
        <time>2023-02-05T12:39:32Z</time>
      </trkpt>
      <trkpt lat="44.13464" lon="7.23889">
        <ele>1996.4</ele>
        <time>2023-02-05T12:39:33Z</time>
      </trkpt>
      <trkpt lat="44.13464" lon="7.23891">
        <ele>1996.3</ele>
        <time>2023-02-05T12:39:34Z</time>
      </trkpt>
      <trkpt lat="44.13465" lon="7.23892">
        <ele>1996.3</ele>
        <time>2023-02-05T12:39:35Z</time>
      </trkpt>
      <trkpt lat="44.13464" lon="7.23892">
        <ele>1996.3</ele>
        <time>2023-02-05T12:39:36Z</time>
      </trkpt>
      <trkpt lat="44.13462" lon="7.23893">
        <ele>1996.4</ele>
        <time>2023-02-05T12:39:37Z</time>
      </trkpt>
      <trkpt lat="44.1346" lon="7.23893">
        <ele>1996.1</ele>
        <time>2023-02-05T12:39:38Z</time>
      </trkpt>
      <trkpt lat="44.1346" lon="7.23895">
        <ele>1996.1</ele>
        <time>2023-02-05T12:39:39Z</time>
      </trkpt>
      <trkpt lat="44.1346" lon="7.23897">
        <ele>1995.5</ele>
        <time>2023-02-05T12:39:40Z</time>
      </trkpt>
      <trkpt lat="44.13459" lon="7.23897">
        <ele>1995.4</ele>
        <time>2023-02-05T12:39:41Z</time>
      </trkpt>
      <trkpt lat="44.13458" lon="7.23899">
        <ele>1995.4</ele>
        <time>2023-02-05T12:39:42Z</time>
      </trkpt>
      <trkpt lat="44.13458" lon="7.239">
        <ele>1995.8</ele>
        <time>2023-02-05T12:39:43Z</time>
      </trkpt>
      <trkpt lat="44.13457" lon="7.23902">
        <ele>1995.9</ele>
        <time>2023-02-05T12:39:44Z</time>
      </trkpt>
      <trkpt lat="44.13457" lon="7.23904">
        <ele>1995.5</ele>
        <time>2023-02-05T12:39:45Z</time>
      </trkpt>
      <trkpt lat="44.13457" lon="7.23906">
        <ele>1995.3</ele>
        <time>2023-02-05T12:39:46Z</time>
      </trkpt>
      <trkpt lat="44.13457" lon="7.23907">
        <ele>1995.1</ele>
        <time>2023-02-05T12:39:47Z</time>
      </trkpt>
      <trkpt lat="44.13457" lon="7.23909">
        <ele>1995.1</ele>
        <time>2023-02-05T12:39:48Z</time>
      </trkpt>
      <trkpt lat="44.13457" lon="7.23911">
        <ele>1995</ele>
        <time>2023-02-05T12:39:49Z</time>
      </trkpt>
      <trkpt lat="44.13458" lon="7.23912">
        <ele>1994.9</ele>
        <time>2023-02-05T12:39:50Z</time>
      </trkpt>
      <trkpt lat="44.13458" lon="7.23914">
        <ele>1994.8</ele>
        <time>2023-02-05T12:39:51Z</time>
      </trkpt>
      <trkpt lat="44.13458" lon="7.23915">
        <ele>1994.1</ele>
        <time>2023-02-05T12:39:52Z</time>
      </trkpt>
      <trkpt lat="44.13458" lon="7.23915">
        <ele>1993.8</ele>
        <time>2023-02-05T12:39:53Z</time>
      </trkpt>
      <trkpt lat="44.13456" lon="7.23916">
        <ele>1994</ele>
        <time>2023-02-05T12:39:54Z</time>
      </trkpt>
      <trkpt lat="44.13456" lon="7.23917">
        <ele>1994.4</ele>
        <time>2023-02-05T12:39:55Z</time>
      </trkpt>
      <trkpt lat="44.13455" lon="7.23918">
        <ele>1994.6</ele>
        <time>2023-02-05T12:39:56Z</time>
      </trkpt>
      <trkpt lat="44.13455" lon="7.2392">
        <ele>1994.3</ele>
        <time>2023-02-05T12:39:57Z</time>
      </trkpt>
      <trkpt lat="44.13455" lon="7.23921">
        <ele>1994.4</ele>
        <time>2023-02-05T12:39:58Z</time>
      </trkpt>
      <trkpt lat="44.13455" lon="7.23922">
        <ele>1994.8</ele>
        <time>2023-02-05T12:39:59Z</time>
      </trkpt>
      <trkpt lat="44.13455" lon="7.23923">
        <ele>1994.7</ele>
        <time>2023-02-05T12:40:00Z</time>
      </trkpt>
      <trkpt lat="44.13455" lon="7.23927">
        <ele>1994.7</ele>
        <time>2023-02-05T12:40:01Z</time>
      </trkpt>
      <trkpt lat="44.13453" lon="7.23928">
        <ele>1994.6</ele>
        <time>2023-02-05T12:40:02Z</time>
      </trkpt>
      <trkpt lat="44.13454" lon="7.2393">
        <ele>1994.1</ele>
        <time>2023-02-05T12:40:03Z</time>
      </trkpt>
      <trkpt lat="44.13453" lon="7.23931">
        <ele>1993.8</ele>
        <time>2023-02-05T12:40:04Z</time>
      </trkpt>
      <trkpt lat="44.13452" lon="7.23931">
        <ele>1993.7</ele>
        <time>2023-02-05T12:40:05Z</time>
      </trkpt>
      <trkpt lat="44.13453" lon="7.23932">
        <ele>1993.6</ele>
        <time>2023-02-05T12:40:06Z</time>
      </trkpt>
      <trkpt lat="44.13454" lon="7.23934">
        <ele>1994</ele>
        <time>2023-02-05T12:40:07Z</time>
      </trkpt>
      <trkpt lat="44.13455" lon="7.23935">
        <ele>1994</ele>
        <time>2023-02-05T12:40:08Z</time>
      </trkpt>
      <trkpt lat="44.13454" lon="7.23937">
        <ele>1994</ele>
        <time>2023-02-05T12:40:09Z</time>
      </trkpt>
      <trkpt lat="44.13452" lon="7.23938">
        <ele>1994</ele>
        <time>2023-02-05T12:40:10Z</time>
      </trkpt>
      <trkpt lat="44.13452" lon="7.2394">
        <ele>1994</ele>
        <time>2023-02-05T12:40:11Z</time>
      </trkpt>
      <trkpt lat="44.13453" lon="7.23942">
        <ele>1994.1</ele>
        <time>2023-02-05T12:40:12Z</time>
      </trkpt>
      <trkpt lat="44.13452" lon="7.23944">
        <ele>1993.7</ele>
        <time>2023-02-05T12:40:13Z</time>
      </trkpt>
      <trkpt lat="44.13452" lon="7.23945">
        <ele>1993.5</ele>
        <time>2023-02-05T12:40:14Z</time>
      </trkpt>
      <trkpt lat="44.13451" lon="7.23946">
        <ele>1993.3</ele>
        <time>2023-02-05T12:40:15Z</time>
      </trkpt>
      <trkpt lat="44.13452" lon="7.23948">
        <ele>1992.3</ele>
        <time>2023-02-05T12:40:16Z</time>
      </trkpt>
      <trkpt lat="44.13451" lon="7.23948">
        <ele>1992.3</ele>
        <time>2023-02-05T12:40:17Z</time>
      </trkpt>
      <trkpt lat="44.13451" lon="7.23949">
        <ele>1992.4</ele>
        <time>2023-02-05T12:40:18Z</time>
      </trkpt>
      <trkpt lat="44.1345" lon="7.2395">
        <ele>1992.5</ele>
        <time>2023-02-05T12:40:19Z</time>
      </trkpt>
      <trkpt lat="44.13452" lon="7.23952">
        <ele>1992.7</ele>
        <time>2023-02-05T12:40:20Z</time>
      </trkpt>
      <trkpt lat="44.13452" lon="7.23954">
        <ele>1992.4</ele>
        <time>2023-02-05T12:40:21Z</time>
      </trkpt>
      <trkpt lat="44.13451" lon="7.23955">
        <ele>1992.2</ele>
        <time>2023-02-05T12:40:22Z</time>
      </trkpt>
      <trkpt lat="44.13449" lon="7.23956">
        <ele>1992.3</ele>
        <time>2023-02-05T12:40:23Z</time>
      </trkpt>
      <trkpt lat="44.13449" lon="7.23957">
        <ele>1992.5</ele>
        <time>2023-02-05T12:40:24Z</time>
      </trkpt>
      <trkpt lat="44.13449" lon="7.23959">
        <ele>1992.3</ele>
        <time>2023-02-05T12:40:25Z</time>
      </trkpt>
      <trkpt lat="44.13449" lon="7.2396">
        <ele>1992</ele>
        <time>2023-02-05T12:40:26Z</time>
      </trkpt>
      <trkpt lat="44.13449" lon="7.23961">
        <ele>1991.9</ele>
        <time>2023-02-05T12:40:27Z</time>
      </trkpt>
      <trkpt lat="44.13447" lon="7.23961">
        <ele>1991.8</ele>
        <time>2023-02-05T12:40:28Z</time>
      </trkpt>
      <trkpt lat="44.13446" lon="7.23962">
        <ele>1992.1</ele>
        <time>2023-02-05T12:40:29Z</time>
      </trkpt>
      <trkpt lat="44.13443" lon="7.23962">
        <ele>1992.2</ele>
        <time>2023-02-05T12:40:30Z</time>
      </trkpt>
      <trkpt lat="44.13444" lon="7.23964">
        <ele>1992.1</ele>
        <time>2023-02-05T12:40:31Z</time>
      </trkpt>
      <trkpt lat="44.13444" lon="7.23966">
        <ele>1991.9</ele>
        <time>2023-02-05T12:40:32Z</time>
      </trkpt>
      <trkpt lat="44.13441" lon="7.23966">
        <ele>1991.6</ele>
        <time>2023-02-05T12:40:33Z</time>
      </trkpt>
      <trkpt lat="44.13441" lon="7.23968">
        <ele>1991.6</ele>
        <time>2023-02-05T12:40:34Z</time>
      </trkpt>
      <trkpt lat="44.1344" lon="7.2397">
        <ele>1991.1</ele>
        <time>2023-02-05T12:40:35Z</time>
      </trkpt>
      <trkpt lat="44.13439" lon="7.23971">
        <ele>1991.1</ele>
        <time>2023-02-05T12:40:36Z</time>
      </trkpt>
      <trkpt lat="44.13437" lon="7.23972">
        <ele>1991.2</ele>
        <time>2023-02-05T12:40:37Z</time>
      </trkpt>
      <trkpt lat="44.13437" lon="7.23973">
        <ele>1991.2</ele>
        <time>2023-02-05T12:40:38Z</time>
      </trkpt>
      <trkpt lat="44.13439" lon="7.23976">
        <ele>1990.9</ele>
        <time>2023-02-05T12:40:39Z</time>
      </trkpt>
      <trkpt lat="44.13439" lon="7.23978">
        <ele>1990.5</ele>
        <time>2023-02-05T12:40:40Z</time>
      </trkpt>
      <trkpt lat="44.13437" lon="7.23979">
        <ele>1990.3</ele>
        <time>2023-02-05T12:40:41Z</time>
      </trkpt>
      <trkpt lat="44.13437" lon="7.23981">
        <ele>1990.6</ele>
        <time>2023-02-05T12:40:42Z</time>
      </trkpt>
      <trkpt lat="44.13438" lon="7.23983">
        <ele>1990.4</ele>
        <time>2023-02-05T12:40:43Z</time>
      </trkpt>
      <trkpt lat="44.13438" lon="7.23985">
        <ele>1990.2</ele>
        <time>2023-02-05T12:40:44Z</time>
      </trkpt>
      <trkpt lat="44.13439" lon="7.23988">
        <ele>1990.3</ele>
        <time>2023-02-05T12:40:45Z</time>
      </trkpt>
      <trkpt lat="44.1344" lon="7.2399">
        <ele>1990.4</ele>
        <time>2023-02-05T12:40:46Z</time>
      </trkpt>
      <trkpt lat="44.13442" lon="7.23992">
        <ele>1990.2</ele>
        <time>2023-02-05T12:40:47Z</time>
      </trkpt>
      <trkpt lat="44.13441" lon="7.23994">
        <ele>1990</ele>
        <time>2023-02-05T12:40:48Z</time>
      </trkpt>
      <trkpt lat="44.13439" lon="7.23994">
        <ele>1990.1</ele>
        <time>2023-02-05T12:40:49Z</time>
      </trkpt>
      <trkpt lat="44.13438" lon="7.23995">
        <ele>1990</ele>
        <time>2023-02-05T12:40:50Z</time>
      </trkpt>
      <trkpt lat="44.13437" lon="7.23997">
        <ele>1989.9</ele>
        <time>2023-02-05T12:40:51Z</time>
      </trkpt>
      <trkpt lat="44.13437" lon="7.23999">
        <ele>1989.7</ele>
        <time>2023-02-05T12:40:52Z</time>
      </trkpt>
      <trkpt lat="44.13437" lon="7.24001">
        <ele>1989.7</ele>
        <time>2023-02-05T12:40:53Z</time>
      </trkpt>
      <trkpt lat="44.13438" lon="7.24002">
        <ele>1989.6</ele>
        <time>2023-02-05T12:40:54Z</time>
      </trkpt>
      <trkpt lat="44.13438" lon="7.24004">
        <ele>1989.5</ele>
        <time>2023-02-05T12:40:55Z</time>
      </trkpt>
      <trkpt lat="44.13438" lon="7.24006">
        <ele>1989.7</ele>
        <time>2023-02-05T12:40:56Z</time>
      </trkpt>
      <trkpt lat="44.13437" lon="7.24007">
        <ele>1989.3</ele>
        <time>2023-02-05T12:40:57Z</time>
      </trkpt>
      <trkpt lat="44.13438" lon="7.24009">
        <ele>1989</ele>
        <time>2023-02-05T12:40:58Z</time>
      </trkpt>
      <trkpt lat="44.13438" lon="7.2401">
        <ele>1989.1</ele>
        <time>2023-02-05T12:40:59Z</time>
      </trkpt>
      <trkpt lat="44.13439" lon="7.24012">
        <ele>1988.5</ele>
        <time>2023-02-05T12:41:00Z</time>
      </trkpt>
      <trkpt lat="44.13439" lon="7.24013">
        <ele>1988.5</ele>
        <time>2023-02-05T12:41:01Z</time>
      </trkpt>
      <trkpt lat="44.13439" lon="7.24014">
        <ele>1988.3</ele>
        <time>2023-02-05T12:41:02Z</time>
      </trkpt>
      <trkpt lat="44.13439" lon="7.24015">
        <ele>1988.3</ele>
        <time>2023-02-05T12:41:03Z</time>
      </trkpt>
      <trkpt lat="44.13439" lon="7.24017">
        <ele>1988.3</ele>
        <time>2023-02-05T12:41:04Z</time>
      </trkpt>
      <trkpt lat="44.13437" lon="7.24017">
        <ele>1988</ele>
        <time>2023-02-05T12:41:05Z</time>
      </trkpt>
      <trkpt lat="44.13438" lon="7.24018">
        <ele>1987.8</ele>
        <time>2023-02-05T12:41:06Z</time>
      </trkpt>
      <trkpt lat="44.13438" lon="7.24019">
        <ele>1987.1</ele>
        <time>2023-02-05T12:41:07Z</time>
      </trkpt>
      <trkpt lat="44.13437" lon="7.24021">
        <ele>1987.3</ele>
        <time>2023-02-05T12:41:08Z</time>
      </trkpt>
      <trkpt lat="44.13435" lon="7.24021">
        <ele>1987.4</ele>
        <time>2023-02-05T12:41:09Z</time>
      </trkpt>
      <trkpt lat="44.13434" lon="7.24021">
        <ele>1987.5</ele>
        <time>2023-02-05T12:41:10Z</time>
      </trkpt>
      <trkpt lat="44.13432" lon="7.24021">
        <ele>1987.4</ele>
        <time>2023-02-05T12:41:11Z</time>
      </trkpt>
      <trkpt lat="44.13432" lon="7.24023">
        <ele>1987.1</ele>
        <time>2023-02-05T12:41:12Z</time>
      </trkpt>
      <trkpt lat="44.1343" lon="7.24022">
        <ele>1987.1</ele>
        <time>2023-02-05T12:41:13Z</time>
      </trkpt>
      <trkpt lat="44.13429" lon="7.24023">
        <ele>1986.5</ele>
        <time>2023-02-05T12:41:14Z</time>
      </trkpt>
      <trkpt lat="44.13429" lon="7.24024">
        <ele>1986.4</ele>
        <time>2023-02-05T12:41:15Z</time>
      </trkpt>
      <trkpt lat="44.1343" lon="7.24025">
        <ele>1986.5</ele>
        <time>2023-02-05T12:41:16Z</time>
      </trkpt>
      <trkpt lat="44.13431" lon="7.24027">
        <ele>1986.5</ele>
        <time>2023-02-05T12:41:17Z</time>
      </trkpt>
      <trkpt lat="44.13432" lon="7.2403">
        <ele>1986.8</ele>
        <time>2023-02-05T12:41:18Z</time>
      </trkpt>
      <trkpt lat="44.13432" lon="7.24031">
        <ele>1986.7</ele>
        <time>2023-02-05T12:41:19Z</time>
      </trkpt>
      <trkpt lat="44.13433" lon="7.24032">
        <ele>1986.7</ele>
        <time>2023-02-05T12:41:20Z</time>
      </trkpt>
      <trkpt lat="44.13432" lon="7.24033">
        <ele>1986.8</ele>
        <time>2023-02-05T12:41:21Z</time>
      </trkpt>
      <trkpt lat="44.13431" lon="7.24034">
        <ele>1986.7</ele>
        <time>2023-02-05T12:41:22Z</time>
      </trkpt>
      <trkpt lat="44.13431" lon="7.24036">
        <ele>1986.6</ele>
        <time>2023-02-05T12:41:23Z</time>
      </trkpt>
      <trkpt lat="44.13428" lon="7.24035">
        <ele>1986.5</ele>
        <time>2023-02-05T12:41:24Z</time>
      </trkpt>
      <trkpt lat="44.13428" lon="7.24037">
        <ele>1986.5</ele>
        <time>2023-02-05T12:41:25Z</time>
      </trkpt>
      <trkpt lat="44.13426" lon="7.24038">
        <ele>1986.7</ele>
        <time>2023-02-05T12:41:26Z</time>
      </trkpt>
      <trkpt lat="44.13427" lon="7.2404">
        <ele>1986.5</ele>
        <time>2023-02-05T12:41:27Z</time>
      </trkpt>
      <trkpt lat="44.13429" lon="7.24043">
        <ele>1986.5</ele>
        <time>2023-02-05T12:41:28Z</time>
      </trkpt>
      <trkpt lat="44.13429" lon="7.24044">
        <ele>1986.3</ele>
        <time>2023-02-05T12:41:29Z</time>
      </trkpt>
      <trkpt lat="44.13429" lon="7.24045">
        <ele>1986</ele>
        <time>2023-02-05T12:41:30Z</time>
      </trkpt>
      <trkpt lat="44.13429" lon="7.24047">
        <ele>1985.8</ele>
        <time>2023-02-05T12:41:31Z</time>
      </trkpt>
      <trkpt lat="44.1343" lon="7.24048">
        <ele>1985.7</ele>
        <time>2023-02-05T12:41:32Z</time>
      </trkpt>
      <trkpt lat="44.13431" lon="7.2405">
        <ele>1985.6</ele>
        <time>2023-02-05T12:41:33Z</time>
      </trkpt>
      <trkpt lat="44.1343" lon="7.24051">
        <ele>1985.3</ele>
        <time>2023-02-05T12:41:34Z</time>
      </trkpt>
      <trkpt lat="44.13431" lon="7.24053">
        <ele>1985.2</ele>
        <time>2023-02-05T12:41:35Z</time>
      </trkpt>
      <trkpt lat="44.1343" lon="7.24054">
        <ele>1984.8</ele>
        <time>2023-02-05T12:41:36Z</time>
      </trkpt>
      <trkpt lat="44.1343" lon="7.24056">
        <ele>1984.9</ele>
        <time>2023-02-05T12:41:37Z</time>
      </trkpt>
      <trkpt lat="44.1343" lon="7.24057">
        <ele>1984.7</ele>
        <time>2023-02-05T12:41:38Z</time>
      </trkpt>
      <trkpt lat="44.13428" lon="7.24058">
        <ele>1984.1</ele>
        <time>2023-02-05T12:41:39Z</time>
      </trkpt>
      <trkpt lat="44.13428" lon="7.24059">
        <ele>1984.2</ele>
        <time>2023-02-05T12:41:40Z</time>
      </trkpt>
      <trkpt lat="44.13428" lon="7.2406">
        <ele>1984.2</ele>
        <time>2023-02-05T12:41:41Z</time>
      </trkpt>
      <trkpt lat="44.13427" lon="7.24061">
        <ele>1984.4</ele>
        <time>2023-02-05T12:41:42Z</time>
      </trkpt>
      <trkpt lat="44.13427" lon="7.24062">
        <ele>1984.2</ele>
        <time>2023-02-05T12:41:43Z</time>
      </trkpt>
      <trkpt lat="44.13427" lon="7.24063">
        <ele>1984</ele>
        <time>2023-02-05T12:41:44Z</time>
      </trkpt>
      <trkpt lat="44.13425" lon="7.24064">
        <ele>1984.1</ele>
        <time>2023-02-05T12:41:45Z</time>
      </trkpt>
      <trkpt lat="44.13425" lon="7.24065">
        <ele>1984</ele>
        <time>2023-02-05T12:41:46Z</time>
      </trkpt>
      <trkpt lat="44.13425" lon="7.24066">
        <ele>1983.5</ele>
        <time>2023-02-05T12:41:47Z</time>
      </trkpt>
      <trkpt lat="44.13425" lon="7.24067">
        <ele>1983.2</ele>
        <time>2023-02-05T12:41:48Z</time>
      </trkpt>
      <trkpt lat="44.13425" lon="7.24068">
        <ele>1983</ele>
        <time>2023-02-05T12:41:49Z</time>
      </trkpt>
      <trkpt lat="44.13426" lon="7.2407">
        <ele>1983.1</ele>
        <time>2023-02-05T12:41:50Z</time>
      </trkpt>
      <trkpt lat="44.13426" lon="7.24071">
        <ele>1982.9</ele>
        <time>2023-02-05T12:41:51Z</time>
      </trkpt>
      <trkpt lat="44.13425" lon="7.24072">
        <ele>1983.3</ele>
        <time>2023-02-05T12:41:52Z</time>
      </trkpt>
      <trkpt lat="44.13425" lon="7.24074">
        <ele>1983</ele>
        <time>2023-02-05T12:41:53Z</time>
      </trkpt>
      <trkpt lat="44.13427" lon="7.24076">
        <ele>1982.5</ele>
        <time>2023-02-05T12:41:54Z</time>
      </trkpt>
      <trkpt lat="44.13426" lon="7.24078">
        <ele>1982.2</ele>
        <time>2023-02-05T12:41:55Z</time>
      </trkpt>
      <trkpt lat="44.13427" lon="7.24079">
        <ele>1981.9</ele>
        <time>2023-02-05T12:41:56Z</time>
      </trkpt>
      <trkpt lat="44.13426" lon="7.2408">
        <ele>1982</ele>
        <time>2023-02-05T12:41:57Z</time>
      </trkpt>
      <trkpt lat="44.13426" lon="7.24082">
        <ele>1981.9</ele>
        <time>2023-02-05T12:41:58Z</time>
      </trkpt>
      <trkpt lat="44.13425" lon="7.24082">
        <ele>1982</ele>
        <time>2023-02-05T12:41:59Z</time>
      </trkpt>
      <trkpt lat="44.13425" lon="7.24083">
        <ele>1981.8</ele>
        <time>2023-02-05T12:42:00Z</time>
      </trkpt>
      <trkpt lat="44.13424" lon="7.24083">
        <ele>1981.7</ele>
        <time>2023-02-05T12:42:01Z</time>
      </trkpt>
      <trkpt lat="44.13425" lon="7.24084">
        <ele>1981.5</ele>
        <time>2023-02-05T12:42:02Z</time>
      </trkpt>
      <trkpt lat="44.13424" lon="7.24084">
        <ele>1981.6</ele>
        <time>2023-02-05T12:42:03Z</time>
      </trkpt>
      <trkpt lat="44.13423" lon="7.24086">
        <ele>1981.7</ele>
        <time>2023-02-05T12:42:04Z</time>
      </trkpt>
      <trkpt lat="44.13422" lon="7.24086">
        <ele>1981.4</ele>
        <time>2023-02-05T12:42:05Z</time>
      </trkpt>
      <trkpt lat="44.1342" lon="7.24086">
        <ele>1981.2</ele>
        <time>2023-02-05T12:42:06Z</time>
      </trkpt>
      <trkpt lat="44.13419" lon="7.24087">
        <ele>1981</ele>
        <time>2023-02-05T12:42:07Z</time>
      </trkpt>
      <trkpt lat="44.13418" lon="7.24089">
        <ele>1980.8</ele>
        <time>2023-02-05T12:42:08Z</time>
      </trkpt>
      <trkpt lat="44.13418" lon="7.2409">
        <ele>1980.8</ele>
        <time>2023-02-05T12:42:09Z</time>
      </trkpt>
      <trkpt lat="44.13417" lon="7.24091">
        <ele>1980.7</ele>
        <time>2023-02-05T12:42:10Z</time>
      </trkpt>
      <trkpt lat="44.13419" lon="7.24094">
        <ele>1980.3</ele>
        <time>2023-02-05T12:42:11Z</time>
      </trkpt>
      <trkpt lat="44.13419" lon="7.24095">
        <ele>1980.4</ele>
        <time>2023-02-05T12:42:12Z</time>
      </trkpt>
      <trkpt lat="44.13418" lon="7.24096">
        <ele>1980</ele>
        <time>2023-02-05T12:42:13Z</time>
      </trkpt>
      <trkpt lat="44.13417" lon="7.24097">
        <ele>1979.8</ele>
        <time>2023-02-05T12:42:14Z</time>
      </trkpt>
      <trkpt lat="44.13415" lon="7.24099">
        <ele>1979.8</ele>
        <time>2023-02-05T12:42:15Z</time>
      </trkpt>
      <trkpt lat="44.13415" lon="7.241">
        <ele>1979.7</ele>
        <time>2023-02-05T12:42:16Z</time>
      </trkpt>
      <trkpt lat="44.13415" lon="7.24102">
        <ele>1979.5</ele>
        <time>2023-02-05T12:42:17Z</time>
      </trkpt>
      <trkpt lat="44.13416" lon="7.24103">
        <ele>1979.4</ele>
        <time>2023-02-05T12:42:18Z</time>
      </trkpt>
      <trkpt lat="44.13415" lon="7.24104">
        <ele>1979.2</ele>
        <time>2023-02-05T12:42:19Z</time>
      </trkpt>
      <trkpt lat="44.13416" lon="7.24107">
        <ele>1979.3</ele>
        <time>2023-02-05T12:42:20Z</time>
      </trkpt>
      <trkpt lat="44.13415" lon="7.24108">
        <ele>1979.2</ele>
        <time>2023-02-05T12:42:21Z</time>
      </trkpt>
      <trkpt lat="44.13415" lon="7.2411">
        <ele>1979.3</ele>
        <time>2023-02-05T12:42:22Z</time>
      </trkpt>
      <trkpt lat="44.13416" lon="7.24112">
        <ele>1979.1</ele>
        <time>2023-02-05T12:42:23Z</time>
      </trkpt>
      <trkpt lat="44.13416" lon="7.24114">
        <ele>1979.1</ele>
        <time>2023-02-05T12:42:24Z</time>
      </trkpt>
      <trkpt lat="44.13416" lon="7.24115">
        <ele>1978.9</ele>
        <time>2023-02-05T12:42:25Z</time>
      </trkpt>
      <trkpt lat="44.13416" lon="7.24116">
        <ele>1978.7</ele>
        <time>2023-02-05T12:42:26Z</time>
      </trkpt>
      <trkpt lat="44.13416" lon="7.24117">
        <ele>1978.6</ele>
        <time>2023-02-05T12:42:27Z</time>
      </trkpt>
      <trkpt lat="44.13415" lon="7.24118">
        <ele>1978.5</ele>
        <time>2023-02-05T12:42:28Z</time>
      </trkpt>
      <trkpt lat="44.13416" lon="7.2412">
        <ele>1978.5</ele>
        <time>2023-02-05T12:42:29Z</time>
      </trkpt>
      <trkpt lat="44.13416" lon="7.24121">
        <ele>1978.3</ele>
        <time>2023-02-05T12:42:30Z</time>
      </trkpt>
      <trkpt lat="44.13417" lon="7.24122">
        <ele>1978.3</ele>
        <time>2023-02-05T12:42:31Z</time>
      </trkpt>
      <trkpt lat="44.13416" lon="7.24122">
        <ele>1978.1</ele>
        <time>2023-02-05T12:42:32Z</time>
      </trkpt>
      <trkpt lat="44.13417" lon="7.24123">
        <ele>1977.9</ele>
        <time>2023-02-05T12:42:33Z</time>
      </trkpt>
      <trkpt lat="44.13416" lon="7.24124">
        <ele>1977.7</ele>
        <time>2023-02-05T12:42:34Z</time>
      </trkpt>
      <trkpt lat="44.13414" lon="7.24124">
        <ele>1977.7</ele>
        <time>2023-02-05T12:42:35Z</time>
      </trkpt>
      <trkpt lat="44.13413" lon="7.24124">
        <ele>1977.5</ele>
        <time>2023-02-05T12:42:36Z</time>
      </trkpt>
      <trkpt lat="44.13412" lon="7.24126">
        <ele>1977.3</ele>
        <time>2023-02-05T12:42:37Z</time>
      </trkpt>
      <trkpt lat="44.13412" lon="7.24127">
        <ele>1977.2</ele>
        <time>2023-02-05T12:42:38Z</time>
      </trkpt>
      <trkpt lat="44.13412" lon="7.24128">
        <ele>1977.2</ele>
        <time>2023-02-05T12:42:39Z</time>
      </trkpt>
      <trkpt lat="44.13412" lon="7.24129">
        <ele>1977.3</ele>
        <time>2023-02-05T12:42:40Z</time>
      </trkpt>
      <trkpt lat="44.13412" lon="7.24131">
        <ele>1976.8</ele>
        <time>2023-02-05T12:42:41Z</time>
      </trkpt>
      <trkpt lat="44.13413" lon="7.24133">
        <ele>1976.6</ele>
        <time>2023-02-05T12:42:42Z</time>
      </trkpt>
      <trkpt lat="44.13412" lon="7.24134">
        <ele>1976.2</ele>
        <time>2023-02-05T12:42:43Z</time>
      </trkpt>
      <trkpt lat="44.13411" lon="7.24136">
        <ele>1975.8</ele>
        <time>2023-02-05T12:42:44Z</time>
      </trkpt>
      <trkpt lat="44.13411" lon="7.24137">
        <ele>1975.9</ele>
        <time>2023-02-05T12:42:45Z</time>
      </trkpt>
      <trkpt lat="44.13411" lon="7.24138">
        <ele>1975.8</ele>
        <time>2023-02-05T12:42:46Z</time>
      </trkpt>
      <trkpt lat="44.1341" lon="7.24139">
        <ele>1975.9</ele>
        <time>2023-02-05T12:42:47Z</time>
      </trkpt>
      <trkpt lat="44.13407" lon="7.2414">
        <ele>1975.8</ele>
        <time>2023-02-05T12:42:48Z</time>
      </trkpt>
      <trkpt lat="44.13407" lon="7.24142">
        <ele>1976</ele>
        <time>2023-02-05T12:42:49Z</time>
      </trkpt>
      <trkpt lat="44.13407" lon="7.24143">
        <ele>1975.5</ele>
        <time>2023-02-05T12:42:50Z</time>
      </trkpt>
      <trkpt lat="44.13408" lon="7.24145">
        <ele>1975.2</ele>
        <time>2023-02-05T12:42:51Z</time>
      </trkpt>
      <trkpt lat="44.13408" lon="7.24147">
        <ele>1975</ele>
        <time>2023-02-05T12:42:52Z</time>
      </trkpt>
      <trkpt lat="44.13408" lon="7.24148">
        <ele>1974.8</ele>
        <time>2023-02-05T12:42:53Z</time>
      </trkpt>
      <trkpt lat="44.13407" lon="7.24149">
        <ele>1974.4</ele>
        <time>2023-02-05T12:42:54Z</time>
      </trkpt>
      <trkpt lat="44.13407" lon="7.2415">
        <ele>1974.4</ele>
        <time>2023-02-05T12:42:55Z</time>
      </trkpt>
      <trkpt lat="44.13406" lon="7.24151">
        <ele>1974.3</ele>
        <time>2023-02-05T12:42:56Z</time>
      </trkpt>
      <trkpt lat="44.13406" lon="7.24153">
        <ele>1974.8</ele>
        <time>2023-02-05T12:42:57Z</time>
      </trkpt>
      <trkpt lat="44.13405" lon="7.24154">
        <ele>1974.7</ele>
        <time>2023-02-05T12:42:58Z</time>
      </trkpt>
      <trkpt lat="44.13404" lon="7.24155">
        <ele>1974.4</ele>
        <time>2023-02-05T12:42:59Z</time>
      </trkpt>
      <trkpt lat="44.13404" lon="7.24156">
        <ele>1974.1</ele>
        <time>2023-02-05T12:43:00Z</time>
      </trkpt>
      <trkpt lat="44.13402" lon="7.24157">
        <ele>1974</ele>
        <time>2023-02-05T12:43:01Z</time>
      </trkpt>
      <trkpt lat="44.13401" lon="7.24158">
        <ele>1973.7</ele>
        <time>2023-02-05T12:43:02Z</time>
      </trkpt>
      <trkpt lat="44.134" lon="7.2416">
        <ele>1973.7</ele>
        <time>2023-02-05T12:43:03Z</time>
      </trkpt>
      <trkpt lat="44.13395" lon="7.24158">
        <ele>1973.6</ele>
        <time>2023-02-05T12:43:04Z</time>
      </trkpt>
      <trkpt lat="44.1339" lon="7.24156">
        <ele>1973.8</ele>
        <time>2023-02-05T12:43:05Z</time>
      </trkpt>
      <trkpt lat="44.13385" lon="7.24155">
        <ele>1973.6</ele>
        <time>2023-02-05T12:43:06Z</time>
      </trkpt>
      <trkpt lat="44.13385" lon="7.24156">
        <ele>1973.1</ele>
        <time>2023-02-05T12:43:07Z</time>
      </trkpt>
      <trkpt lat="44.13383" lon="7.24157">
        <ele>1973.1</ele>
        <time>2023-02-05T12:43:08Z</time>
      </trkpt>
      <trkpt lat="44.1338" lon="7.24157">
        <ele>1972.6</ele>
        <time>2023-02-05T12:43:09Z</time>
      </trkpt>
      <trkpt lat="44.13378" lon="7.24157">
        <ele>1972.6</ele>
        <time>2023-02-05T12:43:10Z</time>
      </trkpt>
      <trkpt lat="44.13378" lon="7.24158">
        <ele>1972.8</ele>
        <time>2023-02-05T12:43:11Z</time>
      </trkpt>
      <trkpt lat="44.13377" lon="7.24159">
        <ele>1972.6</ele>
        <time>2023-02-05T12:43:12Z</time>
      </trkpt>
      <trkpt lat="44.13375" lon="7.24159">
        <ele>1972.4</ele>
        <time>2023-02-05T12:43:13Z</time>
      </trkpt>
      <trkpt lat="44.13375" lon="7.24159">
        <ele>1972.9</ele>
        <time>2023-02-05T12:43:14Z</time>
      </trkpt>
      <trkpt lat="44.13374" lon="7.2416">
        <ele>1972.7</ele>
        <time>2023-02-05T12:43:15Z</time>
      </trkpt>
      <trkpt lat="44.13374" lon="7.24161">
        <ele>1972.5</ele>
        <time>2023-02-05T12:43:16Z</time>
      </trkpt>
      <trkpt lat="44.13375" lon="7.24162">
        <ele>1972.4</ele>
        <time>2023-02-05T12:43:17Z</time>
      </trkpt>
      <trkpt lat="44.13374" lon="7.24164">
        <ele>1972.2</ele>
        <time>2023-02-05T12:43:18Z</time>
      </trkpt>
      <trkpt lat="44.13375" lon="7.24166">
        <ele>1971.7</ele>
        <time>2023-02-05T12:43:19Z</time>
      </trkpt>
      <trkpt lat="44.13375" lon="7.24168">
        <ele>1972.1</ele>
        <time>2023-02-05T12:43:20Z</time>
      </trkpt>
      <trkpt lat="44.13375" lon="7.2417">
        <ele>1971.7</ele>
        <time>2023-02-05T12:43:21Z</time>
      </trkpt>
      <trkpt lat="44.13378" lon="7.24174">
        <ele>1971.4</ele>
        <time>2023-02-05T12:43:22Z</time>
      </trkpt>
      <trkpt lat="44.13379" lon="7.24176">
        <ele>1971.4</ele>
        <time>2023-02-05T12:43:23Z</time>
      </trkpt>
      <trkpt lat="44.13381" lon="7.24177">
        <ele>1971</ele>
        <time>2023-02-05T12:43:24Z</time>
      </trkpt>
      <trkpt lat="44.13382" lon="7.24179">
        <ele>1971</ele>
        <time>2023-02-05T12:43:25Z</time>
      </trkpt>
      <trkpt lat="44.13382" lon="7.2418">
        <ele>1971.1</ele>
        <time>2023-02-05T12:43:26Z</time>
      </trkpt>
      <trkpt lat="44.13383" lon="7.24181">
        <ele>1971</ele>
        <time>2023-02-05T12:43:27Z</time>
      </trkpt>
      <trkpt lat="44.13383" lon="7.24182">
        <ele>1970.8</ele>
        <time>2023-02-05T12:43:28Z</time>
      </trkpt>
      <trkpt lat="44.13383" lon="7.24184">
        <ele>1970.7</ele>
        <time>2023-02-05T12:43:29Z</time>
      </trkpt>
      <trkpt lat="44.13384" lon="7.24185">
        <ele>1970.6</ele>
        <time>2023-02-05T12:43:30Z</time>
      </trkpt>
      <trkpt lat="44.13383" lon="7.24186">
        <ele>1970.3</ele>
        <time>2023-02-05T12:43:31Z</time>
      </trkpt>
      <trkpt lat="44.13384" lon="7.24187">
        <ele>1970.1</ele>
        <time>2023-02-05T12:43:32Z</time>
      </trkpt>
      <trkpt lat="44.13384" lon="7.24187">
        <ele>1970</ele>
        <time>2023-02-05T12:43:33Z</time>
      </trkpt>
      <trkpt lat="44.13383" lon="7.24188">
        <ele>1970</ele>
        <time>2023-02-05T12:43:34Z</time>
      </trkpt>
      <trkpt lat="44.13383" lon="7.2419">
        <ele>1969.9</ele>
        <time>2023-02-05T12:43:35Z</time>
      </trkpt>
      <trkpt lat="44.13382" lon="7.2419">
        <ele>1969.8</ele>
        <time>2023-02-05T12:43:36Z</time>
      </trkpt>
      <trkpt lat="44.13382" lon="7.24191">
        <ele>1969.6</ele>
        <time>2023-02-05T12:43:37Z</time>
      </trkpt>
      <trkpt lat="44.13382" lon="7.24192">
        <ele>1969.4</ele>
        <time>2023-02-05T12:43:38Z</time>
      </trkpt>
      <trkpt lat="44.13378" lon="7.24192">
        <ele>1969.5</ele>
        <time>2023-02-05T12:43:39Z</time>
      </trkpt>
      <trkpt lat="44.13379" lon="7.24193">
        <ele>1969.6</ele>
        <time>2023-02-05T12:43:40Z</time>
      </trkpt>
      <trkpt lat="44.13381" lon="7.24195">
        <ele>1969.4</ele>
        <time>2023-02-05T12:43:41Z</time>
      </trkpt>
      <trkpt lat="44.13379" lon="7.24197">
        <ele>1969.7</ele>
        <time>2023-02-05T12:43:42Z</time>
      </trkpt>
      <trkpt lat="44.13381" lon="7.24199">
        <ele>1969.3</ele>
        <time>2023-02-05T12:43:43Z</time>
      </trkpt>
      <trkpt lat="44.13382" lon="7.24201">
        <ele>1969.6</ele>
        <time>2023-02-05T12:43:44Z</time>
      </trkpt>
      <trkpt lat="44.13382" lon="7.24202">
        <ele>1969.2</ele>
        <time>2023-02-05T12:43:45Z</time>
      </trkpt>
      <trkpt lat="44.13382" lon="7.24203">
        <ele>1968.9</ele>
        <time>2023-02-05T12:43:46Z</time>
      </trkpt>
      <trkpt lat="44.13383" lon="7.24204">
        <ele>1968.9</ele>
        <time>2023-02-05T12:43:47Z</time>
      </trkpt>
      <trkpt lat="44.13383" lon="7.24205">
        <ele>1968.9</ele>
        <time>2023-02-05T12:43:48Z</time>
      </trkpt>
      <trkpt lat="44.13384" lon="7.24205">
        <ele>1968.5</ele>
        <time>2023-02-05T12:43:49Z</time>
      </trkpt>
      <trkpt lat="44.13384" lon="7.24206">
        <ele>1968.4</ele>
        <time>2023-02-05T12:43:50Z</time>
      </trkpt>
      <trkpt lat="44.13384" lon="7.24206">
        <ele>1968.2</ele>
        <time>2023-02-05T12:43:51Z</time>
      </trkpt>
      <trkpt lat="44.1338" lon="7.24206">
        <ele>1967.8</ele>
        <time>2023-02-05T12:43:52Z</time>
      </trkpt>
      <trkpt lat="44.1338" lon="7.24206">
        <ele>1967.7</ele>
        <time>2023-02-05T12:43:53Z</time>
      </trkpt>
      <trkpt lat="44.13379" lon="7.24206">
        <ele>1967.1</ele>
        <time>2023-02-05T12:43:54Z</time>
      </trkpt>
      <trkpt lat="44.13378" lon="7.24207">
        <ele>1967.1</ele>
        <time>2023-02-05T12:43:55Z</time>
      </trkpt>
      <trkpt lat="44.13377" lon="7.24207">
        <ele>1967</ele>
        <time>2023-02-05T12:43:56Z</time>
      </trkpt>
      <trkpt lat="44.13377" lon="7.24208">
        <ele>1966.7</ele>
        <time>2023-02-05T12:43:57Z</time>
      </trkpt>
      <trkpt lat="44.13376" lon="7.24208">
        <ele>1966.4</ele>
        <time>2023-02-05T12:43:58Z</time>
      </trkpt>
      <trkpt lat="44.13376" lon="7.24208">
        <ele>1966.2</ele>
        <time>2023-02-05T12:43:59Z</time>
      </trkpt>
      <trkpt lat="44.13375" lon="7.2421">
        <ele>1966</ele>
        <time>2023-02-05T12:44:00Z</time>
      </trkpt>
      <trkpt lat="44.13373" lon="7.24212">
        <ele>1965.5</ele>
        <time>2023-02-05T12:44:01Z</time>
      </trkpt>
      <trkpt lat="44.13372" lon="7.24212">
        <ele>1965.3</ele>
        <time>2023-02-05T12:44:02Z</time>
      </trkpt>
      <trkpt lat="44.1337" lon="7.24213">
        <ele>1965.4</ele>
        <time>2023-02-05T12:44:03Z</time>
      </trkpt>
      <trkpt lat="44.13371" lon="7.24213">
        <ele>1965.6</ele>
        <time>2023-02-05T12:44:04Z</time>
      </trkpt>
      <trkpt lat="44.1337" lon="7.24213">
        <ele>1965.5</ele>
        <time>2023-02-05T12:44:05Z</time>
      </trkpt>
      <trkpt lat="44.13367" lon="7.24212">
        <ele>1965.5</ele>
        <time>2023-02-05T12:44:06Z</time>
      </trkpt>
      <trkpt lat="44.13367" lon="7.24214">
        <ele>1965.7</ele>
        <time>2023-02-05T12:44:07Z</time>
      </trkpt>
      <trkpt lat="44.13364" lon="7.24213">
        <ele>1966</ele>
        <time>2023-02-05T12:44:08Z</time>
      </trkpt>
      <trkpt lat="44.13363" lon="7.24213">
        <ele>1966.3</ele>
        <time>2023-02-05T12:44:09Z</time>
      </trkpt>
      <trkpt lat="44.13363" lon="7.24213">
        <ele>1966.1</ele>
        <time>2023-02-05T12:44:10Z</time>
      </trkpt>
      <trkpt lat="44.13361" lon="7.24214">
        <ele>1965.9</ele>
        <time>2023-02-05T12:44:11Z</time>
      </trkpt>
      <trkpt lat="44.1336" lon="7.24214">
        <ele>1966</ele>
        <time>2023-02-05T12:44:12Z</time>
      </trkpt>
      <trkpt lat="44.13359" lon="7.24215">
        <ele>1965.8</ele>
        <time>2023-02-05T12:44:13Z</time>
      </trkpt>
      <trkpt lat="44.13356" lon="7.24216">
        <ele>1965.7</ele>
        <time>2023-02-05T12:44:14Z</time>
      </trkpt>
      <trkpt lat="44.13355" lon="7.24216">
        <ele>1965.5</ele>
        <time>2023-02-05T12:44:15Z</time>
      </trkpt>
      <trkpt lat="44.13354" lon="7.24216">
        <ele>1965.4</ele>
        <time>2023-02-05T12:44:16Z</time>
      </trkpt>
      <trkpt lat="44.13353" lon="7.24216">
        <ele>1965.1</ele>
        <time>2023-02-05T12:44:17Z</time>
      </trkpt>
      <trkpt lat="44.13354" lon="7.24217">
        <ele>1964.9</ele>
        <time>2023-02-05T12:44:18Z</time>
      </trkpt>
      <trkpt lat="44.13355" lon="7.24218">
        <ele>1965</ele>
        <time>2023-02-05T12:44:19Z</time>
      </trkpt>
      <trkpt lat="44.13355" lon="7.24218">
        <ele>1965.1</ele>
        <time>2023-02-05T12:44:20Z</time>
      </trkpt>
      <trkpt lat="44.13354" lon="7.24217">
        <ele>1964.9</ele>
        <time>2023-02-05T12:44:21Z</time>
      </trkpt>
      <trkpt lat="44.13355" lon="7.24217">
        <ele>1964.6</ele>
        <time>2023-02-05T12:44:22Z</time>
      </trkpt>
      <trkpt lat="44.13356" lon="7.24217">
        <ele>1964</ele>
        <time>2023-02-05T12:44:23Z</time>
      </trkpt>
      <trkpt lat="44.13355" lon="7.24217">
        <ele>1963.8</ele>
        <time>2023-02-05T12:44:24Z</time>
      </trkpt>
      <trkpt lat="44.13355" lon="7.24218">
        <ele>1963.7</ele>
        <time>2023-02-05T12:44:25Z</time>
      </trkpt>
      <trkpt lat="44.13354" lon="7.24219">
        <ele>1963.5</ele>
        <time>2023-02-05T12:44:26Z</time>
      </trkpt>
      <trkpt lat="44.13353" lon="7.2422">
        <ele>1963.3</ele>
        <time>2023-02-05T12:44:27Z</time>
      </trkpt>
      <trkpt lat="44.13353" lon="7.24222">
        <ele>1963.4</ele>
        <time>2023-02-05T12:44:28Z</time>
      </trkpt>
      <trkpt lat="44.13354" lon="7.24225">
        <ele>1963.2</ele>
        <time>2023-02-05T12:44:29Z</time>
      </trkpt>
      <trkpt lat="44.13354" lon="7.24226">
        <ele>1963</ele>
        <time>2023-02-05T12:44:30Z</time>
      </trkpt>
      <trkpt lat="44.13354" lon="7.24227">
        <ele>1962.9</ele>
        <time>2023-02-05T12:44:31Z</time>
      </trkpt>
      <trkpt lat="44.13353" lon="7.24228">
        <ele>1962.7</ele>
        <time>2023-02-05T12:44:32Z</time>
      </trkpt>
      <trkpt lat="44.13354" lon="7.2423">
        <ele>1962.4</ele>
        <time>2023-02-05T12:44:33Z</time>
      </trkpt>
      <trkpt lat="44.13352" lon="7.2423">
        <ele>1962.1</ele>
        <time>2023-02-05T12:44:34Z</time>
      </trkpt>
      <trkpt lat="44.13351" lon="7.24231">
        <ele>1962</ele>
        <time>2023-02-05T12:44:35Z</time>
      </trkpt>
      <trkpt lat="44.13351" lon="7.24233">
        <ele>1961.9</ele>
        <time>2023-02-05T12:44:36Z</time>
      </trkpt>
      <trkpt lat="44.13351" lon="7.24235">
        <ele>1961.7</ele>
        <time>2023-02-05T12:44:37Z</time>
      </trkpt>
      <trkpt lat="44.1335" lon="7.24235">
        <ele>1961.5</ele>
        <time>2023-02-05T12:44:38Z</time>
      </trkpt>
      <trkpt lat="44.1335" lon="7.24236">
        <ele>1961.1</ele>
        <time>2023-02-05T12:44:39Z</time>
      </trkpt>
      <trkpt lat="44.13351" lon="7.24239">
        <ele>1961.4</ele>
        <time>2023-02-05T12:44:40Z</time>
      </trkpt>
      <trkpt lat="44.13351" lon="7.2424">
        <ele>1961.1</ele>
        <time>2023-02-05T12:44:41Z</time>
      </trkpt>
      <trkpt lat="44.13349" lon="7.2424">
        <ele>1960.8</ele>
        <time>2023-02-05T12:44:42Z</time>
      </trkpt>
      <trkpt lat="44.13348" lon="7.24241">
        <ele>1960.6</ele>
        <time>2023-02-05T12:44:43Z</time>
      </trkpt>
      <trkpt lat="44.13346" lon="7.24242">
        <ele>1960.7</ele>
        <time>2023-02-05T12:44:44Z</time>
      </trkpt>
      <trkpt lat="44.13346" lon="7.24243">
        <ele>1960.6</ele>
        <time>2023-02-05T12:44:45Z</time>
      </trkpt>
      <trkpt lat="44.13344" lon="7.24243">
        <ele>1960.5</ele>
        <time>2023-02-05T12:44:46Z</time>
      </trkpt>
      <trkpt lat="44.13341" lon="7.24242">
        <ele>1960.5</ele>
        <time>2023-02-05T12:44:47Z</time>
      </trkpt>
      <trkpt lat="44.13337" lon="7.24241">
        <ele>1960.4</ele>
        <time>2023-02-05T12:44:48Z</time>
      </trkpt>
      <trkpt lat="44.13334" lon="7.24241">
        <ele>1960.3</ele>
        <time>2023-02-05T12:44:49Z</time>
      </trkpt>
      <trkpt lat="44.13332" lon="7.24241">
        <ele>1960.1</ele>
        <time>2023-02-05T12:44:50Z</time>
      </trkpt>
      <trkpt lat="44.13329" lon="7.24241">
        <ele>1959.9</ele>
        <time>2023-02-05T12:44:51Z</time>
      </trkpt>
      <trkpt lat="44.13328" lon="7.24242">
        <ele>1959.7</ele>
        <time>2023-02-05T12:44:52Z</time>
      </trkpt>
      <trkpt lat="44.13326" lon="7.24242">
        <ele>1959.7</ele>
        <time>2023-02-05T12:44:53Z</time>
      </trkpt>
      <trkpt lat="44.13324" lon="7.24242">
        <ele>1959.6</ele>
        <time>2023-02-05T12:44:54Z</time>
      </trkpt>
      <trkpt lat="44.13324" lon="7.24243">
        <ele>1959.4</ele>
        <time>2023-02-05T12:44:55Z</time>
      </trkpt>
      <trkpt lat="44.13324" lon="7.24245">
        <ele>1959.4</ele>
        <time>2023-02-05T12:44:56Z</time>
      </trkpt>
      <trkpt lat="44.13323" lon="7.24246">
        <ele>1959</ele>
        <time>2023-02-05T12:44:57Z</time>
      </trkpt>
      <trkpt lat="44.13322" lon="7.24247">
        <ele>1958.6</ele>
        <time>2023-02-05T12:44:58Z</time>
      </trkpt>
      <trkpt lat="44.13323" lon="7.24249">
        <ele>1958.8</ele>
        <time>2023-02-05T12:44:59Z</time>
      </trkpt>
      <trkpt lat="44.13324" lon="7.24251">
        <ele>1958.7</ele>
        <time>2023-02-05T12:45:00Z</time>
      </trkpt>
      <trkpt lat="44.13327" lon="7.24254">
        <ele>1958.7</ele>
        <time>2023-02-05T12:45:01Z</time>
      </trkpt>
      <trkpt lat="44.13326" lon="7.24255">
        <ele>1958.7</ele>
        <time>2023-02-05T12:45:02Z</time>
      </trkpt>
      <trkpt lat="44.13326" lon="7.24256">
        <ele>1958.9</ele>
        <time>2023-02-05T12:45:03Z</time>
      </trkpt>
      <trkpt lat="44.13328" lon="7.24258">
        <ele>1958.7</ele>
        <time>2023-02-05T12:45:04Z</time>
      </trkpt>
      <trkpt lat="44.13327" lon="7.24259">
        <ele>1958.6</ele>
        <time>2023-02-05T12:45:05Z</time>
      </trkpt>
      <trkpt lat="44.13325" lon="7.24261">
        <ele>1958.5</ele>
        <time>2023-02-05T12:45:06Z</time>
      </trkpt>
      <trkpt lat="44.13324" lon="7.24262">
        <ele>1958.4</ele>
        <time>2023-02-05T12:45:07Z</time>
      </trkpt>
      <trkpt lat="44.13325" lon="7.24264">
        <ele>1958.4</ele>
        <time>2023-02-05T12:45:08Z</time>
      </trkpt>
      <trkpt lat="44.13325" lon="7.24265">
        <ele>1958.1</ele>
        <time>2023-02-05T12:45:09Z</time>
      </trkpt>
      <trkpt lat="44.13324" lon="7.24266">
        <ele>1957.7</ele>
        <time>2023-02-05T12:45:10Z</time>
      </trkpt>
      <trkpt lat="44.13324" lon="7.24268">
        <ele>1956.9</ele>
        <time>2023-02-05T12:45:11Z</time>
      </trkpt>
      <trkpt lat="44.13324" lon="7.24269">
        <ele>1957.2</ele>
        <time>2023-02-05T12:45:12Z</time>
      </trkpt>
      <trkpt lat="44.13323" lon="7.2427">
        <ele>1957.1</ele>
        <time>2023-02-05T12:45:13Z</time>
      </trkpt>
      <trkpt lat="44.13323" lon="7.24272">
        <ele>1956.9</ele>
        <time>2023-02-05T12:45:14Z</time>
      </trkpt>
      <trkpt lat="44.13322" lon="7.24273">
        <ele>1956.9</ele>
        <time>2023-02-05T12:45:15Z</time>
      </trkpt>
      <trkpt lat="44.13322" lon="7.24273">
        <ele>1956.8</ele>
        <time>2023-02-05T12:45:16Z</time>
      </trkpt>
      <trkpt lat="44.13322" lon="7.24274">
        <ele>1956.6</ele>
        <time>2023-02-05T12:45:17Z</time>
      </trkpt>
      <trkpt lat="44.13324" lon="7.24276">
        <ele>1956.5</ele>
        <time>2023-02-05T12:45:18Z</time>
      </trkpt>
      <trkpt lat="44.13325" lon="7.24279">
        <ele>1956.4</ele>
        <time>2023-02-05T12:45:19Z</time>
      </trkpt>
      <trkpt lat="44.13327" lon="7.24281">
        <ele>1956.4</ele>
        <time>2023-02-05T12:45:20Z</time>
      </trkpt>
      <trkpt lat="44.13328" lon="7.24283">
        <ele>1956.3</ele>
        <time>2023-02-05T12:45:21Z</time>
      </trkpt>
      <trkpt lat="44.13329" lon="7.24284">
        <ele>1956.4</ele>
        <time>2023-02-05T12:45:22Z</time>
      </trkpt>
      <trkpt lat="44.13329" lon="7.24285">
        <ele>1956.4</ele>
        <time>2023-02-05T12:45:23Z</time>
      </trkpt>
      <trkpt lat="44.13329" lon="7.24285">
        <ele>1956.4</ele>
        <time>2023-02-05T12:45:24Z</time>
      </trkpt>
      <trkpt lat="44.13328" lon="7.24286">
        <ele>1956.4</ele>
        <time>2023-02-05T12:45:25Z</time>
      </trkpt>
      <trkpt lat="44.13328" lon="7.24286">
        <ele>1956.5</ele>
        <time>2023-02-05T12:45:26Z</time>
      </trkpt>
      <trkpt lat="44.13329" lon="7.24287">
        <ele>1956.5</ele>
        <time>2023-02-05T12:45:27Z</time>
      </trkpt>
      <trkpt lat="44.13328" lon="7.24288">
        <ele>1956.5</ele>
        <time>2023-02-05T12:45:28Z</time>
      </trkpt>
      <trkpt lat="44.13327" lon="7.24288">
        <ele>1956.5</ele>
        <time>2023-02-05T12:45:29Z</time>
      </trkpt>
      <trkpt lat="44.13327" lon="7.24288">
        <ele>1956.4</ele>
        <time>2023-02-05T12:45:30Z</time>
      </trkpt>
      <trkpt lat="44.13326" lon="7.24289">
        <ele>1956.4</ele>
        <time>2023-02-05T12:45:31Z</time>
      </trkpt>
      <trkpt lat="44.13326" lon="7.2429">
        <ele>1956.4</ele>
        <time>2023-02-05T12:45:32Z</time>
      </trkpt>
      <trkpt lat="44.13326" lon="7.2429">
        <ele>1956.4</ele>
        <time>2023-02-05T12:45:33Z</time>
      </trkpt>
      <trkpt lat="44.13326" lon="7.24291">
        <ele>1956.4</ele>
        <time>2023-02-05T12:45:34Z</time>
      </trkpt>
      <trkpt lat="44.13326" lon="7.24291">
        <ele>1956.4</ele>
        <time>2023-02-05T12:45:35Z</time>
      </trkpt>
      <trkpt lat="44.13326" lon="7.24292">
        <ele>1956.4</ele>
        <time>2023-02-05T12:45:36Z</time>
      </trkpt>
      <trkpt lat="44.13326" lon="7.24292">
        <ele>1956.4</ele>
        <time>2023-02-05T12:45:37Z</time>
      </trkpt>
      <trkpt lat="44.13327" lon="7.24292">
        <ele>1956.4</ele>
        <time>2023-02-05T12:45:38Z</time>
      </trkpt>
      <trkpt lat="44.13327" lon="7.24292">
        <ele>1956.4</ele>
        <time>2023-02-05T12:45:39Z</time>
      </trkpt>
      <trkpt lat="44.13326" lon="7.24292">
        <ele>1956.4</ele>
        <time>2023-02-05T12:45:40Z</time>
      </trkpt>
      <trkpt lat="44.13327" lon="7.24293">
        <ele>1956.3</ele>
        <time>2023-02-05T12:45:41Z</time>
      </trkpt>
      <trkpt lat="44.13327" lon="7.24293">
        <ele>1956.2</ele>
        <time>2023-02-05T12:45:42Z</time>
      </trkpt>
      <trkpt lat="44.13326" lon="7.24293">
        <ele>1956.2</ele>
        <time>2023-02-05T12:45:43Z</time>
      </trkpt>
      <trkpt lat="44.13326" lon="7.24293">
        <ele>1956.1</ele>
        <time>2023-02-05T12:45:44Z</time>
      </trkpt>
      <trkpt lat="44.13326" lon="7.24293">
        <ele>1955.9</ele>
        <time>2023-02-05T12:45:45Z</time>
      </trkpt>
      <trkpt lat="44.13326" lon="7.24293">
        <ele>1955.7</ele>
        <time>2023-02-05T12:45:46Z</time>
      </trkpt>
      <trkpt lat="44.13326" lon="7.24293">
        <ele>1955.7</ele>
        <time>2023-02-05T12:45:47Z</time>
      </trkpt>
      <trkpt lat="44.13326" lon="7.24293">
        <ele>1956.2</ele>
        <time>2023-02-05T12:45:48Z</time>
      </trkpt>
      <trkpt lat="44.13326" lon="7.24294">
        <ele>1955.9</ele>
        <time>2023-02-05T12:45:49Z</time>
      </trkpt>
      <trkpt lat="44.13325" lon="7.24293">
        <ele>1956</ele>
        <time>2023-02-05T12:45:50Z</time>
      </trkpt>
      <trkpt lat="44.13325" lon="7.24293">
        <ele>1955.8</ele>
        <time>2023-02-05T12:45:51Z</time>
      </trkpt>
      <trkpt lat="44.13324" lon="7.24293">
        <ele>1956.1</ele>
        <time>2023-02-05T12:45:52Z</time>
      </trkpt>
      <trkpt lat="44.13325" lon="7.24294">
        <ele>1956</ele>
        <time>2023-02-05T12:45:53Z</time>
      </trkpt>
      <trkpt lat="44.13325" lon="7.24295">
        <ele>1955.8</ele>
        <time>2023-02-05T12:45:54Z</time>
      </trkpt>
      <trkpt lat="44.13325" lon="7.24295">
        <ele>1955.7</ele>
        <time>2023-02-05T12:45:55Z</time>
      </trkpt>
      <trkpt lat="44.13328" lon="7.24297">
        <ele>1955.5</ele>
        <time>2023-02-05T12:45:56Z</time>
      </trkpt>
      <trkpt lat="44.13326" lon="7.24296">
        <ele>1955.8</ele>
        <time>2023-02-05T12:45:57Z</time>
      </trkpt>
      <trkpt lat="44.13325" lon="7.24296">
        <ele>1955.5</ele>
        <time>2023-02-05T12:45:58Z</time>
      </trkpt>
      <trkpt lat="44.13325" lon="7.24296">
        <ele>1955.2</ele>
        <time>2023-02-05T12:45:59Z</time>
      </trkpt>
      <trkpt lat="44.13325" lon="7.24296">
        <ele>1955</ele>
        <time>2023-02-05T12:46:00Z</time>
      </trkpt>
      <trkpt lat="44.13325" lon="7.24296">
        <ele>1955.1</ele>
        <time>2023-02-05T12:46:01Z</time>
      </trkpt>
      <trkpt lat="44.13324" lon="7.24296">
        <ele>1954.9</ele>
        <time>2023-02-05T12:46:02Z</time>
      </trkpt>
      <trkpt lat="44.13324" lon="7.24297">
        <ele>1954.8</ele>
        <time>2023-02-05T12:46:03Z</time>
      </trkpt>
      <trkpt lat="44.13321" lon="7.24296">
        <ele>1954.5</ele>
        <time>2023-02-05T12:46:04Z</time>
      </trkpt>
      <trkpt lat="44.13321" lon="7.24297">
        <ele>1954.5</ele>
        <time>2023-02-05T12:46:05Z</time>
      </trkpt>
      <trkpt lat="44.1332" lon="7.24298">
        <ele>1954.4</ele>
        <time>2023-02-05T12:46:06Z</time>
      </trkpt>
      <trkpt lat="44.13317" lon="7.24298">
        <ele>1954.2</ele>
        <time>2023-02-05T12:46:07Z</time>
      </trkpt>
      <trkpt lat="44.13316" lon="7.24298">
        <ele>1954.1</ele>
        <time>2023-02-05T12:46:08Z</time>
      </trkpt>
      <trkpt lat="44.13315" lon="7.24298">
        <ele>1953.5</ele>
        <time>2023-02-05T12:46:09Z</time>
      </trkpt>
      <trkpt lat="44.13314" lon="7.24299">
        <ele>1953.5</ele>
        <time>2023-02-05T12:46:10Z</time>
      </trkpt>
      <trkpt lat="44.13313" lon="7.243">
        <ele>1953.6</ele>
        <time>2023-02-05T12:46:11Z</time>
      </trkpt>
      <trkpt lat="44.13312" lon="7.243">
        <ele>1953.4</ele>
        <time>2023-02-05T12:46:12Z</time>
      </trkpt>
      <trkpt lat="44.13311" lon="7.24301">
        <ele>1953.3</ele>
        <time>2023-02-05T12:46:13Z</time>
      </trkpt>
      <trkpt lat="44.13312" lon="7.24302">
        <ele>1953.5</ele>
        <time>2023-02-05T12:46:14Z</time>
      </trkpt>
      <trkpt lat="44.13312" lon="7.24303">
        <ele>1953.3</ele>
        <time>2023-02-05T12:46:15Z</time>
      </trkpt>
      <trkpt lat="44.13312" lon="7.24304">
        <ele>1953</ele>
        <time>2023-02-05T12:46:16Z</time>
      </trkpt>
      <trkpt lat="44.13309" lon="7.24302">
        <ele>1953</ele>
        <time>2023-02-05T12:46:17Z</time>
      </trkpt>
      <trkpt lat="44.13309" lon="7.24302">
        <ele>1953</ele>
        <time>2023-02-05T12:46:18Z</time>
      </trkpt>
      <trkpt lat="44.13307" lon="7.24301">
        <ele>1953.2</ele>
        <time>2023-02-05T12:46:19Z</time>
      </trkpt>
      <trkpt lat="44.13306" lon="7.24302">
        <ele>1953.2</ele>
        <time>2023-02-05T12:46:20Z</time>
      </trkpt>
      <trkpt lat="44.13305" lon="7.24303">
        <ele>1953.2</ele>
        <time>2023-02-05T12:46:21Z</time>
      </trkpt>
      <trkpt lat="44.13306" lon="7.24304">
        <ele>1953.1</ele>
        <time>2023-02-05T12:46:22Z</time>
      </trkpt>
      <trkpt lat="44.13305" lon="7.24305">
        <ele>1953.1</ele>
        <time>2023-02-05T12:46:23Z</time>
      </trkpt>
      <trkpt lat="44.13304" lon="7.24306">
        <ele>1953</ele>
        <time>2023-02-05T12:46:24Z</time>
      </trkpt>
      <trkpt lat="44.13306" lon="7.24308">
        <ele>1953</ele>
        <time>2023-02-05T12:46:25Z</time>
      </trkpt>
      <trkpt lat="44.13306" lon="7.24309">
        <ele>1952.7</ele>
        <time>2023-02-05T12:46:26Z</time>
      </trkpt>
      <trkpt lat="44.13304" lon="7.24309">
        <ele>1952.9</ele>
        <time>2023-02-05T12:46:27Z</time>
      </trkpt>
      <trkpt lat="44.13304" lon="7.2431">
        <ele>1952.7</ele>
        <time>2023-02-05T12:46:28Z</time>
      </trkpt>
      <trkpt lat="44.13302" lon="7.2431">
        <ele>1952.7</ele>
        <time>2023-02-05T12:46:29Z</time>
      </trkpt>
      <trkpt lat="44.13302" lon="7.24311">
        <ele>1952.5</ele>
        <time>2023-02-05T12:46:30Z</time>
      </trkpt>
      <trkpt lat="44.13301" lon="7.24312">
        <ele>1952.7</ele>
        <time>2023-02-05T12:46:31Z</time>
      </trkpt>
      <trkpt lat="44.13303" lon="7.24314">
        <ele>1952.5</ele>
        <time>2023-02-05T12:46:32Z</time>
      </trkpt>
      <trkpt lat="44.13304" lon="7.24315">
        <ele>1952.3</ele>
        <time>2023-02-05T12:46:33Z</time>
      </trkpt>
      <trkpt lat="44.13303" lon="7.24316">
        <ele>1952.1</ele>
        <time>2023-02-05T12:46:34Z</time>
      </trkpt>
      <trkpt lat="44.13301" lon="7.24317">
        <ele>1952</ele>
        <time>2023-02-05T12:46:35Z</time>
      </trkpt>
      <trkpt lat="44.13301" lon="7.24318">
        <ele>1951.9</ele>
        <time>2023-02-05T12:46:36Z</time>
      </trkpt>
      <trkpt lat="44.13301" lon="7.2432">
        <ele>1952.3</ele>
        <time>2023-02-05T12:46:37Z</time>
      </trkpt>
      <trkpt lat="44.13301" lon="7.24322">
        <ele>1952.4</ele>
        <time>2023-02-05T12:46:38Z</time>
      </trkpt>
      <trkpt lat="44.13301" lon="7.24324">
        <ele>1952</ele>
        <time>2023-02-05T12:46:39Z</time>
      </trkpt>
      <trkpt lat="44.13301" lon="7.24326">
        <ele>1951.8</ele>
        <time>2023-02-05T12:46:40Z</time>
      </trkpt>
      <trkpt lat="44.13301" lon="7.24328">
        <ele>1951.5</ele>
        <time>2023-02-05T12:46:41Z</time>
      </trkpt>
      <trkpt lat="44.13302" lon="7.2433">
        <ele>1951.3</ele>
        <time>2023-02-05T12:46:42Z</time>
      </trkpt>
      <trkpt lat="44.13302" lon="7.24332">
        <ele>1951.1</ele>
        <time>2023-02-05T12:46:43Z</time>
      </trkpt>
      <trkpt lat="44.13302" lon="7.24334">
        <ele>1950.9</ele>
        <time>2023-02-05T12:46:44Z</time>
      </trkpt>
      <trkpt lat="44.13304" lon="7.24337">
        <ele>1950.7</ele>
        <time>2023-02-05T12:46:45Z</time>
      </trkpt>
      <trkpt lat="44.13304" lon="7.24338">
        <ele>1951</ele>
        <time>2023-02-05T12:46:46Z</time>
      </trkpt>
      <trkpt lat="44.13303" lon="7.24339">
        <ele>1950.8</ele>
        <time>2023-02-05T12:46:47Z</time>
      </trkpt>
      <trkpt lat="44.13303" lon="7.24341">
        <ele>1951</ele>
        <time>2023-02-05T12:46:48Z</time>
      </trkpt>
      <trkpt lat="44.13302" lon="7.24341">
        <ele>1951</ele>
        <time>2023-02-05T12:46:49Z</time>
      </trkpt>
      <trkpt lat="44.13301" lon="7.24342">
        <ele>1950.9</ele>
        <time>2023-02-05T12:46:50Z</time>
      </trkpt>
      <trkpt lat="44.13301" lon="7.24344">
        <ele>1950.1</ele>
        <time>2023-02-05T12:46:51Z</time>
      </trkpt>
      <trkpt lat="44.13301" lon="7.24346">
        <ele>1950.4</ele>
        <time>2023-02-05T12:46:52Z</time>
      </trkpt>
      <trkpt lat="44.13299" lon="7.24348">
        <ele>1950.6</ele>
        <time>2023-02-05T12:46:53Z</time>
      </trkpt>
      <trkpt lat="44.13298" lon="7.24349">
        <ele>1950.3</ele>
        <time>2023-02-05T12:46:54Z</time>
      </trkpt>
      <trkpt lat="44.13298" lon="7.24351">
        <ele>1949.9</ele>
        <time>2023-02-05T12:46:55Z</time>
      </trkpt>
      <trkpt lat="44.13298" lon="7.24352">
        <ele>1949.8</ele>
        <time>2023-02-05T12:46:56Z</time>
      </trkpt>
      <trkpt lat="44.13298" lon="7.24354">
        <ele>1949.7</ele>
        <time>2023-02-05T12:46:57Z</time>
      </trkpt>
      <trkpt lat="44.13298" lon="7.24356">
        <ele>1949.6</ele>
        <time>2023-02-05T12:46:58Z</time>
      </trkpt>
      <trkpt lat="44.13299" lon="7.24358">
        <ele>1949.7</ele>
        <time>2023-02-05T12:46:59Z</time>
      </trkpt>
      <trkpt lat="44.13299" lon="7.2436">
        <ele>1949.4</ele>
        <time>2023-02-05T12:47:00Z</time>
      </trkpt>
      <trkpt lat="44.133" lon="7.24362">
        <ele>1949.3</ele>
        <time>2023-02-05T12:47:01Z</time>
      </trkpt>
      <trkpt lat="44.133" lon="7.24363">
        <ele>1948.8</ele>
        <time>2023-02-05T12:47:02Z</time>
      </trkpt>
      <trkpt lat="44.133" lon="7.24365">
        <ele>1949</ele>
        <time>2023-02-05T12:47:03Z</time>
      </trkpt>
      <trkpt lat="44.13298" lon="7.24366">
        <ele>1949.2</ele>
        <time>2023-02-05T12:47:04Z</time>
      </trkpt>
      <trkpt lat="44.13297" lon="7.24367">
        <ele>1948.9</ele>
        <time>2023-02-05T12:47:05Z</time>
      </trkpt>
      <trkpt lat="44.13297" lon="7.24368">
        <ele>1948.7</ele>
        <time>2023-02-05T12:47:06Z</time>
      </trkpt>
      <trkpt lat="44.13297" lon="7.24369">
        <ele>1948.7</ele>
        <time>2023-02-05T12:47:07Z</time>
      </trkpt>
      <trkpt lat="44.13298" lon="7.24371">
        <ele>1948.6</ele>
        <time>2023-02-05T12:47:08Z</time>
      </trkpt>
      <trkpt lat="44.13297" lon="7.24372">
        <ele>1948.5</ele>
        <time>2023-02-05T12:47:09Z</time>
      </trkpt>
      <trkpt lat="44.13297" lon="7.24373">
        <ele>1948.4</ele>
        <time>2023-02-05T12:47:10Z</time>
      </trkpt>
      <trkpt lat="44.13297" lon="7.24374">
        <ele>1947.7</ele>
        <time>2023-02-05T12:47:11Z</time>
      </trkpt>
      <trkpt lat="44.13296" lon="7.24375">
        <ele>1947.6</ele>
        <time>2023-02-05T12:47:12Z</time>
      </trkpt>
      <trkpt lat="44.13296" lon="7.24376">
        <ele>1947.3</ele>
        <time>2023-02-05T12:47:13Z</time>
      </trkpt>
      <trkpt lat="44.13296" lon="7.24377">
        <ele>1947.4</ele>
        <time>2023-02-05T12:47:14Z</time>
      </trkpt>
      <trkpt lat="44.13295" lon="7.24378">
        <ele>1947.2</ele>
        <time>2023-02-05T12:47:15Z</time>
      </trkpt>
      <trkpt lat="44.13296" lon="7.2438">
        <ele>1947.1</ele>
        <time>2023-02-05T12:47:16Z</time>
      </trkpt>
      <trkpt lat="44.13296" lon="7.2438">
        <ele>1947.2</ele>
        <time>2023-02-05T12:47:17Z</time>
      </trkpt>
      <trkpt lat="44.13296" lon="7.24382">
        <ele>1947</ele>
        <time>2023-02-05T12:47:18Z</time>
      </trkpt>
      <trkpt lat="44.13295" lon="7.24383">
        <ele>1946.9</ele>
        <time>2023-02-05T12:47:19Z</time>
      </trkpt>
      <trkpt lat="44.13296" lon="7.24385">
        <ele>1946.9</ele>
        <time>2023-02-05T12:47:20Z</time>
      </trkpt>
      <trkpt lat="44.13294" lon="7.24386">
        <ele>1946.1</ele>
        <time>2023-02-05T12:47:21Z</time>
      </trkpt>
      <trkpt lat="44.13293" lon="7.24386">
        <ele>1946</ele>
        <time>2023-02-05T12:47:22Z</time>
      </trkpt>
      <trkpt lat="44.13292" lon="7.24386">
        <ele>1946</ele>
        <time>2023-02-05T12:47:23Z</time>
      </trkpt>
      <trkpt lat="44.13292" lon="7.24387">
        <ele>1946.1</ele>
        <time>2023-02-05T12:47:24Z</time>
      </trkpt>
      <trkpt lat="44.13293" lon="7.24389">
        <ele>1946</ele>
        <time>2023-02-05T12:47:25Z</time>
      </trkpt>
      <trkpt lat="44.13293" lon="7.24391">
        <ele>1945.6</ele>
        <time>2023-02-05T12:47:26Z</time>
      </trkpt>
      <trkpt lat="44.13293" lon="7.24392">
        <ele>1945.9</ele>
        <time>2023-02-05T12:47:27Z</time>
      </trkpt>
      <trkpt lat="44.13292" lon="7.24393">
        <ele>1945.9</ele>
        <time>2023-02-05T12:47:28Z</time>
      </trkpt>
      <trkpt lat="44.13292" lon="7.24395">
        <ele>1945.9</ele>
        <time>2023-02-05T12:47:29Z</time>
      </trkpt>
      <trkpt lat="44.13292" lon="7.24396">
        <ele>1946.1</ele>
        <time>2023-02-05T12:47:30Z</time>
      </trkpt>
      <trkpt lat="44.13291" lon="7.24397">
        <ele>1945.9</ele>
        <time>2023-02-05T12:47:31Z</time>
      </trkpt>
      <trkpt lat="44.13291" lon="7.24398">
        <ele>1945.8</ele>
        <time>2023-02-05T12:47:32Z</time>
      </trkpt>
      <trkpt lat="44.1329" lon="7.24399">
        <ele>1945.8</ele>
        <time>2023-02-05T12:47:33Z</time>
      </trkpt>
      <trkpt lat="44.13289" lon="7.244">
        <ele>1946.3</ele>
        <time>2023-02-05T12:47:34Z</time>
      </trkpt>
      <trkpt lat="44.13289" lon="7.24401">
        <ele>1945.8</ele>
        <time>2023-02-05T12:47:35Z</time>
      </trkpt>
      <trkpt lat="44.13288" lon="7.24402">
        <ele>1945.4</ele>
        <time>2023-02-05T12:47:36Z</time>
      </trkpt>
      <trkpt lat="44.13286" lon="7.24402">
        <ele>1945.5</ele>
        <time>2023-02-05T12:47:37Z</time>
      </trkpt>
      <trkpt lat="44.13285" lon="7.24402">
        <ele>1945.4</ele>
        <time>2023-02-05T12:47:38Z</time>
      </trkpt>
      <trkpt lat="44.13285" lon="7.24403">
        <ele>1945.1</ele>
        <time>2023-02-05T12:47:39Z</time>
      </trkpt>
      <trkpt lat="44.13285" lon="7.24403">
        <ele>1945.4</ele>
        <time>2023-02-05T12:47:40Z</time>
      </trkpt>
      <trkpt lat="44.13284" lon="7.24403">
        <ele>1945.5</ele>
        <time>2023-02-05T12:47:41Z</time>
      </trkpt>
      <trkpt lat="44.13284" lon="7.24404">
        <ele>1945.1</ele>
        <time>2023-02-05T12:47:42Z</time>
      </trkpt>
      <trkpt lat="44.13281" lon="7.24403">
        <ele>1944.6</ele>
        <time>2023-02-05T12:47:43Z</time>
      </trkpt>
      <trkpt lat="44.1328" lon="7.24405">
        <ele>1944.7</ele>
        <time>2023-02-05T12:47:44Z</time>
      </trkpt>
      <trkpt lat="44.13279" lon="7.24405">
        <ele>1944.9</ele>
        <time>2023-02-05T12:47:45Z</time>
      </trkpt>
      <trkpt lat="44.13281" lon="7.24408">
        <ele>1944.7</ele>
        <time>2023-02-05T12:47:46Z</time>
      </trkpt>
      <trkpt lat="44.13284" lon="7.2441">
        <ele>1944.8</ele>
        <time>2023-02-05T12:47:47Z</time>
      </trkpt>
      <trkpt lat="44.13285" lon="7.24413">
        <ele>1944.7</ele>
        <time>2023-02-05T12:47:48Z</time>
      </trkpt>
      <trkpt lat="44.13285" lon="7.24414">
        <ele>1944.7</ele>
        <time>2023-02-05T12:47:49Z</time>
      </trkpt>
      <trkpt lat="44.13285" lon="7.24418">
        <ele>1944.7</ele>
        <time>2023-02-05T12:47:50Z</time>
      </trkpt>
      <trkpt lat="44.13285" lon="7.24421">
        <ele>1944.8</ele>
        <time>2023-02-05T12:47:51Z</time>
      </trkpt>
      <trkpt lat="44.13284" lon="7.24421">
        <ele>1944.8</ele>
        <time>2023-02-05T12:47:52Z</time>
      </trkpt>
      <trkpt lat="44.13284" lon="7.24422">
        <ele>1944.8</ele>
        <time>2023-02-05T12:47:53Z</time>
      </trkpt>
      <trkpt lat="44.13284" lon="7.24423">
        <ele>1944.8</ele>
        <time>2023-02-05T12:47:54Z</time>
      </trkpt>
      <trkpt lat="44.13283" lon="7.24423">
        <ele>1944.9</ele>
        <time>2023-02-05T12:47:55Z</time>
      </trkpt>
      <trkpt lat="44.13283" lon="7.24423">
        <ele>1944.9</ele>
        <time>2023-02-05T12:47:56Z</time>
      </trkpt>
      <trkpt lat="44.13285" lon="7.24425">
        <ele>1944.9</ele>
        <time>2023-02-05T12:47:57Z</time>
      </trkpt>
      <trkpt lat="44.13285" lon="7.24425">
        <ele>1944.9</ele>
        <time>2023-02-05T12:47:58Z</time>
      </trkpt>
      <trkpt lat="44.13285" lon="7.24425">
        <ele>1944.9</ele>
        <time>2023-02-05T12:47:59Z</time>
      </trkpt>
      <trkpt lat="44.13285" lon="7.24425">
        <ele>1944.9</ele>
        <time>2023-02-05T12:48:00Z</time>
      </trkpt>
      <trkpt lat="44.13286" lon="7.24427">
        <ele>1944.8</ele>
        <time>2023-02-05T12:48:01Z</time>
      </trkpt>
      <trkpt lat="44.13286" lon="7.24427">
        <ele>1944.8</ele>
        <time>2023-02-05T12:48:02Z</time>
      </trkpt>
      <trkpt lat="44.13286" lon="7.24428">
        <ele>1944.8</ele>
        <time>2023-02-05T12:48:03Z</time>
      </trkpt>
      <trkpt lat="44.13286" lon="7.24428">
        <ele>1944.5</ele>
        <time>2023-02-05T12:48:04Z</time>
      </trkpt>
      <trkpt lat="44.13285" lon="7.24427">
        <ele>1944.4</ele>
        <time>2023-02-05T12:48:05Z</time>
      </trkpt>
      <trkpt lat="44.13285" lon="7.24427">
        <ele>1944.4</ele>
        <time>2023-02-05T12:48:06Z</time>
      </trkpt>
      <trkpt lat="44.13285" lon="7.24426">
        <ele>1944.5</ele>
        <time>2023-02-05T12:48:07Z</time>
      </trkpt>
      <trkpt lat="44.13285" lon="7.24427">
        <ele>1944.5</ele>
        <time>2023-02-05T12:48:08Z</time>
      </trkpt>
      <trkpt lat="44.13286" lon="7.24426">
        <ele>1944.5</ele>
        <time>2023-02-05T12:48:09Z</time>
      </trkpt>
      <trkpt lat="44.13287" lon="7.24426">
        <ele>1944.5</ele>
        <time>2023-02-05T12:48:10Z</time>
      </trkpt>
      <trkpt lat="44.13287" lon="7.24426">
        <ele>1944.5</ele>
        <time>2023-02-05T12:48:11Z</time>
      </trkpt>
      <trkpt lat="44.13287" lon="7.24426">
        <ele>1944.4</ele>
        <time>2023-02-05T12:48:12Z</time>
      </trkpt>
      <trkpt lat="44.13286" lon="7.24426">
        <ele>1944.4</ele>
        <time>2023-02-05T12:48:13Z</time>
      </trkpt>
      <trkpt lat="44.13286" lon="7.24426">
        <ele>1944.4</ele>
        <time>2023-02-05T12:48:14Z</time>
      </trkpt>
      <trkpt lat="44.13286" lon="7.24426">
        <ele>1944.5</ele>
        <time>2023-02-05T12:48:15Z</time>
      </trkpt>
      <trkpt lat="44.13286" lon="7.24426">
        <ele>1944.5</ele>
        <time>2023-02-05T12:48:16Z</time>
      </trkpt>
      <trkpt lat="44.13285" lon="7.24426">
        <ele>1944.5</ele>
        <time>2023-02-05T12:48:17Z</time>
      </trkpt>
      <trkpt lat="44.13285" lon="7.24426">
        <ele>1944.5</ele>
        <time>2023-02-05T12:48:18Z</time>
      </trkpt>
      <trkpt lat="44.13284" lon="7.24426">
        <ele>1944.5</ele>
        <time>2023-02-05T12:48:19Z</time>
      </trkpt>
      <trkpt lat="44.13283" lon="7.24426">
        <ele>1944.5</ele>
        <time>2023-02-05T12:48:20Z</time>
      </trkpt>
      <trkpt lat="44.13282" lon="7.24427">
        <ele>1944.5</ele>
        <time>2023-02-05T12:48:21Z</time>
      </trkpt>
      <trkpt lat="44.13281" lon="7.24427">
        <ele>1944.5</ele>
        <time>2023-02-05T12:48:22Z</time>
      </trkpt>
      <trkpt lat="44.13281" lon="7.24428">
        <ele>1944.5</ele>
        <time>2023-02-05T12:48:23Z</time>
      </trkpt>
      <trkpt lat="44.13281" lon="7.24428">
        <ele>1944.5</ele>
        <time>2023-02-05T12:48:24Z</time>
      </trkpt>
      <trkpt lat="44.13281" lon="7.24428">
        <ele>1944.4</ele>
        <time>2023-02-05T12:48:25Z</time>
      </trkpt>
      <trkpt lat="44.13285" lon="7.2443">
        <ele>1944.3</ele>
        <time>2023-02-05T12:48:26Z</time>
      </trkpt>
      <trkpt lat="44.13285" lon="7.24431">
        <ele>1944.3</ele>
        <time>2023-02-05T12:48:27Z</time>
      </trkpt>
      <trkpt lat="44.13285" lon="7.24431">
        <ele>1944.3</ele>
        <time>2023-02-05T12:48:28Z</time>
      </trkpt>
      <trkpt lat="44.13284" lon="7.24431">
        <ele>1944.2</ele>
        <time>2023-02-05T12:48:29Z</time>
      </trkpt>
      <trkpt lat="44.13284" lon="7.24432">
        <ele>1944.4</ele>
        <time>2023-02-05T12:48:30Z</time>
      </trkpt>
      <trkpt lat="44.13283" lon="7.24432">
        <ele>1944.4</ele>
        <time>2023-02-05T12:48:31Z</time>
      </trkpt>
      <trkpt lat="44.13283" lon="7.24433">
        <ele>1944.5</ele>
        <time>2023-02-05T12:48:32Z</time>
      </trkpt>
      <trkpt lat="44.13283" lon="7.24434">
        <ele>1944.5</ele>
        <time>2023-02-05T12:48:33Z</time>
      </trkpt>
      <trkpt lat="44.13282" lon="7.24435">
        <ele>1944.6</ele>
        <time>2023-02-05T12:48:34Z</time>
      </trkpt>
      <trkpt lat="44.1328" lon="7.24435">
        <ele>1944.4</ele>
        <time>2023-02-05T12:48:35Z</time>
      </trkpt>
      <trkpt lat="44.13279" lon="7.24435">
        <ele>1944.3</ele>
        <time>2023-02-05T12:48:36Z</time>
      </trkpt>
      <trkpt lat="44.13278" lon="7.24435">
        <ele>1944.2</ele>
        <time>2023-02-05T12:48:37Z</time>
      </trkpt>
      <trkpt lat="44.13278" lon="7.24437">
        <ele>1944.1</ele>
        <time>2023-02-05T12:48:38Z</time>
      </trkpt>
      <trkpt lat="44.13279" lon="7.24438">
        <ele>1944</ele>
        <time>2023-02-05T12:48:39Z</time>
      </trkpt>
      <trkpt lat="44.1328" lon="7.24439">
        <ele>1943.9</ele>
        <time>2023-02-05T12:48:40Z</time>
      </trkpt>
      <trkpt lat="44.1328" lon="7.24441">
        <ele>1943.9</ele>
        <time>2023-02-05T12:48:41Z</time>
      </trkpt>
      <trkpt lat="44.1328" lon="7.24442">
        <ele>1943.8</ele>
        <time>2023-02-05T12:48:42Z</time>
      </trkpt>
      <trkpt lat="44.13279" lon="7.24443">
        <ele>1943.9</ele>
        <time>2023-02-05T12:48:43Z</time>
      </trkpt>
      <trkpt lat="44.13276" lon="7.24442">
        <ele>1943.9</ele>
        <time>2023-02-05T12:48:44Z</time>
      </trkpt>
      <trkpt lat="44.13275" lon="7.24442">
        <ele>1943.7</ele>
        <time>2023-02-05T12:48:45Z</time>
      </trkpt>
      <trkpt lat="44.13272" lon="7.24442">
        <ele>1943.6</ele>
        <time>2023-02-05T12:48:46Z</time>
      </trkpt>
      <trkpt lat="44.13272" lon="7.24443">
        <ele>1943.8</ele>
        <time>2023-02-05T12:48:47Z</time>
      </trkpt>
      <trkpt lat="44.13271" lon="7.24444">
        <ele>1943.7</ele>
        <time>2023-02-05T12:48:48Z</time>
      </trkpt>
      <trkpt lat="44.1327" lon="7.24445">
        <ele>1943.6</ele>
        <time>2023-02-05T12:48:49Z</time>
      </trkpt>
      <trkpt lat="44.1327" lon="7.24446">
        <ele>1943.5</ele>
        <time>2023-02-05T12:48:50Z</time>
      </trkpt>
      <trkpt lat="44.13268" lon="7.24446">
        <ele>1943.2</ele>
        <time>2023-02-05T12:48:51Z</time>
      </trkpt>
      <trkpt lat="44.13268" lon="7.24447">
        <ele>1943.3</ele>
        <time>2023-02-05T12:48:52Z</time>
      </trkpt>
      <trkpt lat="44.13269" lon="7.24448">
        <ele>1943.2</ele>
        <time>2023-02-05T12:48:53Z</time>
      </trkpt>
      <trkpt lat="44.13269" lon="7.24449">
        <ele>1942.9</ele>
        <time>2023-02-05T12:48:54Z</time>
      </trkpt>
      <trkpt lat="44.13269" lon="7.2445">
        <ele>1942.8</ele>
        <time>2023-02-05T12:48:55Z</time>
      </trkpt>
      <trkpt lat="44.13269" lon="7.24451">
        <ele>1942.5</ele>
        <time>2023-02-05T12:48:56Z</time>
      </trkpt>
      <trkpt lat="44.13269" lon="7.24452">
        <ele>1942.4</ele>
        <time>2023-02-05T12:48:57Z</time>
      </trkpt>
      <trkpt lat="44.13268" lon="7.24454">
        <ele>1942.6</ele>
        <time>2023-02-05T12:48:58Z</time>
      </trkpt>
      <trkpt lat="44.13268" lon="7.24454">
        <ele>1942.8</ele>
        <time>2023-02-05T12:48:59Z</time>
      </trkpt>
      <trkpt lat="44.13267" lon="7.24455">
        <ele>1942.5</ele>
        <time>2023-02-05T12:49:00Z</time>
      </trkpt>
      <trkpt lat="44.13267" lon="7.24456">
        <ele>1942.3</ele>
        <time>2023-02-05T12:49:01Z</time>
      </trkpt>
      <trkpt lat="44.13267" lon="7.24458">
        <ele>1942.1</ele>
        <time>2023-02-05T12:49:02Z</time>
      </trkpt>
      <trkpt lat="44.13266" lon="7.2446">
        <ele>1941.9</ele>
        <time>2023-02-05T12:49:03Z</time>
      </trkpt>
      <trkpt lat="44.13266" lon="7.24461">
        <ele>1941.9</ele>
        <time>2023-02-05T12:49:04Z</time>
      </trkpt>
      <trkpt lat="44.13265" lon="7.24462">
        <ele>1941.8</ele>
        <time>2023-02-05T12:49:05Z</time>
      </trkpt>
      <trkpt lat="44.13264" lon="7.24463">
        <ele>1941.8</ele>
        <time>2023-02-05T12:49:06Z</time>
      </trkpt>
      <trkpt lat="44.13264" lon="7.24464">
        <ele>1941.1</ele>
        <time>2023-02-05T12:49:07Z</time>
      </trkpt>
      <trkpt lat="44.13268" lon="7.24467">
        <ele>1941</ele>
        <time>2023-02-05T12:49:08Z</time>
      </trkpt>
      <trkpt lat="44.13267" lon="7.24468">
        <ele>1940.7</ele>
        <time>2023-02-05T12:49:09Z</time>
      </trkpt>
      <trkpt lat="44.13267" lon="7.2447">
        <ele>1941.1</ele>
        <time>2023-02-05T12:49:10Z</time>
      </trkpt>
      <trkpt lat="44.13266" lon="7.24471">
        <ele>1941</ele>
        <time>2023-02-05T12:49:11Z</time>
      </trkpt>
      <trkpt lat="44.13266" lon="7.24472">
        <ele>1940.7</ele>
        <time>2023-02-05T12:49:12Z</time>
      </trkpt>
      <trkpt lat="44.13265" lon="7.24473">
        <ele>1939.4</ele>
        <time>2023-02-05T12:49:13Z</time>
      </trkpt>
      <trkpt lat="44.13264" lon="7.24474">
        <ele>1939.5</ele>
        <time>2023-02-05T12:49:14Z</time>
      </trkpt>
      <trkpt lat="44.13264" lon="7.24475">
        <ele>1939.3</ele>
        <time>2023-02-05T12:49:15Z</time>
      </trkpt>
      <trkpt lat="44.13264" lon="7.24477">
        <ele>1939.6</ele>
        <time>2023-02-05T12:49:16Z</time>
      </trkpt>
      <trkpt lat="44.13264" lon="7.24479">
        <ele>1939.5</ele>
        <time>2023-02-05T12:49:17Z</time>
      </trkpt>
      <trkpt lat="44.13264" lon="7.2448">
        <ele>1939.3</ele>
        <time>2023-02-05T12:49:18Z</time>
      </trkpt>
      <trkpt lat="44.13264" lon="7.24481">
        <ele>1939.1</ele>
        <time>2023-02-05T12:49:19Z</time>
      </trkpt>
      <trkpt lat="44.13261" lon="7.24481">
        <ele>1939.1</ele>
        <time>2023-02-05T12:49:20Z</time>
      </trkpt>
      <trkpt lat="44.13259" lon="7.2448">
        <ele>1939.1</ele>
        <time>2023-02-05T12:49:21Z</time>
      </trkpt>
      <trkpt lat="44.13257" lon="7.24481">
        <ele>1939.5</ele>
        <time>2023-02-05T12:49:22Z</time>
      </trkpt>
      <trkpt lat="44.13255" lon="7.24481">
        <ele>1939.8</ele>
        <time>2023-02-05T12:49:23Z</time>
      </trkpt>
      <trkpt lat="44.13254" lon="7.24481">
        <ele>1939.6</ele>
        <time>2023-02-05T12:49:24Z</time>
      </trkpt>
      <trkpt lat="44.13254" lon="7.24483">
        <ele>1939.4</ele>
        <time>2023-02-05T12:49:25Z</time>
      </trkpt>
      <trkpt lat="44.13253" lon="7.24484">
        <ele>1939.4</ele>
        <time>2023-02-05T12:49:26Z</time>
      </trkpt>
      <trkpt lat="44.13253" lon="7.24485">
        <ele>1939.9</ele>
        <time>2023-02-05T12:49:27Z</time>
      </trkpt>
      <trkpt lat="44.13254" lon="7.24487">
        <ele>1938.6</ele>
        <time>2023-02-05T12:49:28Z</time>
      </trkpt>
      <trkpt lat="44.13252" lon="7.24489">
        <ele>1938.7</ele>
        <time>2023-02-05T12:49:29Z</time>
      </trkpt>
      <trkpt lat="44.13251" lon="7.2449">
        <ele>1938.5</ele>
        <time>2023-02-05T12:49:30Z</time>
      </trkpt>
      <trkpt lat="44.1325" lon="7.24491">
        <ele>1938.4</ele>
        <time>2023-02-05T12:49:31Z</time>
      </trkpt>
      <trkpt lat="44.1325" lon="7.24493">
        <ele>1938.5</ele>
        <time>2023-02-05T12:49:32Z</time>
      </trkpt>
      <trkpt lat="44.1325" lon="7.24495">
        <ele>1938.5</ele>
        <time>2023-02-05T12:49:33Z</time>
      </trkpt>
      <trkpt lat="44.1325" lon="7.24496">
        <ele>1938.4</ele>
        <time>2023-02-05T12:49:34Z</time>
      </trkpt>
      <trkpt lat="44.1325" lon="7.24498">
        <ele>1938.3</ele>
        <time>2023-02-05T12:49:35Z</time>
      </trkpt>
      <trkpt lat="44.1325" lon="7.245">
        <ele>1937.8</ele>
        <time>2023-02-05T12:49:36Z</time>
      </trkpt>
      <trkpt lat="44.1325" lon="7.24501">
        <ele>1937.6</ele>
        <time>2023-02-05T12:49:37Z</time>
      </trkpt>
      <trkpt lat="44.13249" lon="7.24503">
        <ele>1937.5</ele>
        <time>2023-02-05T12:49:38Z</time>
      </trkpt>
      <trkpt lat="44.13249" lon="7.24504">
        <ele>1937.5</ele>
        <time>2023-02-05T12:49:39Z</time>
      </trkpt>
      <trkpt lat="44.13249" lon="7.24506">
        <ele>1937.3</ele>
        <time>2023-02-05T12:49:40Z</time>
      </trkpt>
      <trkpt lat="44.13249" lon="7.24507">
        <ele>1937.2</ele>
        <time>2023-02-05T12:49:41Z</time>
      </trkpt>
      <trkpt lat="44.1325" lon="7.2451">
        <ele>1936.8</ele>
        <time>2023-02-05T12:49:42Z</time>
      </trkpt>
      <trkpt lat="44.1325" lon="7.24511">
        <ele>1937</ele>
        <time>2023-02-05T12:49:43Z</time>
      </trkpt>
      <trkpt lat="44.13249" lon="7.24511">
        <ele>1936.6</ele>
        <time>2023-02-05T12:49:44Z</time>
      </trkpt>
      <trkpt lat="44.13249" lon="7.24512">
        <ele>1936.6</ele>
        <time>2023-02-05T12:49:45Z</time>
      </trkpt>
      <trkpt lat="44.13249" lon="7.24513">
        <ele>1936.6</ele>
        <time>2023-02-05T12:49:46Z</time>
      </trkpt>
      <trkpt lat="44.13249" lon="7.24514">
        <ele>1936.5</ele>
        <time>2023-02-05T12:49:47Z</time>
      </trkpt>
      <trkpt lat="44.13249" lon="7.24516">
        <ele>1936.1</ele>
        <time>2023-02-05T12:49:48Z</time>
      </trkpt>
      <trkpt lat="44.1325" lon="7.24518">
        <ele>1935.9</ele>
        <time>2023-02-05T12:49:49Z</time>
      </trkpt>
      <trkpt lat="44.13251" lon="7.2452">
        <ele>1935.8</ele>
        <time>2023-02-05T12:49:50Z</time>
      </trkpt>
      <trkpt lat="44.13253" lon="7.24523">
        <ele>1935.7</ele>
        <time>2023-02-05T12:49:51Z</time>
      </trkpt>
      <trkpt lat="44.13253" lon="7.24525">
        <ele>1935.8</ele>
        <time>2023-02-05T12:49:52Z</time>
      </trkpt>
      <trkpt lat="44.13253" lon="7.24526">
        <ele>1935.9</ele>
        <time>2023-02-05T12:49:53Z</time>
      </trkpt>
      <trkpt lat="44.13255" lon="7.24529">
        <ele>1936.2</ele>
        <time>2023-02-05T12:49:54Z</time>
      </trkpt>
      <trkpt lat="44.13253" lon="7.2453">
        <ele>1936.1</ele>
        <time>2023-02-05T12:49:55Z</time>
      </trkpt>
      <trkpt lat="44.13252" lon="7.24532">
        <ele>1935.8</ele>
        <time>2023-02-05T12:49:56Z</time>
      </trkpt>
      <trkpt lat="44.13251" lon="7.24532">
        <ele>1935.5</ele>
        <time>2023-02-05T12:49:57Z</time>
      </trkpt>
      <trkpt lat="44.1325" lon="7.24534">
        <ele>1935</ele>
        <time>2023-02-05T12:49:58Z</time>
      </trkpt>
      <trkpt lat="44.1325" lon="7.24535">
        <ele>1934.1</ele>
        <time>2023-02-05T12:49:59Z</time>
      </trkpt>
      <trkpt lat="44.1325" lon="7.24536">
        <ele>1933.9</ele>
        <time>2023-02-05T12:50:00Z</time>
      </trkpt>
      <trkpt lat="44.13249" lon="7.24537">
        <ele>1933.9</ele>
        <time>2023-02-05T12:50:01Z</time>
      </trkpt>
      <trkpt lat="44.13249" lon="7.24538">
        <ele>1933.9</ele>
        <time>2023-02-05T12:50:02Z</time>
      </trkpt>
      <trkpt lat="44.1325" lon="7.24539">
        <ele>1933.9</ele>
        <time>2023-02-05T12:50:03Z</time>
      </trkpt>
      <trkpt lat="44.13249" lon="7.2454">
        <ele>1934.3</ele>
        <time>2023-02-05T12:50:04Z</time>
      </trkpt>
      <trkpt lat="44.13249" lon="7.24541">
        <ele>1934.6</ele>
        <time>2023-02-05T12:50:05Z</time>
      </trkpt>
      <trkpt lat="44.13247" lon="7.24541">
        <ele>1934.5</ele>
        <time>2023-02-05T12:50:06Z</time>
      </trkpt>
      <trkpt lat="44.13247" lon="7.24542">
        <ele>1934.5</ele>
        <time>2023-02-05T12:50:07Z</time>
      </trkpt>
      <trkpt lat="44.13246" lon="7.24543">
        <ele>1934.2</ele>
        <time>2023-02-05T12:50:08Z</time>
      </trkpt>
      <trkpt lat="44.13246" lon="7.24544">
        <ele>1934.4</ele>
        <time>2023-02-05T12:50:09Z</time>
      </trkpt>
      <trkpt lat="44.13246" lon="7.24545">
        <ele>1934.1</ele>
        <time>2023-02-05T12:50:10Z</time>
      </trkpt>
      <trkpt lat="44.13246" lon="7.24547">
        <ele>1934.4</ele>
        <time>2023-02-05T12:50:11Z</time>
      </trkpt>
      <trkpt lat="44.13244" lon="7.24548">
        <ele>1933.8</ele>
        <time>2023-02-05T12:50:12Z</time>
      </trkpt>
      <trkpt lat="44.13244" lon="7.24549">
        <ele>1934.1</ele>
        <time>2023-02-05T12:50:13Z</time>
      </trkpt>
      <trkpt lat="44.13243" lon="7.2455">
        <ele>1933.9</ele>
        <time>2023-02-05T12:50:14Z</time>
      </trkpt>
      <trkpt lat="44.13242" lon="7.24551">
        <ele>1933.6</ele>
        <time>2023-02-05T12:50:15Z</time>
      </trkpt>
      <trkpt lat="44.13242" lon="7.24552">
        <ele>1933.4</ele>
        <time>2023-02-05T12:50:16Z</time>
      </trkpt>
      <trkpt lat="44.13243" lon="7.24553">
        <ele>1933.4</ele>
        <time>2023-02-05T12:50:17Z</time>
      </trkpt>
      <trkpt lat="44.13242" lon="7.24554">
        <ele>1932.5</ele>
        <time>2023-02-05T12:50:18Z</time>
      </trkpt>
      <trkpt lat="44.13242" lon="7.24556">
        <ele>1932.5</ele>
        <time>2023-02-05T12:50:19Z</time>
      </trkpt>
      <trkpt lat="44.13243" lon="7.24558">
        <ele>1932.3</ele>
        <time>2023-02-05T12:50:20Z</time>
      </trkpt>
      <trkpt lat="44.13243" lon="7.24558">
        <ele>1932.4</ele>
        <time>2023-02-05T12:50:21Z</time>
      </trkpt>
      <trkpt lat="44.13243" lon="7.24559">
        <ele>1932.2</ele>
        <time>2023-02-05T12:50:22Z</time>
      </trkpt>
      <trkpt lat="44.13243" lon="7.24561">
        <ele>1932.1</ele>
        <time>2023-02-05T12:50:23Z</time>
      </trkpt>
      <trkpt lat="44.13244" lon="7.24563">
        <ele>1932</ele>
        <time>2023-02-05T12:50:24Z</time>
      </trkpt>
      <trkpt lat="44.13244" lon="7.24564">
        <ele>1931.7</ele>
        <time>2023-02-05T12:50:25Z</time>
      </trkpt>
      <trkpt lat="44.13244" lon="7.24565">
        <ele>1931.6</ele>
        <time>2023-02-05T12:50:26Z</time>
      </trkpt>
      <trkpt lat="44.13244" lon="7.24567">
        <ele>1931.4</ele>
        <time>2023-02-05T12:50:27Z</time>
      </trkpt>
      <trkpt lat="44.13245" lon="7.24567">
        <ele>1931.2</ele>
        <time>2023-02-05T12:50:28Z</time>
      </trkpt>
      <trkpt lat="44.13244" lon="7.24569">
        <ele>1931.3</ele>
        <time>2023-02-05T12:50:29Z</time>
      </trkpt>
      <trkpt lat="44.13243" lon="7.2457">
        <ele>1930.8</ele>
        <time>2023-02-05T12:50:30Z</time>
      </trkpt>
      <trkpt lat="44.13242" lon="7.24571">
        <ele>1931.2</ele>
        <time>2023-02-05T12:50:31Z</time>
      </trkpt>
      <trkpt lat="44.1324" lon="7.24571">
        <ele>1930.7</ele>
        <time>2023-02-05T12:50:32Z</time>
      </trkpt>
      <trkpt lat="44.1324" lon="7.24573">
        <ele>1930.3</ele>
        <time>2023-02-05T12:50:33Z</time>
      </trkpt>
      <trkpt lat="44.13239" lon="7.24573">
        <ele>1930.3</ele>
        <time>2023-02-05T12:50:34Z</time>
      </trkpt>
      <trkpt lat="44.13238" lon="7.24574">
        <ele>1930.2</ele>
        <time>2023-02-05T12:50:35Z</time>
      </trkpt>
      <trkpt lat="44.13238" lon="7.24576">
        <ele>1930.5</ele>
        <time>2023-02-05T12:50:36Z</time>
      </trkpt>
      <trkpt lat="44.13239" lon="7.24577">
        <ele>1929.9</ele>
        <time>2023-02-05T12:50:37Z</time>
      </trkpt>
      <trkpt lat="44.13238" lon="7.24578">
        <ele>1929.4</ele>
        <time>2023-02-05T12:50:38Z</time>
      </trkpt>
      <trkpt lat="44.13237" lon="7.24579">
        <ele>1929.7</ele>
        <time>2023-02-05T12:50:39Z</time>
      </trkpt>
      <trkpt lat="44.13237" lon="7.2458">
        <ele>1929.2</ele>
        <time>2023-02-05T12:50:40Z</time>
      </trkpt>
      <trkpt lat="44.13236" lon="7.24581">
        <ele>1929.1</ele>
        <time>2023-02-05T12:50:41Z</time>
      </trkpt>
      <trkpt lat="44.13236" lon="7.24583">
        <ele>1929.2</ele>
        <time>2023-02-05T12:50:42Z</time>
      </trkpt>
      <trkpt lat="44.13235" lon="7.24585">
        <ele>1929.3</ele>
        <time>2023-02-05T12:50:43Z</time>
      </trkpt>
      <trkpt lat="44.13234" lon="7.24585">
        <ele>1929.4</ele>
        <time>2023-02-05T12:50:44Z</time>
      </trkpt>
      <trkpt lat="44.13233" lon="7.24587">
        <ele>1929.3</ele>
        <time>2023-02-05T12:50:45Z</time>
      </trkpt>
      <trkpt lat="44.13232" lon="7.24589">
        <ele>1928.9</ele>
        <time>2023-02-05T12:50:46Z</time>
      </trkpt>
      <trkpt lat="44.13231" lon="7.2459">
        <ele>1928.9</ele>
        <time>2023-02-05T12:50:47Z</time>
      </trkpt>
      <trkpt lat="44.13229" lon="7.24592">
        <ele>1928.7</ele>
        <time>2023-02-05T12:50:48Z</time>
      </trkpt>
      <trkpt lat="44.13228" lon="7.24592">
        <ele>1928.6</ele>
        <time>2023-02-05T12:50:49Z</time>
      </trkpt>
      <trkpt lat="44.13227" lon="7.24594">
        <ele>1928.5</ele>
        <time>2023-02-05T12:50:50Z</time>
      </trkpt>
      <trkpt lat="44.13226" lon="7.24595">
        <ele>1928.3</ele>
        <time>2023-02-05T12:50:51Z</time>
      </trkpt>
      <trkpt lat="44.13225" lon="7.24596">
        <ele>1928.7</ele>
        <time>2023-02-05T12:50:52Z</time>
      </trkpt>
      <trkpt lat="44.13225" lon="7.24597">
        <ele>1928.9</ele>
        <time>2023-02-05T12:50:53Z</time>
      </trkpt>
      <trkpt lat="44.13224" lon="7.24598">
        <ele>1928.6</ele>
        <time>2023-02-05T12:50:54Z</time>
      </trkpt>
      <trkpt lat="44.13223" lon="7.24599">
        <ele>1928.4</ele>
        <time>2023-02-05T12:50:55Z</time>
      </trkpt>
      <trkpt lat="44.13222" lon="7.246">
        <ele>1928.2</ele>
        <time>2023-02-05T12:50:56Z</time>
      </trkpt>
      <trkpt lat="44.13223" lon="7.24602">
        <ele>1928</ele>
        <time>2023-02-05T12:50:57Z</time>
      </trkpt>
      <trkpt lat="44.13223" lon="7.24603">
        <ele>1927.1</ele>
        <time>2023-02-05T12:50:58Z</time>
      </trkpt>
      <trkpt lat="44.13222" lon="7.24604">
        <ele>1926.6</ele>
        <time>2023-02-05T12:50:59Z</time>
      </trkpt>
      <trkpt lat="44.13223" lon="7.24607">
        <ele>1926.2</ele>
        <time>2023-02-05T12:51:00Z</time>
      </trkpt>
      <trkpt lat="44.13222" lon="7.24608">
        <ele>1926</ele>
        <time>2023-02-05T12:51:01Z</time>
      </trkpt>
      <trkpt lat="44.13222" lon="7.24609">
        <ele>1925.9</ele>
        <time>2023-02-05T12:51:02Z</time>
      </trkpt>
      <trkpt lat="44.13221" lon="7.24609">
        <ele>1926</ele>
        <time>2023-02-05T12:51:03Z</time>
      </trkpt>
      <trkpt lat="44.13222" lon="7.2461">
        <ele>1925.9</ele>
        <time>2023-02-05T12:51:04Z</time>
      </trkpt>
      <trkpt lat="44.13222" lon="7.24611">
        <ele>1926</ele>
        <time>2023-02-05T12:51:05Z</time>
      </trkpt>
      <trkpt lat="44.13221" lon="7.24612">
        <ele>1925.8</ele>
        <time>2023-02-05T12:51:06Z</time>
      </trkpt>
      <trkpt lat="44.13221" lon="7.24613">
        <ele>1925.6</ele>
        <time>2023-02-05T12:51:07Z</time>
      </trkpt>
      <trkpt lat="44.13219" lon="7.24614">
        <ele>1925.2</ele>
        <time>2023-02-05T12:51:08Z</time>
      </trkpt>
      <trkpt lat="44.13219" lon="7.24615">
        <ele>1925</ele>
        <time>2023-02-05T12:51:09Z</time>
      </trkpt>
      <trkpt lat="44.13219" lon="7.24616">
        <ele>1924.6</ele>
        <time>2023-02-05T12:51:10Z</time>
      </trkpt>
      <trkpt lat="44.13218" lon="7.24616">
        <ele>1924.5</ele>
        <time>2023-02-05T12:51:11Z</time>
      </trkpt>
      <trkpt lat="44.13219" lon="7.24618">
        <ele>1924.5</ele>
        <time>2023-02-05T12:51:12Z</time>
      </trkpt>
      <trkpt lat="44.1322" lon="7.24619">
        <ele>1924.1</ele>
        <time>2023-02-05T12:51:13Z</time>
      </trkpt>
      <trkpt lat="44.13218" lon="7.2462">
        <ele>1923.7</ele>
        <time>2023-02-05T12:51:14Z</time>
      </trkpt>
      <trkpt lat="44.13218" lon="7.24621">
        <ele>1923.7</ele>
        <time>2023-02-05T12:51:15Z</time>
      </trkpt>
      <trkpt lat="44.13219" lon="7.24621">
        <ele>1923.5</ele>
        <time>2023-02-05T12:51:16Z</time>
      </trkpt>
      <trkpt lat="44.1322" lon="7.24622">
        <ele>1923.6</ele>
        <time>2023-02-05T12:51:17Z</time>
      </trkpt>
      <trkpt lat="44.13219" lon="7.24623">
        <ele>1923.3</ele>
        <time>2023-02-05T12:51:18Z</time>
      </trkpt>
      <trkpt lat="44.13219" lon="7.24625">
        <ele>1923.5</ele>
        <time>2023-02-05T12:51:19Z</time>
      </trkpt>
      <trkpt lat="44.13219" lon="7.24626">
        <ele>1923.2</ele>
        <time>2023-02-05T12:51:20Z</time>
      </trkpt>
      <trkpt lat="44.13218" lon="7.24626">
        <ele>1923.3</ele>
        <time>2023-02-05T12:51:21Z</time>
      </trkpt>
      <trkpt lat="44.13218" lon="7.24626">
        <ele>1922.9</ele>
        <time>2023-02-05T12:51:22Z</time>
      </trkpt>
      <trkpt lat="44.13217" lon="7.24627">
        <ele>1922.6</ele>
        <time>2023-02-05T12:51:23Z</time>
      </trkpt>
      <trkpt lat="44.13217" lon="7.24628">
        <ele>1922.8</ele>
        <time>2023-02-05T12:51:24Z</time>
      </trkpt>
      <trkpt lat="44.13215" lon="7.24628">
        <ele>1922.6</ele>
        <time>2023-02-05T12:51:25Z</time>
      </trkpt>
      <trkpt lat="44.13214" lon="7.24629">
        <ele>1922.6</ele>
        <time>2023-02-05T12:51:26Z</time>
      </trkpt>
      <trkpt lat="44.13211" lon="7.24629">
        <ele>1922.4</ele>
        <time>2023-02-05T12:51:27Z</time>
      </trkpt>
      <trkpt lat="44.1321" lon="7.2463">
        <ele>1922.5</ele>
        <time>2023-02-05T12:51:28Z</time>
      </trkpt>
      <trkpt lat="44.13206" lon="7.2463">
        <ele>1922.3</ele>
        <time>2023-02-05T12:51:29Z</time>
      </trkpt>
      <trkpt lat="44.13205" lon="7.24631">
        <ele>1922.1</ele>
        <time>2023-02-05T12:51:30Z</time>
      </trkpt>
      <trkpt lat="44.13203" lon="7.24631">
        <ele>1921.9</ele>
        <time>2023-02-05T12:51:31Z</time>
      </trkpt>
      <trkpt lat="44.13202" lon="7.24632">
        <ele>1921.8</ele>
        <time>2023-02-05T12:51:32Z</time>
      </trkpt>
      <trkpt lat="44.13201" lon="7.24633">
        <ele>1921.6</ele>
        <time>2023-02-05T12:51:33Z</time>
      </trkpt>
      <trkpt lat="44.132" lon="7.24634">
        <ele>1922.2</ele>
        <time>2023-02-05T12:51:34Z</time>
      </trkpt>
      <trkpt lat="44.13199" lon="7.24634">
        <ele>1922</ele>
        <time>2023-02-05T12:51:35Z</time>
      </trkpt>
      <trkpt lat="44.13198" lon="7.24636">
        <ele>1921.8</ele>
        <time>2023-02-05T12:51:36Z</time>
      </trkpt>
      <trkpt lat="44.13196" lon="7.24635">
        <ele>1921.7</ele>
        <time>2023-02-05T12:51:37Z</time>
      </trkpt>
      <trkpt lat="44.13195" lon="7.24636">
        <ele>1921.7</ele>
        <time>2023-02-05T12:51:38Z</time>
      </trkpt>
      <trkpt lat="44.13195" lon="7.24637">
        <ele>1920.5</ele>
        <time>2023-02-05T12:51:39Z</time>
      </trkpt>
      <trkpt lat="44.13192" lon="7.24637">
        <ele>1921.5</ele>
        <time>2023-02-05T12:51:40Z</time>
      </trkpt>
      <trkpt lat="44.13191" lon="7.24638">
        <ele>1921.4</ele>
        <time>2023-02-05T12:51:41Z</time>
      </trkpt>
      <trkpt lat="44.13187" lon="7.24638">
        <ele>1921.2</ele>
        <time>2023-02-05T12:51:42Z</time>
      </trkpt>
      <trkpt lat="44.13186" lon="7.24639">
        <ele>1921.1</ele>
        <time>2023-02-05T12:51:43Z</time>
      </trkpt>
      <trkpt lat="44.13183" lon="7.2464">
        <ele>1920.9</ele>
        <time>2023-02-05T12:51:44Z</time>
      </trkpt>
      <trkpt lat="44.13184" lon="7.24641">
        <ele>1921</ele>
        <time>2023-02-05T12:51:45Z</time>
      </trkpt>
      <trkpt lat="44.13181" lon="7.24641">
        <ele>1920.7</ele>
        <time>2023-02-05T12:51:46Z</time>
      </trkpt>
      <trkpt lat="44.13188" lon="7.24647">
        <ele>1920.4</ele>
        <time>2023-02-05T12:51:47Z</time>
      </trkpt>
      <trkpt lat="44.13189" lon="7.24648">
        <ele>1920</ele>
        <time>2023-02-05T12:51:48Z</time>
      </trkpt>
      <trkpt lat="44.13188" lon="7.24649">
        <ele>1919.5</ele>
        <time>2023-02-05T12:51:49Z</time>
      </trkpt>
      <trkpt lat="44.13187" lon="7.24651">
        <ele>1919.4</ele>
        <time>2023-02-05T12:51:50Z</time>
      </trkpt>
      <trkpt lat="44.13188" lon="7.24652">
        <ele>1919.1</ele>
        <time>2023-02-05T12:51:51Z</time>
      </trkpt>
      <trkpt lat="44.13187" lon="7.24653">
        <ele>1919</ele>
        <time>2023-02-05T12:51:52Z</time>
      </trkpt>
      <trkpt lat="44.13186" lon="7.24653">
        <ele>1919.1</ele>
        <time>2023-02-05T12:51:53Z</time>
      </trkpt>
      <trkpt lat="44.13185" lon="7.24654">
        <ele>1919.1</ele>
        <time>2023-02-05T12:51:54Z</time>
      </trkpt>
      <trkpt lat="44.13184" lon="7.24654">
        <ele>1918.8</ele>
        <time>2023-02-05T12:51:55Z</time>
      </trkpt>
      <trkpt lat="44.13184" lon="7.24655">
        <ele>1918.6</ele>
        <time>2023-02-05T12:51:56Z</time>
      </trkpt>
      <trkpt lat="44.13184" lon="7.24655">
        <ele>1918.5</ele>
        <time>2023-02-05T12:51:57Z</time>
      </trkpt>
      <trkpt lat="44.13184" lon="7.24657">
        <ele>1918.7</ele>
        <time>2023-02-05T12:51:58Z</time>
      </trkpt>
      <trkpt lat="44.13182" lon="7.24658">
        <ele>1918.5</ele>
        <time>2023-02-05T12:51:59Z</time>
      </trkpt>
      <trkpt lat="44.1318" lon="7.24659">
        <ele>1918.3</ele>
        <time>2023-02-05T12:52:00Z</time>
      </trkpt>
      <trkpt lat="44.13177" lon="7.24659">
        <ele>1918.4</ele>
        <time>2023-02-05T12:52:01Z</time>
      </trkpt>
      <trkpt lat="44.13175" lon="7.2466">
        <ele>1918.1</ele>
        <time>2023-02-05T12:52:02Z</time>
      </trkpt>
      <trkpt lat="44.13174" lon="7.24661">
        <ele>1918.2</ele>
        <time>2023-02-05T12:52:03Z</time>
      </trkpt>
      <trkpt lat="44.13173" lon="7.24661">
        <ele>1917.7</ele>
        <time>2023-02-05T12:52:04Z</time>
      </trkpt>
      <trkpt lat="44.13171" lon="7.24661">
        <ele>1917.7</ele>
        <time>2023-02-05T12:52:05Z</time>
      </trkpt>
      <trkpt lat="44.13169" lon="7.24661">
        <ele>1917.4</ele>
        <time>2023-02-05T12:52:06Z</time>
      </trkpt>
      <trkpt lat="44.13167" lon="7.24662">
        <ele>1917.3</ele>
        <time>2023-02-05T12:52:07Z</time>
      </trkpt>
      <trkpt lat="44.13166" lon="7.24663">
        <ele>1917.1</ele>
        <time>2023-02-05T12:52:08Z</time>
      </trkpt>
      <trkpt lat="44.13163" lon="7.24662">
        <ele>1916.8</ele>
        <time>2023-02-05T12:52:09Z</time>
      </trkpt>
      <trkpt lat="44.13163" lon="7.24663">
        <ele>1916.6</ele>
        <time>2023-02-05T12:52:10Z</time>
      </trkpt>
      <trkpt lat="44.13161" lon="7.24665">
        <ele>1916.7</ele>
        <time>2023-02-05T12:52:11Z</time>
      </trkpt>
      <trkpt lat="44.13161" lon="7.24666">
        <ele>1916.4</ele>
        <time>2023-02-05T12:52:12Z</time>
      </trkpt>
      <trkpt lat="44.1316" lon="7.24667">
        <ele>1916.1</ele>
        <time>2023-02-05T12:52:13Z</time>
      </trkpt>
      <trkpt lat="44.13158" lon="7.24668">
        <ele>1915.9</ele>
        <time>2023-02-05T12:52:14Z</time>
      </trkpt>
      <trkpt lat="44.13157" lon="7.24669">
        <ele>1916.4</ele>
        <time>2023-02-05T12:52:15Z</time>
      </trkpt>
      <trkpt lat="44.13156" lon="7.2467">
        <ele>1916</ele>
        <time>2023-02-05T12:52:16Z</time>
      </trkpt>
      <trkpt lat="44.13156" lon="7.24671">
        <ele>1915.9</ele>
        <time>2023-02-05T12:52:17Z</time>
      </trkpt>
      <trkpt lat="44.13155" lon="7.24672">
        <ele>1915.9</ele>
        <time>2023-02-05T12:52:18Z</time>
      </trkpt>
      <trkpt lat="44.13155" lon="7.24673">
        <ele>1916</ele>
        <time>2023-02-05T12:52:19Z</time>
      </trkpt>
      <trkpt lat="44.13156" lon="7.24675">
        <ele>1915.6</ele>
        <time>2023-02-05T12:52:20Z</time>
      </trkpt>
      <trkpt lat="44.13154" lon="7.24675">
        <ele>1914.8</ele>
        <time>2023-02-05T12:52:21Z</time>
      </trkpt>
      <trkpt lat="44.13154" lon="7.24676">
        <ele>1914.3</ele>
        <time>2023-02-05T12:52:22Z</time>
      </trkpt>
      <trkpt lat="44.13153" lon="7.24677">
        <ele>1914.3</ele>
        <time>2023-02-05T12:52:23Z</time>
      </trkpt>
      <trkpt lat="44.13152" lon="7.24678">
        <ele>1914.3</ele>
        <time>2023-02-05T12:52:24Z</time>
      </trkpt>
      <trkpt lat="44.13151" lon="7.24678">
        <ele>1914.2</ele>
        <time>2023-02-05T12:52:25Z</time>
      </trkpt>
      <trkpt lat="44.1315" lon="7.24678">
        <ele>1914</ele>
        <time>2023-02-05T12:52:26Z</time>
      </trkpt>
      <trkpt lat="44.1315" lon="7.2468">
        <ele>1913.8</ele>
        <time>2023-02-05T12:52:27Z</time>
      </trkpt>
      <trkpt lat="44.13149" lon="7.24681">
        <ele>1913.5</ele>
        <time>2023-02-05T12:52:28Z</time>
      </trkpt>
      <trkpt lat="44.13148" lon="7.24682">
        <ele>1913.4</ele>
        <time>2023-02-05T12:52:29Z</time>
      </trkpt>
      <trkpt lat="44.13148" lon="7.24683">
        <ele>1913.1</ele>
        <time>2023-02-05T12:52:30Z</time>
      </trkpt>
      <trkpt lat="44.13147" lon="7.24684">
        <ele>1913</ele>
        <time>2023-02-05T12:52:31Z</time>
      </trkpt>
      <trkpt lat="44.13146" lon="7.24685">
        <ele>1912.8</ele>
        <time>2023-02-05T12:52:32Z</time>
      </trkpt>
      <trkpt lat="44.13146" lon="7.24686">
        <ele>1912.7</ele>
        <time>2023-02-05T12:52:33Z</time>
      </trkpt>
      <trkpt lat="44.13145" lon="7.24687">
        <ele>1912.9</ele>
        <time>2023-02-05T12:52:34Z</time>
      </trkpt>
      <trkpt lat="44.13143" lon="7.24688">
        <ele>1912.7</ele>
        <time>2023-02-05T12:52:35Z</time>
      </trkpt>
      <trkpt lat="44.13141" lon="7.24689">
        <ele>1912.4</ele>
        <time>2023-02-05T12:52:36Z</time>
      </trkpt>
      <trkpt lat="44.1314" lon="7.2469">
        <ele>1912.4</ele>
        <time>2023-02-05T12:52:37Z</time>
      </trkpt>
      <trkpt lat="44.13139" lon="7.24691">
        <ele>1912.2</ele>
        <time>2023-02-05T12:52:38Z</time>
      </trkpt>
      <trkpt lat="44.13139" lon="7.24693">
        <ele>1912</ele>
        <time>2023-02-05T12:52:39Z</time>
      </trkpt>
      <trkpt lat="44.13138" lon="7.24694">
        <ele>1911.9</ele>
        <time>2023-02-05T12:52:40Z</time>
      </trkpt>
      <trkpt lat="44.13137" lon="7.24694">
        <ele>1911.8</ele>
        <time>2023-02-05T12:52:41Z</time>
      </trkpt>
      <trkpt lat="44.13137" lon="7.24696">
        <ele>1912</ele>
        <time>2023-02-05T12:52:42Z</time>
      </trkpt>
      <trkpt lat="44.13136" lon="7.24697">
        <ele>1911.6</ele>
        <time>2023-02-05T12:52:43Z</time>
      </trkpt>
      <trkpt lat="44.13135" lon="7.24698">
        <ele>1911.3</ele>
        <time>2023-02-05T12:52:44Z</time>
      </trkpt>
      <trkpt lat="44.13135" lon="7.24699">
        <ele>1911.2</ele>
        <time>2023-02-05T12:52:45Z</time>
      </trkpt>
      <trkpt lat="44.13135" lon="7.247">
        <ele>1911.1</ele>
        <time>2023-02-05T12:52:46Z</time>
      </trkpt>
      <trkpt lat="44.13133" lon="7.24699">
        <ele>1911</ele>
        <time>2023-02-05T12:52:47Z</time>
      </trkpt>
      <trkpt lat="44.13133" lon="7.24701">
        <ele>1911</ele>
        <time>2023-02-05T12:52:48Z</time>
      </trkpt>
      <trkpt lat="44.13134" lon="7.24703">
        <ele>1911</ele>
        <time>2023-02-05T12:52:49Z</time>
      </trkpt>
      <trkpt lat="44.13134" lon="7.24705">
        <ele>1910.9</ele>
        <time>2023-02-05T12:52:50Z</time>
      </trkpt>
      <trkpt lat="44.13134" lon="7.24706">
        <ele>1911</ele>
        <time>2023-02-05T12:52:51Z</time>
      </trkpt>
      <trkpt lat="44.13133" lon="7.24707">
        <ele>1910.7</ele>
        <time>2023-02-05T12:52:52Z</time>
      </trkpt>
      <trkpt lat="44.13131" lon="7.24707">
        <ele>1910.5</ele>
        <time>2023-02-05T12:52:53Z</time>
      </trkpt>
      <trkpt lat="44.1313" lon="7.24708">
        <ele>1910.5</ele>
        <time>2023-02-05T12:52:54Z</time>
      </trkpt>
      <trkpt lat="44.13129" lon="7.24708">
        <ele>1910.8</ele>
        <time>2023-02-05T12:52:55Z</time>
      </trkpt>
      <trkpt lat="44.13129" lon="7.24709">
        <ele>1910.6</ele>
        <time>2023-02-05T12:52:56Z</time>
      </trkpt>
      <trkpt lat="44.13128" lon="7.24709">
        <ele>1910.6</ele>
        <time>2023-02-05T12:52:57Z</time>
      </trkpt>
      <trkpt lat="44.13128" lon="7.24709">
        <ele>1910.7</ele>
        <time>2023-02-05T12:52:58Z</time>
      </trkpt>
      <trkpt lat="44.13128" lon="7.24709">
        <ele>1910.8</ele>
        <time>2023-02-05T12:52:59Z</time>
      </trkpt>
      <trkpt lat="44.13127" lon="7.2471">
        <ele>1910.6</ele>
        <time>2023-02-05T12:53:00Z</time>
      </trkpt>
      <trkpt lat="44.13126" lon="7.24711">
        <ele>1910.5</ele>
        <time>2023-02-05T12:53:01Z</time>
      </trkpt>
      <trkpt lat="44.13125" lon="7.24711">
        <ele>1910</ele>
        <time>2023-02-05T12:53:02Z</time>
      </trkpt>
      <trkpt lat="44.13124" lon="7.24712">
        <ele>1910.1</ele>
        <time>2023-02-05T12:53:03Z</time>
      </trkpt>
      <trkpt lat="44.13126" lon="7.24712">
        <ele>1910.2</ele>
        <time>2023-02-05T12:53:04Z</time>
      </trkpt>
      <trkpt lat="44.13125" lon="7.24713">
        <ele>1909.8</ele>
        <time>2023-02-05T12:53:05Z</time>
      </trkpt>
      <trkpt lat="44.13123" lon="7.24713">
        <ele>1909.6</ele>
        <time>2023-02-05T12:53:06Z</time>
      </trkpt>
      <trkpt lat="44.13123" lon="7.24713">
        <ele>1909.4</ele>
        <time>2023-02-05T12:53:07Z</time>
      </trkpt>
      <trkpt lat="44.13122" lon="7.24714">
        <ele>1908.9</ele>
        <time>2023-02-05T12:53:08Z</time>
      </trkpt>
      <trkpt lat="44.13124" lon="7.24714">
        <ele>1908.7</ele>
        <time>2023-02-05T12:53:09Z</time>
      </trkpt>
      <trkpt lat="44.13123" lon="7.24715">
        <ele>1908.4</ele>
        <time>2023-02-05T12:53:10Z</time>
      </trkpt>
      <trkpt lat="44.13123" lon="7.24715">
        <ele>1908.1</ele>
        <time>2023-02-05T12:53:11Z</time>
      </trkpt>
      <trkpt lat="44.13122" lon="7.24715">
        <ele>1907.8</ele>
        <time>2023-02-05T12:53:12Z</time>
      </trkpt>
      <trkpt lat="44.13123" lon="7.24716">
        <ele>1907.9</ele>
        <time>2023-02-05T12:53:13Z</time>
      </trkpt>
      <trkpt lat="44.13121" lon="7.24717">
        <ele>1906.8</ele>
        <time>2023-02-05T12:53:14Z</time>
      </trkpt>
      <trkpt lat="44.13121" lon="7.24717">
        <ele>1906.5</ele>
        <time>2023-02-05T12:53:15Z</time>
      </trkpt>
      <trkpt lat="44.1312" lon="7.24717">
        <ele>1906.7</ele>
        <time>2023-02-05T12:53:16Z</time>
      </trkpt>
      <trkpt lat="44.13114" lon="7.24717">
        <ele>1906.5</ele>
        <time>2023-02-05T12:53:17Z</time>
      </trkpt>
      <trkpt lat="44.1311" lon="7.24717">
        <ele>1906.2</ele>
        <time>2023-02-05T12:53:18Z</time>
      </trkpt>
      <trkpt lat="44.1311" lon="7.2472">
        <ele>1905.9</ele>
        <time>2023-02-05T12:53:19Z</time>
      </trkpt>
      <trkpt lat="44.13108" lon="7.2472">
        <ele>1905.8</ele>
        <time>2023-02-05T12:53:20Z</time>
      </trkpt>
      <trkpt lat="44.13105" lon="7.24721">
        <ele>1905.6</ele>
        <time>2023-02-05T12:53:21Z</time>
      </trkpt>
      <trkpt lat="44.13104" lon="7.24722">
        <ele>1905.4</ele>
        <time>2023-02-05T12:53:22Z</time>
      </trkpt>
      <trkpt lat="44.13103" lon="7.24724">
        <ele>1905.3</ele>
        <time>2023-02-05T12:53:23Z</time>
      </trkpt>
      <trkpt lat="44.13102" lon="7.24726">
        <ele>1905.2</ele>
        <time>2023-02-05T12:53:24Z</time>
      </trkpt>
      <trkpt lat="44.13104" lon="7.24729">
        <ele>1904.7</ele>
        <time>2023-02-05T12:53:25Z</time>
      </trkpt>
      <trkpt lat="44.13105" lon="7.24731">
        <ele>1903.7</ele>
        <time>2023-02-05T12:53:26Z</time>
      </trkpt>
      <trkpt lat="44.13105" lon="7.24733">
        <ele>1903.7</ele>
        <time>2023-02-05T12:53:27Z</time>
      </trkpt>
      <trkpt lat="44.13105" lon="7.24735">
        <ele>1903.7</ele>
        <time>2023-02-05T12:53:28Z</time>
      </trkpt>
      <trkpt lat="44.13104" lon="7.24736">
        <ele>1903.9</ele>
        <time>2023-02-05T12:53:29Z</time>
      </trkpt>
      <trkpt lat="44.13104" lon="7.24737">
        <ele>1903.7</ele>
        <time>2023-02-05T12:53:30Z</time>
      </trkpt>
      <trkpt lat="44.13103" lon="7.24738">
        <ele>1903.8</ele>
        <time>2023-02-05T12:53:31Z</time>
      </trkpt>
      <trkpt lat="44.13102" lon="7.2474">
        <ele>1903.8</ele>
        <time>2023-02-05T12:53:32Z</time>
      </trkpt>
      <trkpt lat="44.13101" lon="7.24741">
        <ele>1903.9</ele>
        <time>2023-02-05T12:53:33Z</time>
      </trkpt>
      <trkpt lat="44.13101" lon="7.24742">
        <ele>1904.1</ele>
        <time>2023-02-05T12:53:34Z</time>
      </trkpt>
      <trkpt lat="44.131" lon="7.24742">
        <ele>1904.1</ele>
        <time>2023-02-05T12:53:35Z</time>
      </trkpt>
      <trkpt lat="44.13099" lon="7.24742">
        <ele>1904</ele>
        <time>2023-02-05T12:53:36Z</time>
      </trkpt>
      <trkpt lat="44.13098" lon="7.24743">
        <ele>1904</ele>
        <time>2023-02-05T12:53:37Z</time>
      </trkpt>
      <trkpt lat="44.13097" lon="7.24744">
        <ele>1904.3</ele>
        <time>2023-02-05T12:53:38Z</time>
      </trkpt>
      <trkpt lat="44.13095" lon="7.24745">
        <ele>1904</ele>
        <time>2023-02-05T12:53:39Z</time>
      </trkpt>
      <trkpt lat="44.13095" lon="7.24746">
        <ele>1903.7</ele>
        <time>2023-02-05T12:53:40Z</time>
      </trkpt>
      <trkpt lat="44.13095" lon="7.24748">
        <ele>1903.4</ele>
        <time>2023-02-05T12:53:41Z</time>
      </trkpt>
      <trkpt lat="44.13096" lon="7.2475">
        <ele>1902.5</ele>
        <time>2023-02-05T12:53:42Z</time>
      </trkpt>
      <trkpt lat="44.13095" lon="7.2475">
        <ele>1896.9</ele>
        <time>2023-02-05T12:53:43Z</time>
      </trkpt>
      <trkpt lat="44.13094" lon="7.24751">
        <ele>1897.1</ele>
        <time>2023-02-05T12:53:44Z</time>
      </trkpt>
      <trkpt lat="44.13094" lon="7.24752">
        <ele>1898</ele>
        <time>2023-02-05T12:53:45Z</time>
      </trkpt>
      <trkpt lat="44.13094" lon="7.24753">
        <ele>1898.8</ele>
        <time>2023-02-05T12:53:46Z</time>
      </trkpt>
      <trkpt lat="44.13094" lon="7.24754">
        <ele>1900</ele>
        <time>2023-02-05T12:53:47Z</time>
      </trkpt>
      <trkpt lat="44.13094" lon="7.24755">
        <ele>1900.5</ele>
        <time>2023-02-05T12:53:48Z</time>
      </trkpt>
      <trkpt lat="44.13093" lon="7.24758">
        <ele>1900.9</ele>
        <time>2023-02-05T12:53:49Z</time>
      </trkpt>
      <trkpt lat="44.13094" lon="7.24759">
        <ele>1901.3</ele>
        <time>2023-02-05T12:53:50Z</time>
      </trkpt>
      <trkpt lat="44.13093" lon="7.2476">
        <ele>1901.6</ele>
        <time>2023-02-05T12:53:51Z</time>
      </trkpt>
      <trkpt lat="44.13092" lon="7.2476">
        <ele>1901.8</ele>
        <time>2023-02-05T12:53:52Z</time>
      </trkpt>
      <trkpt lat="44.1309" lon="7.2476">
        <ele>1901.9</ele>
        <time>2023-02-05T12:53:53Z</time>
      </trkpt>
      <trkpt lat="44.1309" lon="7.24761">
        <ele>1901.8</ele>
        <time>2023-02-05T12:53:54Z</time>
      </trkpt>
      <trkpt lat="44.13089" lon="7.24762">
        <ele>1902</ele>
        <time>2023-02-05T12:53:55Z</time>
      </trkpt>
      <trkpt lat="44.13089" lon="7.24764">
        <ele>1901.7</ele>
        <time>2023-02-05T12:53:56Z</time>
      </trkpt>
      <trkpt lat="44.13087" lon="7.24765">
        <ele>1901.6</ele>
        <time>2023-02-05T12:53:57Z</time>
      </trkpt>
      <trkpt lat="44.13086" lon="7.24766">
        <ele>1901.5</ele>
        <time>2023-02-05T12:53:58Z</time>
      </trkpt>
      <trkpt lat="44.13088" lon="7.24769">
        <ele>1901.6</ele>
        <time>2023-02-05T12:53:59Z</time>
      </trkpt>
      <trkpt lat="44.13088" lon="7.24772">
        <ele>1901.6</ele>
        <time>2023-02-05T12:54:00Z</time>
      </trkpt>
      <trkpt lat="44.13087" lon="7.24773">
        <ele>1901.6</ele>
        <time>2023-02-05T12:54:01Z</time>
      </trkpt>
      <trkpt lat="44.13086" lon="7.24774">
        <ele>1901.3</ele>
        <time>2023-02-05T12:54:02Z</time>
      </trkpt>
      <trkpt lat="44.13086" lon="7.24776">
        <ele>1901.6</ele>
        <time>2023-02-05T12:54:03Z</time>
      </trkpt>
      <trkpt lat="44.13086" lon="7.24777">
        <ele>1901.9</ele>
        <time>2023-02-05T12:54:04Z</time>
      </trkpt>
      <trkpt lat="44.13086" lon="7.24779">
        <ele>1901.8</ele>
        <time>2023-02-05T12:54:05Z</time>
      </trkpt>
      <trkpt lat="44.13086" lon="7.2478">
        <ele>1901.5</ele>
        <time>2023-02-05T12:54:06Z</time>
      </trkpt>
      <trkpt lat="44.13085" lon="7.24781">
        <ele>1901.4</ele>
        <time>2023-02-05T12:54:07Z</time>
      </trkpt>
      <trkpt lat="44.13085" lon="7.24783">
        <ele>1901.1</ele>
        <time>2023-02-05T12:54:08Z</time>
      </trkpt>
      <trkpt lat="44.13085" lon="7.24785">
        <ele>1900.8</ele>
        <time>2023-02-05T12:54:09Z</time>
      </trkpt>
      <trkpt lat="44.13084" lon="7.24785">
        <ele>1901.1</ele>
        <time>2023-02-05T12:54:10Z</time>
      </trkpt>
      <trkpt lat="44.13083" lon="7.24787">
        <ele>1901.3</ele>
        <time>2023-02-05T12:54:11Z</time>
      </trkpt>
      <trkpt lat="44.13083" lon="7.24789">
        <ele>1901.5</ele>
        <time>2023-02-05T12:54:12Z</time>
      </trkpt>
      <trkpt lat="44.13083" lon="7.24791">
        <ele>1901.2</ele>
        <time>2023-02-05T12:54:13Z</time>
      </trkpt>
      <trkpt lat="44.13083" lon="7.24792">
        <ele>1901</ele>
        <time>2023-02-05T12:54:14Z</time>
      </trkpt>
      <trkpt lat="44.13084" lon="7.24794">
        <ele>1900.6</ele>
        <time>2023-02-05T12:54:15Z</time>
      </trkpt>
      <trkpt lat="44.13084" lon="7.24795">
        <ele>1899.8</ele>
        <time>2023-02-05T12:54:16Z</time>
      </trkpt>
      <trkpt lat="44.1308" lon="7.24795">
        <ele>1899.6</ele>
        <time>2023-02-05T12:54:17Z</time>
      </trkpt>
      <trkpt lat="44.1308" lon="7.24797">
        <ele>1899.4</ele>
        <time>2023-02-05T12:54:18Z</time>
      </trkpt>
      <trkpt lat="44.13079" lon="7.24798">
        <ele>1899.3</ele>
        <time>2023-02-05T12:54:19Z</time>
      </trkpt>
      <trkpt lat="44.13081" lon="7.24802">
        <ele>1899.2</ele>
        <time>2023-02-05T12:54:20Z</time>
      </trkpt>
      <trkpt lat="44.13084" lon="7.24805">
        <ele>1899.4</ele>
        <time>2023-02-05T12:54:21Z</time>
      </trkpt>
      <trkpt lat="44.13083" lon="7.24807">
        <ele>1899.1</ele>
        <time>2023-02-05T12:54:22Z</time>
      </trkpt>
      <trkpt lat="44.13083" lon="7.24809">
        <ele>1898.8</ele>
        <time>2023-02-05T12:54:23Z</time>
      </trkpt>
      <trkpt lat="44.13083" lon="7.2481">
        <ele>1898.3</ele>
        <time>2023-02-05T12:54:24Z</time>
      </trkpt>
      <trkpt lat="44.13083" lon="7.24811">
        <ele>1897.7</ele>
        <time>2023-02-05T12:54:25Z</time>
      </trkpt>
      <trkpt lat="44.13083" lon="7.24811">
        <ele>1897.6</ele>
        <time>2023-02-05T12:54:26Z</time>
      </trkpt>
      <trkpt lat="44.13082" lon="7.24812">
        <ele>1897.6</ele>
        <time>2023-02-05T12:54:27Z</time>
      </trkpt>
      <trkpt lat="44.13083" lon="7.24813">
        <ele>1897.5</ele>
        <time>2023-02-05T12:54:28Z</time>
      </trkpt>
      <trkpt lat="44.13083" lon="7.24814">
        <ele>1897.1</ele>
        <time>2023-02-05T12:54:29Z</time>
      </trkpt>
      <trkpt lat="44.13082" lon="7.24815">
        <ele>1897.3</ele>
        <time>2023-02-05T12:54:30Z</time>
      </trkpt>
      <trkpt lat="44.13081" lon="7.24815">
        <ele>1897.5</ele>
        <time>2023-02-05T12:54:31Z</time>
      </trkpt>
      <trkpt lat="44.1308" lon="7.24816">
        <ele>1897.6</ele>
        <time>2023-02-05T12:54:32Z</time>
      </trkpt>
      <trkpt lat="44.13081" lon="7.24816">
        <ele>1897.7</ele>
        <time>2023-02-05T12:54:33Z</time>
      </trkpt>
      <trkpt lat="44.13079" lon="7.24816">
        <ele>1898.4</ele>
        <time>2023-02-05T12:54:34Z</time>
      </trkpt>
      <trkpt lat="44.13077" lon="7.24816">
        <ele>1898.4</ele>
        <time>2023-02-05T12:54:35Z</time>
      </trkpt>
      <trkpt lat="44.13078" lon="7.24817">
        <ele>1897.9</ele>
        <time>2023-02-05T12:54:36Z</time>
      </trkpt>
      <trkpt lat="44.13077" lon="7.24817">
        <ele>1897.6</ele>
        <time>2023-02-05T12:54:37Z</time>
      </trkpt>
      <trkpt lat="44.13075" lon="7.24817">
        <ele>1897.3</ele>
        <time>2023-02-05T12:54:38Z</time>
      </trkpt>
      <trkpt lat="44.13074" lon="7.24817">
        <ele>1897.5</ele>
        <time>2023-02-05T12:54:39Z</time>
      </trkpt>
      <trkpt lat="44.13075" lon="7.24817">
        <ele>1897.4</ele>
        <time>2023-02-05T12:54:40Z</time>
      </trkpt>
      <trkpt lat="44.13075" lon="7.24818">
        <ele>1897.3</ele>
        <time>2023-02-05T12:54:41Z</time>
      </trkpt>
      <trkpt lat="44.13074" lon="7.24819">
        <ele>1897.2</ele>
        <time>2023-02-05T12:54:42Z</time>
      </trkpt>
      <trkpt lat="44.13075" lon="7.2482">
        <ele>1896.9</ele>
        <time>2023-02-05T12:54:43Z</time>
      </trkpt>
      <trkpt lat="44.13073" lon="7.2482">
        <ele>1896.8</ele>
        <time>2023-02-05T12:54:44Z</time>
      </trkpt>
      <trkpt lat="44.13073" lon="7.24821">
        <ele>1896.6</ele>
        <time>2023-02-05T12:54:45Z</time>
      </trkpt>
      <trkpt lat="44.13072" lon="7.24822">
        <ele>1897.1</ele>
        <time>2023-02-05T12:54:46Z</time>
      </trkpt>
      <trkpt lat="44.13072" lon="7.24823">
        <ele>1896.9</ele>
        <time>2023-02-05T12:54:47Z</time>
      </trkpt>
      <trkpt lat="44.13073" lon="7.24825">
        <ele>1896.8</ele>
        <time>2023-02-05T12:54:48Z</time>
      </trkpt>
      <trkpt lat="44.13073" lon="7.24827">
        <ele>1896.6</ele>
        <time>2023-02-05T12:54:49Z</time>
      </trkpt>
      <trkpt lat="44.13077" lon="7.24829">
        <ele>1896.5</ele>
        <time>2023-02-05T12:54:50Z</time>
      </trkpt>
      <trkpt lat="44.13079" lon="7.24831">
        <ele>1896.3</ele>
        <time>2023-02-05T12:54:51Z</time>
      </trkpt>
      <trkpt lat="44.13077" lon="7.24832">
        <ele>1896.3</ele>
        <time>2023-02-05T12:54:52Z</time>
      </trkpt>
      <trkpt lat="44.13075" lon="7.24833">
        <ele>1896.2</ele>
        <time>2023-02-05T12:54:53Z</time>
      </trkpt>
      <trkpt lat="44.13074" lon="7.24834">
        <ele>1896</ele>
        <time>2023-02-05T12:54:54Z</time>
      </trkpt>
      <trkpt lat="44.13073" lon="7.24835">
        <ele>1895.8</ele>
        <time>2023-02-05T12:54:55Z</time>
      </trkpt>
      <trkpt lat="44.13072" lon="7.24836">
        <ele>1896.2</ele>
        <time>2023-02-05T12:54:56Z</time>
      </trkpt>
      <trkpt lat="44.13072" lon="7.24836">
        <ele>1896.7</ele>
        <time>2023-02-05T12:54:57Z</time>
      </trkpt>
      <trkpt lat="44.13072" lon="7.24838">
        <ele>1897.3</ele>
        <time>2023-02-05T12:54:58Z</time>
      </trkpt>
      <trkpt lat="44.13072" lon="7.24839">
        <ele>1897.4</ele>
        <time>2023-02-05T12:54:59Z</time>
      </trkpt>
      <trkpt lat="44.13071" lon="7.2484">
        <ele>1896.8</ele>
        <time>2023-02-05T12:55:00Z</time>
      </trkpt>
      <trkpt lat="44.13071" lon="7.24841">
        <ele>1896.4</ele>
        <time>2023-02-05T12:55:01Z</time>
      </trkpt>
      <trkpt lat="44.13071" lon="7.24841">
        <ele>1896.3</ele>
        <time>2023-02-05T12:55:02Z</time>
      </trkpt>
      <trkpt lat="44.13069" lon="7.24842">
        <ele>1896</ele>
        <time>2023-02-05T12:55:03Z</time>
      </trkpt>
      <trkpt lat="44.13069" lon="7.24843">
        <ele>1896.1</ele>
        <time>2023-02-05T12:55:04Z</time>
      </trkpt>
      <trkpt lat="44.13069" lon="7.24845">
        <ele>1895.9</ele>
        <time>2023-02-05T12:55:05Z</time>
      </trkpt>
      <trkpt lat="44.13069" lon="7.24846">
        <ele>1896.2</ele>
        <time>2023-02-05T12:55:06Z</time>
      </trkpt>
      <trkpt lat="44.13067" lon="7.24846">
        <ele>1896.2</ele>
        <time>2023-02-05T12:55:07Z</time>
      </trkpt>
      <trkpt lat="44.13066" lon="7.24848">
        <ele>1895.9</ele>
        <time>2023-02-05T12:55:08Z</time>
      </trkpt>
      <trkpt lat="44.13065" lon="7.24849">
        <ele>1895.6</ele>
        <time>2023-02-05T12:55:09Z</time>
      </trkpt>
      <trkpt lat="44.13064" lon="7.2485">
        <ele>1895.4</ele>
        <time>2023-02-05T12:55:10Z</time>
      </trkpt>
      <trkpt lat="44.13063" lon="7.24851">
        <ele>1895.5</ele>
        <time>2023-02-05T12:55:11Z</time>
      </trkpt>
      <trkpt lat="44.13062" lon="7.24853">
        <ele>1896.2</ele>
        <time>2023-02-05T12:55:12Z</time>
      </trkpt>
      <trkpt lat="44.13061" lon="7.24853">
        <ele>1895.9</ele>
        <time>2023-02-05T12:55:13Z</time>
      </trkpt>
      <trkpt lat="44.13061" lon="7.24853">
        <ele>1895.8</ele>
        <time>2023-02-05T12:55:14Z</time>
      </trkpt>
      <trkpt lat="44.13061" lon="7.24854">
        <ele>1895.5</ele>
        <time>2023-02-05T12:55:15Z</time>
      </trkpt>
      <trkpt lat="44.13062" lon="7.24855">
        <ele>1895.5</ele>
        <time>2023-02-05T12:55:16Z</time>
      </trkpt>
      <trkpt lat="44.13062" lon="7.24855">
        <ele>1896.4</ele>
        <time>2023-02-05T12:55:17Z</time>
      </trkpt>
      <trkpt lat="44.13061" lon="7.24855">
        <ele>1896.5</ele>
        <time>2023-02-05T12:55:18Z</time>
      </trkpt>
      <trkpt lat="44.13061" lon="7.24856">
        <ele>1896.3</ele>
        <time>2023-02-05T12:55:19Z</time>
      </trkpt>
      <trkpt lat="44.1306" lon="7.24855">
        <ele>1896.1</ele>
        <time>2023-02-05T12:55:20Z</time>
      </trkpt>
      <trkpt lat="44.1306" lon="7.24856">
        <ele>1895.9</ele>
        <time>2023-02-05T12:55:21Z</time>
      </trkpt>
      <trkpt lat="44.1306" lon="7.24856">
        <ele>1895.7</ele>
        <time>2023-02-05T12:55:22Z</time>
      </trkpt>
      <trkpt lat="44.13059" lon="7.24857">
        <ele>1895.5</ele>
        <time>2023-02-05T12:55:23Z</time>
      </trkpt>
      <trkpt lat="44.13058" lon="7.24858">
        <ele>1895.4</ele>
        <time>2023-02-05T12:55:24Z</time>
      </trkpt>
      <trkpt lat="44.13056" lon="7.24859">
        <ele>1895.2</ele>
        <time>2023-02-05T12:55:25Z</time>
      </trkpt>
      <trkpt lat="44.13052" lon="7.24858">
        <ele>1895</ele>
        <time>2023-02-05T12:55:26Z</time>
      </trkpt>
      <trkpt lat="44.13051" lon="7.24858">
        <ele>1894.5</ele>
        <time>2023-02-05T12:55:27Z</time>
      </trkpt>
      <trkpt lat="44.1305" lon="7.24859">
        <ele>1894.3</ele>
        <time>2023-02-05T12:55:28Z</time>
      </trkpt>
      <trkpt lat="44.13049" lon="7.2486">
        <ele>1894.1</ele>
        <time>2023-02-05T12:55:29Z</time>
      </trkpt>
      <trkpt lat="44.13048" lon="7.24861">
        <ele>1893.9</ele>
        <time>2023-02-05T12:55:30Z</time>
      </trkpt>
      <trkpt lat="44.13047" lon="7.24862">
        <ele>1893.6</ele>
        <time>2023-02-05T12:55:31Z</time>
      </trkpt>
      <trkpt lat="44.13046" lon="7.24862">
        <ele>1893.4</ele>
        <time>2023-02-05T12:55:32Z</time>
      </trkpt>
      <trkpt lat="44.13044" lon="7.24863">
        <ele>1893.2</ele>
        <time>2023-02-05T12:55:33Z</time>
      </trkpt>
      <trkpt lat="44.13042" lon="7.24864">
        <ele>1893.1</ele>
        <time>2023-02-05T12:55:34Z</time>
      </trkpt>
      <trkpt lat="44.13042" lon="7.24864">
        <ele>1892.9</ele>
        <time>2023-02-05T12:55:35Z</time>
      </trkpt>
      <trkpt lat="44.13039" lon="7.24864">
        <ele>1892.8</ele>
        <time>2023-02-05T12:55:36Z</time>
      </trkpt>
      <trkpt lat="44.13038" lon="7.24865">
        <ele>1892.6</ele>
        <time>2023-02-05T12:55:37Z</time>
      </trkpt>
      <trkpt lat="44.13037" lon="7.24866">
        <ele>1892.4</ele>
        <time>2023-02-05T12:55:38Z</time>
      </trkpt>
      <trkpt lat="44.13037" lon="7.24867">
        <ele>1892.1</ele>
        <time>2023-02-05T12:55:39Z</time>
      </trkpt>
      <trkpt lat="44.13036" lon="7.24867">
        <ele>1891.7</ele>
        <time>2023-02-05T12:55:40Z</time>
      </trkpt>
      <trkpt lat="44.13035" lon="7.24868">
        <ele>1892</ele>
        <time>2023-02-05T12:55:41Z</time>
      </trkpt>
      <trkpt lat="44.13034" lon="7.24868">
        <ele>1891.7</ele>
        <time>2023-02-05T12:55:42Z</time>
      </trkpt>
      <trkpt lat="44.13033" lon="7.24868">
        <ele>1891.5</ele>
        <time>2023-02-05T12:55:43Z</time>
      </trkpt>
      <trkpt lat="44.13032" lon="7.24869">
        <ele>1891.3</ele>
        <time>2023-02-05T12:55:44Z</time>
      </trkpt>
      <trkpt lat="44.1303" lon="7.24869">
        <ele>1891</ele>
        <time>2023-02-05T12:55:45Z</time>
      </trkpt>
      <trkpt lat="44.13029" lon="7.2487">
        <ele>1891.1</ele>
        <time>2023-02-05T12:55:46Z</time>
      </trkpt>
      <trkpt lat="44.13029" lon="7.2487">
        <ele>1890.7</ele>
        <time>2023-02-05T12:55:47Z</time>
      </trkpt>
      <trkpt lat="44.13029" lon="7.24871">
        <ele>1890.1</ele>
        <time>2023-02-05T12:55:48Z</time>
      </trkpt>
      <trkpt lat="44.13029" lon="7.24873">
        <ele>1890</ele>
        <time>2023-02-05T12:55:49Z</time>
      </trkpt>
      <trkpt lat="44.13027" lon="7.24873">
        <ele>1890</ele>
        <time>2023-02-05T12:55:50Z</time>
      </trkpt>
      <trkpt lat="44.13026" lon="7.24874">
        <ele>1889.8</ele>
        <time>2023-02-05T12:55:51Z</time>
      </trkpt>
      <trkpt lat="44.13025" lon="7.24874">
        <ele>1889.7</ele>
        <time>2023-02-05T12:55:52Z</time>
      </trkpt>
      <trkpt lat="44.13025" lon="7.24874">
        <ele>1889.6</ele>
        <time>2023-02-05T12:55:53Z</time>
      </trkpt>
      <trkpt lat="44.13024" lon="7.24875">
        <ele>1889.8</ele>
        <time>2023-02-05T12:55:54Z</time>
      </trkpt>
      <trkpt lat="44.13021" lon="7.24876">
        <ele>1890</ele>
        <time>2023-02-05T12:55:55Z</time>
      </trkpt>
      <trkpt lat="44.1302" lon="7.24877">
        <ele>1889.9</ele>
        <time>2023-02-05T12:55:56Z</time>
      </trkpt>
      <trkpt lat="44.13019" lon="7.24878">
        <ele>1889.7</ele>
        <time>2023-02-05T12:55:57Z</time>
      </trkpt>
      <trkpt lat="44.13018" lon="7.24878">
        <ele>1889.5</ele>
        <time>2023-02-05T12:55:58Z</time>
      </trkpt>
      <trkpt lat="44.13018" lon="7.24879">
        <ele>1889.2</ele>
        <time>2023-02-05T12:55:59Z</time>
      </trkpt>
      <trkpt lat="44.13017" lon="7.2488">
        <ele>1889.2</ele>
        <time>2023-02-05T12:56:00Z</time>
      </trkpt>
      <trkpt lat="44.13016" lon="7.24881">
        <ele>1889</ele>
        <time>2023-02-05T12:56:01Z</time>
      </trkpt>
      <trkpt lat="44.13016" lon="7.24882">
        <ele>1888.8</ele>
        <time>2023-02-05T12:56:02Z</time>
      </trkpt>
      <trkpt lat="44.13014" lon="7.24882">
        <ele>1888.6</ele>
        <time>2023-02-05T12:56:03Z</time>
      </trkpt>
      <trkpt lat="44.13013" lon="7.24883">
        <ele>1888.4</ele>
        <time>2023-02-05T12:56:04Z</time>
      </trkpt>
      <trkpt lat="44.13011" lon="7.24883">
        <ele>1888.3</ele>
        <time>2023-02-05T12:56:05Z</time>
      </trkpt>
      <trkpt lat="44.1301" lon="7.24884">
        <ele>1887.7</ele>
        <time>2023-02-05T12:56:06Z</time>
      </trkpt>
      <trkpt lat="44.13008" lon="7.24885">
        <ele>1887.7</ele>
        <time>2023-02-05T12:56:07Z</time>
      </trkpt>
      <trkpt lat="44.13007" lon="7.24886">
        <ele>1887.6</ele>
        <time>2023-02-05T12:56:08Z</time>
      </trkpt>
      <trkpt lat="44.13007" lon="7.24887">
        <ele>1887.3</ele>
        <time>2023-02-05T12:56:09Z</time>
      </trkpt>
      <trkpt lat="44.13006" lon="7.24888">
        <ele>1887.1</ele>
        <time>2023-02-05T12:56:10Z</time>
      </trkpt>
      <trkpt lat="44.13005" lon="7.24888">
        <ele>1887</ele>
        <time>2023-02-05T12:56:11Z</time>
      </trkpt>
      <trkpt lat="44.13004" lon="7.2489">
        <ele>1886.8</ele>
        <time>2023-02-05T12:56:12Z</time>
      </trkpt>
      <trkpt lat="44.13004" lon="7.2489">
        <ele>1886.6</ele>
        <time>2023-02-05T12:56:13Z</time>
      </trkpt>
      <trkpt lat="44.13003" lon="7.2489">
        <ele>1886.4</ele>
        <time>2023-02-05T12:56:14Z</time>
      </trkpt>
      <trkpt lat="44.13003" lon="7.24892">
        <ele>1886.2</ele>
        <time>2023-02-05T12:56:15Z</time>
      </trkpt>
      <trkpt lat="44.13003" lon="7.24892">
        <ele>1885.9</ele>
        <time>2023-02-05T12:56:16Z</time>
      </trkpt>
      <trkpt lat="44.13002" lon="7.24893">
        <ele>1886</ele>
        <time>2023-02-05T12:56:17Z</time>
      </trkpt>
      <trkpt lat="44.13002" lon="7.24893">
        <ele>1885.6</ele>
        <time>2023-02-05T12:56:18Z</time>
      </trkpt>
      <trkpt lat="44.13002" lon="7.24894">
        <ele>1885.3</ele>
        <time>2023-02-05T12:56:19Z</time>
      </trkpt>
      <trkpt lat="44.13002" lon="7.24895">
        <ele>1885</ele>
        <time>2023-02-05T12:56:20Z</time>
      </trkpt>
      <trkpt lat="44.13002" lon="7.24896">
        <ele>1884.4</ele>
        <time>2023-02-05T12:56:21Z</time>
      </trkpt>
      <trkpt lat="44.13" lon="7.24896">
        <ele>1884.2</ele>
        <time>2023-02-05T12:56:22Z</time>
      </trkpt>
      <trkpt lat="44.13" lon="7.24897">
        <ele>1884.3</ele>
        <time>2023-02-05T12:56:23Z</time>
      </trkpt>
      <trkpt lat="44.13" lon="7.24898">
        <ele>1884</ele>
        <time>2023-02-05T12:56:24Z</time>
      </trkpt>
      <trkpt lat="44.13" lon="7.24898">
        <ele>1883.9</ele>
        <time>2023-02-05T12:56:25Z</time>
      </trkpt>
      <trkpt lat="44.13" lon="7.24898">
        <ele>1883.8</ele>
        <time>2023-02-05T12:56:26Z</time>
      </trkpt>
      <trkpt lat="44.13" lon="7.24899">
        <ele>1883.6</ele>
        <time>2023-02-05T12:56:27Z</time>
      </trkpt>
      <trkpt lat="44.12999" lon="7.24899">
        <ele>1883.4</ele>
        <time>2023-02-05T12:56:28Z</time>
      </trkpt>
      <trkpt lat="44.12998" lon="7.24899">
        <ele>1883.3</ele>
        <time>2023-02-05T12:56:29Z</time>
      </trkpt>
      <trkpt lat="44.12997" lon="7.24899">
        <ele>1883.1</ele>
        <time>2023-02-05T12:56:30Z</time>
      </trkpt>
      <trkpt lat="44.12997" lon="7.249">
        <ele>1883.2</ele>
        <time>2023-02-05T12:56:31Z</time>
      </trkpt>
      <trkpt lat="44.12996" lon="7.24901">
        <ele>1883.3</ele>
        <time>2023-02-05T12:56:32Z</time>
      </trkpt>
      <trkpt lat="44.12996" lon="7.24901">
        <ele>1883.2</ele>
        <time>2023-02-05T12:56:33Z</time>
      </trkpt>
      <trkpt lat="44.12995" lon="7.24901">
        <ele>1883.1</ele>
        <time>2023-02-05T12:56:34Z</time>
      </trkpt>
      <trkpt lat="44.12994" lon="7.24902">
        <ele>1882.9</ele>
        <time>2023-02-05T12:56:35Z</time>
      </trkpt>
      <trkpt lat="44.12994" lon="7.24903">
        <ele>1882.9</ele>
        <time>2023-02-05T12:56:36Z</time>
      </trkpt>
      <trkpt lat="44.12994" lon="7.24904">
        <ele>1882.7</ele>
        <time>2023-02-05T12:56:37Z</time>
      </trkpt>
      <trkpt lat="44.12994" lon="7.24905">
        <ele>1882.6</ele>
        <time>2023-02-05T12:56:38Z</time>
      </trkpt>
      <trkpt lat="44.12993" lon="7.24905">
        <ele>1882.5</ele>
        <time>2023-02-05T12:56:39Z</time>
      </trkpt>
      <trkpt lat="44.12994" lon="7.24906">
        <ele>1882.3</ele>
        <time>2023-02-05T12:56:40Z</time>
      </trkpt>
      <trkpt lat="44.12993" lon="7.24906">
        <ele>1882.1</ele>
        <time>2023-02-05T12:56:41Z</time>
      </trkpt>
      <trkpt lat="44.12994" lon="7.24907">
        <ele>1881.9</ele>
        <time>2023-02-05T12:56:42Z</time>
      </trkpt>
      <trkpt lat="44.12993" lon="7.24907">
        <ele>1880.7</ele>
        <time>2023-02-05T12:56:43Z</time>
      </trkpt>
      <trkpt lat="44.12993" lon="7.24908">
        <ele>1881.1</ele>
        <time>2023-02-05T12:56:44Z</time>
      </trkpt>
      <trkpt lat="44.12994" lon="7.24909">
        <ele>1881.3</ele>
        <time>2023-02-05T12:56:45Z</time>
      </trkpt>
      <trkpt lat="44.12994" lon="7.24909">
        <ele>1881.2</ele>
        <time>2023-02-05T12:56:46Z</time>
      </trkpt>
      <trkpt lat="44.12994" lon="7.24909">
        <ele>1881.1</ele>
        <time>2023-02-05T12:56:47Z</time>
      </trkpt>
      <trkpt lat="44.12995" lon="7.2491">
        <ele>1881.2</ele>
        <time>2023-02-05T12:56:48Z</time>
      </trkpt>
      <trkpt lat="44.12995" lon="7.2491">
        <ele>1880.9</ele>
        <time>2023-02-05T12:56:49Z</time>
      </trkpt>
      <trkpt lat="44.12993" lon="7.24912">
        <ele>1880.7</ele>
        <time>2023-02-05T12:56:50Z</time>
      </trkpt>
      <trkpt lat="44.12993" lon="7.24912">
        <ele>1880.6</ele>
        <time>2023-02-05T12:56:51Z</time>
      </trkpt>
      <trkpt lat="44.12992" lon="7.24913">
        <ele>1880.5</ele>
        <time>2023-02-05T12:56:52Z</time>
      </trkpt>
      <trkpt lat="44.1299" lon="7.24913">
        <ele>1880.5</ele>
        <time>2023-02-05T12:56:53Z</time>
      </trkpt>
      <trkpt lat="44.12989" lon="7.24914">
        <ele>1880.4</ele>
        <time>2023-02-05T12:56:54Z</time>
      </trkpt>
      <trkpt lat="44.12988" lon="7.24916">
        <ele>1880.2</ele>
        <time>2023-02-05T12:56:55Z</time>
      </trkpt>
      <trkpt lat="44.12988" lon="7.24916">
        <ele>1880.4</ele>
        <time>2023-02-05T12:56:56Z</time>
      </trkpt>
      <trkpt lat="44.12988" lon="7.24917">
        <ele>1880.1</ele>
        <time>2023-02-05T12:56:57Z</time>
      </trkpt>
      <trkpt lat="44.12988" lon="7.24917">
        <ele>1880.3</ele>
        <time>2023-02-05T12:56:58Z</time>
      </trkpt>
      <trkpt lat="44.12987" lon="7.24918">
        <ele>1880.1</ele>
        <time>2023-02-05T12:56:59Z</time>
      </trkpt>
      <trkpt lat="44.12986" lon="7.24919">
        <ele>1880.2</ele>
        <time>2023-02-05T12:57:00Z</time>
      </trkpt>
      <trkpt lat="44.12985" lon="7.2492">
        <ele>1879.6</ele>
        <time>2023-02-05T12:57:01Z</time>
      </trkpt>
      <trkpt lat="44.12985" lon="7.24921">
        <ele>1879.1</ele>
        <time>2023-02-05T12:57:02Z</time>
      </trkpt>
      <trkpt lat="44.12984" lon="7.24922">
        <ele>1877.9</ele>
        <time>2023-02-05T12:57:03Z</time>
      </trkpt>
      <trkpt lat="44.12983" lon="7.24923">
        <ele>1878</ele>
        <time>2023-02-05T12:57:04Z</time>
      </trkpt>
      <trkpt lat="44.12981" lon="7.24924">
        <ele>1878.4</ele>
        <time>2023-02-05T12:57:05Z</time>
      </trkpt>
      <trkpt lat="44.12981" lon="7.24925">
        <ele>1878.8</ele>
        <time>2023-02-05T12:57:06Z</time>
      </trkpt>
      <trkpt lat="44.1298" lon="7.24925">
        <ele>1878.6</ele>
        <time>2023-02-05T12:57:07Z</time>
      </trkpt>
      <trkpt lat="44.12979" lon="7.24926">
        <ele>1878.5</ele>
        <time>2023-02-05T12:57:08Z</time>
      </trkpt>
      <trkpt lat="44.12979" lon="7.24926">
        <ele>1878.4</ele>
        <time>2023-02-05T12:57:09Z</time>
      </trkpt>
      <trkpt lat="44.12978" lon="7.24926">
        <ele>1878.2</ele>
        <time>2023-02-05T12:57:10Z</time>
      </trkpt>
      <trkpt lat="44.12977" lon="7.24926">
        <ele>1878.2</ele>
        <time>2023-02-05T12:57:11Z</time>
      </trkpt>
      <trkpt lat="44.12977" lon="7.24927">
        <ele>1878.1</ele>
        <time>2023-02-05T12:57:12Z</time>
      </trkpt>
      <trkpt lat="44.12977" lon="7.24927">
        <ele>1878.1</ele>
        <time>2023-02-05T12:57:13Z</time>
      </trkpt>
      <trkpt lat="44.12975" lon="7.24927">
        <ele>1878</ele>
        <time>2023-02-05T12:57:14Z</time>
      </trkpt>
      <trkpt lat="44.12974" lon="7.24927">
        <ele>1877.8</ele>
        <time>2023-02-05T12:57:15Z</time>
      </trkpt>
      <trkpt lat="44.12973" lon="7.24928">
        <ele>1877.6</ele>
        <time>2023-02-05T12:57:16Z</time>
      </trkpt>
      <trkpt lat="44.12974" lon="7.24929">
        <ele>1877.4</ele>
        <time>2023-02-05T12:57:17Z</time>
      </trkpt>
      <trkpt lat="44.12973" lon="7.2493">
        <ele>1877.4</ele>
        <time>2023-02-05T12:57:18Z</time>
      </trkpt>
      <trkpt lat="44.12972" lon="7.2493">
        <ele>1877.7</ele>
        <time>2023-02-05T12:57:19Z</time>
      </trkpt>
      <trkpt lat="44.12971" lon="7.24931">
        <ele>1877.5</ele>
        <time>2023-02-05T12:57:20Z</time>
      </trkpt>
      <trkpt lat="44.12969" lon="7.24932">
        <ele>1877.2</ele>
        <time>2023-02-05T12:57:21Z</time>
      </trkpt>
      <trkpt lat="44.1297" lon="7.24934">
        <ele>1877</ele>
        <time>2023-02-05T12:57:22Z</time>
      </trkpt>
      <trkpt lat="44.12967" lon="7.24935">
        <ele>1876.7</ele>
        <time>2023-02-05T12:57:23Z</time>
      </trkpt>
      <trkpt lat="44.12966" lon="7.24936">
        <ele>1876.2</ele>
        <time>2023-02-05T12:57:24Z</time>
      </trkpt>
      <trkpt lat="44.12964" lon="7.24937">
        <ele>1875.9</ele>
        <time>2023-02-05T12:57:25Z</time>
      </trkpt>
      <trkpt lat="44.12963" lon="7.24937">
        <ele>1875.7</ele>
        <time>2023-02-05T12:57:26Z</time>
      </trkpt>
      <trkpt lat="44.12962" lon="7.24938">
        <ele>1875.5</ele>
        <time>2023-02-05T12:57:27Z</time>
      </trkpt>
      <trkpt lat="44.12962" lon="7.24938">
        <ele>1875.6</ele>
        <time>2023-02-05T12:57:28Z</time>
      </trkpt>
      <trkpt lat="44.12962" lon="7.24939">
        <ele>1875.5</ele>
        <time>2023-02-05T12:57:29Z</time>
      </trkpt>
      <trkpt lat="44.12962" lon="7.24939">
        <ele>1875.1</ele>
        <time>2023-02-05T12:57:30Z</time>
      </trkpt>
      <trkpt lat="44.1296" lon="7.24939">
        <ele>1874.9</ele>
        <time>2023-02-05T12:57:31Z</time>
      </trkpt>
      <trkpt lat="44.12959" lon="7.24939">
        <ele>1874.6</ele>
        <time>2023-02-05T12:57:32Z</time>
      </trkpt>
      <trkpt lat="44.12958" lon="7.2494">
        <ele>1874.5</ele>
        <time>2023-02-05T12:57:33Z</time>
      </trkpt>
      <trkpt lat="44.12956" lon="7.2494">
        <ele>1874.3</ele>
        <time>2023-02-05T12:57:34Z</time>
      </trkpt>
      <trkpt lat="44.12956" lon="7.24941">
        <ele>1874.2</ele>
        <time>2023-02-05T12:57:35Z</time>
      </trkpt>
      <trkpt lat="44.12955" lon="7.24941">
        <ele>1874.3</ele>
        <time>2023-02-05T12:57:36Z</time>
      </trkpt>
      <trkpt lat="44.12952" lon="7.24941">
        <ele>1874.5</ele>
        <time>2023-02-05T12:57:37Z</time>
      </trkpt>
      <trkpt lat="44.1295" lon="7.24942">
        <ele>1874.5</ele>
        <time>2023-02-05T12:57:38Z</time>
      </trkpt>
      <trkpt lat="44.12949" lon="7.24943">
        <ele>1874.5</ele>
        <time>2023-02-05T12:57:39Z</time>
      </trkpt>
      <trkpt lat="44.12948" lon="7.24945">
        <ele>1874.3</ele>
        <time>2023-02-05T12:57:40Z</time>
      </trkpt>
      <trkpt lat="44.12948" lon="7.24947">
        <ele>1874.2</ele>
        <time>2023-02-05T12:57:41Z</time>
      </trkpt>
      <trkpt lat="44.12947" lon="7.24949">
        <ele>1874.1</ele>
        <time>2023-02-05T12:57:42Z</time>
      </trkpt>
      <trkpt lat="44.12947" lon="7.2495">
        <ele>1873.9</ele>
        <time>2023-02-05T12:57:43Z</time>
      </trkpt>
      <trkpt lat="44.12947" lon="7.24952">
        <ele>1873.1</ele>
        <time>2023-02-05T12:57:44Z</time>
      </trkpt>
      <trkpt lat="44.12947" lon="7.24953">
        <ele>1872.9</ele>
        <time>2023-02-05T12:57:45Z</time>
      </trkpt>
      <trkpt lat="44.12947" lon="7.24955">
        <ele>1872.5</ele>
        <time>2023-02-05T12:57:46Z</time>
      </trkpt>
      <trkpt lat="44.12946" lon="7.24956">
        <ele>1872.3</ele>
        <time>2023-02-05T12:57:47Z</time>
      </trkpt>
      <trkpt lat="44.12946" lon="7.24957">
        <ele>1872.1</ele>
        <time>2023-02-05T12:57:48Z</time>
      </trkpt>
      <trkpt lat="44.12947" lon="7.24959">
        <ele>1872.2</ele>
        <time>2023-02-05T12:57:49Z</time>
      </trkpt>
      <trkpt lat="44.12945" lon="7.2496">
        <ele>1872</ele>
        <time>2023-02-05T12:57:50Z</time>
      </trkpt>
      <trkpt lat="44.12943" lon="7.24961">
        <ele>1871.7</ele>
        <time>2023-02-05T12:57:51Z</time>
      </trkpt>
      <trkpt lat="44.12943" lon="7.24962">
        <ele>1871.6</ele>
        <time>2023-02-05T12:57:52Z</time>
      </trkpt>
      <trkpt lat="44.12943" lon="7.24964">
        <ele>1871.4</ele>
        <time>2023-02-05T12:57:53Z</time>
      </trkpt>
      <trkpt lat="44.12941" lon="7.24965">
        <ele>1871.4</ele>
        <time>2023-02-05T12:57:54Z</time>
      </trkpt>
      <trkpt lat="44.12939" lon="7.24965">
        <ele>1871.4</ele>
        <time>2023-02-05T12:57:55Z</time>
      </trkpt>
      <trkpt lat="44.12938" lon="7.24965">
        <ele>1871.3</ele>
        <time>2023-02-05T12:57:56Z</time>
      </trkpt>
      <trkpt lat="44.12938" lon="7.24966">
        <ele>1871</ele>
        <time>2023-02-05T12:57:57Z</time>
      </trkpt>
      <trkpt lat="44.12938" lon="7.24968">
        <ele>1870.8</ele>
        <time>2023-02-05T12:57:58Z</time>
      </trkpt>
      <trkpt lat="44.12937" lon="7.24969">
        <ele>1870.6</ele>
        <time>2023-02-05T12:57:59Z</time>
      </trkpt>
      <trkpt lat="44.12936" lon="7.2497">
        <ele>1870.5</ele>
        <time>2023-02-05T12:58:00Z</time>
      </trkpt>
      <trkpt lat="44.12935" lon="7.2497">
        <ele>1870.4</ele>
        <time>2023-02-05T12:58:01Z</time>
      </trkpt>
      <trkpt lat="44.12933" lon="7.24969">
        <ele>1870.3</ele>
        <time>2023-02-05T12:58:02Z</time>
      </trkpt>
      <trkpt lat="44.12933" lon="7.2497">
        <ele>1870</ele>
        <time>2023-02-05T12:58:03Z</time>
      </trkpt>
      <trkpt lat="44.12933" lon="7.24971">
        <ele>1870.2</ele>
        <time>2023-02-05T12:58:04Z</time>
      </trkpt>
      <trkpt lat="44.12933" lon="7.24972">
        <ele>1870</ele>
        <time>2023-02-05T12:58:05Z</time>
      </trkpt>
      <trkpt lat="44.12934" lon="7.24973">
        <ele>1869.7</ele>
        <time>2023-02-05T12:58:06Z</time>
      </trkpt>
      <trkpt lat="44.12933" lon="7.24975">
        <ele>1869.6</ele>
        <time>2023-02-05T12:58:07Z</time>
      </trkpt>
      <trkpt lat="44.1293" lon="7.24975">
        <ele>1869.4</ele>
        <time>2023-02-05T12:58:08Z</time>
      </trkpt>
      <trkpt lat="44.12929" lon="7.24977">
        <ele>1869.2</ele>
        <time>2023-02-05T12:58:09Z</time>
      </trkpt>
      <trkpt lat="44.12929" lon="7.24979">
        <ele>1869.5</ele>
        <time>2023-02-05T12:58:10Z</time>
      </trkpt>
      <trkpt lat="44.12929" lon="7.2498">
        <ele>1869.4</ele>
        <time>2023-02-05T12:58:11Z</time>
      </trkpt>
      <trkpt lat="44.12928" lon="7.24982">
        <ele>1869</ele>
        <time>2023-02-05T12:58:12Z</time>
      </trkpt>
      <trkpt lat="44.12928" lon="7.24983">
        <ele>1868.9</ele>
        <time>2023-02-05T12:58:13Z</time>
      </trkpt>
      <trkpt lat="44.12927" lon="7.24985">
        <ele>1868.4</ele>
        <time>2023-02-05T12:58:14Z</time>
      </trkpt>
      <trkpt lat="44.12926" lon="7.24986">
        <ele>1868.3</ele>
        <time>2023-02-05T12:58:15Z</time>
      </trkpt>
      <trkpt lat="44.12926" lon="7.24987">
        <ele>1868.2</ele>
        <time>2023-02-05T12:58:16Z</time>
      </trkpt>
      <trkpt lat="44.12925" lon="7.24988">
        <ele>1868.1</ele>
        <time>2023-02-05T12:58:17Z</time>
      </trkpt>
      <trkpt lat="44.12925" lon="7.2499">
        <ele>1868</ele>
        <time>2023-02-05T12:58:18Z</time>
      </trkpt>
      <trkpt lat="44.12925" lon="7.24991">
        <ele>1867.2</ele>
        <time>2023-02-05T12:58:19Z</time>
      </trkpt>
      <trkpt lat="44.12925" lon="7.24993">
        <ele>1867.1</ele>
        <time>2023-02-05T12:58:20Z</time>
      </trkpt>
      <trkpt lat="44.12925" lon="7.24994">
        <ele>1867</ele>
        <time>2023-02-05T12:58:21Z</time>
      </trkpt>
      <trkpt lat="44.12925" lon="7.24995">
        <ele>1867.1</ele>
        <time>2023-02-05T12:58:22Z</time>
      </trkpt>
      <trkpt lat="44.12925" lon="7.24996">
        <ele>1867</ele>
        <time>2023-02-05T12:58:23Z</time>
      </trkpt>
      <trkpt lat="44.12925" lon="7.24997">
        <ele>1867</ele>
        <time>2023-02-05T12:58:24Z</time>
      </trkpt>
      <trkpt lat="44.12925" lon="7.24998">
        <ele>1866.7</ele>
        <time>2023-02-05T12:58:25Z</time>
      </trkpt>
      <trkpt lat="44.12925" lon="7.24999">
        <ele>1866.4</ele>
        <time>2023-02-05T12:58:26Z</time>
      </trkpt>
      <trkpt lat="44.12925" lon="7.25001">
        <ele>1866.3</ele>
        <time>2023-02-05T12:58:27Z</time>
      </trkpt>
      <trkpt lat="44.12923" lon="7.25001">
        <ele>1866.2</ele>
        <time>2023-02-05T12:58:28Z</time>
      </trkpt>
      <trkpt lat="44.12922" lon="7.25002">
        <ele>1866</ele>
        <time>2023-02-05T12:58:29Z</time>
      </trkpt>
      <trkpt lat="44.12922" lon="7.25002">
        <ele>1866</ele>
        <time>2023-02-05T12:58:30Z</time>
      </trkpt>
      <trkpt lat="44.12921" lon="7.25003">
        <ele>1865.9</ele>
        <time>2023-02-05T12:58:31Z</time>
      </trkpt>
      <trkpt lat="44.1292" lon="7.25004">
        <ele>1865.6</ele>
        <time>2023-02-05T12:58:32Z</time>
      </trkpt>
      <trkpt lat="44.1292" lon="7.25005">
        <ele>1865.4</ele>
        <time>2023-02-05T12:58:33Z</time>
      </trkpt>
      <trkpt lat="44.1292" lon="7.25007">
        <ele>1865.3</ele>
        <time>2023-02-05T12:58:34Z</time>
      </trkpt>
      <trkpt lat="44.1292" lon="7.25008">
        <ele>1864.4</ele>
        <time>2023-02-05T12:58:35Z</time>
      </trkpt>
      <trkpt lat="44.12919" lon="7.25009">
        <ele>1864.6</ele>
        <time>2023-02-05T12:58:36Z</time>
      </trkpt>
      <trkpt lat="44.12918" lon="7.2501">
        <ele>1864.5</ele>
        <time>2023-02-05T12:58:37Z</time>
      </trkpt>
      <trkpt lat="44.12917" lon="7.25011">
        <ele>1864.4</ele>
        <time>2023-02-05T12:58:38Z</time>
      </trkpt>
      <trkpt lat="44.12916" lon="7.25012">
        <ele>1864.3</ele>
        <time>2023-02-05T12:58:39Z</time>
      </trkpt>
      <trkpt lat="44.12917" lon="7.25013">
        <ele>1864.1</ele>
        <time>2023-02-05T12:58:40Z</time>
      </trkpt>
      <trkpt lat="44.12916" lon="7.25014">
        <ele>1864.2</ele>
        <time>2023-02-05T12:58:41Z</time>
      </trkpt>
      <trkpt lat="44.12914" lon="7.25014">
        <ele>1864.2</ele>
        <time>2023-02-05T12:58:42Z</time>
      </trkpt>
      <trkpt lat="44.12912" lon="7.25015">
        <ele>1864.1</ele>
        <time>2023-02-05T12:58:43Z</time>
      </trkpt>
      <trkpt lat="44.1291" lon="7.25015">
        <ele>1864.3</ele>
        <time>2023-02-05T12:58:44Z</time>
      </trkpt>
      <trkpt lat="44.12909" lon="7.25015">
        <ele>1864.1</ele>
        <time>2023-02-05T12:58:45Z</time>
      </trkpt>
      <trkpt lat="44.12908" lon="7.25017">
        <ele>1863.9</ele>
        <time>2023-02-05T12:58:46Z</time>
      </trkpt>
      <trkpt lat="44.1291" lon="7.2502">
        <ele>1863.8</ele>
        <time>2023-02-05T12:58:47Z</time>
      </trkpt>
      <trkpt lat="44.12909" lon="7.25021">
        <ele>1863.2</ele>
        <time>2023-02-05T12:58:48Z</time>
      </trkpt>
      <trkpt lat="44.12909" lon="7.25023">
        <ele>1863.2</ele>
        <time>2023-02-05T12:58:49Z</time>
      </trkpt>
      <trkpt lat="44.1291" lon="7.25023">
        <ele>1863.1</ele>
        <time>2023-02-05T12:58:50Z</time>
      </trkpt>
      <trkpt lat="44.12909" lon="7.25023">
        <ele>1862.8</ele>
        <time>2023-02-05T12:58:51Z</time>
      </trkpt>
      <trkpt lat="44.12909" lon="7.25024">
        <ele>1863</ele>
        <time>2023-02-05T12:58:52Z</time>
      </trkpt>
      <trkpt lat="44.12908" lon="7.25025">
        <ele>1862.8</ele>
        <time>2023-02-05T12:58:53Z</time>
      </trkpt>
      <trkpt lat="44.12908" lon="7.25026">
        <ele>1862.6</ele>
        <time>2023-02-05T12:58:54Z</time>
      </trkpt>
      <trkpt lat="44.12909" lon="7.25027">
        <ele>1862.3</ele>
        <time>2023-02-05T12:58:55Z</time>
      </trkpt>
      <trkpt lat="44.12909" lon="7.25028">
        <ele>1862.1</ele>
        <time>2023-02-05T12:58:56Z</time>
      </trkpt>
      <trkpt lat="44.12908" lon="7.25028">
        <ele>1862.1</ele>
        <time>2023-02-05T12:58:57Z</time>
      </trkpt>
      <trkpt lat="44.12908" lon="7.25029">
        <ele>1862</ele>
        <time>2023-02-05T12:58:58Z</time>
      </trkpt>
      <trkpt lat="44.12907" lon="7.25029">
        <ele>1861.7</ele>
        <time>2023-02-05T12:58:59Z</time>
      </trkpt>
      <trkpt lat="44.12906" lon="7.2503">
        <ele>1861.7</ele>
        <time>2023-02-05T12:59:00Z</time>
      </trkpt>
      <trkpt lat="44.12905" lon="7.25031">
        <ele>1861.9</ele>
        <time>2023-02-05T12:59:01Z</time>
      </trkpt>
      <trkpt lat="44.12904" lon="7.25032">
        <ele>1861.8</ele>
        <time>2023-02-05T12:59:02Z</time>
      </trkpt>
      <trkpt lat="44.12904" lon="7.25034">
        <ele>1861.9</ele>
        <time>2023-02-05T12:59:03Z</time>
      </trkpt>
      <trkpt lat="44.12905" lon="7.25035">
        <ele>1861.6</ele>
        <time>2023-02-05T12:59:04Z</time>
      </trkpt>
      <trkpt lat="44.12905" lon="7.25036">
        <ele>1861.3</ele>
        <time>2023-02-05T12:59:05Z</time>
      </trkpt>
      <trkpt lat="44.12906" lon="7.25038">
        <ele>1861.1</ele>
        <time>2023-02-05T12:59:06Z</time>
      </trkpt>
      <trkpt lat="44.12906" lon="7.2504">
        <ele>1860.7</ele>
        <time>2023-02-05T12:59:07Z</time>
      </trkpt>
      <trkpt lat="44.12904" lon="7.25041">
        <ele>1860.5</ele>
        <time>2023-02-05T12:59:08Z</time>
      </trkpt>
      <trkpt lat="44.12904" lon="7.25043">
        <ele>1860.7</ele>
        <time>2023-02-05T12:59:09Z</time>
      </trkpt>
      <trkpt lat="44.12904" lon="7.25044">
        <ele>1860.3</ele>
        <time>2023-02-05T12:59:10Z</time>
      </trkpt>
      <trkpt lat="44.12904" lon="7.25045">
        <ele>1860.1</ele>
        <time>2023-02-05T12:59:11Z</time>
      </trkpt>
      <trkpt lat="44.12903" lon="7.25047">
        <ele>1859.9</ele>
        <time>2023-02-05T12:59:12Z</time>
      </trkpt>
      <trkpt lat="44.12901" lon="7.25047">
        <ele>1859.7</ele>
        <time>2023-02-05T12:59:13Z</time>
      </trkpt>
      <trkpt lat="44.12901" lon="7.25048">
        <ele>1859.5</ele>
        <time>2023-02-05T12:59:14Z</time>
      </trkpt>
      <trkpt lat="44.129" lon="7.25049">
        <ele>1859.4</ele>
        <time>2023-02-05T12:59:15Z</time>
      </trkpt>
      <trkpt lat="44.12899" lon="7.2505">
        <ele>1859.3</ele>
        <time>2023-02-05T12:59:16Z</time>
      </trkpt>
      <trkpt lat="44.12898" lon="7.25051">
        <ele>1859.1</ele>
        <time>2023-02-05T12:59:17Z</time>
      </trkpt>
      <trkpt lat="44.12898" lon="7.25052">
        <ele>1859</ele>
        <time>2023-02-05T12:59:18Z</time>
      </trkpt>
      <trkpt lat="44.12897" lon="7.25053">
        <ele>1858.9</ele>
        <time>2023-02-05T12:59:19Z</time>
      </trkpt>
      <trkpt lat="44.12896" lon="7.25054">
        <ele>1858.7</ele>
        <time>2023-02-05T12:59:20Z</time>
      </trkpt>
      <trkpt lat="44.12896" lon="7.25054">
        <ele>1858.5</ele>
        <time>2023-02-05T12:59:21Z</time>
      </trkpt>
      <trkpt lat="44.12895" lon="7.25055">
        <ele>1858.4</ele>
        <time>2023-02-05T12:59:22Z</time>
      </trkpt>
      <trkpt lat="44.12895" lon="7.25055">
        <ele>1857.8</ele>
        <time>2023-02-05T12:59:23Z</time>
      </trkpt>
      <trkpt lat="44.12895" lon="7.25055">
        <ele>1857.6</ele>
        <time>2023-02-05T12:59:24Z</time>
      </trkpt>
      <trkpt lat="44.12894" lon="7.25056">
        <ele>1857.4</ele>
        <time>2023-02-05T12:59:25Z</time>
      </trkpt>
      <trkpt lat="44.12893" lon="7.25056">
        <ele>1857.2</ele>
        <time>2023-02-05T12:59:26Z</time>
      </trkpt>
      <trkpt lat="44.12893" lon="7.25056">
        <ele>1857.2</ele>
        <time>2023-02-05T12:59:27Z</time>
      </trkpt>
      <trkpt lat="44.12893" lon="7.25057">
        <ele>1856.8</ele>
        <time>2023-02-05T12:59:28Z</time>
      </trkpt>
      <trkpt lat="44.12894" lon="7.25057">
        <ele>1856.6</ele>
        <time>2023-02-05T12:59:29Z</time>
      </trkpt>
      <trkpt lat="44.12893" lon="7.25058">
        <ele>1856.4</ele>
        <time>2023-02-05T12:59:30Z</time>
      </trkpt>
      <trkpt lat="44.1289" lon="7.25057">
        <ele>1856.4</ele>
        <time>2023-02-05T12:59:31Z</time>
      </trkpt>
      <trkpt lat="44.1289" lon="7.25058">
        <ele>1856.2</ele>
        <time>2023-02-05T12:59:32Z</time>
      </trkpt>
      <trkpt lat="44.12889" lon="7.2506">
        <ele>1856.1</ele>
        <time>2023-02-05T12:59:33Z</time>
      </trkpt>
      <trkpt lat="44.12887" lon="7.2506">
        <ele>1855.5</ele>
        <time>2023-02-05T12:59:34Z</time>
      </trkpt>
      <trkpt lat="44.12887" lon="7.25061">
        <ele>1854.5</ele>
        <time>2023-02-05T12:59:35Z</time>
      </trkpt>
      <trkpt lat="44.12885" lon="7.25061">
        <ele>1854.8</ele>
        <time>2023-02-05T12:59:36Z</time>
      </trkpt>
      <trkpt lat="44.12884" lon="7.25061">
        <ele>1854.8</ele>
        <time>2023-02-05T12:59:37Z</time>
      </trkpt>
      <trkpt lat="44.12883" lon="7.25061">
        <ele>1854.8</ele>
        <time>2023-02-05T12:59:38Z</time>
      </trkpt>
      <trkpt lat="44.12882" lon="7.25062">
        <ele>1854.7</ele>
        <time>2023-02-05T12:59:39Z</time>
      </trkpt>
      <trkpt lat="44.12881" lon="7.25062">
        <ele>1854.6</ele>
        <time>2023-02-05T12:59:40Z</time>
      </trkpt>
      <trkpt lat="44.1288" lon="7.25062">
        <ele>1854.4</ele>
        <time>2023-02-05T12:59:41Z</time>
      </trkpt>
      <trkpt lat="44.12879" lon="7.25063">
        <ele>1854.3</ele>
        <time>2023-02-05T12:59:42Z</time>
      </trkpt>
      <trkpt lat="44.12877" lon="7.25063">
        <ele>1854.2</ele>
        <time>2023-02-05T12:59:43Z</time>
      </trkpt>
      <trkpt lat="44.12877" lon="7.25063">
        <ele>1854.1</ele>
        <time>2023-02-05T12:59:44Z</time>
      </trkpt>
      <trkpt lat="44.12876" lon="7.25064">
        <ele>1853.4</ele>
        <time>2023-02-05T12:59:45Z</time>
      </trkpt>
      <trkpt lat="44.12876" lon="7.25064">
        <ele>1853.2</ele>
        <time>2023-02-05T12:59:46Z</time>
      </trkpt>
      <trkpt lat="44.12876" lon="7.25065">
        <ele>1853.2</ele>
        <time>2023-02-05T12:59:47Z</time>
      </trkpt>
      <trkpt lat="44.12877" lon="7.25066">
        <ele>1853.1</ele>
        <time>2023-02-05T12:59:48Z</time>
      </trkpt>
      <trkpt lat="44.12879" lon="7.25067">
        <ele>1853.1</ele>
        <time>2023-02-05T12:59:49Z</time>
      </trkpt>
      <trkpt lat="44.12879" lon="7.25067">
        <ele>1853</ele>
        <time>2023-02-05T12:59:50Z</time>
      </trkpt>
      <trkpt lat="44.12879" lon="7.25067">
        <ele>1853.1</ele>
        <time>2023-02-05T12:59:51Z</time>
      </trkpt>
      <trkpt lat="44.12876" lon="7.25066">
        <ele>1853.1</ele>
        <time>2023-02-05T12:59:52Z</time>
      </trkpt>
      <trkpt lat="44.12873" lon="7.25065">
        <ele>1853</ele>
        <time>2023-02-05T12:59:53Z</time>
      </trkpt>
      <trkpt lat="44.1287" lon="7.25063">
        <ele>1852.8</ele>
        <time>2023-02-05T12:59:54Z</time>
      </trkpt>
      <trkpt lat="44.12871" lon="7.25063">
        <ele>1852.9</ele>
        <time>2023-02-05T12:59:55Z</time>
      </trkpt>
      <trkpt lat="44.12871" lon="7.25065">
        <ele>1852.9</ele>
        <time>2023-02-05T12:59:56Z</time>
      </trkpt>
      <trkpt lat="44.12872" lon="7.25065">
        <ele>1852.9</ele>
        <time>2023-02-05T12:59:57Z</time>
      </trkpt>
      <trkpt lat="44.12873" lon="7.25066">
        <ele>1852.9</ele>
        <time>2023-02-05T12:59:58Z</time>
      </trkpt>
      <trkpt lat="44.12875" lon="7.25067">
        <ele>1852.7</ele>
        <time>2023-02-05T12:59:59Z</time>
      </trkpt>
      <trkpt lat="44.12876" lon="7.25068">
        <ele>1852.7</ele>
        <time>2023-02-05T13:00:00Z</time>
      </trkpt>
      <trkpt lat="44.12877" lon="7.25069">
        <ele>1852.6</ele>
        <time>2023-02-05T13:00:01Z</time>
      </trkpt>
      <trkpt lat="44.12877" lon="7.25069">
        <ele>1852.7</ele>
        <time>2023-02-05T13:00:02Z</time>
      </trkpt>
      <trkpt lat="44.12877" lon="7.2507">
        <ele>1852.7</ele>
        <time>2023-02-05T13:00:03Z</time>
      </trkpt>
      <trkpt lat="44.12877" lon="7.25071">
        <ele>1852.7</ele>
        <time>2023-02-05T13:00:04Z</time>
      </trkpt>
      <trkpt lat="44.12876" lon="7.25071">
        <ele>1852.9</ele>
        <time>2023-02-05T13:00:05Z</time>
      </trkpt>
      <trkpt lat="44.12876" lon="7.25072">
        <ele>1853</ele>
        <time>2023-02-05T13:00:06Z</time>
      </trkpt>
      <trkpt lat="44.12877" lon="7.25072">
        <ele>1853</ele>
        <time>2023-02-05T13:00:07Z</time>
      </trkpt>
      <trkpt lat="44.12876" lon="7.25072">
        <ele>1853</ele>
        <time>2023-02-05T13:00:08Z</time>
      </trkpt>
      <trkpt lat="44.12876" lon="7.25072">
        <ele>1853</ele>
        <time>2023-02-05T13:00:09Z</time>
      </trkpt>
      <trkpt lat="44.12877" lon="7.25072">
        <ele>1853</ele>
        <time>2023-02-05T13:00:10Z</time>
      </trkpt>
      <trkpt lat="44.12877" lon="7.25073">
        <ele>1853.1</ele>
        <time>2023-02-05T13:00:11Z</time>
      </trkpt>
      <trkpt lat="44.12878" lon="7.25073">
        <ele>1853.1</ele>
        <time>2023-02-05T13:00:12Z</time>
      </trkpt>
      <trkpt lat="44.12878" lon="7.25073">
        <ele>1853</ele>
        <time>2023-02-05T13:00:13Z</time>
      </trkpt>
      <trkpt lat="44.12877" lon="7.25074">
        <ele>1853.1</ele>
        <time>2023-02-05T13:00:14Z</time>
      </trkpt>
      <trkpt lat="44.12877" lon="7.25074">
        <ele>1853.1</ele>
        <time>2023-02-05T13:00:15Z</time>
      </trkpt>
      <trkpt lat="44.12876" lon="7.25074">
        <ele>1853.1</ele>
        <time>2023-02-05T13:00:16Z</time>
      </trkpt>
      <trkpt lat="44.12878" lon="7.25074">
        <ele>1853</ele>
        <time>2023-02-05T13:00:20Z</time>
      </trkpt>
      <trkpt lat="44.12878" lon="7.25074">
        <ele>1852.9</ele>
        <time>2023-02-05T13:00:21Z</time>
      </trkpt>
      <trkpt lat="44.12879" lon="7.25074">
        <ele>1852.9</ele>
        <time>2023-02-05T13:00:22Z</time>
      </trkpt>
      <trkpt lat="44.12879" lon="7.25075">
        <ele>1852.9</ele>
        <time>2023-02-05T13:00:23Z</time>
      </trkpt>
      <trkpt lat="44.12879" lon="7.25075">
        <ele>1852.9</ele>
        <time>2023-02-05T13:00:24Z</time>
      </trkpt>
      <trkpt lat="44.12878" lon="7.25075">
        <ele>1852.8</ele>
        <time>2023-02-05T13:00:25Z</time>
      </trkpt>
      <trkpt lat="44.12878" lon="7.25075">
        <ele>1852.8</ele>
        <time>2023-02-05T13:00:26Z</time>
      </trkpt>
      <trkpt lat="44.12879" lon="7.25075">
        <ele>1852.8</ele>
        <time>2023-02-05T13:00:27Z</time>
      </trkpt>
      <trkpt lat="44.12879" lon="7.25075">
        <ele>1852.8</ele>
        <time>2023-02-05T13:00:28Z</time>
      </trkpt>
      <trkpt lat="44.12879" lon="7.25075">
        <ele>1852.8</ele>
        <time>2023-02-05T13:00:29Z</time>
      </trkpt>
      <trkpt lat="44.12879" lon="7.25075">
        <ele>1852.7</ele>
        <time>2023-02-05T13:00:30Z</time>
      </trkpt>
      <trkpt lat="44.12879" lon="7.25076">
        <ele>1852.6</ele>
        <time>2023-02-05T13:00:31Z</time>
      </trkpt>
      <trkpt lat="44.12879" lon="7.25076">
        <ele>1852.6</ele>
        <time>2023-02-05T13:00:32Z</time>
      </trkpt>
      <trkpt lat="44.1288" lon="7.25077">
        <ele>1852.7</ele>
        <time>2023-02-05T13:00:33Z</time>
      </trkpt>
      <trkpt lat="44.12881" lon="7.25077">
        <ele>1852.8</ele>
        <time>2023-02-05T13:00:34Z</time>
      </trkpt>
      <trkpt lat="44.12882" lon="7.25078">
        <ele>1852.8</ele>
        <time>2023-02-05T13:00:35Z</time>
      </trkpt>
      <trkpt lat="44.12883" lon="7.25078">
        <ele>1852.9</ele>
        <time>2023-02-05T13:00:36Z</time>
      </trkpt>
      <trkpt lat="44.12884" lon="7.25079">
        <ele>1852.9</ele>
        <time>2023-02-05T13:00:37Z</time>
      </trkpt>
      <trkpt lat="44.12885" lon="7.25079">
        <ele>1852.9</ele>
        <time>2023-02-05T13:00:38Z</time>
      </trkpt>
      <trkpt lat="44.12887" lon="7.25079">
        <ele>1852.9</ele>
        <time>2023-02-05T13:00:39Z</time>
      </trkpt>
      <trkpt lat="44.12888" lon="7.2508">
        <ele>1852.9</ele>
        <time>2023-02-05T13:00:40Z</time>
      </trkpt>
      <trkpt lat="44.12888" lon="7.2508">
        <ele>1852.9</ele>
        <time>2023-02-05T13:00:41Z</time>
      </trkpt>
      <trkpt lat="44.12889" lon="7.2508">
        <ele>1852.8</ele>
        <time>2023-02-05T13:00:42Z</time>
      </trkpt>
      <trkpt lat="44.12889" lon="7.25081">
        <ele>1852.8</ele>
        <time>2023-02-05T13:00:43Z</time>
      </trkpt>
      <trkpt lat="44.12889" lon="7.25081">
        <ele>1852.8</ele>
        <time>2023-02-05T13:00:44Z</time>
      </trkpt>
      <trkpt lat="44.1289" lon="7.25081">
        <ele>1852.7</ele>
        <time>2023-02-05T13:00:45Z</time>
      </trkpt>
      <trkpt lat="44.1289" lon="7.25081">
        <ele>1852.7</ele>
        <time>2023-02-05T13:00:46Z</time>
      </trkpt>
      <trkpt lat="44.1289" lon="7.25082">
        <ele>1852.7</ele>
        <time>2023-02-05T13:00:47Z</time>
      </trkpt>
      <trkpt lat="44.12889" lon="7.25082">
        <ele>1852.8</ele>
        <time>2023-02-05T13:00:48Z</time>
      </trkpt>
      <trkpt lat="44.12889" lon="7.25082">
        <ele>1852.7</ele>
        <time>2023-02-05T13:00:49Z</time>
      </trkpt>
      <trkpt lat="44.12889" lon="7.25082">
        <ele>1852.7</ele>
        <time>2023-02-05T13:00:50Z</time>
      </trkpt>
      <trkpt lat="44.12888" lon="7.25082">
        <ele>1852.7</ele>
        <time>2023-02-05T13:00:51Z</time>
      </trkpt>
      <trkpt lat="44.12888" lon="7.25082">
        <ele>1852.7</ele>
        <time>2023-02-05T13:00:52Z</time>
      </trkpt>
      <trkpt lat="44.12888" lon="7.25082">
        <ele>1852.7</ele>
        <time>2023-02-05T13:00:53Z</time>
      </trkpt>
      <trkpt lat="44.12888" lon="7.25082">
        <ele>1852.7</ele>
        <time>2023-02-05T13:00:54Z</time>
      </trkpt>
      <trkpt lat="44.12888" lon="7.25082">
        <ele>1852.7</ele>
        <time>2023-02-05T13:00:55Z</time>
      </trkpt>
      <trkpt lat="44.12888" lon="7.25082">
        <ele>1852.7</ele>
        <time>2023-02-05T13:00:56Z</time>
      </trkpt>
      <trkpt lat="44.12888" lon="7.25082">
        <ele>1852.8</ele>
        <time>2023-02-05T13:00:57Z</time>
      </trkpt>
      <trkpt lat="44.12888" lon="7.25082">
        <ele>1852.8</ele>
        <time>2023-02-05T13:00:58Z</time>
      </trkpt>
      <trkpt lat="44.12888" lon="7.25083">
        <ele>1852.9</ele>
        <time>2023-02-05T13:00:59Z</time>
      </trkpt>
      <trkpt lat="44.12888" lon="7.25083">
        <ele>1852.9</ele>
        <time>2023-02-05T13:01:00Z</time>
      </trkpt>
      <trkpt lat="44.12888" lon="7.25084">
        <ele>1853</ele>
        <time>2023-02-05T13:01:01Z</time>
      </trkpt>
      <trkpt lat="44.12888" lon="7.25084">
        <ele>1853</ele>
        <time>2023-02-05T13:01:02Z</time>
      </trkpt>
      <trkpt lat="44.12888" lon="7.25084">
        <ele>1853</ele>
        <time>2023-02-05T13:01:03Z</time>
      </trkpt>
      <trkpt lat="44.12888" lon="7.25084">
        <ele>1853</ele>
        <time>2023-02-05T13:01:04Z</time>
      </trkpt>
      <trkpt lat="44.12888" lon="7.25084">
        <ele>1853</ele>
        <time>2023-02-05T13:01:05Z</time>
      </trkpt>
      <trkpt lat="44.12888" lon="7.25084">
        <ele>1853</ele>
        <time>2023-02-05T13:01:06Z</time>
      </trkpt>
      <trkpt lat="44.12887" lon="7.25084">
        <ele>1852.9</ele>
        <time>2023-02-05T13:01:07Z</time>
      </trkpt>
      <trkpt lat="44.12887" lon="7.25084">
        <ele>1852.9</ele>
        <time>2023-02-05T13:01:08Z</time>
      </trkpt>
      <trkpt lat="44.12887" lon="7.25084">
        <ele>1852.9</ele>
        <time>2023-02-05T13:01:09Z</time>
      </trkpt>
      <trkpt lat="44.12887" lon="7.25084">
        <ele>1853</ele>
        <time>2023-02-05T13:01:10Z</time>
      </trkpt>
      <trkpt lat="44.12888" lon="7.25084">
        <ele>1853</ele>
        <time>2023-02-05T13:01:11Z</time>
      </trkpt>
      <trkpt lat="44.12888" lon="7.25084">
        <ele>1853</ele>
        <time>2023-02-05T13:01:12Z</time>
      </trkpt>
      <trkpt lat="44.12888" lon="7.25084">
        <ele>1853</ele>
        <time>2023-02-05T13:01:13Z</time>
      </trkpt>
      <trkpt lat="44.12888" lon="7.25084">
        <ele>1853</ele>
        <time>2023-02-05T13:01:14Z</time>
      </trkpt>
      <trkpt lat="44.12888" lon="7.25084">
        <ele>1853</ele>
        <time>2023-02-05T13:01:15Z</time>
      </trkpt>
      <trkpt lat="44.12889" lon="7.25084">
        <ele>1853</ele>
        <time>2023-02-05T13:01:16Z</time>
      </trkpt>
      <trkpt lat="44.12889" lon="7.25084">
        <ele>1853.1</ele>
        <time>2023-02-05T13:01:17Z</time>
      </trkpt>
      <trkpt lat="44.12889" lon="7.25084">
        <ele>1853.1</ele>
        <time>2023-02-05T13:01:18Z</time>
      </trkpt>
      <trkpt lat="44.12889" lon="7.25084">
        <ele>1853.2</ele>
        <time>2023-02-05T13:01:19Z</time>
      </trkpt>
      <trkpt lat="44.12889" lon="7.25084">
        <ele>1853.2</ele>
        <time>2023-02-05T13:01:20Z</time>
      </trkpt>
      <trkpt lat="44.12889" lon="7.25084">
        <ele>1853.2</ele>
        <time>2023-02-05T13:01:21Z</time>
      </trkpt>
      <trkpt lat="44.12889" lon="7.25084">
        <ele>1853.2</ele>
        <time>2023-02-05T13:01:22Z</time>
      </trkpt>
      <trkpt lat="44.1289" lon="7.25084">
        <ele>1853.2</ele>
        <time>2023-02-05T13:01:23Z</time>
      </trkpt>
      <trkpt lat="44.1289" lon="7.25084">
        <ele>1853.3</ele>
        <time>2023-02-05T13:01:24Z</time>
      </trkpt>
      <trkpt lat="44.1289" lon="7.25084">
        <ele>1853.3</ele>
        <time>2023-02-05T13:01:25Z</time>
      </trkpt>
      <trkpt lat="44.1289" lon="7.25084">
        <ele>1853.2</ele>
        <time>2023-02-05T13:01:26Z</time>
      </trkpt>
      <trkpt lat="44.1289" lon="7.25085">
        <ele>1853.2</ele>
        <time>2023-02-05T13:01:27Z</time>
      </trkpt>
      <trkpt lat="44.1289" lon="7.25085">
        <ele>1853.2</ele>
        <time>2023-02-05T13:01:28Z</time>
      </trkpt>
      <trkpt lat="44.1289" lon="7.25085">
        <ele>1853.1</ele>
        <time>2023-02-05T13:01:29Z</time>
      </trkpt>
      <trkpt lat="44.1289" lon="7.25086">
        <ele>1853.1</ele>
        <time>2023-02-05T13:01:30Z</time>
      </trkpt>
      <trkpt lat="44.1289" lon="7.25086">
        <ele>1852.9</ele>
        <time>2023-02-05T13:01:31Z</time>
      </trkpt>
      <trkpt lat="44.12891" lon="7.25086">
        <ele>1852.8</ele>
        <time>2023-02-05T13:01:32Z</time>
      </trkpt>
      <trkpt lat="44.1289" lon="7.25086">
        <ele>1852.9</ele>
        <time>2023-02-05T13:01:33Z</time>
      </trkpt>
      <trkpt lat="44.12891" lon="7.25087">
        <ele>1852.8</ele>
        <time>2023-02-05T13:01:34Z</time>
      </trkpt>
      <trkpt lat="44.12891" lon="7.25087">
        <ele>1852.7</ele>
        <time>2023-02-05T13:01:35Z</time>
      </trkpt>
      <trkpt lat="44.12891" lon="7.25087">
        <ele>1852.6</ele>
        <time>2023-02-05T13:01:36Z</time>
      </trkpt>
      <trkpt lat="44.1289" lon="7.25087">
        <ele>1852.6</ele>
        <time>2023-02-05T13:01:37Z</time>
      </trkpt>
      <trkpt lat="44.12891" lon="7.25087">
        <ele>1852.6</ele>
        <time>2023-02-05T13:01:38Z</time>
      </trkpt>
      <trkpt lat="44.12891" lon="7.25088">
        <ele>1852.6</ele>
        <time>2023-02-05T13:01:39Z</time>
      </trkpt>
      <trkpt lat="44.12891" lon="7.25088">
        <ele>1852.6</ele>
        <time>2023-02-05T13:01:40Z</time>
      </trkpt>
      <trkpt lat="44.1289" lon="7.25089">
        <ele>1852.6</ele>
        <time>2023-02-05T13:01:41Z</time>
      </trkpt>
      <trkpt lat="44.12891" lon="7.25089">
        <ele>1852.6</ele>
        <time>2023-02-05T13:01:42Z</time>
      </trkpt>
      <trkpt lat="44.1289" lon="7.25089">
        <ele>1852.5</ele>
        <time>2023-02-05T13:01:43Z</time>
      </trkpt>
      <trkpt lat="44.1289" lon="7.25089">
        <ele>1852.6</ele>
        <time>2023-02-05T13:01:44Z</time>
      </trkpt>
      <trkpt lat="44.1289" lon="7.25089">
        <ele>1852.7</ele>
        <time>2023-02-05T13:01:45Z</time>
      </trkpt>
      <trkpt lat="44.1289" lon="7.2509">
        <ele>1852.9</ele>
        <time>2023-02-05T13:01:46Z</time>
      </trkpt>
      <trkpt lat="44.1289" lon="7.2509">
        <ele>1852.9</ele>
        <time>2023-02-05T13:01:47Z</time>
      </trkpt>
      <trkpt lat="44.12889" lon="7.25091">
        <ele>1852.9</ele>
        <time>2023-02-05T13:01:48Z</time>
      </trkpt>
      <trkpt lat="44.12889" lon="7.25092">
        <ele>1852.9</ele>
        <time>2023-02-05T13:01:49Z</time>
      </trkpt>
      <trkpt lat="44.12889" lon="7.25092">
        <ele>1853</ele>
        <time>2023-02-05T13:01:50Z</time>
      </trkpt>
      <trkpt lat="44.12889" lon="7.25093">
        <ele>1853</ele>
        <time>2023-02-05T13:01:51Z</time>
      </trkpt>
      <trkpt lat="44.12889" lon="7.25094">
        <ele>1853</ele>
        <time>2023-02-05T13:01:52Z</time>
      </trkpt>
      <trkpt lat="44.12889" lon="7.25095">
        <ele>1853</ele>
        <time>2023-02-05T13:01:53Z</time>
      </trkpt>
      <trkpt lat="44.12889" lon="7.25096">
        <ele>1853</ele>
        <time>2023-02-05T13:01:54Z</time>
      </trkpt>
      <trkpt lat="44.12889" lon="7.25096">
        <ele>1853</ele>
        <time>2023-02-05T13:01:55Z</time>
      </trkpt>
      <trkpt lat="44.12889" lon="7.25097">
        <ele>1853</ele>
        <time>2023-02-05T13:01:56Z</time>
      </trkpt>
      <trkpt lat="44.12889" lon="7.25097">
        <ele>1852.9</ele>
        <time>2023-02-05T13:01:57Z</time>
      </trkpt>
      <trkpt lat="44.12889" lon="7.25098">
        <ele>1853</ele>
        <time>2023-02-05T13:01:58Z</time>
      </trkpt>
      <trkpt lat="44.12889" lon="7.25099">
        <ele>1853</ele>
        <time>2023-02-05T13:01:59Z</time>
      </trkpt>
      <trkpt lat="44.12889" lon="7.25099">
        <ele>1853.1</ele>
        <time>2023-02-05T13:02:00Z</time>
      </trkpt>
      <trkpt lat="44.12889" lon="7.251">
        <ele>1853.1</ele>
        <time>2023-02-05T13:02:01Z</time>
      </trkpt>
      <trkpt lat="44.12889" lon="7.251">
        <ele>1853.1</ele>
        <time>2023-02-05T13:02:02Z</time>
      </trkpt>
      <trkpt lat="44.12889" lon="7.25101">
        <ele>1853.1</ele>
        <time>2023-02-05T13:02:03Z</time>
      </trkpt>
      <trkpt lat="44.12889" lon="7.25101">
        <ele>1853</ele>
        <time>2023-02-05T13:02:04Z</time>
      </trkpt>
      <trkpt lat="44.12889" lon="7.25101">
        <ele>1853</ele>
        <time>2023-02-05T13:02:05Z</time>
      </trkpt>
      <trkpt lat="44.12889" lon="7.25101">
        <ele>1853.1</ele>
        <time>2023-02-05T13:02:06Z</time>
      </trkpt>
      <trkpt lat="44.12889" lon="7.25102">
        <ele>1853.1</ele>
        <time>2023-02-05T13:02:07Z</time>
      </trkpt>
      <trkpt lat="44.1289" lon="7.25102">
        <ele>1853.1</ele>
        <time>2023-02-05T13:02:08Z</time>
      </trkpt>
      <trkpt lat="44.1289" lon="7.25102">
        <ele>1853.1</ele>
        <time>2023-02-05T13:02:09Z</time>
      </trkpt>
      <trkpt lat="44.1289" lon="7.25102">
        <ele>1853.1</ele>
        <time>2023-02-05T13:02:10Z</time>
      </trkpt>
      <trkpt lat="44.1289" lon="7.25102">
        <ele>1853.1</ele>
        <time>2023-02-05T13:02:11Z</time>
      </trkpt>
      <trkpt lat="44.1289" lon="7.25102">
        <ele>1853.1</ele>
        <time>2023-02-05T13:02:12Z</time>
      </trkpt>
      <trkpt lat="44.1289" lon="7.25102">
        <ele>1853.1</ele>
        <time>2023-02-05T13:02:13Z</time>
      </trkpt>
      <trkpt lat="44.12891" lon="7.25102">
        <ele>1853.1</ele>
        <time>2023-02-05T13:02:14Z</time>
      </trkpt>
      <trkpt lat="44.1289" lon="7.25101">
        <ele>1853</ele>
        <time>2023-02-05T13:02:15Z</time>
      </trkpt>
      <trkpt lat="44.1289" lon="7.25101">
        <ele>1853</ele>
        <time>2023-02-05T13:02:16Z</time>
      </trkpt>
      <trkpt lat="44.1289" lon="7.25101">
        <ele>1853</ele>
        <time>2023-02-05T13:02:17Z</time>
      </trkpt>
      <trkpt lat="44.1289" lon="7.25101">
        <ele>1853</ele>
        <time>2023-02-05T13:02:18Z</time>
      </trkpt>
      <trkpt lat="44.1289" lon="7.251">
        <ele>1853</ele>
        <time>2023-02-05T13:02:19Z</time>
      </trkpt>
      <trkpt lat="44.12889" lon="7.251">
        <ele>1853.1</ele>
        <time>2023-02-05T13:02:20Z</time>
      </trkpt>
      <trkpt lat="44.12889" lon="7.251">
        <ele>1853.1</ele>
        <time>2023-02-05T13:02:21Z</time>
      </trkpt>
      <trkpt lat="44.12889" lon="7.25099">
        <ele>1853.1</ele>
        <time>2023-02-05T13:02:22Z</time>
      </trkpt>
      <trkpt lat="44.12889" lon="7.25099">
        <ele>1853.1</ele>
        <time>2023-02-05T13:02:23Z</time>
      </trkpt>
      <trkpt lat="44.12889" lon="7.25099">
        <ele>1853.1</ele>
        <time>2023-02-05T13:02:24Z</time>
      </trkpt>
      <trkpt lat="44.12889" lon="7.25098">
        <ele>1853.2</ele>
        <time>2023-02-05T13:02:25Z</time>
      </trkpt>
      <trkpt lat="44.12888" lon="7.25098">
        <ele>1853.7</ele>
        <time>2023-02-05T13:02:26Z</time>
      </trkpt>
      <trkpt lat="44.12889" lon="7.25099">
        <ele>1853.6</ele>
        <time>2023-02-05T13:02:27Z</time>
      </trkpt>
      <trkpt lat="44.12888" lon="7.25099">
        <ele>1853.5</ele>
        <time>2023-02-05T13:02:28Z</time>
      </trkpt>
      <trkpt lat="44.12887" lon="7.25099">
        <ele>1853.6</ele>
        <time>2023-02-05T13:02:29Z</time>
      </trkpt>
      <trkpt lat="44.12888" lon="7.251">
        <ele>1853.4</ele>
        <time>2023-02-05T13:02:30Z</time>
      </trkpt>
      <trkpt lat="44.12888" lon="7.25101">
        <ele>1853.2</ele>
        <time>2023-02-05T13:02:31Z</time>
      </trkpt>
      <trkpt lat="44.12887" lon="7.25102">
        <ele>1852.8</ele>
        <time>2023-02-05T13:02:32Z</time>
      </trkpt>
      <trkpt lat="44.12887" lon="7.25101">
        <ele>1852.6</ele>
        <time>2023-02-05T13:02:33Z</time>
      </trkpt>
      <trkpt lat="44.12887" lon="7.25101">
        <ele>1852.1</ele>
        <time>2023-02-05T13:02:34Z</time>
      </trkpt>
      <trkpt lat="44.12887" lon="7.25102">
        <ele>1852.3</ele>
        <time>2023-02-05T13:02:35Z</time>
      </trkpt>
      <trkpt lat="44.12885" lon="7.25102">
        <ele>1852.1</ele>
        <time>2023-02-05T13:02:36Z</time>
      </trkpt>
      <trkpt lat="44.12885" lon="7.25103">
        <ele>1852.3</ele>
        <time>2023-02-05T13:02:37Z</time>
      </trkpt>
      <trkpt lat="44.12885" lon="7.25104">
        <ele>1852.1</ele>
        <time>2023-02-05T13:02:38Z</time>
      </trkpt>
      <trkpt lat="44.12884" lon="7.25105">
        <ele>1851.7</ele>
        <time>2023-02-05T13:02:39Z</time>
      </trkpt>
      <trkpt lat="44.12884" lon="7.25105">
        <ele>1851.4</ele>
        <time>2023-02-05T13:02:40Z</time>
      </trkpt>
      <trkpt lat="44.12884" lon="7.25106">
        <ele>1851.1</ele>
        <time>2023-02-05T13:02:41Z</time>
      </trkpt>
      <trkpt lat="44.12883" lon="7.25107">
        <ele>1851.2</ele>
        <time>2023-02-05T13:02:42Z</time>
      </trkpt>
      <trkpt lat="44.12882" lon="7.25107">
        <ele>1851</ele>
        <time>2023-02-05T13:02:43Z</time>
      </trkpt>
      <trkpt lat="44.12882" lon="7.25107">
        <ele>1850.9</ele>
        <time>2023-02-05T13:02:44Z</time>
      </trkpt>
      <trkpt lat="44.12881" lon="7.25107">
        <ele>1850.8</ele>
        <time>2023-02-05T13:02:45Z</time>
      </trkpt>
      <trkpt lat="44.12881" lon="7.25107">
        <ele>1850.7</ele>
        <time>2023-02-05T13:02:46Z</time>
      </trkpt>
      <trkpt lat="44.1288" lon="7.25107">
        <ele>1850.8</ele>
        <time>2023-02-05T13:02:47Z</time>
      </trkpt>
      <trkpt lat="44.12881" lon="7.25108">
        <ele>1850.8</ele>
        <time>2023-02-05T13:02:48Z</time>
      </trkpt>
      <trkpt lat="44.1288" lon="7.25107">
        <ele>1850.8</ele>
        <time>2023-02-05T13:02:49Z</time>
      </trkpt>
      <trkpt lat="44.12879" lon="7.25106">
        <ele>1850.6</ele>
        <time>2023-02-05T13:02:50Z</time>
      </trkpt>
      <trkpt lat="44.12879" lon="7.25107">
        <ele>1850.5</ele>
        <time>2023-02-05T13:02:51Z</time>
      </trkpt>
      <trkpt lat="44.12879" lon="7.25107">
        <ele>1850.4</ele>
        <time>2023-02-05T13:02:52Z</time>
      </trkpt>
      <trkpt lat="44.12878" lon="7.25107">
        <ele>1850</ele>
        <time>2023-02-05T13:02:53Z</time>
      </trkpt>
      <trkpt lat="44.12877" lon="7.25108">
        <ele>1849.7</ele>
        <time>2023-02-05T13:02:54Z</time>
      </trkpt>
      <trkpt lat="44.12877" lon="7.25108">
        <ele>1849.5</ele>
        <time>2023-02-05T13:02:55Z</time>
      </trkpt>
      <trkpt lat="44.12876" lon="7.25108">
        <ele>1849.6</ele>
        <time>2023-02-05T13:02:56Z</time>
      </trkpt>
      <trkpt lat="44.12874" lon="7.25109">
        <ele>1849.7</ele>
        <time>2023-02-05T13:02:57Z</time>
      </trkpt>
      <trkpt lat="44.12873" lon="7.25109">
        <ele>1849.9</ele>
        <time>2023-02-05T13:02:58Z</time>
      </trkpt>
      <trkpt lat="44.12872" lon="7.2511">
        <ele>1850</ele>
        <time>2023-02-05T13:02:59Z</time>
      </trkpt>
      <trkpt lat="44.12872" lon="7.25111">
        <ele>1850</ele>
        <time>2023-02-05T13:03:00Z</time>
      </trkpt>
      <trkpt lat="44.12872" lon="7.25112">
        <ele>1850</ele>
        <time>2023-02-05T13:03:01Z</time>
      </trkpt>
      <trkpt lat="44.12869" lon="7.25113">
        <ele>1849.9</ele>
        <time>2023-02-05T13:03:02Z</time>
      </trkpt>
      <trkpt lat="44.12867" lon="7.25113">
        <ele>1850.4</ele>
        <time>2023-02-05T13:03:03Z</time>
      </trkpt>
      <trkpt lat="44.12865" lon="7.25114">
        <ele>1850.2</ele>
        <time>2023-02-05T13:03:04Z</time>
      </trkpt>
      <trkpt lat="44.12863" lon="7.25115">
        <ele>1850.2</ele>
        <time>2023-02-05T13:03:05Z</time>
      </trkpt>
      <trkpt lat="44.12862" lon="7.25116">
        <ele>1850</ele>
        <time>2023-02-05T13:03:06Z</time>
      </trkpt>
      <trkpt lat="44.12861" lon="7.25117">
        <ele>1850</ele>
        <time>2023-02-05T13:03:07Z</time>
      </trkpt>
      <trkpt lat="44.1286" lon="7.25118">
        <ele>1849.9</ele>
        <time>2023-02-05T13:03:08Z</time>
      </trkpt>
      <trkpt lat="44.1286" lon="7.25119">
        <ele>1849.7</ele>
        <time>2023-02-05T13:03:09Z</time>
      </trkpt>
      <trkpt lat="44.12858" lon="7.25121">
        <ele>1849.8</ele>
        <time>2023-02-05T13:03:10Z</time>
      </trkpt>
      <trkpt lat="44.12858" lon="7.25122">
        <ele>1849.4</ele>
        <time>2023-02-05T13:03:11Z</time>
      </trkpt>
      <trkpt lat="44.12858" lon="7.25124">
        <ele>1849.2</ele>
        <time>2023-02-05T13:03:12Z</time>
      </trkpt>
      <trkpt lat="44.12858" lon="7.25125">
        <ele>1848.9</ele>
        <time>2023-02-05T13:03:13Z</time>
      </trkpt>
      <trkpt lat="44.12857" lon="7.25126">
        <ele>1848.8</ele>
        <time>2023-02-05T13:03:14Z</time>
      </trkpt>
      <trkpt lat="44.12858" lon="7.25127">
        <ele>1848.6</ele>
        <time>2023-02-05T13:03:15Z</time>
      </trkpt>
      <trkpt lat="44.12857" lon="7.25127">
        <ele>1848.4</ele>
        <time>2023-02-05T13:03:16Z</time>
      </trkpt>
      <trkpt lat="44.12856" lon="7.25129">
        <ele>1848.1</ele>
        <time>2023-02-05T13:03:17Z</time>
      </trkpt>
      <trkpt lat="44.12856" lon="7.2513">
        <ele>1847.8</ele>
        <time>2023-02-05T13:03:18Z</time>
      </trkpt>
      <trkpt lat="44.12856" lon="7.25131">
        <ele>1847.6</ele>
        <time>2023-02-05T13:03:19Z</time>
      </trkpt>
      <trkpt lat="44.12856" lon="7.25132">
        <ele>1847.4</ele>
        <time>2023-02-05T13:03:20Z</time>
      </trkpt>
      <trkpt lat="44.12854" lon="7.25132">
        <ele>1847.4</ele>
        <time>2023-02-05T13:03:21Z</time>
      </trkpt>
      <trkpt lat="44.12853" lon="7.25132">
        <ele>1847.3</ele>
        <time>2023-02-05T13:03:22Z</time>
      </trkpt>
      <trkpt lat="44.12853" lon="7.25134">
        <ele>1847.1</ele>
        <time>2023-02-05T13:03:23Z</time>
      </trkpt>
      <trkpt lat="44.12853" lon="7.25136">
        <ele>1846.9</ele>
        <time>2023-02-05T13:03:24Z</time>
      </trkpt>
      <trkpt lat="44.12854" lon="7.25137">
        <ele>1846.8</ele>
        <time>2023-02-05T13:03:25Z</time>
      </trkpt>
      <trkpt lat="44.12855" lon="7.25139">
        <ele>1846.8</ele>
        <time>2023-02-05T13:03:26Z</time>
      </trkpt>
      <trkpt lat="44.12856" lon="7.2514">
        <ele>1846.7</ele>
        <time>2023-02-05T13:03:27Z</time>
      </trkpt>
      <trkpt lat="44.12855" lon="7.25141">
        <ele>1846.4</ele>
        <time>2023-02-05T13:03:28Z</time>
      </trkpt>
      <trkpt lat="44.12855" lon="7.25142">
        <ele>1846.4</ele>
        <time>2023-02-05T13:03:29Z</time>
      </trkpt>
      <trkpt lat="44.12854" lon="7.25143">
        <ele>1846.3</ele>
        <time>2023-02-05T13:03:30Z</time>
      </trkpt>
      <trkpt lat="44.12852" lon="7.25143">
        <ele>1846.2</ele>
        <time>2023-02-05T13:03:31Z</time>
      </trkpt>
      <trkpt lat="44.12852" lon="7.25144">
        <ele>1846.1</ele>
        <time>2023-02-05T13:03:32Z</time>
      </trkpt>
      <trkpt lat="44.12852" lon="7.25145">
        <ele>1845.9</ele>
        <time>2023-02-05T13:03:33Z</time>
      </trkpt>
      <trkpt lat="44.12852" lon="7.25146">
        <ele>1845.6</ele>
        <time>2023-02-05T13:03:34Z</time>
      </trkpt>
      <trkpt lat="44.12853" lon="7.25148">
        <ele>1845.9</ele>
        <time>2023-02-05T13:03:35Z</time>
      </trkpt>
      <trkpt lat="44.12853" lon="7.2515">
        <ele>1845.7</ele>
        <time>2023-02-05T13:03:36Z</time>
      </trkpt>
      <trkpt lat="44.12852" lon="7.25151">
        <ele>1845.5</ele>
        <time>2023-02-05T13:03:37Z</time>
      </trkpt>
      <trkpt lat="44.12853" lon="7.25152">
        <ele>1845.5</ele>
        <time>2023-02-05T13:03:38Z</time>
      </trkpt>
      <trkpt lat="44.12852" lon="7.25153">
        <ele>1845.4</ele>
        <time>2023-02-05T13:03:39Z</time>
      </trkpt>
      <trkpt lat="44.12852" lon="7.25154">
        <ele>1845.3</ele>
        <time>2023-02-05T13:03:40Z</time>
      </trkpt>
      <trkpt lat="44.12852" lon="7.25155">
        <ele>1845.2</ele>
        <time>2023-02-05T13:03:41Z</time>
      </trkpt>
      <trkpt lat="44.12852" lon="7.25156">
        <ele>1845.2</ele>
        <time>2023-02-05T13:03:42Z</time>
      </trkpt>
      <trkpt lat="44.12851" lon="7.25157">
        <ele>1845.3</ele>
        <time>2023-02-05T13:03:43Z</time>
      </trkpt>
      <trkpt lat="44.12852" lon="7.25159">
        <ele>1844.9</ele>
        <time>2023-02-05T13:03:44Z</time>
      </trkpt>
      <trkpt lat="44.12853" lon="7.2516">
        <ele>1844.6</ele>
        <time>2023-02-05T13:03:45Z</time>
      </trkpt>
      <trkpt lat="44.12853" lon="7.25161">
        <ele>1844.4</ele>
        <time>2023-02-05T13:03:46Z</time>
      </trkpt>
      <trkpt lat="44.12853" lon="7.25162">
        <ele>1844.2</ele>
        <time>2023-02-05T13:03:47Z</time>
      </trkpt>
      <trkpt lat="44.12853" lon="7.25163">
        <ele>1844.2</ele>
        <time>2023-02-05T13:03:48Z</time>
      </trkpt>
      <trkpt lat="44.12854" lon="7.25166">
        <ele>1844.3</ele>
        <time>2023-02-05T13:03:49Z</time>
      </trkpt>
      <trkpt lat="44.12854" lon="7.25167">
        <ele>1844.4</ele>
        <time>2023-02-05T13:03:50Z</time>
      </trkpt>
      <trkpt lat="44.12854" lon="7.25168">
        <ele>1844.1</ele>
        <time>2023-02-05T13:03:51Z</time>
      </trkpt>
      <trkpt lat="44.12853" lon="7.25169">
        <ele>1844</ele>
        <time>2023-02-05T13:03:52Z</time>
      </trkpt>
      <trkpt lat="44.12852" lon="7.2517">
        <ele>1843.9</ele>
        <time>2023-02-05T13:03:53Z</time>
      </trkpt>
      <trkpt lat="44.12852" lon="7.25171">
        <ele>1843.7</ele>
        <time>2023-02-05T13:03:54Z</time>
      </trkpt>
      <trkpt lat="44.12851" lon="7.25172">
        <ele>1843.3</ele>
        <time>2023-02-05T13:03:55Z</time>
      </trkpt>
      <trkpt lat="44.12851" lon="7.25173">
        <ele>1843.1</ele>
        <time>2023-02-05T13:03:56Z</time>
      </trkpt>
      <trkpt lat="44.12851" lon="7.25172">
        <ele>1842.8</ele>
        <time>2023-02-05T13:03:57Z</time>
      </trkpt>
      <trkpt lat="44.12851" lon="7.25172">
        <ele>1842.6</ele>
        <time>2023-02-05T13:03:58Z</time>
      </trkpt>
      <trkpt lat="44.12851" lon="7.25174">
        <ele>1842.5</ele>
        <time>2023-02-05T13:03:59Z</time>
      </trkpt>
      <trkpt lat="44.12851" lon="7.25174">
        <ele>1842.5</ele>
        <time>2023-02-05T13:04:00Z</time>
      </trkpt>
      <trkpt lat="44.12851" lon="7.25174">
        <ele>1842.4</ele>
        <time>2023-02-05T13:04:01Z</time>
      </trkpt>
      <trkpt lat="44.1285" lon="7.25175">
        <ele>1842.5</ele>
        <time>2023-02-05T13:04:02Z</time>
      </trkpt>
      <trkpt lat="44.12845" lon="7.25176">
        <ele>1842.5</ele>
        <time>2023-02-05T13:04:03Z</time>
      </trkpt>
      <trkpt lat="44.12845" lon="7.25177">
        <ele>1842.3</ele>
        <time>2023-02-05T13:04:04Z</time>
      </trkpt>
      <trkpt lat="44.12844" lon="7.25178">
        <ele>1842.2</ele>
        <time>2023-02-05T13:04:05Z</time>
      </trkpt>
      <trkpt lat="44.12844" lon="7.25178">
        <ele>1842</ele>
        <time>2023-02-05T13:04:06Z</time>
      </trkpt>
      <trkpt lat="44.12843" lon="7.2518">
        <ele>1841.8</ele>
        <time>2023-02-05T13:04:07Z</time>
      </trkpt>
      <trkpt lat="44.12843" lon="7.25181">
        <ele>1841.9</ele>
        <time>2023-02-05T13:04:08Z</time>
      </trkpt>
      <trkpt lat="44.12842" lon="7.25182">
        <ele>1841.9</ele>
        <time>2023-02-05T13:04:09Z</time>
      </trkpt>
      <trkpt lat="44.12843" lon="7.25183">
        <ele>1842</ele>
        <time>2023-02-05T13:04:10Z</time>
      </trkpt>
      <trkpt lat="44.12843" lon="7.25184">
        <ele>1841.8</ele>
        <time>2023-02-05T13:04:11Z</time>
      </trkpt>
      <trkpt lat="44.12842" lon="7.25185">
        <ele>1841.7</ele>
        <time>2023-02-05T13:04:12Z</time>
      </trkpt>
      <trkpt lat="44.12841" lon="7.25186">
        <ele>1841.5</ele>
        <time>2023-02-05T13:04:13Z</time>
      </trkpt>
      <trkpt lat="44.12844" lon="7.2519">
        <ele>1839.1</ele>
        <time>2023-02-05T13:04:14Z</time>
      </trkpt>
      <trkpt lat="44.12845" lon="7.25192">
        <ele>1839.1</ele>
        <time>2023-02-05T13:04:15Z</time>
      </trkpt>
      <trkpt lat="44.12845" lon="7.25193">
        <ele>1839.6</ele>
        <time>2023-02-05T13:04:16Z</time>
      </trkpt>
      <trkpt lat="44.12845" lon="7.25195">
        <ele>1839.8</ele>
        <time>2023-02-05T13:04:17Z</time>
      </trkpt>
      <trkpt lat="44.12844" lon="7.25195">
        <ele>1840</ele>
        <time>2023-02-05T13:04:18Z</time>
      </trkpt>
      <trkpt lat="44.12843" lon="7.25196">
        <ele>1840.1</ele>
        <time>2023-02-05T13:04:19Z</time>
      </trkpt>
      <trkpt lat="44.12845" lon="7.25198">
        <ele>1840.1</ele>
        <time>2023-02-05T13:04:20Z</time>
      </trkpt>
      <trkpt lat="44.1285" lon="7.252">
        <ele>1840</ele>
        <time>2023-02-05T13:04:21Z</time>
      </trkpt>
      <trkpt lat="44.1285" lon="7.25201">
        <ele>1839.9</ele>
        <time>2023-02-05T13:04:22Z</time>
      </trkpt>
      <trkpt lat="44.1285" lon="7.25202">
        <ele>1839.7</ele>
        <time>2023-02-05T13:04:23Z</time>
      </trkpt>
      <trkpt lat="44.1285" lon="7.25203">
        <ele>1839.6</ele>
        <time>2023-02-05T13:04:24Z</time>
      </trkpt>
      <trkpt lat="44.12849" lon="7.25204">
        <ele>1839.6</ele>
        <time>2023-02-05T13:04:25Z</time>
      </trkpt>
      <trkpt lat="44.12849" lon="7.25204">
        <ele>1839.7</ele>
        <time>2023-02-05T13:04:26Z</time>
      </trkpt>
      <trkpt lat="44.12848" lon="7.25205">
        <ele>1839.3</ele>
        <time>2023-02-05T13:04:27Z</time>
      </trkpt>
      <trkpt lat="44.12848" lon="7.25206">
        <ele>1839.4</ele>
        <time>2023-02-05T13:04:28Z</time>
      </trkpt>
      <trkpt lat="44.12847" lon="7.25207">
        <ele>1839.4</ele>
        <time>2023-02-05T13:04:29Z</time>
      </trkpt>
      <trkpt lat="44.12846" lon="7.25208">
        <ele>1839.3</ele>
        <time>2023-02-05T13:04:30Z</time>
      </trkpt>
      <trkpt lat="44.12844" lon="7.25209">
        <ele>1839.3</ele>
        <time>2023-02-05T13:04:31Z</time>
      </trkpt>
      <trkpt lat="44.12842" lon="7.2521">
        <ele>1839.4</ele>
        <time>2023-02-05T13:04:32Z</time>
      </trkpt>
      <trkpt lat="44.1284" lon="7.25209">
        <ele>1839.6</ele>
        <time>2023-02-05T13:04:33Z</time>
      </trkpt>
      <trkpt lat="44.12838" lon="7.2521">
        <ele>1839.4</ele>
        <time>2023-02-05T13:04:34Z</time>
      </trkpt>
      <trkpt lat="44.12838" lon="7.25211">
        <ele>1839.4</ele>
        <time>2023-02-05T13:04:35Z</time>
      </trkpt>
      <trkpt lat="44.12835" lon="7.2521">
        <ele>1839.1</ele>
        <time>2023-02-05T13:04:36Z</time>
      </trkpt>
      <trkpt lat="44.12835" lon="7.25212">
        <ele>1838.8</ele>
        <time>2023-02-05T13:04:37Z</time>
      </trkpt>
      <trkpt lat="44.12834" lon="7.25213">
        <ele>1838.8</ele>
        <time>2023-02-05T13:04:38Z</time>
      </trkpt>
      <trkpt lat="44.12834" lon="7.25214">
        <ele>1838.5</ele>
        <time>2023-02-05T13:04:39Z</time>
      </trkpt>
      <trkpt lat="44.12832" lon="7.25215">
        <ele>1838.1</ele>
        <time>2023-02-05T13:04:40Z</time>
      </trkpt>
      <trkpt lat="44.12832" lon="7.25215">
        <ele>1837.8</ele>
        <time>2023-02-05T13:04:41Z</time>
      </trkpt>
      <trkpt lat="44.12829" lon="7.25215">
        <ele>1837.7</ele>
        <time>2023-02-05T13:04:42Z</time>
      </trkpt>
      <trkpt lat="44.12828" lon="7.25215">
        <ele>1837.6</ele>
        <time>2023-02-05T13:04:43Z</time>
      </trkpt>
      <trkpt lat="44.12826" lon="7.25215">
        <ele>1837.2</ele>
        <time>2023-02-05T13:04:44Z</time>
      </trkpt>
      <trkpt lat="44.12824" lon="7.25214">
        <ele>1837.2</ele>
        <time>2023-02-05T13:04:45Z</time>
      </trkpt>
      <trkpt lat="44.12823" lon="7.25215">
        <ele>1837.2</ele>
        <time>2023-02-05T13:04:46Z</time>
      </trkpt>
      <trkpt lat="44.12823" lon="7.25215">
        <ele>1837.2</ele>
        <time>2023-02-05T13:04:47Z</time>
      </trkpt>
      <trkpt lat="44.12823" lon="7.25217">
        <ele>1837.1</ele>
        <time>2023-02-05T13:04:48Z</time>
      </trkpt>
      <trkpt lat="44.12822" lon="7.25218">
        <ele>1837.1</ele>
        <time>2023-02-05T13:04:49Z</time>
      </trkpt>
      <trkpt lat="44.12822" lon="7.25219">
        <ele>1837</ele>
        <time>2023-02-05T13:04:50Z</time>
      </trkpt>
      <trkpt lat="44.1282" lon="7.25219">
        <ele>1836.9</ele>
        <time>2023-02-05T13:04:51Z</time>
      </trkpt>
      <trkpt lat="44.1282" lon="7.2522">
        <ele>1836.6</ele>
        <time>2023-02-05T13:04:52Z</time>
      </trkpt>
      <trkpt lat="44.12818" lon="7.2522">
        <ele>1836.4</ele>
        <time>2023-02-05T13:04:53Z</time>
      </trkpt>
      <trkpt lat="44.12817" lon="7.25221">
        <ele>1836.2</ele>
        <time>2023-02-05T13:04:54Z</time>
      </trkpt>
      <trkpt lat="44.12817" lon="7.25222">
        <ele>1836.1</ele>
        <time>2023-02-05T13:04:55Z</time>
      </trkpt>
      <trkpt lat="44.12817" lon="7.25224">
        <ele>1836.1</ele>
        <time>2023-02-05T13:04:56Z</time>
      </trkpt>
      <trkpt lat="44.12817" lon="7.25224">
        <ele>1836.3</ele>
        <time>2023-02-05T13:04:57Z</time>
      </trkpt>
      <trkpt lat="44.12817" lon="7.25226">
        <ele>1836</ele>
        <time>2023-02-05T13:04:58Z</time>
      </trkpt>
      <trkpt lat="44.12816" lon="7.25227">
        <ele>1835.7</ele>
        <time>2023-02-05T13:04:59Z</time>
      </trkpt>
      <trkpt lat="44.12816" lon="7.25228">
        <ele>1835.5</ele>
        <time>2023-02-05T13:05:00Z</time>
      </trkpt>
      <trkpt lat="44.1281" lon="7.25226">
        <ele>1835.4</ele>
        <time>2023-02-05T13:05:01Z</time>
      </trkpt>
      <trkpt lat="44.12811" lon="7.25228">
        <ele>1835.5</ele>
        <time>2023-02-05T13:05:02Z</time>
      </trkpt>
      <trkpt lat="44.1281" lon="7.25229">
        <ele>1835.4</ele>
        <time>2023-02-05T13:05:03Z</time>
      </trkpt>
      <trkpt lat="44.12809" lon="7.2523">
        <ele>1835.1</ele>
        <time>2023-02-05T13:05:04Z</time>
      </trkpt>
      <trkpt lat="44.1281" lon="7.25231">
        <ele>1835</ele>
        <time>2023-02-05T13:05:05Z</time>
      </trkpt>
      <trkpt lat="44.12809" lon="7.25233">
        <ele>1834.8</ele>
        <time>2023-02-05T13:05:06Z</time>
      </trkpt>
      <trkpt lat="44.12808" lon="7.25233">
        <ele>1834.7</ele>
        <time>2023-02-05T13:05:07Z</time>
      </trkpt>
      <trkpt lat="44.12807" lon="7.25235">
        <ele>1834.6</ele>
        <time>2023-02-05T13:05:08Z</time>
      </trkpt>
      <trkpt lat="44.12806" lon="7.25236">
        <ele>1834.3</ele>
        <time>2023-02-05T13:05:09Z</time>
      </trkpt>
      <trkpt lat="44.12805" lon="7.25237">
        <ele>1834</ele>
        <time>2023-02-05T13:05:10Z</time>
      </trkpt>
      <trkpt lat="44.12805" lon="7.2524">
        <ele>1834.1</ele>
        <time>2023-02-05T13:05:11Z</time>
      </trkpt>
      <trkpt lat="44.12805" lon="7.25241">
        <ele>1833.9</ele>
        <time>2023-02-05T13:05:12Z</time>
      </trkpt>
      <trkpt lat="44.12803" lon="7.25242">
        <ele>1833.7</ele>
        <time>2023-02-05T13:05:13Z</time>
      </trkpt>
      <trkpt lat="44.12802" lon="7.25243">
        <ele>1834.2</ele>
        <time>2023-02-05T13:05:14Z</time>
      </trkpt>
      <trkpt lat="44.12801" lon="7.25244">
        <ele>1834.4</ele>
        <time>2023-02-05T13:05:15Z</time>
      </trkpt>
      <trkpt lat="44.128" lon="7.25244">
        <ele>1834.3</ele>
        <time>2023-02-05T13:05:16Z</time>
      </trkpt>
      <trkpt lat="44.128" lon="7.25245">
        <ele>1834</ele>
        <time>2023-02-05T13:05:17Z</time>
      </trkpt>
      <trkpt lat="44.128" lon="7.25245">
        <ele>1833.9</ele>
        <time>2023-02-05T13:05:18Z</time>
      </trkpt>
      <trkpt lat="44.128" lon="7.25246">
        <ele>1833.6</ele>
        <time>2023-02-05T13:05:19Z</time>
      </trkpt>
      <trkpt lat="44.12797" lon="7.25245">
        <ele>1833.6</ele>
        <time>2023-02-05T13:05:20Z</time>
      </trkpt>
      <trkpt lat="44.12796" lon="7.25245">
        <ele>1833.8</ele>
        <time>2023-02-05T13:05:21Z</time>
      </trkpt>
      <trkpt lat="44.12797" lon="7.25246">
        <ele>1833.6</ele>
        <time>2023-02-05T13:05:22Z</time>
      </trkpt>
      <trkpt lat="44.12796" lon="7.25247">
        <ele>1833.3</ele>
        <time>2023-02-05T13:05:23Z</time>
      </trkpt>
      <trkpt lat="44.12795" lon="7.25248">
        <ele>1833.1</ele>
        <time>2023-02-05T13:05:24Z</time>
      </trkpt>
      <trkpt lat="44.12793" lon="7.25249">
        <ele>1832.9</ele>
        <time>2023-02-05T13:05:25Z</time>
      </trkpt>
      <trkpt lat="44.12792" lon="7.25248">
        <ele>1832.8</ele>
        <time>2023-02-05T13:05:26Z</time>
      </trkpt>
      <trkpt lat="44.12791" lon="7.25248">
        <ele>1832.4</ele>
        <time>2023-02-05T13:05:27Z</time>
      </trkpt>
      <trkpt lat="44.12789" lon="7.25249">
        <ele>1832</ele>
        <time>2023-02-05T13:05:28Z</time>
      </trkpt>
      <trkpt lat="44.12789" lon="7.25249">
        <ele>1831.7</ele>
        <time>2023-02-05T13:05:29Z</time>
      </trkpt>
      <trkpt lat="44.12788" lon="7.2525">
        <ele>1831.6</ele>
        <time>2023-02-05T13:05:30Z</time>
      </trkpt>
      <trkpt lat="44.12787" lon="7.25251">
        <ele>1831.1</ele>
        <time>2023-02-05T13:05:31Z</time>
      </trkpt>
      <trkpt lat="44.12786" lon="7.25251">
        <ele>1830.8</ele>
        <time>2023-02-05T13:05:32Z</time>
      </trkpt>
      <trkpt lat="44.12784" lon="7.25251">
        <ele>1830.7</ele>
        <time>2023-02-05T13:05:33Z</time>
      </trkpt>
      <trkpt lat="44.12783" lon="7.25252">
        <ele>1830.6</ele>
        <time>2023-02-05T13:05:34Z</time>
      </trkpt>
      <trkpt lat="44.12782" lon="7.25253">
        <ele>1830.6</ele>
        <time>2023-02-05T13:05:35Z</time>
      </trkpt>
      <trkpt lat="44.12782" lon="7.25254">
        <ele>1830.4</ele>
        <time>2023-02-05T13:05:36Z</time>
      </trkpt>
      <trkpt lat="44.12783" lon="7.25255">
        <ele>1830.3</ele>
        <time>2023-02-05T13:05:37Z</time>
      </trkpt>
      <trkpt lat="44.12784" lon="7.25256">
        <ele>1830.2</ele>
        <time>2023-02-05T13:05:38Z</time>
      </trkpt>
      <trkpt lat="44.12786" lon="7.25258">
        <ele>1830.2</ele>
        <time>2023-02-05T13:05:39Z</time>
      </trkpt>
      <trkpt lat="44.12786" lon="7.25259">
        <ele>1830.2</ele>
        <time>2023-02-05T13:05:40Z</time>
      </trkpt>
      <trkpt lat="44.12786" lon="7.25261">
        <ele>1830.1</ele>
        <time>2023-02-05T13:05:41Z</time>
      </trkpt>
      <trkpt lat="44.12786" lon="7.25262">
        <ele>1830</ele>
        <time>2023-02-05T13:05:42Z</time>
      </trkpt>
      <trkpt lat="44.12787" lon="7.25263">
        <ele>1829.7</ele>
        <time>2023-02-05T13:05:43Z</time>
      </trkpt>
      <trkpt lat="44.12787" lon="7.25265">
        <ele>1829.3</ele>
        <time>2023-02-05T13:05:44Z</time>
      </trkpt>
      <trkpt lat="44.12786" lon="7.25266">
        <ele>1829</ele>
        <time>2023-02-05T13:05:45Z</time>
      </trkpt>
      <trkpt lat="44.12786" lon="7.25268">
        <ele>1828.8</ele>
        <time>2023-02-05T13:05:46Z</time>
      </trkpt>
      <trkpt lat="44.12787" lon="7.25268">
        <ele>1828.9</ele>
        <time>2023-02-05T13:05:47Z</time>
      </trkpt>
      <trkpt lat="44.12786" lon="7.25269">
        <ele>1828.4</ele>
        <time>2023-02-05T13:05:48Z</time>
      </trkpt>
      <trkpt lat="44.12787" lon="7.25272">
        <ele>1828.1</ele>
        <time>2023-02-05T13:05:49Z</time>
      </trkpt>
      <trkpt lat="44.12787" lon="7.25273">
        <ele>1827.8</ele>
        <time>2023-02-05T13:05:50Z</time>
      </trkpt>
      <trkpt lat="44.12787" lon="7.25274">
        <ele>1827.5</ele>
        <time>2023-02-05T13:05:51Z</time>
      </trkpt>
      <trkpt lat="44.12788" lon="7.25276">
        <ele>1827.2</ele>
        <time>2023-02-05T13:05:52Z</time>
      </trkpt>
      <trkpt lat="44.12788" lon="7.25276">
        <ele>1827</ele>
        <time>2023-02-05T13:05:53Z</time>
      </trkpt>
      <trkpt lat="44.12787" lon="7.25276">
        <ele>1826.7</ele>
        <time>2023-02-05T13:05:54Z</time>
      </trkpt>
      <trkpt lat="44.12787" lon="7.25277">
        <ele>1826.5</ele>
        <time>2023-02-05T13:05:55Z</time>
      </trkpt>
      <trkpt lat="44.12785" lon="7.25278">
        <ele>1826</ele>
        <time>2023-02-05T13:05:56Z</time>
      </trkpt>
      <trkpt lat="44.12785" lon="7.2528">
        <ele>1826.1</ele>
        <time>2023-02-05T13:05:57Z</time>
      </trkpt>
      <trkpt lat="44.12784" lon="7.2528">
        <ele>1825.8</ele>
        <time>2023-02-05T13:05:58Z</time>
      </trkpt>
      <trkpt lat="44.12784" lon="7.2528">
        <ele>1825.5</ele>
        <time>2023-02-05T13:05:59Z</time>
      </trkpt>
      <trkpt lat="44.12784" lon="7.25281">
        <ele>1825.2</ele>
        <time>2023-02-05T13:06:00Z</time>
      </trkpt>
      <trkpt lat="44.12784" lon="7.25282">
        <ele>1824.9</ele>
        <time>2023-02-05T13:06:01Z</time>
      </trkpt>
      <trkpt lat="44.12782" lon="7.25281">
        <ele>1824.6</ele>
        <time>2023-02-05T13:06:02Z</time>
      </trkpt>
      <trkpt lat="44.12781" lon="7.25282">
        <ele>1824.3</ele>
        <time>2023-02-05T13:06:03Z</time>
      </trkpt>
      <trkpt lat="44.12779" lon="7.25282">
        <ele>1824.1</ele>
        <time>2023-02-05T13:06:04Z</time>
      </trkpt>
      <trkpt lat="44.12778" lon="7.25282">
        <ele>1823.9</ele>
        <time>2023-02-05T13:06:05Z</time>
      </trkpt>
      <trkpt lat="44.12778" lon="7.25282">
        <ele>1823.7</ele>
        <time>2023-02-05T13:06:06Z</time>
      </trkpt>
      <trkpt lat="44.12776" lon="7.25282">
        <ele>1823.6</ele>
        <time>2023-02-05T13:06:07Z</time>
      </trkpt>
      <trkpt lat="44.12776" lon="7.25282">
        <ele>1823.5</ele>
        <time>2023-02-05T13:06:08Z</time>
      </trkpt>
      <trkpt lat="44.12775" lon="7.25283">
        <ele>1823.4</ele>
        <time>2023-02-05T13:06:09Z</time>
      </trkpt>
      <trkpt lat="44.12774" lon="7.25283">
        <ele>1823</ele>
        <time>2023-02-05T13:06:10Z</time>
      </trkpt>
      <trkpt lat="44.12774" lon="7.25284">
        <ele>1822.9</ele>
        <time>2023-02-05T13:06:11Z</time>
      </trkpt>
      <trkpt lat="44.12774" lon="7.25286">
        <ele>1822.4</ele>
        <time>2023-02-05T13:06:12Z</time>
      </trkpt>
      <trkpt lat="44.12773" lon="7.25287">
        <ele>1822.4</ele>
        <time>2023-02-05T13:06:13Z</time>
      </trkpt>
      <trkpt lat="44.12774" lon="7.25288">
        <ele>1822.3</ele>
        <time>2023-02-05T13:06:14Z</time>
      </trkpt>
      <trkpt lat="44.12773" lon="7.25289">
        <ele>1822.3</ele>
        <time>2023-02-05T13:06:15Z</time>
      </trkpt>
      <trkpt lat="44.12774" lon="7.2529">
        <ele>1822.1</ele>
        <time>2023-02-05T13:06:16Z</time>
      </trkpt>
      <trkpt lat="44.12775" lon="7.25291">
        <ele>1821.9</ele>
        <time>2023-02-05T13:06:17Z</time>
      </trkpt>
      <trkpt lat="44.12775" lon="7.25291">
        <ele>1821.7</ele>
        <time>2023-02-05T13:06:18Z</time>
      </trkpt>
      <trkpt lat="44.12775" lon="7.25292">
        <ele>1821.6</ele>
        <time>2023-02-05T13:06:19Z</time>
      </trkpt>
      <trkpt lat="44.12775" lon="7.25293">
        <ele>1821.5</ele>
        <time>2023-02-05T13:06:20Z</time>
      </trkpt>
      <trkpt lat="44.12777" lon="7.25295">
        <ele>1821.1</ele>
        <time>2023-02-05T13:06:21Z</time>
      </trkpt>
      <trkpt lat="44.12778" lon="7.25296">
        <ele>1820.8</ele>
        <time>2023-02-05T13:06:22Z</time>
      </trkpt>
      <trkpt lat="44.12777" lon="7.25296">
        <ele>1820.5</ele>
        <time>2023-02-05T13:06:23Z</time>
      </trkpt>
      <trkpt lat="44.12776" lon="7.25297">
        <ele>1820.4</ele>
        <time>2023-02-05T13:06:24Z</time>
      </trkpt>
      <trkpt lat="44.12776" lon="7.25297">
        <ele>1820.2</ele>
        <time>2023-02-05T13:06:25Z</time>
      </trkpt>
      <trkpt lat="44.12778" lon="7.25298">
        <ele>1820</ele>
        <time>2023-02-05T13:06:26Z</time>
      </trkpt>
      <trkpt lat="44.12778" lon="7.25299">
        <ele>1819.9</ele>
        <time>2023-02-05T13:06:27Z</time>
      </trkpt>
      <trkpt lat="44.12779" lon="7.25299">
        <ele>1819.5</ele>
        <time>2023-02-05T13:06:28Z</time>
      </trkpt>
      <trkpt lat="44.12779" lon="7.25301">
        <ele>1819.6</ele>
        <time>2023-02-05T13:06:29Z</time>
      </trkpt>
      <trkpt lat="44.1278" lon="7.25302">
        <ele>1819.4</ele>
        <time>2023-02-05T13:06:30Z</time>
      </trkpt>
      <trkpt lat="44.12781" lon="7.25302">
        <ele>1819.3</ele>
        <time>2023-02-05T13:06:31Z</time>
      </trkpt>
      <trkpt lat="44.12782" lon="7.25303">
        <ele>1819.4</ele>
        <time>2023-02-05T13:06:32Z</time>
      </trkpt>
      <trkpt lat="44.12784" lon="7.25303">
        <ele>1819.4</ele>
        <time>2023-02-05T13:06:33Z</time>
      </trkpt>
      <trkpt lat="44.12785" lon="7.25304">
        <ele>1819</ele>
        <time>2023-02-05T13:06:34Z</time>
      </trkpt>
      <trkpt lat="44.12785" lon="7.25304">
        <ele>1818.8</ele>
        <time>2023-02-05T13:06:35Z</time>
      </trkpt>
      <trkpt lat="44.12785" lon="7.25306">
        <ele>1818.7</ele>
        <time>2023-02-05T13:06:36Z</time>
      </trkpt>
      <trkpt lat="44.12784" lon="7.25306">
        <ele>1818.5</ele>
        <time>2023-02-05T13:06:37Z</time>
      </trkpt>
      <trkpt lat="44.12782" lon="7.25307">
        <ele>1818.4</ele>
        <time>2023-02-05T13:06:38Z</time>
      </trkpt>
      <trkpt lat="44.12783" lon="7.25308">
        <ele>1818.3</ele>
        <time>2023-02-05T13:06:39Z</time>
      </trkpt>
      <trkpt lat="44.12785" lon="7.25309">
        <ele>1818.1</ele>
        <time>2023-02-05T13:06:40Z</time>
      </trkpt>
      <trkpt lat="44.12784" lon="7.2531">
        <ele>1817.9</ele>
        <time>2023-02-05T13:06:41Z</time>
      </trkpt>
      <trkpt lat="44.12784" lon="7.25312">
        <ele>1817.7</ele>
        <time>2023-02-05T13:06:42Z</time>
      </trkpt>
      <trkpt lat="44.12782" lon="7.25313">
        <ele>1817</ele>
        <time>2023-02-05T13:06:43Z</time>
      </trkpt>
      <trkpt lat="44.12778" lon="7.25314">
        <ele>1816.8</ele>
        <time>2023-02-05T13:06:44Z</time>
      </trkpt>
      <trkpt lat="44.12778" lon="7.25315">
        <ele>1817.1</ele>
        <time>2023-02-05T13:06:45Z</time>
      </trkpt>
      <trkpt lat="44.12776" lon="7.25316">
        <ele>1816.9</ele>
        <time>2023-02-05T13:06:46Z</time>
      </trkpt>
      <trkpt lat="44.12775" lon="7.25318">
        <ele>1816.8</ele>
        <time>2023-02-05T13:06:47Z</time>
      </trkpt>
      <trkpt lat="44.12774" lon="7.25319">
        <ele>1816.4</ele>
        <time>2023-02-05T13:06:48Z</time>
      </trkpt>
      <trkpt lat="44.12773" lon="7.25319">
        <ele>1816.2</ele>
        <time>2023-02-05T13:06:49Z</time>
      </trkpt>
      <trkpt lat="44.12772" lon="7.25321">
        <ele>1816</ele>
        <time>2023-02-05T13:06:50Z</time>
      </trkpt>
      <trkpt lat="44.1277" lon="7.25322">
        <ele>1815.9</ele>
        <time>2023-02-05T13:06:51Z</time>
      </trkpt>
      <trkpt lat="44.1277" lon="7.25323">
        <ele>1815.6</ele>
        <time>2023-02-05T13:06:52Z</time>
      </trkpt>
      <trkpt lat="44.1277" lon="7.25324">
        <ele>1815.5</ele>
        <time>2023-02-05T13:06:53Z</time>
      </trkpt>
      <trkpt lat="44.12769" lon="7.25325">
        <ele>1815.4</ele>
        <time>2023-02-05T13:06:54Z</time>
      </trkpt>
      <trkpt lat="44.12769" lon="7.25326">
        <ele>1815.3</ele>
        <time>2023-02-05T13:06:55Z</time>
      </trkpt>
      <trkpt lat="44.1277" lon="7.25328">
        <ele>1815.5</ele>
        <time>2023-02-05T13:06:56Z</time>
      </trkpt>
      <trkpt lat="44.1277" lon="7.2533">
        <ele>1815.7</ele>
        <time>2023-02-05T13:06:57Z</time>
      </trkpt>
      <trkpt lat="44.12769" lon="7.25331">
        <ele>1815.5</ele>
        <time>2023-02-05T13:06:58Z</time>
      </trkpt>
      <trkpt lat="44.12768" lon="7.25331">
        <ele>1815.5</ele>
        <time>2023-02-05T13:06:59Z</time>
      </trkpt>
      <trkpt lat="44.12768" lon="7.25332">
        <ele>1815.4</ele>
        <time>2023-02-05T13:07:00Z</time>
      </trkpt>
      <trkpt lat="44.12768" lon="7.25333">
        <ele>1815.3</ele>
        <time>2023-02-05T13:07:01Z</time>
      </trkpt>
      <trkpt lat="44.12768" lon="7.25334">
        <ele>1815.1</ele>
        <time>2023-02-05T13:07:02Z</time>
      </trkpt>
      <trkpt lat="44.12768" lon="7.25335">
        <ele>1815</ele>
        <time>2023-02-05T13:07:03Z</time>
      </trkpt>
      <trkpt lat="44.12768" lon="7.25335">
        <ele>1814.9</ele>
        <time>2023-02-05T13:07:04Z</time>
      </trkpt>
      <trkpt lat="44.12769" lon="7.25336">
        <ele>1815</ele>
        <time>2023-02-05T13:07:05Z</time>
      </trkpt>
      <trkpt lat="44.1277" lon="7.25337">
        <ele>1814.9</ele>
        <time>2023-02-05T13:07:06Z</time>
      </trkpt>
      <trkpt lat="44.12772" lon="7.25338">
        <ele>1814.9</ele>
        <time>2023-02-05T13:07:07Z</time>
      </trkpt>
      <trkpt lat="44.12772" lon="7.25341">
        <ele>1814.9</ele>
        <time>2023-02-05T13:07:08Z</time>
      </trkpt>
      <trkpt lat="44.12771" lon="7.25341">
        <ele>1814.8</ele>
        <time>2023-02-05T13:07:09Z</time>
      </trkpt>
      <trkpt lat="44.12768" lon="7.25342">
        <ele>1814.8</ele>
        <time>2023-02-05T13:07:10Z</time>
      </trkpt>
      <trkpt lat="44.12768" lon="7.25343">
        <ele>1814.9</ele>
        <time>2023-02-05T13:07:11Z</time>
      </trkpt>
      <trkpt lat="44.12768" lon="7.25344">
        <ele>1814.9</ele>
        <time>2023-02-05T13:07:12Z</time>
      </trkpt>
      <trkpt lat="44.12767" lon="7.25345">
        <ele>1815</ele>
        <time>2023-02-05T13:07:13Z</time>
      </trkpt>
      <trkpt lat="44.12767" lon="7.25345">
        <ele>1815</ele>
        <time>2023-02-05T13:07:14Z</time>
      </trkpt>
      <trkpt lat="44.12767" lon="7.25345">
        <ele>1815</ele>
        <time>2023-02-05T13:07:15Z</time>
      </trkpt>
      <trkpt lat="44.12767" lon="7.25344">
        <ele>1815.2</ele>
        <time>2023-02-05T13:07:16Z</time>
      </trkpt>
      <trkpt lat="44.12767" lon="7.25345">
        <ele>1815.1</ele>
        <time>2023-02-05T13:07:17Z</time>
      </trkpt>
      <trkpt lat="44.12767" lon="7.25345">
        <ele>1815.1</ele>
        <time>2023-02-05T13:07:18Z</time>
      </trkpt>
      <trkpt lat="44.12767" lon="7.25345">
        <ele>1815.2</ele>
        <time>2023-02-05T13:07:19Z</time>
      </trkpt>
      <trkpt lat="44.12767" lon="7.25346">
        <ele>1815.2</ele>
        <time>2023-02-05T13:07:20Z</time>
      </trkpt>
      <trkpt lat="44.12768" lon="7.25346">
        <ele>1815.2</ele>
        <time>2023-02-05T13:07:21Z</time>
      </trkpt>
      <trkpt lat="44.12769" lon="7.25347">
        <ele>1815.2</ele>
        <time>2023-02-05T13:07:22Z</time>
      </trkpt>
      <trkpt lat="44.1277" lon="7.25347">
        <ele>1815.2</ele>
        <time>2023-02-05T13:07:23Z</time>
      </trkpt>
      <trkpt lat="44.12771" lon="7.25348">
        <ele>1816.2</ele>
        <time>2023-02-05T13:07:24Z</time>
      </trkpt>
      <trkpt lat="44.12772" lon="7.25348">
        <ele>1815.5</ele>
        <time>2023-02-05T13:07:25Z</time>
      </trkpt>
      <trkpt lat="44.12774" lon="7.25348">
        <ele>1815</ele>
        <time>2023-02-05T13:07:26Z</time>
      </trkpt>
      <trkpt lat="44.12775" lon="7.25347">
        <ele>1815.8</ele>
        <time>2023-02-05T13:07:27Z</time>
      </trkpt>
      <trkpt lat="44.12774" lon="7.25346">
        <ele>1816.5</ele>
        <time>2023-02-05T13:07:28Z</time>
      </trkpt>
      <trkpt lat="44.12775" lon="7.25346">
        <ele>1815.6</ele>
        <time>2023-02-05T13:07:29Z</time>
      </trkpt>
      <trkpt lat="44.12776" lon="7.25345">
        <ele>1815.1</ele>
        <time>2023-02-05T13:07:30Z</time>
      </trkpt>
      <trkpt lat="44.12776" lon="7.25344">
        <ele>1815.1</ele>
        <time>2023-02-05T13:07:31Z</time>
      </trkpt>
      <trkpt lat="44.12776" lon="7.25345">
        <ele>1815.5</ele>
        <time>2023-02-05T13:07:32Z</time>
      </trkpt>
      <trkpt lat="44.12776" lon="7.25345">
        <ele>1815.6</ele>
        <time>2023-02-05T13:07:33Z</time>
      </trkpt>
      <trkpt lat="44.12778" lon="7.25346">
        <ele>1815.8</ele>
        <time>2023-02-05T13:07:34Z</time>
      </trkpt>
      <trkpt lat="44.12778" lon="7.25346">
        <ele>1815.8</ele>
        <time>2023-02-05T13:07:35Z</time>
      </trkpt>
      <trkpt lat="44.12777" lon="7.25346">
        <ele>1816</ele>
        <time>2023-02-05T13:07:36Z</time>
      </trkpt>
      <trkpt lat="44.12775" lon="7.25347">
        <ele>1816.1</ele>
        <time>2023-02-05T13:07:37Z</time>
      </trkpt>
      <trkpt lat="44.12775" lon="7.25347">
        <ele>1816.3</ele>
        <time>2023-02-05T13:07:38Z</time>
      </trkpt>
      <trkpt lat="44.12775" lon="7.25348">
        <ele>1816.3</ele>
        <time>2023-02-05T13:07:39Z</time>
      </trkpt>
      <trkpt lat="44.12777" lon="7.25349">
        <ele>1816.2</ele>
        <time>2023-02-05T13:07:40Z</time>
      </trkpt>
      <trkpt lat="44.1278" lon="7.25349">
        <ele>1816.1</ele>
        <time>2023-02-05T13:07:41Z</time>
      </trkpt>
      <trkpt lat="44.12781" lon="7.2535">
        <ele>1816</ele>
        <time>2023-02-05T13:07:42Z</time>
      </trkpt>
      <trkpt lat="44.12782" lon="7.2535">
        <ele>1815.9</ele>
        <time>2023-02-05T13:07:43Z</time>
      </trkpt>
      <trkpt lat="44.12784" lon="7.25351">
        <ele>1815.7</ele>
        <time>2023-02-05T13:07:44Z</time>
      </trkpt>
      <trkpt lat="44.12786" lon="7.25351">
        <ele>1815.6</ele>
        <time>2023-02-05T13:07:45Z</time>
      </trkpt>
      <trkpt lat="44.12787" lon="7.25353">
        <ele>1815.6</ele>
        <time>2023-02-05T13:07:46Z</time>
      </trkpt>
      <trkpt lat="44.12789" lon="7.25354">
        <ele>1815.4</ele>
        <time>2023-02-05T13:07:47Z</time>
      </trkpt>
      <trkpt lat="44.12789" lon="7.25355">
        <ele>1816.5</ele>
        <time>2023-02-05T13:07:48Z</time>
      </trkpt>
      <trkpt lat="44.12788" lon="7.25356">
        <ele>1816.2</ele>
        <time>2023-02-05T13:07:49Z</time>
      </trkpt>
      <trkpt lat="44.12788" lon="7.25356">
        <ele>1815.9</ele>
        <time>2023-02-05T13:07:50Z</time>
      </trkpt>
      <trkpt lat="44.12789" lon="7.25356">
        <ele>1815.8</ele>
        <time>2023-02-05T13:07:51Z</time>
      </trkpt>
      <trkpt lat="44.12789" lon="7.25356">
        <ele>1815.2</ele>
        <time>2023-02-05T13:07:52Z</time>
      </trkpt>
      <trkpt lat="44.12789" lon="7.25356">
        <ele>1813.6</ele>
        <time>2023-02-05T13:07:53Z</time>
      </trkpt>
      <trkpt lat="44.12788" lon="7.25356">
        <ele>1814.4</ele>
        <time>2023-02-05T13:07:54Z</time>
      </trkpt>
      <trkpt lat="44.12787" lon="7.25356">
        <ele>1814.4</ele>
        <time>2023-02-05T13:07:55Z</time>
      </trkpt>
      <trkpt lat="44.12788" lon="7.25357">
        <ele>1814.3</ele>
        <time>2023-02-05T13:07:56Z</time>
      </trkpt>
      <trkpt lat="44.12786" lon="7.25356">
        <ele>1814.8</ele>
        <time>2023-02-05T13:07:57Z</time>
      </trkpt>
      <trkpt lat="44.12786" lon="7.25357">
        <ele>1815.1</ele>
        <time>2023-02-05T13:07:58Z</time>
      </trkpt>
      <trkpt lat="44.12786" lon="7.25357">
        <ele>1815.4</ele>
        <time>2023-02-05T13:07:59Z</time>
      </trkpt>
      <trkpt lat="44.12785" lon="7.25358">
        <ele>1815.6</ele>
        <time>2023-02-05T13:08:00Z</time>
      </trkpt>
      <trkpt lat="44.12786" lon="7.25357">
        <ele>1815.8</ele>
        <time>2023-02-05T13:08:01Z</time>
      </trkpt>
      <trkpt lat="44.12785" lon="7.25357">
        <ele>1815.9</ele>
        <time>2023-02-05T13:08:02Z</time>
      </trkpt>
      <trkpt lat="44.12784" lon="7.25356">
        <ele>1815.9</ele>
        <time>2023-02-05T13:08:03Z</time>
      </trkpt>
      <trkpt lat="44.12782" lon="7.25354">
        <ele>1816</ele>
        <time>2023-02-05T13:08:04Z</time>
      </trkpt>
      <trkpt lat="44.12781" lon="7.25354">
        <ele>1816</ele>
        <time>2023-02-05T13:08:05Z</time>
      </trkpt>
      <trkpt lat="44.12781" lon="7.25353">
        <ele>1816</ele>
        <time>2023-02-05T13:08:06Z</time>
      </trkpt>
      <trkpt lat="44.12778" lon="7.25353">
        <ele>1815.9</ele>
        <time>2023-02-05T13:08:07Z</time>
      </trkpt>
      <trkpt lat="44.12777" lon="7.25353">
        <ele>1816</ele>
        <time>2023-02-05T13:08:08Z</time>
      </trkpt>
      <trkpt lat="44.12776" lon="7.25352">
        <ele>1816</ele>
        <time>2023-02-05T13:08:09Z</time>
      </trkpt>
      <trkpt lat="44.12776" lon="7.25352">
        <ele>1815.8</ele>
        <time>2023-02-05T13:08:10Z</time>
      </trkpt>
      <trkpt lat="44.12775" lon="7.25352">
        <ele>1815.8</ele>
        <time>2023-02-05T13:08:11Z</time>
      </trkpt>
      <trkpt lat="44.12774" lon="7.25352">
        <ele>1815.8</ele>
        <time>2023-02-05T13:08:12Z</time>
      </trkpt>
      <trkpt lat="44.12774" lon="7.25352">
        <ele>1815.8</ele>
        <time>2023-02-05T13:08:13Z</time>
      </trkpt>
      <trkpt lat="44.12773" lon="7.25351">
        <ele>1815.8</ele>
        <time>2023-02-05T13:08:14Z</time>
      </trkpt>
      <trkpt lat="44.12772" lon="7.25351">
        <ele>1815.7</ele>
        <time>2023-02-05T13:08:15Z</time>
      </trkpt>
      <trkpt lat="44.12772" lon="7.25351">
        <ele>1815.7</ele>
        <time>2023-02-05T13:08:16Z</time>
      </trkpt>
      <trkpt lat="44.12773" lon="7.25351">
        <ele>1815.7</ele>
        <time>2023-02-05T13:08:17Z</time>
      </trkpt>
      <trkpt lat="44.12773" lon="7.25352">
        <ele>1815.7</ele>
        <time>2023-02-05T13:08:18Z</time>
      </trkpt>
      <trkpt lat="44.12773" lon="7.25352">
        <ele>1815.8</ele>
        <time>2023-02-05T13:08:19Z</time>
      </trkpt>
      <trkpt lat="44.12773" lon="7.25351">
        <ele>1815.8</ele>
        <time>2023-02-05T13:08:20Z</time>
      </trkpt>
      <trkpt lat="44.12774" lon="7.25351">
        <ele>1815.7</ele>
        <time>2023-02-05T13:08:21Z</time>
      </trkpt>
      <trkpt lat="44.12774" lon="7.25351">
        <ele>1815.7</ele>
        <time>2023-02-05T13:08:22Z</time>
      </trkpt>
      <trkpt lat="44.12775" lon="7.25352">
        <ele>1815.7</ele>
        <time>2023-02-05T13:08:23Z</time>
      </trkpt>
      <trkpt lat="44.12776" lon="7.25352">
        <ele>1815.7</ele>
        <time>2023-02-05T13:08:24Z</time>
      </trkpt>
      <trkpt lat="44.12777" lon="7.25353">
        <ele>1815.8</ele>
        <time>2023-02-05T13:08:25Z</time>
      </trkpt>
      <trkpt lat="44.12778" lon="7.25354">
        <ele>1815.8</ele>
        <time>2023-02-05T13:08:26Z</time>
      </trkpt>
      <trkpt lat="44.12779" lon="7.25354">
        <ele>1815.8</ele>
        <time>2023-02-05T13:08:27Z</time>
      </trkpt>
      <trkpt lat="44.1278" lon="7.25353">
        <ele>1816</ele>
        <time>2023-02-05T13:08:28Z</time>
      </trkpt>
      <trkpt lat="44.1278" lon="7.25352">
        <ele>1816.2</ele>
        <time>2023-02-05T13:08:29Z</time>
      </trkpt>
      <trkpt lat="44.1278" lon="7.25353">
        <ele>1816.3</ele>
        <time>2023-02-05T13:08:30Z</time>
      </trkpt>
      <trkpt lat="44.12779" lon="7.25353">
        <ele>1816.2</ele>
        <time>2023-02-05T13:08:31Z</time>
      </trkpt>
      <trkpt lat="44.12778" lon="7.25353">
        <ele>1816.1</ele>
        <time>2023-02-05T13:08:32Z</time>
      </trkpt>
      <trkpt lat="44.12776" lon="7.25354">
        <ele>1816</ele>
        <time>2023-02-05T13:08:33Z</time>
      </trkpt>
      <trkpt lat="44.12775" lon="7.25354">
        <ele>1815.9</ele>
        <time>2023-02-05T13:08:34Z</time>
      </trkpt>
      <trkpt lat="44.12775" lon="7.25355">
        <ele>1815.9</ele>
        <time>2023-02-05T13:08:35Z</time>
      </trkpt>
      <trkpt lat="44.12775" lon="7.25355">
        <ele>1815.8</ele>
        <time>2023-02-05T13:08:36Z</time>
      </trkpt>
      <trkpt lat="44.12774" lon="7.25355">
        <ele>1815.8</ele>
        <time>2023-02-05T13:08:37Z</time>
      </trkpt>
      <trkpt lat="44.12773" lon="7.25356">
        <ele>1815.7</ele>
        <time>2023-02-05T13:08:38Z</time>
      </trkpt>
      <trkpt lat="44.12773" lon="7.25356">
        <ele>1815.7</ele>
        <time>2023-02-05T13:08:39Z</time>
      </trkpt>
      <trkpt lat="44.12773" lon="7.25357">
        <ele>1815.6</ele>
        <time>2023-02-05T13:08:40Z</time>
      </trkpt>
      <trkpt lat="44.12773" lon="7.25357">
        <ele>1815.5</ele>
        <time>2023-02-05T13:08:41Z</time>
      </trkpt>
      <trkpt lat="44.12773" lon="7.25357">
        <ele>1815.4</ele>
        <time>2023-02-05T13:08:42Z</time>
      </trkpt>
      <trkpt lat="44.12773" lon="7.25357">
        <ele>1815.4</ele>
        <time>2023-02-05T13:08:43Z</time>
      </trkpt>
      <trkpt lat="44.12773" lon="7.25357">
        <ele>1815.4</ele>
        <time>2023-02-05T13:08:44Z</time>
      </trkpt>
      <trkpt lat="44.12773" lon="7.25358">
        <ele>1815.3</ele>
        <time>2023-02-05T13:08:45Z</time>
      </trkpt>
      <trkpt lat="44.12773" lon="7.25357">
        <ele>1815.3</ele>
        <time>2023-02-05T13:08:46Z</time>
      </trkpt>
      <trkpt lat="44.12773" lon="7.25357">
        <ele>1815.2</ele>
        <time>2023-02-05T13:08:47Z</time>
      </trkpt>
      <trkpt lat="44.12773" lon="7.25357">
        <ele>1815.3</ele>
        <time>2023-02-05T13:08:48Z</time>
      </trkpt>
      <trkpt lat="44.12772" lon="7.25357">
        <ele>1815.3</ele>
        <time>2023-02-05T13:08:49Z</time>
      </trkpt>
      <trkpt lat="44.12772" lon="7.25357">
        <ele>1815.3</ele>
        <time>2023-02-05T13:08:50Z</time>
      </trkpt>
      <trkpt lat="44.12772" lon="7.25357">
        <ele>1815.3</ele>
        <time>2023-02-05T13:08:51Z</time>
      </trkpt>
      <trkpt lat="44.12771" lon="7.25357">
        <ele>1815.3</ele>
        <time>2023-02-05T13:08:52Z</time>
      </trkpt>
      <trkpt lat="44.12771" lon="7.25358">
        <ele>1815.3</ele>
        <time>2023-02-05T13:08:53Z</time>
      </trkpt>
      <trkpt lat="44.12771" lon="7.25358">
        <ele>1815.2</ele>
        <time>2023-02-05T13:08:54Z</time>
      </trkpt>
      <trkpt lat="44.12771" lon="7.25357">
        <ele>1815.3</ele>
        <time>2023-02-05T13:08:55Z</time>
      </trkpt>
      <trkpt lat="44.12771" lon="7.25357">
        <ele>1815.5</ele>
        <time>2023-02-05T13:08:56Z</time>
      </trkpt>
      <trkpt lat="44.1277" lon="7.25358">
        <ele>1815.5</ele>
        <time>2023-02-05T13:08:57Z</time>
      </trkpt>
      <trkpt lat="44.1277" lon="7.25357">
        <ele>1815.5</ele>
        <time>2023-02-05T13:08:58Z</time>
      </trkpt>
      <trkpt lat="44.1277" lon="7.25358">
        <ele>1815.4</ele>
        <time>2023-02-05T13:08:59Z</time>
      </trkpt>
      <trkpt lat="44.12769" lon="7.25358">
        <ele>1815.4</ele>
        <time>2023-02-05T13:09:00Z</time>
      </trkpt>
      <trkpt lat="44.12768" lon="7.25358">
        <ele>1815.2</ele>
        <time>2023-02-05T13:09:01Z</time>
      </trkpt>
      <trkpt lat="44.12768" lon="7.25357">
        <ele>1815.3</ele>
        <time>2023-02-05T13:09:02Z</time>
      </trkpt>
      <trkpt lat="44.12768" lon="7.25357">
        <ele>1815</ele>
        <time>2023-02-05T13:09:03Z</time>
      </trkpt>
      <trkpt lat="44.12768" lon="7.25358">
        <ele>1814.7</ele>
        <time>2023-02-05T13:09:04Z</time>
      </trkpt>
      <trkpt lat="44.12768" lon="7.2536">
        <ele>1814.6</ele>
        <time>2023-02-05T13:09:05Z</time>
      </trkpt>
      <trkpt lat="44.12768" lon="7.2536">
        <ele>1814.6</ele>
        <time>2023-02-05T13:09:06Z</time>
      </trkpt>
      <trkpt lat="44.12768" lon="7.25361">
        <ele>1814.6</ele>
        <time>2023-02-05T13:09:07Z</time>
      </trkpt>
      <trkpt lat="44.12767" lon="7.25361">
        <ele>1814.5</ele>
        <time>2023-02-05T13:09:08Z</time>
      </trkpt>
      <trkpt lat="44.12767" lon="7.25362">
        <ele>1814.2</ele>
        <time>2023-02-05T13:09:09Z</time>
      </trkpt>
      <trkpt lat="44.12766" lon="7.25363">
        <ele>1814.1</ele>
        <time>2023-02-05T13:09:10Z</time>
      </trkpt>
      <trkpt lat="44.12765" lon="7.25363">
        <ele>1814.4</ele>
        <time>2023-02-05T13:09:11Z</time>
      </trkpt>
      <trkpt lat="44.12763" lon="7.25364">
        <ele>1813.8</ele>
        <time>2023-02-05T13:09:12Z</time>
      </trkpt>
      <trkpt lat="44.12762" lon="7.25365">
        <ele>1814</ele>
        <time>2023-02-05T13:09:13Z</time>
      </trkpt>
      <trkpt lat="44.12761" lon="7.25365">
        <ele>1814.2</ele>
        <time>2023-02-05T13:09:14Z</time>
      </trkpt>
      <trkpt lat="44.1276" lon="7.25365">
        <ele>1814.1</ele>
        <time>2023-02-05T13:09:15Z</time>
      </trkpt>
      <trkpt lat="44.1276" lon="7.25366">
        <ele>1814</ele>
        <time>2023-02-05T13:09:16Z</time>
      </trkpt>
      <trkpt lat="44.12759" lon="7.25366">
        <ele>1814.1</ele>
        <time>2023-02-05T13:09:17Z</time>
      </trkpt>
      <trkpt lat="44.12757" lon="7.25367">
        <ele>1813.8</ele>
        <time>2023-02-05T13:09:18Z</time>
      </trkpt>
      <trkpt lat="44.12756" lon="7.25369">
        <ele>1813.7</ele>
        <time>2023-02-05T13:09:19Z</time>
      </trkpt>
      <trkpt lat="44.12756" lon="7.25371">
        <ele>1813.4</ele>
        <time>2023-02-05T13:09:20Z</time>
      </trkpt>
      <trkpt lat="44.12755" lon="7.25372">
        <ele>1813.4</ele>
        <time>2023-02-05T13:09:21Z</time>
      </trkpt>
      <trkpt lat="44.12754" lon="7.25373">
        <ele>1813.6</ele>
        <time>2023-02-05T13:09:22Z</time>
      </trkpt>
      <trkpt lat="44.12752" lon="7.25373">
        <ele>1813.6</ele>
        <time>2023-02-05T13:09:23Z</time>
      </trkpt>
      <trkpt lat="44.12751" lon="7.25373">
        <ele>1813.4</ele>
        <time>2023-02-05T13:09:24Z</time>
      </trkpt>
      <trkpt lat="44.12751" lon="7.25373">
        <ele>1813.3</ele>
        <time>2023-02-05T13:09:25Z</time>
      </trkpt>
      <trkpt lat="44.12751" lon="7.25373">
        <ele>1813.2</ele>
        <time>2023-02-05T13:09:26Z</time>
      </trkpt>
      <trkpt lat="44.12751" lon="7.25374">
        <ele>1813.3</ele>
        <time>2023-02-05T13:09:27Z</time>
      </trkpt>
      <trkpt lat="44.12752" lon="7.25374">
        <ele>1813.3</ele>
        <time>2023-02-05T13:09:28Z</time>
      </trkpt>
      <trkpt lat="44.12752" lon="7.25374">
        <ele>1813.3</ele>
        <time>2023-02-05T13:09:29Z</time>
      </trkpt>
      <trkpt lat="44.12752" lon="7.25375">
        <ele>1813.3</ele>
        <time>2023-02-05T13:09:30Z</time>
      </trkpt>
      <trkpt lat="44.12752" lon="7.25376">
        <ele>1813.4</ele>
        <time>2023-02-05T13:09:31Z</time>
      </trkpt>
      <trkpt lat="44.12752" lon="7.2538">
        <ele>1813.3</ele>
        <time>2023-02-05T13:09:32Z</time>
      </trkpt>
      <trkpt lat="44.12751" lon="7.25381">
        <ele>1813.3</ele>
        <time>2023-02-05T13:09:33Z</time>
      </trkpt>
      <trkpt lat="44.12748" lon="7.25381">
        <ele>1813.2</ele>
        <time>2023-02-05T13:09:34Z</time>
      </trkpt>
      <trkpt lat="44.12748" lon="7.25381">
        <ele>1813.2</ele>
        <time>2023-02-05T13:09:35Z</time>
      </trkpt>
      <trkpt lat="44.12748" lon="7.25383">
        <ele>1813.2</ele>
        <time>2023-02-05T13:09:36Z</time>
      </trkpt>
      <trkpt lat="44.12747" lon="7.25384">
        <ele>1813.3</ele>
        <time>2023-02-05T13:09:37Z</time>
      </trkpt>
      <trkpt lat="44.12747" lon="7.25385">
        <ele>1813.3</ele>
        <time>2023-02-05T13:09:38Z</time>
      </trkpt>
      <trkpt lat="44.12747" lon="7.25385">
        <ele>1813.3</ele>
        <time>2023-02-05T13:09:39Z</time>
      </trkpt>
      <trkpt lat="44.12747" lon="7.25386">
        <ele>1813.3</ele>
        <time>2023-02-05T13:09:40Z</time>
      </trkpt>
      <trkpt lat="44.12747" lon="7.25386">
        <ele>1813.3</ele>
        <time>2023-02-05T13:09:41Z</time>
      </trkpt>
      <trkpt lat="44.12747" lon="7.25387">
        <ele>1813.2</ele>
        <time>2023-02-05T13:09:42Z</time>
      </trkpt>
      <trkpt lat="44.12748" lon="7.25388">
        <ele>1813</ele>
        <time>2023-02-05T13:09:43Z</time>
      </trkpt>
      <trkpt lat="44.12748" lon="7.25389">
        <ele>1813</ele>
        <time>2023-02-05T13:09:44Z</time>
      </trkpt>
      <trkpt lat="44.12748" lon="7.25389">
        <ele>1813</ele>
        <time>2023-02-05T13:09:45Z</time>
      </trkpt>
      <trkpt lat="44.12748" lon="7.25389">
        <ele>1813</ele>
        <time>2023-02-05T13:09:46Z</time>
      </trkpt>
      <trkpt lat="44.12748" lon="7.25389">
        <ele>1813</ele>
        <time>2023-02-05T13:09:47Z</time>
      </trkpt>
      <trkpt lat="44.12748" lon="7.2539">
        <ele>1813</ele>
        <time>2023-02-05T13:09:48Z</time>
      </trkpt>
      <trkpt lat="44.12748" lon="7.2539">
        <ele>1813</ele>
        <time>2023-02-05T13:09:49Z</time>
      </trkpt>
      <trkpt lat="44.12748" lon="7.2539">
        <ele>1812.9</ele>
        <time>2023-02-05T13:09:50Z</time>
      </trkpt>
      <trkpt lat="44.12748" lon="7.2539">
        <ele>1813</ele>
        <time>2023-02-05T13:09:51Z</time>
      </trkpt>
      <trkpt lat="44.12748" lon="7.25391">
        <ele>1812.9</ele>
        <time>2023-02-05T13:09:52Z</time>
      </trkpt>
      <trkpt lat="44.12748" lon="7.25391">
        <ele>1813</ele>
        <time>2023-02-05T13:09:53Z</time>
      </trkpt>
      <trkpt lat="44.12747" lon="7.25392">
        <ele>1813</ele>
        <time>2023-02-05T13:09:54Z</time>
      </trkpt>
      <trkpt lat="44.12747" lon="7.25393">
        <ele>1813.1</ele>
        <time>2023-02-05T13:09:55Z</time>
      </trkpt>
      <trkpt lat="44.12747" lon="7.25393">
        <ele>1813.1</ele>
        <time>2023-02-05T13:09:56Z</time>
      </trkpt>
      <trkpt lat="44.12747" lon="7.25393">
        <ele>1813.1</ele>
        <time>2023-02-05T13:09:57Z</time>
      </trkpt>
      <trkpt lat="44.12748" lon="7.25394">
        <ele>1813.1</ele>
        <time>2023-02-05T13:09:58Z</time>
      </trkpt>
      <trkpt lat="44.12747" lon="7.25394">
        <ele>1813</ele>
        <time>2023-02-05T13:09:59Z</time>
      </trkpt>
      <trkpt lat="44.12748" lon="7.25395">
        <ele>1812.9</ele>
        <time>2023-02-05T13:10:00Z</time>
      </trkpt>
      <trkpt lat="44.12748" lon="7.25395">
        <ele>1812.9</ele>
        <time>2023-02-05T13:10:01Z</time>
      </trkpt>
      <trkpt lat="44.12748" lon="7.25395">
        <ele>1812.8</ele>
        <time>2023-02-05T13:10:02Z</time>
      </trkpt>
      <trkpt lat="44.12749" lon="7.25396">
        <ele>1812.9</ele>
        <time>2023-02-05T13:10:03Z</time>
      </trkpt>
      <trkpt lat="44.12749" lon="7.25396">
        <ele>1813</ele>
        <time>2023-02-05T13:10:04Z</time>
      </trkpt>
      <trkpt lat="44.12749" lon="7.25396">
        <ele>1813.1</ele>
        <time>2023-02-05T13:10:05Z</time>
      </trkpt>
      <trkpt lat="44.12749" lon="7.25396">
        <ele>1813.1</ele>
        <time>2023-02-05T13:10:06Z</time>
      </trkpt>
      <trkpt lat="44.12749" lon="7.25396">
        <ele>1812.9</ele>
        <time>2023-02-05T13:10:07Z</time>
      </trkpt>
      <trkpt lat="44.1275" lon="7.25395">
        <ele>1812.8</ele>
        <time>2023-02-05T13:10:08Z</time>
      </trkpt>
      <trkpt lat="44.12749" lon="7.25395">
        <ele>1812.8</ele>
        <time>2023-02-05T13:10:09Z</time>
      </trkpt>
      <trkpt lat="44.1275" lon="7.25396">
        <ele>1812.8</ele>
        <time>2023-02-05T13:10:10Z</time>
      </trkpt>
      <trkpt lat="44.1275" lon="7.25397">
        <ele>1812.8</ele>
        <time>2023-02-05T13:10:11Z</time>
      </trkpt>
      <trkpt lat="44.1275" lon="7.25397">
        <ele>1812.9</ele>
        <time>2023-02-05T13:10:12Z</time>
      </trkpt>
      <trkpt lat="44.1275" lon="7.25397">
        <ele>1812.9</ele>
        <time>2023-02-05T13:10:13Z</time>
      </trkpt>
      <trkpt lat="44.1275" lon="7.25398">
        <ele>1812.9</ele>
        <time>2023-02-05T13:10:14Z</time>
      </trkpt>
      <trkpt lat="44.1275" lon="7.25398">
        <ele>1812.9</ele>
        <time>2023-02-05T13:10:15Z</time>
      </trkpt>
      <trkpt lat="44.1275" lon="7.25397">
        <ele>1812.9</ele>
        <time>2023-02-05T13:10:16Z</time>
      </trkpt>
      <trkpt lat="44.12751" lon="7.25396">
        <ele>1813</ele>
        <time>2023-02-05T13:10:17Z</time>
      </trkpt>
      <trkpt lat="44.12751" lon="7.25396">
        <ele>1813</ele>
        <time>2023-02-05T13:10:18Z</time>
      </trkpt>
      <trkpt lat="44.12751" lon="7.25396">
        <ele>1812.9</ele>
        <time>2023-02-05T13:10:19Z</time>
      </trkpt>
      <trkpt lat="44.12751" lon="7.25396">
        <ele>1812.9</ele>
        <time>2023-02-05T13:10:20Z</time>
      </trkpt>
      <trkpt lat="44.12751" lon="7.25396">
        <ele>1813</ele>
        <time>2023-02-05T13:10:21Z</time>
      </trkpt>
      <trkpt lat="44.12751" lon="7.25396">
        <ele>1813</ele>
        <time>2023-02-05T13:10:22Z</time>
      </trkpt>
      <trkpt lat="44.12751" lon="7.25396">
        <ele>1813</ele>
        <time>2023-02-05T13:10:23Z</time>
      </trkpt>
      <trkpt lat="44.12751" lon="7.25396">
        <ele>1812.9</ele>
        <time>2023-02-05T13:10:24Z</time>
      </trkpt>
      <trkpt lat="44.12751" lon="7.25396">
        <ele>1812.9</ele>
        <time>2023-02-05T13:10:25Z</time>
      </trkpt>
      <trkpt lat="44.1275" lon="7.25396">
        <ele>1812.9</ele>
        <time>2023-02-05T13:10:26Z</time>
      </trkpt>
      <trkpt lat="44.1275" lon="7.25396">
        <ele>1812.9</ele>
        <time>2023-02-05T13:10:27Z</time>
      </trkpt>
      <trkpt lat="44.1275" lon="7.25395">
        <ele>1812.8</ele>
        <time>2023-02-05T13:10:28Z</time>
      </trkpt>
      <trkpt lat="44.12751" lon="7.25395">
        <ele>1812.8</ele>
        <time>2023-02-05T13:10:29Z</time>
      </trkpt>
      <trkpt lat="44.12751" lon="7.25395">
        <ele>1811.1</ele>
        <time>2023-02-05T13:10:30Z</time>
      </trkpt>
      <trkpt lat="44.1275" lon="7.25395">
        <ele>1811.5</ele>
        <time>2023-02-05T13:10:31Z</time>
      </trkpt>
      <trkpt lat="44.1275" lon="7.25394">
        <ele>1811.7</ele>
        <time>2023-02-05T13:10:32Z</time>
      </trkpt>
      <trkpt lat="44.1275" lon="7.25394">
        <ele>1811.3</ele>
        <time>2023-02-05T13:10:33Z</time>
      </trkpt>
      <trkpt lat="44.1275" lon="7.25393">
        <ele>1812.4</ele>
        <time>2023-02-05T13:10:34Z</time>
      </trkpt>
      <trkpt lat="44.12749" lon="7.25392">
        <ele>1812.6</ele>
        <time>2023-02-05T13:10:35Z</time>
      </trkpt>
      <trkpt lat="44.1275" lon="7.25392">
        <ele>1812.6</ele>
        <time>2023-02-05T13:10:36Z</time>
      </trkpt>
      <trkpt lat="44.1275" lon="7.25391">
        <ele>1812.7</ele>
        <time>2023-02-05T13:10:37Z</time>
      </trkpt>
      <trkpt lat="44.1275" lon="7.25391">
        <ele>1812.8</ele>
        <time>2023-02-05T13:10:38Z</time>
      </trkpt>
      <trkpt lat="44.12751" lon="7.2539">
        <ele>1812.9</ele>
        <time>2023-02-05T13:10:39Z</time>
      </trkpt>
      <trkpt lat="44.12751" lon="7.2539">
        <ele>1813.1</ele>
        <time>2023-02-05T13:10:40Z</time>
      </trkpt>
      <trkpt lat="44.12751" lon="7.25389">
        <ele>1813.1</ele>
        <time>2023-02-05T13:10:41Z</time>
      </trkpt>
      <trkpt lat="44.12751" lon="7.25389">
        <ele>1813.1</ele>
        <time>2023-02-05T13:10:42Z</time>
      </trkpt>
      <trkpt lat="44.12751" lon="7.25389">
        <ele>1813.1</ele>
        <time>2023-02-05T13:10:43Z</time>
      </trkpt>
      <trkpt lat="44.1275" lon="7.25389">
        <ele>1813</ele>
        <time>2023-02-05T13:10:44Z</time>
      </trkpt>
      <trkpt lat="44.1275" lon="7.25389">
        <ele>1812.9</ele>
        <time>2023-02-05T13:10:45Z</time>
      </trkpt>
      <trkpt lat="44.1275" lon="7.25389">
        <ele>1812.8</ele>
        <time>2023-02-05T13:10:46Z</time>
      </trkpt>
      <trkpt lat="44.1275" lon="7.25389">
        <ele>1812.7</ele>
        <time>2023-02-05T13:10:47Z</time>
      </trkpt>
      <trkpt lat="44.12749" lon="7.25389">
        <ele>1812.7</ele>
        <time>2023-02-05T13:10:48Z</time>
      </trkpt>
      <trkpt lat="44.12749" lon="7.25389">
        <ele>1812.6</ele>
        <time>2023-02-05T13:10:49Z</time>
      </trkpt>
      <trkpt lat="44.12749" lon="7.25389">
        <ele>1812.6</ele>
        <time>2023-02-05T13:10:50Z</time>
      </trkpt>
      <trkpt lat="44.12749" lon="7.25389">
        <ele>1812.6</ele>
        <time>2023-02-05T13:10:51Z</time>
      </trkpt>
      <trkpt lat="44.12749" lon="7.25389">
        <ele>1812.7</ele>
        <time>2023-02-05T13:10:52Z</time>
      </trkpt>
      <trkpt lat="44.12748" lon="7.25388">
        <ele>1812.7</ele>
        <time>2023-02-05T13:10:53Z</time>
      </trkpt>
      <trkpt lat="44.12748" lon="7.25388">
        <ele>1812.7</ele>
        <time>2023-02-05T13:10:54Z</time>
      </trkpt>
      <trkpt lat="44.12747" lon="7.25387">
        <ele>1812.7</ele>
        <time>2023-02-05T13:10:55Z</time>
      </trkpt>
      <trkpt lat="44.12747" lon="7.25387">
        <ele>1812.7</ele>
        <time>2023-02-05T13:10:56Z</time>
      </trkpt>
      <trkpt lat="44.12747" lon="7.25387">
        <ele>1812.7</ele>
        <time>2023-02-05T13:10:57Z</time>
      </trkpt>
      <trkpt lat="44.12747" lon="7.25387">
        <ele>1812.7</ele>
        <time>2023-02-05T13:10:58Z</time>
      </trkpt>
      <trkpt lat="44.12747" lon="7.25387">
        <ele>1812.7</ele>
        <time>2023-02-05T13:10:59Z</time>
      </trkpt>
      <trkpt lat="44.12747" lon="7.25387">
        <ele>1812.7</ele>
        <time>2023-02-05T13:11:00Z</time>
      </trkpt>
      <trkpt lat="44.12747" lon="7.25387">
        <ele>1812.7</ele>
        <time>2023-02-05T13:11:01Z</time>
      </trkpt>
      <trkpt lat="44.12747" lon="7.25387">
        <ele>1812.7</ele>
        <time>2023-02-05T13:11:02Z</time>
      </trkpt>
      <trkpt lat="44.12748" lon="7.25387">
        <ele>1812.8</ele>
        <time>2023-02-05T13:11:03Z</time>
      </trkpt>
      <trkpt lat="44.12748" lon="7.25387">
        <ele>1812.8</ele>
        <time>2023-02-05T13:11:04Z</time>
      </trkpt>
      <trkpt lat="44.12748" lon="7.25386">
        <ele>1812.8</ele>
        <time>2023-02-05T13:11:05Z</time>
      </trkpt>
      <trkpt lat="44.12748" lon="7.25386">
        <ele>1812.8</ele>
        <time>2023-02-05T13:11:06Z</time>
      </trkpt>
      <trkpt lat="44.12748" lon="7.25386">
        <ele>1812.8</ele>
        <time>2023-02-05T13:11:07Z</time>
      </trkpt>
      <trkpt lat="44.12749" lon="7.25386">
        <ele>1812.6</ele>
        <time>2023-02-05T13:11:08Z</time>
      </trkpt>
      <trkpt lat="44.12749" lon="7.25385">
        <ele>1812.5</ele>
        <time>2023-02-05T13:11:09Z</time>
      </trkpt>
      <trkpt lat="44.12749" lon="7.25386">
        <ele>1812.5</ele>
        <time>2023-02-05T13:11:10Z</time>
      </trkpt>
      <trkpt lat="44.12749" lon="7.25386">
        <ele>1812.5</ele>
        <time>2023-02-05T13:11:11Z</time>
      </trkpt>
      <trkpt lat="44.12749" lon="7.25386">
        <ele>1812.6</ele>
        <time>2023-02-05T13:11:12Z</time>
      </trkpt>
      <trkpt lat="44.12749" lon="7.25386">
        <ele>1812.6</ele>
        <time>2023-02-05T13:11:13Z</time>
      </trkpt>
      <trkpt lat="44.12749" lon="7.25386">
        <ele>1812.6</ele>
        <time>2023-02-05T13:11:14Z</time>
      </trkpt>
      <trkpt lat="44.12749" lon="7.25386">
        <ele>1812.5</ele>
        <time>2023-02-05T13:11:15Z</time>
      </trkpt>
      <trkpt lat="44.12749" lon="7.25386">
        <ele>1812.6</ele>
        <time>2023-02-05T13:11:16Z</time>
      </trkpt>
      <trkpt lat="44.12749" lon="7.25386">
        <ele>1812.6</ele>
        <time>2023-02-05T13:11:17Z</time>
      </trkpt>
      <trkpt lat="44.12749" lon="7.25385">
        <ele>1812.6</ele>
        <time>2023-02-05T13:11:18Z</time>
      </trkpt>
      <trkpt lat="44.12749" lon="7.25385">
        <ele>1813.1</ele>
        <time>2023-02-05T13:11:19Z</time>
      </trkpt>
      <trkpt lat="44.1275" lon="7.25386">
        <ele>1813.1</ele>
        <time>2023-02-05T13:11:20Z</time>
      </trkpt>
      <trkpt lat="44.1275" lon="7.25386">
        <ele>1813</ele>
        <time>2023-02-05T13:11:21Z</time>
      </trkpt>
      <trkpt lat="44.1275" lon="7.25386">
        <ele>1812.9</ele>
        <time>2023-02-05T13:11:22Z</time>
      </trkpt>
      <trkpt lat="44.1275" lon="7.25386">
        <ele>1812.8</ele>
        <time>2023-02-05T13:11:23Z</time>
      </trkpt>
      <trkpt lat="44.1275" lon="7.25386">
        <ele>1812.9</ele>
        <time>2023-02-05T13:11:24Z</time>
      </trkpt>
      <trkpt lat="44.1275" lon="7.25386">
        <ele>1812.9</ele>
        <time>2023-02-05T13:11:25Z</time>
      </trkpt>
      <trkpt lat="44.1275" lon="7.25386">
        <ele>1812.8</ele>
        <time>2023-02-05T13:11:26Z</time>
      </trkpt>
      <trkpt lat="44.1275" lon="7.25387">
        <ele>1812.7</ele>
        <time>2023-02-05T13:11:27Z</time>
      </trkpt>
      <trkpt lat="44.1275" lon="7.25387">
        <ele>1812.8</ele>
        <time>2023-02-05T13:11:28Z</time>
      </trkpt>
      <trkpt lat="44.1275" lon="7.25387">
        <ele>1812.8</ele>
        <time>2023-02-05T13:11:29Z</time>
      </trkpt>
      <trkpt lat="44.1275" lon="7.25387">
        <ele>1812.8</ele>
        <time>2023-02-05T13:11:30Z</time>
      </trkpt>
      <trkpt lat="44.1275" lon="7.25387">
        <ele>1812.8</ele>
        <time>2023-02-05T13:11:31Z</time>
      </trkpt>
      <trkpt lat="44.1275" lon="7.25388">
        <ele>1812.8</ele>
        <time>2023-02-05T13:11:32Z</time>
      </trkpt>
      <trkpt lat="44.1275" lon="7.25388">
        <ele>1812.7</ele>
        <time>2023-02-05T13:11:33Z</time>
      </trkpt>
      <trkpt lat="44.12751" lon="7.25388">
        <ele>1812.6</ele>
        <time>2023-02-05T13:11:34Z</time>
      </trkpt>
      <trkpt lat="44.12751" lon="7.25387">
        <ele>1812.7</ele>
        <time>2023-02-05T13:11:35Z</time>
      </trkpt>
      <trkpt lat="44.12751" lon="7.25387">
        <ele>1812.7</ele>
        <time>2023-02-05T13:11:36Z</time>
      </trkpt>
      <trkpt lat="44.12751" lon="7.25387">
        <ele>1812.7</ele>
        <time>2023-02-05T13:11:37Z</time>
      </trkpt>
      <trkpt lat="44.12751" lon="7.25387">
        <ele>1812.7</ele>
        <time>2023-02-05T13:11:38Z</time>
      </trkpt>
      <trkpt lat="44.12751" lon="7.25387">
        <ele>1812.7</ele>
        <time>2023-02-05T13:11:39Z</time>
      </trkpt>
      <trkpt lat="44.12751" lon="7.25388">
        <ele>1812.6</ele>
        <time>2023-02-05T13:11:40Z</time>
      </trkpt>
      <trkpt lat="44.1275" lon="7.25389">
        <ele>1812.6</ele>
        <time>2023-02-05T13:11:41Z</time>
      </trkpt>
      <trkpt lat="44.1275" lon="7.25389">
        <ele>1812.6</ele>
        <time>2023-02-05T13:11:42Z</time>
      </trkpt>
      <trkpt lat="44.12749" lon="7.2539">
        <ele>1812.5</ele>
        <time>2023-02-05T13:11:43Z</time>
      </trkpt>
      <trkpt lat="44.12749" lon="7.25391">
        <ele>1812.5</ele>
        <time>2023-02-05T13:11:44Z</time>
      </trkpt>
      <trkpt lat="44.12749" lon="7.25391">
        <ele>1812.5</ele>
        <time>2023-02-05T13:11:45Z</time>
      </trkpt>
      <trkpt lat="44.12748" lon="7.25393">
        <ele>1812.5</ele>
        <time>2023-02-05T13:11:46Z</time>
      </trkpt>
      <trkpt lat="44.12748" lon="7.25394">
        <ele>1812.4</ele>
        <time>2023-02-05T13:11:47Z</time>
      </trkpt>
      <trkpt lat="44.12747" lon="7.25395">
        <ele>1812.4</ele>
        <time>2023-02-05T13:11:48Z</time>
      </trkpt>
      <trkpt lat="44.12747" lon="7.25396">
        <ele>1812.3</ele>
        <time>2023-02-05T13:11:49Z</time>
      </trkpt>
      <trkpt lat="44.12747" lon="7.25397">
        <ele>1812.3</ele>
        <time>2023-02-05T13:11:50Z</time>
      </trkpt>
      <trkpt lat="44.12746" lon="7.25398">
        <ele>1812.1</ele>
        <time>2023-02-05T13:11:51Z</time>
      </trkpt>
      <trkpt lat="44.12746" lon="7.25399">
        <ele>1812</ele>
        <time>2023-02-05T13:11:52Z</time>
      </trkpt>
      <trkpt lat="44.12745" lon="7.254">
        <ele>1811.9</ele>
        <time>2023-02-05T13:11:53Z</time>
      </trkpt>
      <trkpt lat="44.12744" lon="7.25401">
        <ele>1811.8</ele>
        <time>2023-02-05T13:11:54Z</time>
      </trkpt>
      <trkpt lat="44.12744" lon="7.25402">
        <ele>1811.6</ele>
        <time>2023-02-05T13:11:55Z</time>
      </trkpt>
      <trkpt lat="44.12743" lon="7.25403">
        <ele>1811.3</ele>
        <time>2023-02-05T13:11:56Z</time>
      </trkpt>
      <trkpt lat="44.12742" lon="7.25404">
        <ele>1811.1</ele>
        <time>2023-02-05T13:11:57Z</time>
      </trkpt>
      <trkpt lat="44.12741" lon="7.25404">
        <ele>1810.9</ele>
        <time>2023-02-05T13:11:58Z</time>
      </trkpt>
      <trkpt lat="44.1274" lon="7.25404">
        <ele>1810.7</ele>
        <time>2023-02-05T13:11:59Z</time>
      </trkpt>
      <trkpt lat="44.12739" lon="7.25405">
        <ele>1810.6</ele>
        <time>2023-02-05T13:12:00Z</time>
      </trkpt>
      <trkpt lat="44.12738" lon="7.25406">
        <ele>1810.4</ele>
        <time>2023-02-05T13:12:01Z</time>
      </trkpt>
      <trkpt lat="44.12738" lon="7.25407">
        <ele>1810.3</ele>
        <time>2023-02-05T13:12:02Z</time>
      </trkpt>
      <trkpt lat="44.12737" lon="7.25408">
        <ele>1810.2</ele>
        <time>2023-02-05T13:12:03Z</time>
      </trkpt>
      <trkpt lat="44.12737" lon="7.25409">
        <ele>1810.1</ele>
        <time>2023-02-05T13:12:04Z</time>
      </trkpt>
      <trkpt lat="44.12736" lon="7.2541">
        <ele>1810.1</ele>
        <time>2023-02-05T13:12:05Z</time>
      </trkpt>
      <trkpt lat="44.12735" lon="7.25411">
        <ele>1809.9</ele>
        <time>2023-02-05T13:12:06Z</time>
      </trkpt>
      <trkpt lat="44.12735" lon="7.25413">
        <ele>1809.8</ele>
        <time>2023-02-05T13:12:07Z</time>
      </trkpt>
      <trkpt lat="44.12734" lon="7.25414">
        <ele>1809.6</ele>
        <time>2023-02-05T13:12:08Z</time>
      </trkpt>
      <trkpt lat="44.12733" lon="7.25415">
        <ele>1809.5</ele>
        <time>2023-02-05T13:12:09Z</time>
      </trkpt>
      <trkpt lat="44.12733" lon="7.25416">
        <ele>1809.4</ele>
        <time>2023-02-05T13:12:10Z</time>
      </trkpt>
      <trkpt lat="44.12733" lon="7.25417">
        <ele>1809.3</ele>
        <time>2023-02-05T13:12:11Z</time>
      </trkpt>
      <trkpt lat="44.12732" lon="7.25418">
        <ele>1809.1</ele>
        <time>2023-02-05T13:12:12Z</time>
      </trkpt>
      <trkpt lat="44.12731" lon="7.25419">
        <ele>1809</ele>
        <time>2023-02-05T13:12:13Z</time>
      </trkpt>
      <trkpt lat="44.12731" lon="7.25421">
        <ele>1808.7</ele>
        <time>2023-02-05T13:12:14Z</time>
      </trkpt>
      <trkpt lat="44.1273" lon="7.25422">
        <ele>1808.6</ele>
        <time>2023-02-05T13:12:15Z</time>
      </trkpt>
      <trkpt lat="44.1273" lon="7.25423">
        <ele>1808.3</ele>
        <time>2023-02-05T13:12:16Z</time>
      </trkpt>
      <trkpt lat="44.12729" lon="7.25424">
        <ele>1808.2</ele>
        <time>2023-02-05T13:12:17Z</time>
      </trkpt>
      <trkpt lat="44.12729" lon="7.25425">
        <ele>1808</ele>
        <time>2023-02-05T13:12:18Z</time>
      </trkpt>
      <trkpt lat="44.12729" lon="7.25427">
        <ele>1807.8</ele>
        <time>2023-02-05T13:12:19Z</time>
      </trkpt>
      <trkpt lat="44.12728" lon="7.25428">
        <ele>1807.6</ele>
        <time>2023-02-05T13:12:20Z</time>
      </trkpt>
      <trkpt lat="44.12728" lon="7.2543">
        <ele>1807.3</ele>
        <time>2023-02-05T13:12:21Z</time>
      </trkpt>
      <trkpt lat="44.12728" lon="7.25431">
        <ele>1807.2</ele>
        <time>2023-02-05T13:12:22Z</time>
      </trkpt>
      <trkpt lat="44.12727" lon="7.25432">
        <ele>1807</ele>
        <time>2023-02-05T13:12:23Z</time>
      </trkpt>
      <trkpt lat="44.12726" lon="7.25433">
        <ele>1807</ele>
        <time>2023-02-05T13:12:24Z</time>
      </trkpt>
      <trkpt lat="44.12726" lon="7.25434">
        <ele>1806.8</ele>
        <time>2023-02-05T13:12:25Z</time>
      </trkpt>
      <trkpt lat="44.12725" lon="7.25435">
        <ele>1806.5</ele>
        <time>2023-02-05T13:12:26Z</time>
      </trkpt>
      <trkpt lat="44.12725" lon="7.25436">
        <ele>1806.3</ele>
        <time>2023-02-05T13:12:27Z</time>
      </trkpt>
      <trkpt lat="44.12724" lon="7.25437">
        <ele>1806.1</ele>
        <time>2023-02-05T13:12:28Z</time>
      </trkpt>
      <trkpt lat="44.12723" lon="7.25438">
        <ele>1805.8</ele>
        <time>2023-02-05T13:12:29Z</time>
      </trkpt>
      <trkpt lat="44.12723" lon="7.25439">
        <ele>1805.6</ele>
        <time>2023-02-05T13:12:30Z</time>
      </trkpt>
      <trkpt lat="44.12723" lon="7.2544">
        <ele>1805.4</ele>
        <time>2023-02-05T13:12:31Z</time>
      </trkpt>
      <trkpt lat="44.12722" lon="7.25441">
        <ele>1805.3</ele>
        <time>2023-02-05T13:12:32Z</time>
      </trkpt>
      <trkpt lat="44.12721" lon="7.25441">
        <ele>1805</ele>
        <time>2023-02-05T13:12:33Z</time>
      </trkpt>
      <trkpt lat="44.12721" lon="7.25442">
        <ele>1804.7</ele>
        <time>2023-02-05T13:12:34Z</time>
      </trkpt>
      <trkpt lat="44.1272" lon="7.25443">
        <ele>1804.5</ele>
        <time>2023-02-05T13:12:35Z</time>
      </trkpt>
      <trkpt lat="44.1272" lon="7.25444">
        <ele>1804.3</ele>
        <time>2023-02-05T13:12:36Z</time>
      </trkpt>
      <trkpt lat="44.1272" lon="7.25445">
        <ele>1804.1</ele>
        <time>2023-02-05T13:12:37Z</time>
      </trkpt>
      <trkpt lat="44.12719" lon="7.25447">
        <ele>1803.8</ele>
        <time>2023-02-05T13:12:38Z</time>
      </trkpt>
      <trkpt lat="44.12719" lon="7.25448">
        <ele>1803.6</ele>
        <time>2023-02-05T13:12:39Z</time>
      </trkpt>
      <trkpt lat="44.12718" lon="7.2545">
        <ele>1803.3</ele>
        <time>2023-02-05T13:12:40Z</time>
      </trkpt>
      <trkpt lat="44.12717" lon="7.25451">
        <ele>1803.1</ele>
        <time>2023-02-05T13:12:41Z</time>
      </trkpt>
      <trkpt lat="44.12717" lon="7.25452">
        <ele>1802.8</ele>
        <time>2023-02-05T13:12:42Z</time>
      </trkpt>
      <trkpt lat="44.12717" lon="7.25453">
        <ele>1802.5</ele>
        <time>2023-02-05T13:12:43Z</time>
      </trkpt>
      <trkpt lat="44.12716" lon="7.25455">
        <ele>1802.2</ele>
        <time>2023-02-05T13:12:44Z</time>
      </trkpt>
      <trkpt lat="44.12715" lon="7.25455">
        <ele>1802</ele>
        <time>2023-02-05T13:12:45Z</time>
      </trkpt>
      <trkpt lat="44.12714" lon="7.25457">
        <ele>1801.8</ele>
        <time>2023-02-05T13:12:46Z</time>
      </trkpt>
      <trkpt lat="44.12714" lon="7.25458">
        <ele>1801.7</ele>
        <time>2023-02-05T13:12:47Z</time>
      </trkpt>
      <trkpt lat="44.12713" lon="7.2546">
        <ele>1801.5</ele>
        <time>2023-02-05T13:12:48Z</time>
      </trkpt>
      <trkpt lat="44.12713" lon="7.25461">
        <ele>1801.4</ele>
        <time>2023-02-05T13:12:49Z</time>
      </trkpt>
      <trkpt lat="44.12712" lon="7.25462">
        <ele>1801.3</ele>
        <time>2023-02-05T13:12:50Z</time>
      </trkpt>
      <trkpt lat="44.12711" lon="7.25464">
        <ele>1801</ele>
        <time>2023-02-05T13:12:51Z</time>
      </trkpt>
      <trkpt lat="44.1271" lon="7.25465">
        <ele>1800.7</ele>
        <time>2023-02-05T13:12:52Z</time>
      </trkpt>
      <trkpt lat="44.12709" lon="7.25466">
        <ele>1800.4</ele>
        <time>2023-02-05T13:12:53Z</time>
      </trkpt>
      <trkpt lat="44.12708" lon="7.25466">
        <ele>1800.1</ele>
        <time>2023-02-05T13:12:54Z</time>
      </trkpt>
      <trkpt lat="44.12708" lon="7.25466">
        <ele>1799.9</ele>
        <time>2023-02-05T13:12:55Z</time>
      </trkpt>
      <trkpt lat="44.12706" lon="7.25467">
        <ele>1799.7</ele>
        <time>2023-02-05T13:12:56Z</time>
      </trkpt>
      <trkpt lat="44.12705" lon="7.25467">
        <ele>1799.4</ele>
        <time>2023-02-05T13:12:57Z</time>
      </trkpt>
      <trkpt lat="44.12705" lon="7.25468">
        <ele>1799.2</ele>
        <time>2023-02-05T13:12:58Z</time>
      </trkpt>
      <trkpt lat="44.12704" lon="7.25469">
        <ele>1799</ele>
        <time>2023-02-05T13:12:59Z</time>
      </trkpt>
      <trkpt lat="44.12703" lon="7.2547">
        <ele>1798.7</ele>
        <time>2023-02-05T13:13:00Z</time>
      </trkpt>
      <trkpt lat="44.12703" lon="7.25471">
        <ele>1798.4</ele>
        <time>2023-02-05T13:13:01Z</time>
      </trkpt>
      <trkpt lat="44.12703" lon="7.25472">
        <ele>1798.2</ele>
        <time>2023-02-05T13:13:02Z</time>
      </trkpt>
      <trkpt lat="44.12703" lon="7.25473">
        <ele>1797.8</ele>
        <time>2023-02-05T13:13:03Z</time>
      </trkpt>
      <trkpt lat="44.12702" lon="7.25474">
        <ele>1797.5</ele>
        <time>2023-02-05T13:13:04Z</time>
      </trkpt>
      <trkpt lat="44.12703" lon="7.25475">
        <ele>1797.2</ele>
        <time>2023-02-05T13:13:05Z</time>
      </trkpt>
      <trkpt lat="44.12703" lon="7.25477">
        <ele>1797</ele>
        <time>2023-02-05T13:13:06Z</time>
      </trkpt>
      <trkpt lat="44.12703" lon="7.25478">
        <ele>1796.7</ele>
        <time>2023-02-05T13:13:07Z</time>
      </trkpt>
      <trkpt lat="44.12704" lon="7.25479">
        <ele>1796.4</ele>
        <time>2023-02-05T13:13:08Z</time>
      </trkpt>
      <trkpt lat="44.12705" lon="7.2548">
        <ele>1796.1</ele>
        <time>2023-02-05T13:13:09Z</time>
      </trkpt>
      <trkpt lat="44.12706" lon="7.25481">
        <ele>1795.9</ele>
        <time>2023-02-05T13:13:10Z</time>
      </trkpt>
      <trkpt lat="44.12707" lon="7.25482">
        <ele>1795.7</ele>
        <time>2023-02-05T13:13:11Z</time>
      </trkpt>
      <trkpt lat="44.12708" lon="7.25482">
        <ele>1795.5</ele>
        <time>2023-02-05T13:13:12Z</time>
      </trkpt>
      <trkpt lat="44.12708" lon="7.25484">
        <ele>1795.2</ele>
        <time>2023-02-05T13:13:13Z</time>
      </trkpt>
      <trkpt lat="44.12709" lon="7.25485">
        <ele>1795</ele>
        <time>2023-02-05T13:13:14Z</time>
      </trkpt>
      <trkpt lat="44.1271" lon="7.25486">
        <ele>1794.8</ele>
        <time>2023-02-05T13:13:15Z</time>
      </trkpt>
      <trkpt lat="44.1271" lon="7.25487">
        <ele>1794.5</ele>
        <time>2023-02-05T13:13:16Z</time>
      </trkpt>
      <trkpt lat="44.12711" lon="7.25488">
        <ele>1794.2</ele>
        <time>2023-02-05T13:13:17Z</time>
      </trkpt>
      <trkpt lat="44.12711" lon="7.25489">
        <ele>1794</ele>
        <time>2023-02-05T13:13:18Z</time>
      </trkpt>
      <trkpt lat="44.12711" lon="7.2549">
        <ele>1793.7</ele>
        <time>2023-02-05T13:13:19Z</time>
      </trkpt>
      <trkpt lat="44.12712" lon="7.25491">
        <ele>1793.6</ele>
        <time>2023-02-05T13:13:20Z</time>
      </trkpt>
      <trkpt lat="44.12712" lon="7.25493">
        <ele>1793.4</ele>
        <time>2023-02-05T13:13:21Z</time>
      </trkpt>
      <trkpt lat="44.12712" lon="7.25495">
        <ele>1793.1</ele>
        <time>2023-02-05T13:13:22Z</time>
      </trkpt>
      <trkpt lat="44.12713" lon="7.25496">
        <ele>1792.8</ele>
        <time>2023-02-05T13:13:23Z</time>
      </trkpt>
      <trkpt lat="44.12713" lon="7.25498">
        <ele>1792.5</ele>
        <time>2023-02-05T13:13:24Z</time>
      </trkpt>
      <trkpt lat="44.12714" lon="7.25499">
        <ele>1792.2</ele>
        <time>2023-02-05T13:13:25Z</time>
      </trkpt>
      <trkpt lat="44.12714" lon="7.25501">
        <ele>1792</ele>
        <time>2023-02-05T13:13:26Z</time>
      </trkpt>
      <trkpt lat="44.12715" lon="7.25502">
        <ele>1791.7</ele>
        <time>2023-02-05T13:13:27Z</time>
      </trkpt>
      <trkpt lat="44.12715" lon="7.25504">
        <ele>1791.5</ele>
        <time>2023-02-05T13:13:28Z</time>
      </trkpt>
      <trkpt lat="44.12715" lon="7.25505">
        <ele>1791.2</ele>
        <time>2023-02-05T13:13:29Z</time>
      </trkpt>
      <trkpt lat="44.12715" lon="7.25506">
        <ele>1790.9</ele>
        <time>2023-02-05T13:13:30Z</time>
      </trkpt>
      <trkpt lat="44.12715" lon="7.25507">
        <ele>1790.6</ele>
        <time>2023-02-05T13:13:31Z</time>
      </trkpt>
      <trkpt lat="44.12715" lon="7.25509">
        <ele>1790.4</ele>
        <time>2023-02-05T13:13:32Z</time>
      </trkpt>
      <trkpt lat="44.12715" lon="7.2551">
        <ele>1789.9</ele>
        <time>2023-02-05T13:13:33Z</time>
      </trkpt>
      <trkpt lat="44.12715" lon="7.25511">
        <ele>1789.6</ele>
        <time>2023-02-05T13:13:34Z</time>
      </trkpt>
      <trkpt lat="44.12715" lon="7.25512">
        <ele>1789.3</ele>
        <time>2023-02-05T13:13:35Z</time>
      </trkpt>
      <trkpt lat="44.12714" lon="7.25513">
        <ele>1789</ele>
        <time>2023-02-05T13:13:36Z</time>
      </trkpt>
      <trkpt lat="44.12714" lon="7.25515">
        <ele>1788.9</ele>
        <time>2023-02-05T13:13:37Z</time>
      </trkpt>
      <trkpt lat="44.12714" lon="7.25516">
        <ele>1788.8</ele>
        <time>2023-02-05T13:13:38Z</time>
      </trkpt>
      <trkpt lat="44.12714" lon="7.25517">
        <ele>1788.6</ele>
        <time>2023-02-05T13:13:39Z</time>
      </trkpt>
      <trkpt lat="44.12714" lon="7.25519">
        <ele>1788.4</ele>
        <time>2023-02-05T13:13:40Z</time>
      </trkpt>
      <trkpt lat="44.12714" lon="7.2552">
        <ele>1788.1</ele>
        <time>2023-02-05T13:13:41Z</time>
      </trkpt>
      <trkpt lat="44.12714" lon="7.25521">
        <ele>1787.9</ele>
        <time>2023-02-05T13:13:42Z</time>
      </trkpt>
      <trkpt lat="44.12714" lon="7.25521">
        <ele>1787.6</ele>
        <time>2023-02-05T13:13:43Z</time>
      </trkpt>
      <trkpt lat="44.12714" lon="7.25523">
        <ele>1787.4</ele>
        <time>2023-02-05T13:13:44Z</time>
      </trkpt>
      <trkpt lat="44.12715" lon="7.25524">
        <ele>1787.1</ele>
        <time>2023-02-05T13:13:45Z</time>
      </trkpt>
      <trkpt lat="44.12715" lon="7.25524">
        <ele>1786.9</ele>
        <time>2023-02-05T13:13:46Z</time>
      </trkpt>
      <trkpt lat="44.12714" lon="7.25526">
        <ele>1786.8</ele>
        <time>2023-02-05T13:13:47Z</time>
      </trkpt>
      <trkpt lat="44.12714" lon="7.25526">
        <ele>1786.5</ele>
        <time>2023-02-05T13:13:48Z</time>
      </trkpt>
      <trkpt lat="44.12713" lon="7.25526">
        <ele>1786.2</ele>
        <time>2023-02-05T13:13:49Z</time>
      </trkpt>
      <trkpt lat="44.12712" lon="7.25527">
        <ele>1786.1</ele>
        <time>2023-02-05T13:13:50Z</time>
      </trkpt>
      <trkpt lat="44.12712" lon="7.25527">
        <ele>1786.1</ele>
        <time>2023-02-05T13:13:51Z</time>
      </trkpt>
      <trkpt lat="44.12712" lon="7.25527">
        <ele>1786</ele>
        <time>2023-02-05T13:13:52Z</time>
      </trkpt>
      <trkpt lat="44.12712" lon="7.25528">
        <ele>1785.9</ele>
        <time>2023-02-05T13:13:53Z</time>
      </trkpt>
      <trkpt lat="44.12712" lon="7.25528">
        <ele>1785.9</ele>
        <time>2023-02-05T13:13:54Z</time>
      </trkpt>
      <trkpt lat="44.12712" lon="7.25528">
        <ele>1785.8</ele>
        <time>2023-02-05T13:13:55Z</time>
      </trkpt>
      <trkpt lat="44.12713" lon="7.25528">
        <ele>1785.8</ele>
        <time>2023-02-05T13:13:56Z</time>
      </trkpt>
      <trkpt lat="44.12713" lon="7.25529">
        <ele>1785.8</ele>
        <time>2023-02-05T13:13:57Z</time>
      </trkpt>
      <trkpt lat="44.12713" lon="7.25529">
        <ele>1785.8</ele>
        <time>2023-02-05T13:13:58Z</time>
      </trkpt>
      <trkpt lat="44.12714" lon="7.25529">
        <ele>1785.9</ele>
        <time>2023-02-05T13:13:59Z</time>
      </trkpt>
      <trkpt lat="44.12714" lon="7.2553">
        <ele>1785.9</ele>
        <time>2023-02-05T13:14:00Z</time>
      </trkpt>
      <trkpt lat="44.12714" lon="7.2553">
        <ele>1785.9</ele>
        <time>2023-02-05T13:14:01Z</time>
      </trkpt>
      <trkpt lat="44.12715" lon="7.25531">
        <ele>1785.8</ele>
        <time>2023-02-05T13:14:02Z</time>
      </trkpt>
      <trkpt lat="44.12715" lon="7.25531">
        <ele>1785.8</ele>
        <time>2023-02-05T13:14:03Z</time>
      </trkpt>
      <trkpt lat="44.12715" lon="7.25531">
        <ele>1785.8</ele>
        <time>2023-02-05T13:14:04Z</time>
      </trkpt>
      <trkpt lat="44.12716" lon="7.25532">
        <ele>1785.7</ele>
        <time>2023-02-05T13:14:05Z</time>
      </trkpt>
      <trkpt lat="44.12716" lon="7.25532">
        <ele>1785.6</ele>
        <time>2023-02-05T13:14:06Z</time>
      </trkpt>
      <trkpt lat="44.12716" lon="7.25533">
        <ele>1785.5</ele>
        <time>2023-02-05T13:14:07Z</time>
      </trkpt>
      <trkpt lat="44.12716" lon="7.25533">
        <ele>1785.5</ele>
        <time>2023-02-05T13:14:08Z</time>
      </trkpt>
      <trkpt lat="44.12716" lon="7.25533">
        <ele>1785.4</ele>
        <time>2023-02-05T13:14:09Z</time>
      </trkpt>
      <trkpt lat="44.12716" lon="7.25533">
        <ele>1785.3</ele>
        <time>2023-02-05T13:14:10Z</time>
      </trkpt>
      <trkpt lat="44.12715" lon="7.25533">
        <ele>1785.3</ele>
        <time>2023-02-05T13:14:11Z</time>
      </trkpt>
      <trkpt lat="44.12716" lon="7.25533">
        <ele>1785.2</ele>
        <time>2023-02-05T13:14:12Z</time>
      </trkpt>
      <trkpt lat="44.12716" lon="7.25533">
        <ele>1785.3</ele>
        <time>2023-02-05T13:14:13Z</time>
      </trkpt>
      <trkpt lat="44.12716" lon="7.25533">
        <ele>1785.3</ele>
        <time>2023-02-05T13:14:14Z</time>
      </trkpt>
      <trkpt lat="44.12716" lon="7.25533">
        <ele>1785.3</ele>
        <time>2023-02-05T13:14:15Z</time>
      </trkpt>
      <trkpt lat="44.12716" lon="7.25533">
        <ele>1785.4</ele>
        <time>2023-02-05T13:14:16Z</time>
      </trkpt>
      <trkpt lat="44.12716" lon="7.25533">
        <ele>1785.4</ele>
        <time>2023-02-05T13:14:17Z</time>
      </trkpt>
      <trkpt lat="44.12716" lon="7.25533">
        <ele>1785.4</ele>
        <time>2023-02-05T13:14:18Z</time>
      </trkpt>
      <trkpt lat="44.12715" lon="7.25533">
        <ele>1785.3</ele>
        <time>2023-02-05T13:14:19Z</time>
      </trkpt>
      <trkpt lat="44.12715" lon="7.25533">
        <ele>1785.2</ele>
        <time>2023-02-05T13:14:20Z</time>
      </trkpt>
      <trkpt lat="44.12715" lon="7.25533">
        <ele>1785.2</ele>
        <time>2023-02-05T13:14:21Z</time>
      </trkpt>
      <trkpt lat="44.12715" lon="7.25534">
        <ele>1785.2</ele>
        <time>2023-02-05T13:14:22Z</time>
      </trkpt>
      <trkpt lat="44.12715" lon="7.25534">
        <ele>1785.2</ele>
        <time>2023-02-05T13:14:23Z</time>
      </trkpt>
      <trkpt lat="44.12715" lon="7.25534">
        <ele>1785.2</ele>
        <time>2023-02-05T13:14:24Z</time>
      </trkpt>
      <trkpt lat="44.12715" lon="7.25534">
        <ele>1785.1</ele>
        <time>2023-02-05T13:14:25Z</time>
      </trkpt>
      <trkpt lat="44.12715" lon="7.25535">
        <ele>1785.1</ele>
        <time>2023-02-05T13:14:26Z</time>
      </trkpt>
      <trkpt lat="44.12714" lon="7.25535">
        <ele>1785.1</ele>
        <time>2023-02-05T13:14:27Z</time>
      </trkpt>
      <trkpt lat="44.12714" lon="7.25535">
        <ele>1785.1</ele>
        <time>2023-02-05T13:14:28Z</time>
      </trkpt>
      <trkpt lat="44.12714" lon="7.25535">
        <ele>1785.1</ele>
        <time>2023-02-05T13:14:29Z</time>
      </trkpt>
      <trkpt lat="44.12714" lon="7.25535">
        <ele>1785.2</ele>
        <time>2023-02-05T13:14:30Z</time>
      </trkpt>
      <trkpt lat="44.12714" lon="7.25535">
        <ele>1785.2</ele>
        <time>2023-02-05T13:14:31Z</time>
      </trkpt>
      <trkpt lat="44.12714" lon="7.25535">
        <ele>1785.3</ele>
        <time>2023-02-05T13:14:32Z</time>
      </trkpt>
      <trkpt lat="44.12714" lon="7.25535">
        <ele>1785.3</ele>
        <time>2023-02-05T13:14:33Z</time>
      </trkpt>
      <trkpt lat="44.12714" lon="7.25535">
        <ele>1785.3</ele>
        <time>2023-02-05T13:14:34Z</time>
      </trkpt>
      <trkpt lat="44.12714" lon="7.25535">
        <ele>1785.2</ele>
        <time>2023-02-05T13:14:35Z</time>
      </trkpt>
      <trkpt lat="44.12714" lon="7.25536">
        <ele>1785.3</ele>
        <time>2023-02-05T13:14:36Z</time>
      </trkpt>
      <trkpt lat="44.12714" lon="7.25536">
        <ele>1785.3</ele>
        <time>2023-02-05T13:14:37Z</time>
      </trkpt>
      <trkpt lat="44.12713" lon="7.25536">
        <ele>1785.3</ele>
        <time>2023-02-05T13:14:38Z</time>
      </trkpt>
      <trkpt lat="44.12714" lon="7.25536">
        <ele>1785.3</ele>
        <time>2023-02-05T13:14:39Z</time>
      </trkpt>
      <trkpt lat="44.12714" lon="7.25536">
        <ele>1785.3</ele>
        <time>2023-02-05T13:14:40Z</time>
      </trkpt>
      <trkpt lat="44.12713" lon="7.25536">
        <ele>1785.4</ele>
        <time>2023-02-05T13:14:41Z</time>
      </trkpt>
      <trkpt lat="44.12714" lon="7.25536">
        <ele>1785.3</ele>
        <time>2023-02-05T13:14:42Z</time>
      </trkpt>
      <trkpt lat="44.12714" lon="7.25535">
        <ele>1785.3</ele>
        <time>2023-02-05T13:14:43Z</time>
      </trkpt>
      <trkpt lat="44.12714" lon="7.25535">
        <ele>1785.2</ele>
        <time>2023-02-05T13:14:44Z</time>
      </trkpt>
      <trkpt lat="44.12714" lon="7.25535">
        <ele>1785.2</ele>
        <time>2023-02-05T13:14:45Z</time>
      </trkpt>
      <trkpt lat="44.12714" lon="7.25535">
        <ele>1785.3</ele>
        <time>2023-02-05T13:14:46Z</time>
      </trkpt>
      <trkpt lat="44.12714" lon="7.25536">
        <ele>1785.3</ele>
        <time>2023-02-05T13:14:47Z</time>
      </trkpt>
      <trkpt lat="44.12714" lon="7.25536">
        <ele>1785.3</ele>
        <time>2023-02-05T13:14:48Z</time>
      </trkpt>
      <trkpt lat="44.12714" lon="7.25536">
        <ele>1785.4</ele>
        <time>2023-02-05T13:14:49Z</time>
      </trkpt>
      <trkpt lat="44.12713" lon="7.25536">
        <ele>1785.4</ele>
        <time>2023-02-05T13:14:50Z</time>
      </trkpt>
      <trkpt lat="44.12713" lon="7.25537">
        <ele>1785.5</ele>
        <time>2023-02-05T13:14:51Z</time>
      </trkpt>
      <trkpt lat="44.12713" lon="7.25537">
        <ele>1785.5</ele>
        <time>2023-02-05T13:14:52Z</time>
      </trkpt>
      <trkpt lat="44.12713" lon="7.25536">
        <ele>1785.5</ele>
        <time>2023-02-05T13:14:53Z</time>
      </trkpt>
      <trkpt lat="44.12713" lon="7.25536">
        <ele>1785.6</ele>
        <time>2023-02-05T13:14:54Z</time>
      </trkpt>
      <trkpt lat="44.12713" lon="7.25536">
        <ele>1785.6</ele>
        <time>2023-02-05T13:14:55Z</time>
      </trkpt>
      <trkpt lat="44.12713" lon="7.25536">
        <ele>1785.6</ele>
        <time>2023-02-05T13:14:56Z</time>
      </trkpt>
      <trkpt lat="44.12713" lon="7.25536">
        <ele>1785.7</ele>
        <time>2023-02-05T13:14:57Z</time>
      </trkpt>
      <trkpt lat="44.12713" lon="7.25535">
        <ele>1785.6</ele>
        <time>2023-02-05T13:14:58Z</time>
      </trkpt>
      <trkpt lat="44.12713" lon="7.25535">
        <ele>1785.5</ele>
        <time>2023-02-05T13:14:59Z</time>
      </trkpt>
      <trkpt lat="44.12713" lon="7.25535">
        <ele>1785.5</ele>
        <time>2023-02-05T13:15:00Z</time>
      </trkpt>
      <trkpt lat="44.12713" lon="7.25535">
        <ele>1785.5</ele>
        <time>2023-02-05T13:15:01Z</time>
      </trkpt>
      <trkpt lat="44.12713" lon="7.25535">
        <ele>1785.5</ele>
        <time>2023-02-05T13:15:02Z</time>
      </trkpt>
      <trkpt lat="44.12713" lon="7.25535">
        <ele>1785.5</ele>
        <time>2023-02-05T13:15:03Z</time>
      </trkpt>
      <trkpt lat="44.12713" lon="7.25535">
        <ele>1785.6</ele>
        <time>2023-02-05T13:15:04Z</time>
      </trkpt>
      <trkpt lat="44.12713" lon="7.25535">
        <ele>1785.6</ele>
        <time>2023-02-05T13:15:05Z</time>
      </trkpt>
      <trkpt lat="44.12713" lon="7.25535">
        <ele>1785.6</ele>
        <time>2023-02-05T13:15:06Z</time>
      </trkpt>
      <trkpt lat="44.12713" lon="7.25535">
        <ele>1785.6</ele>
        <time>2023-02-05T13:15:07Z</time>
      </trkpt>
      <trkpt lat="44.12713" lon="7.25534">
        <ele>1785.6</ele>
        <time>2023-02-05T13:15:08Z</time>
      </trkpt>
      <trkpt lat="44.12713" lon="7.25534">
        <ele>1785.5</ele>
        <time>2023-02-05T13:15:09Z</time>
      </trkpt>
      <trkpt lat="44.12713" lon="7.25534">
        <ele>1785.4</ele>
        <time>2023-02-05T13:15:10Z</time>
      </trkpt>
      <trkpt lat="44.12713" lon="7.25534">
        <ele>1785.3</ele>
        <time>2023-02-05T13:15:11Z</time>
      </trkpt>
      <trkpt lat="44.12713" lon="7.25534">
        <ele>1785.3</ele>
        <time>2023-02-05T13:15:12Z</time>
      </trkpt>
      <trkpt lat="44.12713" lon="7.25534">
        <ele>1785.4</ele>
        <time>2023-02-05T13:15:13Z</time>
      </trkpt>
      <trkpt lat="44.12713" lon="7.25534">
        <ele>1785.4</ele>
        <time>2023-02-05T13:15:14Z</time>
      </trkpt>
      <trkpt lat="44.12713" lon="7.25533">
        <ele>1785.4</ele>
        <time>2023-02-05T13:15:15Z</time>
      </trkpt>
      <trkpt lat="44.12713" lon="7.25533">
        <ele>1785.4</ele>
        <time>2023-02-05T13:15:16Z</time>
      </trkpt>
      <trkpt lat="44.12713" lon="7.25533">
        <ele>1785.3</ele>
        <time>2023-02-05T13:15:17Z</time>
      </trkpt>
      <trkpt lat="44.12713" lon="7.25533">
        <ele>1785.3</ele>
        <time>2023-02-05T13:15:18Z</time>
      </trkpt>
      <trkpt lat="44.12713" lon="7.25533">
        <ele>1785.3</ele>
        <time>2023-02-05T13:15:19Z</time>
      </trkpt>
      <trkpt lat="44.12713" lon="7.25533">
        <ele>1785.2</ele>
        <time>2023-02-05T13:15:20Z</time>
      </trkpt>
      <trkpt lat="44.12713" lon="7.25533">
        <ele>1785.2</ele>
        <time>2023-02-05T13:15:21Z</time>
      </trkpt>
      <trkpt lat="44.12712" lon="7.25533">
        <ele>1785.2</ele>
        <time>2023-02-05T13:15:22Z</time>
      </trkpt>
      <trkpt lat="44.12713" lon="7.25533">
        <ele>1785.1</ele>
        <time>2023-02-05T13:15:23Z</time>
      </trkpt>
      <trkpt lat="44.12713" lon="7.25533">
        <ele>1785.1</ele>
        <time>2023-02-05T13:15:24Z</time>
      </trkpt>
      <trkpt lat="44.12713" lon="7.25533">
        <ele>1785</ele>
        <time>2023-02-05T13:15:25Z</time>
      </trkpt>
      <trkpt lat="44.12714" lon="7.25534">
        <ele>1785</ele>
        <time>2023-02-05T13:15:26Z</time>
      </trkpt>
      <trkpt lat="44.12713" lon="7.25534">
        <ele>1784.9</ele>
        <time>2023-02-05T13:15:27Z</time>
      </trkpt>
      <trkpt lat="44.12713" lon="7.25535">
        <ele>1784.9</ele>
        <time>2023-02-05T13:15:28Z</time>
      </trkpt>
      <trkpt lat="44.12713" lon="7.25535">
        <ele>1784.9</ele>
        <time>2023-02-05T13:15:29Z</time>
      </trkpt>
      <trkpt lat="44.12713" lon="7.25535">
        <ele>1784.9</ele>
        <time>2023-02-05T13:15:30Z</time>
      </trkpt>
      <trkpt lat="44.12713" lon="7.25535">
        <ele>1784.9</ele>
        <time>2023-02-05T13:15:31Z</time>
      </trkpt>
      <trkpt lat="44.12712" lon="7.25536">
        <ele>1784.9</ele>
        <time>2023-02-05T13:15:32Z</time>
      </trkpt>
      <trkpt lat="44.12712" lon="7.25536">
        <ele>1784.9</ele>
        <time>2023-02-05T13:15:33Z</time>
      </trkpt>
      <trkpt lat="44.12712" lon="7.25536">
        <ele>1784.8</ele>
        <time>2023-02-05T13:15:34Z</time>
      </trkpt>
      <trkpt lat="44.12712" lon="7.25536">
        <ele>1784.7</ele>
        <time>2023-02-05T13:15:35Z</time>
      </trkpt>
      <trkpt lat="44.12712" lon="7.25536">
        <ele>1784.7</ele>
        <time>2023-02-05T13:15:36Z</time>
      </trkpt>
      <trkpt lat="44.12713" lon="7.25536">
        <ele>1784.8</ele>
        <time>2023-02-05T13:15:37Z</time>
      </trkpt>
      <trkpt lat="44.12713" lon="7.25536">
        <ele>1784.7</ele>
        <time>2023-02-05T13:15:38Z</time>
      </trkpt>
      <trkpt lat="44.12713" lon="7.25536">
        <ele>1784.8</ele>
        <time>2023-02-05T13:15:39Z</time>
      </trkpt>
      <trkpt lat="44.12713" lon="7.25536">
        <ele>1784.9</ele>
        <time>2023-02-05T13:15:40Z</time>
      </trkpt>
      <trkpt lat="44.12713" lon="7.25536">
        <ele>1785</ele>
        <time>2023-02-05T13:15:41Z</time>
      </trkpt>
      <trkpt lat="44.12713" lon="7.25536">
        <ele>1785</ele>
        <time>2023-02-05T13:15:42Z</time>
      </trkpt>
      <trkpt lat="44.12713" lon="7.25536">
        <ele>1785</ele>
        <time>2023-02-05T13:15:43Z</time>
      </trkpt>
      <trkpt lat="44.12713" lon="7.25536">
        <ele>1785</ele>
        <time>2023-02-05T13:15:44Z</time>
      </trkpt>
      <trkpt lat="44.12713" lon="7.25536">
        <ele>1785</ele>
        <time>2023-02-05T13:15:45Z</time>
      </trkpt>
      <trkpt lat="44.12713" lon="7.25536">
        <ele>1785</ele>
        <time>2023-02-05T13:15:46Z</time>
      </trkpt>
      <trkpt lat="44.12713" lon="7.25536">
        <ele>1785.1</ele>
        <time>2023-02-05T13:15:47Z</time>
      </trkpt>
      <trkpt lat="44.12714" lon="7.25536">
        <ele>1785.2</ele>
        <time>2023-02-05T13:15:48Z</time>
      </trkpt>
      <trkpt lat="44.12714" lon="7.25535">
        <ele>1785.1</ele>
        <time>2023-02-05T13:15:49Z</time>
      </trkpt>
      <trkpt lat="44.12714" lon="7.25535">
        <ele>1785.2</ele>
        <time>2023-02-05T13:15:50Z</time>
      </trkpt>
      <trkpt lat="44.12714" lon="7.25535">
        <ele>1785.2</ele>
        <time>2023-02-05T13:15:51Z</time>
      </trkpt>
      <trkpt lat="44.12714" lon="7.25535">
        <ele>1785.2</ele>
        <time>2023-02-05T13:15:52Z</time>
      </trkpt>
      <trkpt lat="44.12714" lon="7.25535">
        <ele>1785.2</ele>
        <time>2023-02-05T13:15:53Z</time>
      </trkpt>
      <trkpt lat="44.12714" lon="7.25535">
        <ele>1785.1</ele>
        <time>2023-02-05T13:15:54Z</time>
      </trkpt>
      <trkpt lat="44.12714" lon="7.25535">
        <ele>1785.1</ele>
        <time>2023-02-05T13:15:55Z</time>
      </trkpt>
      <trkpt lat="44.12714" lon="7.25535">
        <ele>1785.1</ele>
        <time>2023-02-05T13:15:56Z</time>
      </trkpt>
      <trkpt lat="44.12714" lon="7.25535">
        <ele>1785</ele>
        <time>2023-02-05T13:15:57Z</time>
      </trkpt>
      <trkpt lat="44.12714" lon="7.25535">
        <ele>1785</ele>
        <time>2023-02-05T13:15:58Z</time>
      </trkpt>
      <trkpt lat="44.12714" lon="7.25534">
        <ele>1785</ele>
        <time>2023-02-05T13:15:59Z</time>
      </trkpt>
      <trkpt lat="44.12714" lon="7.25534">
        <ele>1785</ele>
        <time>2023-02-05T13:16:00Z</time>
      </trkpt>
      <trkpt lat="44.12714" lon="7.25534">
        <ele>1785</ele>
        <time>2023-02-05T13:16:01Z</time>
      </trkpt>
      <trkpt lat="44.12714" lon="7.25534">
        <ele>1785</ele>
        <time>2023-02-05T13:16:02Z</time>
      </trkpt>
      <trkpt lat="44.12715" lon="7.25535">
        <ele>1785</ele>
        <time>2023-02-05T13:16:03Z</time>
      </trkpt>
      <trkpt lat="44.12715" lon="7.25536">
        <ele>1785</ele>
        <time>2023-02-05T13:16:04Z</time>
      </trkpt>
      <trkpt lat="44.12716" lon="7.25536">
        <ele>1784.9</ele>
        <time>2023-02-05T13:16:05Z</time>
      </trkpt>
      <trkpt lat="44.12716" lon="7.25537">
        <ele>1784.8</ele>
        <time>2023-02-05T13:16:06Z</time>
      </trkpt>
      <trkpt lat="44.12716" lon="7.25538">
        <ele>1784.7</ele>
        <time>2023-02-05T13:16:07Z</time>
      </trkpt>
      <trkpt lat="44.12716" lon="7.25539">
        <ele>1784.6</ele>
        <time>2023-02-05T13:16:08Z</time>
      </trkpt>
      <trkpt lat="44.12717" lon="7.25539">
        <ele>1784.4</ele>
        <time>2023-02-05T13:16:09Z</time>
      </trkpt>
      <trkpt lat="44.12717" lon="7.2554">
        <ele>1784.2</ele>
        <time>2023-02-05T13:16:10Z</time>
      </trkpt>
      <trkpt lat="44.12717" lon="7.25541">
        <ele>1784.1</ele>
        <time>2023-02-05T13:16:11Z</time>
      </trkpt>
      <trkpt lat="44.12717" lon="7.25542">
        <ele>1784</ele>
        <time>2023-02-05T13:16:12Z</time>
      </trkpt>
      <trkpt lat="44.12717" lon="7.25543">
        <ele>1783.8</ele>
        <time>2023-02-05T13:16:13Z</time>
      </trkpt>
      <trkpt lat="44.12717" lon="7.25544">
        <ele>1783.7</ele>
        <time>2023-02-05T13:16:14Z</time>
      </trkpt>
      <trkpt lat="44.12717" lon="7.25545">
        <ele>1783.5</ele>
        <time>2023-02-05T13:16:15Z</time>
      </trkpt>
      <trkpt lat="44.12717" lon="7.25546">
        <ele>1783.4</ele>
        <time>2023-02-05T13:16:16Z</time>
      </trkpt>
      <trkpt lat="44.12718" lon="7.25547">
        <ele>1783.3</ele>
        <time>2023-02-05T13:16:17Z</time>
      </trkpt>
      <trkpt lat="44.12718" lon="7.25548">
        <ele>1783.1</ele>
        <time>2023-02-05T13:16:18Z</time>
      </trkpt>
      <trkpt lat="44.12718" lon="7.25548">
        <ele>1783</ele>
        <time>2023-02-05T13:16:19Z</time>
      </trkpt>
      <trkpt lat="44.12718" lon="7.25548">
        <ele>1782.9</ele>
        <time>2023-02-05T13:16:20Z</time>
      </trkpt>
      <trkpt lat="44.12718" lon="7.25549">
        <ele>1782.7</ele>
        <time>2023-02-05T13:16:21Z</time>
      </trkpt>
      <trkpt lat="44.12718" lon="7.25549">
        <ele>1782.5</ele>
        <time>2023-02-05T13:16:22Z</time>
      </trkpt>
      <trkpt lat="44.12717" lon="7.2555">
        <ele>1782.4</ele>
        <time>2023-02-05T13:16:23Z</time>
      </trkpt>
      <trkpt lat="44.12717" lon="7.25551">
        <ele>1782.3</ele>
        <time>2023-02-05T13:16:24Z</time>
      </trkpt>
      <trkpt lat="44.12717" lon="7.25552">
        <ele>1782.1</ele>
        <time>2023-02-05T13:16:25Z</time>
      </trkpt>
      <trkpt lat="44.12716" lon="7.25553">
        <ele>1782</ele>
        <time>2023-02-05T13:16:26Z</time>
      </trkpt>
      <trkpt lat="44.12716" lon="7.25554">
        <ele>1781.9</ele>
        <time>2023-02-05T13:16:27Z</time>
      </trkpt>
      <trkpt lat="44.12716" lon="7.25555">
        <ele>1781.9</ele>
        <time>2023-02-05T13:16:28Z</time>
      </trkpt>
      <trkpt lat="44.12716" lon="7.25556">
        <ele>1781.2</ele>
        <time>2023-02-05T13:16:29Z</time>
      </trkpt>
      <trkpt lat="44.12716" lon="7.25557">
        <ele>1781.1</ele>
        <time>2023-02-05T13:16:30Z</time>
      </trkpt>
      <trkpt lat="44.12715" lon="7.25558">
        <ele>1781.1</ele>
        <time>2023-02-05T13:16:31Z</time>
      </trkpt>
      <trkpt lat="44.12715" lon="7.25559">
        <ele>1781</ele>
        <time>2023-02-05T13:16:32Z</time>
      </trkpt>
      <trkpt lat="44.12714" lon="7.25559">
        <ele>1780.9</ele>
        <time>2023-02-05T13:16:33Z</time>
      </trkpt>
      <trkpt lat="44.12714" lon="7.25561">
        <ele>1780.8</ele>
        <time>2023-02-05T13:16:34Z</time>
      </trkpt>
      <trkpt lat="44.12713" lon="7.25562">
        <ele>1780.6</ele>
        <time>2023-02-05T13:16:35Z</time>
      </trkpt>
      <trkpt lat="44.12713" lon="7.25563">
        <ele>1780.5</ele>
        <time>2023-02-05T13:16:36Z</time>
      </trkpt>
      <trkpt lat="44.12713" lon="7.25564">
        <ele>1780.4</ele>
        <time>2023-02-05T13:16:37Z</time>
      </trkpt>
      <trkpt lat="44.12713" lon="7.25565">
        <ele>1780.4</ele>
        <time>2023-02-05T13:16:38Z</time>
      </trkpt>
      <trkpt lat="44.12713" lon="7.25566">
        <ele>1780.3</ele>
        <time>2023-02-05T13:16:39Z</time>
      </trkpt>
      <trkpt lat="44.12713" lon="7.25567">
        <ele>1780.3</ele>
        <time>2023-02-05T13:16:40Z</time>
      </trkpt>
      <trkpt lat="44.12713" lon="7.25568">
        <ele>1780.2</ele>
        <time>2023-02-05T13:16:41Z</time>
      </trkpt>
      <trkpt lat="44.12714" lon="7.25569">
        <ele>1780.2</ele>
        <time>2023-02-05T13:16:42Z</time>
      </trkpt>
      <trkpt lat="44.12714" lon="7.2557">
        <ele>1780.2</ele>
        <time>2023-02-05T13:16:43Z</time>
      </trkpt>
      <trkpt lat="44.12714" lon="7.25572">
        <ele>1780.2</ele>
        <time>2023-02-05T13:16:44Z</time>
      </trkpt>
      <trkpt lat="44.12714" lon="7.25573">
        <ele>1780.1</ele>
        <time>2023-02-05T13:16:45Z</time>
      </trkpt>
      <trkpt lat="44.12715" lon="7.25574">
        <ele>1780.1</ele>
        <time>2023-02-05T13:16:46Z</time>
      </trkpt>
      <trkpt lat="44.12715" lon="7.25575">
        <ele>1780</ele>
        <time>2023-02-05T13:16:47Z</time>
      </trkpt>
      <trkpt lat="44.12715" lon="7.25576">
        <ele>1780</ele>
        <time>2023-02-05T13:16:48Z</time>
      </trkpt>
      <trkpt lat="44.12715" lon="7.25577">
        <ele>1780</ele>
        <time>2023-02-05T13:16:49Z</time>
      </trkpt>
      <trkpt lat="44.12716" lon="7.25579">
        <ele>1780</ele>
        <time>2023-02-05T13:16:50Z</time>
      </trkpt>
      <trkpt lat="44.12716" lon="7.2558">
        <ele>1780.1</ele>
        <time>2023-02-05T13:16:51Z</time>
      </trkpt>
      <trkpt lat="44.12716" lon="7.25581">
        <ele>1780.1</ele>
        <time>2023-02-05T13:16:52Z</time>
      </trkpt>
      <trkpt lat="44.12716" lon="7.25582">
        <ele>1780.2</ele>
        <time>2023-02-05T13:16:53Z</time>
      </trkpt>
      <trkpt lat="44.12717" lon="7.25583">
        <ele>1780.2</ele>
        <time>2023-02-05T13:16:54Z</time>
      </trkpt>
      <trkpt lat="44.12717" lon="7.25585">
        <ele>1780.2</ele>
        <time>2023-02-05T13:16:55Z</time>
      </trkpt>
      <trkpt lat="44.12717" lon="7.25586">
        <ele>1780.2</ele>
        <time>2023-02-05T13:16:56Z</time>
      </trkpt>
      <trkpt lat="44.12717" lon="7.25587">
        <ele>1780.1</ele>
        <time>2023-02-05T13:16:57Z</time>
      </trkpt>
      <trkpt lat="44.12717" lon="7.25588">
        <ele>1780.1</ele>
        <time>2023-02-05T13:16:58Z</time>
      </trkpt>
      <trkpt lat="44.12718" lon="7.25589">
        <ele>1780.1</ele>
        <time>2023-02-05T13:16:59Z</time>
      </trkpt>
      <trkpt lat="44.12719" lon="7.2559">
        <ele>1780.1</ele>
        <time>2023-02-05T13:17:00Z</time>
      </trkpt>
      <trkpt lat="44.12719" lon="7.25591">
        <ele>1780</ele>
        <time>2023-02-05T13:17:01Z</time>
      </trkpt>
      <trkpt lat="44.12719" lon="7.25593">
        <ele>1779.9</ele>
        <time>2023-02-05T13:17:02Z</time>
      </trkpt>
      <trkpt lat="44.1272" lon="7.25594">
        <ele>1779.8</ele>
        <time>2023-02-05T13:17:03Z</time>
      </trkpt>
      <trkpt lat="44.1272" lon="7.25594">
        <ele>1779.7</ele>
        <time>2023-02-05T13:17:04Z</time>
      </trkpt>
      <trkpt lat="44.1272" lon="7.25595">
        <ele>1779.8</ele>
        <time>2023-02-05T13:17:05Z</time>
      </trkpt>
      <trkpt lat="44.12721" lon="7.25596">
        <ele>1779.8</ele>
        <time>2023-02-05T13:17:06Z</time>
      </trkpt>
      <trkpt lat="44.12721" lon="7.25597">
        <ele>1779.8</ele>
        <time>2023-02-05T13:17:07Z</time>
      </trkpt>
      <trkpt lat="44.12722" lon="7.25598">
        <ele>1779.8</ele>
        <time>2023-02-05T13:17:08Z</time>
      </trkpt>
      <trkpt lat="44.12722" lon="7.25598">
        <ele>1779.8</ele>
        <time>2023-02-05T13:17:09Z</time>
      </trkpt>
      <trkpt lat="44.12723" lon="7.25599">
        <ele>1779.9</ele>
        <time>2023-02-05T13:17:10Z</time>
      </trkpt>
      <trkpt lat="44.12723" lon="7.256">
        <ele>1780</ele>
        <time>2023-02-05T13:17:11Z</time>
      </trkpt>
      <trkpt lat="44.12723" lon="7.256">
        <ele>1780</ele>
        <time>2023-02-05T13:17:12Z</time>
      </trkpt>
      <trkpt lat="44.12724" lon="7.25601">
        <ele>1780.1</ele>
        <time>2023-02-05T13:17:13Z</time>
      </trkpt>
      <trkpt lat="44.12724" lon="7.25602">
        <ele>1780.1</ele>
        <time>2023-02-05T13:17:14Z</time>
      </trkpt>
      <trkpt lat="44.12724" lon="7.25603">
        <ele>1780.1</ele>
        <time>2023-02-05T13:17:15Z</time>
      </trkpt>
      <trkpt lat="44.12725" lon="7.25603">
        <ele>1780.2</ele>
        <time>2023-02-05T13:17:16Z</time>
      </trkpt>
      <trkpt lat="44.12725" lon="7.25604">
        <ele>1780.2</ele>
        <time>2023-02-05T13:17:17Z</time>
      </trkpt>
      <trkpt lat="44.12725" lon="7.25604">
        <ele>1780.2</ele>
        <time>2023-02-05T13:17:18Z</time>
      </trkpt>
      <trkpt lat="44.12725" lon="7.25605">
        <ele>1780.2</ele>
        <time>2023-02-05T13:17:19Z</time>
      </trkpt>
      <trkpt lat="44.12725" lon="7.25604">
        <ele>1780.2</ele>
        <time>2023-02-05T13:17:20Z</time>
      </trkpt>
      <trkpt lat="44.12725" lon="7.25605">
        <ele>1780.2</ele>
        <time>2023-02-05T13:17:21Z</time>
      </trkpt>
      <trkpt lat="44.12725" lon="7.25605">
        <ele>1780.1</ele>
        <time>2023-02-05T13:17:22Z</time>
      </trkpt>
      <trkpt lat="44.12725" lon="7.25605">
        <ele>1780.2</ele>
        <time>2023-02-05T13:17:23Z</time>
      </trkpt>
      <trkpt lat="44.12725" lon="7.25605">
        <ele>1780.2</ele>
        <time>2023-02-05T13:17:24Z</time>
      </trkpt>
      <trkpt lat="44.12725" lon="7.25605">
        <ele>1780.3</ele>
        <time>2023-02-05T13:17:25Z</time>
      </trkpt>
      <trkpt lat="44.12726" lon="7.25606">
        <ele>1780.3</ele>
        <time>2023-02-05T13:17:26Z</time>
      </trkpt>
      <trkpt lat="44.12726" lon="7.25606">
        <ele>1780.3</ele>
        <time>2023-02-05T13:17:27Z</time>
      </trkpt>
      <trkpt lat="44.12726" lon="7.25606">
        <ele>1780.3</ele>
        <time>2023-02-05T13:17:28Z</time>
      </trkpt>
      <trkpt lat="44.12727" lon="7.25607">
        <ele>1780.3</ele>
        <time>2023-02-05T13:17:29Z</time>
      </trkpt>
      <trkpt lat="44.12727" lon="7.25608">
        <ele>1780.3</ele>
        <time>2023-02-05T13:17:30Z</time>
      </trkpt>
      <trkpt lat="44.12727" lon="7.25609">
        <ele>1780.2</ele>
        <time>2023-02-05T13:17:31Z</time>
      </trkpt>
      <trkpt lat="44.12727" lon="7.25609">
        <ele>1780.3</ele>
        <time>2023-02-05T13:17:32Z</time>
      </trkpt>
      <trkpt lat="44.12727" lon="7.2561">
        <ele>1780.3</ele>
        <time>2023-02-05T13:17:33Z</time>
      </trkpt>
      <trkpt lat="44.12728" lon="7.25611">
        <ele>1780.3</ele>
        <time>2023-02-05T13:17:34Z</time>
      </trkpt>
      <trkpt lat="44.12728" lon="7.25612">
        <ele>1780.3</ele>
        <time>2023-02-05T13:17:35Z</time>
      </trkpt>
      <trkpt lat="44.12728" lon="7.25613">
        <ele>1780.3</ele>
        <time>2023-02-05T13:17:36Z</time>
      </trkpt>
      <trkpt lat="44.12728" lon="7.25613">
        <ele>1780.3</ele>
        <time>2023-02-05T13:17:37Z</time>
      </trkpt>
      <trkpt lat="44.12728" lon="7.25614">
        <ele>1780.4</ele>
        <time>2023-02-05T13:17:38Z</time>
      </trkpt>
      <trkpt lat="44.12729" lon="7.25615">
        <ele>1780.5</ele>
        <time>2023-02-05T13:17:39Z</time>
      </trkpt>
      <trkpt lat="44.12729" lon="7.25615">
        <ele>1780.6</ele>
        <time>2023-02-05T13:17:40Z</time>
      </trkpt>
      <trkpt lat="44.12729" lon="7.25616">
        <ele>1780.6</ele>
        <time>2023-02-05T13:17:41Z</time>
      </trkpt>
      <trkpt lat="44.12729" lon="7.25616">
        <ele>1780.6</ele>
        <time>2023-02-05T13:17:42Z</time>
      </trkpt>
      <trkpt lat="44.1273" lon="7.25617">
        <ele>1780.7</ele>
        <time>2023-02-05T13:17:43Z</time>
      </trkpt>
      <trkpt lat="44.1273" lon="7.25618">
        <ele>1780.8</ele>
        <time>2023-02-05T13:17:44Z</time>
      </trkpt>
      <trkpt lat="44.1273" lon="7.25619">
        <ele>1780.9</ele>
        <time>2023-02-05T13:17:45Z</time>
      </trkpt>
      <trkpt lat="44.12731" lon="7.2562">
        <ele>1780.9</ele>
        <time>2023-02-05T13:17:46Z</time>
      </trkpt>
      <trkpt lat="44.12731" lon="7.25621">
        <ele>1780.9</ele>
        <time>2023-02-05T13:17:47Z</time>
      </trkpt>
      <trkpt lat="44.12731" lon="7.25622">
        <ele>1781</ele>
        <time>2023-02-05T13:17:48Z</time>
      </trkpt>
      <trkpt lat="44.12731" lon="7.25623">
        <ele>1781</ele>
        <time>2023-02-05T13:17:49Z</time>
      </trkpt>
      <trkpt lat="44.12731" lon="7.25624">
        <ele>1781.2</ele>
        <time>2023-02-05T13:17:50Z</time>
      </trkpt>
      <trkpt lat="44.12731" lon="7.25624">
        <ele>1781.3</ele>
        <time>2023-02-05T13:17:51Z</time>
      </trkpt>
      <trkpt lat="44.12731" lon="7.25625">
        <ele>1781.4</ele>
        <time>2023-02-05T13:17:52Z</time>
      </trkpt>
      <trkpt lat="44.12731" lon="7.25626">
        <ele>1781.5</ele>
        <time>2023-02-05T13:17:53Z</time>
      </trkpt>
      <trkpt lat="44.12731" lon="7.25627">
        <ele>1781.5</ele>
        <time>2023-02-05T13:17:54Z</time>
      </trkpt>
      <trkpt lat="44.12731" lon="7.25628">
        <ele>1781.7</ele>
        <time>2023-02-05T13:17:55Z</time>
      </trkpt>
      <trkpt lat="44.12731" lon="7.25628">
        <ele>1781.8</ele>
        <time>2023-02-05T13:17:56Z</time>
      </trkpt>
      <trkpt lat="44.12731" lon="7.25629">
        <ele>1781.8</ele>
        <time>2023-02-05T13:17:57Z</time>
      </trkpt>
      <trkpt lat="44.12731" lon="7.2563">
        <ele>1781.9</ele>
        <time>2023-02-05T13:17:58Z</time>
      </trkpt>
      <trkpt lat="44.12731" lon="7.25631">
        <ele>1782</ele>
        <time>2023-02-05T13:17:59Z</time>
      </trkpt>
      <trkpt lat="44.12731" lon="7.25632">
        <ele>1782</ele>
        <time>2023-02-05T13:18:00Z</time>
      </trkpt>
      <trkpt lat="44.12731" lon="7.25633">
        <ele>1782.1</ele>
        <time>2023-02-05T13:18:01Z</time>
      </trkpt>
      <trkpt lat="44.12731" lon="7.25634">
        <ele>1782.2</ele>
        <time>2023-02-05T13:18:02Z</time>
      </trkpt>
      <trkpt lat="44.12731" lon="7.25635">
        <ele>1782.2</ele>
        <time>2023-02-05T13:18:03Z</time>
      </trkpt>
      <trkpt lat="44.12731" lon="7.25635">
        <ele>1782.3</ele>
        <time>2023-02-05T13:18:04Z</time>
      </trkpt>
      <trkpt lat="44.1273" lon="7.25636">
        <ele>1782.4</ele>
        <time>2023-02-05T13:18:05Z</time>
      </trkpt>
      <trkpt lat="44.1273" lon="7.25637">
        <ele>1782.4</ele>
        <time>2023-02-05T13:18:06Z</time>
      </trkpt>
      <trkpt lat="44.12731" lon="7.25637">
        <ele>1782.4</ele>
        <time>2023-02-05T13:18:07Z</time>
      </trkpt>
      <trkpt lat="44.1273" lon="7.25637">
        <ele>1782.4</ele>
        <time>2023-02-05T13:18:08Z</time>
      </trkpt>
      <trkpt lat="44.1273" lon="7.25638">
        <ele>1782.4</ele>
        <time>2023-02-05T13:18:09Z</time>
      </trkpt>
      <trkpt lat="44.1273" lon="7.25638">
        <ele>1782.5</ele>
        <time>2023-02-05T13:18:10Z</time>
      </trkpt>
      <trkpt lat="44.1273" lon="7.25638">
        <ele>1782.6</ele>
        <time>2023-02-05T13:18:11Z</time>
      </trkpt>
      <trkpt lat="44.1273" lon="7.25638">
        <ele>1782.7</ele>
        <time>2023-02-05T13:18:12Z</time>
      </trkpt>
      <trkpt lat="44.12731" lon="7.25638">
        <ele>1782.8</ele>
        <time>2023-02-05T13:18:13Z</time>
      </trkpt>
      <trkpt lat="44.12731" lon="7.25638">
        <ele>1782.8</ele>
        <time>2023-02-05T13:18:14Z</time>
      </trkpt>
      <trkpt lat="44.12731" lon="7.25638">
        <ele>1782.8</ele>
        <time>2023-02-05T13:18:15Z</time>
      </trkpt>
      <trkpt lat="44.12732" lon="7.25638">
        <ele>1782.7</ele>
        <time>2023-02-05T13:18:16Z</time>
      </trkpt>
      <trkpt lat="44.12731" lon="7.25638">
        <ele>1782.7</ele>
        <time>2023-02-05T13:18:17Z</time>
      </trkpt>
      <trkpt lat="44.12731" lon="7.25638">
        <ele>1782.8</ele>
        <time>2023-02-05T13:18:18Z</time>
      </trkpt>
      <trkpt lat="44.12731" lon="7.25638">
        <ele>1782.8</ele>
        <time>2023-02-05T13:18:19Z</time>
      </trkpt>
      <trkpt lat="44.12732" lon="7.25637">
        <ele>1782.8</ele>
        <time>2023-02-05T13:18:20Z</time>
      </trkpt>
      <trkpt lat="44.12732" lon="7.25638">
        <ele>1782.6</ele>
        <time>2023-02-05T13:18:21Z</time>
      </trkpt>
      <trkpt lat="44.12732" lon="7.25638">
        <ele>1782.7</ele>
        <time>2023-02-05T13:18:22Z</time>
      </trkpt>
      <trkpt lat="44.12732" lon="7.25638">
        <ele>1782.7</ele>
        <time>2023-02-05T13:18:23Z</time>
      </trkpt>
      <trkpt lat="44.12732" lon="7.25638">
        <ele>1782.7</ele>
        <time>2023-02-05T13:18:24Z</time>
      </trkpt>
      <trkpt lat="44.12733" lon="7.25637">
        <ele>1782.6</ele>
        <time>2023-02-05T13:18:25Z</time>
      </trkpt>
      <trkpt lat="44.12733" lon="7.25637">
        <ele>1782.6</ele>
        <time>2023-02-05T13:18:26Z</time>
      </trkpt>
      <trkpt lat="44.12733" lon="7.25637">
        <ele>1782.6</ele>
        <time>2023-02-05T13:18:27Z</time>
      </trkpt>
      <trkpt lat="44.12734" lon="7.25637">
        <ele>1782.5</ele>
        <time>2023-02-05T13:18:28Z</time>
      </trkpt>
      <trkpt lat="44.12734" lon="7.25637">
        <ele>1782.6</ele>
        <time>2023-02-05T13:18:29Z</time>
      </trkpt>
      <trkpt lat="44.12734" lon="7.25637">
        <ele>1782.6</ele>
        <time>2023-02-05T13:18:30Z</time>
      </trkpt>
      <trkpt lat="44.12734" lon="7.25637">
        <ele>1782.5</ele>
        <time>2023-02-05T13:18:31Z</time>
      </trkpt>
      <trkpt lat="44.12734" lon="7.25637">
        <ele>1782.5</ele>
        <time>2023-02-05T13:18:32Z</time>
      </trkpt>
      <trkpt lat="44.12734" lon="7.25637">
        <ele>1782.4</ele>
        <time>2023-02-05T13:18:33Z</time>
      </trkpt>
      <trkpt lat="44.12734" lon="7.25636">
        <ele>1782.2</ele>
        <time>2023-02-05T13:18:34Z</time>
      </trkpt>
      <trkpt lat="44.12734" lon="7.25636">
        <ele>1782.1</ele>
        <time>2023-02-05T13:18:35Z</time>
      </trkpt>
      <trkpt lat="44.12734" lon="7.25636">
        <ele>1782</ele>
        <time>2023-02-05T13:18:36Z</time>
      </trkpt>
      <trkpt lat="44.12734" lon="7.25636">
        <ele>1781.9</ele>
        <time>2023-02-05T13:18:37Z</time>
      </trkpt>
      <trkpt lat="44.12734" lon="7.25636">
        <ele>1781.9</ele>
        <time>2023-02-05T13:18:38Z</time>
      </trkpt>
      <trkpt lat="44.12733" lon="7.25636">
        <ele>1781.9</ele>
        <time>2023-02-05T13:18:39Z</time>
      </trkpt>
      <trkpt lat="44.12732" lon="7.25636">
        <ele>1781.9</ele>
        <time>2023-02-05T13:18:40Z</time>
      </trkpt>
      <trkpt lat="44.12731" lon="7.25636">
        <ele>1782.1</ele>
        <time>2023-02-05T13:18:41Z</time>
      </trkpt>
      <trkpt lat="44.12731" lon="7.25635">
        <ele>1781.7</ele>
        <time>2023-02-05T13:18:42Z</time>
      </trkpt>
      <trkpt lat="44.1273" lon="7.25635">
        <ele>1781.3</ele>
        <time>2023-02-05T13:18:43Z</time>
      </trkpt>
      <trkpt lat="44.1273" lon="7.25635">
        <ele>1781.2</ele>
        <time>2023-02-05T13:18:44Z</time>
      </trkpt>
      <trkpt lat="44.1273" lon="7.25635">
        <ele>1781.1</ele>
        <time>2023-02-05T13:18:45Z</time>
      </trkpt>
      <trkpt lat="44.1273" lon="7.25635">
        <ele>1781</ele>
        <time>2023-02-05T13:18:46Z</time>
      </trkpt>
      <trkpt lat="44.12729" lon="7.25635">
        <ele>1781</ele>
        <time>2023-02-05T13:18:47Z</time>
      </trkpt>
      <trkpt lat="44.12729" lon="7.25635">
        <ele>1780.9</ele>
        <time>2023-02-05T13:18:48Z</time>
      </trkpt>
      <trkpt lat="44.12729" lon="7.25635">
        <ele>1780.9</ele>
        <time>2023-02-05T13:18:49Z</time>
      </trkpt>
      <trkpt lat="44.12728" lon="7.25634">
        <ele>1780.9</ele>
        <time>2023-02-05T13:18:50Z</time>
      </trkpt>
      <trkpt lat="44.12728" lon="7.25634">
        <ele>1780.4</ele>
        <time>2023-02-05T13:18:51Z</time>
      </trkpt>
      <trkpt lat="44.12728" lon="7.25634">
        <ele>1780.6</ele>
        <time>2023-02-05T13:18:52Z</time>
      </trkpt>
      <trkpt lat="44.12727" lon="7.25633">
        <ele>1780.2</ele>
        <time>2023-02-05T13:18:53Z</time>
      </trkpt>
      <trkpt lat="44.12726" lon="7.25633">
        <ele>1780.4</ele>
        <time>2023-02-05T13:18:54Z</time>
      </trkpt>
      <trkpt lat="44.12726" lon="7.25633">
        <ele>1780.4</ele>
        <time>2023-02-05T13:18:55Z</time>
      </trkpt>
      <trkpt lat="44.12726" lon="7.25632">
        <ele>1780.3</ele>
        <time>2023-02-05T13:18:56Z</time>
      </trkpt>
      <trkpt lat="44.12725" lon="7.25632">
        <ele>1779.7</ele>
        <time>2023-02-05T13:18:57Z</time>
      </trkpt>
      <trkpt lat="44.12724" lon="7.25631">
        <ele>1779.4</ele>
        <time>2023-02-05T13:18:58Z</time>
      </trkpt>
      <trkpt lat="44.12723" lon="7.2563">
        <ele>1778.9</ele>
        <time>2023-02-05T13:18:59Z</time>
      </trkpt>
      <trkpt lat="44.12723" lon="7.2563">
        <ele>1778.8</ele>
        <time>2023-02-05T13:19:00Z</time>
      </trkpt>
      <trkpt lat="44.12721" lon="7.2563">
        <ele>1778.9</ele>
        <time>2023-02-05T13:19:01Z</time>
      </trkpt>
      <trkpt lat="44.1272" lon="7.25629">
        <ele>1778.9</ele>
        <time>2023-02-05T13:19:02Z</time>
      </trkpt>
      <trkpt lat="44.12718" lon="7.25629">
        <ele>1778.9</ele>
        <time>2023-02-05T13:19:03Z</time>
      </trkpt>
      <trkpt lat="44.12718" lon="7.25629">
        <ele>1778.9</ele>
        <time>2023-02-05T13:19:04Z</time>
      </trkpt>
      <trkpt lat="44.12717" lon="7.25629">
        <ele>1778.8</ele>
        <time>2023-02-05T13:19:05Z</time>
      </trkpt>
      <trkpt lat="44.12717" lon="7.25629">
        <ele>1778.8</ele>
        <time>2023-02-05T13:19:06Z</time>
      </trkpt>
      <trkpt lat="44.12716" lon="7.25629">
        <ele>1778.7</ele>
        <time>2023-02-05T13:19:07Z</time>
      </trkpt>
      <trkpt lat="44.12716" lon="7.2563">
        <ele>1778.7</ele>
        <time>2023-02-05T13:19:08Z</time>
      </trkpt>
      <trkpt lat="44.12716" lon="7.2563">
        <ele>1778.7</ele>
        <time>2023-02-05T13:19:09Z</time>
      </trkpt>
      <trkpt lat="44.12716" lon="7.25629">
        <ele>1778.8</ele>
        <time>2023-02-05T13:19:10Z</time>
      </trkpt>
      <trkpt lat="44.12716" lon="7.25629">
        <ele>1778.9</ele>
        <time>2023-02-05T13:19:11Z</time>
      </trkpt>
      <trkpt lat="44.12716" lon="7.2563">
        <ele>1779</ele>
        <time>2023-02-05T13:19:12Z</time>
      </trkpt>
      <trkpt lat="44.12716" lon="7.2563">
        <ele>1779</ele>
        <time>2023-02-05T13:19:13Z</time>
      </trkpt>
      <trkpt lat="44.12716" lon="7.2563">
        <ele>1779.1</ele>
        <time>2023-02-05T13:19:14Z</time>
      </trkpt>
      <trkpt lat="44.12716" lon="7.2563">
        <ele>1779</ele>
        <time>2023-02-05T13:19:15Z</time>
      </trkpt>
      <trkpt lat="44.12716" lon="7.2563">
        <ele>1779</ele>
        <time>2023-02-05T13:19:16Z</time>
      </trkpt>
      <trkpt lat="44.12716" lon="7.2563">
        <ele>1779.1</ele>
        <time>2023-02-05T13:19:17Z</time>
      </trkpt>
      <trkpt lat="44.12715" lon="7.2563">
        <ele>1779</ele>
        <time>2023-02-05T13:19:18Z</time>
      </trkpt>
      <trkpt lat="44.12716" lon="7.2563">
        <ele>1778.9</ele>
        <time>2023-02-05T13:19:19Z</time>
      </trkpt>
      <trkpt lat="44.12716" lon="7.25629">
        <ele>1778.9</ele>
        <time>2023-02-05T13:19:20Z</time>
      </trkpt>
      <trkpt lat="44.12716" lon="7.25629">
        <ele>1778.6</ele>
        <time>2023-02-05T13:19:21Z</time>
      </trkpt>
      <trkpt lat="44.12716" lon="7.25629">
        <ele>1778.5</ele>
        <time>2023-02-05T13:19:22Z</time>
      </trkpt>
      <trkpt lat="44.12715" lon="7.25629">
        <ele>1778.7</ele>
        <time>2023-02-05T13:19:23Z</time>
      </trkpt>
      <trkpt lat="44.12715" lon="7.25629">
        <ele>1778.8</ele>
        <time>2023-02-05T13:19:24Z</time>
      </trkpt>
      <trkpt lat="44.12715" lon="7.25629">
        <ele>1778.9</ele>
        <time>2023-02-05T13:19:25Z</time>
      </trkpt>
      <trkpt lat="44.12715" lon="7.25628">
        <ele>1778.9</ele>
        <time>2023-02-05T13:19:26Z</time>
      </trkpt>
      <trkpt lat="44.12715" lon="7.25628">
        <ele>1778.8</ele>
        <time>2023-02-05T13:19:27Z</time>
      </trkpt>
      <trkpt lat="44.12714" lon="7.25628">
        <ele>1778.5</ele>
        <time>2023-02-05T13:19:28Z</time>
      </trkpt>
      <trkpt lat="44.12714" lon="7.25628">
        <ele>1778.5</ele>
        <time>2023-02-05T13:19:29Z</time>
      </trkpt>
      <trkpt lat="44.12713" lon="7.25628">
        <ele>1777.9</ele>
        <time>2023-02-05T13:19:30Z</time>
      </trkpt>
      <trkpt lat="44.12713" lon="7.25628">
        <ele>1778.2</ele>
        <time>2023-02-05T13:19:31Z</time>
      </trkpt>
      <trkpt lat="44.12712" lon="7.25629">
        <ele>1777.8</ele>
        <time>2023-02-05T13:19:32Z</time>
      </trkpt>
      <trkpt lat="44.12712" lon="7.2563">
        <ele>1777.5</ele>
        <time>2023-02-05T13:19:33Z</time>
      </trkpt>
      <trkpt lat="44.12712" lon="7.2563">
        <ele>1777.8</ele>
        <time>2023-02-05T13:19:34Z</time>
      </trkpt>
      <trkpt lat="44.12713" lon="7.25631">
        <ele>1777.9</ele>
        <time>2023-02-05T13:19:35Z</time>
      </trkpt>
      <trkpt lat="44.12713" lon="7.25631">
        <ele>1778.1</ele>
        <time>2023-02-05T13:19:36Z</time>
      </trkpt>
      <trkpt lat="44.12713" lon="7.25632">
        <ele>1778.5</ele>
        <time>2023-02-05T13:19:37Z</time>
      </trkpt>
      <trkpt lat="44.12714" lon="7.25633">
        <ele>1778.6</ele>
        <time>2023-02-05T13:19:38Z</time>
      </trkpt>
      <trkpt lat="44.12714" lon="7.25634">
        <ele>1778.6</ele>
        <time>2023-02-05T13:19:39Z</time>
      </trkpt>
      <trkpt lat="44.12714" lon="7.25634">
        <ele>1778.4</ele>
        <time>2023-02-05T13:19:40Z</time>
      </trkpt>
      <trkpt lat="44.12714" lon="7.25634">
        <ele>1778.3</ele>
        <time>2023-02-05T13:19:41Z</time>
      </trkpt>
      <trkpt lat="44.12714" lon="7.25634">
        <ele>1778.4</ele>
        <time>2023-02-05T13:19:42Z</time>
      </trkpt>
      <trkpt lat="44.12714" lon="7.25635">
        <ele>1778.3</ele>
        <time>2023-02-05T13:19:43Z</time>
      </trkpt>
      <trkpt lat="44.12714" lon="7.25635">
        <ele>1778.3</ele>
        <time>2023-02-05T13:19:44Z</time>
      </trkpt>
      <trkpt lat="44.12714" lon="7.25635">
        <ele>1778.3</ele>
        <time>2023-02-05T13:19:45Z</time>
      </trkpt>
      <trkpt lat="44.12714" lon="7.25635">
        <ele>1778.3</ele>
        <time>2023-02-05T13:19:46Z</time>
      </trkpt>
      <trkpt lat="44.12714" lon="7.25635">
        <ele>1778.3</ele>
        <time>2023-02-05T13:19:47Z</time>
      </trkpt>
      <trkpt lat="44.12714" lon="7.25635">
        <ele>1778.2</ele>
        <time>2023-02-05T13:19:48Z</time>
      </trkpt>
      <trkpt lat="44.12714" lon="7.25636">
        <ele>1778.2</ele>
        <time>2023-02-05T13:19:49Z</time>
      </trkpt>
      <trkpt lat="44.12714" lon="7.25636">
        <ele>1778.2</ele>
        <time>2023-02-05T13:19:50Z</time>
      </trkpt>
      <trkpt lat="44.12714" lon="7.25636">
        <ele>1778.2</ele>
        <time>2023-02-05T13:19:51Z</time>
      </trkpt>
      <trkpt lat="44.12714" lon="7.25636">
        <ele>1778.2</ele>
        <time>2023-02-05T13:19:52Z</time>
      </trkpt>
      <trkpt lat="44.12714" lon="7.25636">
        <ele>1778.2</ele>
        <time>2023-02-05T13:19:53Z</time>
      </trkpt>
      <trkpt lat="44.12714" lon="7.25637">
        <ele>1778.3</ele>
        <time>2023-02-05T13:19:54Z</time>
      </trkpt>
      <trkpt lat="44.12714" lon="7.25637">
        <ele>1778.3</ele>
        <time>2023-02-05T13:19:55Z</time>
      </trkpt>
      <trkpt lat="44.12714" lon="7.25637">
        <ele>1778.3</ele>
        <time>2023-02-05T13:19:56Z</time>
      </trkpt>
      <trkpt lat="44.12714" lon="7.25637">
        <ele>1778.2</ele>
        <time>2023-02-05T13:19:57Z</time>
      </trkpt>
      <trkpt lat="44.12714" lon="7.25637">
        <ele>1778.2</ele>
        <time>2023-02-05T13:19:58Z</time>
      </trkpt>
      <trkpt lat="44.12714" lon="7.25638">
        <ele>1778.2</ele>
        <time>2023-02-05T13:19:59Z</time>
      </trkpt>
      <trkpt lat="44.12714" lon="7.25638">
        <ele>1778.2</ele>
        <time>2023-02-05T13:20:00Z</time>
      </trkpt>
      <trkpt lat="44.12714" lon="7.25638">
        <ele>1778.2</ele>
        <time>2023-02-05T13:20:01Z</time>
      </trkpt>
      <trkpt lat="44.12714" lon="7.25638">
        <ele>1778.2</ele>
        <time>2023-02-05T13:20:02Z</time>
      </trkpt>
      <trkpt lat="44.12714" lon="7.25638">
        <ele>1778.2</ele>
        <time>2023-02-05T13:20:03Z</time>
      </trkpt>
      <trkpt lat="44.12714" lon="7.25638">
        <ele>1778.2</ele>
        <time>2023-02-05T13:20:04Z</time>
      </trkpt>
      <trkpt lat="44.12715" lon="7.25638">
        <ele>1778.2</ele>
        <time>2023-02-05T13:20:05Z</time>
      </trkpt>
      <trkpt lat="44.12715" lon="7.25638">
        <ele>1778.3</ele>
        <time>2023-02-05T13:20:06Z</time>
      </trkpt>
      <trkpt lat="44.12715" lon="7.25638">
        <ele>1778.3</ele>
        <time>2023-02-05T13:20:07Z</time>
      </trkpt>
      <trkpt lat="44.12715" lon="7.25638">
        <ele>1778.4</ele>
        <time>2023-02-05T13:20:08Z</time>
      </trkpt>
      <trkpt lat="44.12715" lon="7.25638">
        <ele>1778.4</ele>
        <time>2023-02-05T13:20:09Z</time>
      </trkpt>
      <trkpt lat="44.12715" lon="7.25638">
        <ele>1778.3</ele>
        <time>2023-02-05T13:20:10Z</time>
      </trkpt>
      <trkpt lat="44.12715" lon="7.25639">
        <ele>1778.3</ele>
        <time>2023-02-05T13:20:11Z</time>
      </trkpt>
      <trkpt lat="44.12715" lon="7.25639">
        <ele>1778.2</ele>
        <time>2023-02-05T13:20:12Z</time>
      </trkpt>
      <trkpt lat="44.12715" lon="7.25639">
        <ele>1778.3</ele>
        <time>2023-02-05T13:20:13Z</time>
      </trkpt>
      <trkpt lat="44.12715" lon="7.25639">
        <ele>1778.3</ele>
        <time>2023-02-05T13:20:14Z</time>
      </trkpt>
      <trkpt lat="44.12715" lon="7.25639">
        <ele>1778.3</ele>
        <time>2023-02-05T13:20:15Z</time>
      </trkpt>
      <trkpt lat="44.12715" lon="7.25639">
        <ele>1778.3</ele>
        <time>2023-02-05T13:20:16Z</time>
      </trkpt>
      <trkpt lat="44.12715" lon="7.25639">
        <ele>1778.2</ele>
        <time>2023-02-05T13:20:17Z</time>
      </trkpt>
      <trkpt lat="44.12715" lon="7.25639">
        <ele>1778.2</ele>
        <time>2023-02-05T13:20:18Z</time>
      </trkpt>
      <trkpt lat="44.12715" lon="7.2564">
        <ele>1778.1</ele>
        <time>2023-02-05T13:20:19Z</time>
      </trkpt>
      <trkpt lat="44.12715" lon="7.2564">
        <ele>1778.1</ele>
        <time>2023-02-05T13:20:20Z</time>
      </trkpt>
      <trkpt lat="44.12715" lon="7.2564">
        <ele>1778</ele>
        <time>2023-02-05T13:20:21Z</time>
      </trkpt>
      <trkpt lat="44.12715" lon="7.2564">
        <ele>1778</ele>
        <time>2023-02-05T13:20:22Z</time>
      </trkpt>
      <trkpt lat="44.12715" lon="7.2564">
        <ele>1777.9</ele>
        <time>2023-02-05T13:20:23Z</time>
      </trkpt>
      <trkpt lat="44.12715" lon="7.2564">
        <ele>1777.8</ele>
        <time>2023-02-05T13:20:24Z</time>
      </trkpt>
      <trkpt lat="44.12715" lon="7.2564">
        <ele>1777.9</ele>
        <time>2023-02-05T13:20:25Z</time>
      </trkpt>
      <trkpt lat="44.12715" lon="7.2564">
        <ele>1778</ele>
        <time>2023-02-05T13:20:26Z</time>
      </trkpt>
      <trkpt lat="44.12714" lon="7.25641">
        <ele>1778</ele>
        <time>2023-02-05T13:20:27Z</time>
      </trkpt>
      <trkpt lat="44.12714" lon="7.25641">
        <ele>1778.1</ele>
        <time>2023-02-05T13:20:28Z</time>
      </trkpt>
      <trkpt lat="44.12714" lon="7.25641">
        <ele>1778.1</ele>
        <time>2023-02-05T13:20:29Z</time>
      </trkpt>
      <trkpt lat="44.12714" lon="7.25641">
        <ele>1778.2</ele>
        <time>2023-02-05T13:20:30Z</time>
      </trkpt>
      <trkpt lat="44.12714" lon="7.25641">
        <ele>1778.2</ele>
        <time>2023-02-05T13:20:31Z</time>
      </trkpt>
      <trkpt lat="44.12714" lon="7.25641">
        <ele>1778.2</ele>
        <time>2023-02-05T13:20:32Z</time>
      </trkpt>
      <trkpt lat="44.12714" lon="7.25641">
        <ele>1777.8</ele>
        <time>2023-02-05T13:20:33Z</time>
      </trkpt>
      <trkpt lat="44.12714" lon="7.25641">
        <ele>1777.9</ele>
        <time>2023-02-05T13:20:34Z</time>
      </trkpt>
      <trkpt lat="44.12714" lon="7.25642">
        <ele>1778.1</ele>
        <time>2023-02-05T13:20:35Z</time>
      </trkpt>
      <trkpt lat="44.12714" lon="7.25642">
        <ele>1778.2</ele>
        <time>2023-02-05T13:20:36Z</time>
      </trkpt>
      <trkpt lat="44.12713" lon="7.25642">
        <ele>1778.2</ele>
        <time>2023-02-05T13:20:37Z</time>
      </trkpt>
      <trkpt lat="44.12713" lon="7.25642">
        <ele>1778.2</ele>
        <time>2023-02-05T13:20:38Z</time>
      </trkpt>
      <trkpt lat="44.12713" lon="7.25643">
        <ele>1778.1</ele>
        <time>2023-02-05T13:20:39Z</time>
      </trkpt>
      <trkpt lat="44.12714" lon="7.25643">
        <ele>1778.2</ele>
        <time>2023-02-05T13:20:40Z</time>
      </trkpt>
      <trkpt lat="44.12713" lon="7.25643">
        <ele>1778.4</ele>
        <time>2023-02-05T13:20:41Z</time>
      </trkpt>
      <trkpt lat="44.12713" lon="7.25644">
        <ele>1778.5</ele>
        <time>2023-02-05T13:20:42Z</time>
      </trkpt>
      <trkpt lat="44.12713" lon="7.25644">
        <ele>1778.5</ele>
        <time>2023-02-05T13:20:43Z</time>
      </trkpt>
      <trkpt lat="44.12713" lon="7.25644">
        <ele>1778.6</ele>
        <time>2023-02-05T13:20:44Z</time>
      </trkpt>
      <trkpt lat="44.12713" lon="7.25644">
        <ele>1778.7</ele>
        <time>2023-02-05T13:20:45Z</time>
      </trkpt>
      <trkpt lat="44.12713" lon="7.25644">
        <ele>1778.7</ele>
        <time>2023-02-05T13:20:46Z</time>
      </trkpt>
      <trkpt lat="44.12713" lon="7.25644">
        <ele>1778.7</ele>
        <time>2023-02-05T13:20:47Z</time>
      </trkpt>
      <trkpt lat="44.12713" lon="7.25644">
        <ele>1778.7</ele>
        <time>2023-02-05T13:20:48Z</time>
      </trkpt>
      <trkpt lat="44.12713" lon="7.25644">
        <ele>1778.7</ele>
        <time>2023-02-05T13:20:49Z</time>
      </trkpt>
      <trkpt lat="44.12713" lon="7.25644">
        <ele>1778.6</ele>
        <time>2023-02-05T13:20:50Z</time>
      </trkpt>
      <trkpt lat="44.12712" lon="7.25644">
        <ele>1778.6</ele>
        <time>2023-02-05T13:20:51Z</time>
      </trkpt>
      <trkpt lat="44.12712" lon="7.25644">
        <ele>1778.5</ele>
        <time>2023-02-05T13:20:52Z</time>
      </trkpt>
      <trkpt lat="44.12712" lon="7.25644">
        <ele>1778.6</ele>
        <time>2023-02-05T13:20:53Z</time>
      </trkpt>
      <trkpt lat="44.12712" lon="7.25644">
        <ele>1778.7</ele>
        <time>2023-02-05T13:20:54Z</time>
      </trkpt>
      <trkpt lat="44.12713" lon="7.25644">
        <ele>1778.8</ele>
        <time>2023-02-05T13:20:55Z</time>
      </trkpt>
      <trkpt lat="44.12713" lon="7.25645">
        <ele>1778.7</ele>
        <time>2023-02-05T13:20:56Z</time>
      </trkpt>
      <trkpt lat="44.12713" lon="7.25645">
        <ele>1778.7</ele>
        <time>2023-02-05T13:20:57Z</time>
      </trkpt>
      <trkpt lat="44.12713" lon="7.25645">
        <ele>1778.8</ele>
        <time>2023-02-05T13:20:58Z</time>
      </trkpt>
      <trkpt lat="44.12713" lon="7.25645">
        <ele>1778.9</ele>
        <time>2023-02-05T13:20:59Z</time>
      </trkpt>
      <trkpt lat="44.12713" lon="7.25645">
        <ele>1779</ele>
        <time>2023-02-05T13:21:00Z</time>
      </trkpt>
      <trkpt lat="44.12713" lon="7.25645">
        <ele>1779</ele>
        <time>2023-02-05T13:21:01Z</time>
      </trkpt>
      <trkpt lat="44.12713" lon="7.25645">
        <ele>1779.1</ele>
        <time>2023-02-05T13:21:02Z</time>
      </trkpt>
      <trkpt lat="44.12713" lon="7.25645">
        <ele>1779.1</ele>
        <time>2023-02-05T13:21:03Z</time>
      </trkpt>
      <trkpt lat="44.12713" lon="7.25645">
        <ele>1779.1</ele>
        <time>2023-02-05T13:21:04Z</time>
      </trkpt>
      <trkpt lat="44.12713" lon="7.25645">
        <ele>1779.1</ele>
        <time>2023-02-05T13:21:05Z</time>
      </trkpt>
      <trkpt lat="44.12713" lon="7.25645">
        <ele>1779</ele>
        <time>2023-02-05T13:21:06Z</time>
      </trkpt>
      <trkpt lat="44.12713" lon="7.25645">
        <ele>1779</ele>
        <time>2023-02-05T13:21:07Z</time>
      </trkpt>
      <trkpt lat="44.12713" lon="7.25645">
        <ele>1779</ele>
        <time>2023-02-05T13:21:08Z</time>
      </trkpt>
      <trkpt lat="44.12714" lon="7.25645">
        <ele>1779</ele>
        <time>2023-02-05T13:21:09Z</time>
      </trkpt>
      <trkpt lat="44.12714" lon="7.25645">
        <ele>1779.1</ele>
        <time>2023-02-05T13:21:10Z</time>
      </trkpt>
      <trkpt lat="44.12714" lon="7.25645">
        <ele>1779</ele>
        <time>2023-02-05T13:21:11Z</time>
      </trkpt>
      <trkpt lat="44.12714" lon="7.25645">
        <ele>1778.9</ele>
        <time>2023-02-05T13:21:12Z</time>
      </trkpt>
      <trkpt lat="44.12714" lon="7.25645">
        <ele>1778.9</ele>
        <time>2023-02-05T13:21:13Z</time>
      </trkpt>
      <trkpt lat="44.12714" lon="7.25645">
        <ele>1778.9</ele>
        <time>2023-02-05T13:21:14Z</time>
      </trkpt>
      <trkpt lat="44.12714" lon="7.25645">
        <ele>1778.9</ele>
        <time>2023-02-05T13:21:15Z</time>
      </trkpt>
      <trkpt lat="44.12714" lon="7.25645">
        <ele>1779</ele>
        <time>2023-02-05T13:21:16Z</time>
      </trkpt>
      <trkpt lat="44.12714" lon="7.25645">
        <ele>1778.9</ele>
        <time>2023-02-05T13:21:17Z</time>
      </trkpt>
      <trkpt lat="44.12714" lon="7.25645">
        <ele>1778.9</ele>
        <time>2023-02-05T13:21:18Z</time>
      </trkpt>
      <trkpt lat="44.12713" lon="7.25645">
        <ele>1778.8</ele>
        <time>2023-02-05T13:21:19Z</time>
      </trkpt>
      <trkpt lat="44.12713" lon="7.25645">
        <ele>1778.7</ele>
        <time>2023-02-05T13:21:20Z</time>
      </trkpt>
      <trkpt lat="44.12713" lon="7.25644">
        <ele>1778.6</ele>
        <time>2023-02-05T13:21:21Z</time>
      </trkpt>
      <trkpt lat="44.12713" lon="7.25645">
        <ele>1778.4</ele>
        <time>2023-02-05T13:21:22Z</time>
      </trkpt>
      <trkpt lat="44.12714" lon="7.25645">
        <ele>1778.5</ele>
        <time>2023-02-05T13:21:23Z</time>
      </trkpt>
      <trkpt lat="44.12714" lon="7.25645">
        <ele>1778.5</ele>
        <time>2023-02-05T13:21:24Z</time>
      </trkpt>
      <trkpt lat="44.12715" lon="7.25645">
        <ele>1778.7</ele>
        <time>2023-02-05T13:21:25Z</time>
      </trkpt>
      <trkpt lat="44.12716" lon="7.25645">
        <ele>1778.7</ele>
        <time>2023-02-05T13:21:26Z</time>
      </trkpt>
      <trkpt lat="44.12716" lon="7.25646">
        <ele>1778.5</ele>
        <time>2023-02-05T13:21:27Z</time>
      </trkpt>
      <trkpt lat="44.12717" lon="7.25646">
        <ele>1778.6</ele>
        <time>2023-02-05T13:21:28Z</time>
      </trkpt>
      <trkpt lat="44.12717" lon="7.25647">
        <ele>1779</ele>
        <time>2023-02-05T13:21:29Z</time>
      </trkpt>
      <trkpt lat="44.12717" lon="7.25648">
        <ele>1779.3</ele>
        <time>2023-02-05T13:21:30Z</time>
      </trkpt>
      <trkpt lat="44.12717" lon="7.25648">
        <ele>1779.3</ele>
        <time>2023-02-05T13:21:31Z</time>
      </trkpt>
      <trkpt lat="44.12718" lon="7.25648">
        <ele>1779.5</ele>
        <time>2023-02-05T13:21:32Z</time>
      </trkpt>
      <trkpt lat="44.12718" lon="7.25648">
        <ele>1779.6</ele>
        <time>2023-02-05T13:21:33Z</time>
      </trkpt>
      <trkpt lat="44.12719" lon="7.25649">
        <ele>1779.7</ele>
        <time>2023-02-05T13:21:34Z</time>
      </trkpt>
      <trkpt lat="44.12718" lon="7.2565">
        <ele>1779.8</ele>
        <time>2023-02-05T13:21:35Z</time>
      </trkpt>
      <trkpt lat="44.12719" lon="7.25651">
        <ele>1779.8</ele>
        <time>2023-02-05T13:21:36Z</time>
      </trkpt>
      <trkpt lat="44.12719" lon="7.25651">
        <ele>1779.9</ele>
        <time>2023-02-05T13:21:37Z</time>
      </trkpt>
      <trkpt lat="44.12719" lon="7.25652">
        <ele>1780.2</ele>
        <time>2023-02-05T13:21:38Z</time>
      </trkpt>
      <trkpt lat="44.1272" lon="7.25652">
        <ele>1780.2</ele>
        <time>2023-02-05T13:21:39Z</time>
      </trkpt>
      <trkpt lat="44.1272" lon="7.25652">
        <ele>1780.2</ele>
        <time>2023-02-05T13:21:40Z</time>
      </trkpt>
      <trkpt lat="44.12721" lon="7.25652">
        <ele>1780.5</ele>
        <time>2023-02-05T13:21:41Z</time>
      </trkpt>
      <trkpt lat="44.12721" lon="7.25652">
        <ele>1780.5</ele>
        <time>2023-02-05T13:21:42Z</time>
      </trkpt>
      <trkpt lat="44.12722" lon="7.25652">
        <ele>1780.5</ele>
        <time>2023-02-05T13:21:43Z</time>
      </trkpt>
      <trkpt lat="44.12722" lon="7.25653">
        <ele>1780.9</ele>
        <time>2023-02-05T13:21:44Z</time>
      </trkpt>
      <trkpt lat="44.12722" lon="7.25653">
        <ele>1780.9</ele>
        <time>2023-02-05T13:21:45Z</time>
      </trkpt>
      <trkpt lat="44.12722" lon="7.25653">
        <ele>1781.4</ele>
        <time>2023-02-05T13:21:46Z</time>
      </trkpt>
      <trkpt lat="44.12723" lon="7.25653">
        <ele>1781.3</ele>
        <time>2023-02-05T13:21:47Z</time>
      </trkpt>
      <trkpt lat="44.12723" lon="7.25652">
        <ele>1781.4</ele>
        <time>2023-02-05T13:21:48Z</time>
      </trkpt>
      <trkpt lat="44.12723" lon="7.25651">
        <ele>1781.1</ele>
        <time>2023-02-05T13:21:49Z</time>
      </trkpt>
      <trkpt lat="44.12724" lon="7.25651">
        <ele>1780.9</ele>
        <time>2023-02-05T13:21:50Z</time>
      </trkpt>
      <trkpt lat="44.12724" lon="7.2565">
        <ele>1780.9</ele>
        <time>2023-02-05T13:21:51Z</time>
      </trkpt>
      <trkpt lat="44.12724" lon="7.2565">
        <ele>1780.8</ele>
        <time>2023-02-05T13:21:52Z</time>
      </trkpt>
      <trkpt lat="44.12724" lon="7.25649">
        <ele>1780.8</ele>
        <time>2023-02-05T13:21:53Z</time>
      </trkpt>
      <trkpt lat="44.12725" lon="7.25648">
        <ele>1780.9</ele>
        <time>2023-02-05T13:21:54Z</time>
      </trkpt>
      <trkpt lat="44.12725" lon="7.25648">
        <ele>1781</ele>
        <time>2023-02-05T13:21:55Z</time>
      </trkpt>
      <trkpt lat="44.12725" lon="7.25648">
        <ele>1780.8</ele>
        <time>2023-02-05T13:21:56Z</time>
      </trkpt>
      <trkpt lat="44.12725" lon="7.25647">
        <ele>1780.8</ele>
        <time>2023-02-05T13:21:57Z</time>
      </trkpt>
      <trkpt lat="44.12725" lon="7.25647">
        <ele>1780.6</ele>
        <time>2023-02-05T13:21:58Z</time>
      </trkpt>
      <trkpt lat="44.12725" lon="7.25646">
        <ele>1780.5</ele>
        <time>2023-02-05T13:21:59Z</time>
      </trkpt>
      <trkpt lat="44.12724" lon="7.25646">
        <ele>1780.5</ele>
        <time>2023-02-05T13:22:00Z</time>
      </trkpt>
      <trkpt lat="44.12724" lon="7.25645">
        <ele>1780</ele>
        <time>2023-02-05T13:22:01Z</time>
      </trkpt>
      <trkpt lat="44.12724" lon="7.25645">
        <ele>1780</ele>
        <time>2023-02-05T13:22:02Z</time>
      </trkpt>
      <trkpt lat="44.12724" lon="7.25645">
        <ele>1780</ele>
        <time>2023-02-05T13:22:03Z</time>
      </trkpt>
      <trkpt lat="44.12724" lon="7.25645">
        <ele>1780</ele>
        <time>2023-02-05T13:22:04Z</time>
      </trkpt>
      <trkpt lat="44.12724" lon="7.25644">
        <ele>1779.9</ele>
        <time>2023-02-05T13:22:05Z</time>
      </trkpt>
      <trkpt lat="44.12723" lon="7.25644">
        <ele>1779.9</ele>
        <time>2023-02-05T13:22:06Z</time>
      </trkpt>
      <trkpt lat="44.12723" lon="7.25644">
        <ele>1779.7</ele>
        <time>2023-02-05T13:22:07Z</time>
      </trkpt>
      <trkpt lat="44.12723" lon="7.25643">
        <ele>1779.5</ele>
        <time>2023-02-05T13:22:08Z</time>
      </trkpt>
      <trkpt lat="44.12722" lon="7.25643">
        <ele>1779.3</ele>
        <time>2023-02-05T13:22:09Z</time>
      </trkpt>
      <trkpt lat="44.12721" lon="7.25643">
        <ele>1778.9</ele>
        <time>2023-02-05T13:22:10Z</time>
      </trkpt>
      <trkpt lat="44.12721" lon="7.25643">
        <ele>1778.8</ele>
        <time>2023-02-05T13:22:11Z</time>
      </trkpt>
      <trkpt lat="44.12721" lon="7.25643">
        <ele>1778.6</ele>
        <time>2023-02-05T13:22:12Z</time>
      </trkpt>
      <trkpt lat="44.1272" lon="7.25644">
        <ele>1778.5</ele>
        <time>2023-02-05T13:22:13Z</time>
      </trkpt>
      <trkpt lat="44.1272" lon="7.25643">
        <ele>1778.4</ele>
        <time>2023-02-05T13:22:14Z</time>
      </trkpt>
      <trkpt lat="44.1272" lon="7.25643">
        <ele>1778.5</ele>
        <time>2023-02-05T13:22:15Z</time>
      </trkpt>
      <trkpt lat="44.1272" lon="7.25643">
        <ele>1778.6</ele>
        <time>2023-02-05T13:22:16Z</time>
      </trkpt>
      <trkpt lat="44.1272" lon="7.25643">
        <ele>1778.6</ele>
        <time>2023-02-05T13:22:17Z</time>
      </trkpt>
      <trkpt lat="44.12719" lon="7.25643">
        <ele>1778.7</ele>
        <time>2023-02-05T13:22:18Z</time>
      </trkpt>
      <trkpt lat="44.12719" lon="7.25643">
        <ele>1778.7</ele>
        <time>2023-02-05T13:22:19Z</time>
      </trkpt>
      <trkpt lat="44.12719" lon="7.25643">
        <ele>1778.8</ele>
        <time>2023-02-05T13:22:20Z</time>
      </trkpt>
      <trkpt lat="44.12719" lon="7.25643">
        <ele>1778.8</ele>
        <time>2023-02-05T13:22:21Z</time>
      </trkpt>
      <trkpt lat="44.12719" lon="7.25643">
        <ele>1778.8</ele>
        <time>2023-02-05T13:22:22Z</time>
      </trkpt>
      <trkpt lat="44.12718" lon="7.25643">
        <ele>1778.7</ele>
        <time>2023-02-05T13:22:23Z</time>
      </trkpt>
      <trkpt lat="44.12719" lon="7.25644">
        <ele>1778.6</ele>
        <time>2023-02-05T13:22:24Z</time>
      </trkpt>
      <trkpt lat="44.12718" lon="7.25644">
        <ele>1778.6</ele>
        <time>2023-02-05T13:22:25Z</time>
      </trkpt>
      <trkpt lat="44.12718" lon="7.25645">
        <ele>1778.5</ele>
        <time>2023-02-05T13:22:26Z</time>
      </trkpt>
      <trkpt lat="44.12718" lon="7.25645">
        <ele>1778.5</ele>
        <time>2023-02-05T13:22:27Z</time>
      </trkpt>
      <trkpt lat="44.12718" lon="7.25645">
        <ele>1778.5</ele>
        <time>2023-02-05T13:22:28Z</time>
      </trkpt>
      <trkpt lat="44.12718" lon="7.25645">
        <ele>1778.5</ele>
        <time>2023-02-05T13:22:29Z</time>
      </trkpt>
      <trkpt lat="44.12717" lon="7.25646">
        <ele>1778.6</ele>
        <time>2023-02-05T13:22:30Z</time>
      </trkpt>
      <trkpt lat="44.12717" lon="7.25647">
        <ele>1778.6</ele>
        <time>2023-02-05T13:22:31Z</time>
      </trkpt>
      <trkpt lat="44.12716" lon="7.25647">
        <ele>1778.7</ele>
        <time>2023-02-05T13:22:32Z</time>
      </trkpt>
      <trkpt lat="44.12715" lon="7.25648">
        <ele>1778.8</ele>
        <time>2023-02-05T13:22:33Z</time>
      </trkpt>
      <trkpt lat="44.12714" lon="7.25648">
        <ele>1778.9</ele>
        <time>2023-02-05T13:22:34Z</time>
      </trkpt>
      <trkpt lat="44.12714" lon="7.25648">
        <ele>1779.3</ele>
        <time>2023-02-05T13:22:35Z</time>
      </trkpt>
      <trkpt lat="44.12714" lon="7.25648">
        <ele>1779.4</ele>
        <time>2023-02-05T13:22:36Z</time>
      </trkpt>
      <trkpt lat="44.12714" lon="7.25648">
        <ele>1779.4</ele>
        <time>2023-02-05T13:22:37Z</time>
      </trkpt>
      <trkpt lat="44.12714" lon="7.25648">
        <ele>1779.4</ele>
        <time>2023-02-05T13:22:38Z</time>
      </trkpt>
      <trkpt lat="44.12715" lon="7.25648">
        <ele>1779.6</ele>
        <time>2023-02-05T13:22:39Z</time>
      </trkpt>
      <trkpt lat="44.12715" lon="7.25648">
        <ele>1779.5</ele>
        <time>2023-02-05T13:22:40Z</time>
      </trkpt>
      <trkpt lat="44.12716" lon="7.25648">
        <ele>1779.5</ele>
        <time>2023-02-05T13:22:41Z</time>
      </trkpt>
      <trkpt lat="44.12716" lon="7.25649">
        <ele>1779.6</ele>
        <time>2023-02-05T13:22:42Z</time>
      </trkpt>
      <trkpt lat="44.12717" lon="7.25649">
        <ele>1779.5</ele>
        <time>2023-02-05T13:22:43Z</time>
      </trkpt>
      <trkpt lat="44.12717" lon="7.25649">
        <ele>1779.6</ele>
        <time>2023-02-05T13:22:44Z</time>
      </trkpt>
      <trkpt lat="44.12718" lon="7.25649">
        <ele>1779.9</ele>
        <time>2023-02-05T13:22:45Z</time>
      </trkpt>
      <trkpt lat="44.12718" lon="7.25649">
        <ele>1780</ele>
        <time>2023-02-05T13:22:46Z</time>
      </trkpt>
      <trkpt lat="44.12718" lon="7.2565">
        <ele>1780</ele>
        <time>2023-02-05T13:22:47Z</time>
      </trkpt>
      <trkpt lat="44.12718" lon="7.2565">
        <ele>1780.2</ele>
        <time>2023-02-05T13:22:48Z</time>
      </trkpt>
      <trkpt lat="44.12719" lon="7.2565">
        <ele>1780.5</ele>
        <time>2023-02-05T13:22:49Z</time>
      </trkpt>
      <trkpt lat="44.12719" lon="7.2565">
        <ele>1780.3</ele>
        <time>2023-02-05T13:22:50Z</time>
      </trkpt>
      <trkpt lat="44.1272" lon="7.25651">
        <ele>1780.2</ele>
        <time>2023-02-05T13:22:51Z</time>
      </trkpt>
      <trkpt lat="44.12721" lon="7.25651">
        <ele>1780.6</ele>
        <time>2023-02-05T13:22:52Z</time>
      </trkpt>
      <trkpt lat="44.12721" lon="7.25651">
        <ele>1780.5</ele>
        <time>2023-02-05T13:22:53Z</time>
      </trkpt>
      <trkpt lat="44.12721" lon="7.25651">
        <ele>1780.5</ele>
        <time>2023-02-05T13:22:54Z</time>
      </trkpt>
      <trkpt lat="44.12722" lon="7.25651">
        <ele>1780.6</ele>
        <time>2023-02-05T13:22:55Z</time>
      </trkpt>
      <trkpt lat="44.12722" lon="7.25651">
        <ele>1780.6</ele>
        <time>2023-02-05T13:22:56Z</time>
      </trkpt>
      <trkpt lat="44.12723" lon="7.25651">
        <ele>1780.4</ele>
        <time>2023-02-05T13:22:57Z</time>
      </trkpt>
      <trkpt lat="44.12723" lon="7.25651">
        <ele>1780.6</ele>
        <time>2023-02-05T13:22:58Z</time>
      </trkpt>
      <trkpt lat="44.12723" lon="7.25651">
        <ele>1780.8</ele>
        <time>2023-02-05T13:22:59Z</time>
      </trkpt>
      <trkpt lat="44.12723" lon="7.25651">
        <ele>1781.1</ele>
        <time>2023-02-05T13:23:00Z</time>
      </trkpt>
      <trkpt lat="44.12724" lon="7.25651">
        <ele>1781.3</ele>
        <time>2023-02-05T13:23:01Z</time>
      </trkpt>
      <trkpt lat="44.12724" lon="7.25651">
        <ele>1781.3</ele>
        <time>2023-02-05T13:23:02Z</time>
      </trkpt>
      <trkpt lat="44.12724" lon="7.25652">
        <ele>1781.2</ele>
        <time>2023-02-05T13:23:03Z</time>
      </trkpt>
      <trkpt lat="44.12724" lon="7.25651">
        <ele>1781.1</ele>
        <time>2023-02-05T13:23:04Z</time>
      </trkpt>
      <trkpt lat="44.12725" lon="7.25651">
        <ele>1780.9</ele>
        <time>2023-02-05T13:23:05Z</time>
      </trkpt>
      <trkpt lat="44.12725" lon="7.25652">
        <ele>1780.9</ele>
        <time>2023-02-05T13:23:06Z</time>
      </trkpt>
      <trkpt lat="44.12726" lon="7.25652">
        <ele>1780.6</ele>
        <time>2023-02-05T13:23:07Z</time>
      </trkpt>
      <trkpt lat="44.12726" lon="7.25652">
        <ele>1780.7</ele>
        <time>2023-02-05T13:23:08Z</time>
      </trkpt>
      <trkpt lat="44.12726" lon="7.25652">
        <ele>1780.7</ele>
        <time>2023-02-05T13:23:09Z</time>
      </trkpt>
      <trkpt lat="44.12727" lon="7.25652">
        <ele>1780.8</ele>
        <time>2023-02-05T13:23:10Z</time>
      </trkpt>
      <trkpt lat="44.12727" lon="7.25653">
        <ele>1780.9</ele>
        <time>2023-02-05T13:23:11Z</time>
      </trkpt>
      <trkpt lat="44.12727" lon="7.25653">
        <ele>1781.2</ele>
        <time>2023-02-05T13:23:12Z</time>
      </trkpt>
      <trkpt lat="44.12728" lon="7.25653">
        <ele>1781.3</ele>
        <time>2023-02-05T13:23:13Z</time>
      </trkpt>
      <trkpt lat="44.12728" lon="7.25653">
        <ele>1781.3</ele>
        <time>2023-02-05T13:23:14Z</time>
      </trkpt>
      <trkpt lat="44.12729" lon="7.25653">
        <ele>1781.4</ele>
        <time>2023-02-05T13:23:15Z</time>
      </trkpt>
      <trkpt lat="44.12729" lon="7.25653">
        <ele>1781.4</ele>
        <time>2023-02-05T13:23:16Z</time>
      </trkpt>
      <trkpt lat="44.1273" lon="7.25653">
        <ele>1781.4</ele>
        <time>2023-02-05T13:23:17Z</time>
      </trkpt>
      <trkpt lat="44.1273" lon="7.25653">
        <ele>1781.6</ele>
        <time>2023-02-05T13:23:18Z</time>
      </trkpt>
      <trkpt lat="44.12731" lon="7.25653">
        <ele>1781.8</ele>
        <time>2023-02-05T13:23:19Z</time>
      </trkpt>
      <trkpt lat="44.12731" lon="7.25653">
        <ele>1782.1</ele>
        <time>2023-02-05T13:23:20Z</time>
      </trkpt>
      <trkpt lat="44.1273" lon="7.25654">
        <ele>1782.2</ele>
        <time>2023-02-05T13:23:21Z</time>
      </trkpt>
      <trkpt lat="44.1273" lon="7.25654">
        <ele>1782.3</ele>
        <time>2023-02-05T13:23:22Z</time>
      </trkpt>
      <trkpt lat="44.1273" lon="7.25654">
        <ele>1782.4</ele>
        <time>2023-02-05T13:23:23Z</time>
      </trkpt>
      <trkpt lat="44.1273" lon="7.25654">
        <ele>1782.5</ele>
        <time>2023-02-05T13:23:24Z</time>
      </trkpt>
      <trkpt lat="44.1273" lon="7.25654">
        <ele>1782.5</ele>
        <time>2023-02-05T13:23:25Z</time>
      </trkpt>
      <trkpt lat="44.1273" lon="7.25654">
        <ele>1782.5</ele>
        <time>2023-02-05T13:23:26Z</time>
      </trkpt>
      <trkpt lat="44.12731" lon="7.25654">
        <ele>1782.4</ele>
        <time>2023-02-05T13:23:27Z</time>
      </trkpt>
      <trkpt lat="44.12731" lon="7.25653">
        <ele>1782.6</ele>
        <time>2023-02-05T13:23:28Z</time>
      </trkpt>
      <trkpt lat="44.12732" lon="7.25653">
        <ele>1782.4</ele>
        <time>2023-02-05T13:23:29Z</time>
      </trkpt>
      <trkpt lat="44.12732" lon="7.25652">
        <ele>1782.4</ele>
        <time>2023-02-05T13:23:30Z</time>
      </trkpt>
      <trkpt lat="44.12732" lon="7.25652">
        <ele>1782.4</ele>
        <time>2023-02-05T13:23:31Z</time>
      </trkpt>
      <trkpt lat="44.12732" lon="7.25651">
        <ele>1782.4</ele>
        <time>2023-02-05T13:23:32Z</time>
      </trkpt>
      <trkpt lat="44.12733" lon="7.25651">
        <ele>1782.7</ele>
        <time>2023-02-05T13:23:33Z</time>
      </trkpt>
      <trkpt lat="44.12733" lon="7.25651">
        <ele>1782.9</ele>
        <time>2023-02-05T13:23:34Z</time>
      </trkpt>
      <trkpt lat="44.12733" lon="7.2565">
        <ele>1783</ele>
        <time>2023-02-05T13:23:35Z</time>
      </trkpt>
      <trkpt lat="44.12733" lon="7.2565">
        <ele>1783.3</ele>
        <time>2023-02-05T13:23:36Z</time>
      </trkpt>
      <trkpt lat="44.12734" lon="7.2565">
        <ele>1783.4</ele>
        <time>2023-02-05T13:23:37Z</time>
      </trkpt>
      <trkpt lat="44.12733" lon="7.2565">
        <ele>1783.4</ele>
        <time>2023-02-05T13:23:38Z</time>
      </trkpt>
      <trkpt lat="44.12734" lon="7.2565">
        <ele>1783.3</ele>
        <time>2023-02-05T13:23:39Z</time>
      </trkpt>
      <trkpt lat="44.12734" lon="7.2565">
        <ele>1783.4</ele>
        <time>2023-02-05T13:23:40Z</time>
      </trkpt>
      <trkpt lat="44.12734" lon="7.25651">
        <ele>1783.4</ele>
        <time>2023-02-05T13:23:41Z</time>
      </trkpt>
      <trkpt lat="44.12734" lon="7.25651">
        <ele>1783.4</ele>
        <time>2023-02-05T13:23:42Z</time>
      </trkpt>
      <trkpt lat="44.12734" lon="7.2565">
        <ele>1783.4</ele>
        <time>2023-02-05T13:23:43Z</time>
      </trkpt>
      <trkpt lat="44.12735" lon="7.2565">
        <ele>1783.3</ele>
        <time>2023-02-05T13:23:44Z</time>
      </trkpt>
      <trkpt lat="44.12735" lon="7.2565">
        <ele>1783.4</ele>
        <time>2023-02-05T13:23:45Z</time>
      </trkpt>
      <trkpt lat="44.12735" lon="7.2565">
        <ele>1783</ele>
        <time>2023-02-05T13:23:46Z</time>
      </trkpt>
      <trkpt lat="44.12735" lon="7.25651">
        <ele>1783.1</ele>
        <time>2023-02-05T13:23:47Z</time>
      </trkpt>
      <trkpt lat="44.12734" lon="7.25652">
        <ele>1783.2</ele>
        <time>2023-02-05T13:23:48Z</time>
      </trkpt>
      <trkpt lat="44.12734" lon="7.25652">
        <ele>1783.5</ele>
        <time>2023-02-05T13:23:49Z</time>
      </trkpt>
      <trkpt lat="44.12734" lon="7.25652">
        <ele>1783.7</ele>
        <time>2023-02-05T13:23:50Z</time>
      </trkpt>
      <trkpt lat="44.12735" lon="7.25652">
        <ele>1783.7</ele>
        <time>2023-02-05T13:23:51Z</time>
      </trkpt>
      <trkpt lat="44.12736" lon="7.25652">
        <ele>1783.8</ele>
        <time>2023-02-05T13:23:52Z</time>
      </trkpt>
      <trkpt lat="44.12736" lon="7.25652">
        <ele>1783.8</ele>
        <time>2023-02-05T13:23:53Z</time>
      </trkpt>
      <trkpt lat="44.12736" lon="7.25651">
        <ele>1783.7</ele>
        <time>2023-02-05T13:23:54Z</time>
      </trkpt>
      <trkpt lat="44.12737" lon="7.25651">
        <ele>1783.8</ele>
        <time>2023-02-05T13:23:55Z</time>
      </trkpt>
      <trkpt lat="44.12737" lon="7.2565">
        <ele>1783.7</ele>
        <time>2023-02-05T13:23:56Z</time>
      </trkpt>
      <trkpt lat="44.12737" lon="7.25649">
        <ele>1783.6</ele>
        <time>2023-02-05T13:23:57Z</time>
      </trkpt>
      <trkpt lat="44.12737" lon="7.25649">
        <ele>1783.5</ele>
        <time>2023-02-05T13:23:58Z</time>
      </trkpt>
      <trkpt lat="44.12737" lon="7.25649">
        <ele>1783.5</ele>
        <time>2023-02-05T13:23:59Z</time>
      </trkpt>
      <trkpt lat="44.12737" lon="7.25649">
        <ele>1783.6</ele>
        <time>2023-02-05T13:24:00Z</time>
      </trkpt>
      <trkpt lat="44.12738" lon="7.25649">
        <ele>1783.6</ele>
        <time>2023-02-05T13:24:01Z</time>
      </trkpt>
      <trkpt lat="44.12738" lon="7.25648">
        <ele>1783.6</ele>
        <time>2023-02-05T13:24:02Z</time>
      </trkpt>
      <trkpt lat="44.12738" lon="7.25648">
        <ele>1783.9</ele>
        <time>2023-02-05T13:24:03Z</time>
      </trkpt>
      <trkpt lat="44.12736" lon="7.25648">
        <ele>1783.8</ele>
        <time>2023-02-05T13:24:04Z</time>
      </trkpt>
      <trkpt lat="44.12736" lon="7.25647">
        <ele>1783.8</ele>
        <time>2023-02-05T13:24:05Z</time>
      </trkpt>
      <trkpt lat="44.12735" lon="7.25648">
        <ele>1783.7</ele>
        <time>2023-02-05T13:24:06Z</time>
      </trkpt>
      <trkpt lat="44.12735" lon="7.25648">
        <ele>1783.7</ele>
        <time>2023-02-05T13:24:07Z</time>
      </trkpt>
      <trkpt lat="44.12735" lon="7.25647">
        <ele>1783.6</ele>
        <time>2023-02-05T13:24:08Z</time>
      </trkpt>
      <trkpt lat="44.12735" lon="7.25647">
        <ele>1783.6</ele>
        <time>2023-02-05T13:24:09Z</time>
      </trkpt>
      <trkpt lat="44.12734" lon="7.25646">
        <ele>1783.7</ele>
        <time>2023-02-05T13:24:10Z</time>
      </trkpt>
      <trkpt lat="44.12733" lon="7.25646">
        <ele>1783.7</ele>
        <time>2023-02-05T13:24:11Z</time>
      </trkpt>
      <trkpt lat="44.12733" lon="7.25645">
        <ele>1783.7</ele>
        <time>2023-02-05T13:24:12Z</time>
      </trkpt>
      <trkpt lat="44.12732" lon="7.25645">
        <ele>1783.5</ele>
        <time>2023-02-05T13:24:13Z</time>
      </trkpt>
      <trkpt lat="44.12732" lon="7.25645">
        <ele>1783.8</ele>
        <time>2023-02-05T13:24:14Z</time>
      </trkpt>
      <trkpt lat="44.12733" lon="7.25644">
        <ele>1783.9</ele>
        <time>2023-02-05T13:24:15Z</time>
      </trkpt>
      <trkpt lat="44.12733" lon="7.25644">
        <ele>1783.8</ele>
        <time>2023-02-05T13:24:16Z</time>
      </trkpt>
      <trkpt lat="44.12734" lon="7.25643">
        <ele>1784</ele>
        <time>2023-02-05T13:24:17Z</time>
      </trkpt>
      <trkpt lat="44.12733" lon="7.25642">
        <ele>1784.1</ele>
        <time>2023-02-05T13:24:18Z</time>
      </trkpt>
      <trkpt lat="44.12733" lon="7.25642">
        <ele>1784.2</ele>
        <time>2023-02-05T13:24:19Z</time>
      </trkpt>
      <trkpt lat="44.12733" lon="7.25641">
        <ele>1784.2</ele>
        <time>2023-02-05T13:24:20Z</time>
      </trkpt>
      <trkpt lat="44.12733" lon="7.25641">
        <ele>1784.3</ele>
        <time>2023-02-05T13:24:21Z</time>
      </trkpt>
      <trkpt lat="44.12732" lon="7.25641">
        <ele>1784.2</ele>
        <time>2023-02-05T13:24:22Z</time>
      </trkpt>
      <trkpt lat="44.12732" lon="7.2564">
        <ele>1784.1</ele>
        <time>2023-02-05T13:24:23Z</time>
      </trkpt>
      <trkpt lat="44.12732" lon="7.2564">
        <ele>1784</ele>
        <time>2023-02-05T13:24:24Z</time>
      </trkpt>
      <trkpt lat="44.12731" lon="7.2564">
        <ele>1783.9</ele>
        <time>2023-02-05T13:24:25Z</time>
      </trkpt>
      <trkpt lat="44.12731" lon="7.25639">
        <ele>1783.8</ele>
        <time>2023-02-05T13:24:26Z</time>
      </trkpt>
      <trkpt lat="44.1273" lon="7.25639">
        <ele>1783.8</ele>
        <time>2023-02-05T13:24:27Z</time>
      </trkpt>
      <trkpt lat="44.1273" lon="7.25639">
        <ele>1783.7</ele>
        <time>2023-02-05T13:24:28Z</time>
      </trkpt>
      <trkpt lat="44.1273" lon="7.25639">
        <ele>1784</ele>
        <time>2023-02-05T13:24:29Z</time>
      </trkpt>
      <trkpt lat="44.1273" lon="7.25638">
        <ele>1783.8</ele>
        <time>2023-02-05T13:24:30Z</time>
      </trkpt>
      <trkpt lat="44.1273" lon="7.25639">
        <ele>1783.6</ele>
        <time>2023-02-05T13:24:31Z</time>
      </trkpt>
      <trkpt lat="44.1273" lon="7.25639">
        <ele>1783.4</ele>
        <time>2023-02-05T13:24:32Z</time>
      </trkpt>
      <trkpt lat="44.1273" lon="7.25639">
        <ele>1783.4</ele>
        <time>2023-02-05T13:24:33Z</time>
      </trkpt>
      <trkpt lat="44.1273" lon="7.25639">
        <ele>1783.3</ele>
        <time>2023-02-05T13:24:34Z</time>
      </trkpt>
      <trkpt lat="44.12729" lon="7.25639">
        <ele>1783.2</ele>
        <time>2023-02-05T13:24:35Z</time>
      </trkpt>
      <trkpt lat="44.12729" lon="7.25638">
        <ele>1783.1</ele>
        <time>2023-02-05T13:24:36Z</time>
      </trkpt>
      <trkpt lat="44.12729" lon="7.25638">
        <ele>1783</ele>
        <time>2023-02-05T13:24:37Z</time>
      </trkpt>
      <trkpt lat="44.12729" lon="7.25638">
        <ele>1783</ele>
        <time>2023-02-05T13:24:38Z</time>
      </trkpt>
      <trkpt lat="44.12729" lon="7.25638">
        <ele>1783.1</ele>
        <time>2023-02-05T13:24:39Z</time>
      </trkpt>
      <trkpt lat="44.12728" lon="7.25638">
        <ele>1783.1</ele>
        <time>2023-02-05T13:24:40Z</time>
      </trkpt>
      <trkpt lat="44.12728" lon="7.25638">
        <ele>1783.1</ele>
        <time>2023-02-05T13:24:41Z</time>
      </trkpt>
      <trkpt lat="44.12728" lon="7.25638">
        <ele>1783.2</ele>
        <time>2023-02-05T13:24:42Z</time>
      </trkpt>
      <trkpt lat="44.12728" lon="7.25639">
        <ele>1783.2</ele>
        <time>2023-02-05T13:24:43Z</time>
      </trkpt>
      <trkpt lat="44.12728" lon="7.2564">
        <ele>1783.2</ele>
        <time>2023-02-05T13:24:44Z</time>
      </trkpt>
      <trkpt lat="44.12727" lon="7.2564">
        <ele>1783</ele>
        <time>2023-02-05T13:24:45Z</time>
      </trkpt>
      <trkpt lat="44.12727" lon="7.25641">
        <ele>1783.2</ele>
        <time>2023-02-05T13:24:46Z</time>
      </trkpt>
      <trkpt lat="44.12727" lon="7.25642">
        <ele>1783</ele>
        <time>2023-02-05T13:24:47Z</time>
      </trkpt>
      <trkpt lat="44.12727" lon="7.25642">
        <ele>1783.1</ele>
        <time>2023-02-05T13:24:48Z</time>
      </trkpt>
      <trkpt lat="44.12727" lon="7.25643">
        <ele>1783</ele>
        <time>2023-02-05T13:24:49Z</time>
      </trkpt>
      <trkpt lat="44.12727" lon="7.25643">
        <ele>1783.1</ele>
        <time>2023-02-05T13:24:50Z</time>
      </trkpt>
      <trkpt lat="44.12728" lon="7.25644">
        <ele>1783.3</ele>
        <time>2023-02-05T13:24:51Z</time>
      </trkpt>
      <trkpt lat="44.12727" lon="7.25644">
        <ele>1783.3</ele>
        <time>2023-02-05T13:24:52Z</time>
      </trkpt>
      <trkpt lat="44.12727" lon="7.25644">
        <ele>1783.3</ele>
        <time>2023-02-05T13:24:53Z</time>
      </trkpt>
      <trkpt lat="44.12728" lon="7.25644">
        <ele>1783.5</ele>
        <time>2023-02-05T13:24:54Z</time>
      </trkpt>
      <trkpt lat="44.12728" lon="7.25644">
        <ele>1783.5</ele>
        <time>2023-02-05T13:24:55Z</time>
      </trkpt>
      <trkpt lat="44.12728" lon="7.25645">
        <ele>1783.5</ele>
        <time>2023-02-05T13:24:56Z</time>
      </trkpt>
      <trkpt lat="44.12728" lon="7.25645">
        <ele>1783.5</ele>
        <time>2023-02-05T13:24:57Z</time>
      </trkpt>
      <trkpt lat="44.12728" lon="7.25645">
        <ele>1783.4</ele>
        <time>2023-02-05T13:24:58Z</time>
      </trkpt>
      <trkpt lat="44.12728" lon="7.25646">
        <ele>1783.4</ele>
        <time>2023-02-05T13:24:59Z</time>
      </trkpt>
      <trkpt lat="44.12728" lon="7.25646">
        <ele>1783.5</ele>
        <time>2023-02-05T13:25:00Z</time>
      </trkpt>
      <trkpt lat="44.12728" lon="7.25647">
        <ele>1783.4</ele>
        <time>2023-02-05T13:25:01Z</time>
      </trkpt>
      <trkpt lat="44.12728" lon="7.25647">
        <ele>1783.3</ele>
        <time>2023-02-05T13:25:02Z</time>
      </trkpt>
      <trkpt lat="44.12729" lon="7.25649">
        <ele>1783.6</ele>
        <time>2023-02-05T13:25:03Z</time>
      </trkpt>
      <trkpt lat="44.1273" lon="7.2565">
        <ele>1783.9</ele>
        <time>2023-02-05T13:25:04Z</time>
      </trkpt>
      <trkpt lat="44.1273" lon="7.2565">
        <ele>1784</ele>
        <time>2023-02-05T13:25:05Z</time>
      </trkpt>
      <trkpt lat="44.12731" lon="7.25651">
        <ele>1784</ele>
        <time>2023-02-05T13:25:06Z</time>
      </trkpt>
      <trkpt lat="44.12732" lon="7.25652">
        <ele>1784.3</ele>
        <time>2023-02-05T13:25:07Z</time>
      </trkpt>
      <trkpt lat="44.12733" lon="7.25652">
        <ele>1784.7</ele>
        <time>2023-02-05T13:25:08Z</time>
      </trkpt>
      <trkpt lat="44.12734" lon="7.25652">
        <ele>1784.9</ele>
        <time>2023-02-05T13:25:09Z</time>
      </trkpt>
      <trkpt lat="44.12734" lon="7.25652">
        <ele>1784.9</ele>
        <time>2023-02-05T13:25:10Z</time>
      </trkpt>
      <trkpt lat="44.12735" lon="7.25652">
        <ele>1784.9</ele>
        <time>2023-02-05T13:25:11Z</time>
      </trkpt>
      <trkpt lat="44.12735" lon="7.25652">
        <ele>1784.8</ele>
        <time>2023-02-05T13:25:12Z</time>
      </trkpt>
      <trkpt lat="44.12735" lon="7.25652">
        <ele>1784.7</ele>
        <time>2023-02-05T13:25:13Z</time>
      </trkpt>
      <trkpt lat="44.12735" lon="7.25652">
        <ele>1784.7</ele>
        <time>2023-02-05T13:25:14Z</time>
      </trkpt>
      <trkpt lat="44.12735" lon="7.25653">
        <ele>1784.5</ele>
        <time>2023-02-05T13:25:15Z</time>
      </trkpt>
      <trkpt lat="44.12736" lon="7.25653">
        <ele>1784.6</ele>
        <time>2023-02-05T13:25:16Z</time>
      </trkpt>
      <trkpt lat="44.12736" lon="7.25653">
        <ele>1784.8</ele>
        <time>2023-02-05T13:25:17Z</time>
      </trkpt>
      <trkpt lat="44.12737" lon="7.25653">
        <ele>1784.9</ele>
        <time>2023-02-05T13:25:18Z</time>
      </trkpt>
      <trkpt lat="44.12737" lon="7.25654">
        <ele>1785</ele>
        <time>2023-02-05T13:25:19Z</time>
      </trkpt>
      <trkpt lat="44.12738" lon="7.25655">
        <ele>1785.2</ele>
        <time>2023-02-05T13:25:20Z</time>
      </trkpt>
      <trkpt lat="44.12738" lon="7.25655">
        <ele>1785.2</ele>
        <time>2023-02-05T13:25:21Z</time>
      </trkpt>
      <trkpt lat="44.12739" lon="7.25655">
        <ele>1785.3</ele>
        <time>2023-02-05T13:25:22Z</time>
      </trkpt>
      <trkpt lat="44.12739" lon="7.25655">
        <ele>1785.4</ele>
        <time>2023-02-05T13:25:23Z</time>
      </trkpt>
      <trkpt lat="44.12739" lon="7.25655">
        <ele>1785.5</ele>
        <time>2023-02-05T13:25:24Z</time>
      </trkpt>
      <trkpt lat="44.1274" lon="7.25655">
        <ele>1785.7</ele>
        <time>2023-02-05T13:25:25Z</time>
      </trkpt>
      <trkpt lat="44.1274" lon="7.25655">
        <ele>1785.8</ele>
        <time>2023-02-05T13:25:26Z</time>
      </trkpt>
      <trkpt lat="44.1274" lon="7.25656">
        <ele>1785.9</ele>
        <time>2023-02-05T13:25:27Z</time>
      </trkpt>
      <trkpt lat="44.12741" lon="7.25655">
        <ele>1786.2</ele>
        <time>2023-02-05T13:25:28Z</time>
      </trkpt>
      <trkpt lat="44.12741" lon="7.25656">
        <ele>1786.3</ele>
        <time>2023-02-05T13:25:29Z</time>
      </trkpt>
      <trkpt lat="44.12741" lon="7.25656">
        <ele>1786.5</ele>
        <time>2023-02-05T13:25:30Z</time>
      </trkpt>
      <trkpt lat="44.12741" lon="7.25656">
        <ele>1786.7</ele>
        <time>2023-02-05T13:25:31Z</time>
      </trkpt>
      <trkpt lat="44.12742" lon="7.25656">
        <ele>1786.7</ele>
        <time>2023-02-05T13:25:32Z</time>
      </trkpt>
      <trkpt lat="44.12742" lon="7.25656">
        <ele>1786.9</ele>
        <time>2023-02-05T13:25:33Z</time>
      </trkpt>
      <trkpt lat="44.12742" lon="7.25656">
        <ele>1787</ele>
        <time>2023-02-05T13:25:34Z</time>
      </trkpt>
      <trkpt lat="44.12743" lon="7.25657">
        <ele>1787.3</ele>
        <time>2023-02-05T13:25:35Z</time>
      </trkpt>
      <trkpt lat="44.12743" lon="7.25657">
        <ele>1787.3</ele>
        <time>2023-02-05T13:25:36Z</time>
      </trkpt>
      <trkpt lat="44.12744" lon="7.25657">
        <ele>1787.4</ele>
        <time>2023-02-05T13:25:37Z</time>
      </trkpt>
      <trkpt lat="44.12744" lon="7.25657">
        <ele>1787.5</ele>
        <time>2023-02-05T13:25:38Z</time>
      </trkpt>
      <trkpt lat="44.12744" lon="7.25657">
        <ele>1787.8</ele>
        <time>2023-02-05T13:25:39Z</time>
      </trkpt>
      <trkpt lat="44.12744" lon="7.25658">
        <ele>1787.7</ele>
        <time>2023-02-05T13:25:40Z</time>
      </trkpt>
      <trkpt lat="44.12745" lon="7.25658">
        <ele>1787.7</ele>
        <time>2023-02-05T13:25:41Z</time>
      </trkpt>
      <trkpt lat="44.12745" lon="7.25658">
        <ele>1787.8</ele>
        <time>2023-02-05T13:25:42Z</time>
      </trkpt>
      <trkpt lat="44.12746" lon="7.25659">
        <ele>1787.9</ele>
        <time>2023-02-05T13:25:43Z</time>
      </trkpt>
      <trkpt lat="44.12746" lon="7.25659">
        <ele>1788</ele>
        <time>2023-02-05T13:25:44Z</time>
      </trkpt>
      <trkpt lat="44.12746" lon="7.2566">
        <ele>1788</ele>
        <time>2023-02-05T13:25:45Z</time>
      </trkpt>
      <trkpt lat="44.12746" lon="7.2566">
        <ele>1787.9</ele>
        <time>2023-02-05T13:25:46Z</time>
      </trkpt>
      <trkpt lat="44.12746" lon="7.2566">
        <ele>1787.9</ele>
        <time>2023-02-05T13:25:47Z</time>
      </trkpt>
      <trkpt lat="44.12745" lon="7.2566">
        <ele>1787.9</ele>
        <time>2023-02-05T13:25:48Z</time>
      </trkpt>
      <trkpt lat="44.12745" lon="7.2566">
        <ele>1787.9</ele>
        <time>2023-02-05T13:25:49Z</time>
      </trkpt>
      <trkpt lat="44.12745" lon="7.2566">
        <ele>1787.9</ele>
        <time>2023-02-05T13:25:50Z</time>
      </trkpt>
      <trkpt lat="44.12745" lon="7.2566">
        <ele>1787.9</ele>
        <time>2023-02-05T13:25:51Z</time>
      </trkpt>
      <trkpt lat="44.12745" lon="7.2566">
        <ele>1787.9</ele>
        <time>2023-02-05T13:25:52Z</time>
      </trkpt>
      <trkpt lat="44.12745" lon="7.2566">
        <ele>1787.9</ele>
        <time>2023-02-05T13:25:53Z</time>
      </trkpt>
      <trkpt lat="44.12745" lon="7.2566">
        <ele>1787.9</ele>
        <time>2023-02-05T13:25:54Z</time>
      </trkpt>
      <trkpt lat="44.12745" lon="7.25661">
        <ele>1788</ele>
        <time>2023-02-05T13:25:55Z</time>
      </trkpt>
      <trkpt lat="44.12745" lon="7.25661">
        <ele>1787.7</ele>
        <time>2023-02-05T13:25:56Z</time>
      </trkpt>
      <trkpt lat="44.12745" lon="7.25661">
        <ele>1787.7</ele>
        <time>2023-02-05T13:25:57Z</time>
      </trkpt>
      <trkpt lat="44.12745" lon="7.25661">
        <ele>1787.8</ele>
        <time>2023-02-05T13:25:58Z</time>
      </trkpt>
      <trkpt lat="44.12746" lon="7.25662">
        <ele>1787.9</ele>
        <time>2023-02-05T13:25:59Z</time>
      </trkpt>
      <trkpt lat="44.12746" lon="7.25663">
        <ele>1788.1</ele>
        <time>2023-02-05T13:26:00Z</time>
      </trkpt>
      <trkpt lat="44.12747" lon="7.25663">
        <ele>1788.1</ele>
        <time>2023-02-05T13:26:01Z</time>
      </trkpt>
      <trkpt lat="44.12747" lon="7.25663">
        <ele>1788.3</ele>
        <time>2023-02-05T13:26:02Z</time>
      </trkpt>
      <trkpt lat="44.12747" lon="7.25663">
        <ele>1788.5</ele>
        <time>2023-02-05T13:26:03Z</time>
      </trkpt>
      <trkpt lat="44.12747" lon="7.25663">
        <ele>1788.4</ele>
        <time>2023-02-05T13:26:04Z</time>
      </trkpt>
      <trkpt lat="44.12747" lon="7.25662">
        <ele>1788.8</ele>
        <time>2023-02-05T13:26:05Z</time>
      </trkpt>
      <trkpt lat="44.12747" lon="7.25663">
        <ele>1788.7</ele>
        <time>2023-02-05T13:26:06Z</time>
      </trkpt>
      <trkpt lat="44.12747" lon="7.25662">
        <ele>1788.8</ele>
        <time>2023-02-05T13:26:07Z</time>
      </trkpt>
      <trkpt lat="44.12747" lon="7.25662">
        <ele>1788.9</ele>
        <time>2023-02-05T13:26:08Z</time>
      </trkpt>
      <trkpt lat="44.12748" lon="7.25662">
        <ele>1788.9</ele>
        <time>2023-02-05T13:26:09Z</time>
      </trkpt>
      <trkpt lat="44.12747" lon="7.25662">
        <ele>1789</ele>
        <time>2023-02-05T13:26:10Z</time>
      </trkpt>
      <trkpt lat="44.12747" lon="7.25662">
        <ele>1789.1</ele>
        <time>2023-02-05T13:26:11Z</time>
      </trkpt>
      <trkpt lat="44.12747" lon="7.25662">
        <ele>1789</ele>
        <time>2023-02-05T13:26:12Z</time>
      </trkpt>
      <trkpt lat="44.12747" lon="7.25662">
        <ele>1788.9</ele>
        <time>2023-02-05T13:26:13Z</time>
      </trkpt>
      <trkpt lat="44.12747" lon="7.25663">
        <ele>1788.9</ele>
        <time>2023-02-05T13:26:14Z</time>
      </trkpt>
      <trkpt lat="44.12747" lon="7.25663">
        <ele>1789</ele>
        <time>2023-02-05T13:26:15Z</time>
      </trkpt>
      <trkpt lat="44.12747" lon="7.25663">
        <ele>1789</ele>
        <time>2023-02-05T13:26:16Z</time>
      </trkpt>
      <trkpt lat="44.12747" lon="7.25663">
        <ele>1788.9</ele>
        <time>2023-02-05T13:26:17Z</time>
      </trkpt>
      <trkpt lat="44.12747" lon="7.25663">
        <ele>1788.9</ele>
        <time>2023-02-05T13:26:18Z</time>
      </trkpt>
      <trkpt lat="44.12747" lon="7.25664">
        <ele>1788.7</ele>
        <time>2023-02-05T13:26:19Z</time>
      </trkpt>
      <trkpt lat="44.12747" lon="7.25664">
        <ele>1788.9</ele>
        <time>2023-02-05T13:26:20Z</time>
      </trkpt>
      <trkpt lat="44.12747" lon="7.25664">
        <ele>1789</ele>
        <time>2023-02-05T13:26:21Z</time>
      </trkpt>
      <trkpt lat="44.12747" lon="7.25664">
        <ele>1789.1</ele>
        <time>2023-02-05T13:26:22Z</time>
      </trkpt>
      <trkpt lat="44.12748" lon="7.25664">
        <ele>1789.2</ele>
        <time>2023-02-05T13:26:23Z</time>
      </trkpt>
      <trkpt lat="44.12747" lon="7.25665">
        <ele>1789.5</ele>
        <time>2023-02-05T13:26:24Z</time>
      </trkpt>
      <trkpt lat="44.12747" lon="7.25665">
        <ele>1789.7</ele>
        <time>2023-02-05T13:26:25Z</time>
      </trkpt>
      <trkpt lat="44.12748" lon="7.25665">
        <ele>1789.8</ele>
        <time>2023-02-05T13:26:26Z</time>
      </trkpt>
      <trkpt lat="44.12748" lon="7.25666">
        <ele>1789.8</ele>
        <time>2023-02-05T13:26:27Z</time>
      </trkpt>
      <trkpt lat="44.12748" lon="7.25667">
        <ele>1789.9</ele>
        <time>2023-02-05T13:26:28Z</time>
      </trkpt>
      <trkpt lat="44.12748" lon="7.25667">
        <ele>1790</ele>
        <time>2023-02-05T13:26:29Z</time>
      </trkpt>
      <trkpt lat="44.12748" lon="7.25667">
        <ele>1790</ele>
        <time>2023-02-05T13:26:30Z</time>
      </trkpt>
      <trkpt lat="44.12748" lon="7.25668">
        <ele>1790.2</ele>
        <time>2023-02-05T13:26:31Z</time>
      </trkpt>
      <trkpt lat="44.12748" lon="7.25668">
        <ele>1790.1</ele>
        <time>2023-02-05T13:26:32Z</time>
      </trkpt>
      <trkpt lat="44.12749" lon="7.25669">
        <ele>1790.4</ele>
        <time>2023-02-05T13:26:33Z</time>
      </trkpt>
      <trkpt lat="44.12749" lon="7.2567">
        <ele>1790.5</ele>
        <time>2023-02-05T13:26:34Z</time>
      </trkpt>
      <trkpt lat="44.12749" lon="7.2567">
        <ele>1790.6</ele>
        <time>2023-02-05T13:26:35Z</time>
      </trkpt>
      <trkpt lat="44.12749" lon="7.25671">
        <ele>1790.8</ele>
        <time>2023-02-05T13:26:36Z</time>
      </trkpt>
      <trkpt lat="44.12749" lon="7.25672">
        <ele>1790.9</ele>
        <time>2023-02-05T13:26:37Z</time>
      </trkpt>
      <trkpt lat="44.12749" lon="7.25672">
        <ele>1791.1</ele>
        <time>2023-02-05T13:26:38Z</time>
      </trkpt>
      <trkpt lat="44.12749" lon="7.25673">
        <ele>1791.1</ele>
        <time>2023-02-05T13:26:39Z</time>
      </trkpt>
      <trkpt lat="44.1275" lon="7.25674">
        <ele>1791.1</ele>
        <time>2023-02-05T13:26:40Z</time>
      </trkpt>
      <trkpt lat="44.1275" lon="7.25675">
        <ele>1791.1</ele>
        <time>2023-02-05T13:26:41Z</time>
      </trkpt>
      <trkpt lat="44.12751" lon="7.25676">
        <ele>1789.6</ele>
        <time>2023-02-05T13:26:42Z</time>
      </trkpt>
      <trkpt lat="44.12751" lon="7.25676">
        <ele>1789.9</ele>
        <time>2023-02-05T13:26:43Z</time>
      </trkpt>
      <trkpt lat="44.12752" lon="7.25677">
        <ele>1790.3</ele>
        <time>2023-02-05T13:26:44Z</time>
      </trkpt>
      <trkpt lat="44.12752" lon="7.25677">
        <ele>1790.6</ele>
        <time>2023-02-05T13:26:45Z</time>
      </trkpt>
      <trkpt lat="44.12752" lon="7.25677">
        <ele>1790.9</ele>
        <time>2023-02-05T13:26:46Z</time>
      </trkpt>
      <trkpt lat="44.12753" lon="7.25678">
        <ele>1791.2</ele>
        <time>2023-02-05T13:26:47Z</time>
      </trkpt>
      <trkpt lat="44.12753" lon="7.25678">
        <ele>1791.3</ele>
        <time>2023-02-05T13:26:48Z</time>
      </trkpt>
      <trkpt lat="44.12753" lon="7.25679">
        <ele>1791.1</ele>
        <time>2023-02-05T13:26:49Z</time>
      </trkpt>
      <trkpt lat="44.12754" lon="7.2568">
        <ele>1791.6</ele>
        <time>2023-02-05T13:26:50Z</time>
      </trkpt>
      <trkpt lat="44.12754" lon="7.2568">
        <ele>1792</ele>
        <time>2023-02-05T13:26:51Z</time>
      </trkpt>
      <trkpt lat="44.12754" lon="7.25681">
        <ele>1792</ele>
        <time>2023-02-05T13:26:52Z</time>
      </trkpt>
      <trkpt lat="44.12755" lon="7.25682">
        <ele>1792.1</ele>
        <time>2023-02-05T13:26:53Z</time>
      </trkpt>
      <trkpt lat="44.12755" lon="7.25682">
        <ele>1792.3</ele>
        <time>2023-02-05T13:26:54Z</time>
      </trkpt>
      <trkpt lat="44.12755" lon="7.25683">
        <ele>1792.5</ele>
        <time>2023-02-05T13:26:55Z</time>
      </trkpt>
      <trkpt lat="44.12755" lon="7.25683">
        <ele>1792.7</ele>
        <time>2023-02-05T13:26:56Z</time>
      </trkpt>
      <trkpt lat="44.12754" lon="7.25683">
        <ele>1792.5</ele>
        <time>2023-02-05T13:26:57Z</time>
      </trkpt>
      <trkpt lat="44.12754" lon="7.25684">
        <ele>1792.6</ele>
        <time>2023-02-05T13:26:58Z</time>
      </trkpt>
      <trkpt lat="44.12755" lon="7.25684">
        <ele>1792.8</ele>
        <time>2023-02-05T13:26:59Z</time>
      </trkpt>
      <trkpt lat="44.12755" lon="7.25684">
        <ele>1793</ele>
        <time>2023-02-05T13:27:00Z</time>
      </trkpt>
      <trkpt lat="44.12755" lon="7.25685">
        <ele>1793</ele>
        <time>2023-02-05T13:27:01Z</time>
      </trkpt>
      <trkpt lat="44.12755" lon="7.25686">
        <ele>1793.1</ele>
        <time>2023-02-05T13:27:02Z</time>
      </trkpt>
      <trkpt lat="44.12755" lon="7.25686">
        <ele>1793.2</ele>
        <time>2023-02-05T13:27:03Z</time>
      </trkpt>
      <trkpt lat="44.12755" lon="7.25686">
        <ele>1793.2</ele>
        <time>2023-02-05T13:27:04Z</time>
      </trkpt>
      <trkpt lat="44.12756" lon="7.25686">
        <ele>1793.3</ele>
        <time>2023-02-05T13:27:05Z</time>
      </trkpt>
      <trkpt lat="44.12755" lon="7.25687">
        <ele>1793.4</ele>
        <time>2023-02-05T13:27:06Z</time>
      </trkpt>
      <trkpt lat="44.12756" lon="7.25687">
        <ele>1793.4</ele>
        <time>2023-02-05T13:27:07Z</time>
      </trkpt>
      <trkpt lat="44.12756" lon="7.25688">
        <ele>1793.5</ele>
        <time>2023-02-05T13:27:08Z</time>
      </trkpt>
      <trkpt lat="44.12757" lon="7.25688">
        <ele>1793.6</ele>
        <time>2023-02-05T13:27:09Z</time>
      </trkpt>
      <trkpt lat="44.12757" lon="7.25689">
        <ele>1793.7</ele>
        <time>2023-02-05T13:27:10Z</time>
      </trkpt>
      <trkpt lat="44.12758" lon="7.25689">
        <ele>1793.8</ele>
        <time>2023-02-05T13:27:11Z</time>
      </trkpt>
      <trkpt lat="44.12759" lon="7.25689">
        <ele>1793.9</ele>
        <time>2023-02-05T13:27:12Z</time>
      </trkpt>
      <trkpt lat="44.12759" lon="7.25689">
        <ele>1793.9</ele>
        <time>2023-02-05T13:27:13Z</time>
      </trkpt>
      <trkpt lat="44.1276" lon="7.25688">
        <ele>1793.8</ele>
        <time>2023-02-05T13:27:14Z</time>
      </trkpt>
      <trkpt lat="44.1276" lon="7.25688">
        <ele>1793.8</ele>
        <time>2023-02-05T13:27:15Z</time>
      </trkpt>
      <trkpt lat="44.1276" lon="7.25687">
        <ele>1793.9</ele>
        <time>2023-02-05T13:27:16Z</time>
      </trkpt>
      <trkpt lat="44.12761" lon="7.25687">
        <ele>1794.3</ele>
        <time>2023-02-05T13:27:17Z</time>
      </trkpt>
      <trkpt lat="44.12761" lon="7.25687">
        <ele>1794.7</ele>
        <time>2023-02-05T13:27:18Z</time>
      </trkpt>
      <trkpt lat="44.12762" lon="7.25686">
        <ele>1794.6</ele>
        <time>2023-02-05T13:27:19Z</time>
      </trkpt>
      <trkpt lat="44.12762" lon="7.25686">
        <ele>1794.8</ele>
        <time>2023-02-05T13:27:20Z</time>
      </trkpt>
      <trkpt lat="44.12762" lon="7.25686">
        <ele>1794.7</ele>
        <time>2023-02-05T13:27:21Z</time>
      </trkpt>
      <trkpt lat="44.12763" lon="7.25685">
        <ele>1794.7</ele>
        <time>2023-02-05T13:27:22Z</time>
      </trkpt>
      <trkpt lat="44.12763" lon="7.25685">
        <ele>1794.7</ele>
        <time>2023-02-05T13:27:23Z</time>
      </trkpt>
      <trkpt lat="44.12763" lon="7.25685">
        <ele>1794.7</ele>
        <time>2023-02-05T13:27:24Z</time>
      </trkpt>
      <trkpt lat="44.12763" lon="7.25685">
        <ele>1794.7</ele>
        <time>2023-02-05T13:27:25Z</time>
      </trkpt>
      <trkpt lat="44.12763" lon="7.25686">
        <ele>1794.8</ele>
        <time>2023-02-05T13:27:26Z</time>
      </trkpt>
      <trkpt lat="44.12764" lon="7.25686">
        <ele>1794.7</ele>
        <time>2023-02-05T13:27:27Z</time>
      </trkpt>
      <trkpt lat="44.12764" lon="7.25686">
        <ele>1794.8</ele>
        <time>2023-02-05T13:27:28Z</time>
      </trkpt>
      <trkpt lat="44.12764" lon="7.25688">
        <ele>1794.9</ele>
        <time>2023-02-05T13:27:29Z</time>
      </trkpt>
      <trkpt lat="44.12764" lon="7.25688">
        <ele>1795.1</ele>
        <time>2023-02-05T13:27:30Z</time>
      </trkpt>
      <trkpt lat="44.12763" lon="7.25689">
        <ele>1795.1</ele>
        <time>2023-02-05T13:27:31Z</time>
      </trkpt>
      <trkpt lat="44.12763" lon="7.2569">
        <ele>1795</ele>
        <time>2023-02-05T13:27:32Z</time>
      </trkpt>
      <trkpt lat="44.12763" lon="7.2569">
        <ele>1795.3</ele>
        <time>2023-02-05T13:27:33Z</time>
      </trkpt>
      <trkpt lat="44.12762" lon="7.25691">
        <ele>1795.5</ele>
        <time>2023-02-05T13:27:34Z</time>
      </trkpt>
      <trkpt lat="44.12761" lon="7.25693">
        <ele>1795.8</ele>
        <time>2023-02-05T13:27:35Z</time>
      </trkpt>
      <trkpt lat="44.1276" lon="7.25693">
        <ele>1795.9</ele>
        <time>2023-02-05T13:27:36Z</time>
      </trkpt>
      <trkpt lat="44.1276" lon="7.25694">
        <ele>1796.2</ele>
        <time>2023-02-05T13:27:37Z</time>
      </trkpt>
      <trkpt lat="44.12761" lon="7.25695">
        <ele>1796.2</ele>
        <time>2023-02-05T13:27:38Z</time>
      </trkpt>
      <trkpt lat="44.12761" lon="7.25696">
        <ele>1796.2</ele>
        <time>2023-02-05T13:27:39Z</time>
      </trkpt>
      <trkpt lat="44.12761" lon="7.25696">
        <ele>1796.2</ele>
        <time>2023-02-05T13:27:40Z</time>
      </trkpt>
      <trkpt lat="44.12761" lon="7.25696">
        <ele>1796.4</ele>
        <time>2023-02-05T13:27:41Z</time>
      </trkpt>
      <trkpt lat="44.12761" lon="7.25697">
        <ele>1796.6</ele>
        <time>2023-02-05T13:27:42Z</time>
      </trkpt>
      <trkpt lat="44.1276" lon="7.25697">
        <ele>1796.8</ele>
        <time>2023-02-05T13:27:43Z</time>
      </trkpt>
      <trkpt lat="44.1276" lon="7.25698">
        <ele>1797</ele>
        <time>2023-02-05T13:27:44Z</time>
      </trkpt>
      <trkpt lat="44.1276" lon="7.25698">
        <ele>1796.8</ele>
        <time>2023-02-05T13:27:45Z</time>
      </trkpt>
      <trkpt lat="44.1276" lon="7.25698">
        <ele>1797</ele>
        <time>2023-02-05T13:27:46Z</time>
      </trkpt>
      <trkpt lat="44.1276" lon="7.25698">
        <ele>1797.1</ele>
        <time>2023-02-05T13:27:47Z</time>
      </trkpt>
      <trkpt lat="44.1276" lon="7.25698">
        <ele>1797.4</ele>
        <time>2023-02-05T13:27:48Z</time>
      </trkpt>
      <trkpt lat="44.12759" lon="7.25699">
        <ele>1797.5</ele>
        <time>2023-02-05T13:27:49Z</time>
      </trkpt>
      <trkpt lat="44.1276" lon="7.25698">
        <ele>1797.7</ele>
        <time>2023-02-05T13:27:50Z</time>
      </trkpt>
      <trkpt lat="44.1276" lon="7.25698">
        <ele>1797.7</ele>
        <time>2023-02-05T13:27:51Z</time>
      </trkpt>
      <trkpt lat="44.1276" lon="7.25698">
        <ele>1797.7</ele>
        <time>2023-02-05T13:27:52Z</time>
      </trkpt>
      <trkpt lat="44.1276" lon="7.25699">
        <ele>1797.9</ele>
        <time>2023-02-05T13:27:53Z</time>
      </trkpt>
      <trkpt lat="44.1276" lon="7.257">
        <ele>1798</ele>
        <time>2023-02-05T13:27:54Z</time>
      </trkpt>
      <trkpt lat="44.12761" lon="7.25701">
        <ele>1798.1</ele>
        <time>2023-02-05T13:27:55Z</time>
      </trkpt>
      <trkpt lat="44.12761" lon="7.25701">
        <ele>1798.1</ele>
        <time>2023-02-05T13:27:56Z</time>
      </trkpt>
      <trkpt lat="44.12761" lon="7.25702">
        <ele>1798.1</ele>
        <time>2023-02-05T13:27:57Z</time>
      </trkpt>
      <trkpt lat="44.12761" lon="7.25703">
        <ele>1798.1</ele>
        <time>2023-02-05T13:27:58Z</time>
      </trkpt>
      <trkpt lat="44.12761" lon="7.25703">
        <ele>1798.1</ele>
        <time>2023-02-05T13:27:59Z</time>
      </trkpt>
      <trkpt lat="44.12761" lon="7.25703">
        <ele>1798.2</ele>
        <time>2023-02-05T13:28:00Z</time>
      </trkpt>
      <trkpt lat="44.12761" lon="7.25703">
        <ele>1798.3</ele>
        <time>2023-02-05T13:28:01Z</time>
      </trkpt>
      <trkpt lat="44.12761" lon="7.25704">
        <ele>1798.4</ele>
        <time>2023-02-05T13:28:02Z</time>
      </trkpt>
      <trkpt lat="44.12761" lon="7.25704">
        <ele>1798.6</ele>
        <time>2023-02-05T13:28:03Z</time>
      </trkpt>
      <trkpt lat="44.1276" lon="7.25704">
        <ele>1798.8</ele>
        <time>2023-02-05T13:28:04Z</time>
      </trkpt>
      <trkpt lat="44.1276" lon="7.25705">
        <ele>1798.7</ele>
        <time>2023-02-05T13:28:05Z</time>
      </trkpt>
      <trkpt lat="44.12759" lon="7.25705">
        <ele>1798.7</ele>
        <time>2023-02-05T13:28:06Z</time>
      </trkpt>
      <trkpt lat="44.12759" lon="7.25707">
        <ele>1798.6</ele>
        <time>2023-02-05T13:28:07Z</time>
      </trkpt>
      <trkpt lat="44.12758" lon="7.25707">
        <ele>1798.6</ele>
        <time>2023-02-05T13:28:08Z</time>
      </trkpt>
      <trkpt lat="44.12758" lon="7.25707">
        <ele>1798.7</ele>
        <time>2023-02-05T13:28:09Z</time>
      </trkpt>
      <trkpt lat="44.12758" lon="7.25708">
        <ele>1798.8</ele>
        <time>2023-02-05T13:28:10Z</time>
      </trkpt>
      <trkpt lat="44.12757" lon="7.25709">
        <ele>1798.9</ele>
        <time>2023-02-05T13:28:11Z</time>
      </trkpt>
      <trkpt lat="44.12757" lon="7.25709">
        <ele>1799</ele>
        <time>2023-02-05T13:28:12Z</time>
      </trkpt>
      <trkpt lat="44.12757" lon="7.25709">
        <ele>1799.1</ele>
        <time>2023-02-05T13:28:13Z</time>
      </trkpt>
      <trkpt lat="44.12757" lon="7.2571">
        <ele>1799</ele>
        <time>2023-02-05T13:28:14Z</time>
      </trkpt>
      <trkpt lat="44.12758" lon="7.25711">
        <ele>1799.1</ele>
        <time>2023-02-05T13:28:15Z</time>
      </trkpt>
      <trkpt lat="44.12758" lon="7.25712">
        <ele>1799.2</ele>
        <time>2023-02-05T13:28:16Z</time>
      </trkpt>
      <trkpt lat="44.12758" lon="7.25713">
        <ele>1799.2</ele>
        <time>2023-02-05T13:28:17Z</time>
      </trkpt>
      <trkpt lat="44.12758" lon="7.25714">
        <ele>1799.4</ele>
        <time>2023-02-05T13:28:18Z</time>
      </trkpt>
      <trkpt lat="44.12759" lon="7.25715">
        <ele>1798.9</ele>
        <time>2023-02-05T13:28:19Z</time>
      </trkpt>
      <trkpt lat="44.12759" lon="7.25715">
        <ele>1799</ele>
        <time>2023-02-05T13:28:20Z</time>
      </trkpt>
      <trkpt lat="44.12759" lon="7.25716">
        <ele>1799.1</ele>
        <time>2023-02-05T13:28:21Z</time>
      </trkpt>
      <trkpt lat="44.1276" lon="7.25717">
        <ele>1799.3</ele>
        <time>2023-02-05T13:28:22Z</time>
      </trkpt>
      <trkpt lat="44.12759" lon="7.25717">
        <ele>1799.3</ele>
        <time>2023-02-05T13:28:23Z</time>
      </trkpt>
      <trkpt lat="44.12759" lon="7.25718">
        <ele>1799.3</ele>
        <time>2023-02-05T13:28:24Z</time>
      </trkpt>
      <trkpt lat="44.12759" lon="7.25719">
        <ele>1799.7</ele>
        <time>2023-02-05T13:28:25Z</time>
      </trkpt>
      <trkpt lat="44.12759" lon="7.25719">
        <ele>1799.8</ele>
        <time>2023-02-05T13:28:26Z</time>
      </trkpt>
      <trkpt lat="44.12758" lon="7.25719">
        <ele>1799.8</ele>
        <time>2023-02-05T13:28:27Z</time>
      </trkpt>
      <trkpt lat="44.12757" lon="7.2572">
        <ele>1799.8</ele>
        <time>2023-02-05T13:28:28Z</time>
      </trkpt>
      <trkpt lat="44.12757" lon="7.2572">
        <ele>1798.9</ele>
        <time>2023-02-05T13:28:29Z</time>
      </trkpt>
      <trkpt lat="44.12757" lon="7.25721">
        <ele>1799</ele>
        <time>2023-02-05T13:28:30Z</time>
      </trkpt>
      <trkpt lat="44.12756" lon="7.25721">
        <ele>1799.2</ele>
        <time>2023-02-05T13:28:31Z</time>
      </trkpt>
      <trkpt lat="44.12756" lon="7.25722">
        <ele>1799.4</ele>
        <time>2023-02-05T13:28:32Z</time>
      </trkpt>
      <trkpt lat="44.12755" lon="7.25723">
        <ele>1799.6</ele>
        <time>2023-02-05T13:28:33Z</time>
      </trkpt>
      <trkpt lat="44.12754" lon="7.25724">
        <ele>1799.8</ele>
        <time>2023-02-05T13:28:34Z</time>
      </trkpt>
      <trkpt lat="44.12753" lon="7.25724">
        <ele>1799.5</ele>
        <time>2023-02-05T13:28:35Z</time>
      </trkpt>
      <trkpt lat="44.12753" lon="7.25724">
        <ele>1799.6</ele>
        <time>2023-02-05T13:28:36Z</time>
      </trkpt>
      <trkpt lat="44.12752" lon="7.25725">
        <ele>1799.7</ele>
        <time>2023-02-05T13:28:37Z</time>
      </trkpt>
      <trkpt lat="44.12751" lon="7.25725">
        <ele>1799.9</ele>
        <time>2023-02-05T13:28:38Z</time>
      </trkpt>
      <trkpt lat="44.12751" lon="7.25726">
        <ele>1800</ele>
        <time>2023-02-05T13:28:39Z</time>
      </trkpt>
      <trkpt lat="44.12751" lon="7.25728">
        <ele>1800.3</ele>
        <time>2023-02-05T13:28:40Z</time>
      </trkpt>
      <trkpt lat="44.1275" lon="7.25728">
        <ele>1800.5</ele>
        <time>2023-02-05T13:28:41Z</time>
      </trkpt>
      <trkpt lat="44.1275" lon="7.25729">
        <ele>1800.3</ele>
        <time>2023-02-05T13:28:42Z</time>
      </trkpt>
      <trkpt lat="44.12749" lon="7.2573">
        <ele>1800.5</ele>
        <time>2023-02-05T13:28:43Z</time>
      </trkpt>
      <trkpt lat="44.12749" lon="7.2573">
        <ele>1800.5</ele>
        <time>2023-02-05T13:28:44Z</time>
      </trkpt>
      <trkpt lat="44.12748" lon="7.25731">
        <ele>1800.7</ele>
        <time>2023-02-05T13:28:45Z</time>
      </trkpt>
      <trkpt lat="44.12748" lon="7.25732">
        <ele>1800.9</ele>
        <time>2023-02-05T13:28:46Z</time>
      </trkpt>
      <trkpt lat="44.12748" lon="7.25732">
        <ele>1800.9</ele>
        <time>2023-02-05T13:28:47Z</time>
      </trkpt>
      <trkpt lat="44.12748" lon="7.25733">
        <ele>1801</ele>
        <time>2023-02-05T13:28:48Z</time>
      </trkpt>
      <trkpt lat="44.12748" lon="7.25733">
        <ele>1801.1</ele>
        <time>2023-02-05T13:28:49Z</time>
      </trkpt>
      <trkpt lat="44.12748" lon="7.25733">
        <ele>1801.1</ele>
        <time>2023-02-05T13:28:50Z</time>
      </trkpt>
      <trkpt lat="44.12747" lon="7.25733">
        <ele>1801.1</ele>
        <time>2023-02-05T13:28:51Z</time>
      </trkpt>
      <trkpt lat="44.12748" lon="7.25734">
        <ele>1801.1</ele>
        <time>2023-02-05T13:28:52Z</time>
      </trkpt>
      <trkpt lat="44.12748" lon="7.25734">
        <ele>1801</ele>
        <time>2023-02-05T13:28:53Z</time>
      </trkpt>
      <trkpt lat="44.12748" lon="7.25735">
        <ele>1801</ele>
        <time>2023-02-05T13:28:54Z</time>
      </trkpt>
      <trkpt lat="44.12748" lon="7.25736">
        <ele>1801.1</ele>
        <time>2023-02-05T13:28:55Z</time>
      </trkpt>
      <trkpt lat="44.12748" lon="7.25736">
        <ele>1801.2</ele>
        <time>2023-02-05T13:28:56Z</time>
      </trkpt>
      <trkpt lat="44.12748" lon="7.25737">
        <ele>1801.2</ele>
        <time>2023-02-05T13:28:57Z</time>
      </trkpt>
      <trkpt lat="44.12747" lon="7.25737">
        <ele>1801.3</ele>
        <time>2023-02-05T13:28:58Z</time>
      </trkpt>
      <trkpt lat="44.12747" lon="7.25738">
        <ele>1801.2</ele>
        <time>2023-02-05T13:28:59Z</time>
      </trkpt>
      <trkpt lat="44.12746" lon="7.25739">
        <ele>1801</ele>
        <time>2023-02-05T13:29:00Z</time>
      </trkpt>
      <trkpt lat="44.12745" lon="7.25739">
        <ele>1801.1</ele>
        <time>2023-02-05T13:29:01Z</time>
      </trkpt>
      <trkpt lat="44.12744" lon="7.25739">
        <ele>1801</ele>
        <time>2023-02-05T13:29:02Z</time>
      </trkpt>
      <trkpt lat="44.12744" lon="7.25739">
        <ele>1801</ele>
        <time>2023-02-05T13:29:03Z</time>
      </trkpt>
      <trkpt lat="44.12744" lon="7.25739">
        <ele>1801.2</ele>
        <time>2023-02-05T13:29:04Z</time>
      </trkpt>
      <trkpt lat="44.12744" lon="7.25739">
        <ele>1801.2</ele>
        <time>2023-02-05T13:29:05Z</time>
      </trkpt>
      <trkpt lat="44.12744" lon="7.25739">
        <ele>1801.2</ele>
        <time>2023-02-05T13:29:06Z</time>
      </trkpt>
      <trkpt lat="44.12744" lon="7.25739">
        <ele>1801.1</ele>
        <time>2023-02-05T13:29:07Z</time>
      </trkpt>
      <trkpt lat="44.12744" lon="7.25739">
        <ele>1800.9</ele>
        <time>2023-02-05T13:29:08Z</time>
      </trkpt>
      <trkpt lat="44.12743" lon="7.25739">
        <ele>1800.7</ele>
        <time>2023-02-05T13:29:09Z</time>
      </trkpt>
      <trkpt lat="44.12743" lon="7.2574">
        <ele>1800.5</ele>
        <time>2023-02-05T13:29:10Z</time>
      </trkpt>
      <trkpt lat="44.12743" lon="7.2574">
        <ele>1800.5</ele>
        <time>2023-02-05T13:29:11Z</time>
      </trkpt>
      <trkpt lat="44.12742" lon="7.2574">
        <ele>1800.4</ele>
        <time>2023-02-05T13:29:12Z</time>
      </trkpt>
      <trkpt lat="44.12741" lon="7.25741">
        <ele>1800.4</ele>
        <time>2023-02-05T13:29:13Z</time>
      </trkpt>
      <trkpt lat="44.12741" lon="7.25742">
        <ele>1800.3</ele>
        <time>2023-02-05T13:29:14Z</time>
      </trkpt>
      <trkpt lat="44.1274" lon="7.25742">
        <ele>1800.5</ele>
        <time>2023-02-05T13:29:15Z</time>
      </trkpt>
      <trkpt lat="44.12739" lon="7.25743">
        <ele>1800.5</ele>
        <time>2023-02-05T13:29:16Z</time>
      </trkpt>
      <trkpt lat="44.12738" lon="7.25744">
        <ele>1800.5</ele>
        <time>2023-02-05T13:29:17Z</time>
      </trkpt>
      <trkpt lat="44.12737" lon="7.25744">
        <ele>1800.4</ele>
        <time>2023-02-05T13:29:18Z</time>
      </trkpt>
      <trkpt lat="44.12737" lon="7.25745">
        <ele>1800.3</ele>
        <time>2023-02-05T13:29:19Z</time>
      </trkpt>
      <trkpt lat="44.12736" lon="7.25746">
        <ele>1800.2</ele>
        <time>2023-02-05T13:29:20Z</time>
      </trkpt>
      <trkpt lat="44.12736" lon="7.25746">
        <ele>1800</ele>
        <time>2023-02-05T13:29:21Z</time>
      </trkpt>
      <trkpt lat="44.12736" lon="7.25747">
        <ele>1800</ele>
        <time>2023-02-05T13:29:22Z</time>
      </trkpt>
      <trkpt lat="44.12735" lon="7.25747">
        <ele>1799.9</ele>
        <time>2023-02-05T13:29:23Z</time>
      </trkpt>
      <trkpt lat="44.12733" lon="7.25748">
        <ele>1799.9</ele>
        <time>2023-02-05T13:29:24Z</time>
      </trkpt>
      <trkpt lat="44.12732" lon="7.25749">
        <ele>1799.9</ele>
        <time>2023-02-05T13:29:25Z</time>
      </trkpt>
      <trkpt lat="44.12732" lon="7.2575">
        <ele>1800.1</ele>
        <time>2023-02-05T13:29:26Z</time>
      </trkpt>
      <trkpt lat="44.12731" lon="7.25751">
        <ele>1800.2</ele>
        <time>2023-02-05T13:29:27Z</time>
      </trkpt>
      <trkpt lat="44.12731" lon="7.25751">
        <ele>1800</ele>
        <time>2023-02-05T13:29:28Z</time>
      </trkpt>
      <trkpt lat="44.1273" lon="7.25751">
        <ele>1799.9</ele>
        <time>2023-02-05T13:29:29Z</time>
      </trkpt>
      <trkpt lat="44.12729" lon="7.25752">
        <ele>1800</ele>
        <time>2023-02-05T13:29:30Z</time>
      </trkpt>
      <trkpt lat="44.12729" lon="7.25753">
        <ele>1799.9</ele>
        <time>2023-02-05T13:29:31Z</time>
      </trkpt>
      <trkpt lat="44.12728" lon="7.25754">
        <ele>1800.1</ele>
        <time>2023-02-05T13:29:32Z</time>
      </trkpt>
      <trkpt lat="44.12728" lon="7.25754">
        <ele>1800</ele>
        <time>2023-02-05T13:29:33Z</time>
      </trkpt>
      <trkpt lat="44.12727" lon="7.25754">
        <ele>1800</ele>
        <time>2023-02-05T13:29:34Z</time>
      </trkpt>
      <trkpt lat="44.12726" lon="7.25755">
        <ele>1800</ele>
        <time>2023-02-05T13:29:35Z</time>
      </trkpt>
      <trkpt lat="44.12725" lon="7.25756">
        <ele>1800</ele>
        <time>2023-02-05T13:29:36Z</time>
      </trkpt>
      <trkpt lat="44.12724" lon="7.25757">
        <ele>1800</ele>
        <time>2023-02-05T13:29:37Z</time>
      </trkpt>
      <trkpt lat="44.12724" lon="7.25757">
        <ele>1799.8</ele>
        <time>2023-02-05T13:29:38Z</time>
      </trkpt>
      <trkpt lat="44.12723" lon="7.25757">
        <ele>1799.7</ele>
        <time>2023-02-05T13:29:39Z</time>
      </trkpt>
      <trkpt lat="44.12723" lon="7.25758">
        <ele>1799.5</ele>
        <time>2023-02-05T13:29:40Z</time>
      </trkpt>
      <trkpt lat="44.12722" lon="7.25758">
        <ele>1799.5</ele>
        <time>2023-02-05T13:29:41Z</time>
      </trkpt>
      <trkpt lat="44.12722" lon="7.25759">
        <ele>1799.4</ele>
        <time>2023-02-05T13:29:42Z</time>
      </trkpt>
      <trkpt lat="44.12721" lon="7.25759">
        <ele>1799</ele>
        <time>2023-02-05T13:29:43Z</time>
      </trkpt>
      <trkpt lat="44.1272" lon="7.2576">
        <ele>1798.9</ele>
        <time>2023-02-05T13:29:44Z</time>
      </trkpt>
      <trkpt lat="44.12719" lon="7.2576">
        <ele>1798.7</ele>
        <time>2023-02-05T13:29:45Z</time>
      </trkpt>
      <trkpt lat="44.12719" lon="7.25761">
        <ele>1798.5</ele>
        <time>2023-02-05T13:29:46Z</time>
      </trkpt>
      <trkpt lat="44.12719" lon="7.25762">
        <ele>1798.3</ele>
        <time>2023-02-05T13:29:47Z</time>
      </trkpt>
      <trkpt lat="44.12718" lon="7.25763">
        <ele>1798.1</ele>
        <time>2023-02-05T13:29:48Z</time>
      </trkpt>
      <trkpt lat="44.12717" lon="7.25764">
        <ele>1798</ele>
        <time>2023-02-05T13:29:49Z</time>
      </trkpt>
      <trkpt lat="44.12717" lon="7.25764">
        <ele>1797.7</ele>
        <time>2023-02-05T13:29:50Z</time>
      </trkpt>
      <trkpt lat="44.12716" lon="7.25765">
        <ele>1797.4</ele>
        <time>2023-02-05T13:29:51Z</time>
      </trkpt>
      <trkpt lat="44.12714" lon="7.25766">
        <ele>1797.2</ele>
        <time>2023-02-05T13:29:52Z</time>
      </trkpt>
      <trkpt lat="44.12714" lon="7.25766">
        <ele>1796.8</ele>
        <time>2023-02-05T13:29:53Z</time>
      </trkpt>
      <trkpt lat="44.12713" lon="7.25767">
        <ele>1796.7</ele>
        <time>2023-02-05T13:29:54Z</time>
      </trkpt>
      <trkpt lat="44.12712" lon="7.25768">
        <ele>1796.4</ele>
        <time>2023-02-05T13:29:55Z</time>
      </trkpt>
      <trkpt lat="44.12711" lon="7.25769">
        <ele>1796.4</ele>
        <time>2023-02-05T13:29:56Z</time>
      </trkpt>
      <trkpt lat="44.1271" lon="7.2577">
        <ele>1796.2</ele>
        <time>2023-02-05T13:29:57Z</time>
      </trkpt>
      <trkpt lat="44.12709" lon="7.2577">
        <ele>1796</ele>
        <time>2023-02-05T13:29:58Z</time>
      </trkpt>
      <trkpt lat="44.12709" lon="7.25771">
        <ele>1796.1</ele>
        <time>2023-02-05T13:29:59Z</time>
      </trkpt>
      <trkpt lat="44.12708" lon="7.25772">
        <ele>1795.5</ele>
        <time>2023-02-05T13:30:00Z</time>
      </trkpt>
      <trkpt lat="44.12708" lon="7.25772">
        <ele>1795.2</ele>
        <time>2023-02-05T13:30:01Z</time>
      </trkpt>
      <trkpt lat="44.12709" lon="7.25772">
        <ele>1795.2</ele>
        <time>2023-02-05T13:30:02Z</time>
      </trkpt>
      <trkpt lat="44.12709" lon="7.25772">
        <ele>1795.2</ele>
        <time>2023-02-05T13:30:03Z</time>
      </trkpt>
      <trkpt lat="44.12709" lon="7.25772">
        <ele>1795.3</ele>
        <time>2023-02-05T13:30:04Z</time>
      </trkpt>
      <trkpt lat="44.12709" lon="7.25773">
        <ele>1795.3</ele>
        <time>2023-02-05T13:30:05Z</time>
      </trkpt>
      <trkpt lat="44.12708" lon="7.25773">
        <ele>1795.4</ele>
        <time>2023-02-05T13:30:06Z</time>
      </trkpt>
      <trkpt lat="44.12707" lon="7.25774">
        <ele>1795.1</ele>
        <time>2023-02-05T13:30:07Z</time>
      </trkpt>
      <trkpt lat="44.12707" lon="7.25774">
        <ele>1795.1</ele>
        <time>2023-02-05T13:30:08Z</time>
      </trkpt>
      <trkpt lat="44.12706" lon="7.25774">
        <ele>1795.2</ele>
        <time>2023-02-05T13:30:09Z</time>
      </trkpt>
      <trkpt lat="44.12705" lon="7.25775">
        <ele>1795.1</ele>
        <time>2023-02-05T13:30:10Z</time>
      </trkpt>
      <trkpt lat="44.12704" lon="7.25776">
        <ele>1795.1</ele>
        <time>2023-02-05T13:30:11Z</time>
      </trkpt>
      <trkpt lat="44.12704" lon="7.25776">
        <ele>1795</ele>
        <time>2023-02-05T13:30:12Z</time>
      </trkpt>
      <trkpt lat="44.12704" lon="7.25776">
        <ele>1794.8</ele>
        <time>2023-02-05T13:30:13Z</time>
      </trkpt>
      <trkpt lat="44.12703" lon="7.25777">
        <ele>1794.7</ele>
        <time>2023-02-05T13:30:14Z</time>
      </trkpt>
      <trkpt lat="44.12703" lon="7.25776">
        <ele>1794.6</ele>
        <time>2023-02-05T13:30:15Z</time>
      </trkpt>
      <trkpt lat="44.12702" lon="7.25776">
        <ele>1794.5</ele>
        <time>2023-02-05T13:30:16Z</time>
      </trkpt>
      <trkpt lat="44.12702" lon="7.25776">
        <ele>1794.4</ele>
        <time>2023-02-05T13:30:17Z</time>
      </trkpt>
      <trkpt lat="44.12703" lon="7.25777">
        <ele>1794.5</ele>
        <time>2023-02-05T13:30:18Z</time>
      </trkpt>
      <trkpt lat="44.12702" lon="7.25778">
        <ele>1794.5</ele>
        <time>2023-02-05T13:30:19Z</time>
      </trkpt>
      <trkpt lat="44.12701" lon="7.25778">
        <ele>1794.4</ele>
        <time>2023-02-05T13:30:20Z</time>
      </trkpt>
      <trkpt lat="44.12699" lon="7.25779">
        <ele>1794.4</ele>
        <time>2023-02-05T13:30:21Z</time>
      </trkpt>
      <trkpt lat="44.12698" lon="7.2578">
        <ele>1794.4</ele>
        <time>2023-02-05T13:30:22Z</time>
      </trkpt>
      <trkpt lat="44.12697" lon="7.2578">
        <ele>1793.9</ele>
        <time>2023-02-05T13:30:23Z</time>
      </trkpt>
      <trkpt lat="44.12697" lon="7.25781">
        <ele>1793.9</ele>
        <time>2023-02-05T13:30:24Z</time>
      </trkpt>
      <trkpt lat="44.12697" lon="7.25781">
        <ele>1793.9</ele>
        <time>2023-02-05T13:30:25Z</time>
      </trkpt>
      <trkpt lat="44.12696" lon="7.25782">
        <ele>1793.6</ele>
        <time>2023-02-05T13:30:26Z</time>
      </trkpt>
      <trkpt lat="44.12696" lon="7.25783">
        <ele>1793.5</ele>
        <time>2023-02-05T13:30:27Z</time>
      </trkpt>
      <trkpt lat="44.12695" lon="7.25783">
        <ele>1793.7</ele>
        <time>2023-02-05T13:30:28Z</time>
      </trkpt>
      <trkpt lat="44.12694" lon="7.25784">
        <ele>1793.3</ele>
        <time>2023-02-05T13:30:29Z</time>
      </trkpt>
      <trkpt lat="44.12693" lon="7.25785">
        <ele>1793.4</ele>
        <time>2023-02-05T13:30:30Z</time>
      </trkpt>
      <trkpt lat="44.12692" lon="7.25787">
        <ele>1793.2</ele>
        <time>2023-02-05T13:30:31Z</time>
      </trkpt>
      <trkpt lat="44.12691" lon="7.25788">
        <ele>1793.2</ele>
        <time>2023-02-05T13:30:32Z</time>
      </trkpt>
      <trkpt lat="44.12691" lon="7.25789">
        <ele>1793.1</ele>
        <time>2023-02-05T13:30:33Z</time>
      </trkpt>
      <trkpt lat="44.1269" lon="7.2579">
        <ele>1793.2</ele>
        <time>2023-02-05T13:30:34Z</time>
      </trkpt>
      <trkpt lat="44.12689" lon="7.25792">
        <ele>1793.1</ele>
        <time>2023-02-05T13:30:35Z</time>
      </trkpt>
      <trkpt lat="44.12689" lon="7.25794">
        <ele>1793.1</ele>
        <time>2023-02-05T13:30:36Z</time>
      </trkpt>
      <trkpt lat="44.12688" lon="7.25795">
        <ele>1793.1</ele>
        <time>2023-02-05T13:30:37Z</time>
      </trkpt>
      <trkpt lat="44.12688" lon="7.25796">
        <ele>1792.6</ele>
        <time>2023-02-05T13:30:38Z</time>
      </trkpt>
      <trkpt lat="44.12687" lon="7.25798">
        <ele>1792.8</ele>
        <time>2023-02-05T13:30:39Z</time>
      </trkpt>
      <trkpt lat="44.12687" lon="7.25799">
        <ele>1792.5</ele>
        <time>2023-02-05T13:30:40Z</time>
      </trkpt>
      <trkpt lat="44.12686" lon="7.258">
        <ele>1792.1</ele>
        <time>2023-02-05T13:30:41Z</time>
      </trkpt>
      <trkpt lat="44.12686" lon="7.25802">
        <ele>1792.1</ele>
        <time>2023-02-05T13:30:42Z</time>
      </trkpt>
      <trkpt lat="44.12686" lon="7.25803">
        <ele>1792.1</ele>
        <time>2023-02-05T13:30:43Z</time>
      </trkpt>
      <trkpt lat="44.12686" lon="7.25804">
        <ele>1792.1</ele>
        <time>2023-02-05T13:30:44Z</time>
      </trkpt>
      <trkpt lat="44.12686" lon="7.25805">
        <ele>1792</ele>
        <time>2023-02-05T13:30:45Z</time>
      </trkpt>
      <trkpt lat="44.12686" lon="7.25807">
        <ele>1791.9</ele>
        <time>2023-02-05T13:30:46Z</time>
      </trkpt>
      <trkpt lat="44.12686" lon="7.25808">
        <ele>1791.8</ele>
        <time>2023-02-05T13:30:47Z</time>
      </trkpt>
      <trkpt lat="44.12686" lon="7.2581">
        <ele>1791.7</ele>
        <time>2023-02-05T13:30:48Z</time>
      </trkpt>
      <trkpt lat="44.12686" lon="7.25811">
        <ele>1791.6</ele>
        <time>2023-02-05T13:30:49Z</time>
      </trkpt>
      <trkpt lat="44.12687" lon="7.25813">
        <ele>1791.2</ele>
        <time>2023-02-05T13:30:50Z</time>
      </trkpt>
      <trkpt lat="44.12687" lon="7.25814">
        <ele>1790.8</ele>
        <time>2023-02-05T13:30:51Z</time>
      </trkpt>
      <trkpt lat="44.12688" lon="7.25815">
        <ele>1790.5</ele>
        <time>2023-02-05T13:30:52Z</time>
      </trkpt>
      <trkpt lat="44.12688" lon="7.25817">
        <ele>1790.5</ele>
        <time>2023-02-05T13:30:53Z</time>
      </trkpt>
      <trkpt lat="44.12688" lon="7.25818">
        <ele>1790.6</ele>
        <time>2023-02-05T13:30:54Z</time>
      </trkpt>
      <trkpt lat="44.12689" lon="7.25819">
        <ele>1790.5</ele>
        <time>2023-02-05T13:30:55Z</time>
      </trkpt>
      <trkpt lat="44.12689" lon="7.2582">
        <ele>1790.5</ele>
        <time>2023-02-05T13:30:56Z</time>
      </trkpt>
      <trkpt lat="44.1269" lon="7.25821">
        <ele>1790.5</ele>
        <time>2023-02-05T13:30:57Z</time>
      </trkpt>
      <trkpt lat="44.12689" lon="7.25822">
        <ele>1790.5</ele>
        <time>2023-02-05T13:30:58Z</time>
      </trkpt>
      <trkpt lat="44.1269" lon="7.25823">
        <ele>1790.6</ele>
        <time>2023-02-05T13:30:59Z</time>
      </trkpt>
      <trkpt lat="44.1269" lon="7.25824">
        <ele>1790.5</ele>
        <time>2023-02-05T13:31:00Z</time>
      </trkpt>
      <trkpt lat="44.1269" lon="7.25825">
        <ele>1790.3</ele>
        <time>2023-02-05T13:31:01Z</time>
      </trkpt>
      <trkpt lat="44.12691" lon="7.25826">
        <ele>1790.1</ele>
        <time>2023-02-05T13:31:02Z</time>
      </trkpt>
      <trkpt lat="44.12692" lon="7.25826">
        <ele>1790</ele>
        <time>2023-02-05T13:31:03Z</time>
      </trkpt>
      <trkpt lat="44.12693" lon="7.25827">
        <ele>1790</ele>
        <time>2023-02-05T13:31:04Z</time>
      </trkpt>
      <trkpt lat="44.12693" lon="7.25828">
        <ele>1789.8</ele>
        <time>2023-02-05T13:31:05Z</time>
      </trkpt>
      <trkpt lat="44.12693" lon="7.25829">
        <ele>1789.5</ele>
        <time>2023-02-05T13:31:06Z</time>
      </trkpt>
      <trkpt lat="44.12694" lon="7.2583">
        <ele>1789.3</ele>
        <time>2023-02-05T13:31:07Z</time>
      </trkpt>
      <trkpt lat="44.12695" lon="7.25831">
        <ele>1789.2</ele>
        <time>2023-02-05T13:31:08Z</time>
      </trkpt>
      <trkpt lat="44.12695" lon="7.25832">
        <ele>1789.2</ele>
        <time>2023-02-05T13:31:09Z</time>
      </trkpt>
      <trkpt lat="44.12696" lon="7.25832">
        <ele>1789</ele>
        <time>2023-02-05T13:31:10Z</time>
      </trkpt>
      <trkpt lat="44.12696" lon="7.25833">
        <ele>1789</ele>
        <time>2023-02-05T13:31:11Z</time>
      </trkpt>
      <trkpt lat="44.12697" lon="7.25834">
        <ele>1788.9</ele>
        <time>2023-02-05T13:31:12Z</time>
      </trkpt>
      <trkpt lat="44.12697" lon="7.25835">
        <ele>1788.6</ele>
        <time>2023-02-05T13:31:13Z</time>
      </trkpt>
      <trkpt lat="44.12698" lon="7.25836">
        <ele>1788.3</ele>
        <time>2023-02-05T13:31:14Z</time>
      </trkpt>
      <trkpt lat="44.12699" lon="7.25837">
        <ele>1788.1</ele>
        <time>2023-02-05T13:31:15Z</time>
      </trkpt>
      <trkpt lat="44.12699" lon="7.25838">
        <ele>1788</ele>
        <time>2023-02-05T13:31:16Z</time>
      </trkpt>
      <trkpt lat="44.127" lon="7.2584">
        <ele>1787.7</ele>
        <time>2023-02-05T13:31:17Z</time>
      </trkpt>
      <trkpt lat="44.12701" lon="7.25841">
        <ele>1787.6</ele>
        <time>2023-02-05T13:31:18Z</time>
      </trkpt>
      <trkpt lat="44.12702" lon="7.25842">
        <ele>1787.4</ele>
        <time>2023-02-05T13:31:19Z</time>
      </trkpt>
      <trkpt lat="44.12702" lon="7.25843">
        <ele>1787.4</ele>
        <time>2023-02-05T13:31:20Z</time>
      </trkpt>
      <trkpt lat="44.12702" lon="7.25844">
        <ele>1787.3</ele>
        <time>2023-02-05T13:31:21Z</time>
      </trkpt>
      <trkpt lat="44.12702" lon="7.25845">
        <ele>1787.3</ele>
        <time>2023-02-05T13:31:22Z</time>
      </trkpt>
      <trkpt lat="44.12703" lon="7.25846">
        <ele>1787.2</ele>
        <time>2023-02-05T13:31:23Z</time>
      </trkpt>
      <trkpt lat="44.12704" lon="7.25848">
        <ele>1786.9</ele>
        <time>2023-02-05T13:31:24Z</time>
      </trkpt>
      <trkpt lat="44.12704" lon="7.25849">
        <ele>1786.7</ele>
        <time>2023-02-05T13:31:25Z</time>
      </trkpt>
      <trkpt lat="44.12704" lon="7.25851">
        <ele>1786.6</ele>
        <time>2023-02-05T13:31:26Z</time>
      </trkpt>
      <trkpt lat="44.12705" lon="7.25852">
        <ele>1786.9</ele>
        <time>2023-02-05T13:31:27Z</time>
      </trkpt>
      <trkpt lat="44.12705" lon="7.25853">
        <ele>1786.9</ele>
        <time>2023-02-05T13:31:28Z</time>
      </trkpt>
      <trkpt lat="44.12705" lon="7.25854">
        <ele>1786.7</ele>
        <time>2023-02-05T13:31:29Z</time>
      </trkpt>
      <trkpt lat="44.12705" lon="7.25855">
        <ele>1786.7</ele>
        <time>2023-02-05T13:31:30Z</time>
      </trkpt>
      <trkpt lat="44.12705" lon="7.25855">
        <ele>1786.6</ele>
        <time>2023-02-05T13:31:31Z</time>
      </trkpt>
      <trkpt lat="44.12705" lon="7.25855">
        <ele>1786.5</ele>
        <time>2023-02-05T13:31:32Z</time>
      </trkpt>
      <trkpt lat="44.12705" lon="7.25855">
        <ele>1786.4</ele>
        <time>2023-02-05T13:31:33Z</time>
      </trkpt>
      <trkpt lat="44.12704" lon="7.25857">
        <ele>1786.1</ele>
        <time>2023-02-05T13:31:34Z</time>
      </trkpt>
      <trkpt lat="44.12704" lon="7.25857">
        <ele>1786</ele>
        <time>2023-02-05T13:31:35Z</time>
      </trkpt>
      <trkpt lat="44.12704" lon="7.25858">
        <ele>1785.9</ele>
        <time>2023-02-05T13:31:36Z</time>
      </trkpt>
      <trkpt lat="44.12703" lon="7.25859">
        <ele>1785.7</ele>
        <time>2023-02-05T13:31:37Z</time>
      </trkpt>
      <trkpt lat="44.12703" lon="7.25859">
        <ele>1785.1</ele>
        <time>2023-02-05T13:31:38Z</time>
      </trkpt>
      <trkpt lat="44.12703" lon="7.2586">
        <ele>1785.1</ele>
        <time>2023-02-05T13:31:39Z</time>
      </trkpt>
      <trkpt lat="44.12703" lon="7.2586">
        <ele>1785.1</ele>
        <time>2023-02-05T13:31:40Z</time>
      </trkpt>
      <trkpt lat="44.12702" lon="7.25861">
        <ele>1785.1</ele>
        <time>2023-02-05T13:31:41Z</time>
      </trkpt>
      <trkpt lat="44.12701" lon="7.25862">
        <ele>1785.2</ele>
        <time>2023-02-05T13:31:42Z</time>
      </trkpt>
      <trkpt lat="44.12701" lon="7.25862">
        <ele>1785.3</ele>
        <time>2023-02-05T13:31:43Z</time>
      </trkpt>
      <trkpt lat="44.127" lon="7.25863">
        <ele>1785.4</ele>
        <time>2023-02-05T13:31:44Z</time>
      </trkpt>
      <trkpt lat="44.12699" lon="7.25863">
        <ele>1785.2</ele>
        <time>2023-02-05T13:31:45Z</time>
      </trkpt>
      <trkpt lat="44.12699" lon="7.25864">
        <ele>1785.1</ele>
        <time>2023-02-05T13:31:46Z</time>
      </trkpt>
      <trkpt lat="44.12699" lon="7.25865">
        <ele>1784.9</ele>
        <time>2023-02-05T13:31:47Z</time>
      </trkpt>
      <trkpt lat="44.12699" lon="7.25866">
        <ele>1784.9</ele>
        <time>2023-02-05T13:31:48Z</time>
      </trkpt>
      <trkpt lat="44.12699" lon="7.25867">
        <ele>1784.8</ele>
        <time>2023-02-05T13:31:49Z</time>
      </trkpt>
      <trkpt lat="44.12698" lon="7.25868">
        <ele>1784.8</ele>
        <time>2023-02-05T13:31:50Z</time>
      </trkpt>
      <trkpt lat="44.12697" lon="7.25869">
        <ele>1784.8</ele>
        <time>2023-02-05T13:31:51Z</time>
      </trkpt>
      <trkpt lat="44.12697" lon="7.25869">
        <ele>1784.7</ele>
        <time>2023-02-05T13:31:52Z</time>
      </trkpt>
      <trkpt lat="44.12697" lon="7.2587">
        <ele>1784.7</ele>
        <time>2023-02-05T13:31:53Z</time>
      </trkpt>
      <trkpt lat="44.12696" lon="7.25871">
        <ele>1784.7</ele>
        <time>2023-02-05T13:31:54Z</time>
      </trkpt>
      <trkpt lat="44.12697" lon="7.25871">
        <ele>1784.7</ele>
        <time>2023-02-05T13:31:55Z</time>
      </trkpt>
      <trkpt lat="44.12696" lon="7.25872">
        <ele>1784.7</ele>
        <time>2023-02-05T13:31:56Z</time>
      </trkpt>
      <trkpt lat="44.12696" lon="7.25875">
        <ele>1784.7</ele>
        <time>2023-02-05T13:31:57Z</time>
      </trkpt>
      <trkpt lat="44.12696" lon="7.25876">
        <ele>1784.5</ele>
        <time>2023-02-05T13:31:58Z</time>
      </trkpt>
      <trkpt lat="44.12696" lon="7.25877">
        <ele>1784.5</ele>
        <time>2023-02-05T13:31:59Z</time>
      </trkpt>
      <trkpt lat="44.12696" lon="7.25878">
        <ele>1784.5</ele>
        <time>2023-02-05T13:32:00Z</time>
      </trkpt>
      <trkpt lat="44.12694" lon="7.2588">
        <ele>1784.3</ele>
        <time>2023-02-05T13:32:01Z</time>
      </trkpt>
      <trkpt lat="44.12695" lon="7.25881">
        <ele>1783.9</ele>
        <time>2023-02-05T13:32:02Z</time>
      </trkpt>
      <trkpt lat="44.12694" lon="7.25881">
        <ele>1783.9</ele>
        <time>2023-02-05T13:32:03Z</time>
      </trkpt>
      <trkpt lat="44.12694" lon="7.25882">
        <ele>1783.3</ele>
        <time>2023-02-05T13:32:04Z</time>
      </trkpt>
      <trkpt lat="44.12694" lon="7.25883">
        <ele>1783.2</ele>
        <time>2023-02-05T13:32:05Z</time>
      </trkpt>
      <trkpt lat="44.12694" lon="7.25884">
        <ele>1783</ele>
        <time>2023-02-05T13:32:06Z</time>
      </trkpt>
      <trkpt lat="44.12693" lon="7.25885">
        <ele>1782.9</ele>
        <time>2023-02-05T13:32:07Z</time>
      </trkpt>
      <trkpt lat="44.12693" lon="7.25886">
        <ele>1782.9</ele>
        <time>2023-02-05T13:32:08Z</time>
      </trkpt>
      <trkpt lat="44.12693" lon="7.25888">
        <ele>1782.8</ele>
        <time>2023-02-05T13:32:09Z</time>
      </trkpt>
      <trkpt lat="44.12693" lon="7.25889">
        <ele>1782.7</ele>
        <time>2023-02-05T13:32:10Z</time>
      </trkpt>
      <trkpt lat="44.12693" lon="7.25892">
        <ele>1782.3</ele>
        <time>2023-02-05T13:32:11Z</time>
      </trkpt>
      <trkpt lat="44.12694" lon="7.25895">
        <ele>1782.3</ele>
        <time>2023-02-05T13:32:12Z</time>
      </trkpt>
      <trkpt lat="44.12694" lon="7.25898">
        <ele>1782.4</ele>
        <time>2023-02-05T13:32:13Z</time>
      </trkpt>
      <trkpt lat="44.12692" lon="7.259">
        <ele>1782.2</ele>
        <time>2023-02-05T13:32:14Z</time>
      </trkpt>
      <trkpt lat="44.12692" lon="7.25901">
        <ele>1782.2</ele>
        <time>2023-02-05T13:32:15Z</time>
      </trkpt>
      <trkpt lat="44.12692" lon="7.25902">
        <ele>1782.4</ele>
        <time>2023-02-05T13:32:16Z</time>
      </trkpt>
      <trkpt lat="44.12691" lon="7.25904">
        <ele>1782.5</ele>
        <time>2023-02-05T13:32:17Z</time>
      </trkpt>
      <trkpt lat="44.12691" lon="7.25906">
        <ele>1782.4</ele>
        <time>2023-02-05T13:32:18Z</time>
      </trkpt>
      <trkpt lat="44.12691" lon="7.25907">
        <ele>1782.2</ele>
        <time>2023-02-05T13:32:19Z</time>
      </trkpt>
      <trkpt lat="44.1269" lon="7.25909">
        <ele>1782</ele>
        <time>2023-02-05T13:32:20Z</time>
      </trkpt>
      <trkpt lat="44.12689" lon="7.25911">
        <ele>1781.9</ele>
        <time>2023-02-05T13:32:21Z</time>
      </trkpt>
      <trkpt lat="44.12689" lon="7.25913">
        <ele>1781.9</ele>
        <time>2023-02-05T13:32:22Z</time>
      </trkpt>
      <trkpt lat="44.1269" lon="7.25915">
        <ele>1781.8</ele>
        <time>2023-02-05T13:32:23Z</time>
      </trkpt>
      <trkpt lat="44.1269" lon="7.25917">
        <ele>1781.8</ele>
        <time>2023-02-05T13:32:24Z</time>
      </trkpt>
      <trkpt lat="44.12691" lon="7.25919">
        <ele>1781.7</ele>
        <time>2023-02-05T13:32:25Z</time>
      </trkpt>
      <trkpt lat="44.12691" lon="7.25921">
        <ele>1781.6</ele>
        <time>2023-02-05T13:32:26Z</time>
      </trkpt>
      <trkpt lat="44.12691" lon="7.25923">
        <ele>1781.4</ele>
        <time>2023-02-05T13:32:27Z</time>
      </trkpt>
      <trkpt lat="44.12691" lon="7.25925">
        <ele>1781.3</ele>
        <time>2023-02-05T13:32:28Z</time>
      </trkpt>
      <trkpt lat="44.1269" lon="7.25926">
        <ele>1780.5</ele>
        <time>2023-02-05T13:32:29Z</time>
      </trkpt>
      <trkpt lat="44.1269" lon="7.25927">
        <ele>1780.6</ele>
        <time>2023-02-05T13:32:30Z</time>
      </trkpt>
      <trkpt lat="44.1269" lon="7.25929">
        <ele>1780.7</ele>
        <time>2023-02-05T13:32:31Z</time>
      </trkpt>
      <trkpt lat="44.1269" lon="7.2593">
        <ele>1780.4</ele>
        <time>2023-02-05T13:32:32Z</time>
      </trkpt>
      <trkpt lat="44.1269" lon="7.25932">
        <ele>1780.3</ele>
        <time>2023-02-05T13:32:33Z</time>
      </trkpt>
      <trkpt lat="44.1269" lon="7.25934">
        <ele>1780.4</ele>
        <time>2023-02-05T13:32:34Z</time>
      </trkpt>
      <trkpt lat="44.12691" lon="7.25935">
        <ele>1780</ele>
        <time>2023-02-05T13:32:35Z</time>
      </trkpt>
      <trkpt lat="44.12691" lon="7.25936">
        <ele>1779.9</ele>
        <time>2023-02-05T13:32:36Z</time>
      </trkpt>
      <trkpt lat="44.12691" lon="7.25938">
        <ele>1779.8</ele>
        <time>2023-02-05T13:32:37Z</time>
      </trkpt>
      <trkpt lat="44.12691" lon="7.2594">
        <ele>1779.8</ele>
        <time>2023-02-05T13:32:38Z</time>
      </trkpt>
      <trkpt lat="44.12691" lon="7.25941">
        <ele>1779.8</ele>
        <time>2023-02-05T13:32:39Z</time>
      </trkpt>
      <trkpt lat="44.12692" lon="7.25942">
        <ele>1780.1</ele>
        <time>2023-02-05T13:32:40Z</time>
      </trkpt>
      <trkpt lat="44.12692" lon="7.25944">
        <ele>1780.1</ele>
        <time>2023-02-05T13:32:41Z</time>
      </trkpt>
      <trkpt lat="44.12693" lon="7.25945">
        <ele>1780.1</ele>
        <time>2023-02-05T13:32:42Z</time>
      </trkpt>
      <trkpt lat="44.12694" lon="7.25947">
        <ele>1780</ele>
        <time>2023-02-05T13:32:43Z</time>
      </trkpt>
      <trkpt lat="44.12694" lon="7.25948">
        <ele>1779.8</ele>
        <time>2023-02-05T13:32:44Z</time>
      </trkpt>
      <trkpt lat="44.12695" lon="7.2595">
        <ele>1779.8</ele>
        <time>2023-02-05T13:32:45Z</time>
      </trkpt>
      <trkpt lat="44.12696" lon="7.25951">
        <ele>1779.7</ele>
        <time>2023-02-05T13:32:46Z</time>
      </trkpt>
      <trkpt lat="44.12698" lon="7.25952">
        <ele>1779.8</ele>
        <time>2023-02-05T13:32:47Z</time>
      </trkpt>
      <trkpt lat="44.12697" lon="7.25955">
        <ele>1779.9</ele>
        <time>2023-02-05T13:32:48Z</time>
      </trkpt>
      <trkpt lat="44.12698" lon="7.25957">
        <ele>1779.7</ele>
        <time>2023-02-05T13:32:49Z</time>
      </trkpt>
      <trkpt lat="44.12699" lon="7.25957">
        <ele>1779.3</ele>
        <time>2023-02-05T13:32:50Z</time>
      </trkpt>
      <trkpt lat="44.127" lon="7.25958">
        <ele>1779.1</ele>
        <time>2023-02-05T13:32:51Z</time>
      </trkpt>
      <trkpt lat="44.127" lon="7.25959">
        <ele>1779</ele>
        <time>2023-02-05T13:32:52Z</time>
      </trkpt>
      <trkpt lat="44.127" lon="7.25959">
        <ele>1779.1</ele>
        <time>2023-02-05T13:32:53Z</time>
      </trkpt>
      <trkpt lat="44.12701" lon="7.2596">
        <ele>1779.2</ele>
        <time>2023-02-05T13:32:54Z</time>
      </trkpt>
      <trkpt lat="44.12702" lon="7.25961">
        <ele>1779.2</ele>
        <time>2023-02-05T13:32:55Z</time>
      </trkpt>
      <trkpt lat="44.12702" lon="7.25962">
        <ele>1779</ele>
        <time>2023-02-05T13:32:56Z</time>
      </trkpt>
      <trkpt lat="44.12702" lon="7.25963">
        <ele>1778.8</ele>
        <time>2023-02-05T13:32:57Z</time>
      </trkpt>
      <trkpt lat="44.12704" lon="7.25963">
        <ele>1778.6</ele>
        <time>2023-02-05T13:32:58Z</time>
      </trkpt>
      <trkpt lat="44.12705" lon="7.25964">
        <ele>1778.5</ele>
        <time>2023-02-05T13:32:59Z</time>
      </trkpt>
      <trkpt lat="44.12706" lon="7.25965">
        <ele>1778.5</ele>
        <time>2023-02-05T13:33:00Z</time>
      </trkpt>
      <trkpt lat="44.12707" lon="7.25965">
        <ele>1778.4</ele>
        <time>2023-02-05T13:33:01Z</time>
      </trkpt>
      <trkpt lat="44.12708" lon="7.25966">
        <ele>1778.4</ele>
        <time>2023-02-05T13:33:02Z</time>
      </trkpt>
      <trkpt lat="44.12709" lon="7.25966">
        <ele>1778.2</ele>
        <time>2023-02-05T13:33:03Z</time>
      </trkpt>
      <trkpt lat="44.1271" lon="7.25966">
        <ele>1778</ele>
        <time>2023-02-05T13:33:04Z</time>
      </trkpt>
      <trkpt lat="44.1271" lon="7.25967">
        <ele>1777.6</ele>
        <time>2023-02-05T13:33:05Z</time>
      </trkpt>
      <trkpt lat="44.1271" lon="7.25968">
        <ele>1777.5</ele>
        <time>2023-02-05T13:33:06Z</time>
      </trkpt>
      <trkpt lat="44.12711" lon="7.25969">
        <ele>1777.5</ele>
        <time>2023-02-05T13:33:07Z</time>
      </trkpt>
      <trkpt lat="44.12712" lon="7.2597">
        <ele>1777.3</ele>
        <time>2023-02-05T13:33:08Z</time>
      </trkpt>
      <trkpt lat="44.12712" lon="7.25971">
        <ele>1777</ele>
        <time>2023-02-05T13:33:09Z</time>
      </trkpt>
      <trkpt lat="44.12713" lon="7.25972">
        <ele>1776.8</ele>
        <time>2023-02-05T13:33:10Z</time>
      </trkpt>
      <trkpt lat="44.12714" lon="7.25972">
        <ele>1776.6</ele>
        <time>2023-02-05T13:33:11Z</time>
      </trkpt>
      <trkpt lat="44.12715" lon="7.25973">
        <ele>1776.5</ele>
        <time>2023-02-05T13:33:12Z</time>
      </trkpt>
      <trkpt lat="44.12716" lon="7.25974">
        <ele>1776.4</ele>
        <time>2023-02-05T13:33:13Z</time>
      </trkpt>
      <trkpt lat="44.12717" lon="7.25975">
        <ele>1776.2</ele>
        <time>2023-02-05T13:33:14Z</time>
      </trkpt>
      <trkpt lat="44.12718" lon="7.25976">
        <ele>1776</ele>
        <time>2023-02-05T13:33:15Z</time>
      </trkpt>
      <trkpt lat="44.12718" lon="7.25977">
        <ele>1775.9</ele>
        <time>2023-02-05T13:33:16Z</time>
      </trkpt>
      <trkpt lat="44.12719" lon="7.25977">
        <ele>1775.8</ele>
        <time>2023-02-05T13:33:17Z</time>
      </trkpt>
      <trkpt lat="44.12719" lon="7.25978">
        <ele>1775.7</ele>
        <time>2023-02-05T13:33:18Z</time>
      </trkpt>
      <trkpt lat="44.1272" lon="7.25978">
        <ele>1775.5</ele>
        <time>2023-02-05T13:33:19Z</time>
      </trkpt>
      <trkpt lat="44.12721" lon="7.25979">
        <ele>1775.3</ele>
        <time>2023-02-05T13:33:20Z</time>
      </trkpt>
      <trkpt lat="44.12722" lon="7.2598">
        <ele>1775.1</ele>
        <time>2023-02-05T13:33:21Z</time>
      </trkpt>
      <trkpt lat="44.12723" lon="7.25981">
        <ele>1774.9</ele>
        <time>2023-02-05T13:33:22Z</time>
      </trkpt>
      <trkpt lat="44.12724" lon="7.25982">
        <ele>1774.7</ele>
        <time>2023-02-05T13:33:23Z</time>
      </trkpt>
      <trkpt lat="44.12724" lon="7.25983">
        <ele>1774.3</ele>
        <time>2023-02-05T13:33:24Z</time>
      </trkpt>
      <trkpt lat="44.12725" lon="7.25984">
        <ele>1774.4</ele>
        <time>2023-02-05T13:33:25Z</time>
      </trkpt>
      <trkpt lat="44.12726" lon="7.25986">
        <ele>1774.3</ele>
        <time>2023-02-05T13:33:26Z</time>
      </trkpt>
      <trkpt lat="44.12727" lon="7.25987">
        <ele>1774.1</ele>
        <time>2023-02-05T13:33:27Z</time>
      </trkpt>
      <trkpt lat="44.12728" lon="7.25988">
        <ele>1773.8</ele>
        <time>2023-02-05T13:33:28Z</time>
      </trkpt>
      <trkpt lat="44.12728" lon="7.25989">
        <ele>1773.8</ele>
        <time>2023-02-05T13:33:29Z</time>
      </trkpt>
      <trkpt lat="44.12729" lon="7.25989">
        <ele>1773.7</ele>
        <time>2023-02-05T13:33:30Z</time>
      </trkpt>
      <trkpt lat="44.1273" lon="7.25989">
        <ele>1773.6</ele>
        <time>2023-02-05T13:33:31Z</time>
      </trkpt>
      <trkpt lat="44.12731" lon="7.2599">
        <ele>1773.3</ele>
        <time>2023-02-05T13:33:32Z</time>
      </trkpt>
      <trkpt lat="44.12732" lon="7.25991">
        <ele>1773.3</ele>
        <time>2023-02-05T13:33:33Z</time>
      </trkpt>
      <trkpt lat="44.12733" lon="7.25992">
        <ele>1773.1</ele>
        <time>2023-02-05T13:33:34Z</time>
      </trkpt>
      <trkpt lat="44.12733" lon="7.25992">
        <ele>1773.1</ele>
        <time>2023-02-05T13:33:35Z</time>
      </trkpt>
      <trkpt lat="44.12734" lon="7.25993">
        <ele>1772.8</ele>
        <time>2023-02-05T13:33:36Z</time>
      </trkpt>
      <trkpt lat="44.12735" lon="7.25993">
        <ele>1772.6</ele>
        <time>2023-02-05T13:33:37Z</time>
      </trkpt>
      <trkpt lat="44.12735" lon="7.25994">
        <ele>1772.3</ele>
        <time>2023-02-05T13:33:38Z</time>
      </trkpt>
      <trkpt lat="44.12735" lon="7.25995">
        <ele>1772.3</ele>
        <time>2023-02-05T13:33:39Z</time>
      </trkpt>
      <trkpt lat="44.12736" lon="7.25996">
        <ele>1772.1</ele>
        <time>2023-02-05T13:33:40Z</time>
      </trkpt>
      <trkpt lat="44.12737" lon="7.25997">
        <ele>1772.1</ele>
        <time>2023-02-05T13:33:41Z</time>
      </trkpt>
      <trkpt lat="44.12738" lon="7.25998">
        <ele>1771.9</ele>
        <time>2023-02-05T13:33:42Z</time>
      </trkpt>
      <trkpt lat="44.12738" lon="7.25999">
        <ele>1771.9</ele>
        <time>2023-02-05T13:33:43Z</time>
      </trkpt>
      <trkpt lat="44.12738" lon="7.26001">
        <ele>1771.7</ele>
        <time>2023-02-05T13:33:44Z</time>
      </trkpt>
      <trkpt lat="44.12739" lon="7.26001">
        <ele>1771.4</ele>
        <time>2023-02-05T13:33:45Z</time>
      </trkpt>
      <trkpt lat="44.12739" lon="7.26002">
        <ele>1771.3</ele>
        <time>2023-02-05T13:33:46Z</time>
      </trkpt>
      <trkpt lat="44.1274" lon="7.26003">
        <ele>1771.2</ele>
        <time>2023-02-05T13:33:47Z</time>
      </trkpt>
      <trkpt lat="44.12741" lon="7.26004">
        <ele>1771.2</ele>
        <time>2023-02-05T13:33:48Z</time>
      </trkpt>
      <trkpt lat="44.12741" lon="7.26005">
        <ele>1770.7</ele>
        <time>2023-02-05T13:33:49Z</time>
      </trkpt>
      <trkpt lat="44.12741" lon="7.26007">
        <ele>1770.6</ele>
        <time>2023-02-05T13:33:50Z</time>
      </trkpt>
      <trkpt lat="44.12741" lon="7.26008">
        <ele>1770.3</ele>
        <time>2023-02-05T13:33:51Z</time>
      </trkpt>
      <trkpt lat="44.12741" lon="7.26008">
        <ele>1770.1</ele>
        <time>2023-02-05T13:33:52Z</time>
      </trkpt>
      <trkpt lat="44.12741" lon="7.26009">
        <ele>1769.9</ele>
        <time>2023-02-05T13:33:53Z</time>
      </trkpt>
      <trkpt lat="44.12742" lon="7.26011">
        <ele>1770.1</ele>
        <time>2023-02-05T13:33:54Z</time>
      </trkpt>
      <trkpt lat="44.12742" lon="7.26012">
        <ele>1769.7</ele>
        <time>2023-02-05T13:33:55Z</time>
      </trkpt>
      <trkpt lat="44.12742" lon="7.26013">
        <ele>1769.7</ele>
        <time>2023-02-05T13:33:56Z</time>
      </trkpt>
      <trkpt lat="44.12743" lon="7.26013">
        <ele>1769.9</ele>
        <time>2023-02-05T13:33:57Z</time>
      </trkpt>
      <trkpt lat="44.12743" lon="7.26014">
        <ele>1769.9</ele>
        <time>2023-02-05T13:33:58Z</time>
      </trkpt>
      <trkpt lat="44.12743" lon="7.26015">
        <ele>1769.9</ele>
        <time>2023-02-05T13:33:59Z</time>
      </trkpt>
      <trkpt lat="44.12744" lon="7.26015">
        <ele>1769.8</ele>
        <time>2023-02-05T13:34:00Z</time>
      </trkpt>
      <trkpt lat="44.12744" lon="7.26016">
        <ele>1769.7</ele>
        <time>2023-02-05T13:34:01Z</time>
      </trkpt>
      <trkpt lat="44.12744" lon="7.26017">
        <ele>1769.7</ele>
        <time>2023-02-05T13:34:02Z</time>
      </trkpt>
      <trkpt lat="44.12745" lon="7.26018">
        <ele>1769.6</ele>
        <time>2023-02-05T13:34:03Z</time>
      </trkpt>
      <trkpt lat="44.12745" lon="7.26019">
        <ele>1769.6</ele>
        <time>2023-02-05T13:34:04Z</time>
      </trkpt>
      <trkpt lat="44.12746" lon="7.2602">
        <ele>1769.6</ele>
        <time>2023-02-05T13:34:05Z</time>
      </trkpt>
      <trkpt lat="44.12747" lon="7.26022">
        <ele>1769.7</ele>
        <time>2023-02-05T13:34:06Z</time>
      </trkpt>
      <trkpt lat="44.12747" lon="7.26023">
        <ele>1769.7</ele>
        <time>2023-02-05T13:34:07Z</time>
      </trkpt>
      <trkpt lat="44.12747" lon="7.26025">
        <ele>1769.6</ele>
        <time>2023-02-05T13:34:08Z</time>
      </trkpt>
      <trkpt lat="44.12747" lon="7.26026">
        <ele>1769.5</ele>
        <time>2023-02-05T13:34:09Z</time>
      </trkpt>
      <trkpt lat="44.12747" lon="7.26027">
        <ele>1769.1</ele>
        <time>2023-02-05T13:34:10Z</time>
      </trkpt>
      <trkpt lat="44.12748" lon="7.26027">
        <ele>1768.8</ele>
        <time>2023-02-05T13:34:11Z</time>
      </trkpt>
      <trkpt lat="44.12749" lon="7.26028">
        <ele>1768.7</ele>
        <time>2023-02-05T13:34:12Z</time>
      </trkpt>
      <trkpt lat="44.12749" lon="7.26029">
        <ele>1768.6</ele>
        <time>2023-02-05T13:34:13Z</time>
      </trkpt>
      <trkpt lat="44.12749" lon="7.26031">
        <ele>1768.6</ele>
        <time>2023-02-05T13:34:14Z</time>
      </trkpt>
      <trkpt lat="44.1275" lon="7.26032">
        <ele>1768.6</ele>
        <time>2023-02-05T13:34:15Z</time>
      </trkpt>
      <trkpt lat="44.12751" lon="7.26032">
        <ele>1768.4</ele>
        <time>2023-02-05T13:34:16Z</time>
      </trkpt>
      <trkpt lat="44.12751" lon="7.26034">
        <ele>1768.5</ele>
        <time>2023-02-05T13:34:17Z</time>
      </trkpt>
      <trkpt lat="44.12751" lon="7.26035">
        <ele>1768.5</ele>
        <time>2023-02-05T13:34:18Z</time>
      </trkpt>
      <trkpt lat="44.12751" lon="7.26037">
        <ele>1768.3</ele>
        <time>2023-02-05T13:34:19Z</time>
      </trkpt>
      <trkpt lat="44.12751" lon="7.26038">
        <ele>1768.3</ele>
        <time>2023-02-05T13:34:20Z</time>
      </trkpt>
      <trkpt lat="44.12751" lon="7.26039">
        <ele>1768.4</ele>
        <time>2023-02-05T13:34:21Z</time>
      </trkpt>
      <trkpt lat="44.12751" lon="7.2604">
        <ele>1768.4</ele>
        <time>2023-02-05T13:34:22Z</time>
      </trkpt>
      <trkpt lat="44.12751" lon="7.26041">
        <ele>1768.3</ele>
        <time>2023-02-05T13:34:23Z</time>
      </trkpt>
      <trkpt lat="44.12751" lon="7.26042">
        <ele>1768.1</ele>
        <time>2023-02-05T13:34:24Z</time>
      </trkpt>
      <trkpt lat="44.12752" lon="7.26044">
        <ele>1768.1</ele>
        <time>2023-02-05T13:34:25Z</time>
      </trkpt>
      <trkpt lat="44.12752" lon="7.26045">
        <ele>1767.9</ele>
        <time>2023-02-05T13:34:26Z</time>
      </trkpt>
      <trkpt lat="44.12752" lon="7.26045">
        <ele>1767.7</ele>
        <time>2023-02-05T13:34:27Z</time>
      </trkpt>
      <trkpt lat="44.12752" lon="7.26047">
        <ele>1767.6</ele>
        <time>2023-02-05T13:34:28Z</time>
      </trkpt>
      <trkpt lat="44.12752" lon="7.26048">
        <ele>1767.4</ele>
        <time>2023-02-05T13:34:29Z</time>
      </trkpt>
      <trkpt lat="44.12752" lon="7.2605">
        <ele>1767.3</ele>
        <time>2023-02-05T13:34:30Z</time>
      </trkpt>
      <trkpt lat="44.12753" lon="7.26052">
        <ele>1767.2</ele>
        <time>2023-02-05T13:34:31Z</time>
      </trkpt>
      <trkpt lat="44.12754" lon="7.26053">
        <ele>1766.9</ele>
        <time>2023-02-05T13:34:32Z</time>
      </trkpt>
      <trkpt lat="44.12754" lon="7.26055">
        <ele>1766.9</ele>
        <time>2023-02-05T13:34:33Z</time>
      </trkpt>
      <trkpt lat="44.12755" lon="7.26057">
        <ele>1766.9</ele>
        <time>2023-02-05T13:34:34Z</time>
      </trkpt>
      <trkpt lat="44.12756" lon="7.26059">
        <ele>1766.4</ele>
        <time>2023-02-05T13:34:35Z</time>
      </trkpt>
      <trkpt lat="44.12756" lon="7.2606">
        <ele>1766.3</ele>
        <time>2023-02-05T13:34:36Z</time>
      </trkpt>
      <trkpt lat="44.12756" lon="7.26061">
        <ele>1766.3</ele>
        <time>2023-02-05T13:34:37Z</time>
      </trkpt>
      <trkpt lat="44.12756" lon="7.26062">
        <ele>1766.2</ele>
        <time>2023-02-05T13:34:38Z</time>
      </trkpt>
      <trkpt lat="44.12757" lon="7.26063">
        <ele>1766.1</ele>
        <time>2023-02-05T13:34:39Z</time>
      </trkpt>
      <trkpt lat="44.12757" lon="7.26065">
        <ele>1766</ele>
        <time>2023-02-05T13:34:40Z</time>
      </trkpt>
      <trkpt lat="44.12757" lon="7.26066">
        <ele>1765.9</ele>
        <time>2023-02-05T13:34:41Z</time>
      </trkpt>
      <trkpt lat="44.12757" lon="7.26067">
        <ele>1765.6</ele>
        <time>2023-02-05T13:34:42Z</time>
      </trkpt>
      <trkpt lat="44.12758" lon="7.26069">
        <ele>1765.5</ele>
        <time>2023-02-05T13:34:43Z</time>
      </trkpt>
      <trkpt lat="44.12758" lon="7.2607">
        <ele>1765.5</ele>
        <time>2023-02-05T13:34:44Z</time>
      </trkpt>
      <trkpt lat="44.12758" lon="7.26071">
        <ele>1765.5</ele>
        <time>2023-02-05T13:34:45Z</time>
      </trkpt>
      <trkpt lat="44.12758" lon="7.26072">
        <ele>1765.6</ele>
        <time>2023-02-05T13:34:46Z</time>
      </trkpt>
      <trkpt lat="44.12758" lon="7.26074">
        <ele>1765.5</ele>
        <time>2023-02-05T13:34:47Z</time>
      </trkpt>
      <trkpt lat="44.12758" lon="7.26075">
        <ele>1765.4</ele>
        <time>2023-02-05T13:34:48Z</time>
      </trkpt>
      <trkpt lat="44.12759" lon="7.26076">
        <ele>1765</ele>
        <time>2023-02-05T13:34:49Z</time>
      </trkpt>
      <trkpt lat="44.12759" lon="7.26077">
        <ele>1765</ele>
        <time>2023-02-05T13:34:50Z</time>
      </trkpt>
      <trkpt lat="44.12758" lon="7.26078">
        <ele>1764.9</ele>
        <time>2023-02-05T13:34:51Z</time>
      </trkpt>
      <trkpt lat="44.12758" lon="7.2608">
        <ele>1764.9</ele>
        <time>2023-02-05T13:34:52Z</time>
      </trkpt>
      <trkpt lat="44.12758" lon="7.26081">
        <ele>1765</ele>
        <time>2023-02-05T13:34:53Z</time>
      </trkpt>
      <trkpt lat="44.12758" lon="7.26082">
        <ele>1765</ele>
        <time>2023-02-05T13:34:54Z</time>
      </trkpt>
      <trkpt lat="44.12758" lon="7.26083">
        <ele>1764.9</ele>
        <time>2023-02-05T13:34:55Z</time>
      </trkpt>
      <trkpt lat="44.12757" lon="7.26085">
        <ele>1764.8</ele>
        <time>2023-02-05T13:34:56Z</time>
      </trkpt>
      <trkpt lat="44.12758" lon="7.26087">
        <ele>1764.7</ele>
        <time>2023-02-05T13:34:57Z</time>
      </trkpt>
      <trkpt lat="44.12758" lon="7.26089">
        <ele>1764.8</ele>
        <time>2023-02-05T13:34:58Z</time>
      </trkpt>
      <trkpt lat="44.12758" lon="7.26091">
        <ele>1764.8</ele>
        <time>2023-02-05T13:34:59Z</time>
      </trkpt>
      <trkpt lat="44.12759" lon="7.26092">
        <ele>1764.8</ele>
        <time>2023-02-05T13:35:00Z</time>
      </trkpt>
      <trkpt lat="44.12758" lon="7.26093">
        <ele>1764.7</ele>
        <time>2023-02-05T13:35:01Z</time>
      </trkpt>
      <trkpt lat="44.12758" lon="7.26095">
        <ele>1764.7</ele>
        <time>2023-02-05T13:35:02Z</time>
      </trkpt>
      <trkpt lat="44.12758" lon="7.26096">
        <ele>1764.4</ele>
        <time>2023-02-05T13:35:03Z</time>
      </trkpt>
      <trkpt lat="44.12758" lon="7.26096">
        <ele>1764.3</ele>
        <time>2023-02-05T13:35:04Z</time>
      </trkpt>
      <trkpt lat="44.12758" lon="7.26097">
        <ele>1764.2</ele>
        <time>2023-02-05T13:35:05Z</time>
      </trkpt>
      <trkpt lat="44.12758" lon="7.26098">
        <ele>1764.2</ele>
        <time>2023-02-05T13:35:06Z</time>
      </trkpt>
      <trkpt lat="44.12759" lon="7.26098">
        <ele>1764</ele>
        <time>2023-02-05T13:35:07Z</time>
      </trkpt>
      <trkpt lat="44.12759" lon="7.26099">
        <ele>1764.2</ele>
        <time>2023-02-05T13:35:08Z</time>
      </trkpt>
      <trkpt lat="44.12759" lon="7.261">
        <ele>1764.3</ele>
        <time>2023-02-05T13:35:09Z</time>
      </trkpt>
      <trkpt lat="44.12759" lon="7.26102">
        <ele>1764.1</ele>
        <time>2023-02-05T13:35:10Z</time>
      </trkpt>
      <trkpt lat="44.12758" lon="7.26103">
        <ele>1763.9</ele>
        <time>2023-02-05T13:35:11Z</time>
      </trkpt>
      <trkpt lat="44.12758" lon="7.26103">
        <ele>1763.7</ele>
        <time>2023-02-05T13:35:12Z</time>
      </trkpt>
      <trkpt lat="44.12758" lon="7.26104">
        <ele>1763.5</ele>
        <time>2023-02-05T13:35:13Z</time>
      </trkpt>
      <trkpt lat="44.12759" lon="7.26105">
        <ele>1763</ele>
        <time>2023-02-05T13:35:14Z</time>
      </trkpt>
      <trkpt lat="44.12759" lon="7.26105">
        <ele>1763</ele>
        <time>2023-02-05T13:35:15Z</time>
      </trkpt>
      <trkpt lat="44.12759" lon="7.26106">
        <ele>1762.9</ele>
        <time>2023-02-05T13:35:16Z</time>
      </trkpt>
      <trkpt lat="44.12758" lon="7.26108">
        <ele>1762.8</ele>
        <time>2023-02-05T13:35:17Z</time>
      </trkpt>
      <trkpt lat="44.12758" lon="7.26108">
        <ele>1762.7</ele>
        <time>2023-02-05T13:35:18Z</time>
      </trkpt>
      <trkpt lat="44.12757" lon="7.26109">
        <ele>1762.6</ele>
        <time>2023-02-05T13:35:19Z</time>
      </trkpt>
      <trkpt lat="44.12757" lon="7.26111">
        <ele>1762.3</ele>
        <time>2023-02-05T13:35:20Z</time>
      </trkpt>
      <trkpt lat="44.12756" lon="7.26113">
        <ele>1762.3</ele>
        <time>2023-02-05T13:35:21Z</time>
      </trkpt>
      <trkpt lat="44.12756" lon="7.26114">
        <ele>1762.2</ele>
        <time>2023-02-05T13:35:22Z</time>
      </trkpt>
      <trkpt lat="44.12755" lon="7.26115">
        <ele>1762.2</ele>
        <time>2023-02-05T13:35:23Z</time>
      </trkpt>
      <trkpt lat="44.12755" lon="7.26116">
        <ele>1762.2</ele>
        <time>2023-02-05T13:35:24Z</time>
      </trkpt>
      <trkpt lat="44.12755" lon="7.26117">
        <ele>1762.2</ele>
        <time>2023-02-05T13:35:25Z</time>
      </trkpt>
      <trkpt lat="44.12755" lon="7.26118">
        <ele>1762.2</ele>
        <time>2023-02-05T13:35:26Z</time>
      </trkpt>
      <trkpt lat="44.12754" lon="7.2612">
        <ele>1762.1</ele>
        <time>2023-02-05T13:35:27Z</time>
      </trkpt>
      <trkpt lat="44.12754" lon="7.2612">
        <ele>1762.1</ele>
        <time>2023-02-05T13:35:28Z</time>
      </trkpt>
      <trkpt lat="44.12754" lon="7.26121">
        <ele>1762.1</ele>
        <time>2023-02-05T13:35:29Z</time>
      </trkpt>
      <trkpt lat="44.12754" lon="7.26121">
        <ele>1762</ele>
        <time>2023-02-05T13:35:30Z</time>
      </trkpt>
      <trkpt lat="44.12754" lon="7.26121">
        <ele>1762</ele>
        <time>2023-02-05T13:35:31Z</time>
      </trkpt>
      <trkpt lat="44.12753" lon="7.26122">
        <ele>1762.1</ele>
        <time>2023-02-05T13:35:32Z</time>
      </trkpt>
      <trkpt lat="44.12752" lon="7.26123">
        <ele>1761.5</ele>
        <time>2023-02-05T13:35:33Z</time>
      </trkpt>
      <trkpt lat="44.12752" lon="7.26124">
        <ele>1761.4</ele>
        <time>2023-02-05T13:35:34Z</time>
      </trkpt>
      <trkpt lat="44.12751" lon="7.26125">
        <ele>1761.3</ele>
        <time>2023-02-05T13:35:35Z</time>
      </trkpt>
      <trkpt lat="44.12751" lon="7.26126">
        <ele>1761.2</ele>
        <time>2023-02-05T13:35:36Z</time>
      </trkpt>
      <trkpt lat="44.1275" lon="7.26128">
        <ele>1761.3</ele>
        <time>2023-02-05T13:35:37Z</time>
      </trkpt>
      <trkpt lat="44.12749" lon="7.26129">
        <ele>1761.4</ele>
        <time>2023-02-05T13:35:38Z</time>
      </trkpt>
      <trkpt lat="44.12749" lon="7.26131">
        <ele>1761.2</ele>
        <time>2023-02-05T13:35:39Z</time>
      </trkpt>
      <trkpt lat="44.12749" lon="7.26132">
        <ele>1761.1</ele>
        <time>2023-02-05T13:35:40Z</time>
      </trkpt>
      <trkpt lat="44.12749" lon="7.26134">
        <ele>1761</ele>
        <time>2023-02-05T13:35:41Z</time>
      </trkpt>
      <trkpt lat="44.12749" lon="7.26134">
        <ele>1761.1</ele>
        <time>2023-02-05T13:35:42Z</time>
      </trkpt>
      <trkpt lat="44.12749" lon="7.26135">
        <ele>1761</ele>
        <time>2023-02-05T13:35:43Z</time>
      </trkpt>
      <trkpt lat="44.12749" lon="7.26136">
        <ele>1760.9</ele>
        <time>2023-02-05T13:35:44Z</time>
      </trkpt>
      <trkpt lat="44.12748" lon="7.26139">
        <ele>1760.5</ele>
        <time>2023-02-05T13:35:45Z</time>
      </trkpt>
      <trkpt lat="44.12748" lon="7.2614">
        <ele>1760.4</ele>
        <time>2023-02-05T13:35:46Z</time>
      </trkpt>
      <trkpt lat="44.12748" lon="7.26141">
        <ele>1760.4</ele>
        <time>2023-02-05T13:35:47Z</time>
      </trkpt>
      <trkpt lat="44.12747" lon="7.26142">
        <ele>1759.8</ele>
        <time>2023-02-05T13:35:48Z</time>
      </trkpt>
      <trkpt lat="44.12747" lon="7.26143">
        <ele>1759.9</ele>
        <time>2023-02-05T13:35:49Z</time>
      </trkpt>
      <trkpt lat="44.12747" lon="7.26144">
        <ele>1760.1</ele>
        <time>2023-02-05T13:35:50Z</time>
      </trkpt>
      <trkpt lat="44.12746" lon="7.26145">
        <ele>1759.9</ele>
        <time>2023-02-05T13:35:51Z</time>
      </trkpt>
      <trkpt lat="44.12746" lon="7.26146">
        <ele>1760</ele>
        <time>2023-02-05T13:35:52Z</time>
      </trkpt>
      <trkpt lat="44.12746" lon="7.26147">
        <ele>1759.7</ele>
        <time>2023-02-05T13:35:53Z</time>
      </trkpt>
      <trkpt lat="44.12746" lon="7.26149">
        <ele>1759.4</ele>
        <time>2023-02-05T13:35:54Z</time>
      </trkpt>
      <trkpt lat="44.12746" lon="7.2615">
        <ele>1759.3</ele>
        <time>2023-02-05T13:35:55Z</time>
      </trkpt>
      <trkpt lat="44.12744" lon="7.26152">
        <ele>1759.2</ele>
        <time>2023-02-05T13:35:56Z</time>
      </trkpt>
      <trkpt lat="44.12744" lon="7.26154">
        <ele>1758.7</ele>
        <time>2023-02-05T13:35:57Z</time>
      </trkpt>
      <trkpt lat="44.12743" lon="7.26155">
        <ele>1758.8</ele>
        <time>2023-02-05T13:35:58Z</time>
      </trkpt>
      <trkpt lat="44.12744" lon="7.26157">
        <ele>1758.7</ele>
        <time>2023-02-05T13:35:59Z</time>
      </trkpt>
      <trkpt lat="44.12743" lon="7.26159">
        <ele>1758.6</ele>
        <time>2023-02-05T13:36:00Z</time>
      </trkpt>
      <trkpt lat="44.12743" lon="7.26161">
        <ele>1758.6</ele>
        <time>2023-02-05T13:36:01Z</time>
      </trkpt>
      <trkpt lat="44.12743" lon="7.26163">
        <ele>1758.3</ele>
        <time>2023-02-05T13:36:02Z</time>
      </trkpt>
      <trkpt lat="44.12743" lon="7.26164">
        <ele>1758.4</ele>
        <time>2023-02-05T13:36:03Z</time>
      </trkpt>
      <trkpt lat="44.12743" lon="7.26167">
        <ele>1758.4</ele>
        <time>2023-02-05T13:36:04Z</time>
      </trkpt>
      <trkpt lat="44.12742" lon="7.26169">
        <ele>1758.4</ele>
        <time>2023-02-05T13:36:05Z</time>
      </trkpt>
      <trkpt lat="44.12741" lon="7.26172">
        <ele>1758.2</ele>
        <time>2023-02-05T13:36:06Z</time>
      </trkpt>
      <trkpt lat="44.12741" lon="7.26172">
        <ele>1758.2</ele>
        <time>2023-02-05T13:36:07Z</time>
      </trkpt>
      <trkpt lat="44.12741" lon="7.26174">
        <ele>1758.1</ele>
        <time>2023-02-05T13:36:08Z</time>
      </trkpt>
      <trkpt lat="44.12742" lon="7.26175">
        <ele>1758</ele>
        <time>2023-02-05T13:36:09Z</time>
      </trkpt>
      <trkpt lat="44.12741" lon="7.26176">
        <ele>1758</ele>
        <time>2023-02-05T13:36:10Z</time>
      </trkpt>
      <trkpt lat="44.12741" lon="7.26178">
        <ele>1757.9</ele>
        <time>2023-02-05T13:36:11Z</time>
      </trkpt>
      <trkpt lat="44.12741" lon="7.26179">
        <ele>1757.8</ele>
        <time>2023-02-05T13:36:12Z</time>
      </trkpt>
      <trkpt lat="44.1274" lon="7.2618">
        <ele>1757.5</ele>
        <time>2023-02-05T13:36:13Z</time>
      </trkpt>
      <trkpt lat="44.12739" lon="7.26182">
        <ele>1757</ele>
        <time>2023-02-05T13:36:14Z</time>
      </trkpt>
      <trkpt lat="44.12739" lon="7.26182">
        <ele>1756.9</ele>
        <time>2023-02-05T13:36:15Z</time>
      </trkpt>
      <trkpt lat="44.12739" lon="7.26183">
        <ele>1756.9</ele>
        <time>2023-02-05T13:36:16Z</time>
      </trkpt>
      <trkpt lat="44.12739" lon="7.26183">
        <ele>1756.9</ele>
        <time>2023-02-05T13:36:17Z</time>
      </trkpt>
      <trkpt lat="44.12739" lon="7.26184">
        <ele>1756.6</ele>
        <time>2023-02-05T13:36:18Z</time>
      </trkpt>
      <trkpt lat="44.12738" lon="7.26185">
        <ele>1756.5</ele>
        <time>2023-02-05T13:36:19Z</time>
      </trkpt>
      <trkpt lat="44.12737" lon="7.26186">
        <ele>1756.4</ele>
        <time>2023-02-05T13:36:20Z</time>
      </trkpt>
      <trkpt lat="44.12735" lon="7.26188">
        <ele>1756.2</ele>
        <time>2023-02-05T13:36:21Z</time>
      </trkpt>
      <trkpt lat="44.12735" lon="7.26189">
        <ele>1755.9</ele>
        <time>2023-02-05T13:36:22Z</time>
      </trkpt>
      <trkpt lat="44.12734" lon="7.26191">
        <ele>1755.8</ele>
        <time>2023-02-05T13:36:23Z</time>
      </trkpt>
      <trkpt lat="44.12734" lon="7.26191">
        <ele>1755.7</ele>
        <time>2023-02-05T13:36:24Z</time>
      </trkpt>
      <trkpt lat="44.12734" lon="7.26194">
        <ele>1755.7</ele>
        <time>2023-02-05T13:36:25Z</time>
      </trkpt>
      <trkpt lat="44.12734" lon="7.26196">
        <ele>1755.5</ele>
        <time>2023-02-05T13:36:26Z</time>
      </trkpt>
      <trkpt lat="44.12733" lon="7.26199">
        <ele>1755.5</ele>
        <time>2023-02-05T13:36:27Z</time>
      </trkpt>
      <trkpt lat="44.12733" lon="7.262">
        <ele>1755.5</ele>
        <time>2023-02-05T13:36:28Z</time>
      </trkpt>
      <trkpt lat="44.12732" lon="7.26202">
        <ele>1755.4</ele>
        <time>2023-02-05T13:36:29Z</time>
      </trkpt>
      <trkpt lat="44.12733" lon="7.26202">
        <ele>1754.9</ele>
        <time>2023-02-05T13:36:30Z</time>
      </trkpt>
      <trkpt lat="44.12733" lon="7.26203">
        <ele>1754.7</ele>
        <time>2023-02-05T13:36:31Z</time>
      </trkpt>
      <trkpt lat="44.12733" lon="7.26203">
        <ele>1754.7</ele>
        <time>2023-02-05T13:36:32Z</time>
      </trkpt>
      <trkpt lat="44.12732" lon="7.26205">
        <ele>1754.6</ele>
        <time>2023-02-05T13:36:33Z</time>
      </trkpt>
      <trkpt lat="44.12732" lon="7.26206">
        <ele>1754.5</ele>
        <time>2023-02-05T13:36:34Z</time>
      </trkpt>
      <trkpt lat="44.12732" lon="7.26208">
        <ele>1754.4</ele>
        <time>2023-02-05T13:36:35Z</time>
      </trkpt>
      <trkpt lat="44.12731" lon="7.26209">
        <ele>1754.2</ele>
        <time>2023-02-05T13:36:36Z</time>
      </trkpt>
      <trkpt lat="44.12731" lon="7.2621">
        <ele>1754.3</ele>
        <time>2023-02-05T13:36:37Z</time>
      </trkpt>
      <trkpt lat="44.12731" lon="7.26211">
        <ele>1754.2</ele>
        <time>2023-02-05T13:36:38Z</time>
      </trkpt>
      <trkpt lat="44.1273" lon="7.26212">
        <ele>1754.1</ele>
        <time>2023-02-05T13:36:39Z</time>
      </trkpt>
      <trkpt lat="44.12731" lon="7.26213">
        <ele>1754</ele>
        <time>2023-02-05T13:36:40Z</time>
      </trkpt>
      <trkpt lat="44.1273" lon="7.26215">
        <ele>1753.9</ele>
        <time>2023-02-05T13:36:41Z</time>
      </trkpt>
      <trkpt lat="44.1273" lon="7.26217">
        <ele>1753.9</ele>
        <time>2023-02-05T13:36:42Z</time>
      </trkpt>
      <trkpt lat="44.1273" lon="7.26219">
        <ele>1753.9</ele>
        <time>2023-02-05T13:36:43Z</time>
      </trkpt>
      <trkpt lat="44.12729" lon="7.2622">
        <ele>1753.8</ele>
        <time>2023-02-05T13:36:44Z</time>
      </trkpt>
      <trkpt lat="44.12729" lon="7.26221">
        <ele>1753.8</ele>
        <time>2023-02-05T13:36:45Z</time>
      </trkpt>
      <trkpt lat="44.12729" lon="7.26223">
        <ele>1752.4</ele>
        <time>2023-02-05T13:36:46Z</time>
      </trkpt>
      <trkpt lat="44.12729" lon="7.26224">
        <ele>1752.4</ele>
        <time>2023-02-05T13:36:47Z</time>
      </trkpt>
      <trkpt lat="44.12729" lon="7.26226">
        <ele>1752.6</ele>
        <time>2023-02-05T13:36:48Z</time>
      </trkpt>
      <trkpt lat="44.12728" lon="7.26228">
        <ele>1752.6</ele>
        <time>2023-02-05T13:36:49Z</time>
      </trkpt>
      <trkpt lat="44.12728" lon="7.26229">
        <ele>1752.8</ele>
        <time>2023-02-05T13:36:50Z</time>
      </trkpt>
      <trkpt lat="44.12727" lon="7.26229">
        <ele>1752.7</ele>
        <time>2023-02-05T13:36:51Z</time>
      </trkpt>
      <trkpt lat="44.12727" lon="7.2623">
        <ele>1752.6</ele>
        <time>2023-02-05T13:36:52Z</time>
      </trkpt>
      <trkpt lat="44.12727" lon="7.26231">
        <ele>1752.6</ele>
        <time>2023-02-05T13:36:53Z</time>
      </trkpt>
      <trkpt lat="44.12728" lon="7.26232">
        <ele>1752.6</ele>
        <time>2023-02-05T13:36:54Z</time>
      </trkpt>
      <trkpt lat="44.12727" lon="7.26233">
        <ele>1752.6</ele>
        <time>2023-02-05T13:36:55Z</time>
      </trkpt>
      <trkpt lat="44.12727" lon="7.26234">
        <ele>1752.3</ele>
        <time>2023-02-05T13:36:56Z</time>
      </trkpt>
      <trkpt lat="44.12727" lon="7.26235">
        <ele>1752</ele>
        <time>2023-02-05T13:36:57Z</time>
      </trkpt>
      <trkpt lat="44.12727" lon="7.26237">
        <ele>1751.9</ele>
        <time>2023-02-05T13:36:58Z</time>
      </trkpt>
      <trkpt lat="44.12726" lon="7.26238">
        <ele>1751.7</ele>
        <time>2023-02-05T13:36:59Z</time>
      </trkpt>
      <trkpt lat="44.12727" lon="7.26239">
        <ele>1751.6</ele>
        <time>2023-02-05T13:37:00Z</time>
      </trkpt>
      <trkpt lat="44.12726" lon="7.26242">
        <ele>1751.5</ele>
        <time>2023-02-05T13:37:01Z</time>
      </trkpt>
      <trkpt lat="44.12726" lon="7.26244">
        <ele>1751</ele>
        <time>2023-02-05T13:37:02Z</time>
      </trkpt>
      <trkpt lat="44.12727" lon="7.26245">
        <ele>1750.9</ele>
        <time>2023-02-05T13:37:03Z</time>
      </trkpt>
      <trkpt lat="44.12726" lon="7.26247">
        <ele>1750.9</ele>
        <time>2023-02-05T13:37:04Z</time>
      </trkpt>
      <trkpt lat="44.12726" lon="7.26249">
        <ele>1750.9</ele>
        <time>2023-02-05T13:37:05Z</time>
      </trkpt>
      <trkpt lat="44.12725" lon="7.26253">
        <ele>1750.8</ele>
        <time>2023-02-05T13:37:06Z</time>
      </trkpt>
      <trkpt lat="44.12724" lon="7.26255">
        <ele>1750.9</ele>
        <time>2023-02-05T13:37:07Z</time>
      </trkpt>
      <trkpt lat="44.12723" lon="7.26257">
        <ele>1750.9</ele>
        <time>2023-02-05T13:37:08Z</time>
      </trkpt>
      <trkpt lat="44.12722" lon="7.26258">
        <ele>1750.9</ele>
        <time>2023-02-05T13:37:09Z</time>
      </trkpt>
      <trkpt lat="44.12721" lon="7.26259">
        <ele>1750.9</ele>
        <time>2023-02-05T13:37:10Z</time>
      </trkpt>
      <trkpt lat="44.12722" lon="7.26261">
        <ele>1750.8</ele>
        <time>2023-02-05T13:37:11Z</time>
      </trkpt>
      <trkpt lat="44.12721" lon="7.26262">
        <ele>1750.3</ele>
        <time>2023-02-05T13:37:12Z</time>
      </trkpt>
      <trkpt lat="44.12722" lon="7.26264">
        <ele>1750.2</ele>
        <time>2023-02-05T13:37:13Z</time>
      </trkpt>
      <trkpt lat="44.12721" lon="7.26266">
        <ele>1750.2</ele>
        <time>2023-02-05T13:37:14Z</time>
      </trkpt>
      <trkpt lat="44.12721" lon="7.26267">
        <ele>1750</ele>
        <time>2023-02-05T13:37:15Z</time>
      </trkpt>
      <trkpt lat="44.12721" lon="7.26269">
        <ele>1749.4</ele>
        <time>2023-02-05T13:37:16Z</time>
      </trkpt>
      <trkpt lat="44.1272" lon="7.26271">
        <ele>1749.5</ele>
        <time>2023-02-05T13:37:17Z</time>
      </trkpt>
      <trkpt lat="44.12719" lon="7.26273">
        <ele>1749.4</ele>
        <time>2023-02-05T13:37:18Z</time>
      </trkpt>
      <trkpt lat="44.12719" lon="7.26274">
        <ele>1749.4</ele>
        <time>2023-02-05T13:37:19Z</time>
      </trkpt>
      <trkpt lat="44.12718" lon="7.26275">
        <ele>1749.4</ele>
        <time>2023-02-05T13:37:20Z</time>
      </trkpt>
      <trkpt lat="44.12718" lon="7.26277">
        <ele>1749.4</ele>
        <time>2023-02-05T13:37:21Z</time>
      </trkpt>
      <trkpt lat="44.12718" lon="7.26278">
        <ele>1749.4</ele>
        <time>2023-02-05T13:37:22Z</time>
      </trkpt>
      <trkpt lat="44.12717" lon="7.2628">
        <ele>1749.5</ele>
        <time>2023-02-05T13:37:23Z</time>
      </trkpt>
      <trkpt lat="44.12716" lon="7.26282">
        <ele>1748.9</ele>
        <time>2023-02-05T13:37:24Z</time>
      </trkpt>
      <trkpt lat="44.12715" lon="7.26283">
        <ele>1748.5</ele>
        <time>2023-02-05T13:37:25Z</time>
      </trkpt>
      <trkpt lat="44.12714" lon="7.26285">
        <ele>1748.4</ele>
        <time>2023-02-05T13:37:26Z</time>
      </trkpt>
      <trkpt lat="44.12714" lon="7.26285">
        <ele>1748.5</ele>
        <time>2023-02-05T13:37:27Z</time>
      </trkpt>
      <trkpt lat="44.12714" lon="7.26286">
        <ele>1748.5</ele>
        <time>2023-02-05T13:37:28Z</time>
      </trkpt>
      <trkpt lat="44.12714" lon="7.26287">
        <ele>1748.5</ele>
        <time>2023-02-05T13:37:29Z</time>
      </trkpt>
      <trkpt lat="44.12713" lon="7.26288">
        <ele>1748.9</ele>
        <time>2023-02-05T13:37:30Z</time>
      </trkpt>
      <trkpt lat="44.12713" lon="7.26289">
        <ele>1748.8</ele>
        <time>2023-02-05T13:37:31Z</time>
      </trkpt>
      <trkpt lat="44.12712" lon="7.26291">
        <ele>1748.7</ele>
        <time>2023-02-05T13:37:32Z</time>
      </trkpt>
      <trkpt lat="44.12711" lon="7.26293">
        <ele>1748.5</ele>
        <time>2023-02-05T13:37:33Z</time>
      </trkpt>
      <trkpt lat="44.1271" lon="7.26295">
        <ele>1748.3</ele>
        <time>2023-02-05T13:37:34Z</time>
      </trkpt>
      <trkpt lat="44.12709" lon="7.26297">
        <ele>1748.4</ele>
        <time>2023-02-05T13:37:35Z</time>
      </trkpt>
      <trkpt lat="44.12709" lon="7.26298">
        <ele>1748.2</ele>
        <time>2023-02-05T13:37:36Z</time>
      </trkpt>
      <trkpt lat="44.12709" lon="7.263">
        <ele>1748.1</ele>
        <time>2023-02-05T13:37:37Z</time>
      </trkpt>
      <trkpt lat="44.12709" lon="7.26302">
        <ele>1748</ele>
        <time>2023-02-05T13:37:38Z</time>
      </trkpt>
      <trkpt lat="44.12708" lon="7.26304">
        <ele>1748</ele>
        <time>2023-02-05T13:37:39Z</time>
      </trkpt>
      <trkpt lat="44.12708" lon="7.26305">
        <ele>1747.7</ele>
        <time>2023-02-05T13:37:40Z</time>
      </trkpt>
      <trkpt lat="44.12708" lon="7.26306">
        <ele>1747.3</ele>
        <time>2023-02-05T13:37:41Z</time>
      </trkpt>
      <trkpt lat="44.12707" lon="7.26308">
        <ele>1747.2</ele>
        <time>2023-02-05T13:37:42Z</time>
      </trkpt>
      <trkpt lat="44.12707" lon="7.26309">
        <ele>1747.1</ele>
        <time>2023-02-05T13:37:43Z</time>
      </trkpt>
      <trkpt lat="44.12707" lon="7.26312">
        <ele>1747.1</ele>
        <time>2023-02-05T13:37:44Z</time>
      </trkpt>
      <trkpt lat="44.12706" lon="7.26314">
        <ele>1747.1</ele>
        <time>2023-02-05T13:37:45Z</time>
      </trkpt>
      <trkpt lat="44.12706" lon="7.26315">
        <ele>1747</ele>
        <time>2023-02-05T13:37:46Z</time>
      </trkpt>
      <trkpt lat="44.12706" lon="7.26316">
        <ele>1747</ele>
        <time>2023-02-05T13:37:47Z</time>
      </trkpt>
      <trkpt lat="44.12706" lon="7.26318">
        <ele>1746.9</ele>
        <time>2023-02-05T13:37:48Z</time>
      </trkpt>
      <trkpt lat="44.12705" lon="7.26319">
        <ele>1746.4</ele>
        <time>2023-02-05T13:37:49Z</time>
      </trkpt>
      <trkpt lat="44.12705" lon="7.2632">
        <ele>1746.3</ele>
        <time>2023-02-05T13:37:50Z</time>
      </trkpt>
      <trkpt lat="44.12704" lon="7.26321">
        <ele>1746.3</ele>
        <time>2023-02-05T13:37:51Z</time>
      </trkpt>
      <trkpt lat="44.12704" lon="7.26322">
        <ele>1746.2</ele>
        <time>2023-02-05T13:37:52Z</time>
      </trkpt>
      <trkpt lat="44.12703" lon="7.26324">
        <ele>1746.2</ele>
        <time>2023-02-05T13:37:53Z</time>
      </trkpt>
      <trkpt lat="44.12702" lon="7.26325">
        <ele>1746.2</ele>
        <time>2023-02-05T13:37:54Z</time>
      </trkpt>
      <trkpt lat="44.12703" lon="7.26326">
        <ele>1745.8</ele>
        <time>2023-02-05T13:37:55Z</time>
      </trkpt>
      <trkpt lat="44.12703" lon="7.26327">
        <ele>1745.7</ele>
        <time>2023-02-05T13:37:56Z</time>
      </trkpt>
      <trkpt lat="44.12704" lon="7.26328">
        <ele>1745.4</ele>
        <time>2023-02-05T13:37:57Z</time>
      </trkpt>
      <trkpt lat="44.12703" lon="7.26328">
        <ele>1745.2</ele>
        <time>2023-02-05T13:37:58Z</time>
      </trkpt>
      <trkpt lat="44.12703" lon="7.26327">
        <ele>1745</ele>
        <time>2023-02-05T13:37:59Z</time>
      </trkpt>
      <trkpt lat="44.12702" lon="7.26326">
        <ele>1744.8</ele>
        <time>2023-02-05T13:38:00Z</time>
      </trkpt>
      <trkpt lat="44.12702" lon="7.26326">
        <ele>1744.7</ele>
        <time>2023-02-05T13:38:01Z</time>
      </trkpt>
      <trkpt lat="44.12702" lon="7.26325">
        <ele>1744.6</ele>
        <time>2023-02-05T13:38:02Z</time>
      </trkpt>
      <trkpt lat="44.12702" lon="7.26324">
        <ele>1744.6</ele>
        <time>2023-02-05T13:38:03Z</time>
      </trkpt>
      <trkpt lat="44.12702" lon="7.26323">
        <ele>1744.2</ele>
        <time>2023-02-05T13:38:04Z</time>
      </trkpt>
      <trkpt lat="44.12703" lon="7.26322">
        <ele>1744</ele>
        <time>2023-02-05T13:38:05Z</time>
      </trkpt>
      <trkpt lat="44.12704" lon="7.26321">
        <ele>1744</ele>
        <time>2023-02-05T13:38:06Z</time>
      </trkpt>
      <trkpt lat="44.12704" lon="7.2632">
        <ele>1743.8</ele>
        <time>2023-02-05T13:38:07Z</time>
      </trkpt>
      <trkpt lat="44.12703" lon="7.26319">
        <ele>1743.8</ele>
        <time>2023-02-05T13:38:08Z</time>
      </trkpt>
      <trkpt lat="44.12704" lon="7.26319">
        <ele>1743.8</ele>
        <time>2023-02-05T13:38:09Z</time>
      </trkpt>
      <trkpt lat="44.12704" lon="7.26318">
        <ele>1743.7</ele>
        <time>2023-02-05T13:38:10Z</time>
      </trkpt>
      <trkpt lat="44.12704" lon="7.26317">
        <ele>1743.5</ele>
        <time>2023-02-05T13:38:11Z</time>
      </trkpt>
      <trkpt lat="44.12704" lon="7.26316">
        <ele>1743.3</ele>
        <time>2023-02-05T13:38:12Z</time>
      </trkpt>
      <trkpt lat="44.12704" lon="7.26314">
        <ele>1743.3</ele>
        <time>2023-02-05T13:38:13Z</time>
      </trkpt>
      <trkpt lat="44.12704" lon="7.26312">
        <ele>1743.4</ele>
        <time>2023-02-05T13:38:14Z</time>
      </trkpt>
      <trkpt lat="44.12706" lon="7.26311">
        <ele>1743.1</ele>
        <time>2023-02-05T13:38:15Z</time>
      </trkpt>
      <trkpt lat="44.12706" lon="7.2631">
        <ele>1742.9</ele>
        <time>2023-02-05T13:38:16Z</time>
      </trkpt>
      <trkpt lat="44.12707" lon="7.26309">
        <ele>1742.9</ele>
        <time>2023-02-05T13:38:17Z</time>
      </trkpt>
      <trkpt lat="44.12706" lon="7.26307">
        <ele>1742.6</ele>
        <time>2023-02-05T13:38:18Z</time>
      </trkpt>
      <trkpt lat="44.12707" lon="7.26306">
        <ele>1742.4</ele>
        <time>2023-02-05T13:38:19Z</time>
      </trkpt>
      <trkpt lat="44.12708" lon="7.26304">
        <ele>1742.4</ele>
        <time>2023-02-05T13:38:20Z</time>
      </trkpt>
      <trkpt lat="44.12709" lon="7.26302">
        <ele>1742.2</ele>
        <time>2023-02-05T13:38:21Z</time>
      </trkpt>
      <trkpt lat="44.12709" lon="7.26301">
        <ele>1742.1</ele>
        <time>2023-02-05T13:38:22Z</time>
      </trkpt>
      <trkpt lat="44.12709" lon="7.26299">
        <ele>1742</ele>
        <time>2023-02-05T13:38:23Z</time>
      </trkpt>
      <trkpt lat="44.12709" lon="7.26298">
        <ele>1741.9</ele>
        <time>2023-02-05T13:38:24Z</time>
      </trkpt>
      <trkpt lat="44.1271" lon="7.26296">
        <ele>1741.9</ele>
        <time>2023-02-05T13:38:25Z</time>
      </trkpt>
      <trkpt lat="44.1271" lon="7.26295">
        <ele>1741.8</ele>
        <time>2023-02-05T13:38:26Z</time>
      </trkpt>
      <trkpt lat="44.1271" lon="7.26294">
        <ele>1741.8</ele>
        <time>2023-02-05T13:38:27Z</time>
      </trkpt>
      <trkpt lat="44.12709" lon="7.26293">
        <ele>1741.7</ele>
        <time>2023-02-05T13:38:28Z</time>
      </trkpt>
      <trkpt lat="44.12709" lon="7.26292">
        <ele>1741.6</ele>
        <time>2023-02-05T13:38:29Z</time>
      </trkpt>
      <trkpt lat="44.12709" lon="7.26291">
        <ele>1741.5</ele>
        <time>2023-02-05T13:38:30Z</time>
      </trkpt>
      <trkpt lat="44.1271" lon="7.2629">
        <ele>1741.4</ele>
        <time>2023-02-05T13:38:31Z</time>
      </trkpt>
      <trkpt lat="44.1271" lon="7.26289">
        <ele>1741.4</ele>
        <time>2023-02-05T13:38:32Z</time>
      </trkpt>
      <trkpt lat="44.12711" lon="7.26289">
        <ele>1741.2</ele>
        <time>2023-02-05T13:38:33Z</time>
      </trkpt>
      <trkpt lat="44.12711" lon="7.26289">
        <ele>1741.3</ele>
        <time>2023-02-05T13:38:34Z</time>
      </trkpt>
      <trkpt lat="44.12711" lon="7.26288">
        <ele>1741.2</ele>
        <time>2023-02-05T13:38:35Z</time>
      </trkpt>
      <trkpt lat="44.12711" lon="7.26287">
        <ele>1741.1</ele>
        <time>2023-02-05T13:38:36Z</time>
      </trkpt>
      <trkpt lat="44.1271" lon="7.26286">
        <ele>1740.7</ele>
        <time>2023-02-05T13:38:37Z</time>
      </trkpt>
      <trkpt lat="44.1271" lon="7.26285">
        <ele>1740.6</ele>
        <time>2023-02-05T13:38:38Z</time>
      </trkpt>
      <trkpt lat="44.1271" lon="7.26285">
        <ele>1740.6</ele>
        <time>2023-02-05T13:38:39Z</time>
      </trkpt>
      <trkpt lat="44.1271" lon="7.26283">
        <ele>1740.4</ele>
        <time>2023-02-05T13:38:40Z</time>
      </trkpt>
      <trkpt lat="44.12711" lon="7.26281">
        <ele>1740.5</ele>
        <time>2023-02-05T13:38:41Z</time>
      </trkpt>
      <trkpt lat="44.1271" lon="7.26281">
        <ele>1740.3</ele>
        <time>2023-02-05T13:38:42Z</time>
      </trkpt>
      <trkpt lat="44.1271" lon="7.2628">
        <ele>1740</ele>
        <time>2023-02-05T13:38:43Z</time>
      </trkpt>
      <trkpt lat="44.1271" lon="7.2628">
        <ele>1739.9</ele>
        <time>2023-02-05T13:38:44Z</time>
      </trkpt>
      <trkpt lat="44.1271" lon="7.26279">
        <ele>1740</ele>
        <time>2023-02-05T13:38:45Z</time>
      </trkpt>
      <trkpt lat="44.1271" lon="7.26278">
        <ele>1740.1</ele>
        <time>2023-02-05T13:38:46Z</time>
      </trkpt>
      <trkpt lat="44.12711" lon="7.26275">
        <ele>1739.8</ele>
        <time>2023-02-05T13:38:47Z</time>
      </trkpt>
      <trkpt lat="44.12711" lon="7.26273">
        <ele>1739.9</ele>
        <time>2023-02-05T13:38:48Z</time>
      </trkpt>
      <trkpt lat="44.12713" lon="7.26271">
        <ele>1739.9</ele>
        <time>2023-02-05T13:38:49Z</time>
      </trkpt>
      <trkpt lat="44.12713" lon="7.26269">
        <ele>1739.6</ele>
        <time>2023-02-05T13:38:50Z</time>
      </trkpt>
      <trkpt lat="44.12714" lon="7.26268">
        <ele>1739.4</ele>
        <time>2023-02-05T13:38:51Z</time>
      </trkpt>
      <trkpt lat="44.12714" lon="7.26266">
        <ele>1739.3</ele>
        <time>2023-02-05T13:38:52Z</time>
      </trkpt>
      <trkpt lat="44.12716" lon="7.26264">
        <ele>1739.2</ele>
        <time>2023-02-05T13:38:53Z</time>
      </trkpt>
      <trkpt lat="44.12715" lon="7.26262">
        <ele>1739.1</ele>
        <time>2023-02-05T13:38:54Z</time>
      </trkpt>
      <trkpt lat="44.12716" lon="7.2626">
        <ele>1739.2</ele>
        <time>2023-02-05T13:38:55Z</time>
      </trkpt>
      <trkpt lat="44.12716" lon="7.26257">
        <ele>1739.2</ele>
        <time>2023-02-05T13:38:56Z</time>
      </trkpt>
      <trkpt lat="44.12716" lon="7.26255">
        <ele>1739.2</ele>
        <time>2023-02-05T13:38:57Z</time>
      </trkpt>
      <trkpt lat="44.12717" lon="7.26253">
        <ele>1738.9</ele>
        <time>2023-02-05T13:38:58Z</time>
      </trkpt>
      <trkpt lat="44.12716" lon="7.26252">
        <ele>1738.7</ele>
        <time>2023-02-05T13:38:59Z</time>
      </trkpt>
      <trkpt lat="44.12716" lon="7.26251">
        <ele>1738.3</ele>
        <time>2023-02-05T13:39:00Z</time>
      </trkpt>
      <trkpt lat="44.12717" lon="7.26249">
        <ele>1738.2</ele>
        <time>2023-02-05T13:39:01Z</time>
      </trkpt>
      <trkpt lat="44.12716" lon="7.26248">
        <ele>1738.1</ele>
        <time>2023-02-05T13:39:02Z</time>
      </trkpt>
      <trkpt lat="44.12716" lon="7.26246">
        <ele>1738</ele>
        <time>2023-02-05T13:39:03Z</time>
      </trkpt>
      <trkpt lat="44.12716" lon="7.26245">
        <ele>1738.2</ele>
        <time>2023-02-05T13:39:04Z</time>
      </trkpt>
      <trkpt lat="44.12717" lon="7.26242">
        <ele>1737.9</ele>
        <time>2023-02-05T13:39:05Z</time>
      </trkpt>
      <trkpt lat="44.12717" lon="7.2624">
        <ele>1737.8</ele>
        <time>2023-02-05T13:39:06Z</time>
      </trkpt>
      <trkpt lat="44.12717" lon="7.26239">
        <ele>1737.6</ele>
        <time>2023-02-05T13:39:07Z</time>
      </trkpt>
      <trkpt lat="44.12718" lon="7.26237">
        <ele>1737.5</ele>
        <time>2023-02-05T13:39:08Z</time>
      </trkpt>
      <trkpt lat="44.12718" lon="7.26235">
        <ele>1737.4</ele>
        <time>2023-02-05T13:39:09Z</time>
      </trkpt>
      <trkpt lat="44.12718" lon="7.26233">
        <ele>1737.4</ele>
        <time>2023-02-05T13:39:10Z</time>
      </trkpt>
      <trkpt lat="44.12719" lon="7.2623">
        <ele>1737</ele>
        <time>2023-02-05T13:39:11Z</time>
      </trkpt>
      <trkpt lat="44.12719" lon="7.26228">
        <ele>1736.9</ele>
        <time>2023-02-05T13:39:12Z</time>
      </trkpt>
      <trkpt lat="44.12719" lon="7.26226">
        <ele>1736.8</ele>
        <time>2023-02-05T13:39:13Z</time>
      </trkpt>
      <trkpt lat="44.1272" lon="7.26224">
        <ele>1736.7</ele>
        <time>2023-02-05T13:39:14Z</time>
      </trkpt>
      <trkpt lat="44.1272" lon="7.26222">
        <ele>1736.6</ele>
        <time>2023-02-05T13:39:15Z</time>
      </trkpt>
      <trkpt lat="44.1272" lon="7.2622">
        <ele>1736.6</ele>
        <time>2023-02-05T13:39:16Z</time>
      </trkpt>
      <trkpt lat="44.1272" lon="7.26219">
        <ele>1736.5</ele>
        <time>2023-02-05T13:39:17Z</time>
      </trkpt>
      <trkpt lat="44.12719" lon="7.26217">
        <ele>1736.3</ele>
        <time>2023-02-05T13:39:18Z</time>
      </trkpt>
      <trkpt lat="44.12719" lon="7.26215">
        <ele>1736.1</ele>
        <time>2023-02-05T13:39:19Z</time>
      </trkpt>
      <trkpt lat="44.1272" lon="7.26214">
        <ele>1736.2</ele>
        <time>2023-02-05T13:39:20Z</time>
      </trkpt>
      <trkpt lat="44.1272" lon="7.26211">
        <ele>1736</ele>
        <time>2023-02-05T13:39:21Z</time>
      </trkpt>
      <trkpt lat="44.1272" lon="7.26209">
        <ele>1735.8</ele>
        <time>2023-02-05T13:39:22Z</time>
      </trkpt>
      <trkpt lat="44.1272" lon="7.26208">
        <ele>1735.7</ele>
        <time>2023-02-05T13:39:23Z</time>
      </trkpt>
      <trkpt lat="44.12719" lon="7.26206">
        <ele>1736.1</ele>
        <time>2023-02-05T13:39:24Z</time>
      </trkpt>
      <trkpt lat="44.12719" lon="7.26205">
        <ele>1736.2</ele>
        <time>2023-02-05T13:39:25Z</time>
      </trkpt>
      <trkpt lat="44.12718" lon="7.26204">
        <ele>1736</ele>
        <time>2023-02-05T13:39:26Z</time>
      </trkpt>
      <trkpt lat="44.12716" lon="7.26202">
        <ele>1735.9</ele>
        <time>2023-02-05T13:39:27Z</time>
      </trkpt>
      <trkpt lat="44.12716" lon="7.262">
        <ele>1735.8</ele>
        <time>2023-02-05T13:39:28Z</time>
      </trkpt>
      <trkpt lat="44.12715" lon="7.26199">
        <ele>1735.5</ele>
        <time>2023-02-05T13:39:29Z</time>
      </trkpt>
      <trkpt lat="44.12714" lon="7.26198">
        <ele>1735.5</ele>
        <time>2023-02-05T13:39:30Z</time>
      </trkpt>
      <trkpt lat="44.12714" lon="7.26196">
        <ele>1735.5</ele>
        <time>2023-02-05T13:39:31Z</time>
      </trkpt>
      <trkpt lat="44.12714" lon="7.26195">
        <ele>1735.8</ele>
        <time>2023-02-05T13:39:32Z</time>
      </trkpt>
      <trkpt lat="44.12714" lon="7.26194">
        <ele>1735.8</ele>
        <time>2023-02-05T13:39:33Z</time>
      </trkpt>
      <trkpt lat="44.12713" lon="7.26192">
        <ele>1735.6</ele>
        <time>2023-02-05T13:39:34Z</time>
      </trkpt>
      <trkpt lat="44.12712" lon="7.26191">
        <ele>1735.5</ele>
        <time>2023-02-05T13:39:35Z</time>
      </trkpt>
      <trkpt lat="44.12711" lon="7.2619">
        <ele>1735.5</ele>
        <time>2023-02-05T13:39:36Z</time>
      </trkpt>
      <trkpt lat="44.12711" lon="7.26188">
        <ele>1735.4</ele>
        <time>2023-02-05T13:39:37Z</time>
      </trkpt>
      <trkpt lat="44.12711" lon="7.26187">
        <ele>1735.5</ele>
        <time>2023-02-05T13:39:38Z</time>
      </trkpt>
      <trkpt lat="44.1271" lon="7.26186">
        <ele>1735.5</ele>
        <time>2023-02-05T13:39:39Z</time>
      </trkpt>
      <trkpt lat="44.1271" lon="7.26185">
        <ele>1735.7</ele>
        <time>2023-02-05T13:39:40Z</time>
      </trkpt>
      <trkpt lat="44.1271" lon="7.26184">
        <ele>1735.6</ele>
        <time>2023-02-05T13:39:41Z</time>
      </trkpt>
      <trkpt lat="44.12709" lon="7.26183">
        <ele>1735.6</ele>
        <time>2023-02-05T13:39:42Z</time>
      </trkpt>
      <trkpt lat="44.12709" lon="7.26182">
        <ele>1735.4</ele>
        <time>2023-02-05T13:39:43Z</time>
      </trkpt>
      <trkpt lat="44.12709" lon="7.26181">
        <ele>1735.3</ele>
        <time>2023-02-05T13:39:44Z</time>
      </trkpt>
      <trkpt lat="44.12709" lon="7.2618">
        <ele>1735</ele>
        <time>2023-02-05T13:39:45Z</time>
      </trkpt>
      <trkpt lat="44.12709" lon="7.26178">
        <ele>1734.7</ele>
        <time>2023-02-05T13:39:46Z</time>
      </trkpt>
      <trkpt lat="44.12708" lon="7.26177">
        <ele>1734.6</ele>
        <time>2023-02-05T13:39:47Z</time>
      </trkpt>
      <trkpt lat="44.12708" lon="7.26175">
        <ele>1734</ele>
        <time>2023-02-05T13:39:48Z</time>
      </trkpt>
      <trkpt lat="44.12708" lon="7.26174">
        <ele>1733.9</ele>
        <time>2023-02-05T13:39:49Z</time>
      </trkpt>
      <trkpt lat="44.12709" lon="7.26173">
        <ele>1733.7</ele>
        <time>2023-02-05T13:39:50Z</time>
      </trkpt>
      <trkpt lat="44.12708" lon="7.26172">
        <ele>1733.6</ele>
        <time>2023-02-05T13:39:51Z</time>
      </trkpt>
      <trkpt lat="44.12708" lon="7.2617">
        <ele>1733.7</ele>
        <time>2023-02-05T13:39:52Z</time>
      </trkpt>
      <trkpt lat="44.12708" lon="7.26169">
        <ele>1733.3</ele>
        <time>2023-02-05T13:39:53Z</time>
      </trkpt>
      <trkpt lat="44.12706" lon="7.26168">
        <ele>1733.4</ele>
        <time>2023-02-05T13:39:54Z</time>
      </trkpt>
      <trkpt lat="44.12705" lon="7.26167">
        <ele>1733.3</ele>
        <time>2023-02-05T13:39:55Z</time>
      </trkpt>
      <trkpt lat="44.12705" lon="7.26166">
        <ele>1733.3</ele>
        <time>2023-02-05T13:39:56Z</time>
      </trkpt>
      <trkpt lat="44.12704" lon="7.26165">
        <ele>1733.6</ele>
        <time>2023-02-05T13:39:57Z</time>
      </trkpt>
      <trkpt lat="44.12703" lon="7.26164">
        <ele>1733.8</ele>
        <time>2023-02-05T13:39:58Z</time>
      </trkpt>
      <trkpt lat="44.12702" lon="7.26163">
        <ele>1733.7</ele>
        <time>2023-02-05T13:39:59Z</time>
      </trkpt>
      <trkpt lat="44.127" lon="7.26163">
        <ele>1733.6</ele>
        <time>2023-02-05T13:40:00Z</time>
      </trkpt>
      <trkpt lat="44.12699" lon="7.26162">
        <ele>1733.6</ele>
        <time>2023-02-05T13:40:01Z</time>
      </trkpt>
      <trkpt lat="44.12697" lon="7.26161">
        <ele>1733.5</ele>
        <time>2023-02-05T13:40:02Z</time>
      </trkpt>
      <trkpt lat="44.12696" lon="7.26161">
        <ele>1733.4</ele>
        <time>2023-02-05T13:40:03Z</time>
      </trkpt>
      <trkpt lat="44.12695" lon="7.2616">
        <ele>1733.3</ele>
        <time>2023-02-05T13:40:04Z</time>
      </trkpt>
      <trkpt lat="44.12694" lon="7.26159">
        <ele>1733.2</ele>
        <time>2023-02-05T13:40:05Z</time>
      </trkpt>
      <trkpt lat="44.12692" lon="7.26158">
        <ele>1733</ele>
        <time>2023-02-05T13:40:06Z</time>
      </trkpt>
      <trkpt lat="44.12691" lon="7.26158">
        <ele>1732.7</ele>
        <time>2023-02-05T13:40:07Z</time>
      </trkpt>
      <trkpt lat="44.1269" lon="7.26157">
        <ele>1732.6</ele>
        <time>2023-02-05T13:40:08Z</time>
      </trkpt>
      <trkpt lat="44.1269" lon="7.26157">
        <ele>1732.4</ele>
        <time>2023-02-05T13:40:09Z</time>
      </trkpt>
      <trkpt lat="44.1269" lon="7.26156">
        <ele>1732.3</ele>
        <time>2023-02-05T13:40:10Z</time>
      </trkpt>
      <trkpt lat="44.12688" lon="7.26155">
        <ele>1732.2</ele>
        <time>2023-02-05T13:40:11Z</time>
      </trkpt>
      <trkpt lat="44.12687" lon="7.26154">
        <ele>1732.1</ele>
        <time>2023-02-05T13:40:12Z</time>
      </trkpt>
      <trkpt lat="44.12685" lon="7.26153">
        <ele>1732</ele>
        <time>2023-02-05T13:40:13Z</time>
      </trkpt>
      <trkpt lat="44.12683" lon="7.26153">
        <ele>1731.8</ele>
        <time>2023-02-05T13:40:14Z</time>
      </trkpt>
      <trkpt lat="44.12682" lon="7.26153">
        <ele>1731.7</ele>
        <time>2023-02-05T13:40:15Z</time>
      </trkpt>
      <trkpt lat="44.12681" lon="7.26152">
        <ele>1731.6</ele>
        <time>2023-02-05T13:40:16Z</time>
      </trkpt>
      <trkpt lat="44.1268" lon="7.26151">
        <ele>1731.7</ele>
        <time>2023-02-05T13:40:17Z</time>
      </trkpt>
      <trkpt lat="44.12678" lon="7.2615">
        <ele>1731.5</ele>
        <time>2023-02-05T13:40:18Z</time>
      </trkpt>
      <trkpt lat="44.12677" lon="7.26149">
        <ele>1731.2</ele>
        <time>2023-02-05T13:40:19Z</time>
      </trkpt>
      <trkpt lat="44.12676" lon="7.26149">
        <ele>1731</ele>
        <time>2023-02-05T13:40:20Z</time>
      </trkpt>
      <trkpt lat="44.12675" lon="7.26148">
        <ele>1730.8</ele>
        <time>2023-02-05T13:40:21Z</time>
      </trkpt>
      <trkpt lat="44.12674" lon="7.26147">
        <ele>1730.8</ele>
        <time>2023-02-05T13:40:22Z</time>
      </trkpt>
      <trkpt lat="44.12674" lon="7.26146">
        <ele>1730.6</ele>
        <time>2023-02-05T13:40:23Z</time>
      </trkpt>
      <trkpt lat="44.12673" lon="7.26145">
        <ele>1730.6</ele>
        <time>2023-02-05T13:40:24Z</time>
      </trkpt>
      <trkpt lat="44.12672" lon="7.26145">
        <ele>1730.6</ele>
        <time>2023-02-05T13:40:25Z</time>
      </trkpt>
      <trkpt lat="44.12672" lon="7.26144">
        <ele>1730.6</ele>
        <time>2023-02-05T13:40:26Z</time>
      </trkpt>
      <trkpt lat="44.12671" lon="7.26144">
        <ele>1730.4</ele>
        <time>2023-02-05T13:40:27Z</time>
      </trkpt>
      <trkpt lat="44.12671" lon="7.26143">
        <ele>1730.6</ele>
        <time>2023-02-05T13:40:28Z</time>
      </trkpt>
      <trkpt lat="44.12672" lon="7.26141">
        <ele>1730.7</ele>
        <time>2023-02-05T13:40:29Z</time>
      </trkpt>
      <trkpt lat="44.12672" lon="7.26139">
        <ele>1730.7</ele>
        <time>2023-02-05T13:40:30Z</time>
      </trkpt>
      <trkpt lat="44.12672" lon="7.26137">
        <ele>1730.5</ele>
        <time>2023-02-05T13:40:31Z</time>
      </trkpt>
      <trkpt lat="44.12671" lon="7.26136">
        <ele>1730.2</ele>
        <time>2023-02-05T13:40:32Z</time>
      </trkpt>
      <trkpt lat="44.1267" lon="7.26135">
        <ele>1729.4</ele>
        <time>2023-02-05T13:40:33Z</time>
      </trkpt>
      <trkpt lat="44.12671" lon="7.26133">
        <ele>1729.2</ele>
        <time>2023-02-05T13:40:34Z</time>
      </trkpt>
      <trkpt lat="44.12672" lon="7.26132">
        <ele>1729.5</ele>
        <time>2023-02-05T13:40:35Z</time>
      </trkpt>
      <trkpt lat="44.12671" lon="7.26131">
        <ele>1729.4</ele>
        <time>2023-02-05T13:40:36Z</time>
      </trkpt>
      <trkpt lat="44.12671" lon="7.2613">
        <ele>1729.2</ele>
        <time>2023-02-05T13:40:37Z</time>
      </trkpt>
      <trkpt lat="44.12671" lon="7.26129">
        <ele>1729.1</ele>
        <time>2023-02-05T13:40:38Z</time>
      </trkpt>
      <trkpt lat="44.12672" lon="7.26127">
        <ele>1729</ele>
        <time>2023-02-05T13:40:39Z</time>
      </trkpt>
      <trkpt lat="44.12672" lon="7.26126">
        <ele>1729</ele>
        <time>2023-02-05T13:40:40Z</time>
      </trkpt>
      <trkpt lat="44.12673" lon="7.26122">
        <ele>1729</ele>
        <time>2023-02-05T13:40:41Z</time>
      </trkpt>
      <trkpt lat="44.12673" lon="7.26121">
        <ele>1729</ele>
        <time>2023-02-05T13:40:42Z</time>
      </trkpt>
      <trkpt lat="44.12672" lon="7.26119">
        <ele>1729</ele>
        <time>2023-02-05T13:40:43Z</time>
      </trkpt>
      <trkpt lat="44.12672" lon="7.26118">
        <ele>1728.9</ele>
        <time>2023-02-05T13:40:44Z</time>
      </trkpt>
      <trkpt lat="44.12671" lon="7.26116">
        <ele>1728.9</ele>
        <time>2023-02-05T13:40:45Z</time>
      </trkpt>
      <trkpt lat="44.12671" lon="7.26115">
        <ele>1728.9</ele>
        <time>2023-02-05T13:40:46Z</time>
      </trkpt>
      <trkpt lat="44.12671" lon="7.26115">
        <ele>1728.8</ele>
        <time>2023-02-05T13:40:47Z</time>
      </trkpt>
      <trkpt lat="44.1267" lon="7.26114">
        <ele>1728.8</ele>
        <time>2023-02-05T13:40:48Z</time>
      </trkpt>
      <trkpt lat="44.12669" lon="7.26113">
        <ele>1728.6</ele>
        <time>2023-02-05T13:40:49Z</time>
      </trkpt>
      <trkpt lat="44.12668" lon="7.26112">
        <ele>1728.4</ele>
        <time>2023-02-05T13:40:50Z</time>
      </trkpt>
      <trkpt lat="44.12667" lon="7.26111">
        <ele>1728.2</ele>
        <time>2023-02-05T13:40:51Z</time>
      </trkpt>
      <trkpt lat="44.12665" lon="7.26111">
        <ele>1728.2</ele>
        <time>2023-02-05T13:40:52Z</time>
      </trkpt>
      <trkpt lat="44.12665" lon="7.26111">
        <ele>1727.6</ele>
        <time>2023-02-05T13:40:53Z</time>
      </trkpt>
      <trkpt lat="44.12663" lon="7.2611">
        <ele>1727.4</ele>
        <time>2023-02-05T13:40:54Z</time>
      </trkpt>
      <trkpt lat="44.12662" lon="7.26109">
        <ele>1727.3</ele>
        <time>2023-02-05T13:40:55Z</time>
      </trkpt>
      <trkpt lat="44.1266" lon="7.26109">
        <ele>1727.3</ele>
        <time>2023-02-05T13:40:56Z</time>
      </trkpt>
      <trkpt lat="44.12659" lon="7.26108">
        <ele>1727.3</ele>
        <time>2023-02-05T13:40:57Z</time>
      </trkpt>
      <trkpt lat="44.12658" lon="7.26107">
        <ele>1727.4</ele>
        <time>2023-02-05T13:40:58Z</time>
      </trkpt>
      <trkpt lat="44.12657" lon="7.26106">
        <ele>1727.5</ele>
        <time>2023-02-05T13:40:59Z</time>
      </trkpt>
      <trkpt lat="44.12655" lon="7.26106">
        <ele>1727.2</ele>
        <time>2023-02-05T13:41:00Z</time>
      </trkpt>
      <trkpt lat="44.12654" lon="7.26105">
        <ele>1727.4</ele>
        <time>2023-02-05T13:41:01Z</time>
      </trkpt>
      <trkpt lat="44.12653" lon="7.26105">
        <ele>1727.4</ele>
        <time>2023-02-05T13:41:02Z</time>
      </trkpt>
      <trkpt lat="44.12653" lon="7.26105">
        <ele>1727.4</ele>
        <time>2023-02-05T13:41:03Z</time>
      </trkpt>
      <trkpt lat="44.12652" lon="7.26105">
        <ele>1727.4</ele>
        <time>2023-02-05T13:41:04Z</time>
      </trkpt>
      <trkpt lat="44.12651" lon="7.26105">
        <ele>1727.3</ele>
        <time>2023-02-05T13:41:05Z</time>
      </trkpt>
      <trkpt lat="44.12652" lon="7.26103">
        <ele>1727.3</ele>
        <time>2023-02-05T13:41:06Z</time>
      </trkpt>
      <trkpt lat="44.12651" lon="7.26101">
        <ele>1727.2</ele>
        <time>2023-02-05T13:41:07Z</time>
      </trkpt>
      <trkpt lat="44.12649" lon="7.261">
        <ele>1727</ele>
        <time>2023-02-05T13:41:08Z</time>
      </trkpt>
      <trkpt lat="44.12649" lon="7.26099">
        <ele>1726.9</ele>
        <time>2023-02-05T13:41:09Z</time>
      </trkpt>
      <trkpt lat="44.12649" lon="7.26096">
        <ele>1727</ele>
        <time>2023-02-05T13:41:10Z</time>
      </trkpt>
      <trkpt lat="44.12649" lon="7.26093">
        <ele>1726.8</ele>
        <time>2023-02-05T13:41:11Z</time>
      </trkpt>
      <trkpt lat="44.1265" lon="7.2609">
        <ele>1726.7</ele>
        <time>2023-02-05T13:41:12Z</time>
      </trkpt>
      <trkpt lat="44.12649" lon="7.26089">
        <ele>1726.6</ele>
        <time>2023-02-05T13:41:13Z</time>
      </trkpt>
      <trkpt lat="44.12649" lon="7.26087">
        <ele>1726.4</ele>
        <time>2023-02-05T13:41:14Z</time>
      </trkpt>
      <trkpt lat="44.12648" lon="7.26085">
        <ele>1726.5</ele>
        <time>2023-02-05T13:41:15Z</time>
      </trkpt>
      <trkpt lat="44.12648" lon="7.26083">
        <ele>1726.6</ele>
        <time>2023-02-05T13:41:16Z</time>
      </trkpt>
      <trkpt lat="44.12647" lon="7.26082">
        <ele>1726.1</ele>
        <time>2023-02-05T13:41:17Z</time>
      </trkpt>
      <trkpt lat="44.12647" lon="7.2608">
        <ele>1726</ele>
        <time>2023-02-05T13:41:18Z</time>
      </trkpt>
      <trkpt lat="44.12646" lon="7.26079">
        <ele>1726.1</ele>
        <time>2023-02-05T13:41:19Z</time>
      </trkpt>
      <trkpt lat="44.12646" lon="7.26076">
        <ele>1726.1</ele>
        <time>2023-02-05T13:41:20Z</time>
      </trkpt>
      <trkpt lat="44.12646" lon="7.26075">
        <ele>1726.1</ele>
        <time>2023-02-05T13:41:21Z</time>
      </trkpt>
      <trkpt lat="44.12647" lon="7.26074">
        <ele>1725.9</ele>
        <time>2023-02-05T13:41:22Z</time>
      </trkpt>
      <trkpt lat="44.12646" lon="7.26072">
        <ele>1725.9</ele>
        <time>2023-02-05T13:41:23Z</time>
      </trkpt>
      <trkpt lat="44.12646" lon="7.26071">
        <ele>1725.8</ele>
        <time>2023-02-05T13:41:24Z</time>
      </trkpt>
      <trkpt lat="44.12646" lon="7.26069">
        <ele>1725.7</ele>
        <time>2023-02-05T13:41:25Z</time>
      </trkpt>
      <trkpt lat="44.12646" lon="7.26067">
        <ele>1725.5</ele>
        <time>2023-02-05T13:41:26Z</time>
      </trkpt>
      <trkpt lat="44.12646" lon="7.26066">
        <ele>1725.2</ele>
        <time>2023-02-05T13:41:27Z</time>
      </trkpt>
      <trkpt lat="44.12646" lon="7.26065">
        <ele>1725.1</ele>
        <time>2023-02-05T13:41:28Z</time>
      </trkpt>
      <trkpt lat="44.12646" lon="7.26063">
        <ele>1724.4</ele>
        <time>2023-02-05T13:41:29Z</time>
      </trkpt>
      <trkpt lat="44.12644" lon="7.26063">
        <ele>1724.3</ele>
        <time>2023-02-05T13:41:30Z</time>
      </trkpt>
      <trkpt lat="44.12643" lon="7.26062">
        <ele>1724.3</ele>
        <time>2023-02-05T13:41:31Z</time>
      </trkpt>
      <trkpt lat="44.12643" lon="7.2606">
        <ele>1724.3</ele>
        <time>2023-02-05T13:41:32Z</time>
      </trkpt>
      <trkpt lat="44.12643" lon="7.26058">
        <ele>1724.3</ele>
        <time>2023-02-05T13:41:33Z</time>
      </trkpt>
      <trkpt lat="44.12642" lon="7.26057">
        <ele>1724.4</ele>
        <time>2023-02-05T13:41:34Z</time>
      </trkpt>
      <trkpt lat="44.1264" lon="7.26056">
        <ele>1724.7</ele>
        <time>2023-02-05T13:41:35Z</time>
      </trkpt>
      <trkpt lat="44.12639" lon="7.26055">
        <ele>1724.7</ele>
        <time>2023-02-05T13:41:36Z</time>
      </trkpt>
      <trkpt lat="44.12638" lon="7.26054">
        <ele>1724.8</ele>
        <time>2023-02-05T13:41:37Z</time>
      </trkpt>
      <trkpt lat="44.12637" lon="7.26052">
        <ele>1724.5</ele>
        <time>2023-02-05T13:41:38Z</time>
      </trkpt>
      <trkpt lat="44.12636" lon="7.26051">
        <ele>1724.5</ele>
        <time>2023-02-05T13:41:39Z</time>
      </trkpt>
      <trkpt lat="44.12636" lon="7.2605">
        <ele>1724.4</ele>
        <time>2023-02-05T13:41:40Z</time>
      </trkpt>
      <trkpt lat="44.12636" lon="7.26048">
        <ele>1724</ele>
        <time>2023-02-05T13:41:41Z</time>
      </trkpt>
      <trkpt lat="44.12635" lon="7.26047">
        <ele>1723.9</ele>
        <time>2023-02-05T13:41:42Z</time>
      </trkpt>
      <trkpt lat="44.12634" lon="7.26047">
        <ele>1724</ele>
        <time>2023-02-05T13:41:43Z</time>
      </trkpt>
      <trkpt lat="44.12634" lon="7.26046">
        <ele>1723.8</ele>
        <time>2023-02-05T13:41:44Z</time>
      </trkpt>
      <trkpt lat="44.12634" lon="7.26045">
        <ele>1723.7</ele>
        <time>2023-02-05T13:41:45Z</time>
      </trkpt>
      <trkpt lat="44.12634" lon="7.26043">
        <ele>1723.7</ele>
        <time>2023-02-05T13:41:46Z</time>
      </trkpt>
      <trkpt lat="44.12633" lon="7.26042">
        <ele>1723.9</ele>
        <time>2023-02-05T13:41:47Z</time>
      </trkpt>
      <trkpt lat="44.12632" lon="7.26042">
        <ele>1723.7</ele>
        <time>2023-02-05T13:41:48Z</time>
      </trkpt>
      <trkpt lat="44.12631" lon="7.26041">
        <ele>1723.7</ele>
        <time>2023-02-05T13:41:49Z</time>
      </trkpt>
      <trkpt lat="44.1263" lon="7.2604">
        <ele>1723.6</ele>
        <time>2023-02-05T13:41:50Z</time>
      </trkpt>
      <trkpt lat="44.12629" lon="7.2604">
        <ele>1723.5</ele>
        <time>2023-02-05T13:41:51Z</time>
      </trkpt>
      <trkpt lat="44.12628" lon="7.26039">
        <ele>1723.3</ele>
        <time>2023-02-05T13:41:52Z</time>
      </trkpt>
      <trkpt lat="44.12626" lon="7.26039">
        <ele>1723.2</ele>
        <time>2023-02-05T13:41:53Z</time>
      </trkpt>
      <trkpt lat="44.12623" lon="7.2604">
        <ele>1723</ele>
        <time>2023-02-05T13:41:54Z</time>
      </trkpt>
      <trkpt lat="44.12621" lon="7.2604">
        <ele>1723.1</ele>
        <time>2023-02-05T13:41:55Z</time>
      </trkpt>
      <trkpt lat="44.12618" lon="7.2604">
        <ele>1722.9</ele>
        <time>2023-02-05T13:41:56Z</time>
      </trkpt>
      <trkpt lat="44.12616" lon="7.26039">
        <ele>1722.8</ele>
        <time>2023-02-05T13:41:57Z</time>
      </trkpt>
      <trkpt lat="44.12615" lon="7.26039">
        <ele>1722.7</ele>
        <time>2023-02-05T13:41:58Z</time>
      </trkpt>
      <trkpt lat="44.12613" lon="7.26039">
        <ele>1722.8</ele>
        <time>2023-02-05T13:41:59Z</time>
      </trkpt>
      <trkpt lat="44.12612" lon="7.2604">
        <ele>1722.8</ele>
        <time>2023-02-05T13:42:00Z</time>
      </trkpt>
      <trkpt lat="44.12611" lon="7.2604">
        <ele>1722.7</ele>
        <time>2023-02-05T13:42:01Z</time>
      </trkpt>
      <trkpt lat="44.1261" lon="7.26041">
        <ele>1722.5</ele>
        <time>2023-02-05T13:42:02Z</time>
      </trkpt>
      <trkpt lat="44.12608" lon="7.26042">
        <ele>1722.4</ele>
        <time>2023-02-05T13:42:03Z</time>
      </trkpt>
      <trkpt lat="44.12608" lon="7.26042">
        <ele>1722.5</ele>
        <time>2023-02-05T13:42:04Z</time>
      </trkpt>
      <trkpt lat="44.12606" lon="7.26043">
        <ele>1722.4</ele>
        <time>2023-02-05T13:42:05Z</time>
      </trkpt>
      <trkpt lat="44.12603" lon="7.26044">
        <ele>1722.2</ele>
        <time>2023-02-05T13:42:06Z</time>
      </trkpt>
      <trkpt lat="44.12602" lon="7.26046">
        <ele>1722.1</ele>
        <time>2023-02-05T13:42:07Z</time>
      </trkpt>
      <trkpt lat="44.12601" lon="7.26047">
        <ele>1721.9</ele>
        <time>2023-02-05T13:42:08Z</time>
      </trkpt>
      <trkpt lat="44.126" lon="7.26049">
        <ele>1721.8</ele>
        <time>2023-02-05T13:42:09Z</time>
      </trkpt>
      <trkpt lat="44.12599" lon="7.26051">
        <ele>1721.8</ele>
        <time>2023-02-05T13:42:10Z</time>
      </trkpt>
      <trkpt lat="44.12599" lon="7.26052">
        <ele>1721.7</ele>
        <time>2023-02-05T13:42:11Z</time>
      </trkpt>
      <trkpt lat="44.12598" lon="7.26053">
        <ele>1721.7</ele>
        <time>2023-02-05T13:42:12Z</time>
      </trkpt>
      <trkpt lat="44.12598" lon="7.26054">
        <ele>1721.6</ele>
        <time>2023-02-05T13:42:13Z</time>
      </trkpt>
      <trkpt lat="44.12598" lon="7.26055">
        <ele>1721.6</ele>
        <time>2023-02-05T13:42:14Z</time>
      </trkpt>
      <trkpt lat="44.12597" lon="7.26056">
        <ele>1721.5</ele>
        <time>2023-02-05T13:42:15Z</time>
      </trkpt>
      <trkpt lat="44.12597" lon="7.26057">
        <ele>1721.4</ele>
        <time>2023-02-05T13:42:16Z</time>
      </trkpt>
      <trkpt lat="44.12597" lon="7.26058">
        <ele>1721.3</ele>
        <time>2023-02-05T13:42:17Z</time>
      </trkpt>
      <trkpt lat="44.12596" lon="7.26059">
        <ele>1720.7</ele>
        <time>2023-02-05T13:42:18Z</time>
      </trkpt>
      <trkpt lat="44.12597" lon="7.26061">
        <ele>1720.6</ele>
        <time>2023-02-05T13:42:19Z</time>
      </trkpt>
      <trkpt lat="44.12597" lon="7.26062">
        <ele>1720.6</ele>
        <time>2023-02-05T13:42:20Z</time>
      </trkpt>
      <trkpt lat="44.12597" lon="7.26062">
        <ele>1720.6</ele>
        <time>2023-02-05T13:42:21Z</time>
      </trkpt>
      <trkpt lat="44.12597" lon="7.26063">
        <ele>1720.7</ele>
        <time>2023-02-05T13:42:22Z</time>
      </trkpt>
      <trkpt lat="44.12597" lon="7.26063">
        <ele>1720.7</ele>
        <time>2023-02-05T13:42:23Z</time>
      </trkpt>
      <trkpt lat="44.12597" lon="7.26063">
        <ele>1720.7</ele>
        <time>2023-02-05T13:42:24Z</time>
      </trkpt>
      <trkpt lat="44.12597" lon="7.26064">
        <ele>1720.7</ele>
        <time>2023-02-05T13:42:25Z</time>
      </trkpt>
      <trkpt lat="44.12597" lon="7.26064">
        <ele>1720.6</ele>
        <time>2023-02-05T13:42:26Z</time>
      </trkpt>
      <trkpt lat="44.12597" lon="7.26065">
        <ele>1720.7</ele>
        <time>2023-02-05T13:42:27Z</time>
      </trkpt>
      <trkpt lat="44.12597" lon="7.26066">
        <ele>1720.7</ele>
        <time>2023-02-05T13:42:28Z</time>
      </trkpt>
      <trkpt lat="44.12597" lon="7.26067">
        <ele>1720.6</ele>
        <time>2023-02-05T13:42:29Z</time>
      </trkpt>
      <trkpt lat="44.12596" lon="7.26068">
        <ele>1720.6</ele>
        <time>2023-02-05T13:42:30Z</time>
      </trkpt>
      <trkpt lat="44.12596" lon="7.26068">
        <ele>1720.5</ele>
        <time>2023-02-05T13:42:31Z</time>
      </trkpt>
      <trkpt lat="44.12597" lon="7.2607">
        <ele>1720.5</ele>
        <time>2023-02-05T13:42:32Z</time>
      </trkpt>
      <trkpt lat="44.12597" lon="7.26072">
        <ele>1720.4</ele>
        <time>2023-02-05T13:42:33Z</time>
      </trkpt>
      <trkpt lat="44.12597" lon="7.26073">
        <ele>1720.4</ele>
        <time>2023-02-05T13:42:34Z</time>
      </trkpt>
      <trkpt lat="44.12598" lon="7.26074">
        <ele>1719.7</ele>
        <time>2023-02-05T13:42:35Z</time>
      </trkpt>
      <trkpt lat="44.12598" lon="7.26076">
        <ele>1719.6</ele>
        <time>2023-02-05T13:42:36Z</time>
      </trkpt>
      <trkpt lat="44.12597" lon="7.26077">
        <ele>1719.7</ele>
        <time>2023-02-05T13:42:37Z</time>
      </trkpt>
      <trkpt lat="44.12597" lon="7.26078">
        <ele>1719.7</ele>
        <time>2023-02-05T13:42:38Z</time>
      </trkpt>
      <trkpt lat="44.12596" lon="7.2608">
        <ele>1719.8</ele>
        <time>2023-02-05T13:42:39Z</time>
      </trkpt>
      <trkpt lat="44.12596" lon="7.2608">
        <ele>1719.7</ele>
        <time>2023-02-05T13:42:40Z</time>
      </trkpt>
      <trkpt lat="44.12597" lon="7.26082">
        <ele>1719.7</ele>
        <time>2023-02-05T13:42:41Z</time>
      </trkpt>
      <trkpt lat="44.12597" lon="7.26083">
        <ele>1719.6</ele>
        <time>2023-02-05T13:42:42Z</time>
      </trkpt>
      <trkpt lat="44.12596" lon="7.26085">
        <ele>1719.5</ele>
        <time>2023-02-05T13:42:43Z</time>
      </trkpt>
      <trkpt lat="44.12596" lon="7.26086">
        <ele>1719.3</ele>
        <time>2023-02-05T13:42:44Z</time>
      </trkpt>
      <trkpt lat="44.12596" lon="7.26086">
        <ele>1719.1</ele>
        <time>2023-02-05T13:42:45Z</time>
      </trkpt>
      <trkpt lat="44.12596" lon="7.26087">
        <ele>1718.8</ele>
        <time>2023-02-05T13:42:46Z</time>
      </trkpt>
      <trkpt lat="44.12596" lon="7.26088">
        <ele>1718.6</ele>
        <time>2023-02-05T13:42:47Z</time>
      </trkpt>
      <trkpt lat="44.12596" lon="7.2609">
        <ele>1718.5</ele>
        <time>2023-02-05T13:42:48Z</time>
      </trkpt>
      <trkpt lat="44.12596" lon="7.26092">
        <ele>1718.5</ele>
        <time>2023-02-05T13:42:49Z</time>
      </trkpt>
      <trkpt lat="44.12596" lon="7.26093">
        <ele>1718.5</ele>
        <time>2023-02-05T13:42:50Z</time>
      </trkpt>
      <trkpt lat="44.12595" lon="7.26095">
        <ele>1718.4</ele>
        <time>2023-02-05T13:42:51Z</time>
      </trkpt>
      <trkpt lat="44.12595" lon="7.26096">
        <ele>1718.4</ele>
        <time>2023-02-05T13:42:52Z</time>
      </trkpt>
      <trkpt lat="44.12595" lon="7.26097">
        <ele>1718.4</ele>
        <time>2023-02-05T13:42:53Z</time>
      </trkpt>
      <trkpt lat="44.12595" lon="7.26098">
        <ele>1718.3</ele>
        <time>2023-02-05T13:42:54Z</time>
      </trkpt>
      <trkpt lat="44.12595" lon="7.26099">
        <ele>1718.2</ele>
        <time>2023-02-05T13:42:55Z</time>
      </trkpt>
      <trkpt lat="44.12595" lon="7.261">
        <ele>1718.2</ele>
        <time>2023-02-05T13:42:56Z</time>
      </trkpt>
      <trkpt lat="44.12595" lon="7.261">
        <ele>1718.1</ele>
        <time>2023-02-05T13:42:57Z</time>
      </trkpt>
      <trkpt lat="44.12595" lon="7.26101">
        <ele>1718</ele>
        <time>2023-02-05T13:42:58Z</time>
      </trkpt>
      <trkpt lat="44.12595" lon="7.26101">
        <ele>1717.8</ele>
        <time>2023-02-05T13:42:59Z</time>
      </trkpt>
      <trkpt lat="44.12595" lon="7.26102">
        <ele>1717.7</ele>
        <time>2023-02-05T13:43:00Z</time>
      </trkpt>
      <trkpt lat="44.12595" lon="7.26103">
        <ele>1717.7</ele>
        <time>2023-02-05T13:43:01Z</time>
      </trkpt>
      <trkpt lat="44.12595" lon="7.26104">
        <ele>1717.5</ele>
        <time>2023-02-05T13:43:02Z</time>
      </trkpt>
      <trkpt lat="44.12594" lon="7.26106">
        <ele>1717.4</ele>
        <time>2023-02-05T13:43:03Z</time>
      </trkpt>
      <trkpt lat="44.12594" lon="7.26107">
        <ele>1717.5</ele>
        <time>2023-02-05T13:43:04Z</time>
      </trkpt>
      <trkpt lat="44.12594" lon="7.26108">
        <ele>1717.8</ele>
        <time>2023-02-05T13:43:05Z</time>
      </trkpt>
      <trkpt lat="44.12594" lon="7.26108">
        <ele>1717.7</ele>
        <time>2023-02-05T13:43:06Z</time>
      </trkpt>
      <trkpt lat="44.12594" lon="7.26109">
        <ele>1717.7</ele>
        <time>2023-02-05T13:43:07Z</time>
      </trkpt>
      <trkpt lat="44.12594" lon="7.26109">
        <ele>1717.6</ele>
        <time>2023-02-05T13:43:08Z</time>
      </trkpt>
      <trkpt lat="44.12594" lon="7.26109">
        <ele>1717.5</ele>
        <time>2023-02-05T13:43:09Z</time>
      </trkpt>
      <trkpt lat="44.12595" lon="7.2611">
        <ele>1717.4</ele>
        <time>2023-02-05T13:43:10Z</time>
      </trkpt>
      <trkpt lat="44.12595" lon="7.26111">
        <ele>1717.4</ele>
        <time>2023-02-05T13:43:11Z</time>
      </trkpt>
      <trkpt lat="44.12595" lon="7.26112">
        <ele>1717.3</ele>
        <time>2023-02-05T13:43:12Z</time>
      </trkpt>
      <trkpt lat="44.12596" lon="7.26112">
        <ele>1717.3</ele>
        <time>2023-02-05T13:43:13Z</time>
      </trkpt>
      <trkpt lat="44.12596" lon="7.26113">
        <ele>1717.2</ele>
        <time>2023-02-05T13:43:14Z</time>
      </trkpt>
      <trkpt lat="44.12596" lon="7.26113">
        <ele>1717.2</ele>
        <time>2023-02-05T13:43:15Z</time>
      </trkpt>
      <trkpt lat="44.12596" lon="7.26113">
        <ele>1717.2</ele>
        <time>2023-02-05T13:43:16Z</time>
      </trkpt>
      <trkpt lat="44.12596" lon="7.26113">
        <ele>1717.2</ele>
        <time>2023-02-05T13:43:17Z</time>
      </trkpt>
      <trkpt lat="44.12596" lon="7.26113">
        <ele>1717.1</ele>
        <time>2023-02-05T13:43:18Z</time>
      </trkpt>
      <trkpt lat="44.12597" lon="7.26114">
        <ele>1717</ele>
        <time>2023-02-05T13:43:19Z</time>
      </trkpt>
      <trkpt lat="44.12597" lon="7.26114">
        <ele>1716.8</ele>
        <time>2023-02-05T13:43:20Z</time>
      </trkpt>
      <trkpt lat="44.12597" lon="7.26114">
        <ele>1716.8</ele>
        <time>2023-02-05T13:43:21Z</time>
      </trkpt>
      <trkpt lat="44.12597" lon="7.26114">
        <ele>1716.7</ele>
        <time>2023-02-05T13:43:22Z</time>
      </trkpt>
      <trkpt lat="44.12597" lon="7.26114">
        <ele>1716.6</ele>
        <time>2023-02-05T13:43:23Z</time>
      </trkpt>
      <trkpt lat="44.12597" lon="7.26115">
        <ele>1716.6</ele>
        <time>2023-02-05T13:43:24Z</time>
      </trkpt>
      <trkpt lat="44.12597" lon="7.26115">
        <ele>1716.7</ele>
        <time>2023-02-05T13:43:25Z</time>
      </trkpt>
      <trkpt lat="44.12597" lon="7.26115">
        <ele>1716.8</ele>
        <time>2023-02-05T13:43:26Z</time>
      </trkpt>
      <trkpt lat="44.12597" lon="7.26114">
        <ele>1716.8</ele>
        <time>2023-02-05T13:43:27Z</time>
      </trkpt>
      <trkpt lat="44.12597" lon="7.26115">
        <ele>1716.8</ele>
        <time>2023-02-05T13:43:28Z</time>
      </trkpt>
      <trkpt lat="44.12598" lon="7.26115">
        <ele>1716.8</ele>
        <time>2023-02-05T13:43:29Z</time>
      </trkpt>
      <trkpt lat="44.12598" lon="7.26116">
        <ele>1717</ele>
        <time>2023-02-05T13:43:30Z</time>
      </trkpt>
      <trkpt lat="44.12598" lon="7.26117">
        <ele>1716.7</ele>
        <time>2023-02-05T13:43:31Z</time>
      </trkpt>
      <trkpt lat="44.12598" lon="7.26119">
        <ele>1716.9</ele>
        <time>2023-02-05T13:43:32Z</time>
      </trkpt>
      <trkpt lat="44.12597" lon="7.2612">
        <ele>1716.9</ele>
        <time>2023-02-05T13:43:33Z</time>
      </trkpt>
      <trkpt lat="44.12597" lon="7.26121">
        <ele>1716.8</ele>
        <time>2023-02-05T13:43:34Z</time>
      </trkpt>
      <trkpt lat="44.12597" lon="7.26123">
        <ele>1716.7</ele>
        <time>2023-02-05T13:43:35Z</time>
      </trkpt>
      <trkpt lat="44.12597" lon="7.26124">
        <ele>1716.4</ele>
        <time>2023-02-05T13:43:36Z</time>
      </trkpt>
      <trkpt lat="44.12597" lon="7.26125">
        <ele>1716.3</ele>
        <time>2023-02-05T13:43:37Z</time>
      </trkpt>
      <trkpt lat="44.12598" lon="7.26126">
        <ele>1716.1</ele>
        <time>2023-02-05T13:43:38Z</time>
      </trkpt>
      <trkpt lat="44.12598" lon="7.26127">
        <ele>1716.1</ele>
        <time>2023-02-05T13:43:39Z</time>
      </trkpt>
      <trkpt lat="44.12598" lon="7.26129">
        <ele>1716.2</ele>
        <time>2023-02-05T13:43:40Z</time>
      </trkpt>
      <trkpt lat="44.12598" lon="7.2613">
        <ele>1716.2</ele>
        <time>2023-02-05T13:43:41Z</time>
      </trkpt>
      <trkpt lat="44.12598" lon="7.26131">
        <ele>1716.2</ele>
        <time>2023-02-05T13:43:42Z</time>
      </trkpt>
      <trkpt lat="44.12598" lon="7.26133">
        <ele>1716.2</ele>
        <time>2023-02-05T13:43:43Z</time>
      </trkpt>
      <trkpt lat="44.12598" lon="7.26134">
        <ele>1716.2</ele>
        <time>2023-02-05T13:43:44Z</time>
      </trkpt>
      <trkpt lat="44.12598" lon="7.26135">
        <ele>1716.2</ele>
        <time>2023-02-05T13:43:45Z</time>
      </trkpt>
      <trkpt lat="44.12597" lon="7.26137">
        <ele>1716.1</ele>
        <time>2023-02-05T13:43:46Z</time>
      </trkpt>
      <trkpt lat="44.12596" lon="7.26139">
        <ele>1716.1</ele>
        <time>2023-02-05T13:43:47Z</time>
      </trkpt>
      <trkpt lat="44.12597" lon="7.2614">
        <ele>1716</ele>
        <time>2023-02-05T13:43:48Z</time>
      </trkpt>
      <trkpt lat="44.12597" lon="7.26142">
        <ele>1715.9</ele>
        <time>2023-02-05T13:43:49Z</time>
      </trkpt>
      <trkpt lat="44.12597" lon="7.26143">
        <ele>1715.9</ele>
        <time>2023-02-05T13:43:50Z</time>
      </trkpt>
      <trkpt lat="44.12597" lon="7.26144">
        <ele>1715.8</ele>
        <time>2023-02-05T13:43:51Z</time>
      </trkpt>
      <trkpt lat="44.12598" lon="7.26143">
        <ele>1715.8</ele>
        <time>2023-02-05T13:43:52Z</time>
      </trkpt>
      <trkpt lat="44.12598" lon="7.26143">
        <ele>1715.7</ele>
        <time>2023-02-05T13:43:53Z</time>
      </trkpt>
      <trkpt lat="44.12597" lon="7.26143">
        <ele>1715.4</ele>
        <time>2023-02-05T13:43:54Z</time>
      </trkpt>
      <trkpt lat="44.12597" lon="7.26143">
        <ele>1715.3</ele>
        <time>2023-02-05T13:43:55Z</time>
      </trkpt>
      <trkpt lat="44.12599" lon="7.26143">
        <ele>1715.3</ele>
        <time>2023-02-05T13:43:56Z</time>
      </trkpt>
      <trkpt lat="44.12599" lon="7.26143">
        <ele>1715.2</ele>
        <time>2023-02-05T13:43:57Z</time>
      </trkpt>
      <trkpt lat="44.126" lon="7.26143">
        <ele>1715.2</ele>
        <time>2023-02-05T13:43:58Z</time>
      </trkpt>
      <trkpt lat="44.12601" lon="7.26143">
        <ele>1715.3</ele>
        <time>2023-02-05T13:43:59Z</time>
      </trkpt>
      <trkpt lat="44.12601" lon="7.26143">
        <ele>1715.4</ele>
        <time>2023-02-05T13:44:00Z</time>
      </trkpt>
      <trkpt lat="44.12602" lon="7.26144">
        <ele>1715.4</ele>
        <time>2023-02-05T13:44:01Z</time>
      </trkpt>
      <trkpt lat="44.12602" lon="7.26144">
        <ele>1715.4</ele>
        <time>2023-02-05T13:44:02Z</time>
      </trkpt>
      <trkpt lat="44.12602" lon="7.26144">
        <ele>1715.4</ele>
        <time>2023-02-05T13:44:03Z</time>
      </trkpt>
      <trkpt lat="44.12602" lon="7.26144">
        <ele>1715.4</ele>
        <time>2023-02-05T13:44:04Z</time>
      </trkpt>
      <trkpt lat="44.12602" lon="7.26144">
        <ele>1715.4</ele>
        <time>2023-02-05T13:44:05Z</time>
      </trkpt>
      <trkpt lat="44.12602" lon="7.26144">
        <ele>1715.4</ele>
        <time>2023-02-05T13:44:06Z</time>
      </trkpt>
      <trkpt lat="44.12603" lon="7.26145">
        <ele>1715.4</ele>
        <time>2023-02-05T13:44:07Z</time>
      </trkpt>
      <trkpt lat="44.12603" lon="7.26145">
        <ele>1715.4</ele>
        <time>2023-02-05T13:44:08Z</time>
      </trkpt>
      <trkpt lat="44.12603" lon="7.26145">
        <ele>1715.4</ele>
        <time>2023-02-05T13:44:09Z</time>
      </trkpt>
      <trkpt lat="44.12603" lon="7.26145">
        <ele>1715.4</ele>
        <time>2023-02-05T13:44:10Z</time>
      </trkpt>
      <trkpt lat="44.12603" lon="7.26144">
        <ele>1715.3</ele>
        <time>2023-02-05T13:44:11Z</time>
      </trkpt>
      <trkpt lat="44.12603" lon="7.26145">
        <ele>1715.3</ele>
        <time>2023-02-05T13:44:12Z</time>
      </trkpt>
      <trkpt lat="44.12603" lon="7.26145">
        <ele>1715.3</ele>
        <time>2023-02-05T13:44:13Z</time>
      </trkpt>
      <trkpt lat="44.12603" lon="7.26143">
        <ele>1715.3</ele>
        <time>2023-02-05T13:44:14Z</time>
      </trkpt>
      <trkpt lat="44.12603" lon="7.26143">
        <ele>1715.4</ele>
        <time>2023-02-05T13:44:15Z</time>
      </trkpt>
      <trkpt lat="44.12603" lon="7.26143">
        <ele>1715.4</ele>
        <time>2023-02-05T13:44:16Z</time>
      </trkpt>
      <trkpt lat="44.12603" lon="7.26143">
        <ele>1715.4</ele>
        <time>2023-02-05T13:44:17Z</time>
      </trkpt>
      <trkpt lat="44.12603" lon="7.26143">
        <ele>1715.4</ele>
        <time>2023-02-05T13:44:18Z</time>
      </trkpt>
      <trkpt lat="44.12603" lon="7.26143">
        <ele>1715.4</ele>
        <time>2023-02-05T13:44:19Z</time>
      </trkpt>
      <trkpt lat="44.12603" lon="7.26143">
        <ele>1715.3</ele>
        <time>2023-02-05T13:44:20Z</time>
      </trkpt>
      <trkpt lat="44.12603" lon="7.26143">
        <ele>1715.3</ele>
        <time>2023-02-05T13:44:21Z</time>
      </trkpt>
      <trkpt lat="44.12603" lon="7.26143">
        <ele>1715.2</ele>
        <time>2023-02-05T13:44:22Z</time>
      </trkpt>
      <trkpt lat="44.12603" lon="7.26143">
        <ele>1715.3</ele>
        <time>2023-02-05T13:44:23Z</time>
      </trkpt>
      <trkpt lat="44.12603" lon="7.26143">
        <ele>1715.3</ele>
        <time>2023-02-05T13:44:24Z</time>
      </trkpt>
      <trkpt lat="44.12603" lon="7.26143">
        <ele>1715.3</ele>
        <time>2023-02-05T13:44:25Z</time>
      </trkpt>
      <trkpt lat="44.12602" lon="7.26143">
        <ele>1715.3</ele>
        <time>2023-02-05T13:44:26Z</time>
      </trkpt>
      <trkpt lat="44.12602" lon="7.26143">
        <ele>1715.2</ele>
        <time>2023-02-05T13:44:27Z</time>
      </trkpt>
      <trkpt lat="44.12602" lon="7.26143">
        <ele>1715.2</ele>
        <time>2023-02-05T13:44:28Z</time>
      </trkpt>
      <trkpt lat="44.12602" lon="7.26143">
        <ele>1715.2</ele>
        <time>2023-02-05T13:44:29Z</time>
      </trkpt>
      <trkpt lat="44.12602" lon="7.26143">
        <ele>1715.2</ele>
        <time>2023-02-05T13:44:30Z</time>
      </trkpt>
      <trkpt lat="44.12602" lon="7.26143">
        <ele>1715.2</ele>
        <time>2023-02-05T13:44:31Z</time>
      </trkpt>
      <trkpt lat="44.12601" lon="7.26143">
        <ele>1715.3</ele>
        <time>2023-02-05T13:44:32Z</time>
      </trkpt>
      <trkpt lat="44.12601" lon="7.26143">
        <ele>1715.2</ele>
        <time>2023-02-05T13:44:33Z</time>
      </trkpt>
      <trkpt lat="44.12601" lon="7.26144">
        <ele>1715.5</ele>
        <time>2023-02-05T13:44:34Z</time>
      </trkpt>
      <trkpt lat="44.12601" lon="7.26145">
        <ele>1715.4</ele>
        <time>2023-02-05T13:44:35Z</time>
      </trkpt>
      <trkpt lat="44.12602" lon="7.26145">
        <ele>1715.3</ele>
        <time>2023-02-05T13:44:36Z</time>
      </trkpt>
      <trkpt lat="44.12602" lon="7.26145">
        <ele>1715.3</ele>
        <time>2023-02-05T13:44:37Z</time>
      </trkpt>
      <trkpt lat="44.12602" lon="7.26145">
        <ele>1715.3</ele>
        <time>2023-02-05T13:44:38Z</time>
      </trkpt>
      <trkpt lat="44.12603" lon="7.26144">
        <ele>1715.3</ele>
        <time>2023-02-05T13:44:39Z</time>
      </trkpt>
      <trkpt lat="44.12604" lon="7.26144">
        <ele>1715.3</ele>
        <time>2023-02-05T13:44:40Z</time>
      </trkpt>
      <trkpt lat="44.12604" lon="7.26144">
        <ele>1715.3</ele>
        <time>2023-02-05T13:44:41Z</time>
      </trkpt>
      <trkpt lat="44.12605" lon="7.26144">
        <ele>1715.3</ele>
        <time>2023-02-05T13:44:42Z</time>
      </trkpt>
      <trkpt lat="44.12605" lon="7.26144">
        <ele>1715.2</ele>
        <time>2023-02-05T13:44:43Z</time>
      </trkpt>
      <trkpt lat="44.12605" lon="7.26144">
        <ele>1715.2</ele>
        <time>2023-02-05T13:44:44Z</time>
      </trkpt>
      <trkpt lat="44.12605" lon="7.26144">
        <ele>1715.2</ele>
        <time>2023-02-05T13:44:45Z</time>
      </trkpt>
      <trkpt lat="44.12606" lon="7.26144">
        <ele>1715.3</ele>
        <time>2023-02-05T13:44:46Z</time>
      </trkpt>
      <trkpt lat="44.12607" lon="7.26145">
        <ele>1715.3</ele>
        <time>2023-02-05T13:44:47Z</time>
      </trkpt>
      <trkpt lat="44.12607" lon="7.26144">
        <ele>1715.3</ele>
        <time>2023-02-05T13:44:48Z</time>
      </trkpt>
      <trkpt lat="44.12607" lon="7.26144">
        <ele>1715.2</ele>
        <time>2023-02-05T13:44:49Z</time>
      </trkpt>
      <trkpt lat="44.12607" lon="7.26143">
        <ele>1715.2</ele>
        <time>2023-02-05T13:44:50Z</time>
      </trkpt>
      <trkpt lat="44.12608" lon="7.26143">
        <ele>1715.2</ele>
        <time>2023-02-05T13:44:51Z</time>
      </trkpt>
      <trkpt lat="44.12608" lon="7.26142">
        <ele>1715.2</ele>
        <time>2023-02-05T13:44:52Z</time>
      </trkpt>
      <trkpt lat="44.12608" lon="7.26142">
        <ele>1715.2</ele>
        <time>2023-02-05T13:44:53Z</time>
      </trkpt>
      <trkpt lat="44.12609" lon="7.26142">
        <ele>1715.2</ele>
        <time>2023-02-05T13:44:54Z</time>
      </trkpt>
      <trkpt lat="44.12609" lon="7.26143">
        <ele>1715.2</ele>
        <time>2023-02-05T13:44:55Z</time>
      </trkpt>
      <trkpt lat="44.12609" lon="7.26143">
        <ele>1715.2</ele>
        <time>2023-02-05T13:44:56Z</time>
      </trkpt>
      <trkpt lat="44.12608" lon="7.26143">
        <ele>1715.2</ele>
        <time>2023-02-05T13:44:57Z</time>
      </trkpt>
      <trkpt lat="44.12609" lon="7.26143">
        <ele>1715.2</ele>
        <time>2023-02-05T13:44:58Z</time>
      </trkpt>
      <trkpt lat="44.12609" lon="7.26143">
        <ele>1715.2</ele>
        <time>2023-02-05T13:44:59Z</time>
      </trkpt>
      <trkpt lat="44.12608" lon="7.26142">
        <ele>1715.2</ele>
        <time>2023-02-05T13:45:00Z</time>
      </trkpt>
      <trkpt lat="44.12608" lon="7.26142">
        <ele>1715.2</ele>
        <time>2023-02-05T13:45:01Z</time>
      </trkpt>
      <trkpt lat="44.12608" lon="7.26142">
        <ele>1715.1</ele>
        <time>2023-02-05T13:45:02Z</time>
      </trkpt>
      <trkpt lat="44.12607" lon="7.26142">
        <ele>1715.1</ele>
        <time>2023-02-05T13:45:03Z</time>
      </trkpt>
      <trkpt lat="44.12607" lon="7.26142">
        <ele>1715.1</ele>
        <time>2023-02-05T13:45:04Z</time>
      </trkpt>
      <trkpt lat="44.12607" lon="7.26142">
        <ele>1715.1</ele>
        <time>2023-02-05T13:45:05Z</time>
      </trkpt>
      <trkpt lat="44.12607" lon="7.26142">
        <ele>1715</ele>
        <time>2023-02-05T13:45:06Z</time>
      </trkpt>
      <trkpt lat="44.12607" lon="7.26142">
        <ele>1715</ele>
        <time>2023-02-05T13:45:07Z</time>
      </trkpt>
      <trkpt lat="44.12607" lon="7.26142">
        <ele>1715</ele>
        <time>2023-02-05T13:45:08Z</time>
      </trkpt>
      <trkpt lat="44.12607" lon="7.26142">
        <ele>1714.9</ele>
        <time>2023-02-05T13:45:09Z</time>
      </trkpt>
      <trkpt lat="44.12606" lon="7.26142">
        <ele>1714.9</ele>
        <time>2023-02-05T13:45:10Z</time>
      </trkpt>
      <trkpt lat="44.12607" lon="7.26143">
        <ele>1714.9</ele>
        <time>2023-02-05T13:45:11Z</time>
      </trkpt>
      <trkpt lat="44.12606" lon="7.26145">
        <ele>1714.9</ele>
        <time>2023-02-05T13:45:12Z</time>
      </trkpt>
      <trkpt lat="44.12606" lon="7.26147">
        <ele>1714.9</ele>
        <time>2023-02-05T13:45:13Z</time>
      </trkpt>
      <trkpt lat="44.12607" lon="7.26148">
        <ele>1714.8</ele>
        <time>2023-02-05T13:45:14Z</time>
      </trkpt>
      <trkpt lat="44.12607" lon="7.2615">
        <ele>1714.7</ele>
        <time>2023-02-05T13:45:15Z</time>
      </trkpt>
      <trkpt lat="44.12606" lon="7.26152">
        <ele>1714.6</ele>
        <time>2023-02-05T13:45:16Z</time>
      </trkpt>
      <trkpt lat="44.12605" lon="7.26153">
        <ele>1714.5</ele>
        <time>2023-02-05T13:45:17Z</time>
      </trkpt>
      <trkpt lat="44.12605" lon="7.26155">
        <ele>1714.5</ele>
        <time>2023-02-05T13:45:18Z</time>
      </trkpt>
      <trkpt lat="44.12605" lon="7.26157">
        <ele>1714.5</ele>
        <time>2023-02-05T13:45:19Z</time>
      </trkpt>
      <trkpt lat="44.12604" lon="7.26159">
        <ele>1714.4</ele>
        <time>2023-02-05T13:45:20Z</time>
      </trkpt>
      <trkpt lat="44.12603" lon="7.26161">
        <ele>1714.2</ele>
        <time>2023-02-05T13:45:21Z</time>
      </trkpt>
      <trkpt lat="44.12603" lon="7.26162">
        <ele>1714.1</ele>
        <time>2023-02-05T13:45:22Z</time>
      </trkpt>
      <trkpt lat="44.12603" lon="7.26164">
        <ele>1714.1</ele>
        <time>2023-02-05T13:45:23Z</time>
      </trkpt>
      <trkpt lat="44.12603" lon="7.26166">
        <ele>1714</ele>
        <time>2023-02-05T13:45:24Z</time>
      </trkpt>
      <trkpt lat="44.12602" lon="7.26167">
        <ele>1713.9</ele>
        <time>2023-02-05T13:45:25Z</time>
      </trkpt>
      <trkpt lat="44.12601" lon="7.26169">
        <ele>1713.8</ele>
        <time>2023-02-05T13:45:26Z</time>
      </trkpt>
      <trkpt lat="44.12601" lon="7.26171">
        <ele>1713.7</ele>
        <time>2023-02-05T13:45:27Z</time>
      </trkpt>
      <trkpt lat="44.126" lon="7.26172">
        <ele>1713.6</ele>
        <time>2023-02-05T13:45:28Z</time>
      </trkpt>
      <trkpt lat="44.12601" lon="7.26173">
        <ele>1713.6</ele>
        <time>2023-02-05T13:45:29Z</time>
      </trkpt>
      <trkpt lat="44.12601" lon="7.26174">
        <ele>1713.5</ele>
        <time>2023-02-05T13:45:30Z</time>
      </trkpt>
      <trkpt lat="44.12601" lon="7.26175">
        <ele>1713.4</ele>
        <time>2023-02-05T13:45:31Z</time>
      </trkpt>
      <trkpt lat="44.126" lon="7.26176">
        <ele>1713.4</ele>
        <time>2023-02-05T13:45:32Z</time>
      </trkpt>
      <trkpt lat="44.12599" lon="7.26178">
        <ele>1713.3</ele>
        <time>2023-02-05T13:45:33Z</time>
      </trkpt>
      <trkpt lat="44.12599" lon="7.2618">
        <ele>1713.2</ele>
        <time>2023-02-05T13:45:34Z</time>
      </trkpt>
      <trkpt lat="44.12599" lon="7.26182">
        <ele>1713</ele>
        <time>2023-02-05T13:45:35Z</time>
      </trkpt>
      <trkpt lat="44.12599" lon="7.26183">
        <ele>1712.9</ele>
        <time>2023-02-05T13:45:36Z</time>
      </trkpt>
      <trkpt lat="44.12598" lon="7.26185">
        <ele>1712.8</ele>
        <time>2023-02-05T13:45:37Z</time>
      </trkpt>
      <trkpt lat="44.12598" lon="7.26187">
        <ele>1712.8</ele>
        <time>2023-02-05T13:45:38Z</time>
      </trkpt>
      <trkpt lat="44.12598" lon="7.26189">
        <ele>1712.7</ele>
        <time>2023-02-05T13:45:39Z</time>
      </trkpt>
      <trkpt lat="44.12597" lon="7.26189">
        <ele>1712.6</ele>
        <time>2023-02-05T13:45:40Z</time>
      </trkpt>
      <trkpt lat="44.12597" lon="7.26191">
        <ele>1712.5</ele>
        <time>2023-02-05T13:45:41Z</time>
      </trkpt>
      <trkpt lat="44.12596" lon="7.26192">
        <ele>1712.4</ele>
        <time>2023-02-05T13:45:42Z</time>
      </trkpt>
      <trkpt lat="44.12596" lon="7.26193">
        <ele>1712.2</ele>
        <time>2023-02-05T13:45:43Z</time>
      </trkpt>
      <trkpt lat="44.12596" lon="7.26194">
        <ele>1712.1</ele>
        <time>2023-02-05T13:45:44Z</time>
      </trkpt>
      <trkpt lat="44.12596" lon="7.26195">
        <ele>1712</ele>
        <time>2023-02-05T13:45:45Z</time>
      </trkpt>
      <trkpt lat="44.12596" lon="7.26196">
        <ele>1711.9</ele>
        <time>2023-02-05T13:45:46Z</time>
      </trkpt>
      <trkpt lat="44.12595" lon="7.26198">
        <ele>1711.8</ele>
        <time>2023-02-05T13:45:47Z</time>
      </trkpt>
      <trkpt lat="44.12593" lon="7.26199">
        <ele>1711.6</ele>
        <time>2023-02-05T13:45:48Z</time>
      </trkpt>
      <trkpt lat="44.12592" lon="7.26201">
        <ele>1711.5</ele>
        <time>2023-02-05T13:45:49Z</time>
      </trkpt>
      <trkpt lat="44.12592" lon="7.26201">
        <ele>1711.5</ele>
        <time>2023-02-05T13:45:50Z</time>
      </trkpt>
      <trkpt lat="44.12591" lon="7.26203">
        <ele>1711.4</ele>
        <time>2023-02-05T13:45:51Z</time>
      </trkpt>
      <trkpt lat="44.12591" lon="7.26204">
        <ele>1711.4</ele>
        <time>2023-02-05T13:45:52Z</time>
      </trkpt>
      <trkpt lat="44.1259" lon="7.26205">
        <ele>1711.3</ele>
        <time>2023-02-05T13:45:53Z</time>
      </trkpt>
      <trkpt lat="44.12589" lon="7.26207">
        <ele>1711.3</ele>
        <time>2023-02-05T13:45:54Z</time>
      </trkpt>
      <trkpt lat="44.12589" lon="7.26209">
        <ele>1711.1</ele>
        <time>2023-02-05T13:45:55Z</time>
      </trkpt>
      <trkpt lat="44.12588" lon="7.26211">
        <ele>1711.1</ele>
        <time>2023-02-05T13:45:56Z</time>
      </trkpt>
      <trkpt lat="44.12588" lon="7.26213">
        <ele>1711</ele>
        <time>2023-02-05T13:45:57Z</time>
      </trkpt>
      <trkpt lat="44.12588" lon="7.26215">
        <ele>1710.8</ele>
        <time>2023-02-05T13:45:58Z</time>
      </trkpt>
      <trkpt lat="44.12588" lon="7.26217">
        <ele>1710.7</ele>
        <time>2023-02-05T13:45:59Z</time>
      </trkpt>
      <trkpt lat="44.12588" lon="7.26218">
        <ele>1710.6</ele>
        <time>2023-02-05T13:46:00Z</time>
      </trkpt>
      <trkpt lat="44.12587" lon="7.2622">
        <ele>1710.5</ele>
        <time>2023-02-05T13:46:01Z</time>
      </trkpt>
      <trkpt lat="44.12586" lon="7.26221">
        <ele>1710.4</ele>
        <time>2023-02-05T13:46:02Z</time>
      </trkpt>
      <trkpt lat="44.12586" lon="7.26222">
        <ele>1710.3</ele>
        <time>2023-02-05T13:46:03Z</time>
      </trkpt>
      <trkpt lat="44.12586" lon="7.26225">
        <ele>1710.2</ele>
        <time>2023-02-05T13:46:04Z</time>
      </trkpt>
      <trkpt lat="44.12587" lon="7.26227">
        <ele>1710.1</ele>
        <time>2023-02-05T13:46:05Z</time>
      </trkpt>
      <trkpt lat="44.12587" lon="7.26228">
        <ele>1709.8</ele>
        <time>2023-02-05T13:46:06Z</time>
      </trkpt>
      <trkpt lat="44.12587" lon="7.2623">
        <ele>1709.7</ele>
        <time>2023-02-05T13:46:07Z</time>
      </trkpt>
      <trkpt lat="44.12588" lon="7.26231">
        <ele>1709.5</ele>
        <time>2023-02-05T13:46:08Z</time>
      </trkpt>
      <trkpt lat="44.12587" lon="7.26234">
        <ele>1709.4</ele>
        <time>2023-02-05T13:46:09Z</time>
      </trkpt>
      <trkpt lat="44.12587" lon="7.26236">
        <ele>1709.4</ele>
        <time>2023-02-05T13:46:10Z</time>
      </trkpt>
      <trkpt lat="44.12586" lon="7.26238">
        <ele>1709.4</ele>
        <time>2023-02-05T13:46:11Z</time>
      </trkpt>
      <trkpt lat="44.12586" lon="7.2624">
        <ele>1709.3</ele>
        <time>2023-02-05T13:46:12Z</time>
      </trkpt>
      <trkpt lat="44.12586" lon="7.26242">
        <ele>1709.2</ele>
        <time>2023-02-05T13:46:13Z</time>
      </trkpt>
      <trkpt lat="44.12586" lon="7.26245">
        <ele>1709.1</ele>
        <time>2023-02-05T13:46:14Z</time>
      </trkpt>
      <trkpt lat="44.12586" lon="7.26247">
        <ele>1709.1</ele>
        <time>2023-02-05T13:46:15Z</time>
      </trkpt>
      <trkpt lat="44.12585" lon="7.26249">
        <ele>1709</ele>
        <time>2023-02-05T13:46:16Z</time>
      </trkpt>
      <trkpt lat="44.12584" lon="7.26252">
        <ele>1708.9</ele>
        <time>2023-02-05T13:46:17Z</time>
      </trkpt>
      <trkpt lat="44.12583" lon="7.26254">
        <ele>1708.8</ele>
        <time>2023-02-05T13:46:18Z</time>
      </trkpt>
      <trkpt lat="44.12584" lon="7.26257">
        <ele>1708.6</ele>
        <time>2023-02-05T13:46:19Z</time>
      </trkpt>
      <trkpt lat="44.12585" lon="7.26259">
        <ele>1708.5</ele>
        <time>2023-02-05T13:46:20Z</time>
      </trkpt>
      <trkpt lat="44.12585" lon="7.2626">
        <ele>1708.4</ele>
        <time>2023-02-05T13:46:21Z</time>
      </trkpt>
      <trkpt lat="44.12585" lon="7.26262">
        <ele>1708.2</ele>
        <time>2023-02-05T13:46:22Z</time>
      </trkpt>
      <trkpt lat="44.12584" lon="7.26264">
        <ele>1708</ele>
        <time>2023-02-05T13:46:23Z</time>
      </trkpt>
      <trkpt lat="44.12583" lon="7.26267">
        <ele>1707.9</ele>
        <time>2023-02-05T13:46:24Z</time>
      </trkpt>
      <trkpt lat="44.12582" lon="7.26269">
        <ele>1707.8</ele>
        <time>2023-02-05T13:46:25Z</time>
      </trkpt>
      <trkpt lat="44.12582" lon="7.2627">
        <ele>1707.8</ele>
        <time>2023-02-05T13:46:26Z</time>
      </trkpt>
      <trkpt lat="44.1258" lon="7.26273">
        <ele>1707.7</ele>
        <time>2023-02-05T13:46:27Z</time>
      </trkpt>
      <trkpt lat="44.12578" lon="7.26276">
        <ele>1707.7</ele>
        <time>2023-02-05T13:46:28Z</time>
      </trkpt>
      <trkpt lat="44.12579" lon="7.26278">
        <ele>1707.6</ele>
        <time>2023-02-05T13:46:29Z</time>
      </trkpt>
      <trkpt lat="44.12579" lon="7.2628">
        <ele>1707.4</ele>
        <time>2023-02-05T13:46:30Z</time>
      </trkpt>
      <trkpt lat="44.12579" lon="7.26281">
        <ele>1707.3</ele>
        <time>2023-02-05T13:46:31Z</time>
      </trkpt>
      <trkpt lat="44.12579" lon="7.26283">
        <ele>1707.2</ele>
        <time>2023-02-05T13:46:32Z</time>
      </trkpt>
      <trkpt lat="44.1258" lon="7.26285">
        <ele>1707.2</ele>
        <time>2023-02-05T13:46:33Z</time>
      </trkpt>
      <trkpt lat="44.12579" lon="7.26286">
        <ele>1707.1</ele>
        <time>2023-02-05T13:46:34Z</time>
      </trkpt>
      <trkpt lat="44.12579" lon="7.26287">
        <ele>1707</ele>
        <time>2023-02-05T13:46:35Z</time>
      </trkpt>
      <trkpt lat="44.12578" lon="7.26288">
        <ele>1707</ele>
        <time>2023-02-05T13:46:36Z</time>
      </trkpt>
      <trkpt lat="44.1258" lon="7.26289">
        <ele>1706.9</ele>
        <time>2023-02-05T13:46:37Z</time>
      </trkpt>
      <trkpt lat="44.1258" lon="7.26291">
        <ele>1707</ele>
        <time>2023-02-05T13:46:38Z</time>
      </trkpt>
      <trkpt lat="44.12579" lon="7.26293">
        <ele>1706.9</ele>
        <time>2023-02-05T13:46:39Z</time>
      </trkpt>
      <trkpt lat="44.12579" lon="7.26295">
        <ele>1706.9</ele>
        <time>2023-02-05T13:46:40Z</time>
      </trkpt>
      <trkpt lat="44.12578" lon="7.26297">
        <ele>1706.8</ele>
        <time>2023-02-05T13:46:41Z</time>
      </trkpt>
      <trkpt lat="44.12578" lon="7.26299">
        <ele>1706.8</ele>
        <time>2023-02-05T13:46:42Z</time>
      </trkpt>
      <trkpt lat="44.12578" lon="7.263">
        <ele>1706.7</ele>
        <time>2023-02-05T13:46:43Z</time>
      </trkpt>
      <trkpt lat="44.12578" lon="7.26302">
        <ele>1706.6</ele>
        <time>2023-02-05T13:46:44Z</time>
      </trkpt>
      <trkpt lat="44.12578" lon="7.26304">
        <ele>1706.7</ele>
        <time>2023-02-05T13:46:45Z</time>
      </trkpt>
      <trkpt lat="44.12578" lon="7.26306">
        <ele>1706.6</ele>
        <time>2023-02-05T13:46:46Z</time>
      </trkpt>
      <trkpt lat="44.12579" lon="7.26308">
        <ele>1706.5</ele>
        <time>2023-02-05T13:46:47Z</time>
      </trkpt>
      <trkpt lat="44.1258" lon="7.26309">
        <ele>1706.4</ele>
        <time>2023-02-05T13:46:48Z</time>
      </trkpt>
      <trkpt lat="44.1258" lon="7.2631">
        <ele>1706.2</ele>
        <time>2023-02-05T13:46:49Z</time>
      </trkpt>
      <trkpt lat="44.12579" lon="7.26312">
        <ele>1705.9</ele>
        <time>2023-02-05T13:46:50Z</time>
      </trkpt>
      <trkpt lat="44.12578" lon="7.26314">
        <ele>1705.7</ele>
        <time>2023-02-05T13:46:51Z</time>
      </trkpt>
      <trkpt lat="44.12578" lon="7.26315">
        <ele>1705.6</ele>
        <time>2023-02-05T13:46:52Z</time>
      </trkpt>
      <trkpt lat="44.12578" lon="7.26318">
        <ele>1705.6</ele>
        <time>2023-02-05T13:46:53Z</time>
      </trkpt>
      <trkpt lat="44.12577" lon="7.26319">
        <ele>1705.5</ele>
        <time>2023-02-05T13:46:54Z</time>
      </trkpt>
      <trkpt lat="44.12577" lon="7.26321">
        <ele>1705.3</ele>
        <time>2023-02-05T13:46:55Z</time>
      </trkpt>
      <trkpt lat="44.12578" lon="7.26323">
        <ele>1705.1</ele>
        <time>2023-02-05T13:46:56Z</time>
      </trkpt>
      <trkpt lat="44.12579" lon="7.26325">
        <ele>1704.9</ele>
        <time>2023-02-05T13:46:57Z</time>
      </trkpt>
      <trkpt lat="44.12578" lon="7.26327">
        <ele>1704.8</ele>
        <time>2023-02-05T13:46:58Z</time>
      </trkpt>
      <trkpt lat="44.12578" lon="7.26328">
        <ele>1704.7</ele>
        <time>2023-02-05T13:46:59Z</time>
      </trkpt>
      <trkpt lat="44.12577" lon="7.2633">
        <ele>1704.5</ele>
        <time>2023-02-05T13:47:00Z</time>
      </trkpt>
      <trkpt lat="44.12577" lon="7.26333">
        <ele>1704.5</ele>
        <time>2023-02-05T13:47:01Z</time>
      </trkpt>
      <trkpt lat="44.12577" lon="7.26335">
        <ele>1704.4</ele>
        <time>2023-02-05T13:47:02Z</time>
      </trkpt>
      <trkpt lat="44.12576" lon="7.26337">
        <ele>1704.3</ele>
        <time>2023-02-05T13:47:03Z</time>
      </trkpt>
      <trkpt lat="44.12576" lon="7.26339">
        <ele>1704.3</ele>
        <time>2023-02-05T13:47:04Z</time>
      </trkpt>
      <trkpt lat="44.12576" lon="7.2634">
        <ele>1704.2</ele>
        <time>2023-02-05T13:47:05Z</time>
      </trkpt>
      <trkpt lat="44.12576" lon="7.26341">
        <ele>1704.1</ele>
        <time>2023-02-05T13:47:06Z</time>
      </trkpt>
      <trkpt lat="44.12576" lon="7.26342">
        <ele>1704</ele>
        <time>2023-02-05T13:47:07Z</time>
      </trkpt>
      <trkpt lat="44.12576" lon="7.26344">
        <ele>1703.8</ele>
        <time>2023-02-05T13:47:08Z</time>
      </trkpt>
      <trkpt lat="44.12576" lon="7.26346">
        <ele>1703.7</ele>
        <time>2023-02-05T13:47:09Z</time>
      </trkpt>
      <trkpt lat="44.12576" lon="7.26348">
        <ele>1703.5</ele>
        <time>2023-02-05T13:47:10Z</time>
      </trkpt>
      <trkpt lat="44.12575" lon="7.2635">
        <ele>1703.4</ele>
        <time>2023-02-05T13:47:11Z</time>
      </trkpt>
      <trkpt lat="44.12576" lon="7.26352">
        <ele>1703.3</ele>
        <time>2023-02-05T13:47:12Z</time>
      </trkpt>
      <trkpt lat="44.12576" lon="7.26354">
        <ele>1703.1</ele>
        <time>2023-02-05T13:47:13Z</time>
      </trkpt>
      <trkpt lat="44.12575" lon="7.26356">
        <ele>1703.1</ele>
        <time>2023-02-05T13:47:14Z</time>
      </trkpt>
      <trkpt lat="44.12575" lon="7.26358">
        <ele>1703</ele>
        <time>2023-02-05T13:47:15Z</time>
      </trkpt>
      <trkpt lat="44.12575" lon="7.2636">
        <ele>1703</ele>
        <time>2023-02-05T13:47:16Z</time>
      </trkpt>
      <trkpt lat="44.12575" lon="7.26363">
        <ele>1702.9</ele>
        <time>2023-02-05T13:47:17Z</time>
      </trkpt>
      <trkpt lat="44.12575" lon="7.26365">
        <ele>1702.9</ele>
        <time>2023-02-05T13:47:18Z</time>
      </trkpt>
      <trkpt lat="44.12575" lon="7.26367">
        <ele>1702.8</ele>
        <time>2023-02-05T13:47:19Z</time>
      </trkpt>
      <trkpt lat="44.12575" lon="7.26369">
        <ele>1702.7</ele>
        <time>2023-02-05T13:47:20Z</time>
      </trkpt>
      <trkpt lat="44.12574" lon="7.2637">
        <ele>1702.6</ele>
        <time>2023-02-05T13:47:21Z</time>
      </trkpt>
      <trkpt lat="44.12575" lon="7.26372">
        <ele>1702.5</ele>
        <time>2023-02-05T13:47:22Z</time>
      </trkpt>
      <trkpt lat="44.12574" lon="7.26374">
        <ele>1702.4</ele>
        <time>2023-02-05T13:47:23Z</time>
      </trkpt>
      <trkpt lat="44.12574" lon="7.26375">
        <ele>1702.4</ele>
        <time>2023-02-05T13:47:24Z</time>
      </trkpt>
      <trkpt lat="44.12574" lon="7.26377">
        <ele>1702.3</ele>
        <time>2023-02-05T13:47:25Z</time>
      </trkpt>
      <trkpt lat="44.12574" lon="7.26379">
        <ele>1702.3</ele>
        <time>2023-02-05T13:47:26Z</time>
      </trkpt>
      <trkpt lat="44.12573" lon="7.26381">
        <ele>1702.2</ele>
        <time>2023-02-05T13:47:27Z</time>
      </trkpt>
      <trkpt lat="44.12573" lon="7.26383">
        <ele>1702.2</ele>
        <time>2023-02-05T13:47:28Z</time>
      </trkpt>
      <trkpt lat="44.12572" lon="7.26385">
        <ele>1702.1</ele>
        <time>2023-02-05T13:47:29Z</time>
      </trkpt>
      <trkpt lat="44.12571" lon="7.26387">
        <ele>1702.1</ele>
        <time>2023-02-05T13:47:30Z</time>
      </trkpt>
      <trkpt lat="44.12571" lon="7.26388">
        <ele>1702.1</ele>
        <time>2023-02-05T13:47:31Z</time>
      </trkpt>
      <trkpt lat="44.12571" lon="7.2639">
        <ele>1702.1</ele>
        <time>2023-02-05T13:47:32Z</time>
      </trkpt>
      <trkpt lat="44.12571" lon="7.26392">
        <ele>1702</ele>
        <time>2023-02-05T13:47:33Z</time>
      </trkpt>
      <trkpt lat="44.12571" lon="7.26393">
        <ele>1701.9</ele>
        <time>2023-02-05T13:47:34Z</time>
      </trkpt>
      <trkpt lat="44.1257" lon="7.26395">
        <ele>1701.8</ele>
        <time>2023-02-05T13:47:35Z</time>
      </trkpt>
      <trkpt lat="44.12569" lon="7.26397">
        <ele>1701.8</ele>
        <time>2023-02-05T13:47:36Z</time>
      </trkpt>
      <trkpt lat="44.12569" lon="7.26398">
        <ele>1701.6</ele>
        <time>2023-02-05T13:47:37Z</time>
      </trkpt>
      <trkpt lat="44.12569" lon="7.264">
        <ele>1701.5</ele>
        <time>2023-02-05T13:47:38Z</time>
      </trkpt>
      <trkpt lat="44.12569" lon="7.26402">
        <ele>1701.4</ele>
        <time>2023-02-05T13:47:39Z</time>
      </trkpt>
      <trkpt lat="44.12568" lon="7.26404">
        <ele>1701.2</ele>
        <time>2023-02-05T13:47:40Z</time>
      </trkpt>
      <trkpt lat="44.12568" lon="7.26405">
        <ele>1701</ele>
        <time>2023-02-05T13:47:41Z</time>
      </trkpt>
      <trkpt lat="44.12568" lon="7.26407">
        <ele>1701</ele>
        <time>2023-02-05T13:47:42Z</time>
      </trkpt>
      <trkpt lat="44.12568" lon="7.26409">
        <ele>1700.8</ele>
        <time>2023-02-05T13:47:43Z</time>
      </trkpt>
      <trkpt lat="44.12568" lon="7.26411">
        <ele>1700.7</ele>
        <time>2023-02-05T13:47:44Z</time>
      </trkpt>
      <trkpt lat="44.12568" lon="7.26412">
        <ele>1700.5</ele>
        <time>2023-02-05T13:47:45Z</time>
      </trkpt>
      <trkpt lat="44.12568" lon="7.26414">
        <ele>1700.4</ele>
        <time>2023-02-05T13:47:46Z</time>
      </trkpt>
      <trkpt lat="44.12568" lon="7.26416">
        <ele>1700.3</ele>
        <time>2023-02-05T13:47:47Z</time>
      </trkpt>
      <trkpt lat="44.12567" lon="7.26418">
        <ele>1700.2</ele>
        <time>2023-02-05T13:47:48Z</time>
      </trkpt>
      <trkpt lat="44.12567" lon="7.26419">
        <ele>1700.1</ele>
        <time>2023-02-05T13:47:49Z</time>
      </trkpt>
      <trkpt lat="44.12567" lon="7.26421">
        <ele>1699.9</ele>
        <time>2023-02-05T13:47:50Z</time>
      </trkpt>
      <trkpt lat="44.12567" lon="7.26423">
        <ele>1699.8</ele>
        <time>2023-02-05T13:47:51Z</time>
      </trkpt>
      <trkpt lat="44.12567" lon="7.26425">
        <ele>1699.7</ele>
        <time>2023-02-05T13:47:52Z</time>
      </trkpt>
      <trkpt lat="44.12567" lon="7.26427">
        <ele>1699.4</ele>
        <time>2023-02-05T13:47:53Z</time>
      </trkpt>
      <trkpt lat="44.12567" lon="7.26429">
        <ele>1699.3</ele>
        <time>2023-02-05T13:47:54Z</time>
      </trkpt>
      <trkpt lat="44.12566" lon="7.26431">
        <ele>1699.1</ele>
        <time>2023-02-05T13:47:55Z</time>
      </trkpt>
      <trkpt lat="44.12566" lon="7.26433">
        <ele>1699</ele>
        <time>2023-02-05T13:47:56Z</time>
      </trkpt>
      <trkpt lat="44.12566" lon="7.26435">
        <ele>1698.7</ele>
        <time>2023-02-05T13:47:57Z</time>
      </trkpt>
      <trkpt lat="44.12566" lon="7.26437">
        <ele>1698.5</ele>
        <time>2023-02-05T13:47:58Z</time>
      </trkpt>
      <trkpt lat="44.12566" lon="7.26439">
        <ele>1698.4</ele>
        <time>2023-02-05T13:47:59Z</time>
      </trkpt>
      <trkpt lat="44.12566" lon="7.26441">
        <ele>1698.3</ele>
        <time>2023-02-05T13:48:00Z</time>
      </trkpt>
      <trkpt lat="44.12565" lon="7.26443">
        <ele>1698.1</ele>
        <time>2023-02-05T13:48:01Z</time>
      </trkpt>
      <trkpt lat="44.12565" lon="7.26445">
        <ele>1698</ele>
        <time>2023-02-05T13:48:02Z</time>
      </trkpt>
      <trkpt lat="44.12565" lon="7.26447">
        <ele>1697.8</ele>
        <time>2023-02-05T13:48:03Z</time>
      </trkpt>
      <trkpt lat="44.12565" lon="7.26449">
        <ele>1697.7</ele>
        <time>2023-02-05T13:48:04Z</time>
      </trkpt>
      <trkpt lat="44.12565" lon="7.2645">
        <ele>1697.6</ele>
        <time>2023-02-05T13:48:05Z</time>
      </trkpt>
      <trkpt lat="44.12565" lon="7.26452">
        <ele>1697.5</ele>
        <time>2023-02-05T13:48:06Z</time>
      </trkpt>
      <trkpt lat="44.12564" lon="7.26454">
        <ele>1697.4</ele>
        <time>2023-02-05T13:48:07Z</time>
      </trkpt>
      <trkpt lat="44.12564" lon="7.26455">
        <ele>1697.4</ele>
        <time>2023-02-05T13:48:08Z</time>
      </trkpt>
      <trkpt lat="44.12564" lon="7.26456">
        <ele>1697.3</ele>
        <time>2023-02-05T13:48:09Z</time>
      </trkpt>
      <trkpt lat="44.12564" lon="7.26456">
        <ele>1697.2</ele>
        <time>2023-02-05T13:48:10Z</time>
      </trkpt>
      <trkpt lat="44.12564" lon="7.26456">
        <ele>1697.2</ele>
        <time>2023-02-05T13:48:11Z</time>
      </trkpt>
      <trkpt lat="44.12565" lon="7.26456">
        <ele>1697.1</ele>
        <time>2023-02-05T13:48:12Z</time>
      </trkpt>
      <trkpt lat="44.12566" lon="7.26456">
        <ele>1696.8</ele>
        <time>2023-02-05T13:48:13Z</time>
      </trkpt>
      <trkpt lat="44.12565" lon="7.26457">
        <ele>1696.6</ele>
        <time>2023-02-05T13:48:14Z</time>
      </trkpt>
      <trkpt lat="44.12565" lon="7.26458">
        <ele>1696.5</ele>
        <time>2023-02-05T13:48:15Z</time>
      </trkpt>
      <trkpt lat="44.12565" lon="7.26459">
        <ele>1696.3</ele>
        <time>2023-02-05T13:48:16Z</time>
      </trkpt>
      <trkpt lat="44.12564" lon="7.26461">
        <ele>1696.1</ele>
        <time>2023-02-05T13:48:17Z</time>
      </trkpt>
      <trkpt lat="44.12564" lon="7.26462">
        <ele>1696</ele>
        <time>2023-02-05T13:48:18Z</time>
      </trkpt>
      <trkpt lat="44.12563" lon="7.26463">
        <ele>1695.9</ele>
        <time>2023-02-05T13:48:19Z</time>
      </trkpt>
      <trkpt lat="44.12563" lon="7.26464">
        <ele>1695.7</ele>
        <time>2023-02-05T13:48:20Z</time>
      </trkpt>
      <trkpt lat="44.12561" lon="7.26466">
        <ele>1695.6</ele>
        <time>2023-02-05T13:48:21Z</time>
      </trkpt>
      <trkpt lat="44.12561" lon="7.26468">
        <ele>1695.3</ele>
        <time>2023-02-05T13:48:22Z</time>
      </trkpt>
      <trkpt lat="44.12561" lon="7.2647">
        <ele>1695.1</ele>
        <time>2023-02-05T13:48:23Z</time>
      </trkpt>
      <trkpt lat="44.1256" lon="7.26472">
        <ele>1695</ele>
        <time>2023-02-05T13:48:24Z</time>
      </trkpt>
      <trkpt lat="44.1256" lon="7.26473">
        <ele>1695</ele>
        <time>2023-02-05T13:48:25Z</time>
      </trkpt>
      <trkpt lat="44.12559" lon="7.26475">
        <ele>1694.8</ele>
        <time>2023-02-05T13:48:26Z</time>
      </trkpt>
      <trkpt lat="44.12559" lon="7.26476">
        <ele>1694.7</ele>
        <time>2023-02-05T13:48:27Z</time>
      </trkpt>
      <trkpt lat="44.12558" lon="7.26477">
        <ele>1694.6</ele>
        <time>2023-02-05T13:48:28Z</time>
      </trkpt>
      <trkpt lat="44.12558" lon="7.26479">
        <ele>1694.4</ele>
        <time>2023-02-05T13:48:29Z</time>
      </trkpt>
      <trkpt lat="44.12557" lon="7.2648">
        <ele>1694.3</ele>
        <time>2023-02-05T13:48:30Z</time>
      </trkpt>
      <trkpt lat="44.12555" lon="7.26481">
        <ele>1694.1</ele>
        <time>2023-02-05T13:48:31Z</time>
      </trkpt>
      <trkpt lat="44.12555" lon="7.26484">
        <ele>1694</ele>
        <time>2023-02-05T13:48:32Z</time>
      </trkpt>
      <trkpt lat="44.12555" lon="7.26485">
        <ele>1694</ele>
        <time>2023-02-05T13:48:33Z</time>
      </trkpt>
      <trkpt lat="44.12554" lon="7.26487">
        <ele>1693.9</ele>
        <time>2023-02-05T13:48:34Z</time>
      </trkpt>
      <trkpt lat="44.12554" lon="7.26489">
        <ele>1693.8</ele>
        <time>2023-02-05T13:48:35Z</time>
      </trkpt>
      <trkpt lat="44.12554" lon="7.2649">
        <ele>1693.7</ele>
        <time>2023-02-05T13:48:36Z</time>
      </trkpt>
      <trkpt lat="44.12554" lon="7.26491">
        <ele>1693.6</ele>
        <time>2023-02-05T13:48:37Z</time>
      </trkpt>
      <trkpt lat="44.12552" lon="7.26492">
        <ele>1693.5</ele>
        <time>2023-02-05T13:48:38Z</time>
      </trkpt>
      <trkpt lat="44.12551" lon="7.26493">
        <ele>1693.4</ele>
        <time>2023-02-05T13:48:39Z</time>
      </trkpt>
      <trkpt lat="44.1255" lon="7.26497">
        <ele>1693.4</ele>
        <time>2023-02-05T13:48:40Z</time>
      </trkpt>
      <trkpt lat="44.12549" lon="7.26499">
        <ele>1693.3</ele>
        <time>2023-02-05T13:48:41Z</time>
      </trkpt>
      <trkpt lat="44.12548" lon="7.26501">
        <ele>1693.2</ele>
        <time>2023-02-05T13:48:42Z</time>
      </trkpt>
      <trkpt lat="44.12548" lon="7.26503">
        <ele>1693.1</ele>
        <time>2023-02-05T13:48:43Z</time>
      </trkpt>
      <trkpt lat="44.12548" lon="7.26505">
        <ele>1692.9</ele>
        <time>2023-02-05T13:48:44Z</time>
      </trkpt>
      <trkpt lat="44.12547" lon="7.26507">
        <ele>1692.8</ele>
        <time>2023-02-05T13:48:45Z</time>
      </trkpt>
      <trkpt lat="44.12547" lon="7.26508">
        <ele>1692.7</ele>
        <time>2023-02-05T13:48:46Z</time>
      </trkpt>
      <trkpt lat="44.12545" lon="7.2651">
        <ele>1692.6</ele>
        <time>2023-02-05T13:48:47Z</time>
      </trkpt>
      <trkpt lat="44.12544" lon="7.2651">
        <ele>1692.5</ele>
        <time>2023-02-05T13:48:48Z</time>
      </trkpt>
      <trkpt lat="44.12544" lon="7.26512">
        <ele>1692.4</ele>
        <time>2023-02-05T13:48:49Z</time>
      </trkpt>
      <trkpt lat="44.12543" lon="7.26513">
        <ele>1692.3</ele>
        <time>2023-02-05T13:48:50Z</time>
      </trkpt>
      <trkpt lat="44.12543" lon="7.26514">
        <ele>1692.3</ele>
        <time>2023-02-05T13:48:51Z</time>
      </trkpt>
      <trkpt lat="44.12543" lon="7.26516">
        <ele>1692.1</ele>
        <time>2023-02-05T13:48:52Z</time>
      </trkpt>
      <trkpt lat="44.12543" lon="7.26518">
        <ele>1692</ele>
        <time>2023-02-05T13:48:53Z</time>
      </trkpt>
      <trkpt lat="44.12543" lon="7.2652">
        <ele>1691.9</ele>
        <time>2023-02-05T13:48:54Z</time>
      </trkpt>
      <trkpt lat="44.12542" lon="7.26521">
        <ele>1691.8</ele>
        <time>2023-02-05T13:48:55Z</time>
      </trkpt>
      <trkpt lat="44.12542" lon="7.26522">
        <ele>1691.7</ele>
        <time>2023-02-05T13:48:56Z</time>
      </trkpt>
      <trkpt lat="44.12542" lon="7.26523">
        <ele>1691.5</ele>
        <time>2023-02-05T13:48:57Z</time>
      </trkpt>
      <trkpt lat="44.12542" lon="7.26525">
        <ele>1691.4</ele>
        <time>2023-02-05T13:48:58Z</time>
      </trkpt>
      <trkpt lat="44.12542" lon="7.26527">
        <ele>1691.2</ele>
        <time>2023-02-05T13:48:59Z</time>
      </trkpt>
      <trkpt lat="44.12541" lon="7.26529">
        <ele>1691</ele>
        <time>2023-02-05T13:49:00Z</time>
      </trkpt>
      <trkpt lat="44.1254" lon="7.26532">
        <ele>1690.9</ele>
        <time>2023-02-05T13:49:01Z</time>
      </trkpt>
      <trkpt lat="44.12539" lon="7.26534">
        <ele>1690.8</ele>
        <time>2023-02-05T13:49:02Z</time>
      </trkpt>
      <trkpt lat="44.12539" lon="7.26536">
        <ele>1690.7</ele>
        <time>2023-02-05T13:49:03Z</time>
      </trkpt>
      <trkpt lat="44.12539" lon="7.26538">
        <ele>1690.5</ele>
        <time>2023-02-05T13:49:04Z</time>
      </trkpt>
      <trkpt lat="44.12536" lon="7.2654">
        <ele>1690.5</ele>
        <time>2023-02-05T13:49:05Z</time>
      </trkpt>
      <trkpt lat="44.12536" lon="7.26541">
        <ele>1690.5</ele>
        <time>2023-02-05T13:49:06Z</time>
      </trkpt>
      <trkpt lat="44.12535" lon="7.26541">
        <ele>1690.4</ele>
        <time>2023-02-05T13:49:07Z</time>
      </trkpt>
      <trkpt lat="44.12535" lon="7.26542">
        <ele>1690.4</ele>
        <time>2023-02-05T13:49:08Z</time>
      </trkpt>
      <trkpt lat="44.12535" lon="7.26545">
        <ele>1690.4</ele>
        <time>2023-02-05T13:49:09Z</time>
      </trkpt>
      <trkpt lat="44.12534" lon="7.26547">
        <ele>1690.3</ele>
        <time>2023-02-05T13:49:10Z</time>
      </trkpt>
      <trkpt lat="44.12534" lon="7.26548">
        <ele>1690.2</ele>
        <time>2023-02-05T13:49:11Z</time>
      </trkpt>
      <trkpt lat="44.12533" lon="7.2655">
        <ele>1690.1</ele>
        <time>2023-02-05T13:49:12Z</time>
      </trkpt>
      <trkpt lat="44.12532" lon="7.26552">
        <ele>1690.1</ele>
        <time>2023-02-05T13:49:13Z</time>
      </trkpt>
      <trkpt lat="44.12531" lon="7.26553">
        <ele>1690</ele>
        <time>2023-02-05T13:49:14Z</time>
      </trkpt>
      <trkpt lat="44.1253" lon="7.26555">
        <ele>1690</ele>
        <time>2023-02-05T13:49:15Z</time>
      </trkpt>
      <trkpt lat="44.1253" lon="7.26556">
        <ele>1689.9</ele>
        <time>2023-02-05T13:49:16Z</time>
      </trkpt>
      <trkpt lat="44.12528" lon="7.26559">
        <ele>1689.8</ele>
        <time>2023-02-05T13:49:17Z</time>
      </trkpt>
      <trkpt lat="44.12528" lon="7.26562">
        <ele>1689.6</ele>
        <time>2023-02-05T13:49:18Z</time>
      </trkpt>
      <trkpt lat="44.12527" lon="7.26564">
        <ele>1689.5</ele>
        <time>2023-02-05T13:49:19Z</time>
      </trkpt>
      <trkpt lat="44.12526" lon="7.26566">
        <ele>1689.4</ele>
        <time>2023-02-05T13:49:20Z</time>
      </trkpt>
      <trkpt lat="44.12526" lon="7.26568">
        <ele>1689.3</ele>
        <time>2023-02-05T13:49:21Z</time>
      </trkpt>
      <trkpt lat="44.12525" lon="7.26569">
        <ele>1689.1</ele>
        <time>2023-02-05T13:49:22Z</time>
      </trkpt>
      <trkpt lat="44.12523" lon="7.26571">
        <ele>1689</ele>
        <time>2023-02-05T13:49:23Z</time>
      </trkpt>
      <trkpt lat="44.12523" lon="7.26573">
        <ele>1688.8</ele>
        <time>2023-02-05T13:49:24Z</time>
      </trkpt>
      <trkpt lat="44.12522" lon="7.26574">
        <ele>1688.9</ele>
        <time>2023-02-05T13:49:25Z</time>
      </trkpt>
      <trkpt lat="44.12521" lon="7.26576">
        <ele>1688.8</ele>
        <time>2023-02-05T13:49:26Z</time>
      </trkpt>
      <trkpt lat="44.1252" lon="7.26577">
        <ele>1688.7</ele>
        <time>2023-02-05T13:49:27Z</time>
      </trkpt>
      <trkpt lat="44.12518" lon="7.26579">
        <ele>1688.6</ele>
        <time>2023-02-05T13:49:28Z</time>
      </trkpt>
      <trkpt lat="44.12518" lon="7.2658">
        <ele>1688.5</ele>
        <time>2023-02-05T13:49:29Z</time>
      </trkpt>
      <trkpt lat="44.12517" lon="7.26582">
        <ele>1688.3</ele>
        <time>2023-02-05T13:49:30Z</time>
      </trkpt>
      <trkpt lat="44.12516" lon="7.26583">
        <ele>1688.2</ele>
        <time>2023-02-05T13:49:31Z</time>
      </trkpt>
      <trkpt lat="44.12516" lon="7.26585">
        <ele>1688</ele>
        <time>2023-02-05T13:49:32Z</time>
      </trkpt>
      <trkpt lat="44.12515" lon="7.26586">
        <ele>1687.8</ele>
        <time>2023-02-05T13:49:33Z</time>
      </trkpt>
      <trkpt lat="44.12515" lon="7.26588">
        <ele>1687.7</ele>
        <time>2023-02-05T13:49:34Z</time>
      </trkpt>
      <trkpt lat="44.12514" lon="7.2659">
        <ele>1687.6</ele>
        <time>2023-02-05T13:49:35Z</time>
      </trkpt>
      <trkpt lat="44.12513" lon="7.26591">
        <ele>1687.5</ele>
        <time>2023-02-05T13:49:36Z</time>
      </trkpt>
      <trkpt lat="44.12512" lon="7.26593">
        <ele>1687.4</ele>
        <time>2023-02-05T13:49:37Z</time>
      </trkpt>
      <trkpt lat="44.12511" lon="7.26594">
        <ele>1687.4</ele>
        <time>2023-02-05T13:49:38Z</time>
      </trkpt>
      <trkpt lat="44.12511" lon="7.26597">
        <ele>1687.3</ele>
        <time>2023-02-05T13:49:39Z</time>
      </trkpt>
      <trkpt lat="44.12511" lon="7.26599">
        <ele>1687.2</ele>
        <time>2023-02-05T13:49:40Z</time>
      </trkpt>
      <trkpt lat="44.1251" lon="7.266">
        <ele>1687.2</ele>
        <time>2023-02-05T13:49:41Z</time>
      </trkpt>
      <trkpt lat="44.12509" lon="7.26602">
        <ele>1687.1</ele>
        <time>2023-02-05T13:49:42Z</time>
      </trkpt>
      <trkpt lat="44.12508" lon="7.26603">
        <ele>1687</ele>
        <time>2023-02-05T13:49:43Z</time>
      </trkpt>
      <trkpt lat="44.12508" lon="7.26605">
        <ele>1686.7</ele>
        <time>2023-02-05T13:49:44Z</time>
      </trkpt>
      <trkpt lat="44.12507" lon="7.26606">
        <ele>1686.6</ele>
        <time>2023-02-05T13:49:45Z</time>
      </trkpt>
      <trkpt lat="44.12506" lon="7.26608">
        <ele>1686.5</ele>
        <time>2023-02-05T13:49:46Z</time>
      </trkpt>
      <trkpt lat="44.12505" lon="7.26609">
        <ele>1686.4</ele>
        <time>2023-02-05T13:49:47Z</time>
      </trkpt>
      <trkpt lat="44.12504" lon="7.2661">
        <ele>1686.4</ele>
        <time>2023-02-05T13:49:48Z</time>
      </trkpt>
      <trkpt lat="44.12504" lon="7.26611">
        <ele>1686.3</ele>
        <time>2023-02-05T13:49:49Z</time>
      </trkpt>
      <trkpt lat="44.12504" lon="7.26612">
        <ele>1686.2</ele>
        <time>2023-02-05T13:49:50Z</time>
      </trkpt>
      <trkpt lat="44.12503" lon="7.26614">
        <ele>1686.1</ele>
        <time>2023-02-05T13:49:51Z</time>
      </trkpt>
      <trkpt lat="44.12503" lon="7.26615">
        <ele>1686.1</ele>
        <time>2023-02-05T13:49:52Z</time>
      </trkpt>
      <trkpt lat="44.12503" lon="7.26617">
        <ele>1686</ele>
        <time>2023-02-05T13:49:53Z</time>
      </trkpt>
      <trkpt lat="44.12501" lon="7.26618">
        <ele>1685.9</ele>
        <time>2023-02-05T13:49:54Z</time>
      </trkpt>
      <trkpt lat="44.125" lon="7.26619">
        <ele>1685.8</ele>
        <time>2023-02-05T13:49:55Z</time>
      </trkpt>
      <trkpt lat="44.125" lon="7.2662">
        <ele>1685.7</ele>
        <time>2023-02-05T13:49:56Z</time>
      </trkpt>
      <trkpt lat="44.12499" lon="7.26621">
        <ele>1685.6</ele>
        <time>2023-02-05T13:49:57Z</time>
      </trkpt>
      <trkpt lat="44.12498" lon="7.26622">
        <ele>1685.5</ele>
        <time>2023-02-05T13:49:58Z</time>
      </trkpt>
      <trkpt lat="44.12497" lon="7.26624">
        <ele>1685.4</ele>
        <time>2023-02-05T13:49:59Z</time>
      </trkpt>
      <trkpt lat="44.12497" lon="7.26625">
        <ele>1685.4</ele>
        <time>2023-02-05T13:50:00Z</time>
      </trkpt>
      <trkpt lat="44.12497" lon="7.26626">
        <ele>1685.3</ele>
        <time>2023-02-05T13:50:01Z</time>
      </trkpt>
      <trkpt lat="44.12497" lon="7.26629">
        <ele>1685.2</ele>
        <time>2023-02-05T13:50:02Z</time>
      </trkpt>
      <trkpt lat="44.12496" lon="7.2663">
        <ele>1685.1</ele>
        <time>2023-02-05T13:50:03Z</time>
      </trkpt>
      <trkpt lat="44.12496" lon="7.26631">
        <ele>1685</ele>
        <time>2023-02-05T13:50:04Z</time>
      </trkpt>
      <trkpt lat="44.12495" lon="7.26633">
        <ele>1684.8</ele>
        <time>2023-02-05T13:50:05Z</time>
      </trkpt>
      <trkpt lat="44.12495" lon="7.26635">
        <ele>1684.7</ele>
        <time>2023-02-05T13:50:06Z</time>
      </trkpt>
      <trkpt lat="44.12494" lon="7.26637">
        <ele>1684.6</ele>
        <time>2023-02-05T13:50:07Z</time>
      </trkpt>
      <trkpt lat="44.12493" lon="7.26638">
        <ele>1684.4</ele>
        <time>2023-02-05T13:50:08Z</time>
      </trkpt>
      <trkpt lat="44.12493" lon="7.2664">
        <ele>1684.2</ele>
        <time>2023-02-05T13:50:09Z</time>
      </trkpt>
      <trkpt lat="44.12492" lon="7.26641">
        <ele>1684.1</ele>
        <time>2023-02-05T13:50:10Z</time>
      </trkpt>
      <trkpt lat="44.1249" lon="7.26642">
        <ele>1684.1</ele>
        <time>2023-02-05T13:50:11Z</time>
      </trkpt>
      <trkpt lat="44.1249" lon="7.26643">
        <ele>1684</ele>
        <time>2023-02-05T13:50:12Z</time>
      </trkpt>
      <trkpt lat="44.12488" lon="7.26644">
        <ele>1683.9</ele>
        <time>2023-02-05T13:50:13Z</time>
      </trkpt>
      <trkpt lat="44.12487" lon="7.26646">
        <ele>1683.9</ele>
        <time>2023-02-05T13:50:14Z</time>
      </trkpt>
      <trkpt lat="44.12486" lon="7.26647">
        <ele>1683.8</ele>
        <time>2023-02-05T13:50:15Z</time>
      </trkpt>
      <trkpt lat="44.12486" lon="7.26649">
        <ele>1683.8</ele>
        <time>2023-02-05T13:50:16Z</time>
      </trkpt>
      <trkpt lat="44.12485" lon="7.2665">
        <ele>1683.7</ele>
        <time>2023-02-05T13:50:17Z</time>
      </trkpt>
      <trkpt lat="44.12483" lon="7.26651">
        <ele>1683.5</ele>
        <time>2023-02-05T13:50:18Z</time>
      </trkpt>
      <trkpt lat="44.12482" lon="7.26652">
        <ele>1683.4</ele>
        <time>2023-02-05T13:50:19Z</time>
      </trkpt>
      <trkpt lat="44.12481" lon="7.26654">
        <ele>1683.3</ele>
        <time>2023-02-05T13:50:20Z</time>
      </trkpt>
      <trkpt lat="44.1248" lon="7.26656">
        <ele>1683.3</ele>
        <time>2023-02-05T13:50:21Z</time>
      </trkpt>
      <trkpt lat="44.12479" lon="7.26657">
        <ele>1683.2</ele>
        <time>2023-02-05T13:50:22Z</time>
      </trkpt>
      <trkpt lat="44.12478" lon="7.26658">
        <ele>1683</ele>
        <time>2023-02-05T13:50:23Z</time>
      </trkpt>
      <trkpt lat="44.12477" lon="7.2666">
        <ele>1682.9</ele>
        <time>2023-02-05T13:50:24Z</time>
      </trkpt>
      <trkpt lat="44.12476" lon="7.26662">
        <ele>1682.8</ele>
        <time>2023-02-05T13:50:25Z</time>
      </trkpt>
      <trkpt lat="44.12475" lon="7.26664">
        <ele>1682.6</ele>
        <time>2023-02-05T13:50:26Z</time>
      </trkpt>
      <trkpt lat="44.12474" lon="7.26665">
        <ele>1682.5</ele>
        <time>2023-02-05T13:50:27Z</time>
      </trkpt>
      <trkpt lat="44.12474" lon="7.26667">
        <ele>1682.4</ele>
        <time>2023-02-05T13:50:28Z</time>
      </trkpt>
      <trkpt lat="44.12474" lon="7.26667">
        <ele>1682.4</ele>
        <time>2023-02-05T13:50:29Z</time>
      </trkpt>
      <trkpt lat="44.12474" lon="7.26668">
        <ele>1682.3</ele>
        <time>2023-02-05T13:50:30Z</time>
      </trkpt>
      <trkpt lat="44.12473" lon="7.26669">
        <ele>1682.2</ele>
        <time>2023-02-05T13:50:31Z</time>
      </trkpt>
      <trkpt lat="44.12473" lon="7.2667">
        <ele>1682</ele>
        <time>2023-02-05T13:50:32Z</time>
      </trkpt>
      <trkpt lat="44.12474" lon="7.2667">
        <ele>1681.9</ele>
        <time>2023-02-05T13:50:33Z</time>
      </trkpt>
      <trkpt lat="44.12474" lon="7.26671">
        <ele>1681.8</ele>
        <time>2023-02-05T13:50:34Z</time>
      </trkpt>
      <trkpt lat="44.12474" lon="7.26672">
        <ele>1681.7</ele>
        <time>2023-02-05T13:50:35Z</time>
      </trkpt>
      <trkpt lat="44.12475" lon="7.26673">
        <ele>1681.7</ele>
        <time>2023-02-05T13:50:36Z</time>
      </trkpt>
      <trkpt lat="44.12473" lon="7.26675">
        <ele>1681.5</ele>
        <time>2023-02-05T13:50:37Z</time>
      </trkpt>
      <trkpt lat="44.12473" lon="7.26676">
        <ele>1681.4</ele>
        <time>2023-02-05T13:50:38Z</time>
      </trkpt>
      <trkpt lat="44.12471" lon="7.26678">
        <ele>1681.3</ele>
        <time>2023-02-05T13:50:39Z</time>
      </trkpt>
      <trkpt lat="44.1247" lon="7.26679">
        <ele>1681.2</ele>
        <time>2023-02-05T13:50:40Z</time>
      </trkpt>
      <trkpt lat="44.1247" lon="7.26681">
        <ele>1681.1</ele>
        <time>2023-02-05T13:50:41Z</time>
      </trkpt>
      <trkpt lat="44.12469" lon="7.26683">
        <ele>1680.9</ele>
        <time>2023-02-05T13:50:42Z</time>
      </trkpt>
      <trkpt lat="44.12468" lon="7.26684">
        <ele>1680.8</ele>
        <time>2023-02-05T13:50:43Z</time>
      </trkpt>
      <trkpt lat="44.12467" lon="7.26686">
        <ele>1680.6</ele>
        <time>2023-02-05T13:50:44Z</time>
      </trkpt>
      <trkpt lat="44.12465" lon="7.26688">
        <ele>1680.5</ele>
        <time>2023-02-05T13:50:45Z</time>
      </trkpt>
      <trkpt lat="44.12465" lon="7.26689">
        <ele>1680.4</ele>
        <time>2023-02-05T13:50:46Z</time>
      </trkpt>
      <trkpt lat="44.12464" lon="7.2669">
        <ele>1680.2</ele>
        <time>2023-02-05T13:50:47Z</time>
      </trkpt>
      <trkpt lat="44.12463" lon="7.2669">
        <ele>1680.1</ele>
        <time>2023-02-05T13:50:48Z</time>
      </trkpt>
      <trkpt lat="44.12463" lon="7.26692">
        <ele>1680</ele>
        <time>2023-02-05T13:50:49Z</time>
      </trkpt>
      <trkpt lat="44.12462" lon="7.26693">
        <ele>1679.9</ele>
        <time>2023-02-05T13:50:50Z</time>
      </trkpt>
      <trkpt lat="44.12461" lon="7.26693">
        <ele>1679.8</ele>
        <time>2023-02-05T13:50:51Z</time>
      </trkpt>
      <trkpt lat="44.1246" lon="7.26694">
        <ele>1679.6</ele>
        <time>2023-02-05T13:50:52Z</time>
      </trkpt>
      <trkpt lat="44.12458" lon="7.26696">
        <ele>1679.5</ele>
        <time>2023-02-05T13:50:53Z</time>
      </trkpt>
      <trkpt lat="44.12458" lon="7.26696">
        <ele>1679.4</ele>
        <time>2023-02-05T13:50:54Z</time>
      </trkpt>
      <trkpt lat="44.12458" lon="7.26697">
        <ele>1679.3</ele>
        <time>2023-02-05T13:50:55Z</time>
      </trkpt>
      <trkpt lat="44.12457" lon="7.26698">
        <ele>1679.2</ele>
        <time>2023-02-05T13:50:56Z</time>
      </trkpt>
      <trkpt lat="44.12457" lon="7.26698">
        <ele>1679.2</ele>
        <time>2023-02-05T13:50:57Z</time>
      </trkpt>
      <trkpt lat="44.12457" lon="7.26699">
        <ele>1678.9</ele>
        <time>2023-02-05T13:50:58Z</time>
      </trkpt>
      <trkpt lat="44.12456" lon="7.267">
        <ele>1678.8</ele>
        <time>2023-02-05T13:50:59Z</time>
      </trkpt>
      <trkpt lat="44.12455" lon="7.26701">
        <ele>1678.7</ele>
        <time>2023-02-05T13:51:00Z</time>
      </trkpt>
      <trkpt lat="44.12454" lon="7.26702">
        <ele>1678.6</ele>
        <time>2023-02-05T13:51:01Z</time>
      </trkpt>
      <trkpt lat="44.12452" lon="7.26703">
        <ele>1678.6</ele>
        <time>2023-02-05T13:51:02Z</time>
      </trkpt>
      <trkpt lat="44.12451" lon="7.26704">
        <ele>1678.4</ele>
        <time>2023-02-05T13:51:03Z</time>
      </trkpt>
      <trkpt lat="44.12449" lon="7.26705">
        <ele>1678.4</ele>
        <time>2023-02-05T13:51:04Z</time>
      </trkpt>
      <trkpt lat="44.12446" lon="7.26707">
        <ele>1678.3</ele>
        <time>2023-02-05T13:51:05Z</time>
      </trkpt>
      <trkpt lat="44.12444" lon="7.26707">
        <ele>1678.2</ele>
        <time>2023-02-05T13:51:06Z</time>
      </trkpt>
      <trkpt lat="44.12443" lon="7.26709">
        <ele>1678.1</ele>
        <time>2023-02-05T13:51:07Z</time>
      </trkpt>
      <trkpt lat="44.12442" lon="7.2671">
        <ele>1678</ele>
        <time>2023-02-05T13:51:08Z</time>
      </trkpt>
      <trkpt lat="44.12441" lon="7.26711">
        <ele>1678</ele>
        <time>2023-02-05T13:51:09Z</time>
      </trkpt>
      <trkpt lat="44.1244" lon="7.26713">
        <ele>1677.9</ele>
        <time>2023-02-05T13:51:10Z</time>
      </trkpt>
      <trkpt lat="44.12441" lon="7.26715">
        <ele>1677.8</ele>
        <time>2023-02-05T13:51:11Z</time>
      </trkpt>
      <trkpt lat="44.12439" lon="7.26716">
        <ele>1677.7</ele>
        <time>2023-02-05T13:51:12Z</time>
      </trkpt>
      <trkpt lat="44.12438" lon="7.26718">
        <ele>1677.7</ele>
        <time>2023-02-05T13:51:13Z</time>
      </trkpt>
      <trkpt lat="44.12438" lon="7.2672">
        <ele>1677.5</ele>
        <time>2023-02-05T13:51:14Z</time>
      </trkpt>
      <trkpt lat="44.12438" lon="7.2672">
        <ele>1677.4</ele>
        <time>2023-02-05T13:51:15Z</time>
      </trkpt>
      <trkpt lat="44.12437" lon="7.26722">
        <ele>1677.3</ele>
        <time>2023-02-05T13:51:16Z</time>
      </trkpt>
      <trkpt lat="44.12436" lon="7.26724">
        <ele>1677.2</ele>
        <time>2023-02-05T13:51:17Z</time>
      </trkpt>
      <trkpt lat="44.12436" lon="7.26725">
        <ele>1677.2</ele>
        <time>2023-02-05T13:51:18Z</time>
      </trkpt>
      <trkpt lat="44.12435" lon="7.26726">
        <ele>1677.1</ele>
        <time>2023-02-05T13:51:19Z</time>
      </trkpt>
      <trkpt lat="44.12434" lon="7.26728">
        <ele>1677.1</ele>
        <time>2023-02-05T13:51:20Z</time>
      </trkpt>
      <trkpt lat="44.12434" lon="7.26729">
        <ele>1677</ele>
        <time>2023-02-05T13:51:21Z</time>
      </trkpt>
      <trkpt lat="44.12433" lon="7.2673">
        <ele>1677</ele>
        <time>2023-02-05T13:51:22Z</time>
      </trkpt>
      <trkpt lat="44.12432" lon="7.26731">
        <ele>1676.9</ele>
        <time>2023-02-05T13:51:23Z</time>
      </trkpt>
      <trkpt lat="44.12432" lon="7.26732">
        <ele>1676.8</ele>
        <time>2023-02-05T13:51:24Z</time>
      </trkpt>
      <trkpt lat="44.1243" lon="7.26733">
        <ele>1676.7</ele>
        <time>2023-02-05T13:51:25Z</time>
      </trkpt>
      <trkpt lat="44.12428" lon="7.26735">
        <ele>1676.6</ele>
        <time>2023-02-05T13:51:26Z</time>
      </trkpt>
      <trkpt lat="44.12427" lon="7.26736">
        <ele>1676.5</ele>
        <time>2023-02-05T13:51:27Z</time>
      </trkpt>
      <trkpt lat="44.12426" lon="7.26737">
        <ele>1676.3</ele>
        <time>2023-02-05T13:51:28Z</time>
      </trkpt>
      <trkpt lat="44.12426" lon="7.26738">
        <ele>1676.1</ele>
        <time>2023-02-05T13:51:29Z</time>
      </trkpt>
      <trkpt lat="44.12425" lon="7.2674">
        <ele>1676</ele>
        <time>2023-02-05T13:51:30Z</time>
      </trkpt>
      <trkpt lat="44.12424" lon="7.26741">
        <ele>1675.9</ele>
        <time>2023-02-05T13:51:31Z</time>
      </trkpt>
      <trkpt lat="44.12423" lon="7.26742">
        <ele>1675.7</ele>
        <time>2023-02-05T13:51:32Z</time>
      </trkpt>
      <trkpt lat="44.12423" lon="7.26744">
        <ele>1675.6</ele>
        <time>2023-02-05T13:51:33Z</time>
      </trkpt>
      <trkpt lat="44.12423" lon="7.26746">
        <ele>1675.5</ele>
        <time>2023-02-05T13:51:34Z</time>
      </trkpt>
      <trkpt lat="44.12423" lon="7.26748">
        <ele>1675.4</ele>
        <time>2023-02-05T13:51:35Z</time>
      </trkpt>
      <trkpt lat="44.12422" lon="7.26749">
        <ele>1675.3</ele>
        <time>2023-02-05T13:51:36Z</time>
      </trkpt>
      <trkpt lat="44.12421" lon="7.2675">
        <ele>1675.1</ele>
        <time>2023-02-05T13:51:37Z</time>
      </trkpt>
      <trkpt lat="44.1242" lon="7.26752">
        <ele>1674.9</ele>
        <time>2023-02-05T13:51:38Z</time>
      </trkpt>
      <trkpt lat="44.1242" lon="7.26753">
        <ele>1674.8</ele>
        <time>2023-02-05T13:51:39Z</time>
      </trkpt>
      <trkpt lat="44.12419" lon="7.26754">
        <ele>1674.6</ele>
        <time>2023-02-05T13:51:40Z</time>
      </trkpt>
      <trkpt lat="44.12418" lon="7.26755">
        <ele>1674.5</ele>
        <time>2023-02-05T13:51:41Z</time>
      </trkpt>
      <trkpt lat="44.12417" lon="7.26756">
        <ele>1674.4</ele>
        <time>2023-02-05T13:51:42Z</time>
      </trkpt>
      <trkpt lat="44.12416" lon="7.26757">
        <ele>1674.4</ele>
        <time>2023-02-05T13:51:43Z</time>
      </trkpt>
      <trkpt lat="44.12415" lon="7.26758">
        <ele>1674.2</ele>
        <time>2023-02-05T13:51:44Z</time>
      </trkpt>
      <trkpt lat="44.12414" lon="7.26759">
        <ele>1674.1</ele>
        <time>2023-02-05T13:51:45Z</time>
      </trkpt>
      <trkpt lat="44.12413" lon="7.26759">
        <ele>1673.9</ele>
        <time>2023-02-05T13:51:46Z</time>
      </trkpt>
      <trkpt lat="44.12413" lon="7.2676">
        <ele>1673.7</ele>
        <time>2023-02-05T13:51:47Z</time>
      </trkpt>
      <trkpt lat="44.12413" lon="7.2676">
        <ele>1673.5</ele>
        <time>2023-02-05T13:51:48Z</time>
      </trkpt>
      <trkpt lat="44.12413" lon="7.2676">
        <ele>1673.3</ele>
        <time>2023-02-05T13:51:49Z</time>
      </trkpt>
      <trkpt lat="44.12412" lon="7.26761">
        <ele>1673.2</ele>
        <time>2023-02-05T13:51:50Z</time>
      </trkpt>
      <trkpt lat="44.12412" lon="7.26761">
        <ele>1673</ele>
        <time>2023-02-05T13:51:51Z</time>
      </trkpt>
      <trkpt lat="44.12411" lon="7.26761">
        <ele>1672.9</ele>
        <time>2023-02-05T13:51:52Z</time>
      </trkpt>
      <trkpt lat="44.12409" lon="7.2676">
        <ele>1672.8</ele>
        <time>2023-02-05T13:51:53Z</time>
      </trkpt>
      <trkpt lat="44.12408" lon="7.26761">
        <ele>1672.6</ele>
        <time>2023-02-05T13:51:54Z</time>
      </trkpt>
      <trkpt lat="44.12408" lon="7.26761">
        <ele>1672.5</ele>
        <time>2023-02-05T13:51:55Z</time>
      </trkpt>
      <trkpt lat="44.12407" lon="7.26761">
        <ele>1672.3</ele>
        <time>2023-02-05T13:51:56Z</time>
      </trkpt>
      <trkpt lat="44.12406" lon="7.26762">
        <ele>1672.1</ele>
        <time>2023-02-05T13:51:57Z</time>
      </trkpt>
      <trkpt lat="44.12406" lon="7.26763">
        <ele>1672</ele>
        <time>2023-02-05T13:51:58Z</time>
      </trkpt>
      <trkpt lat="44.12405" lon="7.26763">
        <ele>1671.9</ele>
        <time>2023-02-05T13:51:59Z</time>
      </trkpt>
      <trkpt lat="44.12404" lon="7.26765">
        <ele>1671.9</ele>
        <time>2023-02-05T13:52:00Z</time>
      </trkpt>
      <trkpt lat="44.12403" lon="7.26766">
        <ele>1671.8</ele>
        <time>2023-02-05T13:52:01Z</time>
      </trkpt>
      <trkpt lat="44.12403" lon="7.26766">
        <ele>1671.8</ele>
        <time>2023-02-05T13:52:02Z</time>
      </trkpt>
      <trkpt lat="44.12403" lon="7.26768">
        <ele>1671.7</ele>
        <time>2023-02-05T13:52:03Z</time>
      </trkpt>
      <trkpt lat="44.12403" lon="7.26773">
        <ele>1671.6</ele>
        <time>2023-02-05T13:52:04Z</time>
      </trkpt>
      <trkpt lat="44.12403" lon="7.26775">
        <ele>1671.6</ele>
        <time>2023-02-05T13:52:05Z</time>
      </trkpt>
      <trkpt lat="44.12403" lon="7.26776">
        <ele>1671.5</ele>
        <time>2023-02-05T13:52:06Z</time>
      </trkpt>
      <trkpt lat="44.12402" lon="7.26776">
        <ele>1671.5</ele>
        <time>2023-02-05T13:52:07Z</time>
      </trkpt>
      <trkpt lat="44.12403" lon="7.26777">
        <ele>1671.5</ele>
        <time>2023-02-05T13:52:08Z</time>
      </trkpt>
      <trkpt lat="44.12403" lon="7.26777">
        <ele>1671.5</ele>
        <time>2023-02-05T13:52:09Z</time>
      </trkpt>
      <trkpt lat="44.12403" lon="7.26777">
        <ele>1671.1</ele>
        <time>2023-02-05T13:52:10Z</time>
      </trkpt>
      <trkpt lat="44.12404" lon="7.26777">
        <ele>1670.9</ele>
        <time>2023-02-05T13:52:11Z</time>
      </trkpt>
      <trkpt lat="44.12404" lon="7.26778">
        <ele>1670.8</ele>
        <time>2023-02-05T13:52:12Z</time>
      </trkpt>
      <trkpt lat="44.12405" lon="7.26779">
        <ele>1670.7</ele>
        <time>2023-02-05T13:52:13Z</time>
      </trkpt>
      <trkpt lat="44.12405" lon="7.26779">
        <ele>1670.7</ele>
        <time>2023-02-05T13:52:14Z</time>
      </trkpt>
      <trkpt lat="44.12405" lon="7.26779">
        <ele>1670.7</ele>
        <time>2023-02-05T13:52:15Z</time>
      </trkpt>
      <trkpt lat="44.12406" lon="7.2678">
        <ele>1670.6</ele>
        <time>2023-02-05T13:52:16Z</time>
      </trkpt>
      <trkpt lat="44.12406" lon="7.2678">
        <ele>1670.5</ele>
        <time>2023-02-05T13:52:17Z</time>
      </trkpt>
      <trkpt lat="44.12406" lon="7.26781">
        <ele>1670.5</ele>
        <time>2023-02-05T13:52:18Z</time>
      </trkpt>
      <trkpt lat="44.12405" lon="7.26782">
        <ele>1670.5</ele>
        <time>2023-02-05T13:52:19Z</time>
      </trkpt>
      <trkpt lat="44.12407" lon="7.26781">
        <ele>1670.4</ele>
        <time>2023-02-05T13:52:20Z</time>
      </trkpt>
      <trkpt lat="44.12408" lon="7.26781">
        <ele>1670.4</ele>
        <time>2023-02-05T13:52:21Z</time>
      </trkpt>
      <trkpt lat="44.1241" lon="7.2678">
        <ele>1670.3</ele>
        <time>2023-02-05T13:52:22Z</time>
      </trkpt>
      <trkpt lat="44.12413" lon="7.26779">
        <ele>1670.2</ele>
        <time>2023-02-05T13:52:23Z</time>
      </trkpt>
      <trkpt lat="44.12413" lon="7.26779">
        <ele>1670.2</ele>
        <time>2023-02-05T13:52:24Z</time>
      </trkpt>
      <trkpt lat="44.12413" lon="7.26779">
        <ele>1670.3</ele>
        <time>2023-02-05T13:52:25Z</time>
      </trkpt>
      <trkpt lat="44.12414" lon="7.26778">
        <ele>1670.3</ele>
        <time>2023-02-05T13:52:26Z</time>
      </trkpt>
      <trkpt lat="44.12415" lon="7.26778">
        <ele>1670.3</ele>
        <time>2023-02-05T13:52:27Z</time>
      </trkpt>
      <trkpt lat="44.12416" lon="7.26778">
        <ele>1670.2</ele>
        <time>2023-02-05T13:52:28Z</time>
      </trkpt>
      <trkpt lat="44.12416" lon="7.26778">
        <ele>1670.3</ele>
        <time>2023-02-05T13:52:29Z</time>
      </trkpt>
      <trkpt lat="44.12417" lon="7.26778">
        <ele>1670.3</ele>
        <time>2023-02-05T13:52:30Z</time>
      </trkpt>
      <trkpt lat="44.12415" lon="7.26779">
        <ele>1670.3</ele>
        <time>2023-02-05T13:52:31Z</time>
      </trkpt>
      <trkpt lat="44.12414" lon="7.2678">
        <ele>1670.3</ele>
        <time>2023-02-05T13:52:32Z</time>
      </trkpt>
      <trkpt lat="44.12414" lon="7.2678">
        <ele>1670.3</ele>
        <time>2023-02-05T13:52:33Z</time>
      </trkpt>
      <trkpt lat="44.12413" lon="7.2678">
        <ele>1670.3</ele>
        <time>2023-02-05T13:52:34Z</time>
      </trkpt>
      <trkpt lat="44.12412" lon="7.26781">
        <ele>1670.3</ele>
        <time>2023-02-05T13:52:35Z</time>
      </trkpt>
      <trkpt lat="44.12411" lon="7.26781">
        <ele>1670.2</ele>
        <time>2023-02-05T13:52:36Z</time>
      </trkpt>
      <trkpt lat="44.12411" lon="7.26781">
        <ele>1670.2</ele>
        <time>2023-02-05T13:52:37Z</time>
      </trkpt>
      <trkpt lat="44.1241" lon="7.26782">
        <ele>1670.2</ele>
        <time>2023-02-05T13:52:38Z</time>
      </trkpt>
      <trkpt lat="44.1241" lon="7.26782">
        <ele>1670.1</ele>
        <time>2023-02-05T13:52:39Z</time>
      </trkpt>
      <trkpt lat="44.12409" lon="7.26782">
        <ele>1670.1</ele>
        <time>2023-02-05T13:52:40Z</time>
      </trkpt>
      <trkpt lat="44.12409" lon="7.26782">
        <ele>1670.1</ele>
        <time>2023-02-05T13:52:41Z</time>
      </trkpt>
      <trkpt lat="44.12409" lon="7.26782">
        <ele>1670.2</ele>
        <time>2023-02-05T13:52:42Z</time>
      </trkpt>
      <trkpt lat="44.12408" lon="7.26782">
        <ele>1670.1</ele>
        <time>2023-02-05T13:52:43Z</time>
      </trkpt>
      <trkpt lat="44.12408" lon="7.26783">
        <ele>1670.1</ele>
        <time>2023-02-05T13:52:44Z</time>
      </trkpt>
      <trkpt lat="44.12408" lon="7.26783">
        <ele>1670.1</ele>
        <time>2023-02-05T13:52:45Z</time>
      </trkpt>
      <trkpt lat="44.12408" lon="7.26783">
        <ele>1670.1</ele>
        <time>2023-02-05T13:52:46Z</time>
      </trkpt>
      <trkpt lat="44.12407" lon="7.26783">
        <ele>1670.1</ele>
        <time>2023-02-05T13:52:47Z</time>
      </trkpt>
      <trkpt lat="44.12407" lon="7.26783">
        <ele>1669.9</ele>
        <time>2023-02-05T13:52:48Z</time>
      </trkpt>
      <trkpt lat="44.12407" lon="7.26783">
        <ele>1669.9</ele>
        <time>2023-02-05T13:52:49Z</time>
      </trkpt>
      <trkpt lat="44.12407" lon="7.26783">
        <ele>1669.9</ele>
        <time>2023-02-05T13:52:50Z</time>
      </trkpt>
      <trkpt lat="44.12407" lon="7.26783">
        <ele>1670</ele>
        <time>2023-02-05T13:52:51Z</time>
      </trkpt>
      <trkpt lat="44.12407" lon="7.26783">
        <ele>1670</ele>
        <time>2023-02-05T13:52:52Z</time>
      </trkpt>
      <trkpt lat="44.12407" lon="7.26783">
        <ele>1670.1</ele>
        <time>2023-02-05T13:52:53Z</time>
      </trkpt>
      <trkpt lat="44.12407" lon="7.26783">
        <ele>1670</ele>
        <time>2023-02-05T13:52:54Z</time>
      </trkpt>
      <trkpt lat="44.12406" lon="7.26783">
        <ele>1670.1</ele>
        <time>2023-02-05T13:52:55Z</time>
      </trkpt>
      <trkpt lat="44.12406" lon="7.26784">
        <ele>1670.1</ele>
        <time>2023-02-05T13:52:56Z</time>
      </trkpt>
      <trkpt lat="44.12406" lon="7.26784">
        <ele>1670.2</ele>
        <time>2023-02-05T13:52:57Z</time>
      </trkpt>
      <trkpt lat="44.12406" lon="7.26784">
        <ele>1670.2</ele>
        <time>2023-02-05T13:52:58Z</time>
      </trkpt>
      <trkpt lat="44.12406" lon="7.26784">
        <ele>1670.1</ele>
        <time>2023-02-05T13:52:59Z</time>
      </trkpt>
      <trkpt lat="44.12406" lon="7.26784">
        <ele>1670.1</ele>
        <time>2023-02-05T13:53:00Z</time>
      </trkpt>
      <trkpt lat="44.12405" lon="7.26784">
        <ele>1670.1</ele>
        <time>2023-02-05T13:53:01Z</time>
      </trkpt>
      <trkpt lat="44.12405" lon="7.26785">
        <ele>1670.2</ele>
        <time>2023-02-05T13:53:02Z</time>
      </trkpt>
      <trkpt lat="44.12406" lon="7.26786">
        <ele>1670.3</ele>
        <time>2023-02-05T13:53:03Z</time>
      </trkpt>
      <trkpt lat="44.12406" lon="7.26786">
        <ele>1670.3</ele>
        <time>2023-02-05T13:53:04Z</time>
      </trkpt>
      <trkpt lat="44.12407" lon="7.26786">
        <ele>1670.4</ele>
        <time>2023-02-05T13:53:05Z</time>
      </trkpt>
      <trkpt lat="44.12407" lon="7.26785">
        <ele>1670.6</ele>
        <time>2023-02-05T13:53:06Z</time>
      </trkpt>
      <trkpt lat="44.12408" lon="7.26784">
        <ele>1670.7</ele>
        <time>2023-02-05T13:53:07Z</time>
      </trkpt>
      <trkpt lat="44.12408" lon="7.26784">
        <ele>1670.8</ele>
        <time>2023-02-05T13:53:08Z</time>
      </trkpt>
      <trkpt lat="44.12408" lon="7.26784">
        <ele>1670.7</ele>
        <time>2023-02-05T13:53:09Z</time>
      </trkpt>
      <trkpt lat="44.12409" lon="7.26784">
        <ele>1670.7</ele>
        <time>2023-02-05T13:53:10Z</time>
      </trkpt>
      <trkpt lat="44.12409" lon="7.26784">
        <ele>1670.8</ele>
        <time>2023-02-05T13:53:11Z</time>
      </trkpt>
      <trkpt lat="44.12409" lon="7.26784">
        <ele>1670.8</ele>
        <time>2023-02-05T13:53:12Z</time>
      </trkpt>
      <trkpt lat="44.12409" lon="7.26784">
        <ele>1670.9</ele>
        <time>2023-02-05T13:53:13Z</time>
      </trkpt>
      <trkpt lat="44.12409" lon="7.26785">
        <ele>1670.9</ele>
        <time>2023-02-05T13:53:14Z</time>
      </trkpt>
      <trkpt lat="44.12409" lon="7.26785">
        <ele>1671</ele>
        <time>2023-02-05T13:53:15Z</time>
      </trkpt>
      <trkpt lat="44.12409" lon="7.26786">
        <ele>1671</ele>
        <time>2023-02-05T13:53:16Z</time>
      </trkpt>
      <trkpt lat="44.12408" lon="7.26786">
        <ele>1671</ele>
        <time>2023-02-05T13:53:17Z</time>
      </trkpt>
      <trkpt lat="44.12407" lon="7.26787">
        <ele>1670.9</ele>
        <time>2023-02-05T13:53:18Z</time>
      </trkpt>
      <trkpt lat="44.12407" lon="7.26787">
        <ele>1670.8</ele>
        <time>2023-02-05T13:53:19Z</time>
      </trkpt>
      <trkpt lat="44.12406" lon="7.2679">
        <ele>1670.8</ele>
        <time>2023-02-05T13:53:20Z</time>
      </trkpt>
      <trkpt lat="44.12406" lon="7.2679">
        <ele>1670.7</ele>
        <time>2023-02-05T13:53:21Z</time>
      </trkpt>
      <trkpt lat="44.12406" lon="7.26791">
        <ele>1670.7</ele>
        <time>2023-02-05T13:53:22Z</time>
      </trkpt>
      <trkpt lat="44.12405" lon="7.26792">
        <ele>1670.7</ele>
        <time>2023-02-05T13:53:23Z</time>
      </trkpt>
      <trkpt lat="44.12405" lon="7.26794">
        <ele>1670.5</ele>
        <time>2023-02-05T13:53:24Z</time>
      </trkpt>
      <trkpt lat="44.12406" lon="7.26795">
        <ele>1670.4</ele>
        <time>2023-02-05T13:53:25Z</time>
      </trkpt>
      <trkpt lat="44.12406" lon="7.26795">
        <ele>1670.3</ele>
        <time>2023-02-05T13:53:26Z</time>
      </trkpt>
      <trkpt lat="44.12406" lon="7.26796">
        <ele>1670.4</ele>
        <time>2023-02-05T13:53:27Z</time>
      </trkpt>
      <trkpt lat="44.12406" lon="7.26797">
        <ele>1670.3</ele>
        <time>2023-02-05T13:53:28Z</time>
      </trkpt>
      <trkpt lat="44.12406" lon="7.26798">
        <ele>1670.4</ele>
        <time>2023-02-05T13:53:29Z</time>
      </trkpt>
      <trkpt lat="44.12406" lon="7.26799">
        <ele>1670.4</ele>
        <time>2023-02-05T13:53:30Z</time>
      </trkpt>
      <trkpt lat="44.12406" lon="7.26801">
        <ele>1670.5</ele>
        <time>2023-02-05T13:53:31Z</time>
      </trkpt>
      <trkpt lat="44.12406" lon="7.26802">
        <ele>1670.5</ele>
        <time>2023-02-05T13:53:32Z</time>
      </trkpt>
      <trkpt lat="44.12406" lon="7.26804">
        <ele>1670.5</ele>
        <time>2023-02-05T13:53:33Z</time>
      </trkpt>
      <trkpt lat="44.12406" lon="7.26806">
        <ele>1670.4</ele>
        <time>2023-02-05T13:53:34Z</time>
      </trkpt>
      <trkpt lat="44.12406" lon="7.26807">
        <ele>1670.4</ele>
        <time>2023-02-05T13:53:35Z</time>
      </trkpt>
      <trkpt lat="44.12406" lon="7.26809">
        <ele>1670.3</ele>
        <time>2023-02-05T13:53:36Z</time>
      </trkpt>
      <trkpt lat="44.12406" lon="7.2681">
        <ele>1670.3</ele>
        <time>2023-02-05T13:53:37Z</time>
      </trkpt>
      <trkpt lat="44.12405" lon="7.26812">
        <ele>1670.1</ele>
        <time>2023-02-05T13:53:38Z</time>
      </trkpt>
      <trkpt lat="44.12405" lon="7.26814">
        <ele>1670</ele>
        <time>2023-02-05T13:53:39Z</time>
      </trkpt>
      <trkpt lat="44.12405" lon="7.26816">
        <ele>1669.8</ele>
        <time>2023-02-05T13:53:40Z</time>
      </trkpt>
      <trkpt lat="44.12405" lon="7.26818">
        <ele>1669.7</ele>
        <time>2023-02-05T13:53:41Z</time>
      </trkpt>
      <trkpt lat="44.12406" lon="7.26819">
        <ele>1669.6</ele>
        <time>2023-02-05T13:53:42Z</time>
      </trkpt>
      <trkpt lat="44.12406" lon="7.2682">
        <ele>1669.5</ele>
        <time>2023-02-05T13:53:43Z</time>
      </trkpt>
      <trkpt lat="44.12405" lon="7.26821">
        <ele>1669.4</ele>
        <time>2023-02-05T13:53:44Z</time>
      </trkpt>
      <trkpt lat="44.12406" lon="7.26822">
        <ele>1669.3</ele>
        <time>2023-02-05T13:53:45Z</time>
      </trkpt>
      <trkpt lat="44.12406" lon="7.26823">
        <ele>1669.2</ele>
        <time>2023-02-05T13:53:46Z</time>
      </trkpt>
      <trkpt lat="44.12406" lon="7.26825">
        <ele>1669</ele>
        <time>2023-02-05T13:53:47Z</time>
      </trkpt>
      <trkpt lat="44.12406" lon="7.26826">
        <ele>1668.9</ele>
        <time>2023-02-05T13:53:48Z</time>
      </trkpt>
      <trkpt lat="44.12406" lon="7.26828">
        <ele>1668.8</ele>
        <time>2023-02-05T13:53:49Z</time>
      </trkpt>
      <trkpt lat="44.12405" lon="7.26828">
        <ele>1668.7</ele>
        <time>2023-02-05T13:53:50Z</time>
      </trkpt>
      <trkpt lat="44.12405" lon="7.2683">
        <ele>1668.7</ele>
        <time>2023-02-05T13:53:51Z</time>
      </trkpt>
      <trkpt lat="44.12405" lon="7.26831">
        <ele>1668.6</ele>
        <time>2023-02-05T13:53:52Z</time>
      </trkpt>
      <trkpt lat="44.12404" lon="7.26833">
        <ele>1668.5</ele>
        <time>2023-02-05T13:53:53Z</time>
      </trkpt>
      <trkpt lat="44.12404" lon="7.26834">
        <ele>1668.4</ele>
        <time>2023-02-05T13:53:54Z</time>
      </trkpt>
      <trkpt lat="44.12403" lon="7.26837">
        <ele>1668.4</ele>
        <time>2023-02-05T13:53:55Z</time>
      </trkpt>
      <trkpt lat="44.12403" lon="7.26839">
        <ele>1668.2</ele>
        <time>2023-02-05T13:53:56Z</time>
      </trkpt>
      <trkpt lat="44.12402" lon="7.26841">
        <ele>1668.1</ele>
        <time>2023-02-05T13:53:57Z</time>
      </trkpt>
      <trkpt lat="44.12401" lon="7.26843">
        <ele>1667.9</ele>
        <time>2023-02-05T13:53:58Z</time>
      </trkpt>
      <trkpt lat="44.12401" lon="7.26845">
        <ele>1667.8</ele>
        <time>2023-02-05T13:53:59Z</time>
      </trkpt>
      <trkpt lat="44.124" lon="7.26847">
        <ele>1667.7</ele>
        <time>2023-02-05T13:54:00Z</time>
      </trkpt>
      <trkpt lat="44.12399" lon="7.26849">
        <ele>1667.6</ele>
        <time>2023-02-05T13:54:01Z</time>
      </trkpt>
      <trkpt lat="44.12399" lon="7.2685">
        <ele>1667.5</ele>
        <time>2023-02-05T13:54:02Z</time>
      </trkpt>
      <trkpt lat="44.12398" lon="7.26852">
        <ele>1667.4</ele>
        <time>2023-02-05T13:54:03Z</time>
      </trkpt>
      <trkpt lat="44.12397" lon="7.26854">
        <ele>1667.3</ele>
        <time>2023-02-05T13:54:04Z</time>
      </trkpt>
      <trkpt lat="44.12397" lon="7.26855">
        <ele>1667.2</ele>
        <time>2023-02-05T13:54:05Z</time>
      </trkpt>
      <trkpt lat="44.12397" lon="7.26857">
        <ele>1667.1</ele>
        <time>2023-02-05T13:54:06Z</time>
      </trkpt>
      <trkpt lat="44.12396" lon="7.26858">
        <ele>1667</ele>
        <time>2023-02-05T13:54:07Z</time>
      </trkpt>
      <trkpt lat="44.12396" lon="7.2686">
        <ele>1667</ele>
        <time>2023-02-05T13:54:08Z</time>
      </trkpt>
      <trkpt lat="44.12396" lon="7.26862">
        <ele>1666.8</ele>
        <time>2023-02-05T13:54:09Z</time>
      </trkpt>
      <trkpt lat="44.12395" lon="7.26864">
        <ele>1666.8</ele>
        <time>2023-02-05T13:54:10Z</time>
      </trkpt>
      <trkpt lat="44.12395" lon="7.26866">
        <ele>1666.7</ele>
        <time>2023-02-05T13:54:11Z</time>
      </trkpt>
      <trkpt lat="44.12395" lon="7.26867">
        <ele>1666.6</ele>
        <time>2023-02-05T13:54:12Z</time>
      </trkpt>
      <trkpt lat="44.12395" lon="7.26869">
        <ele>1666.6</ele>
        <time>2023-02-05T13:54:13Z</time>
      </trkpt>
      <trkpt lat="44.12395" lon="7.2687">
        <ele>1666.5</ele>
        <time>2023-02-05T13:54:14Z</time>
      </trkpt>
      <trkpt lat="44.12395" lon="7.26872">
        <ele>1666.4</ele>
        <time>2023-02-05T13:54:15Z</time>
      </trkpt>
      <trkpt lat="44.12394" lon="7.26873">
        <ele>1666.3</ele>
        <time>2023-02-05T13:54:16Z</time>
      </trkpt>
      <trkpt lat="44.12394" lon="7.26875">
        <ele>1666.1</ele>
        <time>2023-02-05T13:54:17Z</time>
      </trkpt>
      <trkpt lat="44.12394" lon="7.26877">
        <ele>1665.9</ele>
        <time>2023-02-05T13:54:18Z</time>
      </trkpt>
      <trkpt lat="44.12393" lon="7.26878">
        <ele>1665.8</ele>
        <time>2023-02-05T13:54:19Z</time>
      </trkpt>
      <trkpt lat="44.12393" lon="7.26879">
        <ele>1665.7</ele>
        <time>2023-02-05T13:54:20Z</time>
      </trkpt>
      <trkpt lat="44.12392" lon="7.2688">
        <ele>1665.5</ele>
        <time>2023-02-05T13:54:21Z</time>
      </trkpt>
      <trkpt lat="44.12393" lon="7.26881">
        <ele>1665.3</ele>
        <time>2023-02-05T13:54:22Z</time>
      </trkpt>
      <trkpt lat="44.12393" lon="7.26882">
        <ele>1665.2</ele>
        <time>2023-02-05T13:54:23Z</time>
      </trkpt>
      <trkpt lat="44.12392" lon="7.26884">
        <ele>1665.1</ele>
        <time>2023-02-05T13:54:24Z</time>
      </trkpt>
      <trkpt lat="44.12391" lon="7.26885">
        <ele>1664.9</ele>
        <time>2023-02-05T13:54:25Z</time>
      </trkpt>
      <trkpt lat="44.12391" lon="7.26886">
        <ele>1664.8</ele>
        <time>2023-02-05T13:54:26Z</time>
      </trkpt>
      <trkpt lat="44.12391" lon="7.26888">
        <ele>1664.8</ele>
        <time>2023-02-05T13:54:27Z</time>
      </trkpt>
      <trkpt lat="44.12391" lon="7.2689">
        <ele>1664.6</ele>
        <time>2023-02-05T13:54:28Z</time>
      </trkpt>
      <trkpt lat="44.12391" lon="7.26892">
        <ele>1664.5</ele>
        <time>2023-02-05T13:54:29Z</time>
      </trkpt>
      <trkpt lat="44.12389" lon="7.26894">
        <ele>1664.5</ele>
        <time>2023-02-05T13:54:30Z</time>
      </trkpt>
      <trkpt lat="44.12389" lon="7.26895">
        <ele>1664.4</ele>
        <time>2023-02-05T13:54:31Z</time>
      </trkpt>
      <trkpt lat="44.12388" lon="7.26897">
        <ele>1664.3</ele>
        <time>2023-02-05T13:54:32Z</time>
      </trkpt>
      <trkpt lat="44.12387" lon="7.26899">
        <ele>1664.2</ele>
        <time>2023-02-05T13:54:33Z</time>
      </trkpt>
      <trkpt lat="44.12387" lon="7.269">
        <ele>1664.1</ele>
        <time>2023-02-05T13:54:34Z</time>
      </trkpt>
      <trkpt lat="44.12386" lon="7.269">
        <ele>1664</ele>
        <time>2023-02-05T13:54:35Z</time>
      </trkpt>
      <trkpt lat="44.12386" lon="7.26901">
        <ele>1664</ele>
        <time>2023-02-05T13:54:36Z</time>
      </trkpt>
      <trkpt lat="44.12385" lon="7.26904">
        <ele>1663.9</ele>
        <time>2023-02-05T13:54:37Z</time>
      </trkpt>
      <trkpt lat="44.12384" lon="7.26905">
        <ele>1663.8</ele>
        <time>2023-02-05T13:54:38Z</time>
      </trkpt>
      <trkpt lat="44.12383" lon="7.26907">
        <ele>1663.8</ele>
        <time>2023-02-05T13:54:39Z</time>
      </trkpt>
      <trkpt lat="44.12382" lon="7.26909">
        <ele>1663.6</ele>
        <time>2023-02-05T13:54:40Z</time>
      </trkpt>
      <trkpt lat="44.12381" lon="7.2691">
        <ele>1663.5</ele>
        <time>2023-02-05T13:54:41Z</time>
      </trkpt>
      <trkpt lat="44.1238" lon="7.26912">
        <ele>1663.8</ele>
        <time>2023-02-05T13:54:42Z</time>
      </trkpt>
      <trkpt lat="44.12379" lon="7.26913">
        <ele>1663.6</ele>
        <time>2023-02-05T13:54:43Z</time>
      </trkpt>
      <trkpt lat="44.12378" lon="7.26915">
        <ele>1663</ele>
        <time>2023-02-05T13:54:44Z</time>
      </trkpt>
      <trkpt lat="44.12377" lon="7.26916">
        <ele>1663</ele>
        <time>2023-02-05T13:54:45Z</time>
      </trkpt>
      <trkpt lat="44.12376" lon="7.26918">
        <ele>1662.9</ele>
        <time>2023-02-05T13:54:46Z</time>
      </trkpt>
      <trkpt lat="44.12375" lon="7.26919">
        <ele>1662.8</ele>
        <time>2023-02-05T13:54:47Z</time>
      </trkpt>
      <trkpt lat="44.12374" lon="7.26922">
        <ele>1662.7</ele>
        <time>2023-02-05T13:54:48Z</time>
      </trkpt>
      <trkpt lat="44.12372" lon="7.26923">
        <ele>1662.6</ele>
        <time>2023-02-05T13:54:49Z</time>
      </trkpt>
      <trkpt lat="44.12371" lon="7.26925">
        <ele>1662.5</ele>
        <time>2023-02-05T13:54:50Z</time>
      </trkpt>
      <trkpt lat="44.1237" lon="7.26928">
        <ele>1662.3</ele>
        <time>2023-02-05T13:54:51Z</time>
      </trkpt>
      <trkpt lat="44.12369" lon="7.26929">
        <ele>1662.1</ele>
        <time>2023-02-05T13:54:52Z</time>
      </trkpt>
      <trkpt lat="44.12369" lon="7.26931">
        <ele>1662</ele>
        <time>2023-02-05T13:54:53Z</time>
      </trkpt>
      <trkpt lat="44.12368" lon="7.26933">
        <ele>1661.8</ele>
        <time>2023-02-05T13:54:54Z</time>
      </trkpt>
      <trkpt lat="44.12366" lon="7.26934">
        <ele>1661.6</ele>
        <time>2023-02-05T13:54:55Z</time>
      </trkpt>
      <trkpt lat="44.12365" lon="7.26936">
        <ele>1661.5</ele>
        <time>2023-02-05T13:54:56Z</time>
      </trkpt>
      <trkpt lat="44.12364" lon="7.26937">
        <ele>1661.4</ele>
        <time>2023-02-05T13:54:57Z</time>
      </trkpt>
      <trkpt lat="44.12363" lon="7.26939">
        <ele>1661.3</ele>
        <time>2023-02-05T13:54:58Z</time>
      </trkpt>
      <trkpt lat="44.12363" lon="7.26941">
        <ele>1661.1</ele>
        <time>2023-02-05T13:54:59Z</time>
      </trkpt>
      <trkpt lat="44.12362" lon="7.26942">
        <ele>1661</ele>
        <time>2023-02-05T13:55:00Z</time>
      </trkpt>
      <trkpt lat="44.12361" lon="7.26944">
        <ele>1660.8</ele>
        <time>2023-02-05T13:55:01Z</time>
      </trkpt>
      <trkpt lat="44.1236" lon="7.26945">
        <ele>1660.7</ele>
        <time>2023-02-05T13:55:02Z</time>
      </trkpt>
      <trkpt lat="44.12359" lon="7.26946">
        <ele>1660.6</ele>
        <time>2023-02-05T13:55:03Z</time>
      </trkpt>
      <trkpt lat="44.12358" lon="7.26947">
        <ele>1660.5</ele>
        <time>2023-02-05T13:55:04Z</time>
      </trkpt>
      <trkpt lat="44.12357" lon="7.26948">
        <ele>1660.4</ele>
        <time>2023-02-05T13:55:05Z</time>
      </trkpt>
      <trkpt lat="44.12356" lon="7.26949">
        <ele>1660.3</ele>
        <time>2023-02-05T13:55:06Z</time>
      </trkpt>
      <trkpt lat="44.12355" lon="7.2695">
        <ele>1660.3</ele>
        <time>2023-02-05T13:55:07Z</time>
      </trkpt>
      <trkpt lat="44.12354" lon="7.26951">
        <ele>1660.2</ele>
        <time>2023-02-05T13:55:08Z</time>
      </trkpt>
      <trkpt lat="44.12352" lon="7.26952">
        <ele>1660.1</ele>
        <time>2023-02-05T13:55:09Z</time>
      </trkpt>
      <trkpt lat="44.12351" lon="7.26953">
        <ele>1660</ele>
        <time>2023-02-05T13:55:10Z</time>
      </trkpt>
      <trkpt lat="44.1235" lon="7.26954">
        <ele>1659.9</ele>
        <time>2023-02-05T13:55:11Z</time>
      </trkpt>
      <trkpt lat="44.12349" lon="7.26955">
        <ele>1659.9</ele>
        <time>2023-02-05T13:55:12Z</time>
      </trkpt>
      <trkpt lat="44.12348" lon="7.26956">
        <ele>1659.6</ele>
        <time>2023-02-05T13:55:13Z</time>
      </trkpt>
      <trkpt lat="44.12347" lon="7.26957">
        <ele>1659.4</ele>
        <time>2023-02-05T13:55:14Z</time>
      </trkpt>
      <trkpt lat="44.12346" lon="7.26958">
        <ele>1659.3</ele>
        <time>2023-02-05T13:55:15Z</time>
      </trkpt>
      <trkpt lat="44.12345" lon="7.26959">
        <ele>1659.3</ele>
        <time>2023-02-05T13:55:16Z</time>
      </trkpt>
      <trkpt lat="44.12344" lon="7.2696">
        <ele>1659.2</ele>
        <time>2023-02-05T13:55:17Z</time>
      </trkpt>
      <trkpt lat="44.12343" lon="7.26961">
        <ele>1659.1</ele>
        <time>2023-02-05T13:55:18Z</time>
      </trkpt>
      <trkpt lat="44.12342" lon="7.26962">
        <ele>1659.1</ele>
        <time>2023-02-05T13:55:19Z</time>
      </trkpt>
      <trkpt lat="44.12341" lon="7.26963">
        <ele>1659.3</ele>
        <time>2023-02-05T13:55:20Z</time>
      </trkpt>
      <trkpt lat="44.12339" lon="7.26964">
        <ele>1659.2</ele>
        <time>2023-02-05T13:55:21Z</time>
      </trkpt>
      <trkpt lat="44.12338" lon="7.26966">
        <ele>1659.1</ele>
        <time>2023-02-05T13:55:22Z</time>
      </trkpt>
      <trkpt lat="44.12337" lon="7.26968">
        <ele>1659</ele>
        <time>2023-02-05T13:55:23Z</time>
      </trkpt>
      <trkpt lat="44.12336" lon="7.2697">
        <ele>1658.9</ele>
        <time>2023-02-05T13:55:24Z</time>
      </trkpt>
      <trkpt lat="44.12336" lon="7.26972">
        <ele>1658.8</ele>
        <time>2023-02-05T13:55:25Z</time>
      </trkpt>
      <trkpt lat="44.12334" lon="7.26973">
        <ele>1658.7</ele>
        <time>2023-02-05T13:55:26Z</time>
      </trkpt>
      <trkpt lat="44.12333" lon="7.26975">
        <ele>1658.5</ele>
        <time>2023-02-05T13:55:27Z</time>
      </trkpt>
      <trkpt lat="44.12332" lon="7.26976">
        <ele>1658.4</ele>
        <time>2023-02-05T13:55:28Z</time>
      </trkpt>
      <trkpt lat="44.12331" lon="7.26978">
        <ele>1658.4</ele>
        <time>2023-02-05T13:55:29Z</time>
      </trkpt>
      <trkpt lat="44.12331" lon="7.26979">
        <ele>1658.2</ele>
        <time>2023-02-05T13:55:30Z</time>
      </trkpt>
      <trkpt lat="44.12331" lon="7.26981">
        <ele>1658.1</ele>
        <time>2023-02-05T13:55:31Z</time>
      </trkpt>
      <trkpt lat="44.1233" lon="7.26982">
        <ele>1658.1</ele>
        <time>2023-02-05T13:55:32Z</time>
      </trkpt>
      <trkpt lat="44.12329" lon="7.26983">
        <ele>1658</ele>
        <time>2023-02-05T13:55:33Z</time>
      </trkpt>
      <trkpt lat="44.12328" lon="7.26985">
        <ele>1657.9</ele>
        <time>2023-02-05T13:55:34Z</time>
      </trkpt>
      <trkpt lat="44.12328" lon="7.26986">
        <ele>1657.8</ele>
        <time>2023-02-05T13:55:35Z</time>
      </trkpt>
      <trkpt lat="44.12327" lon="7.26988">
        <ele>1657.7</ele>
        <time>2023-02-05T13:55:36Z</time>
      </trkpt>
      <trkpt lat="44.12326" lon="7.26989">
        <ele>1657.7</ele>
        <time>2023-02-05T13:55:37Z</time>
      </trkpt>
      <trkpt lat="44.12326" lon="7.26991">
        <ele>1657.6</ele>
        <time>2023-02-05T13:55:38Z</time>
      </trkpt>
      <trkpt lat="44.12326" lon="7.26991">
        <ele>1657.5</ele>
        <time>2023-02-05T13:55:39Z</time>
      </trkpt>
      <trkpt lat="44.12325" lon="7.26993">
        <ele>1657.6</ele>
        <time>2023-02-05T13:55:40Z</time>
      </trkpt>
      <trkpt lat="44.12324" lon="7.26995">
        <ele>1657.6</ele>
        <time>2023-02-05T13:55:41Z</time>
      </trkpt>
      <trkpt lat="44.12323" lon="7.26996">
        <ele>1657.4</ele>
        <time>2023-02-05T13:55:42Z</time>
      </trkpt>
      <trkpt lat="44.12323" lon="7.26997">
        <ele>1657.3</ele>
        <time>2023-02-05T13:55:43Z</time>
      </trkpt>
      <trkpt lat="44.12322" lon="7.26999">
        <ele>1657.2</ele>
        <time>2023-02-05T13:55:44Z</time>
      </trkpt>
      <trkpt lat="44.12321" lon="7.27001">
        <ele>1657.1</ele>
        <time>2023-02-05T13:55:45Z</time>
      </trkpt>
      <trkpt lat="44.1232" lon="7.27003">
        <ele>1657.1</ele>
        <time>2023-02-05T13:55:46Z</time>
      </trkpt>
      <trkpt lat="44.12318" lon="7.27004">
        <ele>1657</ele>
        <time>2023-02-05T13:55:47Z</time>
      </trkpt>
      <trkpt lat="44.12318" lon="7.27005">
        <ele>1656.8</ele>
        <time>2023-02-05T13:55:48Z</time>
      </trkpt>
      <trkpt lat="44.12317" lon="7.27007">
        <ele>1656.6</ele>
        <time>2023-02-05T13:55:49Z</time>
      </trkpt>
      <trkpt lat="44.12316" lon="7.27009">
        <ele>1656.5</ele>
        <time>2023-02-05T13:55:50Z</time>
      </trkpt>
      <trkpt lat="44.12315" lon="7.2701">
        <ele>1656.4</ele>
        <time>2023-02-05T13:55:51Z</time>
      </trkpt>
      <trkpt lat="44.12315" lon="7.27012">
        <ele>1656.5</ele>
        <time>2023-02-05T13:55:52Z</time>
      </trkpt>
      <trkpt lat="44.12314" lon="7.27013">
        <ele>1656.5</ele>
        <time>2023-02-05T13:55:53Z</time>
      </trkpt>
      <trkpt lat="44.12313" lon="7.27015">
        <ele>1656.4</ele>
        <time>2023-02-05T13:55:54Z</time>
      </trkpt>
      <trkpt lat="44.12312" lon="7.27016">
        <ele>1656.3</ele>
        <time>2023-02-05T13:55:55Z</time>
      </trkpt>
      <trkpt lat="44.12311" lon="7.27018">
        <ele>1656.3</ele>
        <time>2023-02-05T13:55:56Z</time>
      </trkpt>
      <trkpt lat="44.1231" lon="7.27019">
        <ele>1656.3</ele>
        <time>2023-02-05T13:55:57Z</time>
      </trkpt>
      <trkpt lat="44.12309" lon="7.27021">
        <ele>1656.2</ele>
        <time>2023-02-05T13:55:58Z</time>
      </trkpt>
      <trkpt lat="44.12309" lon="7.27022">
        <ele>1656.1</ele>
        <time>2023-02-05T13:55:59Z</time>
      </trkpt>
      <trkpt lat="44.12308" lon="7.27024">
        <ele>1656</ele>
        <time>2023-02-05T13:56:00Z</time>
      </trkpt>
      <trkpt lat="44.12307" lon="7.27026">
        <ele>1655.8</ele>
        <time>2023-02-05T13:56:01Z</time>
      </trkpt>
      <trkpt lat="44.12307" lon="7.27028">
        <ele>1655.7</ele>
        <time>2023-02-05T13:56:02Z</time>
      </trkpt>
      <trkpt lat="44.12306" lon="7.27029">
        <ele>1655.6</ele>
        <time>2023-02-05T13:56:03Z</time>
      </trkpt>
      <trkpt lat="44.12305" lon="7.2703">
        <ele>1655.5</ele>
        <time>2023-02-05T13:56:04Z</time>
      </trkpt>
      <trkpt lat="44.12304" lon="7.27031">
        <ele>1655.2</ele>
        <time>2023-02-05T13:56:05Z</time>
      </trkpt>
      <trkpt lat="44.12303" lon="7.27032">
        <ele>1655.1</ele>
        <time>2023-02-05T13:56:06Z</time>
      </trkpt>
      <trkpt lat="44.12302" lon="7.27033">
        <ele>1654.9</ele>
        <time>2023-02-05T13:56:07Z</time>
      </trkpt>
      <trkpt lat="44.12301" lon="7.27035">
        <ele>1654.6</ele>
        <time>2023-02-05T13:56:08Z</time>
      </trkpt>
      <trkpt lat="44.123" lon="7.27036">
        <ele>1654.5</ele>
        <time>2023-02-05T13:56:09Z</time>
      </trkpt>
      <trkpt lat="44.12299" lon="7.27037">
        <ele>1654.3</ele>
        <time>2023-02-05T13:56:10Z</time>
      </trkpt>
      <trkpt lat="44.12298" lon="7.27039">
        <ele>1654.2</ele>
        <time>2023-02-05T13:56:11Z</time>
      </trkpt>
      <trkpt lat="44.12297" lon="7.27041">
        <ele>1654.1</ele>
        <time>2023-02-05T13:56:12Z</time>
      </trkpt>
      <trkpt lat="44.12296" lon="7.27043">
        <ele>1654.1</ele>
        <time>2023-02-05T13:56:13Z</time>
      </trkpt>
      <trkpt lat="44.12295" lon="7.27044">
        <ele>1654</ele>
        <time>2023-02-05T13:56:14Z</time>
      </trkpt>
      <trkpt lat="44.12294" lon="7.27045">
        <ele>1653.9</ele>
        <time>2023-02-05T13:56:15Z</time>
      </trkpt>
      <trkpt lat="44.12293" lon="7.27045">
        <ele>1653.7</ele>
        <time>2023-02-05T13:56:16Z</time>
      </trkpt>
      <trkpt lat="44.12292" lon="7.27046">
        <ele>1653.6</ele>
        <time>2023-02-05T13:56:17Z</time>
      </trkpt>
      <trkpt lat="44.12291" lon="7.27047">
        <ele>1653.5</ele>
        <time>2023-02-05T13:56:18Z</time>
      </trkpt>
      <trkpt lat="44.12289" lon="7.27048">
        <ele>1653.4</ele>
        <time>2023-02-05T13:56:19Z</time>
      </trkpt>
      <trkpt lat="44.12288" lon="7.27049">
        <ele>1653.3</ele>
        <time>2023-02-05T13:56:20Z</time>
      </trkpt>
      <trkpt lat="44.12287" lon="7.27049">
        <ele>1653.2</ele>
        <time>2023-02-05T13:56:21Z</time>
      </trkpt>
      <trkpt lat="44.12286" lon="7.2705">
        <ele>1653.1</ele>
        <time>2023-02-05T13:56:22Z</time>
      </trkpt>
      <trkpt lat="44.12285" lon="7.27051">
        <ele>1653</ele>
        <time>2023-02-05T13:56:23Z</time>
      </trkpt>
      <trkpt lat="44.12284" lon="7.27052">
        <ele>1653</ele>
        <time>2023-02-05T13:56:24Z</time>
      </trkpt>
      <trkpt lat="44.12284" lon="7.27054">
        <ele>1652.8</ele>
        <time>2023-02-05T13:56:25Z</time>
      </trkpt>
      <trkpt lat="44.12282" lon="7.27054">
        <ele>1652.6</ele>
        <time>2023-02-05T13:56:26Z</time>
      </trkpt>
      <trkpt lat="44.12281" lon="7.27055">
        <ele>1652.5</ele>
        <time>2023-02-05T13:56:27Z</time>
      </trkpt>
      <trkpt lat="44.12279" lon="7.27056">
        <ele>1652.4</ele>
        <time>2023-02-05T13:56:28Z</time>
      </trkpt>
      <trkpt lat="44.12278" lon="7.27056">
        <ele>1652.3</ele>
        <time>2023-02-05T13:56:29Z</time>
      </trkpt>
      <trkpt lat="44.12277" lon="7.27057">
        <ele>1652.2</ele>
        <time>2023-02-05T13:56:30Z</time>
      </trkpt>
      <trkpt lat="44.12276" lon="7.27058">
        <ele>1652.1</ele>
        <time>2023-02-05T13:56:31Z</time>
      </trkpt>
      <trkpt lat="44.12274" lon="7.27059">
        <ele>1652</ele>
        <time>2023-02-05T13:56:32Z</time>
      </trkpt>
      <trkpt lat="44.12273" lon="7.27059">
        <ele>1651.9</ele>
        <time>2023-02-05T13:56:33Z</time>
      </trkpt>
      <trkpt lat="44.12271" lon="7.27059">
        <ele>1651.8</ele>
        <time>2023-02-05T13:56:34Z</time>
      </trkpt>
      <trkpt lat="44.1227" lon="7.2706">
        <ele>1651.6</ele>
        <time>2023-02-05T13:56:35Z</time>
      </trkpt>
      <trkpt lat="44.12269" lon="7.27061">
        <ele>1651.5</ele>
        <time>2023-02-05T13:56:36Z</time>
      </trkpt>
      <trkpt lat="44.12268" lon="7.27061">
        <ele>1651.3</ele>
        <time>2023-02-05T13:56:37Z</time>
      </trkpt>
      <trkpt lat="44.12267" lon="7.27062">
        <ele>1651.2</ele>
        <time>2023-02-05T13:56:38Z</time>
      </trkpt>
      <trkpt lat="44.12267" lon="7.27063">
        <ele>1651.1</ele>
        <time>2023-02-05T13:56:39Z</time>
      </trkpt>
      <trkpt lat="44.12266" lon="7.27063">
        <ele>1651</ele>
        <time>2023-02-05T13:56:40Z</time>
      </trkpt>
      <trkpt lat="44.12265" lon="7.27065">
        <ele>1650.9</ele>
        <time>2023-02-05T13:56:41Z</time>
      </trkpt>
      <trkpt lat="44.12265" lon="7.27067">
        <ele>1650.9</ele>
        <time>2023-02-05T13:56:42Z</time>
      </trkpt>
      <trkpt lat="44.12264" lon="7.27068">
        <ele>1650.8</ele>
        <time>2023-02-05T13:56:43Z</time>
      </trkpt>
      <trkpt lat="44.12264" lon="7.27069">
        <ele>1650.6</ele>
        <time>2023-02-05T13:56:44Z</time>
      </trkpt>
      <trkpt lat="44.12263" lon="7.2707">
        <ele>1650.5</ele>
        <time>2023-02-05T13:56:45Z</time>
      </trkpt>
      <trkpt lat="44.12262" lon="7.27072">
        <ele>1650.4</ele>
        <time>2023-02-05T13:56:46Z</time>
      </trkpt>
      <trkpt lat="44.12262" lon="7.27074">
        <ele>1650.3</ele>
        <time>2023-02-05T13:56:47Z</time>
      </trkpt>
      <trkpt lat="44.12261" lon="7.27076">
        <ele>1650.2</ele>
        <time>2023-02-05T13:56:48Z</time>
      </trkpt>
      <trkpt lat="44.12261" lon="7.27078">
        <ele>1650.2</ele>
        <time>2023-02-05T13:56:49Z</time>
      </trkpt>
      <trkpt lat="44.1226" lon="7.2708">
        <ele>1650.1</ele>
        <time>2023-02-05T13:56:50Z</time>
      </trkpt>
      <trkpt lat="44.1226" lon="7.27081">
        <ele>1650</ele>
        <time>2023-02-05T13:56:51Z</time>
      </trkpt>
      <trkpt lat="44.1226" lon="7.27083">
        <ele>1649.9</ele>
        <time>2023-02-05T13:56:52Z</time>
      </trkpt>
      <trkpt lat="44.1226" lon="7.27085">
        <ele>1649.8</ele>
        <time>2023-02-05T13:56:53Z</time>
      </trkpt>
      <trkpt lat="44.12258" lon="7.27088">
        <ele>1649.6</ele>
        <time>2023-02-05T13:56:54Z</time>
      </trkpt>
      <trkpt lat="44.12257" lon="7.2709">
        <ele>1649.5</ele>
        <time>2023-02-05T13:56:55Z</time>
      </trkpt>
      <trkpt lat="44.12256" lon="7.27092">
        <ele>1649.2</ele>
        <time>2023-02-05T13:56:56Z</time>
      </trkpt>
      <trkpt lat="44.12256" lon="7.27094">
        <ele>1649.1</ele>
        <time>2023-02-05T13:56:57Z</time>
      </trkpt>
      <trkpt lat="44.12255" lon="7.27096">
        <ele>1648.9</ele>
        <time>2023-02-05T13:56:58Z</time>
      </trkpt>
      <trkpt lat="44.12254" lon="7.27097">
        <ele>1648.8</ele>
        <time>2023-02-05T13:56:59Z</time>
      </trkpt>
      <trkpt lat="44.12253" lon="7.27098">
        <ele>1648.7</ele>
        <time>2023-02-05T13:57:00Z</time>
      </trkpt>
      <trkpt lat="44.12252" lon="7.27099">
        <ele>1648.5</ele>
        <time>2023-02-05T13:57:01Z</time>
      </trkpt>
      <trkpt lat="44.12252" lon="7.27101">
        <ele>1648.4</ele>
        <time>2023-02-05T13:57:02Z</time>
      </trkpt>
      <trkpt lat="44.1225" lon="7.27103">
        <ele>1648.2</ele>
        <time>2023-02-05T13:57:03Z</time>
      </trkpt>
      <trkpt lat="44.12249" lon="7.27103">
        <ele>1648</ele>
        <time>2023-02-05T13:57:04Z</time>
      </trkpt>
      <trkpt lat="44.12249" lon="7.27105">
        <ele>1647.9</ele>
        <time>2023-02-05T13:57:05Z</time>
      </trkpt>
      <trkpt lat="44.12248" lon="7.27107">
        <ele>1647.7</ele>
        <time>2023-02-05T13:57:06Z</time>
      </trkpt>
      <trkpt lat="44.12247" lon="7.27107">
        <ele>1647.6</ele>
        <time>2023-02-05T13:57:07Z</time>
      </trkpt>
      <trkpt lat="44.12246" lon="7.27108">
        <ele>1647.4</ele>
        <time>2023-02-05T13:57:08Z</time>
      </trkpt>
      <trkpt lat="44.12246" lon="7.27109">
        <ele>1647.2</ele>
        <time>2023-02-05T13:57:09Z</time>
      </trkpt>
      <trkpt lat="44.12245" lon="7.27111">
        <ele>1647.1</ele>
        <time>2023-02-05T13:57:10Z</time>
      </trkpt>
      <trkpt lat="44.12244" lon="7.27112">
        <ele>1647</ele>
        <time>2023-02-05T13:57:11Z</time>
      </trkpt>
      <trkpt lat="44.12243" lon="7.27113">
        <ele>1646.8</ele>
        <time>2023-02-05T13:57:12Z</time>
      </trkpt>
      <trkpt lat="44.12242" lon="7.27114">
        <ele>1646.7</ele>
        <time>2023-02-05T13:57:13Z</time>
      </trkpt>
      <trkpt lat="44.12241" lon="7.27115">
        <ele>1646.6</ele>
        <time>2023-02-05T13:57:14Z</time>
      </trkpt>
      <trkpt lat="44.1224" lon="7.27116">
        <ele>1646.4</ele>
        <time>2023-02-05T13:57:15Z</time>
      </trkpt>
      <trkpt lat="44.12239" lon="7.27117">
        <ele>1646.3</ele>
        <time>2023-02-05T13:57:16Z</time>
      </trkpt>
      <trkpt lat="44.12238" lon="7.27118">
        <ele>1646.2</ele>
        <time>2023-02-05T13:57:17Z</time>
      </trkpt>
      <trkpt lat="44.12237" lon="7.27119">
        <ele>1646</ele>
        <time>2023-02-05T13:57:18Z</time>
      </trkpt>
      <trkpt lat="44.12236" lon="7.27119">
        <ele>1645.9</ele>
        <time>2023-02-05T13:57:19Z</time>
      </trkpt>
      <trkpt lat="44.12235" lon="7.27119">
        <ele>1645.9</ele>
        <time>2023-02-05T13:57:20Z</time>
      </trkpt>
      <trkpt lat="44.12234" lon="7.2712">
        <ele>1645.9</ele>
        <time>2023-02-05T13:57:21Z</time>
      </trkpt>
      <trkpt lat="44.12234" lon="7.27121">
        <ele>1645.9</ele>
        <time>2023-02-05T13:57:22Z</time>
      </trkpt>
      <trkpt lat="44.12233" lon="7.27121">
        <ele>1645.9</ele>
        <time>2023-02-05T13:57:23Z</time>
      </trkpt>
      <trkpt lat="44.12233" lon="7.27122">
        <ele>1645.8</ele>
        <time>2023-02-05T13:57:24Z</time>
      </trkpt>
      <trkpt lat="44.12232" lon="7.27122">
        <ele>1645.7</ele>
        <time>2023-02-05T13:57:25Z</time>
      </trkpt>
      <trkpt lat="44.12232" lon="7.27122">
        <ele>1645.6</ele>
        <time>2023-02-05T13:57:26Z</time>
      </trkpt>
      <trkpt lat="44.12232" lon="7.27122">
        <ele>1645.6</ele>
        <time>2023-02-05T13:57:27Z</time>
      </trkpt>
      <trkpt lat="44.12231" lon="7.27123">
        <ele>1645.5</ele>
        <time>2023-02-05T13:57:28Z</time>
      </trkpt>
      <trkpt lat="44.1223" lon="7.27124">
        <ele>1645.5</ele>
        <time>2023-02-05T13:57:29Z</time>
      </trkpt>
      <trkpt lat="44.1223" lon="7.27124">
        <ele>1645.5</ele>
        <time>2023-02-05T13:57:30Z</time>
      </trkpt>
      <trkpt lat="44.12229" lon="7.27125">
        <ele>1645.4</ele>
        <time>2023-02-05T13:57:31Z</time>
      </trkpt>
      <trkpt lat="44.1223" lon="7.27126">
        <ele>1645.4</ele>
        <time>2023-02-05T13:57:32Z</time>
      </trkpt>
      <trkpt lat="44.1223" lon="7.27127">
        <ele>1645.3</ele>
        <time>2023-02-05T13:57:33Z</time>
      </trkpt>
      <trkpt lat="44.1223" lon="7.27127">
        <ele>1645.3</ele>
        <time>2023-02-05T13:57:34Z</time>
      </trkpt>
      <trkpt lat="44.1223" lon="7.27128">
        <ele>1645.2</ele>
        <time>2023-02-05T13:57:35Z</time>
      </trkpt>
      <trkpt lat="44.12229" lon="7.27128">
        <ele>1645.2</ele>
        <time>2023-02-05T13:57:36Z</time>
      </trkpt>
      <trkpt lat="44.12229" lon="7.27129">
        <ele>1645.2</ele>
        <time>2023-02-05T13:57:37Z</time>
      </trkpt>
      <trkpt lat="44.12228" lon="7.2713">
        <ele>1645.2</ele>
        <time>2023-02-05T13:57:38Z</time>
      </trkpt>
      <trkpt lat="44.12228" lon="7.2713">
        <ele>1645.2</ele>
        <time>2023-02-05T13:57:39Z</time>
      </trkpt>
      <trkpt lat="44.12227" lon="7.27129">
        <ele>1645.1</ele>
        <time>2023-02-05T13:57:40Z</time>
      </trkpt>
      <trkpt lat="44.12227" lon="7.2713">
        <ele>1645</ele>
        <time>2023-02-05T13:57:41Z</time>
      </trkpt>
      <trkpt lat="44.12227" lon="7.2713">
        <ele>1644.9</ele>
        <time>2023-02-05T13:57:42Z</time>
      </trkpt>
      <trkpt lat="44.12227" lon="7.2713">
        <ele>1644.8</ele>
        <time>2023-02-05T13:57:43Z</time>
      </trkpt>
      <trkpt lat="44.12227" lon="7.27129">
        <ele>1644.7</ele>
        <time>2023-02-05T13:57:44Z</time>
      </trkpt>
      <trkpt lat="44.12226" lon="7.27129">
        <ele>1644.6</ele>
        <time>2023-02-05T13:57:45Z</time>
      </trkpt>
      <trkpt lat="44.12227" lon="7.2713">
        <ele>1644.6</ele>
        <time>2023-02-05T13:57:46Z</time>
      </trkpt>
      <trkpt lat="44.12226" lon="7.2713">
        <ele>1644.6</ele>
        <time>2023-02-05T13:57:47Z</time>
      </trkpt>
      <trkpt lat="44.12226" lon="7.27131">
        <ele>1644.6</ele>
        <time>2023-02-05T13:57:48Z</time>
      </trkpt>
      <trkpt lat="44.12226" lon="7.27131">
        <ele>1644.5</ele>
        <time>2023-02-05T13:57:49Z</time>
      </trkpt>
      <trkpt lat="44.12226" lon="7.27131">
        <ele>1644.5</ele>
        <time>2023-02-05T13:57:50Z</time>
      </trkpt>
      <trkpt lat="44.12226" lon="7.27131">
        <ele>1644.5</ele>
        <time>2023-02-05T13:57:51Z</time>
      </trkpt>
      <trkpt lat="44.12227" lon="7.27131">
        <ele>1644.3</ele>
        <time>2023-02-05T13:57:52Z</time>
      </trkpt>
      <trkpt lat="44.12227" lon="7.27131">
        <ele>1644.3</ele>
        <time>2023-02-05T13:57:53Z</time>
      </trkpt>
      <trkpt lat="44.12227" lon="7.27131">
        <ele>1644.4</ele>
        <time>2023-02-05T13:57:54Z</time>
      </trkpt>
      <trkpt lat="44.12227" lon="7.27131">
        <ele>1644.4</ele>
        <time>2023-02-05T13:57:55Z</time>
      </trkpt>
      <trkpt lat="44.12227" lon="7.27131">
        <ele>1644.3</ele>
        <time>2023-02-05T13:57:56Z</time>
      </trkpt>
      <trkpt lat="44.12227" lon="7.27131">
        <ele>1644.3</ele>
        <time>2023-02-05T13:57:57Z</time>
      </trkpt>
      <trkpt lat="44.12227" lon="7.27131">
        <ele>1644.3</ele>
        <time>2023-02-05T13:57:58Z</time>
      </trkpt>
      <trkpt lat="44.12227" lon="7.27132">
        <ele>1644.2</ele>
        <time>2023-02-05T13:57:59Z</time>
      </trkpt>
      <trkpt lat="44.12227" lon="7.27132">
        <ele>1644.2</ele>
        <time>2023-02-05T13:58:00Z</time>
      </trkpt>
      <trkpt lat="44.12226" lon="7.27131">
        <ele>1644.2</ele>
        <time>2023-02-05T13:58:01Z</time>
      </trkpt>
      <trkpt lat="44.12226" lon="7.27131">
        <ele>1644.2</ele>
        <time>2023-02-05T13:58:02Z</time>
      </trkpt>
      <trkpt lat="44.12226" lon="7.27132">
        <ele>1644.3</ele>
        <time>2023-02-05T13:58:03Z</time>
      </trkpt>
      <trkpt lat="44.12226" lon="7.27132">
        <ele>1644.4</ele>
        <time>2023-02-05T13:58:04Z</time>
      </trkpt>
      <trkpt lat="44.12226" lon="7.27131">
        <ele>1644.4</ele>
        <time>2023-02-05T13:58:05Z</time>
      </trkpt>
      <trkpt lat="44.12226" lon="7.27131">
        <ele>1644.5</ele>
        <time>2023-02-05T13:58:06Z</time>
      </trkpt>
      <trkpt lat="44.12226" lon="7.27131">
        <ele>1644.6</ele>
        <time>2023-02-05T13:58:07Z</time>
      </trkpt>
      <trkpt lat="44.12225" lon="7.27131">
        <ele>1644.5</ele>
        <time>2023-02-05T13:58:08Z</time>
      </trkpt>
      <trkpt lat="44.12225" lon="7.27131">
        <ele>1644.5</ele>
        <time>2023-02-05T13:58:09Z</time>
      </trkpt>
      <trkpt lat="44.12225" lon="7.27131">
        <ele>1644.6</ele>
        <time>2023-02-05T13:58:10Z</time>
      </trkpt>
      <trkpt lat="44.12225" lon="7.27131">
        <ele>1644.5</ele>
        <time>2023-02-05T13:58:11Z</time>
      </trkpt>
      <trkpt lat="44.12225" lon="7.27131">
        <ele>1644.5</ele>
        <time>2023-02-05T13:58:12Z</time>
      </trkpt>
      <trkpt lat="44.12225" lon="7.27131">
        <ele>1644.5</ele>
        <time>2023-02-05T13:58:13Z</time>
      </trkpt>
      <trkpt lat="44.12225" lon="7.27131">
        <ele>1644.4</ele>
        <time>2023-02-05T13:58:14Z</time>
      </trkpt>
      <trkpt lat="44.12225" lon="7.27131">
        <ele>1644.4</ele>
        <time>2023-02-05T13:58:15Z</time>
      </trkpt>
      <trkpt lat="44.12225" lon="7.27131">
        <ele>1644.4</ele>
        <time>2023-02-05T13:58:16Z</time>
      </trkpt>
      <trkpt lat="44.12225" lon="7.27131">
        <ele>1644.3</ele>
        <time>2023-02-05T13:58:17Z</time>
      </trkpt>
      <trkpt lat="44.12225" lon="7.27131">
        <ele>1644.3</ele>
        <time>2023-02-05T13:58:18Z</time>
      </trkpt>
      <trkpt lat="44.12225" lon="7.27131">
        <ele>1644.3</ele>
        <time>2023-02-05T13:58:19Z</time>
      </trkpt>
      <trkpt lat="44.12225" lon="7.27131">
        <ele>1644.3</ele>
        <time>2023-02-05T13:58:20Z</time>
      </trkpt>
      <trkpt lat="44.12225" lon="7.2713">
        <ele>1644.3</ele>
        <time>2023-02-05T13:58:21Z</time>
      </trkpt>
      <trkpt lat="44.12225" lon="7.2713">
        <ele>1644.3</ele>
        <time>2023-02-05T13:58:22Z</time>
      </trkpt>
      <trkpt lat="44.12225" lon="7.2713">
        <ele>1644.4</ele>
        <time>2023-02-05T13:58:23Z</time>
      </trkpt>
      <trkpt lat="44.12225" lon="7.2713">
        <ele>1644.4</ele>
        <time>2023-02-05T13:58:24Z</time>
      </trkpt>
      <trkpt lat="44.12225" lon="7.2713">
        <ele>1644.4</ele>
        <time>2023-02-05T13:58:25Z</time>
      </trkpt>
      <trkpt lat="44.12225" lon="7.2713">
        <ele>1644.3</ele>
        <time>2023-02-05T13:58:26Z</time>
      </trkpt>
      <trkpt lat="44.12224" lon="7.2713">
        <ele>1644.2</ele>
        <time>2023-02-05T13:58:27Z</time>
      </trkpt>
      <trkpt lat="44.12223" lon="7.27131">
        <ele>1644.3</ele>
        <time>2023-02-05T13:58:28Z</time>
      </trkpt>
      <trkpt lat="44.12222" lon="7.27132">
        <ele>1644.4</ele>
        <time>2023-02-05T13:58:29Z</time>
      </trkpt>
      <trkpt lat="44.12221" lon="7.27132">
        <ele>1644.5</ele>
        <time>2023-02-05T13:58:30Z</time>
      </trkpt>
      <trkpt lat="44.1222" lon="7.27133">
        <ele>1644.4</ele>
        <time>2023-02-05T13:58:31Z</time>
      </trkpt>
      <trkpt lat="44.12219" lon="7.27133">
        <ele>1644.4</ele>
        <time>2023-02-05T13:58:32Z</time>
      </trkpt>
      <trkpt lat="44.12218" lon="7.27134">
        <ele>1644.4</ele>
        <time>2023-02-05T13:58:33Z</time>
      </trkpt>
      <trkpt lat="44.12217" lon="7.27135">
        <ele>1644.1</ele>
        <time>2023-02-05T13:58:34Z</time>
      </trkpt>
      <trkpt lat="44.12216" lon="7.27136">
        <ele>1644.1</ele>
        <time>2023-02-05T13:58:35Z</time>
      </trkpt>
      <trkpt lat="44.12216" lon="7.27137">
        <ele>1644.1</ele>
        <time>2023-02-05T13:58:36Z</time>
      </trkpt>
      <trkpt lat="44.12215" lon="7.27137">
        <ele>1644.1</ele>
        <time>2023-02-05T13:58:37Z</time>
      </trkpt>
      <trkpt lat="44.12214" lon="7.27138">
        <ele>1644</ele>
        <time>2023-02-05T13:58:38Z</time>
      </trkpt>
      <trkpt lat="44.12213" lon="7.27138">
        <ele>1644</ele>
        <time>2023-02-05T13:58:39Z</time>
      </trkpt>
      <trkpt lat="44.12213" lon="7.27137">
        <ele>1643.9</ele>
        <time>2023-02-05T13:58:40Z</time>
      </trkpt>
      <trkpt lat="44.12212" lon="7.27137">
        <ele>1643.9</ele>
        <time>2023-02-05T13:58:41Z</time>
      </trkpt>
      <trkpt lat="44.1221" lon="7.27137">
        <ele>1643.8</ele>
        <time>2023-02-05T13:58:42Z</time>
      </trkpt>
      <trkpt lat="44.12209" lon="7.27137">
        <ele>1643.6</ele>
        <time>2023-02-05T13:58:43Z</time>
      </trkpt>
      <trkpt lat="44.12208" lon="7.27138">
        <ele>1643.5</ele>
        <time>2023-02-05T13:58:44Z</time>
      </trkpt>
      <trkpt lat="44.12207" lon="7.27139">
        <ele>1643.4</ele>
        <time>2023-02-05T13:58:45Z</time>
      </trkpt>
      <trkpt lat="44.12205" lon="7.2714">
        <ele>1643.3</ele>
        <time>2023-02-05T13:58:46Z</time>
      </trkpt>
      <trkpt lat="44.12204" lon="7.27141">
        <ele>1643.2</ele>
        <time>2023-02-05T13:58:47Z</time>
      </trkpt>
      <trkpt lat="44.12202" lon="7.27142">
        <ele>1643.2</ele>
        <time>2023-02-05T13:58:48Z</time>
      </trkpt>
      <trkpt lat="44.12201" lon="7.27143">
        <ele>1643.1</ele>
        <time>2023-02-05T13:58:49Z</time>
      </trkpt>
      <trkpt lat="44.12199" lon="7.27143">
        <ele>1643</ele>
        <time>2023-02-05T13:58:50Z</time>
      </trkpt>
      <trkpt lat="44.12198" lon="7.27143">
        <ele>1643</ele>
        <time>2023-02-05T13:58:51Z</time>
      </trkpt>
      <trkpt lat="44.12197" lon="7.27144">
        <ele>1642.9</ele>
        <time>2023-02-05T13:58:52Z</time>
      </trkpt>
      <trkpt lat="44.12196" lon="7.27145">
        <ele>1642.8</ele>
        <time>2023-02-05T13:58:53Z</time>
      </trkpt>
      <trkpt lat="44.12195" lon="7.27146">
        <ele>1642.6</ele>
        <time>2023-02-05T13:58:54Z</time>
      </trkpt>
      <trkpt lat="44.12194" lon="7.27147">
        <ele>1642.5</ele>
        <time>2023-02-05T13:58:55Z</time>
      </trkpt>
      <trkpt lat="44.12192" lon="7.27148">
        <ele>1642.4</ele>
        <time>2023-02-05T13:58:56Z</time>
      </trkpt>
      <trkpt lat="44.12191" lon="7.27148">
        <ele>1642.3</ele>
        <time>2023-02-05T13:58:57Z</time>
      </trkpt>
      <trkpt lat="44.1219" lon="7.27149">
        <ele>1642.2</ele>
        <time>2023-02-05T13:58:58Z</time>
      </trkpt>
      <trkpt lat="44.12188" lon="7.2715">
        <ele>1642.2</ele>
        <time>2023-02-05T13:58:59Z</time>
      </trkpt>
      <trkpt lat="44.12188" lon="7.27152">
        <ele>1642</ele>
        <time>2023-02-05T13:59:00Z</time>
      </trkpt>
      <trkpt lat="44.12187" lon="7.27152">
        <ele>1641.9</ele>
        <time>2023-02-05T13:59:01Z</time>
      </trkpt>
      <trkpt lat="44.12186" lon="7.27153">
        <ele>1641.9</ele>
        <time>2023-02-05T13:59:02Z</time>
      </trkpt>
      <trkpt lat="44.12185" lon="7.27154">
        <ele>1641.8</ele>
        <time>2023-02-05T13:59:03Z</time>
      </trkpt>
      <trkpt lat="44.12185" lon="7.27156">
        <ele>1641.6</ele>
        <time>2023-02-05T13:59:04Z</time>
      </trkpt>
      <trkpt lat="44.12184" lon="7.27157">
        <ele>1641.7</ele>
        <time>2023-02-05T13:59:05Z</time>
      </trkpt>
      <trkpt lat="44.12183" lon="7.27159">
        <ele>1641.6</ele>
        <time>2023-02-05T13:59:06Z</time>
      </trkpt>
      <trkpt lat="44.12182" lon="7.2716">
        <ele>1641.4</ele>
        <time>2023-02-05T13:59:07Z</time>
      </trkpt>
      <trkpt lat="44.12182" lon="7.27161">
        <ele>1641.2</ele>
        <time>2023-02-05T13:59:08Z</time>
      </trkpt>
      <trkpt lat="44.12181" lon="7.27162">
        <ele>1641.1</ele>
        <time>2023-02-05T13:59:09Z</time>
      </trkpt>
      <trkpt lat="44.1218" lon="7.27162">
        <ele>1640.9</ele>
        <time>2023-02-05T13:59:10Z</time>
      </trkpt>
      <trkpt lat="44.12179" lon="7.27163">
        <ele>1640.8</ele>
        <time>2023-02-05T13:59:11Z</time>
      </trkpt>
      <trkpt lat="44.12178" lon="7.27163">
        <ele>1640.8</ele>
        <time>2023-02-05T13:59:12Z</time>
      </trkpt>
      <trkpt lat="44.12176" lon="7.27164">
        <ele>1640.7</ele>
        <time>2023-02-05T13:59:13Z</time>
      </trkpt>
      <trkpt lat="44.12175" lon="7.27165">
        <ele>1640.6</ele>
        <time>2023-02-05T13:59:14Z</time>
      </trkpt>
      <trkpt lat="44.12174" lon="7.27166">
        <ele>1640.5</ele>
        <time>2023-02-05T13:59:15Z</time>
      </trkpt>
      <trkpt lat="44.12173" lon="7.27167">
        <ele>1640.4</ele>
        <time>2023-02-05T13:59:16Z</time>
      </trkpt>
      <trkpt lat="44.12171" lon="7.27168">
        <ele>1640.4</ele>
        <time>2023-02-05T13:59:17Z</time>
      </trkpt>
      <trkpt lat="44.12171" lon="7.27169">
        <ele>1640.2</ele>
        <time>2023-02-05T13:59:18Z</time>
      </trkpt>
      <trkpt lat="44.12169" lon="7.27169">
        <ele>1640.1</ele>
        <time>2023-02-05T13:59:19Z</time>
      </trkpt>
      <trkpt lat="44.12168" lon="7.2717">
        <ele>1640</ele>
        <time>2023-02-05T13:59:20Z</time>
      </trkpt>
      <trkpt lat="44.12167" lon="7.2717">
        <ele>1639.9</ele>
        <time>2023-02-05T13:59:21Z</time>
      </trkpt>
      <trkpt lat="44.12166" lon="7.27172">
        <ele>1639.7</ele>
        <time>2023-02-05T13:59:22Z</time>
      </trkpt>
      <trkpt lat="44.12165" lon="7.27172">
        <ele>1639.4</ele>
        <time>2023-02-05T13:59:23Z</time>
      </trkpt>
      <trkpt lat="44.12164" lon="7.27172">
        <ele>1639.3</ele>
        <time>2023-02-05T13:59:24Z</time>
      </trkpt>
      <trkpt lat="44.12162" lon="7.27173">
        <ele>1639.2</ele>
        <time>2023-02-05T13:59:25Z</time>
      </trkpt>
      <trkpt lat="44.12161" lon="7.27174">
        <ele>1639.1</ele>
        <time>2023-02-05T13:59:26Z</time>
      </trkpt>
      <trkpt lat="44.12161" lon="7.27176">
        <ele>1639</ele>
        <time>2023-02-05T13:59:27Z</time>
      </trkpt>
      <trkpt lat="44.1216" lon="7.27177">
        <ele>1638.8</ele>
        <time>2023-02-05T13:59:28Z</time>
      </trkpt>
      <trkpt lat="44.12159" lon="7.27178">
        <ele>1638.7</ele>
        <time>2023-02-05T13:59:29Z</time>
      </trkpt>
      <trkpt lat="44.12158" lon="7.27179">
        <ele>1638.6</ele>
        <time>2023-02-05T13:59:30Z</time>
      </trkpt>
      <trkpt lat="44.12157" lon="7.27179">
        <ele>1638.5</ele>
        <time>2023-02-05T13:59:31Z</time>
      </trkpt>
      <trkpt lat="44.12155" lon="7.2718">
        <ele>1638.3</ele>
        <time>2023-02-05T13:59:32Z</time>
      </trkpt>
      <trkpt lat="44.12155" lon="7.27181">
        <ele>1638.3</ele>
        <time>2023-02-05T13:59:33Z</time>
      </trkpt>
      <trkpt lat="44.12153" lon="7.27181">
        <ele>1638.2</ele>
        <time>2023-02-05T13:59:34Z</time>
      </trkpt>
      <trkpt lat="44.12152" lon="7.27182">
        <ele>1638</ele>
        <time>2023-02-05T13:59:35Z</time>
      </trkpt>
      <trkpt lat="44.12151" lon="7.27183">
        <ele>1637.9</ele>
        <time>2023-02-05T13:59:36Z</time>
      </trkpt>
      <trkpt lat="44.1215" lon="7.27184">
        <ele>1637.8</ele>
        <time>2023-02-05T13:59:37Z</time>
      </trkpt>
      <trkpt lat="44.12149" lon="7.27185">
        <ele>1637.7</ele>
        <time>2023-02-05T13:59:38Z</time>
      </trkpt>
      <trkpt lat="44.12148" lon="7.27187">
        <ele>1637.6</ele>
        <time>2023-02-05T13:59:39Z</time>
      </trkpt>
      <trkpt lat="44.12148" lon="7.27188">
        <ele>1637.4</ele>
        <time>2023-02-05T13:59:40Z</time>
      </trkpt>
      <trkpt lat="44.12147" lon="7.27189">
        <ele>1637.2</ele>
        <time>2023-02-05T13:59:41Z</time>
      </trkpt>
      <trkpt lat="44.12146" lon="7.2719">
        <ele>1637</ele>
        <time>2023-02-05T13:59:42Z</time>
      </trkpt>
      <trkpt lat="44.12145" lon="7.27191">
        <ele>1637</ele>
        <time>2023-02-05T13:59:43Z</time>
      </trkpt>
      <trkpt lat="44.12144" lon="7.27192">
        <ele>1636.8</ele>
        <time>2023-02-05T13:59:44Z</time>
      </trkpt>
      <trkpt lat="44.12143" lon="7.27193">
        <ele>1636.7</ele>
        <time>2023-02-05T13:59:45Z</time>
      </trkpt>
      <trkpt lat="44.12141" lon="7.27194">
        <ele>1636.6</ele>
        <time>2023-02-05T13:59:46Z</time>
      </trkpt>
      <trkpt lat="44.1214" lon="7.27195">
        <ele>1636.5</ele>
        <time>2023-02-05T13:59:47Z</time>
      </trkpt>
      <trkpt lat="44.12139" lon="7.27196">
        <ele>1636.4</ele>
        <time>2023-02-05T13:59:48Z</time>
      </trkpt>
      <trkpt lat="44.12139" lon="7.27198">
        <ele>1636.3</ele>
        <time>2023-02-05T13:59:49Z</time>
      </trkpt>
      <trkpt lat="44.12138" lon="7.27199">
        <ele>1636.1</ele>
        <time>2023-02-05T13:59:50Z</time>
      </trkpt>
      <trkpt lat="44.12138" lon="7.27201">
        <ele>1635.9</ele>
        <time>2023-02-05T13:59:51Z</time>
      </trkpt>
      <trkpt lat="44.12137" lon="7.27202">
        <ele>1635.7</ele>
        <time>2023-02-05T13:59:52Z</time>
      </trkpt>
      <trkpt lat="44.12136" lon="7.27203">
        <ele>1635.6</ele>
        <time>2023-02-05T13:59:53Z</time>
      </trkpt>
      <trkpt lat="44.12135" lon="7.27204">
        <ele>1635.5</ele>
        <time>2023-02-05T13:59:54Z</time>
      </trkpt>
      <trkpt lat="44.12133" lon="7.27204">
        <ele>1635.4</ele>
        <time>2023-02-05T13:59:55Z</time>
      </trkpt>
      <trkpt lat="44.12132" lon="7.27205">
        <ele>1635.3</ele>
        <time>2023-02-05T13:59:56Z</time>
      </trkpt>
      <trkpt lat="44.12132" lon="7.27207">
        <ele>1635.2</ele>
        <time>2023-02-05T13:59:57Z</time>
      </trkpt>
      <trkpt lat="44.12131" lon="7.27208">
        <ele>1635.1</ele>
        <time>2023-02-05T13:59:58Z</time>
      </trkpt>
      <trkpt lat="44.1213" lon="7.27209">
        <ele>1635</ele>
        <time>2023-02-05T13:59:59Z</time>
      </trkpt>
      <trkpt lat="44.12129" lon="7.27211">
        <ele>1634.9</ele>
        <time>2023-02-05T14:00:00Z</time>
      </trkpt>
      <trkpt lat="44.12128" lon="7.27212">
        <ele>1634.8</ele>
        <time>2023-02-05T14:00:01Z</time>
      </trkpt>
      <trkpt lat="44.12127" lon="7.27213">
        <ele>1634.7</ele>
        <time>2023-02-05T14:00:02Z</time>
      </trkpt>
      <trkpt lat="44.12126" lon="7.27214">
        <ele>1634.7</ele>
        <time>2023-02-05T14:00:03Z</time>
      </trkpt>
      <trkpt lat="44.12125" lon="7.27215">
        <ele>1634.6</ele>
        <time>2023-02-05T14:00:04Z</time>
      </trkpt>
      <trkpt lat="44.12124" lon="7.27216">
        <ele>1634.4</ele>
        <time>2023-02-05T14:00:05Z</time>
      </trkpt>
      <trkpt lat="44.12123" lon="7.27217">
        <ele>1634.2</ele>
        <time>2023-02-05T14:00:06Z</time>
      </trkpt>
      <trkpt lat="44.12122" lon="7.27217">
        <ele>1633.9</ele>
        <time>2023-02-05T14:00:07Z</time>
      </trkpt>
      <trkpt lat="44.12121" lon="7.27218">
        <ele>1633.9</ele>
        <time>2023-02-05T14:00:08Z</time>
      </trkpt>
      <trkpt lat="44.12121" lon="7.2722">
        <ele>1633.7</ele>
        <time>2023-02-05T14:00:09Z</time>
      </trkpt>
      <trkpt lat="44.12121" lon="7.27222">
        <ele>1633.5</ele>
        <time>2023-02-05T14:00:10Z</time>
      </trkpt>
      <trkpt lat="44.12121" lon="7.27224">
        <ele>1633.5</ele>
        <time>2023-02-05T14:00:11Z</time>
      </trkpt>
      <trkpt lat="44.1212" lon="7.27224">
        <ele>1633.4</ele>
        <time>2023-02-05T14:00:12Z</time>
      </trkpt>
      <trkpt lat="44.12119" lon="7.27225">
        <ele>1633.4</ele>
        <time>2023-02-05T14:00:13Z</time>
      </trkpt>
      <trkpt lat="44.12119" lon="7.27226">
        <ele>1633.3</ele>
        <time>2023-02-05T14:00:14Z</time>
      </trkpt>
      <trkpt lat="44.12118" lon="7.27228">
        <ele>1633.3</ele>
        <time>2023-02-05T14:00:15Z</time>
      </trkpt>
      <trkpt lat="44.12117" lon="7.27229">
        <ele>1633.1</ele>
        <time>2023-02-05T14:00:16Z</time>
      </trkpt>
      <trkpt lat="44.12117" lon="7.2723">
        <ele>1632.9</ele>
        <time>2023-02-05T14:00:17Z</time>
      </trkpt>
      <trkpt lat="44.12116" lon="7.2723">
        <ele>1632.8</ele>
        <time>2023-02-05T14:00:18Z</time>
      </trkpt>
      <trkpt lat="44.12115" lon="7.27231">
        <ele>1632.7</ele>
        <time>2023-02-05T14:00:19Z</time>
      </trkpt>
      <trkpt lat="44.12114" lon="7.27232">
        <ele>1632.5</ele>
        <time>2023-02-05T14:00:20Z</time>
      </trkpt>
      <trkpt lat="44.12113" lon="7.27233">
        <ele>1632.3</ele>
        <time>2023-02-05T14:00:21Z</time>
      </trkpt>
      <trkpt lat="44.12112" lon="7.27234">
        <ele>1632.2</ele>
        <time>2023-02-05T14:00:22Z</time>
      </trkpt>
      <trkpt lat="44.12111" lon="7.27235">
        <ele>1632.1</ele>
        <time>2023-02-05T14:00:23Z</time>
      </trkpt>
      <trkpt lat="44.12111" lon="7.27236">
        <ele>1631.9</ele>
        <time>2023-02-05T14:00:24Z</time>
      </trkpt>
      <trkpt lat="44.12111" lon="7.27238">
        <ele>1631.7</ele>
        <time>2023-02-05T14:00:25Z</time>
      </trkpt>
      <trkpt lat="44.1211" lon="7.27239">
        <ele>1631.6</ele>
        <time>2023-02-05T14:00:26Z</time>
      </trkpt>
      <trkpt lat="44.12109" lon="7.2724">
        <ele>1631.5</ele>
        <time>2023-02-05T14:00:27Z</time>
      </trkpt>
      <trkpt lat="44.12108" lon="7.27241">
        <ele>1631.4</ele>
        <time>2023-02-05T14:00:28Z</time>
      </trkpt>
      <trkpt lat="44.12107" lon="7.27242">
        <ele>1631.3</ele>
        <time>2023-02-05T14:00:29Z</time>
      </trkpt>
      <trkpt lat="44.12106" lon="7.27244">
        <ele>1631.1</ele>
        <time>2023-02-05T14:00:30Z</time>
      </trkpt>
      <trkpt lat="44.12106" lon="7.27245">
        <ele>1631</ele>
        <time>2023-02-05T14:00:31Z</time>
      </trkpt>
      <trkpt lat="44.12105" lon="7.27247">
        <ele>1630.9</ele>
        <time>2023-02-05T14:00:32Z</time>
      </trkpt>
      <trkpt lat="44.12104" lon="7.27248">
        <ele>1630.8</ele>
        <time>2023-02-05T14:00:33Z</time>
      </trkpt>
      <trkpt lat="44.12104" lon="7.2725">
        <ele>1630.6</ele>
        <time>2023-02-05T14:00:34Z</time>
      </trkpt>
      <trkpt lat="44.12103" lon="7.27251">
        <ele>1630.4</ele>
        <time>2023-02-05T14:00:35Z</time>
      </trkpt>
      <trkpt lat="44.12102" lon="7.27252">
        <ele>1630.3</ele>
        <time>2023-02-05T14:00:36Z</time>
      </trkpt>
      <trkpt lat="44.12102" lon="7.27253">
        <ele>1630.1</ele>
        <time>2023-02-05T14:00:37Z</time>
      </trkpt>
      <trkpt lat="44.12101" lon="7.27254">
        <ele>1629.9</ele>
        <time>2023-02-05T14:00:38Z</time>
      </trkpt>
      <trkpt lat="44.12101" lon="7.27255">
        <ele>1629.7</ele>
        <time>2023-02-05T14:00:39Z</time>
      </trkpt>
      <trkpt lat="44.12101" lon="7.27255">
        <ele>1629.6</ele>
        <time>2023-02-05T14:00:40Z</time>
      </trkpt>
      <trkpt lat="44.12101" lon="7.27256">
        <ele>1629.5</ele>
        <time>2023-02-05T14:00:41Z</time>
      </trkpt>
      <trkpt lat="44.12101" lon="7.27256">
        <ele>1629.4</ele>
        <time>2023-02-05T14:00:42Z</time>
      </trkpt>
      <trkpt lat="44.121" lon="7.27255">
        <ele>1629.4</ele>
        <time>2023-02-05T14:00:43Z</time>
      </trkpt>
      <trkpt lat="44.121" lon="7.27255">
        <ele>1629.4</ele>
        <time>2023-02-05T14:00:44Z</time>
      </trkpt>
      <trkpt lat="44.121" lon="7.27255">
        <ele>1629.4</ele>
        <time>2023-02-05T14:00:45Z</time>
      </trkpt>
      <trkpt lat="44.121" lon="7.27255">
        <ele>1629.3</ele>
        <time>2023-02-05T14:00:46Z</time>
      </trkpt>
      <trkpt lat="44.121" lon="7.27255">
        <ele>1629.3</ele>
        <time>2023-02-05T14:00:47Z</time>
      </trkpt>
      <trkpt lat="44.121" lon="7.27255">
        <ele>1629.2</ele>
        <time>2023-02-05T14:00:48Z</time>
      </trkpt>
      <trkpt lat="44.121" lon="7.27255">
        <ele>1629.1</ele>
        <time>2023-02-05T14:00:49Z</time>
      </trkpt>
      <trkpt lat="44.121" lon="7.27255">
        <ele>1629.1</ele>
        <time>2023-02-05T14:00:50Z</time>
      </trkpt>
      <trkpt lat="44.121" lon="7.27255">
        <ele>1629.1</ele>
        <time>2023-02-05T14:00:51Z</time>
      </trkpt>
      <trkpt lat="44.12099" lon="7.27255">
        <ele>1629.1</ele>
        <time>2023-02-05T14:00:52Z</time>
      </trkpt>
      <trkpt lat="44.12099" lon="7.27255">
        <ele>1629</ele>
        <time>2023-02-05T14:00:53Z</time>
      </trkpt>
      <trkpt lat="44.12099" lon="7.27255">
        <ele>1629</ele>
        <time>2023-02-05T14:00:54Z</time>
      </trkpt>
      <trkpt lat="44.12099" lon="7.27255">
        <ele>1628.9</ele>
        <time>2023-02-05T14:00:55Z</time>
      </trkpt>
      <trkpt lat="44.12099" lon="7.27255">
        <ele>1629</ele>
        <time>2023-02-05T14:00:56Z</time>
      </trkpt>
      <trkpt lat="44.12099" lon="7.27255">
        <ele>1629</ele>
        <time>2023-02-05T14:00:57Z</time>
      </trkpt>
      <trkpt lat="44.12099" lon="7.27256">
        <ele>1629</ele>
        <time>2023-02-05T14:00:58Z</time>
      </trkpt>
      <trkpt lat="44.12099" lon="7.27256">
        <ele>1629.1</ele>
        <time>2023-02-05T14:00:59Z</time>
      </trkpt>
      <trkpt lat="44.12099" lon="7.27256">
        <ele>1629.1</ele>
        <time>2023-02-05T14:01:00Z</time>
      </trkpt>
      <trkpt lat="44.12099" lon="7.27256">
        <ele>1629.1</ele>
        <time>2023-02-05T14:01:01Z</time>
      </trkpt>
      <trkpt lat="44.12099" lon="7.27257">
        <ele>1629.1</ele>
        <time>2023-02-05T14:01:02Z</time>
      </trkpt>
      <trkpt lat="44.12099" lon="7.27258">
        <ele>1629.1</ele>
        <time>2023-02-05T14:01:03Z</time>
      </trkpt>
      <trkpt lat="44.12098" lon="7.27258">
        <ele>1629.1</ele>
        <time>2023-02-05T14:01:04Z</time>
      </trkpt>
      <trkpt lat="44.12099" lon="7.27258">
        <ele>1629.2</ele>
        <time>2023-02-05T14:01:05Z</time>
      </trkpt>
      <trkpt lat="44.12099" lon="7.27258">
        <ele>1629.2</ele>
        <time>2023-02-05T14:01:06Z</time>
      </trkpt>
      <trkpt lat="44.12099" lon="7.27259">
        <ele>1629.2</ele>
        <time>2023-02-05T14:01:07Z</time>
      </trkpt>
      <trkpt lat="44.12099" lon="7.27259">
        <ele>1629.3</ele>
        <time>2023-02-05T14:01:08Z</time>
      </trkpt>
      <trkpt lat="44.12099" lon="7.27259">
        <ele>1629.3</ele>
        <time>2023-02-05T14:01:09Z</time>
      </trkpt>
      <trkpt lat="44.12099" lon="7.27259">
        <ele>1629.4</ele>
        <time>2023-02-05T14:01:10Z</time>
      </trkpt>
      <trkpt lat="44.12098" lon="7.27259">
        <ele>1629.3</ele>
        <time>2023-02-05T14:01:11Z</time>
      </trkpt>
      <trkpt lat="44.12098" lon="7.2726">
        <ele>1629.3</ele>
        <time>2023-02-05T14:01:12Z</time>
      </trkpt>
      <trkpt lat="44.12098" lon="7.27261">
        <ele>1629.2</ele>
        <time>2023-02-05T14:01:13Z</time>
      </trkpt>
      <trkpt lat="44.12097" lon="7.27263">
        <ele>1629.2</ele>
        <time>2023-02-05T14:01:14Z</time>
      </trkpt>
      <trkpt lat="44.12097" lon="7.27264">
        <ele>1629.1</ele>
        <time>2023-02-05T14:01:15Z</time>
      </trkpt>
      <trkpt lat="44.12098" lon="7.27265">
        <ele>1629</ele>
        <time>2023-02-05T14:01:16Z</time>
      </trkpt>
      <trkpt lat="44.12098" lon="7.27265">
        <ele>1629</ele>
        <time>2023-02-05T14:01:17Z</time>
      </trkpt>
      <trkpt lat="44.12098" lon="7.27265">
        <ele>1628.9</ele>
        <time>2023-02-05T14:01:18Z</time>
      </trkpt>
      <trkpt lat="44.12098" lon="7.27265">
        <ele>1628.9</ele>
        <time>2023-02-05T14:01:19Z</time>
      </trkpt>
      <trkpt lat="44.12098" lon="7.27265">
        <ele>1628.9</ele>
        <time>2023-02-05T14:01:20Z</time>
      </trkpt>
      <trkpt lat="44.12098" lon="7.27265">
        <ele>1628.8</ele>
        <time>2023-02-05T14:01:21Z</time>
      </trkpt>
      <trkpt lat="44.12098" lon="7.27265">
        <ele>1628.8</ele>
        <time>2023-02-05T14:01:22Z</time>
      </trkpt>
      <trkpt lat="44.12098" lon="7.27265">
        <ele>1628.7</ele>
        <time>2023-02-05T14:01:23Z</time>
      </trkpt>
      <trkpt lat="44.12098" lon="7.27265">
        <ele>1628.8</ele>
        <time>2023-02-05T14:01:24Z</time>
      </trkpt>
      <trkpt lat="44.12098" lon="7.27265">
        <ele>1628.7</ele>
        <time>2023-02-05T14:01:25Z</time>
      </trkpt>
      <trkpt lat="44.12098" lon="7.27265">
        <ele>1628.7</ele>
        <time>2023-02-05T14:01:26Z</time>
      </trkpt>
      <trkpt lat="44.12098" lon="7.27265">
        <ele>1628.6</ele>
        <time>2023-02-05T14:01:27Z</time>
      </trkpt>
      <trkpt lat="44.12098" lon="7.27265">
        <ele>1628.6</ele>
        <time>2023-02-05T14:01:28Z</time>
      </trkpt>
      <trkpt lat="44.12098" lon="7.27265">
        <ele>1628.6</ele>
        <time>2023-02-05T14:01:29Z</time>
      </trkpt>
      <trkpt lat="44.12098" lon="7.27265">
        <ele>1628.6</ele>
        <time>2023-02-05T14:01:30Z</time>
      </trkpt>
      <trkpt lat="44.12098" lon="7.27266">
        <ele>1628.5</ele>
        <time>2023-02-05T14:01:31Z</time>
      </trkpt>
      <trkpt lat="44.12099" lon="7.27265">
        <ele>1628.5</ele>
        <time>2023-02-05T14:01:32Z</time>
      </trkpt>
      <trkpt lat="44.12099" lon="7.27264">
        <ele>1628.5</ele>
        <time>2023-02-05T14:01:33Z</time>
      </trkpt>
      <trkpt lat="44.121" lon="7.27263">
        <ele>1628.5</ele>
        <time>2023-02-05T14:01:34Z</time>
      </trkpt>
      <trkpt lat="44.121" lon="7.27262">
        <ele>1628.3</ele>
        <time>2023-02-05T14:01:35Z</time>
      </trkpt>
      <trkpt lat="44.12101" lon="7.27261">
        <ele>1628.4</ele>
        <time>2023-02-05T14:01:36Z</time>
      </trkpt>
      <trkpt lat="44.12101" lon="7.27261">
        <ele>1628.5</ele>
        <time>2023-02-05T14:01:37Z</time>
      </trkpt>
      <trkpt lat="44.121" lon="7.27262">
        <ele>1628.5</ele>
        <time>2023-02-05T14:01:38Z</time>
      </trkpt>
      <trkpt lat="44.121" lon="7.27263">
        <ele>1628.5</ele>
        <time>2023-02-05T14:01:39Z</time>
      </trkpt>
      <trkpt lat="44.12099" lon="7.27264">
        <ele>1628.5</ele>
        <time>2023-02-05T14:01:40Z</time>
      </trkpt>
      <trkpt lat="44.12098" lon="7.27266">
        <ele>1628.5</ele>
        <time>2023-02-05T14:01:41Z</time>
      </trkpt>
      <trkpt lat="44.12098" lon="7.27266">
        <ele>1628.4</ele>
        <time>2023-02-05T14:01:42Z</time>
      </trkpt>
      <trkpt lat="44.12098" lon="7.27267">
        <ele>1628.3</ele>
        <time>2023-02-05T14:01:43Z</time>
      </trkpt>
      <trkpt lat="44.12098" lon="7.27267">
        <ele>1628.3</ele>
        <time>2023-02-05T14:01:44Z</time>
      </trkpt>
      <trkpt lat="44.12098" lon="7.27268">
        <ele>1628.2</ele>
        <time>2023-02-05T14:01:45Z</time>
      </trkpt>
      <trkpt lat="44.12098" lon="7.27268">
        <ele>1628.3</ele>
        <time>2023-02-05T14:01:46Z</time>
      </trkpt>
      <trkpt lat="44.12098" lon="7.27267">
        <ele>1628.3</ele>
        <time>2023-02-05T14:01:47Z</time>
      </trkpt>
      <trkpt lat="44.12098" lon="7.27267">
        <ele>1628.4</ele>
        <time>2023-02-05T14:01:48Z</time>
      </trkpt>
      <trkpt lat="44.12097" lon="7.27268">
        <ele>1628.4</ele>
        <time>2023-02-05T14:01:49Z</time>
      </trkpt>
      <trkpt lat="44.12097" lon="7.27267">
        <ele>1628.4</ele>
        <time>2023-02-05T14:01:50Z</time>
      </trkpt>
      <trkpt lat="44.12097" lon="7.27268">
        <ele>1628.5</ele>
        <time>2023-02-05T14:01:51Z</time>
      </trkpt>
      <trkpt lat="44.12097" lon="7.27268">
        <ele>1628.5</ele>
        <time>2023-02-05T14:01:52Z</time>
      </trkpt>
      <trkpt lat="44.12097" lon="7.27269">
        <ele>1628.5</ele>
        <time>2023-02-05T14:01:53Z</time>
      </trkpt>
      <trkpt lat="44.12097" lon="7.27269">
        <ele>1628.5</ele>
        <time>2023-02-05T14:01:54Z</time>
      </trkpt>
      <trkpt lat="44.12098" lon="7.27269">
        <ele>1628.5</ele>
        <time>2023-02-05T14:01:55Z</time>
      </trkpt>
      <trkpt lat="44.12098" lon="7.27269">
        <ele>1628.5</ele>
        <time>2023-02-05T14:01:56Z</time>
      </trkpt>
      <trkpt lat="44.12098" lon="7.27269">
        <ele>1628.5</ele>
        <time>2023-02-05T14:01:57Z</time>
      </trkpt>
      <trkpt lat="44.12098" lon="7.27269">
        <ele>1628.5</ele>
        <time>2023-02-05T14:01:58Z</time>
      </trkpt>
      <trkpt lat="44.12098" lon="7.2727">
        <ele>1628.5</ele>
        <time>2023-02-05T14:01:59Z</time>
      </trkpt>
      <trkpt lat="44.12098" lon="7.2727">
        <ele>1628.5</ele>
        <time>2023-02-05T14:02:00Z</time>
      </trkpt>
      <trkpt lat="44.12098" lon="7.2727">
        <ele>1628.5</ele>
        <time>2023-02-05T14:02:01Z</time>
      </trkpt>
      <trkpt lat="44.12098" lon="7.2727">
        <ele>1628.4</ele>
        <time>2023-02-05T14:02:02Z</time>
      </trkpt>
      <trkpt lat="44.12098" lon="7.2727">
        <ele>1628.4</ele>
        <time>2023-02-05T14:02:03Z</time>
      </trkpt>
      <trkpt lat="44.12098" lon="7.27271">
        <ele>1628.4</ele>
        <time>2023-02-05T14:02:04Z</time>
      </trkpt>
      <trkpt lat="44.12098" lon="7.27271">
        <ele>1628.4</ele>
        <time>2023-02-05T14:02:05Z</time>
      </trkpt>
      <trkpt lat="44.12097" lon="7.27271">
        <ele>1628.4</ele>
        <time>2023-02-05T14:02:06Z</time>
      </trkpt>
      <trkpt lat="44.12097" lon="7.27272">
        <ele>1628.3</ele>
        <time>2023-02-05T14:02:07Z</time>
      </trkpt>
      <trkpt lat="44.12096" lon="7.27272">
        <ele>1628.3</ele>
        <time>2023-02-05T14:02:08Z</time>
      </trkpt>
      <trkpt lat="44.12096" lon="7.27272">
        <ele>1628.3</ele>
        <time>2023-02-05T14:02:09Z</time>
      </trkpt>
      <trkpt lat="44.12096" lon="7.27272">
        <ele>1628.3</ele>
        <time>2023-02-05T14:02:10Z</time>
      </trkpt>
      <trkpt lat="44.12096" lon="7.27271">
        <ele>1628.3</ele>
        <time>2023-02-05T14:02:11Z</time>
      </trkpt>
      <trkpt lat="44.12097" lon="7.27271">
        <ele>1628.4</ele>
        <time>2023-02-05T14:02:12Z</time>
      </trkpt>
      <trkpt lat="44.12097" lon="7.27271">
        <ele>1628.4</ele>
        <time>2023-02-05T14:02:13Z</time>
      </trkpt>
      <trkpt lat="44.12097" lon="7.27271">
        <ele>1628.5</ele>
        <time>2023-02-05T14:02:14Z</time>
      </trkpt>
      <trkpt lat="44.12097" lon="7.27271">
        <ele>1628.4</ele>
        <time>2023-02-05T14:02:15Z</time>
      </trkpt>
      <trkpt lat="44.12097" lon="7.27271">
        <ele>1628.4</ele>
        <time>2023-02-05T14:02:16Z</time>
      </trkpt>
      <trkpt lat="44.12097" lon="7.27272">
        <ele>1628.4</ele>
        <time>2023-02-05T14:02:17Z</time>
      </trkpt>
      <trkpt lat="44.12097" lon="7.27272">
        <ele>1628.5</ele>
        <time>2023-02-05T14:02:18Z</time>
      </trkpt>
      <trkpt lat="44.12097" lon="7.27272">
        <ele>1628.6</ele>
        <time>2023-02-05T14:02:19Z</time>
      </trkpt>
      <trkpt lat="44.12097" lon="7.27272">
        <ele>1628.6</ele>
        <time>2023-02-05T14:02:20Z</time>
      </trkpt>
      <trkpt lat="44.12097" lon="7.27271">
        <ele>1628.6</ele>
        <time>2023-02-05T14:02:21Z</time>
      </trkpt>
      <trkpt lat="44.12097" lon="7.27271">
        <ele>1628.5</ele>
        <time>2023-02-05T14:02:22Z</time>
      </trkpt>
      <trkpt lat="44.12097" lon="7.2727">
        <ele>1628.5</ele>
        <time>2023-02-05T14:02:23Z</time>
      </trkpt>
      <trkpt lat="44.12097" lon="7.2727">
        <ele>1628.5</ele>
        <time>2023-02-05T14:02:24Z</time>
      </trkpt>
      <trkpt lat="44.12097" lon="7.2727">
        <ele>1628.5</ele>
        <time>2023-02-05T14:02:25Z</time>
      </trkpt>
      <trkpt lat="44.12097" lon="7.27269">
        <ele>1628.6</ele>
        <time>2023-02-05T14:02:26Z</time>
      </trkpt>
      <trkpt lat="44.12097" lon="7.27269">
        <ele>1628.6</ele>
        <time>2023-02-05T14:02:27Z</time>
      </trkpt>
      <trkpt lat="44.12097" lon="7.27269">
        <ele>1628.6</ele>
        <time>2023-02-05T14:02:28Z</time>
      </trkpt>
      <trkpt lat="44.12097" lon="7.27269">
        <ele>1628.6</ele>
        <time>2023-02-05T14:02:29Z</time>
      </trkpt>
      <trkpt lat="44.12098" lon="7.2727">
        <ele>1628.6</ele>
        <time>2023-02-05T14:02:30Z</time>
      </trkpt>
      <trkpt lat="44.12098" lon="7.27269">
        <ele>1628.6</ele>
        <time>2023-02-05T14:02:31Z</time>
      </trkpt>
      <trkpt lat="44.12098" lon="7.27269">
        <ele>1628.6</ele>
        <time>2023-02-05T14:02:32Z</time>
      </trkpt>
      <trkpt lat="44.12098" lon="7.27269">
        <ele>1628.6</ele>
        <time>2023-02-05T14:02:33Z</time>
      </trkpt>
      <trkpt lat="44.12098" lon="7.27269">
        <ele>1628.6</ele>
        <time>2023-02-05T14:02:34Z</time>
      </trkpt>
      <trkpt lat="44.12098" lon="7.27269">
        <ele>1628.6</ele>
        <time>2023-02-05T14:02:35Z</time>
      </trkpt>
      <trkpt lat="44.12098" lon="7.27269">
        <ele>1628.7</ele>
        <time>2023-02-05T14:02:36Z</time>
      </trkpt>
      <trkpt lat="44.12098" lon="7.2727">
        <ele>1628.7</ele>
        <time>2023-02-05T14:02:37Z</time>
      </trkpt>
      <trkpt lat="44.12098" lon="7.2727">
        <ele>1628.7</ele>
        <time>2023-02-05T14:02:38Z</time>
      </trkpt>
      <trkpt lat="44.12099" lon="7.2727">
        <ele>1628.7</ele>
        <time>2023-02-05T14:02:39Z</time>
      </trkpt>
      <trkpt lat="44.12098" lon="7.27268">
        <ele>1628.6</ele>
        <time>2023-02-05T14:02:40Z</time>
      </trkpt>
      <trkpt lat="44.12098" lon="7.27268">
        <ele>1628.6</ele>
        <time>2023-02-05T14:02:41Z</time>
      </trkpt>
      <trkpt lat="44.12098" lon="7.27268">
        <ele>1628.6</ele>
        <time>2023-02-05T14:02:42Z</time>
      </trkpt>
      <trkpt lat="44.12098" lon="7.27267">
        <ele>1628.6</ele>
        <time>2023-02-05T14:02:43Z</time>
      </trkpt>
      <trkpt lat="44.12098" lon="7.27268">
        <ele>1628.7</ele>
        <time>2023-02-05T14:02:44Z</time>
      </trkpt>
      <trkpt lat="44.12098" lon="7.27267">
        <ele>1628.7</ele>
        <time>2023-02-05T14:02:45Z</time>
      </trkpt>
      <trkpt lat="44.12097" lon="7.27267">
        <ele>1628.8</ele>
        <time>2023-02-05T14:02:46Z</time>
      </trkpt>
      <trkpt lat="44.12097" lon="7.27266">
        <ele>1628.8</ele>
        <time>2023-02-05T14:02:47Z</time>
      </trkpt>
      <trkpt lat="44.12097" lon="7.27266">
        <ele>1628.9</ele>
        <time>2023-02-05T14:02:48Z</time>
      </trkpt>
      <trkpt lat="44.12097" lon="7.27266">
        <ele>1628.9</ele>
        <time>2023-02-05T14:02:49Z</time>
      </trkpt>
      <trkpt lat="44.12097" lon="7.27266">
        <ele>1628.9</ele>
        <time>2023-02-05T14:02:50Z</time>
      </trkpt>
      <trkpt lat="44.12097" lon="7.27266">
        <ele>1629</ele>
        <time>2023-02-05T14:02:51Z</time>
      </trkpt>
      <trkpt lat="44.12097" lon="7.27265">
        <ele>1628.8</ele>
        <time>2023-02-05T14:02:52Z</time>
      </trkpt>
      <trkpt lat="44.12097" lon="7.27265">
        <ele>1628.7</ele>
        <time>2023-02-05T14:02:53Z</time>
      </trkpt>
      <trkpt lat="44.12097" lon="7.27265">
        <ele>1628.7</ele>
        <time>2023-02-05T14:02:54Z</time>
      </trkpt>
      <trkpt lat="44.12097" lon="7.27265">
        <ele>1628.6</ele>
        <time>2023-02-05T14:02:55Z</time>
      </trkpt>
      <trkpt lat="44.12097" lon="7.27265">
        <ele>1628.6</ele>
        <time>2023-02-05T14:02:56Z</time>
      </trkpt>
      <trkpt lat="44.12097" lon="7.27265">
        <ele>1628.6</ele>
        <time>2023-02-05T14:02:57Z</time>
      </trkpt>
      <trkpt lat="44.12097" lon="7.27264">
        <ele>1628.5</ele>
        <time>2023-02-05T14:02:58Z</time>
      </trkpt>
      <trkpt lat="44.12097" lon="7.27264">
        <ele>1628.5</ele>
        <time>2023-02-05T14:02:59Z</time>
      </trkpt>
      <trkpt lat="44.12096" lon="7.27263">
        <ele>1628.6</ele>
        <time>2023-02-05T14:03:00Z</time>
      </trkpt>
      <trkpt lat="44.12096" lon="7.27263">
        <ele>1628.6</ele>
        <time>2023-02-05T14:03:00Z</time>
      </trkpt>
      <trkpt lat="44.12096" lon="7.27263">
        <ele>1628.6</ele>
        <time>2023-02-05T14:03:00Z</time>
      </trkpt>
    </trkseg>
  </trk>
</gpx>